<?xml version="1.0" encoding="UTF-8"?>
<gpx version="1.1" creator="https://www.youtrack.es" xsi:schemaLocation="http://www.topografix.com/GPX/1/1 http://www.topografix.com/GPX/1/1/gpx.xsd http://www.garmin.com/xmlschemas/GpxExtensions/v3 http://www.garmin.com/xmlschemas/GpxExtensionsv3.xsd http://www.garmin.com/xmlschemas/TrackPointExtension/v1 http://www.garmin.com/xmlschemas/TrackPointExtensionv1.xsd" xmlns:gpxtpx="http://www.garmin.com/xmlschemas/TrackPointExtension/v1" xmlns:gpxx="http://www.garmin.com/xmlschemas/GpxExtensions/v3" xmlns:xsi="http://www.w3.org/2001/XMLSchema-instance">
  <metadata>
    <link href="https://www.youtrack.es">
      <text>YouTrack.es</text>
    </link>
    <time>2026-05-08T00:34:04Z</time>
  </metadata>
  <trk>
    <src>https://www.youtrack.es</src>
    <link href="https://www.youtrack.es/ruta/32960-transpyr-3">
      <text>YouTrack.es</text>
    </link>
    <trkseg>
      <trkpt lat="43.1907" lon="-0.62244">
        <ele>238.6</ele>
        <time>2022-06-08 08:56:19</time>
      </trkpt>
      <trkpt lat="43.19074" lon="-0.62238">
        <ele>234.8</ele>
        <time>2022-06-08 08:56:21</time>
      </trkpt>
      <trkpt lat="43.19078" lon="-0.62232">
        <ele>234.2</ele>
        <time>2022-06-08 08:56:23</time>
      </trkpt>
      <trkpt lat="43.1908" lon="-0.62229">
        <ele>234</ele>
        <time>2022-06-08 08:56:24</time>
      </trkpt>
      <trkpt lat="43.19081" lon="-0.62227">
        <ele>234</ele>
        <time>2022-06-08 08:56:25</time>
      </trkpt>
      <trkpt lat="43.19082" lon="-0.62224">
        <ele>234</ele>
        <time>2022-06-08 08:56:26</time>
      </trkpt>
      <trkpt lat="43.19083" lon="-0.62222">
        <ele>234.2</ele>
        <time>2022-06-08 08:56:27</time>
      </trkpt>
      <trkpt lat="43.19084" lon="-0.62219">
        <ele>234.4</ele>
        <time>2022-06-08 08:56:28</time>
      </trkpt>
      <trkpt lat="43.19084" lon="-0.62217">
        <ele>234.4</ele>
        <time>2022-06-08 08:56:29</time>
      </trkpt>
      <trkpt lat="43.19084" lon="-0.62214">
        <ele>234.2</ele>
        <time>2022-06-08 08:56:30</time>
      </trkpt>
      <trkpt lat="43.19083" lon="-0.62211">
        <ele>234.2</ele>
        <time>2022-06-08 08:56:31</time>
      </trkpt>
      <trkpt lat="43.19082" lon="-0.62209">
        <ele>234.2</ele>
        <time>2022-06-08 08:56:32</time>
      </trkpt>
      <trkpt lat="43.1908" lon="-0.62206">
        <ele>234.2</ele>
        <time>2022-06-08 08:56:33</time>
      </trkpt>
      <trkpt lat="43.19079" lon="-0.62203">
        <ele>234.2</ele>
        <time>2022-06-08 08:56:34</time>
      </trkpt>
      <trkpt lat="43.19077" lon="-0.622">
        <ele>234.2</ele>
        <time>2022-06-08 08:56:35</time>
      </trkpt>
      <trkpt lat="43.19075" lon="-0.62197">
        <ele>234.4</ele>
        <time>2022-06-08 08:56:36</time>
      </trkpt>
      <trkpt lat="43.19073" lon="-0.62194">
        <ele>234.4</ele>
        <time>2022-06-08 08:56:37</time>
      </trkpt>
      <trkpt lat="43.19071" lon="-0.62192">
        <ele>234.4</ele>
        <time>2022-06-08 08:56:38</time>
      </trkpt>
      <trkpt lat="43.19069" lon="-0.62189">
        <ele>234.4</ele>
        <time>2022-06-08 08:56:39</time>
      </trkpt>
      <trkpt lat="43.19067" lon="-0.62187">
        <ele>234.4</ele>
        <time>2022-06-08 08:56:40</time>
      </trkpt>
      <trkpt lat="43.19064" lon="-0.62184">
        <ele>234.4</ele>
        <time>2022-06-08 08:56:41</time>
      </trkpt>
      <trkpt lat="43.19062" lon="-0.62182">
        <ele>234.6</ele>
        <time>2022-06-08 08:56:42</time>
      </trkpt>
      <trkpt lat="43.1906" lon="-0.6218">
        <ele>234.6</ele>
        <time>2022-06-08 08:56:43</time>
      </trkpt>
      <trkpt lat="43.19058" lon="-0.62178">
        <ele>234.6</ele>
        <time>2022-06-08 08:56:44</time>
      </trkpt>
      <trkpt lat="43.19056" lon="-0.62176">
        <ele>234.6</ele>
        <time>2022-06-08 08:56:45</time>
      </trkpt>
      <trkpt lat="43.19054" lon="-0.62173">
        <ele>234.6</ele>
        <time>2022-06-08 08:56:46</time>
      </trkpt>
      <trkpt lat="43.19052" lon="-0.62171">
        <ele>234.6</ele>
        <time>2022-06-08 08:56:47</time>
      </trkpt>
      <trkpt lat="43.1905" lon="-0.62169">
        <ele>234.8</ele>
        <time>2022-06-08 08:56:48</time>
      </trkpt>
      <trkpt lat="43.19048" lon="-0.62167">
        <ele>234.8</ele>
        <time>2022-06-08 08:56:49</time>
      </trkpt>
      <trkpt lat="43.19047" lon="-0.62167">
        <ele>234.8</ele>
        <time>2022-06-08 08:56:50</time>
      </trkpt>
      <trkpt lat="43.19046" lon="-0.62166">
        <ele>234.8</ele>
        <time>2022-06-08 08:56:51</time>
      </trkpt>
      <trkpt lat="43.19046" lon="-0.62166">
        <ele>234.8</ele>
        <time>2022-06-08 08:56:52</time>
      </trkpt>
      <trkpt lat="43.19044" lon="-0.62165">
        <ele>234.8</ele>
        <time>2022-06-08 08:56:53</time>
      </trkpt>
      <trkpt lat="43.19042" lon="-0.62164">
        <ele>234.8</ele>
        <time>2022-06-08 08:56:54</time>
      </trkpt>
      <trkpt lat="43.1904" lon="-0.62163">
        <ele>234.8</ele>
        <time>2022-06-08 08:56:55</time>
      </trkpt>
      <trkpt lat="43.19036" lon="-0.62162">
        <ele>234.8</ele>
        <time>2022-06-08 08:56:56</time>
      </trkpt>
      <trkpt lat="43.19033" lon="-0.62159">
        <ele>234.8</ele>
        <time>2022-06-08 08:56:57</time>
      </trkpt>
      <trkpt lat="43.1903" lon="-0.62155">
        <ele>234.8</ele>
        <time>2022-06-08 08:56:58</time>
      </trkpt>
      <trkpt lat="43.19028" lon="-0.6215">
        <ele>234.8</ele>
        <time>2022-06-08 08:56:59</time>
      </trkpt>
      <trkpt lat="43.19028" lon="-0.62144">
        <ele>234.8</ele>
        <time>2022-06-08 08:57:00</time>
      </trkpt>
      <trkpt lat="43.19029" lon="-0.62138">
        <ele>234.8</ele>
        <time>2022-06-08 08:57:01</time>
      </trkpt>
      <trkpt lat="43.19032" lon="-0.62133">
        <ele>234.6</ele>
        <time>2022-06-08 08:57:02</time>
      </trkpt>
      <trkpt lat="43.19036" lon="-0.62128">
        <ele>234.6</ele>
        <time>2022-06-08 08:57:03</time>
      </trkpt>
      <trkpt lat="43.1904" lon="-0.62124">
        <ele>234.6</ele>
        <time>2022-06-08 08:57:04</time>
      </trkpt>
      <trkpt lat="43.19044" lon="-0.62119">
        <ele>234.6</ele>
        <time>2022-06-08 08:57:05</time>
      </trkpt>
      <trkpt lat="43.19048" lon="-0.62114">
        <ele>234.4</ele>
        <time>2022-06-08 08:57:06</time>
      </trkpt>
      <trkpt lat="43.19052" lon="-0.62108">
        <ele>234.4</ele>
        <time>2022-06-08 08:57:07</time>
      </trkpt>
      <trkpt lat="43.19055" lon="-0.62102">
        <ele>234.4</ele>
        <time>2022-06-08 08:57:08</time>
      </trkpt>
      <trkpt lat="43.19059" lon="-0.62096">
        <ele>234.2</ele>
        <time>2022-06-08 08:57:09</time>
      </trkpt>
      <trkpt lat="43.19062" lon="-0.6209">
        <ele>234.2</ele>
        <time>2022-06-08 08:57:10</time>
      </trkpt>
      <trkpt lat="43.19065" lon="-0.62083">
        <ele>233.8</ele>
        <time>2022-06-08 08:57:11</time>
      </trkpt>
      <trkpt lat="43.19069" lon="-0.62076">
        <ele>233.8</ele>
        <time>2022-06-08 08:57:12</time>
      </trkpt>
      <trkpt lat="43.19072" lon="-0.62069">
        <ele>233.6</ele>
        <time>2022-06-08 08:57:13</time>
      </trkpt>
      <trkpt lat="43.19076" lon="-0.62063">
        <ele>233.6</ele>
        <time>2022-06-08 08:57:14</time>
      </trkpt>
      <trkpt lat="43.19079" lon="-0.62056">
        <ele>233.4</ele>
        <time>2022-06-08 08:57:15</time>
      </trkpt>
      <trkpt lat="43.19082" lon="-0.62049">
        <ele>233.4</ele>
        <time>2022-06-08 08:57:16</time>
      </trkpt>
      <trkpt lat="43.19085" lon="-0.62043">
        <ele>233.2</ele>
        <time>2022-06-08 08:57:17</time>
      </trkpt>
      <trkpt lat="43.19088" lon="-0.62037">
        <ele>233</ele>
        <time>2022-06-08 08:57:18</time>
      </trkpt>
      <trkpt lat="43.19091" lon="-0.6203">
        <ele>233</ele>
        <time>2022-06-08 08:57:19</time>
      </trkpt>
      <trkpt lat="43.19095" lon="-0.62024">
        <ele>232.8</ele>
        <time>2022-06-08 08:57:20</time>
      </trkpt>
      <trkpt lat="43.19097" lon="-0.62018">
        <ele>232.8</ele>
        <time>2022-06-08 08:57:21</time>
      </trkpt>
      <trkpt lat="43.191" lon="-0.62012">
        <ele>232.6</ele>
        <time>2022-06-08 08:57:22</time>
      </trkpt>
      <trkpt lat="43.19102" lon="-0.62006">
        <ele>232.6</ele>
        <time>2022-06-08 08:57:23</time>
      </trkpt>
      <trkpt lat="43.19104" lon="-0.62002">
        <ele>232.6</ele>
        <time>2022-06-08 08:57:24</time>
      </trkpt>
      <trkpt lat="43.19105" lon="-0.61997">
        <ele>232.4</ele>
        <time>2022-06-08 08:57:25</time>
      </trkpt>
      <trkpt lat="43.19107" lon="-0.61993">
        <ele>232.4</ele>
        <time>2022-06-08 08:57:26</time>
      </trkpt>
      <trkpt lat="43.19109" lon="-0.6199">
        <ele>232.4</ele>
        <time>2022-06-08 08:57:27</time>
      </trkpt>
      <trkpt lat="43.19111" lon="-0.61986">
        <ele>232.4</ele>
        <time>2022-06-08 08:57:28</time>
      </trkpt>
      <trkpt lat="43.19112" lon="-0.61983">
        <ele>232.4</ele>
        <time>2022-06-08 08:57:29</time>
      </trkpt>
      <trkpt lat="43.19114" lon="-0.6198">
        <ele>232.4</ele>
        <time>2022-06-08 08:57:30</time>
      </trkpt>
      <trkpt lat="43.19114" lon="-0.61977">
        <ele>232.2</ele>
        <time>2022-06-08 08:57:31</time>
      </trkpt>
      <trkpt lat="43.19116" lon="-0.61974">
        <ele>232.2</ele>
        <time>2022-06-08 08:57:32</time>
      </trkpt>
      <trkpt lat="43.19118" lon="-0.61971">
        <ele>232.2</ele>
        <time>2022-06-08 08:57:33</time>
      </trkpt>
      <trkpt lat="43.19119" lon="-0.61968">
        <ele>232.2</ele>
        <time>2022-06-08 08:57:34</time>
      </trkpt>
      <trkpt lat="43.1912" lon="-0.61966">
        <ele>232</ele>
        <time>2022-06-08 08:57:35</time>
      </trkpt>
      <trkpt lat="43.19122" lon="-0.61963">
        <ele>231.8</ele>
        <time>2022-06-08 08:57:36</time>
      </trkpt>
      <trkpt lat="43.19125" lon="-0.6196">
        <ele>232</ele>
        <time>2022-06-08 08:57:37</time>
      </trkpt>
      <trkpt lat="43.19126" lon="-0.61957">
        <ele>231.8</ele>
        <time>2022-06-08 08:57:38</time>
      </trkpt>
      <trkpt lat="43.19127" lon="-0.61954">
        <ele>231.8</ele>
        <time>2022-06-08 08:57:39</time>
      </trkpt>
      <trkpt lat="43.19129" lon="-0.61949">
        <ele>231.8</ele>
        <time>2022-06-08 08:57:40</time>
      </trkpt>
      <trkpt lat="43.19131" lon="-0.61945">
        <ele>231.6</ele>
        <time>2022-06-08 08:57:41</time>
      </trkpt>
      <trkpt lat="43.19133" lon="-0.6194">
        <ele>231.6</ele>
        <time>2022-06-08 08:57:42</time>
      </trkpt>
      <trkpt lat="43.19136" lon="-0.61936">
        <ele>231.6</ele>
        <time>2022-06-08 08:57:43</time>
      </trkpt>
      <trkpt lat="43.19139" lon="-0.61931">
        <ele>231.6</ele>
        <time>2022-06-08 08:57:44</time>
      </trkpt>
      <trkpt lat="43.19141" lon="-0.61928">
        <ele>231.6</ele>
        <time>2022-06-08 08:57:45</time>
      </trkpt>
      <trkpt lat="43.19142" lon="-0.61924">
        <ele>231.6</ele>
        <time>2022-06-08 08:57:46</time>
      </trkpt>
      <trkpt lat="43.19144" lon="-0.61921">
        <ele>231.6</ele>
        <time>2022-06-08 08:57:47</time>
      </trkpt>
      <trkpt lat="43.19146" lon="-0.61917">
        <ele>231.6</ele>
        <time>2022-06-08 08:57:48</time>
      </trkpt>
      <trkpt lat="43.19147" lon="-0.61914">
        <ele>231.6</ele>
        <time>2022-06-08 08:57:49</time>
      </trkpt>
      <trkpt lat="43.19146" lon="-0.6191">
        <ele>231.6</ele>
        <time>2022-06-08 08:57:50</time>
      </trkpt>
      <trkpt lat="43.19147" lon="-0.61907">
        <ele>231.6</ele>
        <time>2022-06-08 08:57:51</time>
      </trkpt>
      <trkpt lat="43.19148" lon="-0.61904">
        <ele>231.6</ele>
        <time>2022-06-08 08:57:52</time>
      </trkpt>
      <trkpt lat="43.19149" lon="-0.61901">
        <ele>231.6</ele>
        <time>2022-06-08 08:57:53</time>
      </trkpt>
      <trkpt lat="43.19149" lon="-0.61898">
        <ele>231.6</ele>
        <time>2022-06-08 08:57:54</time>
      </trkpt>
      <trkpt lat="43.19149" lon="-0.61895">
        <ele>231.8</ele>
        <time>2022-06-08 08:57:55</time>
      </trkpt>
      <trkpt lat="43.19149" lon="-0.61891">
        <ele>232</ele>
        <time>2022-06-08 08:57:56</time>
      </trkpt>
      <trkpt lat="43.19148" lon="-0.61886">
        <ele>231.8</ele>
        <time>2022-06-08 08:57:57</time>
      </trkpt>
      <trkpt lat="43.19148" lon="-0.61882">
        <ele>231.8</ele>
        <time>2022-06-08 08:57:58</time>
      </trkpt>
      <trkpt lat="43.19149" lon="-0.61877">
        <ele>231.8</ele>
        <time>2022-06-08 08:57:59</time>
      </trkpt>
      <trkpt lat="43.19149" lon="-0.61872">
        <ele>231.8</ele>
        <time>2022-06-08 08:58:00</time>
      </trkpt>
      <trkpt lat="43.1915" lon="-0.61867">
        <ele>231.8</ele>
        <time>2022-06-08 08:58:01</time>
      </trkpt>
      <trkpt lat="43.19149" lon="-0.61861">
        <ele>231.8</ele>
        <time>2022-06-08 08:58:02</time>
      </trkpt>
      <trkpt lat="43.19148" lon="-0.61856">
        <ele>231.8</ele>
        <time>2022-06-08 08:58:03</time>
      </trkpt>
      <trkpt lat="43.19147" lon="-0.6185">
        <ele>231.8</ele>
        <time>2022-06-08 08:58:04</time>
      </trkpt>
      <trkpt lat="43.19145" lon="-0.61845">
        <ele>232</ele>
        <time>2022-06-08 08:58:05</time>
      </trkpt>
      <trkpt lat="43.19142" lon="-0.6184">
        <ele>232</ele>
        <time>2022-06-08 08:58:06</time>
      </trkpt>
      <trkpt lat="43.19139" lon="-0.61836">
        <ele>232</ele>
        <time>2022-06-08 08:58:07</time>
      </trkpt>
      <trkpt lat="43.19135" lon="-0.61831">
        <ele>232.2</ele>
        <time>2022-06-08 08:58:08</time>
      </trkpt>
      <trkpt lat="43.19131" lon="-0.61827">
        <ele>232.2</ele>
        <time>2022-06-08 08:58:09</time>
      </trkpt>
      <trkpt lat="43.19127" lon="-0.61823">
        <ele>232.2</ele>
        <time>2022-06-08 08:58:10</time>
      </trkpt>
      <trkpt lat="43.19124" lon="-0.61819">
        <ele>232.4</ele>
        <time>2022-06-08 08:58:11</time>
      </trkpt>
      <trkpt lat="43.1912" lon="-0.61816">
        <ele>232.4</ele>
        <time>2022-06-08 08:58:12</time>
      </trkpt>
      <trkpt lat="43.19116" lon="-0.61813">
        <ele>232.4</ele>
        <time>2022-06-08 08:58:13</time>
      </trkpt>
      <trkpt lat="43.19113" lon="-0.6181">
        <ele>232.4</ele>
        <time>2022-06-08 08:58:14</time>
      </trkpt>
      <trkpt lat="43.1911" lon="-0.61807">
        <ele>232.4</ele>
        <time>2022-06-08 08:58:15</time>
      </trkpt>
      <trkpt lat="43.19107" lon="-0.61804">
        <ele>232.4</ele>
        <time>2022-06-08 08:58:16</time>
      </trkpt>
      <trkpt lat="43.19105" lon="-0.61802">
        <ele>232.6</ele>
        <time>2022-06-08 08:58:17</time>
      </trkpt>
      <trkpt lat="43.19102" lon="-0.618">
        <ele>232.6</ele>
        <time>2022-06-08 08:58:18</time>
      </trkpt>
      <trkpt lat="43.191" lon="-0.61798">
        <ele>232.6</ele>
        <time>2022-06-08 08:58:19</time>
      </trkpt>
      <trkpt lat="43.19097" lon="-0.61795">
        <ele>232.6</ele>
        <time>2022-06-08 08:58:20</time>
      </trkpt>
      <trkpt lat="43.19096" lon="-0.61793">
        <ele>232.6</ele>
        <time>2022-06-08 08:58:21</time>
      </trkpt>
      <trkpt lat="43.19093" lon="-0.61792">
        <ele>232.6</ele>
        <time>2022-06-08 08:58:22</time>
      </trkpt>
      <trkpt lat="43.19091" lon="-0.6179">
        <ele>232.6</ele>
        <time>2022-06-08 08:58:23</time>
      </trkpt>
      <trkpt lat="43.19088" lon="-0.61788">
        <ele>232.6</ele>
        <time>2022-06-08 08:58:24</time>
      </trkpt>
      <trkpt lat="43.19085" lon="-0.61786">
        <ele>232.6</ele>
        <time>2022-06-08 08:58:25</time>
      </trkpt>
      <trkpt lat="43.19082" lon="-0.61783">
        <ele>232.6</ele>
        <time>2022-06-08 08:58:26</time>
      </trkpt>
      <trkpt lat="43.19078" lon="-0.6178">
        <ele>232.6</ele>
        <time>2022-06-08 08:58:27</time>
      </trkpt>
      <trkpt lat="43.19075" lon="-0.61778">
        <ele>232.6</ele>
        <time>2022-06-08 08:58:28</time>
      </trkpt>
      <trkpt lat="43.19073" lon="-0.61775">
        <ele>232.6</ele>
        <time>2022-06-08 08:58:29</time>
      </trkpt>
      <trkpt lat="43.1907" lon="-0.61773">
        <ele>232.6</ele>
        <time>2022-06-08 08:58:30</time>
      </trkpt>
      <trkpt lat="43.19068" lon="-0.61772">
        <ele>232.6</ele>
        <time>2022-06-08 08:58:31</time>
      </trkpt>
      <trkpt lat="43.19066" lon="-0.6177">
        <ele>232.6</ele>
        <time>2022-06-08 08:58:32</time>
      </trkpt>
      <trkpt lat="43.19064" lon="-0.61768">
        <ele>232.6</ele>
        <time>2022-06-08 08:58:33</time>
      </trkpt>
      <trkpt lat="43.19062" lon="-0.61767">
        <ele>232.8</ele>
        <time>2022-06-08 08:58:34</time>
      </trkpt>
      <trkpt lat="43.19061" lon="-0.61765">
        <ele>232.8</ele>
        <time>2022-06-08 08:58:35</time>
      </trkpt>
      <trkpt lat="43.1906" lon="-0.61765">
        <ele>232.6</ele>
        <time>2022-06-08 08:58:36</time>
      </trkpt>
      <trkpt lat="43.1906" lon="-0.61765">
        <ele>232.8</ele>
        <time>2022-06-08 08:58:37</time>
      </trkpt>
      <trkpt lat="43.1906" lon="-0.61765">
        <ele>232.8</ele>
        <time>2022-06-08 08:58:38</time>
      </trkpt>
      <trkpt lat="43.19058" lon="-0.61765">
        <ele>232.6</ele>
        <time>2022-06-08 08:58:43</time>
      </trkpt>
      <trkpt lat="43.19057" lon="-0.61764">
        <ele>232.6</ele>
        <time>2022-06-08 08:58:44</time>
      </trkpt>
      <trkpt lat="43.19056" lon="-0.61763">
        <ele>232.6</ele>
        <time>2022-06-08 08:58:45</time>
      </trkpt>
      <trkpt lat="43.19055" lon="-0.61762">
        <ele>232.6</ele>
        <time>2022-06-08 08:58:46</time>
      </trkpt>
      <trkpt lat="43.19054" lon="-0.61761">
        <ele>232.6</ele>
        <time>2022-06-08 08:58:47</time>
      </trkpt>
      <trkpt lat="43.19053" lon="-0.6176">
        <ele>232.6</ele>
        <time>2022-06-08 08:58:48</time>
      </trkpt>
      <trkpt lat="43.19052" lon="-0.61759">
        <ele>232.6</ele>
        <time>2022-06-08 08:58:49</time>
      </trkpt>
      <trkpt lat="43.19051" lon="-0.61758">
        <ele>232.6</ele>
        <time>2022-06-08 08:58:50</time>
      </trkpt>
      <trkpt lat="43.19049" lon="-0.61758">
        <ele>232.6</ele>
        <time>2022-06-08 08:58:51</time>
      </trkpt>
      <trkpt lat="43.19047" lon="-0.61758">
        <ele>232.6</ele>
        <time>2022-06-08 08:58:52</time>
      </trkpt>
      <trkpt lat="43.19045" lon="-0.61759">
        <ele>232.6</ele>
        <time>2022-06-08 08:58:53</time>
      </trkpt>
      <trkpt lat="43.19042" lon="-0.61759">
        <ele>232.6</ele>
        <time>2022-06-08 08:58:54</time>
      </trkpt>
      <trkpt lat="43.19039" lon="-0.6176">
        <ele>232.6</ele>
        <time>2022-06-08 08:58:55</time>
      </trkpt>
      <trkpt lat="43.19038" lon="-0.61761">
        <ele>232.6</ele>
        <time>2022-06-08 08:58:56</time>
      </trkpt>
      <trkpt lat="43.19036" lon="-0.61762">
        <ele>232.8</ele>
        <time>2022-06-08 08:58:57</time>
      </trkpt>
      <trkpt lat="43.19033" lon="-0.61761">
        <ele>232.8</ele>
        <time>2022-06-08 08:58:58</time>
      </trkpt>
      <trkpt lat="43.19031" lon="-0.61759">
        <ele>232.8</ele>
        <time>2022-06-08 08:58:59</time>
      </trkpt>
      <trkpt lat="43.19029" lon="-0.61755">
        <ele>232.8</ele>
        <time>2022-06-08 08:59:00</time>
      </trkpt>
      <trkpt lat="43.19027" lon="-0.61749">
        <ele>232.8</ele>
        <time>2022-06-08 08:59:01</time>
      </trkpt>
      <trkpt lat="43.19026" lon="-0.61743">
        <ele>232.8</ele>
        <time>2022-06-08 08:59:02</time>
      </trkpt>
      <trkpt lat="43.19025" lon="-0.61737">
        <ele>232.8</ele>
        <time>2022-06-08 08:59:03</time>
      </trkpt>
      <trkpt lat="43.19023" lon="-0.61732">
        <ele>232.8</ele>
        <time>2022-06-08 08:59:04</time>
      </trkpt>
      <trkpt lat="43.19019" lon="-0.61728">
        <ele>232.8</ele>
        <time>2022-06-08 08:59:05</time>
      </trkpt>
      <trkpt lat="43.19015" lon="-0.61725">
        <ele>232.8</ele>
        <time>2022-06-08 08:59:06</time>
      </trkpt>
      <trkpt lat="43.19011" lon="-0.61722">
        <ele>232.8</ele>
        <time>2022-06-08 08:59:07</time>
      </trkpt>
      <trkpt lat="43.19007" lon="-0.61719">
        <ele>232.8</ele>
        <time>2022-06-08 08:59:08</time>
      </trkpt>
      <trkpt lat="43.19003" lon="-0.61715">
        <ele>232.8</ele>
        <time>2022-06-08 08:59:09</time>
      </trkpt>
      <trkpt lat="43.18999" lon="-0.61712">
        <ele>232.6</ele>
        <time>2022-06-08 08:59:10</time>
      </trkpt>
      <trkpt lat="43.18994" lon="-0.61708">
        <ele>232.6</ele>
        <time>2022-06-08 08:59:11</time>
      </trkpt>
      <trkpt lat="43.18991" lon="-0.61705">
        <ele>232.6</ele>
        <time>2022-06-08 08:59:12</time>
      </trkpt>
      <trkpt lat="43.18987" lon="-0.61701">
        <ele>232.6</ele>
        <time>2022-06-08 08:59:13</time>
      </trkpt>
      <trkpt lat="43.18982" lon="-0.61696">
        <ele>232.8</ele>
        <time>2022-06-08 08:59:14</time>
      </trkpt>
      <trkpt lat="43.18978" lon="-0.61692">
        <ele>232.8</ele>
        <time>2022-06-08 08:59:15</time>
      </trkpt>
      <trkpt lat="43.18974" lon="-0.61687">
        <ele>232.8</ele>
        <time>2022-06-08 08:59:16</time>
      </trkpt>
      <trkpt lat="43.1897" lon="-0.61682">
        <ele>232.8</ele>
        <time>2022-06-08 08:59:17</time>
      </trkpt>
      <trkpt lat="43.18966" lon="-0.61677">
        <ele>232.8</ele>
        <time>2022-06-08 08:59:18</time>
      </trkpt>
      <trkpt lat="43.18962" lon="-0.61673">
        <ele>233</ele>
        <time>2022-06-08 08:59:19</time>
      </trkpt>
      <trkpt lat="43.18958" lon="-0.61669">
        <ele>233</ele>
        <time>2022-06-08 08:59:20</time>
      </trkpt>
      <trkpt lat="43.18954" lon="-0.61663">
        <ele>233</ele>
        <time>2022-06-08 08:59:21</time>
      </trkpt>
      <trkpt lat="43.1895" lon="-0.61657">
        <ele>233</ele>
        <time>2022-06-08 08:59:22</time>
      </trkpt>
      <trkpt lat="43.18947" lon="-0.61652">
        <ele>233.2</ele>
        <time>2022-06-08 08:59:23</time>
      </trkpt>
      <trkpt lat="43.18944" lon="-0.61647">
        <ele>233.2</ele>
        <time>2022-06-08 08:59:24</time>
      </trkpt>
      <trkpt lat="43.1894" lon="-0.61642">
        <ele>233.2</ele>
        <time>2022-06-08 08:59:25</time>
      </trkpt>
      <trkpt lat="43.18936" lon="-0.61637">
        <ele>233.2</ele>
        <time>2022-06-08 08:59:26</time>
      </trkpt>
      <trkpt lat="43.18932" lon="-0.61632">
        <ele>233.4</ele>
        <time>2022-06-08 08:59:27</time>
      </trkpt>
      <trkpt lat="43.18927" lon="-0.61626">
        <ele>233.4</ele>
        <time>2022-06-08 08:59:28</time>
      </trkpt>
      <trkpt lat="43.18923" lon="-0.61622">
        <ele>233.4</ele>
        <time>2022-06-08 08:59:29</time>
      </trkpt>
      <trkpt lat="43.18919" lon="-0.61618">
        <ele>233.6</ele>
        <time>2022-06-08 08:59:30</time>
      </trkpt>
      <trkpt lat="43.18914" lon="-0.61614">
        <ele>233.6</ele>
        <time>2022-06-08 08:59:31</time>
      </trkpt>
      <trkpt lat="43.18909" lon="-0.61609">
        <ele>233.6</ele>
        <time>2022-06-08 08:59:32</time>
      </trkpt>
      <trkpt lat="43.18905" lon="-0.61604">
        <ele>233.6</ele>
        <time>2022-06-08 08:59:33</time>
      </trkpt>
      <trkpt lat="43.18901" lon="-0.61602">
        <ele>233.8</ele>
        <time>2022-06-08 08:59:34</time>
      </trkpt>
      <trkpt lat="43.18897" lon="-0.61601">
        <ele>233.8</ele>
        <time>2022-06-08 08:59:35</time>
      </trkpt>
      <trkpt lat="43.18892" lon="-0.616">
        <ele>233.8</ele>
        <time>2022-06-08 08:59:36</time>
      </trkpt>
      <trkpt lat="43.18888" lon="-0.61598">
        <ele>233.8</ele>
        <time>2022-06-08 08:59:37</time>
      </trkpt>
      <trkpt lat="43.18883" lon="-0.61597">
        <ele>234</ele>
        <time>2022-06-08 08:59:38</time>
      </trkpt>
      <trkpt lat="43.18879" lon="-0.61596">
        <ele>234</ele>
        <time>2022-06-08 08:59:39</time>
      </trkpt>
      <trkpt lat="43.18874" lon="-0.61594">
        <ele>234</ele>
        <time>2022-06-08 08:59:40</time>
      </trkpt>
      <trkpt lat="43.18869" lon="-0.61593">
        <ele>234</ele>
        <time>2022-06-08 08:59:41</time>
      </trkpt>
      <trkpt lat="43.18864" lon="-0.61592">
        <ele>234</ele>
        <time>2022-06-08 08:59:42</time>
      </trkpt>
      <trkpt lat="43.1886" lon="-0.6159">
        <ele>234</ele>
        <time>2022-06-08 08:59:43</time>
      </trkpt>
      <trkpt lat="43.18856" lon="-0.61589">
        <ele>234</ele>
        <time>2022-06-08 08:59:44</time>
      </trkpt>
      <trkpt lat="43.18851" lon="-0.61587">
        <ele>234</ele>
        <time>2022-06-08 08:59:45</time>
      </trkpt>
      <trkpt lat="43.18847" lon="-0.61585">
        <ele>234</ele>
        <time>2022-06-08 08:59:46</time>
      </trkpt>
      <trkpt lat="43.18843" lon="-0.61583">
        <ele>234</ele>
        <time>2022-06-08 08:59:47</time>
      </trkpt>
      <trkpt lat="43.18839" lon="-0.61581">
        <ele>234.2</ele>
        <time>2022-06-08 08:59:48</time>
      </trkpt>
      <trkpt lat="43.18836" lon="-0.61579">
        <ele>234.2</ele>
        <time>2022-06-08 08:59:49</time>
      </trkpt>
      <trkpt lat="43.18832" lon="-0.61577">
        <ele>234.2</ele>
        <time>2022-06-08 08:59:50</time>
      </trkpt>
      <trkpt lat="43.18828" lon="-0.61575">
        <ele>234.2</ele>
        <time>2022-06-08 08:59:51</time>
      </trkpt>
      <trkpt lat="43.18824" lon="-0.61572">
        <ele>234.2</ele>
        <time>2022-06-08 08:59:52</time>
      </trkpt>
      <trkpt lat="43.18819" lon="-0.6157">
        <ele>234.2</ele>
        <time>2022-06-08 08:59:53</time>
      </trkpt>
      <trkpt lat="43.18815" lon="-0.61567">
        <ele>234.2</ele>
        <time>2022-06-08 08:59:54</time>
      </trkpt>
      <trkpt lat="43.18811" lon="-0.61565">
        <ele>234.4</ele>
        <time>2022-06-08 08:59:55</time>
      </trkpt>
      <trkpt lat="43.18806" lon="-0.61563">
        <ele>234.4</ele>
        <time>2022-06-08 08:59:56</time>
      </trkpt>
      <trkpt lat="43.18802" lon="-0.61561">
        <ele>234.4</ele>
        <time>2022-06-08 08:59:57</time>
      </trkpt>
      <trkpt lat="43.18797" lon="-0.61558">
        <ele>234.4</ele>
        <time>2022-06-08 08:59:58</time>
      </trkpt>
      <trkpt lat="43.18793" lon="-0.61556">
        <ele>234.6</ele>
        <time>2022-06-08 08:59:59</time>
      </trkpt>
      <trkpt lat="43.18788" lon="-0.61555">
        <ele>234.6</ele>
        <time>2022-06-08 09:00:00</time>
      </trkpt>
      <trkpt lat="43.18784" lon="-0.61553">
        <ele>234.8</ele>
        <time>2022-06-08 09:00:01</time>
      </trkpt>
      <trkpt lat="43.1878" lon="-0.61551">
        <ele>234.8</ele>
        <time>2022-06-08 09:00:02</time>
      </trkpt>
      <trkpt lat="43.18776" lon="-0.6155">
        <ele>234.8</ele>
        <time>2022-06-08 09:00:03</time>
      </trkpt>
      <trkpt lat="43.18772" lon="-0.61547">
        <ele>234.8</ele>
        <time>2022-06-08 09:00:04</time>
      </trkpt>
      <trkpt lat="43.18768" lon="-0.61545">
        <ele>234.8</ele>
        <time>2022-06-08 09:00:05</time>
      </trkpt>
      <trkpt lat="43.18764" lon="-0.61542">
        <ele>234.8</ele>
        <time>2022-06-08 09:00:06</time>
      </trkpt>
      <trkpt lat="43.1876" lon="-0.61539">
        <ele>234.8</ele>
        <time>2022-06-08 09:00:07</time>
      </trkpt>
      <trkpt lat="43.18756" lon="-0.61537">
        <ele>234.8</ele>
        <time>2022-06-08 09:00:08</time>
      </trkpt>
      <trkpt lat="43.18752" lon="-0.61535">
        <ele>234.8</ele>
        <time>2022-06-08 09:00:09</time>
      </trkpt>
      <trkpt lat="43.18749" lon="-0.61533">
        <ele>234.8</ele>
        <time>2022-06-08 09:00:10</time>
      </trkpt>
      <trkpt lat="43.18745" lon="-0.61529">
        <ele>234.8</ele>
        <time>2022-06-08 09:00:11</time>
      </trkpt>
      <trkpt lat="43.18742" lon="-0.61524">
        <ele>234.8</ele>
        <time>2022-06-08 09:00:12</time>
      </trkpt>
      <trkpt lat="43.18738" lon="-0.61518">
        <ele>235</ele>
        <time>2022-06-08 09:00:13</time>
      </trkpt>
      <trkpt lat="43.18736" lon="-0.61512">
        <ele>235</ele>
        <time>2022-06-08 09:00:14</time>
      </trkpt>
      <trkpt lat="43.18736" lon="-0.61506">
        <ele>235</ele>
        <time>2022-06-08 09:00:15</time>
      </trkpt>
      <trkpt lat="43.18737" lon="-0.61499">
        <ele>235</ele>
        <time>2022-06-08 09:00:16</time>
      </trkpt>
      <trkpt lat="43.18739" lon="-0.61492">
        <ele>235</ele>
        <time>2022-06-08 09:00:17</time>
      </trkpt>
      <trkpt lat="43.18741" lon="-0.61485">
        <ele>235</ele>
        <time>2022-06-08 09:00:18</time>
      </trkpt>
      <trkpt lat="43.18743" lon="-0.61478">
        <ele>234.6</ele>
        <time>2022-06-08 09:00:19</time>
      </trkpt>
      <trkpt lat="43.18744" lon="-0.61471">
        <ele>234.8</ele>
        <time>2022-06-08 09:00:20</time>
      </trkpt>
      <trkpt lat="43.18743" lon="-0.61464">
        <ele>234.6</ele>
        <time>2022-06-08 09:00:21</time>
      </trkpt>
      <trkpt lat="43.1874" lon="-0.61458">
        <ele>234.6</ele>
        <time>2022-06-08 09:00:22</time>
      </trkpt>
      <trkpt lat="43.18736" lon="-0.61455">
        <ele>234.4</ele>
        <time>2022-06-08 09:00:23</time>
      </trkpt>
      <trkpt lat="43.18731" lon="-0.61453">
        <ele>234.4</ele>
        <time>2022-06-08 09:00:24</time>
      </trkpt>
      <trkpt lat="43.18727" lon="-0.61451">
        <ele>234.2</ele>
        <time>2022-06-08 09:00:25</time>
      </trkpt>
      <trkpt lat="43.18722" lon="-0.61449">
        <ele>234.2</ele>
        <time>2022-06-08 09:00:26</time>
      </trkpt>
      <trkpt lat="43.18716" lon="-0.61446">
        <ele>234.4</ele>
        <time>2022-06-08 09:00:27</time>
      </trkpt>
      <trkpt lat="43.18711" lon="-0.61443">
        <ele>234.4</ele>
        <time>2022-06-08 09:00:28</time>
      </trkpt>
      <trkpt lat="43.18706" lon="-0.6144">
        <ele>234.4</ele>
        <time>2022-06-08 09:00:29</time>
      </trkpt>
      <trkpt lat="43.18701" lon="-0.61439">
        <ele>234.4</ele>
        <time>2022-06-08 09:00:30</time>
      </trkpt>
      <trkpt lat="43.18697" lon="-0.61438">
        <ele>234.6</ele>
        <time>2022-06-08 09:00:31</time>
      </trkpt>
      <trkpt lat="43.18693" lon="-0.61436">
        <ele>234.8</ele>
        <time>2022-06-08 09:00:32</time>
      </trkpt>
      <trkpt lat="43.1869" lon="-0.61435">
        <ele>235</ele>
        <time>2022-06-08 09:00:33</time>
      </trkpt>
      <trkpt lat="43.18686" lon="-0.61433">
        <ele>235</ele>
        <time>2022-06-08 09:00:34</time>
      </trkpt>
      <trkpt lat="43.18682" lon="-0.61432">
        <ele>235.2</ele>
        <time>2022-06-08 09:00:35</time>
      </trkpt>
      <trkpt lat="43.18677" lon="-0.6143">
        <ele>235.2</ele>
        <time>2022-06-08 09:00:36</time>
      </trkpt>
      <trkpt lat="43.18673" lon="-0.61427">
        <ele>235.4</ele>
        <time>2022-06-08 09:00:37</time>
      </trkpt>
      <trkpt lat="43.18668" lon="-0.61426">
        <ele>235.4</ele>
        <time>2022-06-08 09:00:38</time>
      </trkpt>
      <trkpt lat="43.18664" lon="-0.61425">
        <ele>235.4</ele>
        <time>2022-06-08 09:00:39</time>
      </trkpt>
      <trkpt lat="43.18659" lon="-0.61423">
        <ele>235.4</ele>
        <time>2022-06-08 09:00:40</time>
      </trkpt>
      <trkpt lat="43.18655" lon="-0.61421">
        <ele>235.6</ele>
        <time>2022-06-08 09:00:41</time>
      </trkpt>
      <trkpt lat="43.1865" lon="-0.61419">
        <ele>235.6</ele>
        <time>2022-06-08 09:00:42</time>
      </trkpt>
      <trkpt lat="43.18646" lon="-0.61417">
        <ele>235.6</ele>
        <time>2022-06-08 09:00:43</time>
      </trkpt>
      <trkpt lat="43.18642" lon="-0.61414">
        <ele>235.6</ele>
        <time>2022-06-08 09:00:44</time>
      </trkpt>
      <trkpt lat="43.18637" lon="-0.61411">
        <ele>235.6</ele>
        <time>2022-06-08 09:00:45</time>
      </trkpt>
      <trkpt lat="43.18632" lon="-0.61409">
        <ele>235.6</ele>
        <time>2022-06-08 09:00:46</time>
      </trkpt>
      <trkpt lat="43.18627" lon="-0.61406">
        <ele>235.6</ele>
        <time>2022-06-08 09:00:47</time>
      </trkpt>
      <trkpt lat="43.18622" lon="-0.61404">
        <ele>235.6</ele>
        <time>2022-06-08 09:00:48</time>
      </trkpt>
      <trkpt lat="43.18617" lon="-0.61401">
        <ele>235.6</ele>
        <time>2022-06-08 09:00:49</time>
      </trkpt>
      <trkpt lat="43.18612" lon="-0.61399">
        <ele>235.6</ele>
        <time>2022-06-08 09:00:50</time>
      </trkpt>
      <trkpt lat="43.18607" lon="-0.61396">
        <ele>235.6</ele>
        <time>2022-06-08 09:00:51</time>
      </trkpt>
      <trkpt lat="43.18602" lon="-0.61392">
        <ele>235.6</ele>
        <time>2022-06-08 09:00:52</time>
      </trkpt>
      <trkpt lat="43.18597" lon="-0.6139">
        <ele>235.6</ele>
        <time>2022-06-08 09:00:53</time>
      </trkpt>
      <trkpt lat="43.18592" lon="-0.61388">
        <ele>235.6</ele>
        <time>2022-06-08 09:00:54</time>
      </trkpt>
      <trkpt lat="43.18587" lon="-0.61385">
        <ele>235.6</ele>
        <time>2022-06-08 09:00:55</time>
      </trkpt>
      <trkpt lat="43.18581" lon="-0.61383">
        <ele>235.6</ele>
        <time>2022-06-08 09:00:56</time>
      </trkpt>
      <trkpt lat="43.18577" lon="-0.61381">
        <ele>235.6</ele>
        <time>2022-06-08 09:00:57</time>
      </trkpt>
      <trkpt lat="43.18572" lon="-0.61379">
        <ele>235.6</ele>
        <time>2022-06-08 09:00:58</time>
      </trkpt>
      <trkpt lat="43.18567" lon="-0.61376">
        <ele>235.6</ele>
        <time>2022-06-08 09:00:59</time>
      </trkpt>
      <trkpt lat="43.18562" lon="-0.61374">
        <ele>235.6</ele>
        <time>2022-06-08 09:01:00</time>
      </trkpt>
      <trkpt lat="43.18557" lon="-0.61372">
        <ele>235.8</ele>
        <time>2022-06-08 09:01:01</time>
      </trkpt>
      <trkpt lat="43.18553" lon="-0.6137">
        <ele>236</ele>
        <time>2022-06-08 09:01:02</time>
      </trkpt>
      <trkpt lat="43.18549" lon="-0.61368">
        <ele>236</ele>
        <time>2022-06-08 09:01:03</time>
      </trkpt>
      <trkpt lat="43.18544" lon="-0.61365">
        <ele>236</ele>
        <time>2022-06-08 09:01:04</time>
      </trkpt>
      <trkpt lat="43.1854" lon="-0.61361">
        <ele>236</ele>
        <time>2022-06-08 09:01:05</time>
      </trkpt>
      <trkpt lat="43.18536" lon="-0.61357">
        <ele>236.2</ele>
        <time>2022-06-08 09:01:06</time>
      </trkpt>
      <trkpt lat="43.18534" lon="-0.61352">
        <ele>236.2</ele>
        <time>2022-06-08 09:01:07</time>
      </trkpt>
      <trkpt lat="43.18532" lon="-0.61347">
        <ele>236.2</ele>
        <time>2022-06-08 09:01:08</time>
      </trkpt>
      <trkpt lat="43.18531" lon="-0.6134">
        <ele>236.2</ele>
        <time>2022-06-08 09:01:09</time>
      </trkpt>
      <trkpt lat="43.18531" lon="-0.61333">
        <ele>236.2</ele>
        <time>2022-06-08 09:01:10</time>
      </trkpt>
      <trkpt lat="43.18531" lon="-0.61326">
        <ele>236.2</ele>
        <time>2022-06-08 09:01:11</time>
      </trkpt>
      <trkpt lat="43.18532" lon="-0.61319">
        <ele>236.2</ele>
        <time>2022-06-08 09:01:12</time>
      </trkpt>
      <trkpt lat="43.18534" lon="-0.61311">
        <ele>236</ele>
        <time>2022-06-08 09:01:13</time>
      </trkpt>
      <trkpt lat="43.18536" lon="-0.61304">
        <ele>235.8</ele>
        <time>2022-06-08 09:01:14</time>
      </trkpt>
      <trkpt lat="43.18537" lon="-0.61296">
        <ele>235.8</ele>
        <time>2022-06-08 09:01:15</time>
      </trkpt>
      <trkpt lat="43.1854" lon="-0.61289">
        <ele>235.6</ele>
        <time>2022-06-08 09:01:16</time>
      </trkpt>
      <trkpt lat="43.18541" lon="-0.61281">
        <ele>235.6</ele>
        <time>2022-06-08 09:01:17</time>
      </trkpt>
      <trkpt lat="43.18543" lon="-0.61273">
        <ele>235.4</ele>
        <time>2022-06-08 09:01:18</time>
      </trkpt>
      <trkpt lat="43.18545" lon="-0.61266">
        <ele>235.4</ele>
        <time>2022-06-08 09:01:19</time>
      </trkpt>
      <trkpt lat="43.18546" lon="-0.61258">
        <ele>235.2</ele>
        <time>2022-06-08 09:01:20</time>
      </trkpt>
      <trkpt lat="43.18547" lon="-0.61249">
        <ele>235</ele>
        <time>2022-06-08 09:01:21</time>
      </trkpt>
      <trkpt lat="43.18547" lon="-0.6124">
        <ele>235</ele>
        <time>2022-06-08 09:01:22</time>
      </trkpt>
      <trkpt lat="43.18546" lon="-0.61231">
        <ele>234.6</ele>
        <time>2022-06-08 09:01:23</time>
      </trkpt>
      <trkpt lat="43.18546" lon="-0.61221">
        <ele>234.2</ele>
        <time>2022-06-08 09:01:24</time>
      </trkpt>
      <trkpt lat="43.18546" lon="-0.61211">
        <ele>233.8</ele>
        <time>2022-06-08 09:01:25</time>
      </trkpt>
      <trkpt lat="43.18547" lon="-0.61202">
        <ele>233.4</ele>
        <time>2022-06-08 09:01:26</time>
      </trkpt>
      <trkpt lat="43.18549" lon="-0.61192">
        <ele>233.2</ele>
        <time>2022-06-08 09:01:27</time>
      </trkpt>
      <trkpt lat="43.18552" lon="-0.61182">
        <ele>232</ele>
        <time>2022-06-08 09:01:28</time>
      </trkpt>
      <trkpt lat="43.18554" lon="-0.61173">
        <ele>231.2</ele>
        <time>2022-06-08 09:01:29</time>
      </trkpt>
      <trkpt lat="43.18557" lon="-0.61164">
        <ele>230</ele>
        <time>2022-06-08 09:01:30</time>
      </trkpt>
      <trkpt lat="43.18559" lon="-0.61156">
        <ele>229.8</ele>
        <time>2022-06-08 09:01:31</time>
      </trkpt>
      <trkpt lat="43.1856" lon="-0.61149">
        <ele>228.2</ele>
        <time>2022-06-08 09:01:32</time>
      </trkpt>
      <trkpt lat="43.18562" lon="-0.61144">
        <ele>227.2</ele>
        <time>2022-06-08 09:01:33</time>
      </trkpt>
      <trkpt lat="43.18563" lon="-0.61141">
        <ele>226</ele>
        <time>2022-06-08 09:01:34</time>
      </trkpt>
      <trkpt lat="43.18563" lon="-0.61139">
        <ele>225.6</ele>
        <time>2022-06-08 09:01:35</time>
      </trkpt>
      <trkpt lat="43.18564" lon="-0.61138">
        <ele>224.8</ele>
        <time>2022-06-08 09:01:36</time>
      </trkpt>
      <trkpt lat="43.18564" lon="-0.61136">
        <ele>224.4</ele>
        <time>2022-06-08 09:01:37</time>
      </trkpt>
      <trkpt lat="43.18565" lon="-0.61135">
        <ele>224</ele>
        <time>2022-06-08 09:01:38</time>
      </trkpt>
      <trkpt lat="43.18565" lon="-0.61133">
        <ele>223.8</ele>
        <time>2022-06-08 09:01:39</time>
      </trkpt>
      <trkpt lat="43.18566" lon="-0.61131">
        <ele>223.8</ele>
        <time>2022-06-08 09:01:40</time>
      </trkpt>
      <trkpt lat="43.18566" lon="-0.61129">
        <ele>223.8</ele>
        <time>2022-06-08 09:01:41</time>
      </trkpt>
      <trkpt lat="43.18567" lon="-0.61126">
        <ele>223.6</ele>
        <time>2022-06-08 09:01:42</time>
      </trkpt>
      <trkpt lat="43.18568" lon="-0.61122">
        <ele>223.6</ele>
        <time>2022-06-08 09:01:43</time>
      </trkpt>
      <trkpt lat="43.18569" lon="-0.61118">
        <ele>223.6</ele>
        <time>2022-06-08 09:01:44</time>
      </trkpt>
      <trkpt lat="43.1857" lon="-0.61113">
        <ele>223.6</ele>
        <time>2022-06-08 09:01:45</time>
      </trkpt>
      <trkpt lat="43.18571" lon="-0.61108">
        <ele>223.6</ele>
        <time>2022-06-08 09:01:46</time>
      </trkpt>
      <trkpt lat="43.18573" lon="-0.61102">
        <ele>223.6</ele>
        <time>2022-06-08 09:01:47</time>
      </trkpt>
      <trkpt lat="43.18575" lon="-0.61096">
        <ele>223.6</ele>
        <time>2022-06-08 09:01:48</time>
      </trkpt>
      <trkpt lat="43.18576" lon="-0.61089">
        <ele>223.6</ele>
        <time>2022-06-08 09:01:49</time>
      </trkpt>
      <trkpt lat="43.18579" lon="-0.61083">
        <ele>223.6</ele>
        <time>2022-06-08 09:01:50</time>
      </trkpt>
      <trkpt lat="43.18581" lon="-0.61077">
        <ele>223.4</ele>
        <time>2022-06-08 09:01:51</time>
      </trkpt>
      <trkpt lat="43.18583" lon="-0.61071">
        <ele>223.4</ele>
        <time>2022-06-08 09:01:52</time>
      </trkpt>
      <trkpt lat="43.18585" lon="-0.61066">
        <ele>223.2</ele>
        <time>2022-06-08 09:01:53</time>
      </trkpt>
      <trkpt lat="43.18587" lon="-0.61063">
        <ele>222.8</ele>
        <time>2022-06-08 09:01:54</time>
      </trkpt>
      <trkpt lat="43.18588" lon="-0.61059">
        <ele>222.8</ele>
        <time>2022-06-08 09:01:55</time>
      </trkpt>
      <trkpt lat="43.1859" lon="-0.61055">
        <ele>222.4</ele>
        <time>2022-06-08 09:01:56</time>
      </trkpt>
      <trkpt lat="43.18592" lon="-0.6105">
        <ele>222.2</ele>
        <time>2022-06-08 09:01:57</time>
      </trkpt>
      <trkpt lat="43.18593" lon="-0.61046">
        <ele>222</ele>
        <time>2022-06-08 09:01:58</time>
      </trkpt>
      <trkpt lat="43.18595" lon="-0.6104">
        <ele>221.8</ele>
        <time>2022-06-08 09:01:59</time>
      </trkpt>
      <trkpt lat="43.18597" lon="-0.61033">
        <ele>221.6</ele>
        <time>2022-06-08 09:02:00</time>
      </trkpt>
      <trkpt lat="43.18599" lon="-0.61025">
        <ele>221.4</ele>
        <time>2022-06-08 09:02:01</time>
      </trkpt>
      <trkpt lat="43.18601" lon="-0.61018">
        <ele>221.2</ele>
        <time>2022-06-08 09:02:02</time>
      </trkpt>
      <trkpt lat="43.18604" lon="-0.6101">
        <ele>221.2</ele>
        <time>2022-06-08 09:02:03</time>
      </trkpt>
      <trkpt lat="43.18606" lon="-0.61002">
        <ele>221</ele>
        <time>2022-06-08 09:02:04</time>
      </trkpt>
      <trkpt lat="43.18608" lon="-0.60994">
        <ele>221</ele>
        <time>2022-06-08 09:02:05</time>
      </trkpt>
      <trkpt lat="43.18611" lon="-0.60987">
        <ele>220.6</ele>
        <time>2022-06-08 09:02:06</time>
      </trkpt>
      <trkpt lat="43.18613" lon="-0.60981">
        <ele>220.4</ele>
        <time>2022-06-08 09:02:07</time>
      </trkpt>
      <trkpt lat="43.18614" lon="-0.60977">
        <ele>220</ele>
        <time>2022-06-08 09:02:08</time>
      </trkpt>
      <trkpt lat="43.18614" lon="-0.60975">
        <ele>219.8</ele>
        <time>2022-06-08 09:02:09</time>
      </trkpt>
      <trkpt lat="43.18614" lon="-0.60974">
        <ele>219.6</ele>
        <time>2022-06-08 09:02:10</time>
      </trkpt>
      <trkpt lat="43.18614" lon="-0.60974">
        <ele>219.4</ele>
        <time>2022-06-08 09:02:11</time>
      </trkpt>
      <trkpt lat="43.18614" lon="-0.60974">
        <ele>219.4</ele>
        <time>2022-06-08 09:02:12</time>
      </trkpt>
      <trkpt lat="43.18614" lon="-0.60974">
        <ele>219.2</ele>
        <time>2022-06-08 09:02:13</time>
      </trkpt>
      <trkpt lat="43.18612" lon="-0.60973">
        <ele>219.2</ele>
        <time>2022-06-08 09:02:14</time>
      </trkpt>
      <trkpt lat="43.1861" lon="-0.60972">
        <ele>219.2</ele>
        <time>2022-06-08 09:02:15</time>
      </trkpt>
      <trkpt lat="43.18608" lon="-0.60971">
        <ele>219.2</ele>
        <time>2022-06-08 09:02:16</time>
      </trkpt>
      <trkpt lat="43.18606" lon="-0.6097">
        <ele>219.2</ele>
        <time>2022-06-08 09:02:17</time>
      </trkpt>
      <trkpt lat="43.18604" lon="-0.60969">
        <ele>219.2</ele>
        <time>2022-06-08 09:02:18</time>
      </trkpt>
      <trkpt lat="43.18603" lon="-0.60968">
        <ele>219.2</ele>
        <time>2022-06-08 09:02:19</time>
      </trkpt>
      <trkpt lat="43.18603" lon="-0.60967">
        <ele>219.2</ele>
        <time>2022-06-08 09:02:20</time>
      </trkpt>
      <trkpt lat="43.18602" lon="-0.60966">
        <ele>219.2</ele>
        <time>2022-06-08 09:02:21</time>
      </trkpt>
      <trkpt lat="43.18601" lon="-0.60964">
        <ele>219.2</ele>
        <time>2022-06-08 09:02:22</time>
      </trkpt>
      <trkpt lat="43.18599" lon="-0.60963">
        <ele>219.2</ele>
        <time>2022-06-08 09:02:23</time>
      </trkpt>
      <trkpt lat="43.18597" lon="-0.60962">
        <ele>219</ele>
        <time>2022-06-08 09:02:24</time>
      </trkpt>
      <trkpt lat="43.18594" lon="-0.6096">
        <ele>219</ele>
        <time>2022-06-08 09:02:25</time>
      </trkpt>
      <trkpt lat="43.1859" lon="-0.60958">
        <ele>219</ele>
        <time>2022-06-08 09:02:26</time>
      </trkpt>
      <trkpt lat="43.18586" lon="-0.60956">
        <ele>219</ele>
        <time>2022-06-08 09:02:27</time>
      </trkpt>
      <trkpt lat="43.18581" lon="-0.60954">
        <ele>219</ele>
        <time>2022-06-08 09:02:28</time>
      </trkpt>
      <trkpt lat="43.18576" lon="-0.60951">
        <ele>219</ele>
        <time>2022-06-08 09:02:29</time>
      </trkpt>
      <trkpt lat="43.18571" lon="-0.60948">
        <ele>218.8</ele>
        <time>2022-06-08 09:02:30</time>
      </trkpt>
      <trkpt lat="43.18566" lon="-0.60946">
        <ele>218.8</ele>
        <time>2022-06-08 09:02:31</time>
      </trkpt>
      <trkpt lat="43.18561" lon="-0.60944">
        <ele>218.8</ele>
        <time>2022-06-08 09:02:32</time>
      </trkpt>
      <trkpt lat="43.18556" lon="-0.60942">
        <ele>218.6</ele>
        <time>2022-06-08 09:02:33</time>
      </trkpt>
      <trkpt lat="43.18551" lon="-0.6094">
        <ele>218.6</ele>
        <time>2022-06-08 09:02:34</time>
      </trkpt>
      <trkpt lat="43.18545" lon="-0.60937">
        <ele>218.6</ele>
        <time>2022-06-08 09:02:35</time>
      </trkpt>
      <trkpt lat="43.18539" lon="-0.60934">
        <ele>218.6</ele>
        <time>2022-06-08 09:02:36</time>
      </trkpt>
      <trkpt lat="43.18533" lon="-0.60932">
        <ele>218.6</ele>
        <time>2022-06-08 09:02:37</time>
      </trkpt>
      <trkpt lat="43.18528" lon="-0.60929">
        <ele>218.6</ele>
        <time>2022-06-08 09:02:38</time>
      </trkpt>
      <trkpt lat="43.18522" lon="-0.60928">
        <ele>218.2</ele>
        <time>2022-06-08 09:02:39</time>
      </trkpt>
      <trkpt lat="43.18517" lon="-0.60927">
        <ele>218.2</ele>
        <time>2022-06-08 09:02:40</time>
      </trkpt>
      <trkpt lat="43.18511" lon="-0.60924">
        <ele>217.8</ele>
        <time>2022-06-08 09:02:41</time>
      </trkpt>
      <trkpt lat="43.18504" lon="-0.60922">
        <ele>217.6</ele>
        <time>2022-06-08 09:02:42</time>
      </trkpt>
      <trkpt lat="43.18499" lon="-0.60921">
        <ele>217.4</ele>
        <time>2022-06-08 09:02:43</time>
      </trkpt>
      <trkpt lat="43.18493" lon="-0.60919">
        <ele>217.4</ele>
        <time>2022-06-08 09:02:44</time>
      </trkpt>
      <trkpt lat="43.18486" lon="-0.60916">
        <ele>217.2</ele>
        <time>2022-06-08 09:02:45</time>
      </trkpt>
      <trkpt lat="43.18479" lon="-0.60913">
        <ele>217.2</ele>
        <time>2022-06-08 09:02:46</time>
      </trkpt>
      <trkpt lat="43.18472" lon="-0.6091">
        <ele>217</ele>
        <time>2022-06-08 09:02:47</time>
      </trkpt>
      <trkpt lat="43.18465" lon="-0.60907">
        <ele>217</ele>
        <time>2022-06-08 09:02:48</time>
      </trkpt>
      <trkpt lat="43.18458" lon="-0.60904">
        <ele>217</ele>
        <time>2022-06-08 09:02:49</time>
      </trkpt>
      <trkpt lat="43.18451" lon="-0.60901">
        <ele>217</ele>
        <time>2022-06-08 09:02:50</time>
      </trkpt>
      <trkpt lat="43.18444" lon="-0.60898">
        <ele>216.8</ele>
        <time>2022-06-08 09:02:51</time>
      </trkpt>
      <trkpt lat="43.18437" lon="-0.60896">
        <ele>216.8</ele>
        <time>2022-06-08 09:02:52</time>
      </trkpt>
      <trkpt lat="43.18431" lon="-0.60893">
        <ele>216.6</ele>
        <time>2022-06-08 09:02:53</time>
      </trkpt>
      <trkpt lat="43.18425" lon="-0.60891">
        <ele>216.6</ele>
        <time>2022-06-08 09:02:54</time>
      </trkpt>
      <trkpt lat="43.18418" lon="-0.60889">
        <ele>216.6</ele>
        <time>2022-06-08 09:02:55</time>
      </trkpt>
      <trkpt lat="43.18411" lon="-0.60886">
        <ele>216.6</ele>
        <time>2022-06-08 09:02:56</time>
      </trkpt>
      <trkpt lat="43.18404" lon="-0.60883">
        <ele>216.6</ele>
        <time>2022-06-08 09:02:57</time>
      </trkpt>
      <trkpt lat="43.18398" lon="-0.6088">
        <ele>216.6</ele>
        <time>2022-06-08 09:02:58</time>
      </trkpt>
      <trkpt lat="43.18391" lon="-0.60878">
        <ele>216.6</ele>
        <time>2022-06-08 09:02:59</time>
      </trkpt>
      <trkpt lat="43.18385" lon="-0.60875">
        <ele>216.6</ele>
        <time>2022-06-08 09:03:00</time>
      </trkpt>
      <trkpt lat="43.18378" lon="-0.60873">
        <ele>216.6</ele>
        <time>2022-06-08 09:03:01</time>
      </trkpt>
      <trkpt lat="43.18373" lon="-0.60872">
        <ele>216.8</ele>
        <time>2022-06-08 09:03:02</time>
      </trkpt>
      <trkpt lat="43.18367" lon="-0.60869">
        <ele>216.6</ele>
        <time>2022-06-08 09:03:03</time>
      </trkpt>
      <trkpt lat="43.18362" lon="-0.60866">
        <ele>216.6</ele>
        <time>2022-06-08 09:03:04</time>
      </trkpt>
      <trkpt lat="43.18355" lon="-0.60863">
        <ele>216.6</ele>
        <time>2022-06-08 09:03:05</time>
      </trkpt>
      <trkpt lat="43.18349" lon="-0.60861">
        <ele>216.6</ele>
        <time>2022-06-08 09:03:06</time>
      </trkpt>
      <trkpt lat="43.18343" lon="-0.60858">
        <ele>217</ele>
        <time>2022-06-08 09:03:07</time>
      </trkpt>
      <trkpt lat="43.18337" lon="-0.60855">
        <ele>216.8</ele>
        <time>2022-06-08 09:03:08</time>
      </trkpt>
      <trkpt lat="43.1833" lon="-0.60853">
        <ele>216.8</ele>
        <time>2022-06-08 09:03:09</time>
      </trkpt>
      <trkpt lat="43.18323" lon="-0.6085">
        <ele>216.8</ele>
        <time>2022-06-08 09:03:10</time>
      </trkpt>
      <trkpt lat="43.18316" lon="-0.60846">
        <ele>216.8</ele>
        <time>2022-06-08 09:03:11</time>
      </trkpt>
      <trkpt lat="43.1831" lon="-0.60843">
        <ele>216.8</ele>
        <time>2022-06-08 09:03:12</time>
      </trkpt>
      <trkpt lat="43.18303" lon="-0.6084">
        <ele>217</ele>
        <time>2022-06-08 09:03:13</time>
      </trkpt>
      <trkpt lat="43.18297" lon="-0.60838">
        <ele>217</ele>
        <time>2022-06-08 09:03:14</time>
      </trkpt>
      <trkpt lat="43.1829" lon="-0.60835">
        <ele>217</ele>
        <time>2022-06-08 09:03:15</time>
      </trkpt>
      <trkpt lat="43.18283" lon="-0.60833">
        <ele>217</ele>
        <time>2022-06-08 09:03:16</time>
      </trkpt>
      <trkpt lat="43.18277" lon="-0.6083">
        <ele>217</ele>
        <time>2022-06-08 09:03:17</time>
      </trkpt>
      <trkpt lat="43.1827" lon="-0.60827">
        <ele>217</ele>
        <time>2022-06-08 09:03:18</time>
      </trkpt>
      <trkpt lat="43.18263" lon="-0.60824">
        <ele>217</ele>
        <time>2022-06-08 09:03:19</time>
      </trkpt>
      <trkpt lat="43.18256" lon="-0.60821">
        <ele>217</ele>
        <time>2022-06-08 09:03:20</time>
      </trkpt>
      <trkpt lat="43.18249" lon="-0.60817">
        <ele>217.2</ele>
        <time>2022-06-08 09:03:21</time>
      </trkpt>
      <trkpt lat="43.18249" lon="-0.60817">
        <ele>217.2</ele>
        <time>2022-06-08 09:03:22</time>
      </trkpt>
      <trkpt lat="43.18236" lon="-0.60812">
        <ele>217.4</ele>
        <time>2022-06-08 09:03:23</time>
      </trkpt>
      <trkpt lat="43.18229" lon="-0.60809">
        <ele>217.6</ele>
        <time>2022-06-08 09:03:24</time>
      </trkpt>
      <trkpt lat="43.18223" lon="-0.60807">
        <ele>217.6</ele>
        <time>2022-06-08 09:03:25</time>
      </trkpt>
      <trkpt lat="43.18218" lon="-0.60804">
        <ele>217.6</ele>
        <time>2022-06-08 09:03:26</time>
      </trkpt>
      <trkpt lat="43.18212" lon="-0.60802">
        <ele>217.8</ele>
        <time>2022-06-08 09:03:27</time>
      </trkpt>
      <trkpt lat="43.18205" lon="-0.60799">
        <ele>217.8</ele>
        <time>2022-06-08 09:03:28</time>
      </trkpt>
      <trkpt lat="43.18198" lon="-0.60796">
        <ele>217.8</ele>
        <time>2022-06-08 09:03:29</time>
      </trkpt>
      <trkpt lat="43.18191" lon="-0.60793">
        <ele>218</ele>
        <time>2022-06-08 09:03:30</time>
      </trkpt>
      <trkpt lat="43.18185" lon="-0.60791">
        <ele>218</ele>
        <time>2022-06-08 09:03:31</time>
      </trkpt>
      <trkpt lat="43.18179" lon="-0.60788">
        <ele>218</ele>
        <time>2022-06-08 09:03:32</time>
      </trkpt>
      <trkpt lat="43.18173" lon="-0.60785">
        <ele>218</ele>
        <time>2022-06-08 09:03:33</time>
      </trkpt>
      <trkpt lat="43.18167" lon="-0.60783">
        <ele>218.2</ele>
        <time>2022-06-08 09:03:34</time>
      </trkpt>
      <trkpt lat="43.18161" lon="-0.6078">
        <ele>218.2</ele>
        <time>2022-06-08 09:03:35</time>
      </trkpt>
      <trkpt lat="43.18155" lon="-0.60778">
        <ele>218.4</ele>
        <time>2022-06-08 09:03:36</time>
      </trkpt>
      <trkpt lat="43.18149" lon="-0.60775">
        <ele>218.4</ele>
        <time>2022-06-08 09:03:37</time>
      </trkpt>
      <trkpt lat="43.18143" lon="-0.60773">
        <ele>218.4</ele>
        <time>2022-06-08 09:03:38</time>
      </trkpt>
      <trkpt lat="43.18138" lon="-0.60771">
        <ele>218.6</ele>
        <time>2022-06-08 09:03:39</time>
      </trkpt>
      <trkpt lat="43.18131" lon="-0.60768">
        <ele>218.6</ele>
        <time>2022-06-08 09:03:40</time>
      </trkpt>
      <trkpt lat="43.18131" lon="-0.60768">
        <ele>218.8</ele>
        <time>2022-06-08 09:03:41</time>
      </trkpt>
      <trkpt lat="43.1812" lon="-0.60763">
        <ele>218.8</ele>
        <time>2022-06-08 09:03:42</time>
      </trkpt>
      <trkpt lat="43.18113" lon="-0.6076">
        <ele>219</ele>
        <time>2022-06-08 09:03:43</time>
      </trkpt>
      <trkpt lat="43.18107" lon="-0.60758">
        <ele>219</ele>
        <time>2022-06-08 09:03:44</time>
      </trkpt>
      <trkpt lat="43.18101" lon="-0.60755">
        <ele>219</ele>
        <time>2022-06-08 09:03:45</time>
      </trkpt>
      <trkpt lat="43.18095" lon="-0.60752">
        <ele>219</ele>
        <time>2022-06-08 09:03:46</time>
      </trkpt>
      <trkpt lat="43.18089" lon="-0.6075">
        <ele>219</ele>
        <time>2022-06-08 09:03:47</time>
      </trkpt>
      <trkpt lat="43.18083" lon="-0.60747">
        <ele>219</ele>
        <time>2022-06-08 09:03:48</time>
      </trkpt>
      <trkpt lat="43.18077" lon="-0.60745">
        <ele>219.2</ele>
        <time>2022-06-08 09:03:49</time>
      </trkpt>
      <trkpt lat="43.18077" lon="-0.60745">
        <ele>219.2</ele>
        <time>2022-06-08 09:03:50</time>
      </trkpt>
      <trkpt lat="43.18065" lon="-0.6074">
        <ele>219.2</ele>
        <time>2022-06-08 09:03:51</time>
      </trkpt>
      <trkpt lat="43.18059" lon="-0.60737">
        <ele>219.2</ele>
        <time>2022-06-08 09:03:52</time>
      </trkpt>
      <trkpt lat="43.18053" lon="-0.60735">
        <ele>219.2</ele>
        <time>2022-06-08 09:03:53</time>
      </trkpt>
      <trkpt lat="43.18048" lon="-0.60733">
        <ele>219.2</ele>
        <time>2022-06-08 09:03:54</time>
      </trkpt>
      <trkpt lat="43.18041" lon="-0.6073">
        <ele>219.2</ele>
        <time>2022-06-08 09:03:55</time>
      </trkpt>
      <trkpt lat="43.18035" lon="-0.60727">
        <ele>219.4</ele>
        <time>2022-06-08 09:03:56</time>
      </trkpt>
      <trkpt lat="43.18029" lon="-0.60725">
        <ele>219.4</ele>
        <time>2022-06-08 09:03:57</time>
      </trkpt>
      <trkpt lat="43.18023" lon="-0.60723">
        <ele>219.4</ele>
        <time>2022-06-08 09:03:58</time>
      </trkpt>
      <trkpt lat="43.18017" lon="-0.6072">
        <ele>219.4</ele>
        <time>2022-06-08 09:03:59</time>
      </trkpt>
      <trkpt lat="43.18012" lon="-0.60718">
        <ele>219.4</ele>
        <time>2022-06-08 09:04:00</time>
      </trkpt>
      <trkpt lat="43.18005" lon="-0.60715">
        <ele>219.6</ele>
        <time>2022-06-08 09:04:01</time>
      </trkpt>
      <trkpt lat="43.17999" lon="-0.60712">
        <ele>219.8</ele>
        <time>2022-06-08 09:04:02</time>
      </trkpt>
      <trkpt lat="43.17993" lon="-0.6071">
        <ele>219.8</ele>
        <time>2022-06-08 09:04:03</time>
      </trkpt>
      <trkpt lat="43.17987" lon="-0.60707">
        <ele>219.8</ele>
        <time>2022-06-08 09:04:04</time>
      </trkpt>
      <trkpt lat="43.1798" lon="-0.60704">
        <ele>220</ele>
        <time>2022-06-08 09:04:05</time>
      </trkpt>
      <trkpt lat="43.17974" lon="-0.60702">
        <ele>220</ele>
        <time>2022-06-08 09:04:06</time>
      </trkpt>
      <trkpt lat="43.17969" lon="-0.60699">
        <ele>220.2</ele>
        <time>2022-06-08 09:04:07</time>
      </trkpt>
      <trkpt lat="43.17963" lon="-0.60698">
        <ele>220.2</ele>
        <time>2022-06-08 09:04:08</time>
      </trkpt>
      <trkpt lat="43.17957" lon="-0.60696">
        <ele>220.4</ele>
        <time>2022-06-08 09:04:09</time>
      </trkpt>
      <trkpt lat="43.17952" lon="-0.60693">
        <ele>220.6</ele>
        <time>2022-06-08 09:04:10</time>
      </trkpt>
      <trkpt lat="43.17946" lon="-0.60691">
        <ele>220.8</ele>
        <time>2022-06-08 09:04:11</time>
      </trkpt>
      <trkpt lat="43.17941" lon="-0.60689">
        <ele>220.8</ele>
        <time>2022-06-08 09:04:12</time>
      </trkpt>
      <trkpt lat="43.17936" lon="-0.60687">
        <ele>221.2</ele>
        <time>2022-06-08 09:04:13</time>
      </trkpt>
      <trkpt lat="43.17931" lon="-0.60685">
        <ele>221.4</ele>
        <time>2022-06-08 09:04:14</time>
      </trkpt>
      <trkpt lat="43.17926" lon="-0.60682">
        <ele>221.6</ele>
        <time>2022-06-08 09:04:15</time>
      </trkpt>
      <trkpt lat="43.17921" lon="-0.6068">
        <ele>221.8</ele>
        <time>2022-06-08 09:04:16</time>
      </trkpt>
      <trkpt lat="43.17916" lon="-0.60678">
        <ele>222.2</ele>
        <time>2022-06-08 09:04:17</time>
      </trkpt>
      <trkpt lat="43.17912" lon="-0.60675">
        <ele>222.4</ele>
        <time>2022-06-08 09:04:18</time>
      </trkpt>
      <trkpt lat="43.17907" lon="-0.60673">
        <ele>222.4</ele>
        <time>2022-06-08 09:04:19</time>
      </trkpt>
      <trkpt lat="43.17907" lon="-0.60673">
        <ele>222.8</ele>
        <time>2022-06-08 09:04:20</time>
      </trkpt>
      <trkpt lat="43.17898" lon="-0.60666">
        <ele>223</ele>
        <time>2022-06-08 09:04:21</time>
      </trkpt>
      <trkpt lat="43.17894" lon="-0.60662">
        <ele>223.4</ele>
        <time>2022-06-08 09:04:22</time>
      </trkpt>
      <trkpt lat="43.17889" lon="-0.60659">
        <ele>223.4</ele>
        <time>2022-06-08 09:04:23</time>
      </trkpt>
      <trkpt lat="43.17884" lon="-0.60655">
        <ele>223.6</ele>
        <time>2022-06-08 09:04:24</time>
      </trkpt>
      <trkpt lat="43.1788" lon="-0.60653">
        <ele>223.6</ele>
        <time>2022-06-08 09:04:25</time>
      </trkpt>
      <trkpt lat="43.17875" lon="-0.60651">
        <ele>223.8</ele>
        <time>2022-06-08 09:04:26</time>
      </trkpt>
      <trkpt lat="43.1787" lon="-0.60649">
        <ele>223.8</ele>
        <time>2022-06-08 09:04:27</time>
      </trkpt>
      <trkpt lat="43.17865" lon="-0.60647">
        <ele>224</ele>
        <time>2022-06-08 09:04:28</time>
      </trkpt>
      <trkpt lat="43.17861" lon="-0.60647">
        <ele>224</ele>
        <time>2022-06-08 09:04:29</time>
      </trkpt>
      <trkpt lat="43.17861" lon="-0.60647">
        <ele>224.2</ele>
        <time>2022-06-08 09:04:30</time>
      </trkpt>
      <trkpt lat="43.17852" lon="-0.60648">
        <ele>224.2</ele>
        <time>2022-06-08 09:04:31</time>
      </trkpt>
      <trkpt lat="43.17848" lon="-0.6065">
        <ele>224.4</ele>
        <time>2022-06-08 09:04:32</time>
      </trkpt>
      <trkpt lat="43.17844" lon="-0.60654">
        <ele>224.4</ele>
        <time>2022-06-08 09:04:33</time>
      </trkpt>
      <trkpt lat="43.1784" lon="-0.60655">
        <ele>224.6</ele>
        <time>2022-06-08 09:04:34</time>
      </trkpt>
      <trkpt lat="43.17835" lon="-0.60656">
        <ele>224.6</ele>
        <time>2022-06-08 09:04:35</time>
      </trkpt>
      <trkpt lat="43.17831" lon="-0.60654">
        <ele>224.8</ele>
        <time>2022-06-08 09:04:36</time>
      </trkpt>
      <trkpt lat="43.17828" lon="-0.6065">
        <ele>224.8</ele>
        <time>2022-06-08 09:04:37</time>
      </trkpt>
      <trkpt lat="43.17825" lon="-0.60644">
        <ele>224.8</ele>
        <time>2022-06-08 09:04:38</time>
      </trkpt>
      <trkpt lat="43.17824" lon="-0.60638">
        <ele>225</ele>
        <time>2022-06-08 09:04:39</time>
      </trkpt>
      <trkpt lat="43.17824" lon="-0.60632">
        <ele>225</ele>
        <time>2022-06-08 09:04:40</time>
      </trkpt>
      <trkpt lat="43.17825" lon="-0.60626">
        <ele>225.2</ele>
        <time>2022-06-08 09:04:41</time>
      </trkpt>
      <trkpt lat="43.17825" lon="-0.60626">
        <ele>225.2</ele>
        <time>2022-06-08 09:04:42</time>
      </trkpt>
      <trkpt lat="43.17824" lon="-0.60615">
        <ele>225.2</ele>
        <time>2022-06-08 09:04:43</time>
      </trkpt>
      <trkpt lat="43.1782" lon="-0.60607">
        <ele>225.2</ele>
        <time>2022-06-08 09:04:44</time>
      </trkpt>
      <trkpt lat="43.17817" lon="-0.60602">
        <ele>225.2</ele>
        <time>2022-06-08 09:04:45</time>
      </trkpt>
      <trkpt lat="43.17817" lon="-0.60602">
        <ele>225.4</ele>
        <time>2022-06-08 09:04:46</time>
      </trkpt>
      <trkpt lat="43.17808" lon="-0.60591">
        <ele>225.4</ele>
        <time>2022-06-08 09:04:47</time>
      </trkpt>
      <trkpt lat="43.17804" lon="-0.60585">
        <ele>225.2</ele>
        <time>2022-06-08 09:04:48</time>
      </trkpt>
      <trkpt lat="43.178" lon="-0.60579">
        <ele>225.2</ele>
        <time>2022-06-08 09:04:49</time>
      </trkpt>
      <trkpt lat="43.17797" lon="-0.60571">
        <ele>225.2</ele>
        <time>2022-06-08 09:04:50</time>
      </trkpt>
      <trkpt lat="43.17794" lon="-0.60563">
        <ele>225</ele>
        <time>2022-06-08 09:04:51</time>
      </trkpt>
      <trkpt lat="43.17793" lon="-0.60554">
        <ele>224.8</ele>
        <time>2022-06-08 09:04:52</time>
      </trkpt>
      <trkpt lat="43.17792" lon="-0.60545">
        <ele>224.8</ele>
        <time>2022-06-08 09:04:53</time>
      </trkpt>
      <trkpt lat="43.17791" lon="-0.60536">
        <ele>224.6</ele>
        <time>2022-06-08 09:04:54</time>
      </trkpt>
      <trkpt lat="43.17792" lon="-0.60527">
        <ele>224.6</ele>
        <time>2022-06-08 09:04:55</time>
      </trkpt>
      <trkpt lat="43.17794" lon="-0.60519">
        <ele>224.4</ele>
        <time>2022-06-08 09:04:56</time>
      </trkpt>
      <trkpt lat="43.17797" lon="-0.6051">
        <ele>224.2</ele>
        <time>2022-06-08 09:04:57</time>
      </trkpt>
      <trkpt lat="43.178" lon="-0.60502">
        <ele>224.2</ele>
        <time>2022-06-08 09:04:58</time>
      </trkpt>
      <trkpt lat="43.17804" lon="-0.60493">
        <ele>224</ele>
        <time>2022-06-08 09:04:59</time>
      </trkpt>
      <trkpt lat="43.17807" lon="-0.60485">
        <ele>223.8</ele>
        <time>2022-06-08 09:05:00</time>
      </trkpt>
      <trkpt lat="43.1781" lon="-0.60477">
        <ele>223.8</ele>
        <time>2022-06-08 09:05:01</time>
      </trkpt>
      <trkpt lat="43.17812" lon="-0.60469">
        <ele>223.8</ele>
        <time>2022-06-08 09:05:02</time>
      </trkpt>
      <trkpt lat="43.17815" lon="-0.60461">
        <ele>223.6</ele>
        <time>2022-06-08 09:05:03</time>
      </trkpt>
      <trkpt lat="43.17818" lon="-0.60452">
        <ele>223.6</ele>
        <time>2022-06-08 09:05:04</time>
      </trkpt>
      <trkpt lat="43.17821" lon="-0.60444">
        <ele>223.6</ele>
        <time>2022-06-08 09:05:05</time>
      </trkpt>
      <trkpt lat="43.17824" lon="-0.60436">
        <ele>223.6</ele>
        <time>2022-06-08 09:05:06</time>
      </trkpt>
      <trkpt lat="43.17827" lon="-0.60428">
        <ele>223.4</ele>
        <time>2022-06-08 09:05:07</time>
      </trkpt>
      <trkpt lat="43.1783" lon="-0.6042">
        <ele>223.4</ele>
        <time>2022-06-08 09:05:08</time>
      </trkpt>
      <trkpt lat="43.17832" lon="-0.60412">
        <ele>223.4</ele>
        <time>2022-06-08 09:05:09</time>
      </trkpt>
      <trkpt lat="43.17835" lon="-0.60403">
        <ele>223.4</ele>
        <time>2022-06-08 09:05:10</time>
      </trkpt>
      <trkpt lat="43.17838" lon="-0.60396">
        <ele>223.4</ele>
        <time>2022-06-08 09:05:11</time>
      </trkpt>
      <trkpt lat="43.17841" lon="-0.60388">
        <ele>223.4</ele>
        <time>2022-06-08 09:05:12</time>
      </trkpt>
      <trkpt lat="43.17843" lon="-0.6038">
        <ele>223.2</ele>
        <time>2022-06-08 09:05:13</time>
      </trkpt>
      <trkpt lat="43.17846" lon="-0.60372">
        <ele>223.2</ele>
        <time>2022-06-08 09:05:14</time>
      </trkpt>
      <trkpt lat="43.17849" lon="-0.60363">
        <ele>223.4</ele>
        <time>2022-06-08 09:05:15</time>
      </trkpt>
      <trkpt lat="43.17851" lon="-0.60353">
        <ele>223.6</ele>
        <time>2022-06-08 09:05:16</time>
      </trkpt>
      <trkpt lat="43.17853" lon="-0.60346">
        <ele>223.4</ele>
        <time>2022-06-08 09:05:17</time>
      </trkpt>
      <trkpt lat="43.17854" lon="-0.60337">
        <ele>223.6</ele>
        <time>2022-06-08 09:05:18</time>
      </trkpt>
      <trkpt lat="43.17854" lon="-0.60327">
        <ele>223.6</ele>
        <time>2022-06-08 09:05:19</time>
      </trkpt>
      <trkpt lat="43.17855" lon="-0.60319">
        <ele>223.6</ele>
        <time>2022-06-08 09:05:20</time>
      </trkpt>
      <trkpt lat="43.17855" lon="-0.60311">
        <ele>223.6</ele>
        <time>2022-06-08 09:05:21</time>
      </trkpt>
      <trkpt lat="43.17854" lon="-0.60303">
        <ele>223.6</ele>
        <time>2022-06-08 09:05:22</time>
      </trkpt>
      <trkpt lat="43.17853" lon="-0.60295">
        <ele>223.6</ele>
        <time>2022-06-08 09:05:23</time>
      </trkpt>
      <trkpt lat="43.17852" lon="-0.60288">
        <ele>223.8</ele>
        <time>2022-06-08 09:05:24</time>
      </trkpt>
      <trkpt lat="43.17852" lon="-0.6028">
        <ele>224</ele>
        <time>2022-06-08 09:05:25</time>
      </trkpt>
      <trkpt lat="43.17851" lon="-0.60273">
        <ele>224.2</ele>
        <time>2022-06-08 09:05:26</time>
      </trkpt>
      <trkpt lat="43.1785" lon="-0.60266">
        <ele>224.2</ele>
        <time>2022-06-08 09:05:27</time>
      </trkpt>
      <trkpt lat="43.17848" lon="-0.60258">
        <ele>224.4</ele>
        <time>2022-06-08 09:05:28</time>
      </trkpt>
      <trkpt lat="43.17848" lon="-0.60253">
        <ele>224.6</ele>
        <time>2022-06-08 09:05:29</time>
      </trkpt>
      <trkpt lat="43.17846" lon="-0.60246">
        <ele>225</ele>
        <time>2022-06-08 09:05:30</time>
      </trkpt>
      <trkpt lat="43.17845" lon="-0.6024">
        <ele>225.4</ele>
        <time>2022-06-08 09:05:31</time>
      </trkpt>
      <trkpt lat="43.17843" lon="-0.60234">
        <ele>225.4</ele>
        <time>2022-06-08 09:05:32</time>
      </trkpt>
      <trkpt lat="43.17841" lon="-0.60229">
        <ele>225.8</ele>
        <time>2022-06-08 09:05:33</time>
      </trkpt>
      <trkpt lat="43.17838" lon="-0.60223">
        <ele>226</ele>
        <time>2022-06-08 09:05:34</time>
      </trkpt>
      <trkpt lat="43.17836" lon="-0.60218">
        <ele>226</ele>
        <time>2022-06-08 09:05:35</time>
      </trkpt>
      <trkpt lat="43.17833" lon="-0.60214">
        <ele>226.2</ele>
        <time>2022-06-08 09:05:36</time>
      </trkpt>
      <trkpt lat="43.1783" lon="-0.60209">
        <ele>226.4</ele>
        <time>2022-06-08 09:05:37</time>
      </trkpt>
      <trkpt lat="43.17827" lon="-0.60204">
        <ele>226.6</ele>
        <time>2022-06-08 09:05:38</time>
      </trkpt>
      <trkpt lat="43.17824" lon="-0.602">
        <ele>227</ele>
        <time>2022-06-08 09:05:39</time>
      </trkpt>
      <trkpt lat="43.17822" lon="-0.60196">
        <ele>227.2</ele>
        <time>2022-06-08 09:05:40</time>
      </trkpt>
      <trkpt lat="43.17819" lon="-0.60192">
        <ele>227.8</ele>
        <time>2022-06-08 09:05:41</time>
      </trkpt>
      <trkpt lat="43.17817" lon="-0.60187">
        <ele>228</ele>
        <time>2022-06-08 09:05:42</time>
      </trkpt>
      <trkpt lat="43.17815" lon="-0.60183">
        <ele>228.2</ele>
        <time>2022-06-08 09:05:43</time>
      </trkpt>
      <trkpt lat="43.17812" lon="-0.60178">
        <ele>228.6</ele>
        <time>2022-06-08 09:05:44</time>
      </trkpt>
      <trkpt lat="43.1781" lon="-0.60175">
        <ele>229</ele>
        <time>2022-06-08 09:05:45</time>
      </trkpt>
      <trkpt lat="43.17808" lon="-0.60171">
        <ele>229.2</ele>
        <time>2022-06-08 09:05:46</time>
      </trkpt>
      <trkpt lat="43.17806" lon="-0.60167">
        <ele>229.4</ele>
        <time>2022-06-08 09:05:47</time>
      </trkpt>
      <trkpt lat="43.17804" lon="-0.60162">
        <ele>229.8</ele>
        <time>2022-06-08 09:05:48</time>
      </trkpt>
      <trkpt lat="43.17802" lon="-0.60157">
        <ele>230</ele>
        <time>2022-06-08 09:05:49</time>
      </trkpt>
      <trkpt lat="43.17799" lon="-0.60152">
        <ele>230.2</ele>
        <time>2022-06-08 09:05:50</time>
      </trkpt>
      <trkpt lat="43.17797" lon="-0.60147">
        <ele>230.4</ele>
        <time>2022-06-08 09:05:51</time>
      </trkpt>
      <trkpt lat="43.17795" lon="-0.60143">
        <ele>230.8</ele>
        <time>2022-06-08 09:05:52</time>
      </trkpt>
      <trkpt lat="43.17793" lon="-0.60138">
        <ele>231</ele>
        <time>2022-06-08 09:05:53</time>
      </trkpt>
      <trkpt lat="43.17792" lon="-0.60133">
        <ele>231</ele>
        <time>2022-06-08 09:05:54</time>
      </trkpt>
      <trkpt lat="43.17789" lon="-0.60128">
        <ele>231.2</ele>
        <time>2022-06-08 09:05:55</time>
      </trkpt>
      <trkpt lat="43.17788" lon="-0.60123">
        <ele>231.4</ele>
        <time>2022-06-08 09:05:56</time>
      </trkpt>
      <trkpt lat="43.17786" lon="-0.60118">
        <ele>231.6</ele>
        <time>2022-06-08 09:05:57</time>
      </trkpt>
      <trkpt lat="43.17784" lon="-0.60113">
        <ele>231.8</ele>
        <time>2022-06-08 09:05:58</time>
      </trkpt>
      <trkpt lat="43.17782" lon="-0.60108">
        <ele>232</ele>
        <time>2022-06-08 09:05:59</time>
      </trkpt>
      <trkpt lat="43.1778" lon="-0.60103">
        <ele>232.2</ele>
        <time>2022-06-08 09:06:00</time>
      </trkpt>
      <trkpt lat="43.17779" lon="-0.60098">
        <ele>232.6</ele>
        <time>2022-06-08 09:06:01</time>
      </trkpt>
      <trkpt lat="43.17777" lon="-0.60094">
        <ele>232.6</ele>
        <time>2022-06-08 09:06:02</time>
      </trkpt>
      <trkpt lat="43.17775" lon="-0.60089">
        <ele>233</ele>
        <time>2022-06-08 09:06:03</time>
      </trkpt>
      <trkpt lat="43.17773" lon="-0.60085">
        <ele>233.2</ele>
        <time>2022-06-08 09:06:04</time>
      </trkpt>
      <trkpt lat="43.17771" lon="-0.6008">
        <ele>233.4</ele>
        <time>2022-06-08 09:06:05</time>
      </trkpt>
      <trkpt lat="43.17769" lon="-0.60075">
        <ele>233.6</ele>
        <time>2022-06-08 09:06:06</time>
      </trkpt>
      <trkpt lat="43.17767" lon="-0.60071">
        <ele>234</ele>
        <time>2022-06-08 09:06:07</time>
      </trkpt>
      <trkpt lat="43.17765" lon="-0.60066">
        <ele>234.2</ele>
        <time>2022-06-08 09:06:08</time>
      </trkpt>
      <trkpt lat="43.17763" lon="-0.60062">
        <ele>234.4</ele>
        <time>2022-06-08 09:06:09</time>
      </trkpt>
      <trkpt lat="43.17761" lon="-0.60057">
        <ele>234.6</ele>
        <time>2022-06-08 09:06:10</time>
      </trkpt>
      <trkpt lat="43.1776" lon="-0.60053">
        <ele>234.8</ele>
        <time>2022-06-08 09:06:11</time>
      </trkpt>
      <trkpt lat="43.17758" lon="-0.60049">
        <ele>235.2</ele>
        <time>2022-06-08 09:06:12</time>
      </trkpt>
      <trkpt lat="43.17756" lon="-0.60045">
        <ele>235.2</ele>
        <time>2022-06-08 09:06:13</time>
      </trkpt>
      <trkpt lat="43.17754" lon="-0.60041">
        <ele>235.8</ele>
        <time>2022-06-08 09:06:14</time>
      </trkpt>
      <trkpt lat="43.17752" lon="-0.60037">
        <ele>236</ele>
        <time>2022-06-08 09:06:15</time>
      </trkpt>
      <trkpt lat="43.1775" lon="-0.60033">
        <ele>236.4</ele>
        <time>2022-06-08 09:06:16</time>
      </trkpt>
      <trkpt lat="43.17748" lon="-0.6003">
        <ele>236.6</ele>
        <time>2022-06-08 09:06:17</time>
      </trkpt>
      <trkpt lat="43.17746" lon="-0.60025">
        <ele>236.8</ele>
        <time>2022-06-08 09:06:18</time>
      </trkpt>
      <trkpt lat="43.17743" lon="-0.60022">
        <ele>237</ele>
        <time>2022-06-08 09:06:19</time>
      </trkpt>
      <trkpt lat="43.17741" lon="-0.60018">
        <ele>237.4</ele>
        <time>2022-06-08 09:06:20</time>
      </trkpt>
      <trkpt lat="43.17738" lon="-0.60015">
        <ele>237.6</ele>
        <time>2022-06-08 09:06:21</time>
      </trkpt>
      <trkpt lat="43.17735" lon="-0.6001">
        <ele>238</ele>
        <time>2022-06-08 09:06:22</time>
      </trkpt>
      <trkpt lat="43.17732" lon="-0.60008">
        <ele>238.2</ele>
        <time>2022-06-08 09:06:23</time>
      </trkpt>
      <trkpt lat="43.1773" lon="-0.60005">
        <ele>238.4</ele>
        <time>2022-06-08 09:06:24</time>
      </trkpt>
      <trkpt lat="43.17727" lon="-0.60002">
        <ele>238.6</ele>
        <time>2022-06-08 09:06:25</time>
      </trkpt>
      <trkpt lat="43.17724" lon="-0.59999">
        <ele>238.8</ele>
        <time>2022-06-08 09:06:26</time>
      </trkpt>
      <trkpt lat="43.17721" lon="-0.59996">
        <ele>239.2</ele>
        <time>2022-06-08 09:06:27</time>
      </trkpt>
      <trkpt lat="43.17718" lon="-0.59993">
        <ele>239.2</ele>
        <time>2022-06-08 09:06:28</time>
      </trkpt>
      <trkpt lat="43.17715" lon="-0.59991">
        <ele>239.4</ele>
        <time>2022-06-08 09:06:29</time>
      </trkpt>
      <trkpt lat="43.17712" lon="-0.59988">
        <ele>239.6</ele>
        <time>2022-06-08 09:06:30</time>
      </trkpt>
      <trkpt lat="43.17709" lon="-0.59985">
        <ele>239.8</ele>
        <time>2022-06-08 09:06:31</time>
      </trkpt>
      <trkpt lat="43.17706" lon="-0.59982">
        <ele>240</ele>
        <time>2022-06-08 09:06:32</time>
      </trkpt>
      <trkpt lat="43.17703" lon="-0.5998">
        <ele>240.4</ele>
        <time>2022-06-08 09:06:33</time>
      </trkpt>
      <trkpt lat="43.177" lon="-0.59977">
        <ele>240.8</ele>
        <time>2022-06-08 09:06:34</time>
      </trkpt>
      <trkpt lat="43.17697" lon="-0.59974">
        <ele>241</ele>
        <time>2022-06-08 09:06:35</time>
      </trkpt>
      <trkpt lat="43.17694" lon="-0.59972">
        <ele>241</ele>
        <time>2022-06-08 09:06:36</time>
      </trkpt>
      <trkpt lat="43.17692" lon="-0.59969">
        <ele>241.2</ele>
        <time>2022-06-08 09:06:37</time>
      </trkpt>
      <trkpt lat="43.17689" lon="-0.59967">
        <ele>241.4</ele>
        <time>2022-06-08 09:06:38</time>
      </trkpt>
      <trkpt lat="43.17686" lon="-0.59965">
        <ele>241.6</ele>
        <time>2022-06-08 09:06:39</time>
      </trkpt>
      <trkpt lat="43.17683" lon="-0.59962">
        <ele>242</ele>
        <time>2022-06-08 09:06:40</time>
      </trkpt>
      <trkpt lat="43.1768" lon="-0.59959">
        <ele>242.2</ele>
        <time>2022-06-08 09:06:41</time>
      </trkpt>
      <trkpt lat="43.17677" lon="-0.59957">
        <ele>242.4</ele>
        <time>2022-06-08 09:06:42</time>
      </trkpt>
      <trkpt lat="43.17674" lon="-0.59954">
        <ele>242.6</ele>
        <time>2022-06-08 09:06:43</time>
      </trkpt>
      <trkpt lat="43.17671" lon="-0.59952">
        <ele>243</ele>
        <time>2022-06-08 09:06:44</time>
      </trkpt>
      <trkpt lat="43.17668" lon="-0.59949">
        <ele>243.2</ele>
        <time>2022-06-08 09:06:45</time>
      </trkpt>
      <trkpt lat="43.17665" lon="-0.59947">
        <ele>243.4</ele>
        <time>2022-06-08 09:06:46</time>
      </trkpt>
      <trkpt lat="43.17662" lon="-0.59944">
        <ele>243.4</ele>
        <time>2022-06-08 09:06:47</time>
      </trkpt>
      <trkpt lat="43.1766" lon="-0.59942">
        <ele>243.8</ele>
        <time>2022-06-08 09:06:48</time>
      </trkpt>
      <trkpt lat="43.17657" lon="-0.59939">
        <ele>244</ele>
        <time>2022-06-08 09:06:49</time>
      </trkpt>
      <trkpt lat="43.17656" lon="-0.59935">
        <ele>244.2</ele>
        <time>2022-06-08 09:06:50</time>
      </trkpt>
      <trkpt lat="43.17655" lon="-0.59931">
        <ele>244.2</ele>
        <time>2022-06-08 09:06:51</time>
      </trkpt>
      <trkpt lat="43.17654" lon="-0.59926">
        <ele>244.4</ele>
        <time>2022-06-08 09:06:52</time>
      </trkpt>
      <trkpt lat="43.17655" lon="-0.59922">
        <ele>244.6</ele>
        <time>2022-06-08 09:06:53</time>
      </trkpt>
      <trkpt lat="43.17656" lon="-0.59917">
        <ele>245</ele>
        <time>2022-06-08 09:06:54</time>
      </trkpt>
      <trkpt lat="43.17657" lon="-0.59912">
        <ele>245.2</ele>
        <time>2022-06-08 09:06:55</time>
      </trkpt>
      <trkpt lat="43.17659" lon="-0.59908">
        <ele>245.2</ele>
        <time>2022-06-08 09:06:56</time>
      </trkpt>
      <trkpt lat="43.17661" lon="-0.59904">
        <ele>245.4</ele>
        <time>2022-06-08 09:06:57</time>
      </trkpt>
      <trkpt lat="43.17663" lon="-0.59901">
        <ele>245.6</ele>
        <time>2022-06-08 09:06:58</time>
      </trkpt>
      <trkpt lat="43.17665" lon="-0.59897">
        <ele>245.6</ele>
        <time>2022-06-08 09:06:59</time>
      </trkpt>
      <trkpt lat="43.17667" lon="-0.59896">
        <ele>245.8</ele>
        <time>2022-06-08 09:07:00</time>
      </trkpt>
      <trkpt lat="43.17669" lon="-0.59894">
        <ele>246</ele>
        <time>2022-06-08 09:07:01</time>
      </trkpt>
      <trkpt lat="43.17671" lon="-0.59892">
        <ele>246.2</ele>
        <time>2022-06-08 09:07:02</time>
      </trkpt>
      <trkpt lat="43.17673" lon="-0.5989">
        <ele>246.4</ele>
        <time>2022-06-08 09:07:03</time>
      </trkpt>
      <trkpt lat="43.17675" lon="-0.59888">
        <ele>246.6</ele>
        <time>2022-06-08 09:07:04</time>
      </trkpt>
      <trkpt lat="43.17677" lon="-0.59886">
        <ele>247</ele>
        <time>2022-06-08 09:07:05</time>
      </trkpt>
      <trkpt lat="43.17679" lon="-0.59884">
        <ele>247.2</ele>
        <time>2022-06-08 09:07:06</time>
      </trkpt>
      <trkpt lat="43.17681" lon="-0.59883">
        <ele>247.8</ele>
        <time>2022-06-08 09:07:07</time>
      </trkpt>
      <trkpt lat="43.17684" lon="-0.59882">
        <ele>247.8</ele>
        <time>2022-06-08 09:07:08</time>
      </trkpt>
      <trkpt lat="43.17686" lon="-0.5988">
        <ele>248</ele>
        <time>2022-06-08 09:07:09</time>
      </trkpt>
      <trkpt lat="43.17688" lon="-0.59879">
        <ele>248.4</ele>
        <time>2022-06-08 09:07:10</time>
      </trkpt>
      <trkpt lat="43.1769" lon="-0.59878">
        <ele>248.6</ele>
        <time>2022-06-08 09:07:11</time>
      </trkpt>
      <trkpt lat="43.17693" lon="-0.59877">
        <ele>249</ele>
        <time>2022-06-08 09:07:12</time>
      </trkpt>
      <trkpt lat="43.17695" lon="-0.59876">
        <ele>249.2</ele>
        <time>2022-06-08 09:07:13</time>
      </trkpt>
      <trkpt lat="43.17697" lon="-0.59875">
        <ele>249.6</ele>
        <time>2022-06-08 09:07:14</time>
      </trkpt>
      <trkpt lat="43.177" lon="-0.59874">
        <ele>249.8</ele>
        <time>2022-06-08 09:07:15</time>
      </trkpt>
      <trkpt lat="43.17702" lon="-0.59874">
        <ele>249.8</ele>
        <time>2022-06-08 09:07:16</time>
      </trkpt>
      <trkpt lat="43.17705" lon="-0.59873">
        <ele>250.2</ele>
        <time>2022-06-08 09:07:17</time>
      </trkpt>
      <trkpt lat="43.17707" lon="-0.59873">
        <ele>250.6</ele>
        <time>2022-06-08 09:07:18</time>
      </trkpt>
      <trkpt lat="43.17709" lon="-0.59872">
        <ele>250.6</ele>
        <time>2022-06-08 09:07:19</time>
      </trkpt>
      <trkpt lat="43.17712" lon="-0.59872">
        <ele>250.8</ele>
        <time>2022-06-08 09:07:20</time>
      </trkpt>
      <trkpt lat="43.17714" lon="-0.59871">
        <ele>251</ele>
        <time>2022-06-08 09:07:21</time>
      </trkpt>
      <trkpt lat="43.17716" lon="-0.59871">
        <ele>251.6</ele>
        <time>2022-06-08 09:07:22</time>
      </trkpt>
      <trkpt lat="43.17718" lon="-0.59871">
        <ele>251.8</ele>
        <time>2022-06-08 09:07:23</time>
      </trkpt>
      <trkpt lat="43.1772" lon="-0.59871">
        <ele>251.8</ele>
        <time>2022-06-08 09:07:24</time>
      </trkpt>
      <trkpt lat="43.17722" lon="-0.59871">
        <ele>252</ele>
        <time>2022-06-08 09:07:25</time>
      </trkpt>
      <trkpt lat="43.17724" lon="-0.59871">
        <ele>252</ele>
        <time>2022-06-08 09:07:26</time>
      </trkpt>
      <trkpt lat="43.17726" lon="-0.59871">
        <ele>252.2</ele>
        <time>2022-06-08 09:07:27</time>
      </trkpt>
      <trkpt lat="43.17728" lon="-0.59871">
        <ele>252.4</ele>
        <time>2022-06-08 09:07:28</time>
      </trkpt>
      <trkpt lat="43.1773" lon="-0.59871">
        <ele>252.6</ele>
        <time>2022-06-08 09:07:29</time>
      </trkpt>
      <trkpt lat="43.17732" lon="-0.5987">
        <ele>252.8</ele>
        <time>2022-06-08 09:07:30</time>
      </trkpt>
      <trkpt lat="43.17734" lon="-0.5987">
        <ele>253.2</ele>
        <time>2022-06-08 09:07:31</time>
      </trkpt>
      <trkpt lat="43.17736" lon="-0.5987">
        <ele>253.4</ele>
        <time>2022-06-08 09:07:32</time>
      </trkpt>
      <trkpt lat="43.17738" lon="-0.5987">
        <ele>253.6</ele>
        <time>2022-06-08 09:07:33</time>
      </trkpt>
      <trkpt lat="43.1774" lon="-0.5987">
        <ele>253.8</ele>
        <time>2022-06-08 09:07:34</time>
      </trkpt>
      <trkpt lat="43.17742" lon="-0.5987">
        <ele>254</ele>
        <time>2022-06-08 09:07:35</time>
      </trkpt>
      <trkpt lat="43.17744" lon="-0.5987">
        <ele>254.2</ele>
        <time>2022-06-08 09:07:36</time>
      </trkpt>
      <trkpt lat="43.17746" lon="-0.5987">
        <ele>254.6</ele>
        <time>2022-06-08 09:07:37</time>
      </trkpt>
      <trkpt lat="43.17748" lon="-0.5987">
        <ele>254.8</ele>
        <time>2022-06-08 09:07:38</time>
      </trkpt>
      <trkpt lat="43.17751" lon="-0.5987">
        <ele>255.2</ele>
        <time>2022-06-08 09:07:39</time>
      </trkpt>
      <trkpt lat="43.17753" lon="-0.5987">
        <ele>255.6</ele>
        <time>2022-06-08 09:07:40</time>
      </trkpt>
      <trkpt lat="43.17755" lon="-0.5987">
        <ele>255.8</ele>
        <time>2022-06-08 09:07:41</time>
      </trkpt>
      <trkpt lat="43.17757" lon="-0.5987">
        <ele>256</ele>
        <time>2022-06-08 09:07:42</time>
      </trkpt>
      <trkpt lat="43.17759" lon="-0.5987">
        <ele>256.2</ele>
        <time>2022-06-08 09:07:43</time>
      </trkpt>
      <trkpt lat="43.17762" lon="-0.59869">
        <ele>256.6</ele>
        <time>2022-06-08 09:07:44</time>
      </trkpt>
      <trkpt lat="43.17764" lon="-0.59868">
        <ele>256.8</ele>
        <time>2022-06-08 09:07:45</time>
      </trkpt>
      <trkpt lat="43.17767" lon="-0.59868">
        <ele>257</ele>
        <time>2022-06-08 09:07:46</time>
      </trkpt>
      <trkpt lat="43.17769" lon="-0.59867">
        <ele>257.2</ele>
        <time>2022-06-08 09:07:47</time>
      </trkpt>
      <trkpt lat="43.17772" lon="-0.59866">
        <ele>257.4</ele>
        <time>2022-06-08 09:07:48</time>
      </trkpt>
      <trkpt lat="43.17774" lon="-0.59866">
        <ele>257.4</ele>
        <time>2022-06-08 09:07:49</time>
      </trkpt>
      <trkpt lat="43.17777" lon="-0.59864">
        <ele>257.8</ele>
        <time>2022-06-08 09:07:50</time>
      </trkpt>
      <trkpt lat="43.17779" lon="-0.59863">
        <ele>257.8</ele>
        <time>2022-06-08 09:07:51</time>
      </trkpt>
      <trkpt lat="43.17781" lon="-0.59861">
        <ele>258.2</ele>
        <time>2022-06-08 09:07:52</time>
      </trkpt>
      <trkpt lat="43.17784" lon="-0.5986">
        <ele>258.2</ele>
        <time>2022-06-08 09:07:53</time>
      </trkpt>
      <trkpt lat="43.17787" lon="-0.59859">
        <ele>258.4</ele>
        <time>2022-06-08 09:07:54</time>
      </trkpt>
      <trkpt lat="43.1779" lon="-0.59858">
        <ele>258.8</ele>
        <time>2022-06-08 09:07:55</time>
      </trkpt>
      <trkpt lat="43.17792" lon="-0.59857">
        <ele>258.8</ele>
        <time>2022-06-08 09:07:56</time>
      </trkpt>
      <trkpt lat="43.17795" lon="-0.59855">
        <ele>259</ele>
        <time>2022-06-08 09:07:57</time>
      </trkpt>
      <trkpt lat="43.17797" lon="-0.59852">
        <ele>259.2</ele>
        <time>2022-06-08 09:07:58</time>
      </trkpt>
      <trkpt lat="43.178" lon="-0.5985">
        <ele>259.2</ele>
        <time>2022-06-08 09:07:59</time>
      </trkpt>
      <trkpt lat="43.17802" lon="-0.59847">
        <ele>259.4</ele>
        <time>2022-06-08 09:08:00</time>
      </trkpt>
      <trkpt lat="43.17804" lon="-0.59844">
        <ele>259.8</ele>
        <time>2022-06-08 09:08:01</time>
      </trkpt>
      <trkpt lat="43.17806" lon="-0.59841">
        <ele>260</ele>
        <time>2022-06-08 09:08:02</time>
      </trkpt>
      <trkpt lat="43.17807" lon="-0.59839">
        <ele>260.2</ele>
        <time>2022-06-08 09:08:03</time>
      </trkpt>
      <trkpt lat="43.17809" lon="-0.59837">
        <ele>260.4</ele>
        <time>2022-06-08 09:08:04</time>
      </trkpt>
      <trkpt lat="43.1781" lon="-0.59835">
        <ele>260.6</ele>
        <time>2022-06-08 09:08:05</time>
      </trkpt>
      <trkpt lat="43.17812" lon="-0.59833">
        <ele>260.8</ele>
        <time>2022-06-08 09:08:06</time>
      </trkpt>
      <trkpt lat="43.17814" lon="-0.59831">
        <ele>261.2</ele>
        <time>2022-06-08 09:08:07</time>
      </trkpt>
      <trkpt lat="43.17816" lon="-0.59829">
        <ele>261.4</ele>
        <time>2022-06-08 09:08:08</time>
      </trkpt>
      <trkpt lat="43.17818" lon="-0.59828">
        <ele>261.4</ele>
        <time>2022-06-08 09:08:09</time>
      </trkpt>
      <trkpt lat="43.1782" lon="-0.59826">
        <ele>261.6</ele>
        <time>2022-06-08 09:08:10</time>
      </trkpt>
      <trkpt lat="43.17822" lon="-0.59825">
        <ele>261.8</ele>
        <time>2022-06-08 09:08:11</time>
      </trkpt>
      <trkpt lat="43.17824" lon="-0.59823">
        <ele>262</ele>
        <time>2022-06-08 09:08:12</time>
      </trkpt>
      <trkpt lat="43.17826" lon="-0.59822">
        <ele>262.2</ele>
        <time>2022-06-08 09:08:13</time>
      </trkpt>
      <trkpt lat="43.17829" lon="-0.5982">
        <ele>262.6</ele>
        <time>2022-06-08 09:08:14</time>
      </trkpt>
      <trkpt lat="43.17831" lon="-0.59818">
        <ele>262.8</ele>
        <time>2022-06-08 09:08:15</time>
      </trkpt>
      <trkpt lat="43.17833" lon="-0.59816">
        <ele>263</ele>
        <time>2022-06-08 09:08:16</time>
      </trkpt>
      <trkpt lat="43.17835" lon="-0.59814">
        <ele>263.2</ele>
        <time>2022-06-08 09:08:17</time>
      </trkpt>
      <trkpt lat="43.17837" lon="-0.59812">
        <ele>263.4</ele>
        <time>2022-06-08 09:08:18</time>
      </trkpt>
      <trkpt lat="43.1784" lon="-0.59809">
        <ele>263.6</ele>
        <time>2022-06-08 09:08:19</time>
      </trkpt>
      <trkpt lat="43.17844" lon="-0.59805">
        <ele>263.8</ele>
        <time>2022-06-08 09:08:20</time>
      </trkpt>
      <trkpt lat="43.17847" lon="-0.59802">
        <ele>263.8</ele>
        <time>2022-06-08 09:08:21</time>
      </trkpt>
      <trkpt lat="43.1785" lon="-0.598">
        <ele>264.2</ele>
        <time>2022-06-08 09:08:22</time>
      </trkpt>
      <trkpt lat="43.17853" lon="-0.59797">
        <ele>264.2</ele>
        <time>2022-06-08 09:08:23</time>
      </trkpt>
      <trkpt lat="43.17856" lon="-0.59795">
        <ele>264.4</ele>
        <time>2022-06-08 09:08:24</time>
      </trkpt>
      <trkpt lat="43.17858" lon="-0.59792">
        <ele>264.6</ele>
        <time>2022-06-08 09:08:25</time>
      </trkpt>
      <trkpt lat="43.17861" lon="-0.5979">
        <ele>264.8</ele>
        <time>2022-06-08 09:08:26</time>
      </trkpt>
      <trkpt lat="43.17864" lon="-0.59788">
        <ele>265.2</ele>
        <time>2022-06-08 09:08:27</time>
      </trkpt>
      <trkpt lat="43.17867" lon="-0.59786">
        <ele>265.4</ele>
        <time>2022-06-08 09:08:28</time>
      </trkpt>
      <trkpt lat="43.1787" lon="-0.59784">
        <ele>265.8</ele>
        <time>2022-06-08 09:08:29</time>
      </trkpt>
      <trkpt lat="43.17873" lon="-0.59783">
        <ele>266</ele>
        <time>2022-06-08 09:08:30</time>
      </trkpt>
      <trkpt lat="43.17875" lon="-0.59782">
        <ele>266.4</ele>
        <time>2022-06-08 09:08:31</time>
      </trkpt>
      <trkpt lat="43.17877" lon="-0.5978">
        <ele>266.6</ele>
        <time>2022-06-08 09:08:32</time>
      </trkpt>
      <trkpt lat="43.1788" lon="-0.59778">
        <ele>266.8</ele>
        <time>2022-06-08 09:08:33</time>
      </trkpt>
      <trkpt lat="43.17883" lon="-0.59777">
        <ele>266.8</ele>
        <time>2022-06-08 09:08:34</time>
      </trkpt>
      <trkpt lat="43.17886" lon="-0.59777">
        <ele>267.2</ele>
        <time>2022-06-08 09:08:35</time>
      </trkpt>
      <trkpt lat="43.1789" lon="-0.59775">
        <ele>267.4</ele>
        <time>2022-06-08 09:08:36</time>
      </trkpt>
      <trkpt lat="43.17893" lon="-0.59772">
        <ele>268</ele>
        <time>2022-06-08 09:08:37</time>
      </trkpt>
      <trkpt lat="43.17896" lon="-0.59769">
        <ele>268.4</ele>
        <time>2022-06-08 09:08:38</time>
      </trkpt>
      <trkpt lat="43.17899" lon="-0.59768">
        <ele>268.4</ele>
        <time>2022-06-08 09:08:39</time>
      </trkpt>
      <trkpt lat="43.17901" lon="-0.59766">
        <ele>268.8</ele>
        <time>2022-06-08 09:08:40</time>
      </trkpt>
      <trkpt lat="43.17903" lon="-0.59765">
        <ele>269</ele>
        <time>2022-06-08 09:08:41</time>
      </trkpt>
      <trkpt lat="43.17905" lon="-0.59765">
        <ele>269.2</ele>
        <time>2022-06-08 09:08:42</time>
      </trkpt>
      <trkpt lat="43.17908" lon="-0.59765">
        <ele>269.6</ele>
        <time>2022-06-08 09:08:43</time>
      </trkpt>
      <trkpt lat="43.17909" lon="-0.59765">
        <ele>270</ele>
        <time>2022-06-08 09:08:44</time>
      </trkpt>
      <trkpt lat="43.17911" lon="-0.59765">
        <ele>270</ele>
        <time>2022-06-08 09:08:45</time>
      </trkpt>
      <trkpt lat="43.17913" lon="-0.59766">
        <ele>270.2</ele>
        <time>2022-06-08 09:08:46</time>
      </trkpt>
      <trkpt lat="43.17915" lon="-0.59767">
        <ele>270.4</ele>
        <time>2022-06-08 09:08:47</time>
      </trkpt>
      <trkpt lat="43.17917" lon="-0.59767">
        <ele>270.8</ele>
        <time>2022-06-08 09:08:48</time>
      </trkpt>
      <trkpt lat="43.17918" lon="-0.59768">
        <ele>271</ele>
        <time>2022-06-08 09:08:49</time>
      </trkpt>
      <trkpt lat="43.1792" lon="-0.59769">
        <ele>271.4</ele>
        <time>2022-06-08 09:08:50</time>
      </trkpt>
      <trkpt lat="43.17922" lon="-0.59771">
        <ele>271.4</ele>
        <time>2022-06-08 09:08:51</time>
      </trkpt>
      <trkpt lat="43.17923" lon="-0.59772">
        <ele>271.8</ele>
        <time>2022-06-08 09:08:52</time>
      </trkpt>
      <trkpt lat="43.17925" lon="-0.59773">
        <ele>271.8</ele>
        <time>2022-06-08 09:08:53</time>
      </trkpt>
      <trkpt lat="43.17926" lon="-0.59775">
        <ele>272</ele>
        <time>2022-06-08 09:08:54</time>
      </trkpt>
      <trkpt lat="43.17927" lon="-0.59777">
        <ele>272.2</ele>
        <time>2022-06-08 09:08:55</time>
      </trkpt>
      <trkpt lat="43.17929" lon="-0.59778">
        <ele>272.4</ele>
        <time>2022-06-08 09:08:56</time>
      </trkpt>
      <trkpt lat="43.1793" lon="-0.5978">
        <ele>272.6</ele>
        <time>2022-06-08 09:08:57</time>
      </trkpt>
      <trkpt lat="43.17931" lon="-0.59782">
        <ele>273</ele>
        <time>2022-06-08 09:08:58</time>
      </trkpt>
      <trkpt lat="43.17933" lon="-0.59783">
        <ele>273.2</ele>
        <time>2022-06-08 09:08:59</time>
      </trkpt>
      <trkpt lat="43.17934" lon="-0.59784">
        <ele>273.4</ele>
        <time>2022-06-08 09:09:00</time>
      </trkpt>
      <trkpt lat="43.17935" lon="-0.59786">
        <ele>273.6</ele>
        <time>2022-06-08 09:09:01</time>
      </trkpt>
      <trkpt lat="43.17936" lon="-0.59787">
        <ele>273.8</ele>
        <time>2022-06-08 09:09:02</time>
      </trkpt>
      <trkpt lat="43.17937" lon="-0.59789">
        <ele>274</ele>
        <time>2022-06-08 09:09:03</time>
      </trkpt>
      <trkpt lat="43.17938" lon="-0.59791">
        <ele>274.2</ele>
        <time>2022-06-08 09:09:04</time>
      </trkpt>
      <trkpt lat="43.17939" lon="-0.59792">
        <ele>274.4</ele>
        <time>2022-06-08 09:09:05</time>
      </trkpt>
      <trkpt lat="43.1794" lon="-0.59794">
        <ele>274.6</ele>
        <time>2022-06-08 09:09:06</time>
      </trkpt>
      <trkpt lat="43.1794" lon="-0.59795">
        <ele>274.6</ele>
        <time>2022-06-08 09:09:07</time>
      </trkpt>
      <trkpt lat="43.1794" lon="-0.59797">
        <ele>274.8</ele>
        <time>2022-06-08 09:09:08</time>
      </trkpt>
      <trkpt lat="43.17939" lon="-0.59797">
        <ele>274.8</ele>
        <time>2022-06-08 09:09:09</time>
      </trkpt>
      <trkpt lat="43.17937" lon="-0.59795">
        <ele>274.8</ele>
        <time>2022-06-08 09:09:10</time>
      </trkpt>
      <trkpt lat="43.17935" lon="-0.59792">
        <ele>274.8</ele>
        <time>2022-06-08 09:09:11</time>
      </trkpt>
      <trkpt lat="43.17933" lon="-0.59789">
        <ele>274.8</ele>
        <time>2022-06-08 09:09:12</time>
      </trkpt>
      <trkpt lat="43.1793" lon="-0.59785">
        <ele>274.8</ele>
        <time>2022-06-08 09:09:13</time>
      </trkpt>
      <trkpt lat="43.17927" lon="-0.59781">
        <ele>274.8</ele>
        <time>2022-06-08 09:09:14</time>
      </trkpt>
      <trkpt lat="43.17924" lon="-0.59777">
        <ele>274.8</ele>
        <time>2022-06-08 09:09:15</time>
      </trkpt>
      <trkpt lat="43.1792" lon="-0.59774">
        <ele>274.6</ele>
        <time>2022-06-08 09:09:16</time>
      </trkpt>
      <trkpt lat="43.17916" lon="-0.5977">
        <ele>274.6</ele>
        <time>2022-06-08 09:09:17</time>
      </trkpt>
      <trkpt lat="43.17913" lon="-0.59767">
        <ele>274.2</ele>
        <time>2022-06-08 09:09:18</time>
      </trkpt>
      <trkpt lat="43.1791" lon="-0.59763">
        <ele>273.8</ele>
        <time>2022-06-08 09:09:19</time>
      </trkpt>
      <trkpt lat="43.17906" lon="-0.59758">
        <ele>273.4</ele>
        <time>2022-06-08 09:09:20</time>
      </trkpt>
      <trkpt lat="43.17903" lon="-0.59752">
        <ele>273</ele>
        <time>2022-06-08 09:09:21</time>
      </trkpt>
      <trkpt lat="43.17901" lon="-0.59747">
        <ele>273</ele>
        <time>2022-06-08 09:09:22</time>
      </trkpt>
      <trkpt lat="43.17899" lon="-0.59742">
        <ele>272.8</ele>
        <time>2022-06-08 09:09:23</time>
      </trkpt>
      <trkpt lat="43.17897" lon="-0.59737">
        <ele>272.8</ele>
        <time>2022-06-08 09:09:24</time>
      </trkpt>
      <trkpt lat="43.17896" lon="-0.59733">
        <ele>272.6</ele>
        <time>2022-06-08 09:09:25</time>
      </trkpt>
      <trkpt lat="43.17895" lon="-0.5973">
        <ele>272.6</ele>
        <time>2022-06-08 09:09:26</time>
      </trkpt>
      <trkpt lat="43.17894" lon="-0.59727">
        <ele>272.6</ele>
        <time>2022-06-08 09:09:27</time>
      </trkpt>
      <trkpt lat="43.17892" lon="-0.59724">
        <ele>272.8</ele>
        <time>2022-06-08 09:09:28</time>
      </trkpt>
      <trkpt lat="43.1789" lon="-0.59721">
        <ele>272.8</ele>
        <time>2022-06-08 09:09:29</time>
      </trkpt>
      <trkpt lat="43.17887" lon="-0.59719">
        <ele>272.8</ele>
        <time>2022-06-08 09:09:30</time>
      </trkpt>
      <trkpt lat="43.17884" lon="-0.59716">
        <ele>272.8</ele>
        <time>2022-06-08 09:09:31</time>
      </trkpt>
      <trkpt lat="43.17882" lon="-0.59713">
        <ele>272.8</ele>
        <time>2022-06-08 09:09:32</time>
      </trkpt>
      <trkpt lat="43.17878" lon="-0.59711">
        <ele>272.8</ele>
        <time>2022-06-08 09:09:33</time>
      </trkpt>
      <trkpt lat="43.17874" lon="-0.59709">
        <ele>272.8</ele>
        <time>2022-06-08 09:09:34</time>
      </trkpt>
      <trkpt lat="43.17869" lon="-0.59707">
        <ele>272.8</ele>
        <time>2022-06-08 09:09:35</time>
      </trkpt>
      <trkpt lat="43.17864" lon="-0.59704">
        <ele>272.8</ele>
        <time>2022-06-08 09:09:36</time>
      </trkpt>
      <trkpt lat="43.17859" lon="-0.59701">
        <ele>272.8</ele>
        <time>2022-06-08 09:09:37</time>
      </trkpt>
      <trkpt lat="43.17853" lon="-0.59697">
        <ele>272.8</ele>
        <time>2022-06-08 09:09:38</time>
      </trkpt>
      <trkpt lat="43.17848" lon="-0.59693">
        <ele>272.6</ele>
        <time>2022-06-08 09:09:39</time>
      </trkpt>
      <trkpt lat="43.17843" lon="-0.59689">
        <ele>271.8</ele>
        <time>2022-06-08 09:09:40</time>
      </trkpt>
      <trkpt lat="43.17837" lon="-0.59685">
        <ele>271.6</ele>
        <time>2022-06-08 09:09:41</time>
      </trkpt>
      <trkpt lat="43.17832" lon="-0.59681">
        <ele>271</ele>
        <time>2022-06-08 09:09:42</time>
      </trkpt>
      <trkpt lat="43.17826" lon="-0.59677">
        <ele>270.8</ele>
        <time>2022-06-08 09:09:43</time>
      </trkpt>
      <trkpt lat="43.17822" lon="-0.59672">
        <ele>270.6</ele>
        <time>2022-06-08 09:09:44</time>
      </trkpt>
      <trkpt lat="43.17817" lon="-0.59667">
        <ele>270.4</ele>
        <time>2022-06-08 09:09:45</time>
      </trkpt>
      <trkpt lat="43.17812" lon="-0.59663">
        <ele>270.4</ele>
        <time>2022-06-08 09:09:46</time>
      </trkpt>
      <trkpt lat="43.17807" lon="-0.59657">
        <ele>270</ele>
        <time>2022-06-08 09:09:47</time>
      </trkpt>
      <trkpt lat="43.17802" lon="-0.59652">
        <ele>269.4</ele>
        <time>2022-06-08 09:09:48</time>
      </trkpt>
      <trkpt lat="43.17796" lon="-0.59647">
        <ele>269.2</ele>
        <time>2022-06-08 09:09:49</time>
      </trkpt>
      <trkpt lat="43.17791" lon="-0.59641">
        <ele>269.2</ele>
        <time>2022-06-08 09:09:50</time>
      </trkpt>
      <trkpt lat="43.17787" lon="-0.59635">
        <ele>268.8</ele>
        <time>2022-06-08 09:09:51</time>
      </trkpt>
      <trkpt lat="43.17782" lon="-0.59629">
        <ele>268.6</ele>
        <time>2022-06-08 09:09:52</time>
      </trkpt>
      <trkpt lat="43.17776" lon="-0.59622">
        <ele>268.2</ele>
        <time>2022-06-08 09:09:53</time>
      </trkpt>
      <trkpt lat="43.17769" lon="-0.59615">
        <ele>268</ele>
        <time>2022-06-08 09:09:54</time>
      </trkpt>
      <trkpt lat="43.17763" lon="-0.59609">
        <ele>267.6</ele>
        <time>2022-06-08 09:09:55</time>
      </trkpt>
      <trkpt lat="43.17756" lon="-0.59602">
        <ele>267.4</ele>
        <time>2022-06-08 09:09:56</time>
      </trkpt>
      <trkpt lat="43.17751" lon="-0.59598">
        <ele>267.2</ele>
        <time>2022-06-08 09:09:57</time>
      </trkpt>
      <trkpt lat="43.17744" lon="-0.59593">
        <ele>267</ele>
        <time>2022-06-08 09:09:58</time>
      </trkpt>
      <trkpt lat="43.17737" lon="-0.59588">
        <ele>266.8</ele>
        <time>2022-06-08 09:09:59</time>
      </trkpt>
      <trkpt lat="43.1773" lon="-0.59584">
        <ele>266.4</ele>
        <time>2022-06-08 09:10:00</time>
      </trkpt>
      <trkpt lat="43.17723" lon="-0.59579">
        <ele>266</ele>
        <time>2022-06-08 09:10:01</time>
      </trkpt>
      <trkpt lat="43.17716" lon="-0.59576">
        <ele>265.6</ele>
        <time>2022-06-08 09:10:02</time>
      </trkpt>
      <trkpt lat="43.17709" lon="-0.59572">
        <ele>265.4</ele>
        <time>2022-06-08 09:10:03</time>
      </trkpt>
      <trkpt lat="43.17703" lon="-0.5957">
        <ele>265.2</ele>
        <time>2022-06-08 09:10:04</time>
      </trkpt>
      <trkpt lat="43.17698" lon="-0.59568">
        <ele>265.2</ele>
        <time>2022-06-08 09:10:05</time>
      </trkpt>
      <trkpt lat="43.17692" lon="-0.59566">
        <ele>265.2</ele>
        <time>2022-06-08 09:10:06</time>
      </trkpt>
      <trkpt lat="43.17686" lon="-0.59564">
        <ele>265.2</ele>
        <time>2022-06-08 09:10:07</time>
      </trkpt>
      <trkpt lat="43.1768" lon="-0.59561">
        <ele>265</ele>
        <time>2022-06-08 09:10:08</time>
      </trkpt>
      <trkpt lat="43.17674" lon="-0.59557">
        <ele>265</ele>
        <time>2022-06-08 09:10:09</time>
      </trkpt>
      <trkpt lat="43.17667" lon="-0.59554">
        <ele>265</ele>
        <time>2022-06-08 09:10:10</time>
      </trkpt>
      <trkpt lat="43.17661" lon="-0.5955">
        <ele>265</ele>
        <time>2022-06-08 09:10:11</time>
      </trkpt>
      <trkpt lat="43.17654" lon="-0.59547">
        <ele>265</ele>
        <time>2022-06-08 09:10:12</time>
      </trkpt>
      <trkpt lat="43.17648" lon="-0.59543">
        <ele>265.2</ele>
        <time>2022-06-08 09:10:13</time>
      </trkpt>
      <trkpt lat="43.17643" lon="-0.5954">
        <ele>265.2</ele>
        <time>2022-06-08 09:10:14</time>
      </trkpt>
      <trkpt lat="43.17636" lon="-0.59537">
        <ele>265.2</ele>
        <time>2022-06-08 09:10:15</time>
      </trkpt>
      <trkpt lat="43.1763" lon="-0.59534">
        <ele>265.2</ele>
        <time>2022-06-08 09:10:16</time>
      </trkpt>
      <trkpt lat="43.17624" lon="-0.59531">
        <ele>265.4</ele>
        <time>2022-06-08 09:10:17</time>
      </trkpt>
      <trkpt lat="43.17619" lon="-0.59529">
        <ele>265.4</ele>
        <time>2022-06-08 09:10:18</time>
      </trkpt>
      <trkpt lat="43.17614" lon="-0.59526">
        <ele>265.6</ele>
        <time>2022-06-08 09:10:19</time>
      </trkpt>
      <trkpt lat="43.17608" lon="-0.59522">
        <ele>265.6</ele>
        <time>2022-06-08 09:10:20</time>
      </trkpt>
      <trkpt lat="43.17603" lon="-0.59518">
        <ele>265.8</ele>
        <time>2022-06-08 09:10:21</time>
      </trkpt>
      <trkpt lat="43.17598" lon="-0.59514">
        <ele>266</ele>
        <time>2022-06-08 09:10:22</time>
      </trkpt>
      <trkpt lat="43.17593" lon="-0.5951">
        <ele>266.2</ele>
        <time>2022-06-08 09:10:23</time>
      </trkpt>
      <trkpt lat="43.17588" lon="-0.59506">
        <ele>266.2</ele>
        <time>2022-06-08 09:10:24</time>
      </trkpt>
      <trkpt lat="43.17583" lon="-0.59501">
        <ele>266.6</ele>
        <time>2022-06-08 09:10:25</time>
      </trkpt>
      <trkpt lat="43.17579" lon="-0.59496">
        <ele>266.8</ele>
        <time>2022-06-08 09:10:26</time>
      </trkpt>
      <trkpt lat="43.17575" lon="-0.5949">
        <ele>266.8</ele>
        <time>2022-06-08 09:10:27</time>
      </trkpt>
      <trkpt lat="43.17571" lon="-0.59485">
        <ele>267</ele>
        <time>2022-06-08 09:10:28</time>
      </trkpt>
      <trkpt lat="43.17568" lon="-0.5948">
        <ele>267.4</ele>
        <time>2022-06-08 09:10:29</time>
      </trkpt>
      <trkpt lat="43.17564" lon="-0.59474">
        <ele>267.6</ele>
        <time>2022-06-08 09:10:30</time>
      </trkpt>
      <trkpt lat="43.1756" lon="-0.5947">
        <ele>268.2</ele>
        <time>2022-06-08 09:10:31</time>
      </trkpt>
      <trkpt lat="43.17557" lon="-0.59465">
        <ele>268.6</ele>
        <time>2022-06-08 09:10:32</time>
      </trkpt>
      <trkpt lat="43.17554" lon="-0.5946">
        <ele>269</ele>
        <time>2022-06-08 09:10:33</time>
      </trkpt>
      <trkpt lat="43.17551" lon="-0.59456">
        <ele>269.6</ele>
        <time>2022-06-08 09:10:34</time>
      </trkpt>
      <trkpt lat="43.17548" lon="-0.59452">
        <ele>269.6</ele>
        <time>2022-06-08 09:10:35</time>
      </trkpt>
      <trkpt lat="43.17545" lon="-0.59448">
        <ele>269.8</ele>
        <time>2022-06-08 09:10:36</time>
      </trkpt>
      <trkpt lat="43.17543" lon="-0.59445">
        <ele>270.2</ele>
        <time>2022-06-08 09:10:37</time>
      </trkpt>
      <trkpt lat="43.1754" lon="-0.59441">
        <ele>270.6</ele>
        <time>2022-06-08 09:10:38</time>
      </trkpt>
      <trkpt lat="43.17537" lon="-0.59437">
        <ele>271</ele>
        <time>2022-06-08 09:10:39</time>
      </trkpt>
      <trkpt lat="43.17534" lon="-0.59432">
        <ele>271.2</ele>
        <time>2022-06-08 09:10:40</time>
      </trkpt>
      <trkpt lat="43.17531" lon="-0.59428">
        <ele>271.4</ele>
        <time>2022-06-08 09:10:41</time>
      </trkpt>
      <trkpt lat="43.17527" lon="-0.59423">
        <ele>271.6</ele>
        <time>2022-06-08 09:10:42</time>
      </trkpt>
      <trkpt lat="43.17523" lon="-0.59417">
        <ele>271.6</ele>
        <time>2022-06-08 09:10:43</time>
      </trkpt>
      <trkpt lat="43.17519" lon="-0.59412">
        <ele>271.6</ele>
        <time>2022-06-08 09:10:44</time>
      </trkpt>
      <trkpt lat="43.17516" lon="-0.59406">
        <ele>271.6</ele>
        <time>2022-06-08 09:10:45</time>
      </trkpt>
      <trkpt lat="43.17512" lon="-0.594">
        <ele>271.8</ele>
        <time>2022-06-08 09:10:46</time>
      </trkpt>
      <trkpt lat="43.17508" lon="-0.59395">
        <ele>271.8</ele>
        <time>2022-06-08 09:10:47</time>
      </trkpt>
      <trkpt lat="43.17504" lon="-0.5939">
        <ele>271.8</ele>
        <time>2022-06-08 09:10:48</time>
      </trkpt>
      <trkpt lat="43.175" lon="-0.59386">
        <ele>271.8</ele>
        <time>2022-06-08 09:10:49</time>
      </trkpt>
      <trkpt lat="43.17497" lon="-0.59382">
        <ele>271.8</ele>
        <time>2022-06-08 09:10:50</time>
      </trkpt>
      <trkpt lat="43.17493" lon="-0.59378">
        <ele>271.8</ele>
        <time>2022-06-08 09:10:51</time>
      </trkpt>
      <trkpt lat="43.1749" lon="-0.59375">
        <ele>271.8</ele>
        <time>2022-06-08 09:10:52</time>
      </trkpt>
      <trkpt lat="43.17487" lon="-0.59373">
        <ele>271.8</ele>
        <time>2022-06-08 09:10:53</time>
      </trkpt>
      <trkpt lat="43.17484" lon="-0.5937">
        <ele>271.8</ele>
        <time>2022-06-08 09:10:54</time>
      </trkpt>
      <trkpt lat="43.17481" lon="-0.59368">
        <ele>272</ele>
        <time>2022-06-08 09:10:55</time>
      </trkpt>
      <trkpt lat="43.17477" lon="-0.59365">
        <ele>272.2</ele>
        <time>2022-06-08 09:10:56</time>
      </trkpt>
      <trkpt lat="43.17474" lon="-0.59362">
        <ele>272.4</ele>
        <time>2022-06-08 09:10:57</time>
      </trkpt>
      <trkpt lat="43.1747" lon="-0.59359">
        <ele>272.4</ele>
        <time>2022-06-08 09:10:58</time>
      </trkpt>
      <trkpt lat="43.17466" lon="-0.59355">
        <ele>272.4</ele>
        <time>2022-06-08 09:10:59</time>
      </trkpt>
      <trkpt lat="43.17461" lon="-0.59352">
        <ele>272.6</ele>
        <time>2022-06-08 09:11:00</time>
      </trkpt>
      <trkpt lat="43.17457" lon="-0.59349">
        <ele>272.6</ele>
        <time>2022-06-08 09:11:01</time>
      </trkpt>
      <trkpt lat="43.17453" lon="-0.59347">
        <ele>272.8</ele>
        <time>2022-06-08 09:11:02</time>
      </trkpt>
      <trkpt lat="43.17449" lon="-0.59343">
        <ele>273</ele>
        <time>2022-06-08 09:11:03</time>
      </trkpt>
      <trkpt lat="43.17445" lon="-0.5934">
        <ele>273</ele>
        <time>2022-06-08 09:11:04</time>
      </trkpt>
      <trkpt lat="43.17441" lon="-0.59337">
        <ele>273</ele>
        <time>2022-06-08 09:11:05</time>
      </trkpt>
      <trkpt lat="43.17438" lon="-0.59335">
        <ele>273.2</ele>
        <time>2022-06-08 09:11:06</time>
      </trkpt>
      <trkpt lat="43.17434" lon="-0.59333">
        <ele>273.2</ele>
        <time>2022-06-08 09:11:07</time>
      </trkpt>
      <trkpt lat="43.17431" lon="-0.59332">
        <ele>273.6</ele>
        <time>2022-06-08 09:11:08</time>
      </trkpt>
      <trkpt lat="43.17428" lon="-0.59331">
        <ele>274</ele>
        <time>2022-06-08 09:11:09</time>
      </trkpt>
      <trkpt lat="43.17425" lon="-0.59331">
        <ele>274.4</ele>
        <time>2022-06-08 09:11:10</time>
      </trkpt>
      <trkpt lat="43.17421" lon="-0.5933">
        <ele>274.4</ele>
        <time>2022-06-08 09:11:11</time>
      </trkpt>
      <trkpt lat="43.17417" lon="-0.5933">
        <ele>275</ele>
        <time>2022-06-08 09:11:12</time>
      </trkpt>
      <trkpt lat="43.17413" lon="-0.59329">
        <ele>275.2</ele>
        <time>2022-06-08 09:11:13</time>
      </trkpt>
      <trkpt lat="43.1741" lon="-0.59328">
        <ele>275.6</ele>
        <time>2022-06-08 09:11:14</time>
      </trkpt>
      <trkpt lat="43.17406" lon="-0.59328">
        <ele>276</ele>
        <time>2022-06-08 09:11:15</time>
      </trkpt>
      <trkpt lat="43.17402" lon="-0.59329">
        <ele>276</ele>
        <time>2022-06-08 09:11:16</time>
      </trkpt>
      <trkpt lat="43.17398" lon="-0.59329">
        <ele>276.2</ele>
        <time>2022-06-08 09:11:17</time>
      </trkpt>
      <trkpt lat="43.17394" lon="-0.5933">
        <ele>276.2</ele>
        <time>2022-06-08 09:11:18</time>
      </trkpt>
      <trkpt lat="43.1739" lon="-0.5933">
        <ele>276.2</ele>
        <time>2022-06-08 09:11:19</time>
      </trkpt>
      <trkpt lat="43.17385" lon="-0.59327">
        <ele>276.2</ele>
        <time>2022-06-08 09:11:20</time>
      </trkpt>
      <trkpt lat="43.17378" lon="-0.59324">
        <ele>276.2</ele>
        <time>2022-06-08 09:11:21</time>
      </trkpt>
      <trkpt lat="43.17374" lon="-0.59321">
        <ele>276.2</ele>
        <time>2022-06-08 09:11:22</time>
      </trkpt>
      <trkpt lat="43.1737" lon="-0.59317">
        <ele>276.2</ele>
        <time>2022-06-08 09:11:23</time>
      </trkpt>
      <trkpt lat="43.17365" lon="-0.59313">
        <ele>276.2</ele>
        <time>2022-06-08 09:11:24</time>
      </trkpt>
      <trkpt lat="43.17361" lon="-0.5931">
        <ele>276.2</ele>
        <time>2022-06-08 09:11:25</time>
      </trkpt>
      <trkpt lat="43.17356" lon="-0.59306">
        <ele>276.2</ele>
        <time>2022-06-08 09:11:26</time>
      </trkpt>
      <trkpt lat="43.17352" lon="-0.59303">
        <ele>276.2</ele>
        <time>2022-06-08 09:11:27</time>
      </trkpt>
      <trkpt lat="43.17349" lon="-0.59298">
        <ele>276.4</ele>
        <time>2022-06-08 09:11:28</time>
      </trkpt>
      <trkpt lat="43.17346" lon="-0.59294">
        <ele>276.4</ele>
        <time>2022-06-08 09:11:29</time>
      </trkpt>
      <trkpt lat="43.17343" lon="-0.59289">
        <ele>276.6</ele>
        <time>2022-06-08 09:11:30</time>
      </trkpt>
      <trkpt lat="43.17338" lon="-0.59285">
        <ele>276.6</ele>
        <time>2022-06-08 09:11:31</time>
      </trkpt>
      <trkpt lat="43.17334" lon="-0.59281">
        <ele>277.2</ele>
        <time>2022-06-08 09:11:32</time>
      </trkpt>
      <trkpt lat="43.17331" lon="-0.59278">
        <ele>277.4</ele>
        <time>2022-06-08 09:11:33</time>
      </trkpt>
      <trkpt lat="43.1733" lon="-0.59275">
        <ele>277.4</ele>
        <time>2022-06-08 09:11:34</time>
      </trkpt>
      <trkpt lat="43.17329" lon="-0.59271">
        <ele>277.8</ele>
        <time>2022-06-08 09:11:35</time>
      </trkpt>
      <trkpt lat="43.17327" lon="-0.59266">
        <ele>277.8</ele>
        <time>2022-06-08 09:11:36</time>
      </trkpt>
      <trkpt lat="43.17325" lon="-0.59261">
        <ele>278</ele>
        <time>2022-06-08 09:11:37</time>
      </trkpt>
      <trkpt lat="43.17324" lon="-0.59256">
        <ele>278.4</ele>
        <time>2022-06-08 09:11:38</time>
      </trkpt>
      <trkpt lat="43.17322" lon="-0.5925">
        <ele>278.6</ele>
        <time>2022-06-08 09:11:39</time>
      </trkpt>
      <trkpt lat="43.17321" lon="-0.59245">
        <ele>279</ele>
        <time>2022-06-08 09:11:40</time>
      </trkpt>
      <trkpt lat="43.17319" lon="-0.59239">
        <ele>279.2</ele>
        <time>2022-06-08 09:11:41</time>
      </trkpt>
      <trkpt lat="43.17318" lon="-0.59232">
        <ele>279.6</ele>
        <time>2022-06-08 09:11:42</time>
      </trkpt>
      <trkpt lat="43.17316" lon="-0.59227">
        <ele>279.8</ele>
        <time>2022-06-08 09:11:43</time>
      </trkpt>
      <trkpt lat="43.17315" lon="-0.59221">
        <ele>280</ele>
        <time>2022-06-08 09:11:44</time>
      </trkpt>
      <trkpt lat="43.17314" lon="-0.59217">
        <ele>280.2</ele>
        <time>2022-06-08 09:11:45</time>
      </trkpt>
      <trkpt lat="43.17313" lon="-0.59212">
        <ele>280.2</ele>
        <time>2022-06-08 09:11:46</time>
      </trkpt>
      <trkpt lat="43.17312" lon="-0.59208">
        <ele>280.6</ele>
        <time>2022-06-08 09:11:47</time>
      </trkpt>
      <trkpt lat="43.17312" lon="-0.59204">
        <ele>280.8</ele>
        <time>2022-06-08 09:11:48</time>
      </trkpt>
      <trkpt lat="43.17311" lon="-0.59199">
        <ele>281</ele>
        <time>2022-06-08 09:11:49</time>
      </trkpt>
      <trkpt lat="43.17311" lon="-0.59194">
        <ele>281.2</ele>
        <time>2022-06-08 09:11:50</time>
      </trkpt>
      <trkpt lat="43.1731" lon="-0.5919">
        <ele>281.6</ele>
        <time>2022-06-08 09:11:51</time>
      </trkpt>
      <trkpt lat="43.17309" lon="-0.59186">
        <ele>281.8</ele>
        <time>2022-06-08 09:11:52</time>
      </trkpt>
      <trkpt lat="43.17307" lon="-0.59182">
        <ele>282.4</ele>
        <time>2022-06-08 09:11:53</time>
      </trkpt>
      <trkpt lat="43.17305" lon="-0.59178">
        <ele>282.6</ele>
        <time>2022-06-08 09:11:54</time>
      </trkpt>
      <trkpt lat="43.17303" lon="-0.59175">
        <ele>283.2</ele>
        <time>2022-06-08 09:11:55</time>
      </trkpt>
      <trkpt lat="43.17301" lon="-0.5917">
        <ele>283.4</ele>
        <time>2022-06-08 09:11:56</time>
      </trkpt>
      <trkpt lat="43.17299" lon="-0.59167">
        <ele>283.8</ele>
        <time>2022-06-08 09:11:57</time>
      </trkpt>
      <trkpt lat="43.17297" lon="-0.59164">
        <ele>284.2</ele>
        <time>2022-06-08 09:11:58</time>
      </trkpt>
      <trkpt lat="43.17295" lon="-0.59162">
        <ele>284.2</ele>
        <time>2022-06-08 09:11:59</time>
      </trkpt>
      <trkpt lat="43.17292" lon="-0.59159">
        <ele>284.6</ele>
        <time>2022-06-08 09:12:00</time>
      </trkpt>
      <trkpt lat="43.17288" lon="-0.59156">
        <ele>284.6</ele>
        <time>2022-06-08 09:12:01</time>
      </trkpt>
      <trkpt lat="43.17284" lon="-0.5915">
        <ele>284.8</ele>
        <time>2022-06-08 09:12:02</time>
      </trkpt>
      <trkpt lat="43.17279" lon="-0.59144">
        <ele>284.8</ele>
        <time>2022-06-08 09:12:03</time>
      </trkpt>
      <trkpt lat="43.17276" lon="-0.5914">
        <ele>285</ele>
        <time>2022-06-08 09:12:04</time>
      </trkpt>
      <trkpt lat="43.17272" lon="-0.59135">
        <ele>285</ele>
        <time>2022-06-08 09:12:05</time>
      </trkpt>
      <trkpt lat="43.17269" lon="-0.59131">
        <ele>285.2</ele>
        <time>2022-06-08 09:12:06</time>
      </trkpt>
      <trkpt lat="43.17265" lon="-0.59127">
        <ele>285.2</ele>
        <time>2022-06-08 09:12:07</time>
      </trkpt>
      <trkpt lat="43.17261" lon="-0.59121">
        <ele>285</ele>
        <time>2022-06-08 09:12:08</time>
      </trkpt>
      <trkpt lat="43.17257" lon="-0.59116">
        <ele>285</ele>
        <time>2022-06-08 09:12:09</time>
      </trkpt>
      <trkpt lat="43.17254" lon="-0.5911">
        <ele>284.8</ele>
        <time>2022-06-08 09:12:10</time>
      </trkpt>
      <trkpt lat="43.17251" lon="-0.59105">
        <ele>284.8</ele>
        <time>2022-06-08 09:12:11</time>
      </trkpt>
      <trkpt lat="43.17249" lon="-0.59101">
        <ele>284.8</ele>
        <time>2022-06-08 09:12:12</time>
      </trkpt>
      <trkpt lat="43.17245" lon="-0.59096">
        <ele>284.8</ele>
        <time>2022-06-08 09:12:13</time>
      </trkpt>
      <trkpt lat="43.17241" lon="-0.59091">
        <ele>285</ele>
        <time>2022-06-08 09:12:14</time>
      </trkpt>
      <trkpt lat="43.17238" lon="-0.59088">
        <ele>285.4</ele>
        <time>2022-06-08 09:12:15</time>
      </trkpt>
      <trkpt lat="43.17235" lon="-0.59084">
        <ele>285.4</ele>
        <time>2022-06-08 09:12:16</time>
      </trkpt>
      <trkpt lat="43.17231" lon="-0.5908">
        <ele>285.8</ele>
        <time>2022-06-08 09:12:17</time>
      </trkpt>
      <trkpt lat="43.17227" lon="-0.59077">
        <ele>285.8</ele>
        <time>2022-06-08 09:12:18</time>
      </trkpt>
      <trkpt lat="43.17222" lon="-0.59076">
        <ele>286</ele>
        <time>2022-06-08 09:12:19</time>
      </trkpt>
      <trkpt lat="43.17218" lon="-0.59076">
        <ele>286.2</ele>
        <time>2022-06-08 09:12:20</time>
      </trkpt>
      <trkpt lat="43.17215" lon="-0.59077">
        <ele>286.2</ele>
        <time>2022-06-08 09:12:21</time>
      </trkpt>
      <trkpt lat="43.17212" lon="-0.59076">
        <ele>286.4</ele>
        <time>2022-06-08 09:12:22</time>
      </trkpt>
      <trkpt lat="43.17207" lon="-0.59077">
        <ele>286.6</ele>
        <time>2022-06-08 09:12:23</time>
      </trkpt>
      <trkpt lat="43.17203" lon="-0.59079">
        <ele>286.8</ele>
        <time>2022-06-08 09:12:24</time>
      </trkpt>
      <trkpt lat="43.17199" lon="-0.5908">
        <ele>286.8</ele>
        <time>2022-06-08 09:12:25</time>
      </trkpt>
      <trkpt lat="43.17194" lon="-0.59081">
        <ele>287</ele>
        <time>2022-06-08 09:12:26</time>
      </trkpt>
      <trkpt lat="43.17188" lon="-0.59082">
        <ele>287</ele>
        <time>2022-06-08 09:12:27</time>
      </trkpt>
      <trkpt lat="43.17184" lon="-0.59083">
        <ele>287.2</ele>
        <time>2022-06-08 09:12:28</time>
      </trkpt>
      <trkpt lat="43.17179" lon="-0.59083">
        <ele>287.2</ele>
        <time>2022-06-08 09:12:29</time>
      </trkpt>
      <trkpt lat="43.17174" lon="-0.59084">
        <ele>287.2</ele>
        <time>2022-06-08 09:12:30</time>
      </trkpt>
      <trkpt lat="43.17168" lon="-0.59085">
        <ele>287.4</ele>
        <time>2022-06-08 09:12:31</time>
      </trkpt>
      <trkpt lat="43.17164" lon="-0.59086">
        <ele>287.6</ele>
        <time>2022-06-08 09:12:32</time>
      </trkpt>
      <trkpt lat="43.17159" lon="-0.59085">
        <ele>287.6</ele>
        <time>2022-06-08 09:12:33</time>
      </trkpt>
      <trkpt lat="43.17154" lon="-0.59085">
        <ele>288</ele>
        <time>2022-06-08 09:12:34</time>
      </trkpt>
      <trkpt lat="43.17149" lon="-0.59085">
        <ele>288</ele>
        <time>2022-06-08 09:12:35</time>
      </trkpt>
      <trkpt lat="43.17146" lon="-0.59084">
        <ele>288</ele>
        <time>2022-06-08 09:12:36</time>
      </trkpt>
      <trkpt lat="43.17143" lon="-0.59081">
        <ele>288</ele>
        <time>2022-06-08 09:12:37</time>
      </trkpt>
      <trkpt lat="43.1714" lon="-0.59079">
        <ele>288.2</ele>
        <time>2022-06-08 09:12:38</time>
      </trkpt>
      <trkpt lat="43.17137" lon="-0.59076">
        <ele>288.4</ele>
        <time>2022-06-08 09:12:39</time>
      </trkpt>
      <trkpt lat="43.17135" lon="-0.59073">
        <ele>288.4</ele>
        <time>2022-06-08 09:12:40</time>
      </trkpt>
      <trkpt lat="43.17133" lon="-0.59069">
        <ele>288.6</ele>
        <time>2022-06-08 09:12:41</time>
      </trkpt>
      <trkpt lat="43.17131" lon="-0.59066">
        <ele>288.8</ele>
        <time>2022-06-08 09:12:42</time>
      </trkpt>
      <trkpt lat="43.17128" lon="-0.59061">
        <ele>289.2</ele>
        <time>2022-06-08 09:12:43</time>
      </trkpt>
      <trkpt lat="43.17125" lon="-0.59056">
        <ele>289.2</ele>
        <time>2022-06-08 09:12:44</time>
      </trkpt>
      <trkpt lat="43.17122" lon="-0.59051">
        <ele>289.6</ele>
        <time>2022-06-08 09:12:45</time>
      </trkpt>
      <trkpt lat="43.1712" lon="-0.59047">
        <ele>289.6</ele>
        <time>2022-06-08 09:12:46</time>
      </trkpt>
      <trkpt lat="43.17118" lon="-0.59044">
        <ele>290</ele>
        <time>2022-06-08 09:12:47</time>
      </trkpt>
      <trkpt lat="43.17116" lon="-0.59041">
        <ele>290.2</ele>
        <time>2022-06-08 09:12:48</time>
      </trkpt>
      <trkpt lat="43.17115" lon="-0.59039">
        <ele>290.8</ele>
        <time>2022-06-08 09:12:49</time>
      </trkpt>
      <trkpt lat="43.17113" lon="-0.59035">
        <ele>291.2</ele>
        <time>2022-06-08 09:12:50</time>
      </trkpt>
      <trkpt lat="43.17111" lon="-0.59032">
        <ele>291.6</ele>
        <time>2022-06-08 09:12:51</time>
      </trkpt>
      <trkpt lat="43.1711" lon="-0.59029">
        <ele>292</ele>
        <time>2022-06-08 09:12:52</time>
      </trkpt>
      <trkpt lat="43.17107" lon="-0.59025">
        <ele>292.2</ele>
        <time>2022-06-08 09:12:53</time>
      </trkpt>
      <trkpt lat="43.17105" lon="-0.5902">
        <ele>292.2</ele>
        <time>2022-06-08 09:12:54</time>
      </trkpt>
      <trkpt lat="43.17102" lon="-0.59016">
        <ele>292.4</ele>
        <time>2022-06-08 09:12:55</time>
      </trkpt>
      <trkpt lat="43.171" lon="-0.59011">
        <ele>292.6</ele>
        <time>2022-06-08 09:12:56</time>
      </trkpt>
      <trkpt lat="43.17097" lon="-0.59006">
        <ele>293.2</ele>
        <time>2022-06-08 09:12:57</time>
      </trkpt>
      <trkpt lat="43.17094" lon="-0.59001">
        <ele>293.2</ele>
        <time>2022-06-08 09:12:58</time>
      </trkpt>
      <trkpt lat="43.17092" lon="-0.58997">
        <ele>293.4</ele>
        <time>2022-06-08 09:12:59</time>
      </trkpt>
      <trkpt lat="43.17089" lon="-0.58993">
        <ele>293.8</ele>
        <time>2022-06-08 09:13:00</time>
      </trkpt>
      <trkpt lat="43.17086" lon="-0.58989">
        <ele>294</ele>
        <time>2022-06-08 09:13:01</time>
      </trkpt>
      <trkpt lat="43.17085" lon="-0.58987">
        <ele>294.4</ele>
        <time>2022-06-08 09:13:02</time>
      </trkpt>
      <trkpt lat="43.17083" lon="-0.58983">
        <ele>294.4</ele>
        <time>2022-06-08 09:13:03</time>
      </trkpt>
      <trkpt lat="43.17081" lon="-0.5898">
        <ele>295</ele>
        <time>2022-06-08 09:13:04</time>
      </trkpt>
      <trkpt lat="43.17079" lon="-0.58977">
        <ele>295.2</ele>
        <time>2022-06-08 09:13:05</time>
      </trkpt>
      <trkpt lat="43.17077" lon="-0.58974">
        <ele>295.8</ele>
        <time>2022-06-08 09:13:06</time>
      </trkpt>
      <trkpt lat="43.17076" lon="-0.58972">
        <ele>296.6</ele>
        <time>2022-06-08 09:13:07</time>
      </trkpt>
      <trkpt lat="43.17074" lon="-0.58969">
        <ele>296.8</ele>
        <time>2022-06-08 09:13:08</time>
      </trkpt>
      <trkpt lat="43.17071" lon="-0.58964">
        <ele>297.2</ele>
        <time>2022-06-08 09:13:09</time>
      </trkpt>
      <trkpt lat="43.17068" lon="-0.5896">
        <ele>297.4</ele>
        <time>2022-06-08 09:13:10</time>
      </trkpt>
      <trkpt lat="43.17066" lon="-0.58956">
        <ele>298</ele>
        <time>2022-06-08 09:13:11</time>
      </trkpt>
      <trkpt lat="43.17064" lon="-0.58953">
        <ele>298.2</ele>
        <time>2022-06-08 09:13:12</time>
      </trkpt>
      <trkpt lat="43.17062" lon="-0.58949">
        <ele>298.4</ele>
        <time>2022-06-08 09:13:13</time>
      </trkpt>
      <trkpt lat="43.1706" lon="-0.58946">
        <ele>298.6</ele>
        <time>2022-06-08 09:13:14</time>
      </trkpt>
      <trkpt lat="43.17058" lon="-0.58942">
        <ele>299</ele>
        <time>2022-06-08 09:13:15</time>
      </trkpt>
      <trkpt lat="43.17055" lon="-0.58938">
        <ele>299</ele>
        <time>2022-06-08 09:13:16</time>
      </trkpt>
      <trkpt lat="43.17053" lon="-0.58933">
        <ele>299.2</ele>
        <time>2022-06-08 09:13:17</time>
      </trkpt>
      <trkpt lat="43.17051" lon="-0.58929">
        <ele>299.2</ele>
        <time>2022-06-08 09:13:18</time>
      </trkpt>
      <trkpt lat="43.17048" lon="-0.58924">
        <ele>299.6</ele>
        <time>2022-06-08 09:13:19</time>
      </trkpt>
      <trkpt lat="43.17045" lon="-0.58919">
        <ele>299.8</ele>
        <time>2022-06-08 09:13:20</time>
      </trkpt>
      <trkpt lat="43.17043" lon="-0.58914">
        <ele>300</ele>
        <time>2022-06-08 09:13:21</time>
      </trkpt>
      <trkpt lat="43.17041" lon="-0.58909">
        <ele>300</ele>
        <time>2022-06-08 09:13:22</time>
      </trkpt>
      <trkpt lat="43.17039" lon="-0.58904">
        <ele>300.2</ele>
        <time>2022-06-08 09:13:23</time>
      </trkpt>
      <trkpt lat="43.17037" lon="-0.58899">
        <ele>300.2</ele>
        <time>2022-06-08 09:13:24</time>
      </trkpt>
      <trkpt lat="43.17034" lon="-0.58894">
        <ele>300.4</ele>
        <time>2022-06-08 09:13:25</time>
      </trkpt>
      <trkpt lat="43.17032" lon="-0.58889">
        <ele>300.6</ele>
        <time>2022-06-08 09:13:26</time>
      </trkpt>
      <trkpt lat="43.1703" lon="-0.58884">
        <ele>300.8</ele>
        <time>2022-06-08 09:13:27</time>
      </trkpt>
      <trkpt lat="43.17028" lon="-0.58879">
        <ele>300.8</ele>
        <time>2022-06-08 09:13:28</time>
      </trkpt>
      <trkpt lat="43.17025" lon="-0.58874">
        <ele>301</ele>
        <time>2022-06-08 09:13:29</time>
      </trkpt>
      <trkpt lat="43.17023" lon="-0.58869">
        <ele>301</ele>
        <time>2022-06-08 09:13:30</time>
      </trkpt>
      <trkpt lat="43.17021" lon="-0.58864">
        <ele>301</ele>
        <time>2022-06-08 09:13:31</time>
      </trkpt>
      <trkpt lat="43.17019" lon="-0.5886">
        <ele>301.2</ele>
        <time>2022-06-08 09:13:32</time>
      </trkpt>
      <trkpt lat="43.17017" lon="-0.58855">
        <ele>301.2</ele>
        <time>2022-06-08 09:13:33</time>
      </trkpt>
      <trkpt lat="43.17015" lon="-0.58851">
        <ele>301.4</ele>
        <time>2022-06-08 09:13:34</time>
      </trkpt>
      <trkpt lat="43.17013" lon="-0.58847">
        <ele>301.8</ele>
        <time>2022-06-08 09:13:35</time>
      </trkpt>
      <trkpt lat="43.17011" lon="-0.58842">
        <ele>302</ele>
        <time>2022-06-08 09:13:36</time>
      </trkpt>
      <trkpt lat="43.17009" lon="-0.58838">
        <ele>302.4</ele>
        <time>2022-06-08 09:13:37</time>
      </trkpt>
      <trkpt lat="43.17007" lon="-0.58834">
        <ele>302.4</ele>
        <time>2022-06-08 09:13:38</time>
      </trkpt>
      <trkpt lat="43.17006" lon="-0.58831">
        <ele>302.8</ele>
        <time>2022-06-08 09:13:39</time>
      </trkpt>
      <trkpt lat="43.17004" lon="-0.58827">
        <ele>303</ele>
        <time>2022-06-08 09:13:40</time>
      </trkpt>
      <trkpt lat="43.17003" lon="-0.58823">
        <ele>303.2</ele>
        <time>2022-06-08 09:13:41</time>
      </trkpt>
      <trkpt lat="43.17001" lon="-0.5882">
        <ele>303.4</ele>
        <time>2022-06-08 09:13:42</time>
      </trkpt>
      <trkpt lat="43.16999" lon="-0.58816">
        <ele>303.8</ele>
        <time>2022-06-08 09:13:43</time>
      </trkpt>
      <trkpt lat="43.16998" lon="-0.58813">
        <ele>304</ele>
        <time>2022-06-08 09:13:44</time>
      </trkpt>
      <trkpt lat="43.16997" lon="-0.5881">
        <ele>304.6</ele>
        <time>2022-06-08 09:13:45</time>
      </trkpt>
      <trkpt lat="43.16995" lon="-0.58807">
        <ele>305</ele>
        <time>2022-06-08 09:13:46</time>
      </trkpt>
      <trkpt lat="43.16993" lon="-0.58802">
        <ele>305.6</ele>
        <time>2022-06-08 09:13:47</time>
      </trkpt>
      <trkpt lat="43.16992" lon="-0.58798">
        <ele>306</ele>
        <time>2022-06-08 09:13:48</time>
      </trkpt>
      <trkpt lat="43.1699" lon="-0.58794">
        <ele>306.2</ele>
        <time>2022-06-08 09:13:49</time>
      </trkpt>
      <trkpt lat="43.16988" lon="-0.5879">
        <ele>306.6</ele>
        <time>2022-06-08 09:13:50</time>
      </trkpt>
      <trkpt lat="43.16986" lon="-0.58786">
        <ele>306.6</ele>
        <time>2022-06-08 09:13:51</time>
      </trkpt>
      <trkpt lat="43.16985" lon="-0.58782">
        <ele>307.2</ele>
        <time>2022-06-08 09:13:52</time>
      </trkpt>
      <trkpt lat="43.16983" lon="-0.58778">
        <ele>307.4</ele>
        <time>2022-06-08 09:13:53</time>
      </trkpt>
      <trkpt lat="43.16982" lon="-0.58774">
        <ele>308</ele>
        <time>2022-06-08 09:13:54</time>
      </trkpt>
      <trkpt lat="43.1698" lon="-0.5877">
        <ele>308.2</ele>
        <time>2022-06-08 09:13:55</time>
      </trkpt>
      <trkpt lat="43.16979" lon="-0.58766">
        <ele>308.6</ele>
        <time>2022-06-08 09:13:56</time>
      </trkpt>
      <trkpt lat="43.16979" lon="-0.58766">
        <ele>308.8</ele>
        <time>2022-06-08 09:13:57</time>
      </trkpt>
      <trkpt lat="43.16975" lon="-0.58757">
        <ele>309</ele>
        <time>2022-06-08 09:13:58</time>
      </trkpt>
      <trkpt lat="43.16974" lon="-0.58753">
        <ele>309.2</ele>
        <time>2022-06-08 09:13:59</time>
      </trkpt>
      <trkpt lat="43.16972" lon="-0.58748">
        <ele>309.6</ele>
        <time>2022-06-08 09:14:00</time>
      </trkpt>
      <trkpt lat="43.16971" lon="-0.58744">
        <ele>309.8</ele>
        <time>2022-06-08 09:14:01</time>
      </trkpt>
      <trkpt lat="43.1697" lon="-0.58739">
        <ele>310.2</ele>
        <time>2022-06-08 09:14:02</time>
      </trkpt>
      <trkpt lat="43.16969" lon="-0.58734">
        <ele>310.6</ele>
        <time>2022-06-08 09:14:03</time>
      </trkpt>
      <trkpt lat="43.16968" lon="-0.58729">
        <ele>310.6</ele>
        <time>2022-06-08 09:14:04</time>
      </trkpt>
      <trkpt lat="43.16967" lon="-0.58725">
        <ele>310.8</ele>
        <time>2022-06-08 09:14:05</time>
      </trkpt>
      <trkpt lat="43.16965" lon="-0.58719">
        <ele>310.8</ele>
        <time>2022-06-08 09:14:06</time>
      </trkpt>
      <trkpt lat="43.16964" lon="-0.58713">
        <ele>310.8</ele>
        <time>2022-06-08 09:14:07</time>
      </trkpt>
      <trkpt lat="43.16963" lon="-0.58707">
        <ele>310.8</ele>
        <time>2022-06-08 09:14:08</time>
      </trkpt>
      <trkpt lat="43.16961" lon="-0.587">
        <ele>310.8</ele>
        <time>2022-06-08 09:14:09</time>
      </trkpt>
      <trkpt lat="43.1696" lon="-0.58694">
        <ele>310.8</ele>
        <time>2022-06-08 09:14:10</time>
      </trkpt>
      <trkpt lat="43.16958" lon="-0.58686">
        <ele>310.6</ele>
        <time>2022-06-08 09:14:11</time>
      </trkpt>
      <trkpt lat="43.16956" lon="-0.58677">
        <ele>310.6</ele>
        <time>2022-06-08 09:14:12</time>
      </trkpt>
      <trkpt lat="43.16954" lon="-0.58669">
        <ele>310.6</ele>
        <time>2022-06-08 09:14:13</time>
      </trkpt>
      <trkpt lat="43.16952" lon="-0.5866">
        <ele>310.4</ele>
        <time>2022-06-08 09:14:14</time>
      </trkpt>
      <trkpt lat="43.1695" lon="-0.58651">
        <ele>310.2</ele>
        <time>2022-06-08 09:14:15</time>
      </trkpt>
      <trkpt lat="43.16948" lon="-0.58643">
        <ele>310</ele>
        <time>2022-06-08 09:14:16</time>
      </trkpt>
      <trkpt lat="43.16946" lon="-0.58634">
        <ele>309.6</ele>
        <time>2022-06-08 09:14:17</time>
      </trkpt>
      <trkpt lat="43.16944" lon="-0.58625">
        <ele>309.2</ele>
        <time>2022-06-08 09:14:18</time>
      </trkpt>
      <trkpt lat="43.16942" lon="-0.58617">
        <ele>308.6</ele>
        <time>2022-06-08 09:14:19</time>
      </trkpt>
      <trkpt lat="43.16939" lon="-0.58608">
        <ele>308.2</ele>
        <time>2022-06-08 09:14:20</time>
      </trkpt>
      <trkpt lat="43.16936" lon="-0.586">
        <ele>308</ele>
        <time>2022-06-08 09:14:21</time>
      </trkpt>
      <trkpt lat="43.16934" lon="-0.58591">
        <ele>307.8</ele>
        <time>2022-06-08 09:14:22</time>
      </trkpt>
      <trkpt lat="43.16931" lon="-0.58583">
        <ele>307.6</ele>
        <time>2022-06-08 09:14:23</time>
      </trkpt>
      <trkpt lat="43.16928" lon="-0.58575">
        <ele>307.4</ele>
        <time>2022-06-08 09:14:24</time>
      </trkpt>
      <trkpt lat="43.16925" lon="-0.58567">
        <ele>307.4</ele>
        <time>2022-06-08 09:14:25</time>
      </trkpt>
      <trkpt lat="43.16922" lon="-0.58559">
        <ele>307.4</ele>
        <time>2022-06-08 09:14:26</time>
      </trkpt>
      <trkpt lat="43.16919" lon="-0.58551">
        <ele>307.4</ele>
        <time>2022-06-08 09:14:27</time>
      </trkpt>
      <trkpt lat="43.16917" lon="-0.58543">
        <ele>307.4</ele>
        <time>2022-06-08 09:14:28</time>
      </trkpt>
      <trkpt lat="43.16914" lon="-0.58536">
        <ele>307.4</ele>
        <time>2022-06-08 09:14:29</time>
      </trkpt>
      <trkpt lat="43.16911" lon="-0.58529">
        <ele>307.6</ele>
        <time>2022-06-08 09:14:30</time>
      </trkpt>
      <trkpt lat="43.16909" lon="-0.58522">
        <ele>307.6</ele>
        <time>2022-06-08 09:14:31</time>
      </trkpt>
      <trkpt lat="43.16907" lon="-0.58515">
        <ele>307.6</ele>
        <time>2022-06-08 09:14:32</time>
      </trkpt>
      <trkpt lat="43.16904" lon="-0.58509">
        <ele>307.8</ele>
        <time>2022-06-08 09:14:33</time>
      </trkpt>
      <trkpt lat="43.16903" lon="-0.58502">
        <ele>307.8</ele>
        <time>2022-06-08 09:14:34</time>
      </trkpt>
      <trkpt lat="43.16901" lon="-0.58496">
        <ele>307.8</ele>
        <time>2022-06-08 09:14:35</time>
      </trkpt>
      <trkpt lat="43.16899" lon="-0.58491">
        <ele>308</ele>
        <time>2022-06-08 09:14:36</time>
      </trkpt>
      <trkpt lat="43.16898" lon="-0.58485">
        <ele>308.2</ele>
        <time>2022-06-08 09:14:37</time>
      </trkpt>
      <trkpt lat="43.16896" lon="-0.58479">
        <ele>308.4</ele>
        <time>2022-06-08 09:14:38</time>
      </trkpt>
      <trkpt lat="43.16893" lon="-0.58473">
        <ele>308.6</ele>
        <time>2022-06-08 09:14:39</time>
      </trkpt>
      <trkpt lat="43.16891" lon="-0.58467">
        <ele>308.6</ele>
        <time>2022-06-08 09:14:40</time>
      </trkpt>
      <trkpt lat="43.16888" lon="-0.58461">
        <ele>308.8</ele>
        <time>2022-06-08 09:14:41</time>
      </trkpt>
      <trkpt lat="43.16886" lon="-0.58455">
        <ele>309</ele>
        <time>2022-06-08 09:14:42</time>
      </trkpt>
      <trkpt lat="43.16884" lon="-0.58449">
        <ele>309.2</ele>
        <time>2022-06-08 09:14:43</time>
      </trkpt>
      <trkpt lat="43.16882" lon="-0.58442">
        <ele>309.2</ele>
        <time>2022-06-08 09:14:44</time>
      </trkpt>
      <trkpt lat="43.1688" lon="-0.58435">
        <ele>309.4</ele>
        <time>2022-06-08 09:14:45</time>
      </trkpt>
      <trkpt lat="43.16878" lon="-0.58429">
        <ele>309.6</ele>
        <time>2022-06-08 09:14:46</time>
      </trkpt>
      <trkpt lat="43.16878" lon="-0.58422">
        <ele>309.6</ele>
        <time>2022-06-08 09:14:47</time>
      </trkpt>
      <trkpt lat="43.16877" lon="-0.58416">
        <ele>309.8</ele>
        <time>2022-06-08 09:14:48</time>
      </trkpt>
      <trkpt lat="43.16877" lon="-0.58416">
        <ele>309.8</ele>
        <time>2022-06-08 09:14:49</time>
      </trkpt>
      <trkpt lat="43.16876" lon="-0.58402">
        <ele>310</ele>
        <time>2022-06-08 09:14:50</time>
      </trkpt>
      <trkpt lat="43.16875" lon="-0.58395">
        <ele>310</ele>
        <time>2022-06-08 09:14:51</time>
      </trkpt>
      <trkpt lat="43.16875" lon="-0.58388">
        <ele>310.4</ele>
        <time>2022-06-08 09:14:52</time>
      </trkpt>
      <trkpt lat="43.16875" lon="-0.58382">
        <ele>310.6</ele>
        <time>2022-06-08 09:14:53</time>
      </trkpt>
      <trkpt lat="43.16875" lon="-0.58376">
        <ele>311</ele>
        <time>2022-06-08 09:14:54</time>
      </trkpt>
      <trkpt lat="43.16875" lon="-0.58369">
        <ele>311</ele>
        <time>2022-06-08 09:14:55</time>
      </trkpt>
      <trkpt lat="43.16874" lon="-0.58363">
        <ele>311.2</ele>
        <time>2022-06-08 09:14:56</time>
      </trkpt>
      <trkpt lat="43.16874" lon="-0.58357">
        <ele>311.4</ele>
        <time>2022-06-08 09:14:57</time>
      </trkpt>
      <trkpt lat="43.16874" lon="-0.58351">
        <ele>311.8</ele>
        <time>2022-06-08 09:14:58</time>
      </trkpt>
      <trkpt lat="43.16873" lon="-0.58345">
        <ele>312</ele>
        <time>2022-06-08 09:14:59</time>
      </trkpt>
      <trkpt lat="43.16873" lon="-0.58339">
        <ele>312.6</ele>
        <time>2022-06-08 09:15:00</time>
      </trkpt>
      <trkpt lat="43.16873" lon="-0.58333">
        <ele>313</ele>
        <time>2022-06-08 09:15:01</time>
      </trkpt>
      <trkpt lat="43.16873" lon="-0.58328">
        <ele>313.2</ele>
        <time>2022-06-08 09:15:02</time>
      </trkpt>
      <trkpt lat="43.16872" lon="-0.58322">
        <ele>313.4</ele>
        <time>2022-06-08 09:15:03</time>
      </trkpt>
      <trkpt lat="43.16872" lon="-0.58317">
        <ele>313.6</ele>
        <time>2022-06-08 09:15:04</time>
      </trkpt>
      <trkpt lat="43.16871" lon="-0.58311">
        <ele>314.2</ele>
        <time>2022-06-08 09:15:05</time>
      </trkpt>
      <trkpt lat="43.16871" lon="-0.58306">
        <ele>314.4</ele>
        <time>2022-06-08 09:15:06</time>
      </trkpt>
      <trkpt lat="43.16871" lon="-0.583">
        <ele>315</ele>
        <time>2022-06-08 09:15:07</time>
      </trkpt>
      <trkpt lat="43.16872" lon="-0.58294">
        <ele>315.2</ele>
        <time>2022-06-08 09:15:08</time>
      </trkpt>
      <trkpt lat="43.16872" lon="-0.58289">
        <ele>315.4</ele>
        <time>2022-06-08 09:15:09</time>
      </trkpt>
      <trkpt lat="43.16872" lon="-0.58282">
        <ele>315.6</ele>
        <time>2022-06-08 09:15:10</time>
      </trkpt>
      <trkpt lat="43.16871" lon="-0.58276">
        <ele>315.8</ele>
        <time>2022-06-08 09:15:11</time>
      </trkpt>
      <trkpt lat="43.1687" lon="-0.5827">
        <ele>315.8</ele>
        <time>2022-06-08 09:15:12</time>
      </trkpt>
      <trkpt lat="43.16867" lon="-0.58264">
        <ele>316</ele>
        <time>2022-06-08 09:15:13</time>
      </trkpt>
      <trkpt lat="43.16864" lon="-0.58259">
        <ele>316</ele>
        <time>2022-06-08 09:15:14</time>
      </trkpt>
      <trkpt lat="43.1686" lon="-0.58256">
        <ele>316.2</ele>
        <time>2022-06-08 09:15:15</time>
      </trkpt>
      <trkpt lat="43.16855" lon="-0.58254">
        <ele>316.2</ele>
        <time>2022-06-08 09:15:16</time>
      </trkpt>
      <trkpt lat="43.1685" lon="-0.58254">
        <ele>316.2</ele>
        <time>2022-06-08 09:15:17</time>
      </trkpt>
      <trkpt lat="43.16845" lon="-0.58256">
        <ele>316.2</ele>
        <time>2022-06-08 09:15:18</time>
      </trkpt>
      <trkpt lat="43.1684" lon="-0.58258">
        <ele>316.2</ele>
        <time>2022-06-08 09:15:19</time>
      </trkpt>
      <trkpt lat="43.16836" lon="-0.58261">
        <ele>316.2</ele>
        <time>2022-06-08 09:15:20</time>
      </trkpt>
      <trkpt lat="43.1683" lon="-0.58264">
        <ele>316</ele>
        <time>2022-06-08 09:15:21</time>
      </trkpt>
      <trkpt lat="43.16824" lon="-0.58268">
        <ele>315.6</ele>
        <time>2022-06-08 09:15:22</time>
      </trkpt>
      <trkpt lat="43.16818" lon="-0.58273">
        <ele>315.2</ele>
        <time>2022-06-08 09:15:23</time>
      </trkpt>
      <trkpt lat="43.16811" lon="-0.58277">
        <ele>314.8</ele>
        <time>2022-06-08 09:15:24</time>
      </trkpt>
      <trkpt lat="43.16803" lon="-0.58279">
        <ele>314.6</ele>
        <time>2022-06-08 09:15:25</time>
      </trkpt>
      <trkpt lat="43.16795" lon="-0.5828">
        <ele>314.2</ele>
        <time>2022-06-08 09:15:26</time>
      </trkpt>
      <trkpt lat="43.16788" lon="-0.58279">
        <ele>314</ele>
        <time>2022-06-08 09:15:27</time>
      </trkpt>
      <trkpt lat="43.1678" lon="-0.58278">
        <ele>313.6</ele>
        <time>2022-06-08 09:15:28</time>
      </trkpt>
      <trkpt lat="43.16772" lon="-0.58276">
        <ele>313.2</ele>
        <time>2022-06-08 09:15:29</time>
      </trkpt>
      <trkpt lat="43.16763" lon="-0.58277">
        <ele>312.8</ele>
        <time>2022-06-08 09:15:30</time>
      </trkpt>
      <trkpt lat="43.16754" lon="-0.58278">
        <ele>312.4</ele>
        <time>2022-06-08 09:15:31</time>
      </trkpt>
      <trkpt lat="43.16745" lon="-0.58281">
        <ele>312</ele>
        <time>2022-06-08 09:15:32</time>
      </trkpt>
      <trkpt lat="43.16737" lon="-0.58286">
        <ele>311</ele>
        <time>2022-06-08 09:15:33</time>
      </trkpt>
      <trkpt lat="43.16729" lon="-0.5829">
        <ele>310.2</ele>
        <time>2022-06-08 09:15:34</time>
      </trkpt>
      <trkpt lat="43.1672" lon="-0.58294">
        <ele>309.6</ele>
        <time>2022-06-08 09:15:35</time>
      </trkpt>
      <trkpt lat="43.16711" lon="-0.58298">
        <ele>309.4</ele>
        <time>2022-06-08 09:15:36</time>
      </trkpt>
      <trkpt lat="43.16703" lon="-0.58302">
        <ele>309.2</ele>
        <time>2022-06-08 09:15:37</time>
      </trkpt>
      <trkpt lat="43.16694" lon="-0.58303">
        <ele>309.2</ele>
        <time>2022-06-08 09:15:38</time>
      </trkpt>
      <trkpt lat="43.16683" lon="-0.58303">
        <ele>308</ele>
        <time>2022-06-08 09:15:39</time>
      </trkpt>
      <trkpt lat="43.16672" lon="-0.58303">
        <ele>307.6</ele>
        <time>2022-06-08 09:15:40</time>
      </trkpt>
      <trkpt lat="43.16672" lon="-0.58303">
        <ele>306.8</ele>
        <time>2022-06-08 09:15:41</time>
      </trkpt>
      <trkpt lat="43.16653" lon="-0.583">
        <ele>306</ele>
        <time>2022-06-08 09:15:42</time>
      </trkpt>
      <trkpt lat="43.16644" lon="-0.58297">
        <ele>305.6</ele>
        <time>2022-06-08 09:15:43</time>
      </trkpt>
      <trkpt lat="43.16634" lon="-0.58294">
        <ele>305</ele>
        <time>2022-06-08 09:15:44</time>
      </trkpt>
      <trkpt lat="43.16623" lon="-0.58292">
        <ele>304.2</ele>
        <time>2022-06-08 09:15:45</time>
      </trkpt>
      <trkpt lat="43.16612" lon="-0.58289">
        <ele>303.2</ele>
        <time>2022-06-08 09:15:46</time>
      </trkpt>
      <trkpt lat="43.16603" lon="-0.58287">
        <ele>303</ele>
        <time>2022-06-08 09:15:47</time>
      </trkpt>
      <trkpt lat="43.16593" lon="-0.58285">
        <ele>302.6</ele>
        <time>2022-06-08 09:15:48</time>
      </trkpt>
      <trkpt lat="43.16585" lon="-0.58283">
        <ele>302.2</ele>
        <time>2022-06-08 09:15:49</time>
      </trkpt>
      <trkpt lat="43.16574" lon="-0.58281">
        <ele>302</ele>
        <time>2022-06-08 09:15:50</time>
      </trkpt>
      <trkpt lat="43.16564" lon="-0.58279">
        <ele>301.8</ele>
        <time>2022-06-08 09:15:51</time>
      </trkpt>
      <trkpt lat="43.16553" lon="-0.58276">
        <ele>301.6</ele>
        <time>2022-06-08 09:15:52</time>
      </trkpt>
      <trkpt lat="43.16543" lon="-0.58275">
        <ele>301.6</ele>
        <time>2022-06-08 09:15:53</time>
      </trkpt>
      <trkpt lat="43.16533" lon="-0.58274">
        <ele>301.4</ele>
        <time>2022-06-08 09:15:54</time>
      </trkpt>
      <trkpt lat="43.16522" lon="-0.58274">
        <ele>301</ele>
        <time>2022-06-08 09:15:55</time>
      </trkpt>
      <trkpt lat="43.16513" lon="-0.58276">
        <ele>300.6</ele>
        <time>2022-06-08 09:15:56</time>
      </trkpt>
      <trkpt lat="43.16504" lon="-0.58278">
        <ele>300</ele>
        <time>2022-06-08 09:15:57</time>
      </trkpt>
      <trkpt lat="43.16495" lon="-0.58281">
        <ele>299.8</ele>
        <time>2022-06-08 09:15:58</time>
      </trkpt>
      <trkpt lat="43.16487" lon="-0.58287">
        <ele>299.2</ele>
        <time>2022-06-08 09:15:59</time>
      </trkpt>
      <trkpt lat="43.16481" lon="-0.58296">
        <ele>299</ele>
        <time>2022-06-08 09:16:00</time>
      </trkpt>
      <trkpt lat="43.16474" lon="-0.58305">
        <ele>298.6</ele>
        <time>2022-06-08 09:16:01</time>
      </trkpt>
      <trkpt lat="43.16469" lon="-0.58313">
        <ele>298.4</ele>
        <time>2022-06-08 09:16:02</time>
      </trkpt>
      <trkpt lat="43.16464" lon="-0.58321">
        <ele>298.4</ele>
        <time>2022-06-08 09:16:03</time>
      </trkpt>
      <trkpt lat="43.1646" lon="-0.58331">
        <ele>298.2</ele>
        <time>2022-06-08 09:16:04</time>
      </trkpt>
      <trkpt lat="43.16457" lon="-0.5834">
        <ele>298</ele>
        <time>2022-06-08 09:16:05</time>
      </trkpt>
      <trkpt lat="43.16454" lon="-0.58351">
        <ele>298</ele>
        <time>2022-06-08 09:16:06</time>
      </trkpt>
      <trkpt lat="43.16451" lon="-0.58363">
        <ele>297.8</ele>
        <time>2022-06-08 09:16:07</time>
      </trkpt>
      <trkpt lat="43.16447" lon="-0.58374">
        <ele>297.8</ele>
        <time>2022-06-08 09:16:08</time>
      </trkpt>
      <trkpt lat="43.16444" lon="-0.58385">
        <ele>297.6</ele>
        <time>2022-06-08 09:16:09</time>
      </trkpt>
      <trkpt lat="43.1644" lon="-0.58397">
        <ele>297.6</ele>
        <time>2022-06-08 09:16:10</time>
      </trkpt>
      <trkpt lat="43.16438" lon="-0.58408">
        <ele>297.4</ele>
        <time>2022-06-08 09:16:11</time>
      </trkpt>
      <trkpt lat="43.16435" lon="-0.58418">
        <ele>297.2</ele>
        <time>2022-06-08 09:16:12</time>
      </trkpt>
      <trkpt lat="43.16433" lon="-0.58428">
        <ele>297.2</ele>
        <time>2022-06-08 09:16:13</time>
      </trkpt>
      <trkpt lat="43.16431" lon="-0.58438">
        <ele>297.2</ele>
        <time>2022-06-08 09:16:14</time>
      </trkpt>
      <trkpt lat="43.1643" lon="-0.58447">
        <ele>297.2</ele>
        <time>2022-06-08 09:16:15</time>
      </trkpt>
      <trkpt lat="43.16429" lon="-0.58456">
        <ele>297</ele>
        <time>2022-06-08 09:16:16</time>
      </trkpt>
      <trkpt lat="43.16428" lon="-0.58464">
        <ele>297</ele>
        <time>2022-06-08 09:16:17</time>
      </trkpt>
      <trkpt lat="43.16428" lon="-0.58471">
        <ele>297</ele>
        <time>2022-06-08 09:16:18</time>
      </trkpt>
      <trkpt lat="43.16428" lon="-0.58478">
        <ele>297</ele>
        <time>2022-06-08 09:16:19</time>
      </trkpt>
      <trkpt lat="43.16429" lon="-0.58486">
        <ele>297.4</ele>
        <time>2022-06-08 09:16:20</time>
      </trkpt>
      <trkpt lat="43.16429" lon="-0.58493">
        <ele>298.2</ele>
        <time>2022-06-08 09:16:21</time>
      </trkpt>
      <trkpt lat="43.16428" lon="-0.58498">
        <ele>299.4</ele>
        <time>2022-06-08 09:16:22</time>
      </trkpt>
      <trkpt lat="43.16427" lon="-0.58502">
        <ele>299.8</ele>
        <time>2022-06-08 09:16:23</time>
      </trkpt>
      <trkpt lat="43.16425" lon="-0.58505">
        <ele>300.4</ele>
        <time>2022-06-08 09:16:24</time>
      </trkpt>
      <trkpt lat="43.16424" lon="-0.58508">
        <ele>301.2</ele>
        <time>2022-06-08 09:16:25</time>
      </trkpt>
      <trkpt lat="43.16422" lon="-0.58511">
        <ele>301.6</ele>
        <time>2022-06-08 09:16:26</time>
      </trkpt>
      <trkpt lat="43.16419" lon="-0.58514">
        <ele>302.6</ele>
        <time>2022-06-08 09:16:27</time>
      </trkpt>
      <trkpt lat="43.16418" lon="-0.58515">
        <ele>303</ele>
        <time>2022-06-08 09:16:28</time>
      </trkpt>
      <trkpt lat="43.16416" lon="-0.58515">
        <ele>303.8</ele>
        <time>2022-06-08 09:16:29</time>
      </trkpt>
      <trkpt lat="43.16413" lon="-0.58516">
        <ele>304</ele>
        <time>2022-06-08 09:16:30</time>
      </trkpt>
      <trkpt lat="43.16411" lon="-0.58516">
        <ele>304.4</ele>
        <time>2022-06-08 09:16:31</time>
      </trkpt>
      <trkpt lat="43.16408" lon="-0.58516">
        <ele>304.6</ele>
        <time>2022-06-08 09:16:32</time>
      </trkpt>
      <trkpt lat="43.16405" lon="-0.58515">
        <ele>305</ele>
        <time>2022-06-08 09:16:33</time>
      </trkpt>
      <trkpt lat="43.16404" lon="-0.58514">
        <ele>305.4</ele>
        <time>2022-06-08 09:16:34</time>
      </trkpt>
      <trkpt lat="43.16401" lon="-0.58514">
        <ele>306.2</ele>
        <time>2022-06-08 09:16:35</time>
      </trkpt>
      <trkpt lat="43.16399" lon="-0.58512">
        <ele>306.4</ele>
        <time>2022-06-08 09:16:36</time>
      </trkpt>
      <trkpt lat="43.16396" lon="-0.58511">
        <ele>306.6</ele>
        <time>2022-06-08 09:16:37</time>
      </trkpt>
      <trkpt lat="43.16394" lon="-0.5851">
        <ele>307</ele>
        <time>2022-06-08 09:16:38</time>
      </trkpt>
      <trkpt lat="43.16391" lon="-0.58509">
        <ele>307.4</ele>
        <time>2022-06-08 09:16:39</time>
      </trkpt>
      <trkpt lat="43.16389" lon="-0.58508">
        <ele>307.6</ele>
        <time>2022-06-08 09:16:40</time>
      </trkpt>
      <trkpt lat="43.16388" lon="-0.58507">
        <ele>307.8</ele>
        <time>2022-06-08 09:16:41</time>
      </trkpt>
      <trkpt lat="43.16386" lon="-0.58506">
        <ele>307.8</ele>
        <time>2022-06-08 09:16:42</time>
      </trkpt>
      <trkpt lat="43.16384" lon="-0.58506">
        <ele>308</ele>
        <time>2022-06-08 09:16:43</time>
      </trkpt>
      <trkpt lat="43.16381" lon="-0.58505">
        <ele>308.4</ele>
        <time>2022-06-08 09:16:44</time>
      </trkpt>
      <trkpt lat="43.16378" lon="-0.58503">
        <ele>308.6</ele>
        <time>2022-06-08 09:16:45</time>
      </trkpt>
      <trkpt lat="43.16375" lon="-0.58502">
        <ele>308.8</ele>
        <time>2022-06-08 09:16:46</time>
      </trkpt>
      <trkpt lat="43.16372" lon="-0.585">
        <ele>308.8</ele>
        <time>2022-06-08 09:16:47</time>
      </trkpt>
      <trkpt lat="43.16369" lon="-0.58499">
        <ele>309</ele>
        <time>2022-06-08 09:16:48</time>
      </trkpt>
      <trkpt lat="43.16366" lon="-0.58497">
        <ele>309</ele>
        <time>2022-06-08 09:16:49</time>
      </trkpt>
      <trkpt lat="43.16363" lon="-0.58496">
        <ele>309.4</ele>
        <time>2022-06-08 09:16:50</time>
      </trkpt>
      <trkpt lat="43.1636" lon="-0.58495">
        <ele>309.6</ele>
        <time>2022-06-08 09:16:51</time>
      </trkpt>
      <trkpt lat="43.16358" lon="-0.58495">
        <ele>310</ele>
        <time>2022-06-08 09:16:52</time>
      </trkpt>
      <trkpt lat="43.16355" lon="-0.58494">
        <ele>310.2</ele>
        <time>2022-06-08 09:16:53</time>
      </trkpt>
      <trkpt lat="43.16352" lon="-0.58492">
        <ele>310.2</ele>
        <time>2022-06-08 09:16:54</time>
      </trkpt>
      <trkpt lat="43.16349" lon="-0.58491">
        <ele>310.4</ele>
        <time>2022-06-08 09:16:55</time>
      </trkpt>
      <trkpt lat="43.16346" lon="-0.58489">
        <ele>310.6</ele>
        <time>2022-06-08 09:16:56</time>
      </trkpt>
      <trkpt lat="43.16342" lon="-0.58487">
        <ele>310.8</ele>
        <time>2022-06-08 09:16:57</time>
      </trkpt>
      <trkpt lat="43.16339" lon="-0.58485">
        <ele>310.8</ele>
        <time>2022-06-08 09:16:58</time>
      </trkpt>
      <trkpt lat="43.16336" lon="-0.58482">
        <ele>311</ele>
        <time>2022-06-08 09:16:59</time>
      </trkpt>
      <trkpt lat="43.16333" lon="-0.5848">
        <ele>311</ele>
        <time>2022-06-08 09:17:00</time>
      </trkpt>
      <trkpt lat="43.16331" lon="-0.58478">
        <ele>311.2</ele>
        <time>2022-06-08 09:17:01</time>
      </trkpt>
      <trkpt lat="43.16329" lon="-0.58477">
        <ele>311.4</ele>
        <time>2022-06-08 09:17:02</time>
      </trkpt>
      <trkpt lat="43.16327" lon="-0.58476">
        <ele>311.6</ele>
        <time>2022-06-08 09:17:03</time>
      </trkpt>
      <trkpt lat="43.16324" lon="-0.58475">
        <ele>311.6</ele>
        <time>2022-06-08 09:17:04</time>
      </trkpt>
      <trkpt lat="43.16322" lon="-0.58473">
        <ele>311.6</ele>
        <time>2022-06-08 09:17:05</time>
      </trkpt>
      <trkpt lat="43.1632" lon="-0.58472">
        <ele>311.6</ele>
        <time>2022-06-08 09:17:06</time>
      </trkpt>
      <trkpt lat="43.16318" lon="-0.58469">
        <ele>311.8</ele>
        <time>2022-06-08 09:17:07</time>
      </trkpt>
      <trkpt lat="43.16314" lon="-0.58464">
        <ele>312</ele>
        <time>2022-06-08 09:17:08</time>
      </trkpt>
      <trkpt lat="43.16308" lon="-0.58461">
        <ele>312</ele>
        <time>2022-06-08 09:17:09</time>
      </trkpt>
      <trkpt lat="43.16303" lon="-0.5846">
        <ele>312.2</ele>
        <time>2022-06-08 09:17:10</time>
      </trkpt>
      <trkpt lat="43.16299" lon="-0.58458">
        <ele>312.4</ele>
        <time>2022-06-08 09:17:11</time>
      </trkpt>
      <trkpt lat="43.16295" lon="-0.58457">
        <ele>312.6</ele>
        <time>2022-06-08 09:17:12</time>
      </trkpt>
      <trkpt lat="43.16291" lon="-0.58456">
        <ele>312.6</ele>
        <time>2022-06-08 09:17:13</time>
      </trkpt>
      <trkpt lat="43.16286" lon="-0.58454">
        <ele>312.6</ele>
        <time>2022-06-08 09:17:14</time>
      </trkpt>
      <trkpt lat="43.16282" lon="-0.58452">
        <ele>312.6</ele>
        <time>2022-06-08 09:17:15</time>
      </trkpt>
      <trkpt lat="43.16278" lon="-0.58451">
        <ele>312.8</ele>
        <time>2022-06-08 09:17:16</time>
      </trkpt>
      <trkpt lat="43.16274" lon="-0.5845">
        <ele>312.8</ele>
        <time>2022-06-08 09:17:17</time>
      </trkpt>
      <trkpt lat="43.16271" lon="-0.5845">
        <ele>312.6</ele>
        <time>2022-06-08 09:17:18</time>
      </trkpt>
      <trkpt lat="43.16266" lon="-0.58447">
        <ele>312.6</ele>
        <time>2022-06-08 09:17:19</time>
      </trkpt>
      <trkpt lat="43.1626" lon="-0.58445">
        <ele>312.6</ele>
        <time>2022-06-08 09:17:20</time>
      </trkpt>
      <trkpt lat="43.16254" lon="-0.58441">
        <ele>312.6</ele>
        <time>2022-06-08 09:17:21</time>
      </trkpt>
      <trkpt lat="43.16249" lon="-0.58441">
        <ele>312.2</ele>
        <time>2022-06-08 09:17:22</time>
      </trkpt>
      <trkpt lat="43.16246" lon="-0.58441">
        <ele>312.4</ele>
        <time>2022-06-08 09:17:23</time>
      </trkpt>
      <trkpt lat="43.1624" lon="-0.58439">
        <ele>312.4</ele>
        <time>2022-06-08 09:17:24</time>
      </trkpt>
      <trkpt lat="43.16235" lon="-0.58437">
        <ele>312.4</ele>
        <time>2022-06-08 09:17:25</time>
      </trkpt>
      <trkpt lat="43.1623" lon="-0.58436">
        <ele>312.4</ele>
        <time>2022-06-08 09:17:26</time>
      </trkpt>
      <trkpt lat="43.16225" lon="-0.58435">
        <ele>312.4</ele>
        <time>2022-06-08 09:17:27</time>
      </trkpt>
      <trkpt lat="43.16219" lon="-0.58433">
        <ele>312.4</ele>
        <time>2022-06-08 09:17:28</time>
      </trkpt>
      <trkpt lat="43.16215" lon="-0.58432">
        <ele>312.6</ele>
        <time>2022-06-08 09:17:29</time>
      </trkpt>
      <trkpt lat="43.16207" lon="-0.5843">
        <ele>312.6</ele>
        <time>2022-06-08 09:17:30</time>
      </trkpt>
      <trkpt lat="43.16203" lon="-0.58429">
        <ele>312.6</ele>
        <time>2022-06-08 09:17:31</time>
      </trkpt>
      <trkpt lat="43.16198" lon="-0.58428">
        <ele>312.6</ele>
        <time>2022-06-08 09:17:32</time>
      </trkpt>
      <trkpt lat="43.16195" lon="-0.58428">
        <ele>312.6</ele>
        <time>2022-06-08 09:17:33</time>
      </trkpt>
      <trkpt lat="43.16192" lon="-0.58427">
        <ele>312.6</ele>
        <time>2022-06-08 09:17:34</time>
      </trkpt>
      <trkpt lat="43.16188" lon="-0.58427">
        <ele>312.6</ele>
        <time>2022-06-08 09:17:35</time>
      </trkpt>
      <trkpt lat="43.16182" lon="-0.58427">
        <ele>312.6</ele>
        <time>2022-06-08 09:17:36</time>
      </trkpt>
      <trkpt lat="43.16177" lon="-0.58428">
        <ele>312.6</ele>
        <time>2022-06-08 09:17:37</time>
      </trkpt>
      <trkpt lat="43.16171" lon="-0.5843">
        <ele>312.4</ele>
        <time>2022-06-08 09:17:38</time>
      </trkpt>
      <trkpt lat="43.16166" lon="-0.58433">
        <ele>312.4</ele>
        <time>2022-06-08 09:17:39</time>
      </trkpt>
      <trkpt lat="43.1616" lon="-0.58436">
        <ele>312.2</ele>
        <time>2022-06-08 09:17:40</time>
      </trkpt>
      <trkpt lat="43.16154" lon="-0.58441">
        <ele>312</ele>
        <time>2022-06-08 09:17:41</time>
      </trkpt>
      <trkpt lat="43.16148" lon="-0.58446">
        <ele>311.8</ele>
        <time>2022-06-08 09:17:42</time>
      </trkpt>
      <trkpt lat="43.16144" lon="-0.58451">
        <ele>311.8</ele>
        <time>2022-06-08 09:17:43</time>
      </trkpt>
      <trkpt lat="43.16139" lon="-0.58457">
        <ele>311.6</ele>
        <time>2022-06-08 09:17:44</time>
      </trkpt>
      <trkpt lat="43.16134" lon="-0.58464">
        <ele>311.4</ele>
        <time>2022-06-08 09:17:45</time>
      </trkpt>
      <trkpt lat="43.16129" lon="-0.58472">
        <ele>311.2</ele>
        <time>2022-06-08 09:17:46</time>
      </trkpt>
      <trkpt lat="43.16123" lon="-0.58479">
        <ele>311</ele>
        <time>2022-06-08 09:17:47</time>
      </trkpt>
      <trkpt lat="43.16116" lon="-0.58485">
        <ele>310.2</ele>
        <time>2022-06-08 09:17:48</time>
      </trkpt>
      <trkpt lat="43.16107" lon="-0.58489">
        <ele>309.8</ele>
        <time>2022-06-08 09:17:49</time>
      </trkpt>
      <trkpt lat="43.16098" lon="-0.58492">
        <ele>308.4</ele>
        <time>2022-06-08 09:17:50</time>
      </trkpt>
      <trkpt lat="43.1609" lon="-0.58492">
        <ele>307.6</ele>
        <time>2022-06-08 09:17:51</time>
      </trkpt>
      <trkpt lat="43.16082" lon="-0.5849">
        <ele>307.2</ele>
        <time>2022-06-08 09:17:52</time>
      </trkpt>
      <trkpt lat="43.16074" lon="-0.58486">
        <ele>306.6</ele>
        <time>2022-06-08 09:17:53</time>
      </trkpt>
      <trkpt lat="43.16067" lon="-0.58479">
        <ele>306.4</ele>
        <time>2022-06-08 09:17:54</time>
      </trkpt>
      <trkpt lat="43.16062" lon="-0.58471">
        <ele>306</ele>
        <time>2022-06-08 09:17:55</time>
      </trkpt>
      <trkpt lat="43.16058" lon="-0.58462">
        <ele>306</ele>
        <time>2022-06-08 09:17:56</time>
      </trkpt>
      <trkpt lat="43.16054" lon="-0.58454">
        <ele>306.2</ele>
        <time>2022-06-08 09:17:57</time>
      </trkpt>
      <trkpt lat="43.1605" lon="-0.58446">
        <ele>306.2</ele>
        <time>2022-06-08 09:17:58</time>
      </trkpt>
      <trkpt lat="43.16045" lon="-0.5844">
        <ele>306.4</ele>
        <time>2022-06-08 09:17:59</time>
      </trkpt>
      <trkpt lat="43.16041" lon="-0.58434">
        <ele>306.4</ele>
        <time>2022-06-08 09:18:00</time>
      </trkpt>
      <trkpt lat="43.16036" lon="-0.58429">
        <ele>306.6</ele>
        <time>2022-06-08 09:18:01</time>
      </trkpt>
      <trkpt lat="43.1603" lon="-0.58423">
        <ele>306.6</ele>
        <time>2022-06-08 09:18:02</time>
      </trkpt>
      <trkpt lat="43.16024" lon="-0.58418">
        <ele>306.8</ele>
        <time>2022-06-08 09:18:03</time>
      </trkpt>
      <trkpt lat="43.16018" lon="-0.58412">
        <ele>306.8</ele>
        <time>2022-06-08 09:18:04</time>
      </trkpt>
      <trkpt lat="43.16013" lon="-0.58406">
        <ele>306.8</ele>
        <time>2022-06-08 09:18:05</time>
      </trkpt>
      <trkpt lat="43.16008" lon="-0.58397">
        <ele>307</ele>
        <time>2022-06-08 09:18:06</time>
      </trkpt>
      <trkpt lat="43.16005" lon="-0.58387">
        <ele>306.8</ele>
        <time>2022-06-08 09:18:07</time>
      </trkpt>
      <trkpt lat="43.16005" lon="-0.58375">
        <ele>306.8</ele>
        <time>2022-06-08 09:18:08</time>
      </trkpt>
      <trkpt lat="43.16006" lon="-0.58366">
        <ele>306.8</ele>
        <time>2022-06-08 09:18:09</time>
      </trkpt>
      <trkpt lat="43.16008" lon="-0.58356">
        <ele>306.4</ele>
        <time>2022-06-08 09:18:10</time>
      </trkpt>
      <trkpt lat="43.16009" lon="-0.58345">
        <ele>305.8</ele>
        <time>2022-06-08 09:18:11</time>
      </trkpt>
      <trkpt lat="43.16009" lon="-0.58335">
        <ele>304.4</ele>
        <time>2022-06-08 09:18:12</time>
      </trkpt>
      <trkpt lat="43.16007" lon="-0.58325">
        <ele>304</ele>
        <time>2022-06-08 09:18:13</time>
      </trkpt>
      <trkpt lat="43.16004" lon="-0.58315">
        <ele>303.2</ele>
        <time>2022-06-08 09:18:14</time>
      </trkpt>
      <trkpt lat="43.15996" lon="-0.583">
        <ele>303</ele>
        <time>2022-06-08 09:18:15</time>
      </trkpt>
      <trkpt lat="43.15991" lon="-0.58293">
        <ele>302.4</ele>
        <time>2022-06-08 09:18:16</time>
      </trkpt>
      <trkpt lat="43.15984" lon="-0.58288">
        <ele>302.2</ele>
        <time>2022-06-08 09:18:17</time>
      </trkpt>
      <trkpt lat="43.15976" lon="-0.58285">
        <ele>302</ele>
        <time>2022-06-08 09:18:18</time>
      </trkpt>
      <trkpt lat="43.15967" lon="-0.58282">
        <ele>301.4</ele>
        <time>2022-06-08 09:18:19</time>
      </trkpt>
      <trkpt lat="43.15958" lon="-0.5828">
        <ele>300.8</ele>
        <time>2022-06-08 09:18:20</time>
      </trkpt>
      <trkpt lat="43.1595" lon="-0.58279">
        <ele>300</ele>
        <time>2022-06-08 09:18:21</time>
      </trkpt>
      <trkpt lat="43.15941" lon="-0.58278">
        <ele>299.8</ele>
        <time>2022-06-08 09:18:22</time>
      </trkpt>
      <trkpt lat="43.15934" lon="-0.58281">
        <ele>299.6</ele>
        <time>2022-06-08 09:18:23</time>
      </trkpt>
      <trkpt lat="43.15927" lon="-0.58284">
        <ele>299.4</ele>
        <time>2022-06-08 09:18:24</time>
      </trkpt>
      <trkpt lat="43.15921" lon="-0.58288">
        <ele>299.2</ele>
        <time>2022-06-08 09:18:25</time>
      </trkpt>
      <trkpt lat="43.15916" lon="-0.58293">
        <ele>299.2</ele>
        <time>2022-06-08 09:18:26</time>
      </trkpt>
      <trkpt lat="43.15911" lon="-0.58298">
        <ele>298.8</ele>
        <time>2022-06-08 09:18:27</time>
      </trkpt>
      <trkpt lat="43.15905" lon="-0.58305">
        <ele>298.8</ele>
        <time>2022-06-08 09:18:28</time>
      </trkpt>
      <trkpt lat="43.15897" lon="-0.58312">
        <ele>298</ele>
        <time>2022-06-08 09:18:29</time>
      </trkpt>
      <trkpt lat="43.15889" lon="-0.58319">
        <ele>297.8</ele>
        <time>2022-06-08 09:18:30</time>
      </trkpt>
      <trkpt lat="43.15881" lon="-0.58325">
        <ele>297.2</ele>
        <time>2022-06-08 09:18:31</time>
      </trkpt>
      <trkpt lat="43.15873" lon="-0.5833">
        <ele>297</ele>
        <time>2022-06-08 09:18:32</time>
      </trkpt>
      <trkpt lat="43.15866" lon="-0.58334">
        <ele>297</ele>
        <time>2022-06-08 09:18:33</time>
      </trkpt>
      <trkpt lat="43.1586" lon="-0.58337">
        <ele>297</ele>
        <time>2022-06-08 09:18:34</time>
      </trkpt>
      <trkpt lat="43.15853" lon="-0.5834">
        <ele>297</ele>
        <time>2022-06-08 09:18:35</time>
      </trkpt>
      <trkpt lat="43.15844" lon="-0.58343">
        <ele>297</ele>
        <time>2022-06-08 09:18:36</time>
      </trkpt>
      <trkpt lat="43.15838" lon="-0.58345">
        <ele>297</ele>
        <time>2022-06-08 09:18:37</time>
      </trkpt>
      <trkpt lat="43.1583" lon="-0.58348">
        <ele>297.2</ele>
        <time>2022-06-08 09:18:38</time>
      </trkpt>
      <trkpt lat="43.15823" lon="-0.58353">
        <ele>297.6</ele>
        <time>2022-06-08 09:18:39</time>
      </trkpt>
      <trkpt lat="43.15817" lon="-0.58357">
        <ele>298.6</ele>
        <time>2022-06-08 09:18:40</time>
      </trkpt>
      <trkpt lat="43.15812" lon="-0.58363">
        <ele>299</ele>
        <time>2022-06-08 09:18:41</time>
      </trkpt>
      <trkpt lat="43.15807" lon="-0.58368">
        <ele>299.4</ele>
        <time>2022-06-08 09:18:42</time>
      </trkpt>
      <trkpt lat="43.15801" lon="-0.58373">
        <ele>299.6</ele>
        <time>2022-06-08 09:18:43</time>
      </trkpt>
      <trkpt lat="43.15795" lon="-0.58379">
        <ele>299.8</ele>
        <time>2022-06-08 09:18:44</time>
      </trkpt>
      <trkpt lat="43.15791" lon="-0.58384">
        <ele>300</ele>
        <time>2022-06-08 09:18:45</time>
      </trkpt>
      <trkpt lat="43.15786" lon="-0.58391">
        <ele>300.2</ele>
        <time>2022-06-08 09:18:46</time>
      </trkpt>
      <trkpt lat="43.15786" lon="-0.58391">
        <ele>300.2</ele>
        <time>2022-06-08 09:18:47</time>
      </trkpt>
      <trkpt lat="43.15776" lon="-0.58402">
        <ele>300.2</ele>
        <time>2022-06-08 09:18:48</time>
      </trkpt>
      <trkpt lat="43.15771" lon="-0.5841">
        <ele>300.4</ele>
        <time>2022-06-08 09:18:49</time>
      </trkpt>
      <trkpt lat="43.15767" lon="-0.58416">
        <ele>300.4</ele>
        <time>2022-06-08 09:18:50</time>
      </trkpt>
      <trkpt lat="43.15764" lon="-0.58423">
        <ele>300.4</ele>
        <time>2022-06-08 09:18:51</time>
      </trkpt>
      <trkpt lat="43.1576" lon="-0.5843">
        <ele>300.4</ele>
        <time>2022-06-08 09:18:52</time>
      </trkpt>
      <trkpt lat="43.15757" lon="-0.58436">
        <ele>300.4</ele>
        <time>2022-06-08 09:18:53</time>
      </trkpt>
      <trkpt lat="43.15754" lon="-0.58443">
        <ele>300.4</ele>
        <time>2022-06-08 09:18:54</time>
      </trkpt>
      <trkpt lat="43.15751" lon="-0.58449">
        <ele>300.6</ele>
        <time>2022-06-08 09:18:55</time>
      </trkpt>
      <trkpt lat="43.15747" lon="-0.58453">
        <ele>300.6</ele>
        <time>2022-06-08 09:18:56</time>
      </trkpt>
      <trkpt lat="43.15742" lon="-0.58457">
        <ele>300.6</ele>
        <time>2022-06-08 09:18:57</time>
      </trkpt>
      <trkpt lat="43.15737" lon="-0.5846">
        <ele>300.8</ele>
        <time>2022-06-08 09:18:58</time>
      </trkpt>
      <trkpt lat="43.15732" lon="-0.58461">
        <ele>300.8</ele>
        <time>2022-06-08 09:18:59</time>
      </trkpt>
      <trkpt lat="43.15728" lon="-0.58462">
        <ele>301.2</ele>
        <time>2022-06-08 09:19:00</time>
      </trkpt>
      <trkpt lat="43.15724" lon="-0.58463">
        <ele>302</ele>
        <time>2022-06-08 09:19:01</time>
      </trkpt>
      <trkpt lat="43.1572" lon="-0.58463">
        <ele>302.2</ele>
        <time>2022-06-08 09:19:02</time>
      </trkpt>
      <trkpt lat="43.15716" lon="-0.58464">
        <ele>302.8</ele>
        <time>2022-06-08 09:19:03</time>
      </trkpt>
      <trkpt lat="43.15712" lon="-0.58464">
        <ele>303.4</ele>
        <time>2022-06-08 09:19:04</time>
      </trkpt>
      <trkpt lat="43.15708" lon="-0.58464">
        <ele>303.6</ele>
        <time>2022-06-08 09:19:05</time>
      </trkpt>
      <trkpt lat="43.15704" lon="-0.58464">
        <ele>304.4</ele>
        <time>2022-06-08 09:19:06</time>
      </trkpt>
      <trkpt lat="43.15699" lon="-0.58463">
        <ele>304.6</ele>
        <time>2022-06-08 09:19:07</time>
      </trkpt>
      <trkpt lat="43.15694" lon="-0.58463">
        <ele>305.2</ele>
        <time>2022-06-08 09:19:08</time>
      </trkpt>
      <trkpt lat="43.1569" lon="-0.58462">
        <ele>305.2</ele>
        <time>2022-06-08 09:19:09</time>
      </trkpt>
      <trkpt lat="43.15685" lon="-0.58462">
        <ele>305.6</ele>
        <time>2022-06-08 09:19:10</time>
      </trkpt>
      <trkpt lat="43.15681" lon="-0.58461">
        <ele>305.6</ele>
        <time>2022-06-08 09:19:11</time>
      </trkpt>
      <trkpt lat="43.15676" lon="-0.5846">
        <ele>305.8</ele>
        <time>2022-06-08 09:19:12</time>
      </trkpt>
      <trkpt lat="43.15671" lon="-0.58459">
        <ele>306</ele>
        <time>2022-06-08 09:19:13</time>
      </trkpt>
      <trkpt lat="43.15666" lon="-0.58457">
        <ele>306.2</ele>
        <time>2022-06-08 09:19:14</time>
      </trkpt>
      <trkpt lat="43.15661" lon="-0.58456">
        <ele>306.2</ele>
        <time>2022-06-08 09:19:15</time>
      </trkpt>
      <trkpt lat="43.15656" lon="-0.58454">
        <ele>306.4</ele>
        <time>2022-06-08 09:19:16</time>
      </trkpt>
      <trkpt lat="43.1565" lon="-0.58453">
        <ele>306.4</ele>
        <time>2022-06-08 09:19:17</time>
      </trkpt>
      <trkpt lat="43.15645" lon="-0.58452">
        <ele>306.4</ele>
        <time>2022-06-08 09:19:18</time>
      </trkpt>
      <trkpt lat="43.15639" lon="-0.58451">
        <ele>306.4</ele>
        <time>2022-06-08 09:19:19</time>
      </trkpt>
      <trkpt lat="43.15633" lon="-0.5845">
        <ele>306.4</ele>
        <time>2022-06-08 09:19:20</time>
      </trkpt>
      <trkpt lat="43.15627" lon="-0.5845">
        <ele>306.4</ele>
        <time>2022-06-08 09:19:21</time>
      </trkpt>
      <trkpt lat="43.15621" lon="-0.58451">
        <ele>306.4</ele>
        <time>2022-06-08 09:19:22</time>
      </trkpt>
      <trkpt lat="43.15616" lon="-0.58452">
        <ele>306.4</ele>
        <time>2022-06-08 09:19:23</time>
      </trkpt>
      <trkpt lat="43.1561" lon="-0.58451">
        <ele>306.4</ele>
        <time>2022-06-08 09:19:24</time>
      </trkpt>
      <trkpt lat="43.15605" lon="-0.58451">
        <ele>306.6</ele>
        <time>2022-06-08 09:19:25</time>
      </trkpt>
      <trkpt lat="43.156" lon="-0.58451">
        <ele>306.8</ele>
        <time>2022-06-08 09:19:26</time>
      </trkpt>
      <trkpt lat="43.15596" lon="-0.5845">
        <ele>307.2</ele>
        <time>2022-06-08 09:19:27</time>
      </trkpt>
      <trkpt lat="43.15591" lon="-0.5845">
        <ele>307.4</ele>
        <time>2022-06-08 09:19:28</time>
      </trkpt>
      <trkpt lat="43.15587" lon="-0.58449">
        <ele>307.6</ele>
        <time>2022-06-08 09:19:29</time>
      </trkpt>
      <trkpt lat="43.15582" lon="-0.58449">
        <ele>307.6</ele>
        <time>2022-06-08 09:19:30</time>
      </trkpt>
      <trkpt lat="43.15577" lon="-0.58449">
        <ele>308</ele>
        <time>2022-06-08 09:19:31</time>
      </trkpt>
      <trkpt lat="43.15572" lon="-0.58449">
        <ele>308.2</ele>
        <time>2022-06-08 09:19:32</time>
      </trkpt>
      <trkpt lat="43.15568" lon="-0.58449">
        <ele>308.8</ele>
        <time>2022-06-08 09:19:33</time>
      </trkpt>
      <trkpt lat="43.15564" lon="-0.58451">
        <ele>309.2</ele>
        <time>2022-06-08 09:19:34</time>
      </trkpt>
      <trkpt lat="43.1556" lon="-0.58452">
        <ele>309.4</ele>
        <time>2022-06-08 09:19:35</time>
      </trkpt>
      <trkpt lat="43.15556" lon="-0.58454">
        <ele>309.8</ele>
        <time>2022-06-08 09:19:36</time>
      </trkpt>
      <trkpt lat="43.15551" lon="-0.58454">
        <ele>309.8</ele>
        <time>2022-06-08 09:19:37</time>
      </trkpt>
      <trkpt lat="43.15547" lon="-0.58455">
        <ele>310</ele>
        <time>2022-06-08 09:19:38</time>
      </trkpt>
      <trkpt lat="43.15541" lon="-0.58457">
        <ele>310</ele>
        <time>2022-06-08 09:19:39</time>
      </trkpt>
      <trkpt lat="43.15537" lon="-0.58458">
        <ele>310.2</ele>
        <time>2022-06-08 09:19:40</time>
      </trkpt>
      <trkpt lat="43.15531" lon="-0.58459">
        <ele>310.2</ele>
        <time>2022-06-08 09:19:41</time>
      </trkpt>
      <trkpt lat="43.15526" lon="-0.5846">
        <ele>310.4</ele>
        <time>2022-06-08 09:19:42</time>
      </trkpt>
      <trkpt lat="43.15521" lon="-0.58463">
        <ele>310.4</ele>
        <time>2022-06-08 09:19:43</time>
      </trkpt>
      <trkpt lat="43.15515" lon="-0.58465">
        <ele>310.6</ele>
        <time>2022-06-08 09:19:44</time>
      </trkpt>
      <trkpt lat="43.1551" lon="-0.58466">
        <ele>310.6</ele>
        <time>2022-06-08 09:19:45</time>
      </trkpt>
      <trkpt lat="43.15505" lon="-0.58468">
        <ele>310.6</ele>
        <time>2022-06-08 09:19:46</time>
      </trkpt>
      <trkpt lat="43.155" lon="-0.58469">
        <ele>310.6</ele>
        <time>2022-06-08 09:19:47</time>
      </trkpt>
      <trkpt lat="43.15495" lon="-0.5847">
        <ele>310.6</ele>
        <time>2022-06-08 09:19:48</time>
      </trkpt>
      <trkpt lat="43.1549" lon="-0.5847">
        <ele>310.6</ele>
        <time>2022-06-08 09:19:49</time>
      </trkpt>
      <trkpt lat="43.15484" lon="-0.58471">
        <ele>310.6</ele>
        <time>2022-06-08 09:19:50</time>
      </trkpt>
      <trkpt lat="43.15479" lon="-0.58471">
        <ele>310.6</ele>
        <time>2022-06-08 09:19:51</time>
      </trkpt>
      <trkpt lat="43.15474" lon="-0.58471">
        <ele>310.6</ele>
        <time>2022-06-08 09:19:52</time>
      </trkpt>
      <trkpt lat="43.1547" lon="-0.58471">
        <ele>310.6</ele>
        <time>2022-06-08 09:19:53</time>
      </trkpt>
      <trkpt lat="43.15465" lon="-0.5847">
        <ele>310.6</ele>
        <time>2022-06-08 09:19:54</time>
      </trkpt>
      <trkpt lat="43.1546" lon="-0.58468">
        <ele>310.6</ele>
        <time>2022-06-08 09:19:55</time>
      </trkpt>
      <trkpt lat="43.15455" lon="-0.58466">
        <ele>310.6</ele>
        <time>2022-06-08 09:19:56</time>
      </trkpt>
      <trkpt lat="43.15449" lon="-0.58463">
        <ele>310.6</ele>
        <time>2022-06-08 09:19:57</time>
      </trkpt>
      <trkpt lat="43.15443" lon="-0.58461">
        <ele>310.4</ele>
        <time>2022-06-08 09:19:58</time>
      </trkpt>
      <trkpt lat="43.15437" lon="-0.58458">
        <ele>310.4</ele>
        <time>2022-06-08 09:19:59</time>
      </trkpt>
      <trkpt lat="43.15431" lon="-0.58454">
        <ele>310.4</ele>
        <time>2022-06-08 09:20:00</time>
      </trkpt>
      <trkpt lat="43.15425" lon="-0.5845">
        <ele>310.4</ele>
        <time>2022-06-08 09:20:01</time>
      </trkpt>
      <trkpt lat="43.15419" lon="-0.58446">
        <ele>310.4</ele>
        <time>2022-06-08 09:20:02</time>
      </trkpt>
      <trkpt lat="43.15412" lon="-0.58442">
        <ele>310.4</ele>
        <time>2022-06-08 09:20:03</time>
      </trkpt>
      <trkpt lat="43.15408" lon="-0.5844">
        <ele>310.2</ele>
        <time>2022-06-08 09:20:04</time>
      </trkpt>
      <trkpt lat="43.15402" lon="-0.58437">
        <ele>310.2</ele>
        <time>2022-06-08 09:20:05</time>
      </trkpt>
      <trkpt lat="43.15396" lon="-0.58435">
        <ele>310.2</ele>
        <time>2022-06-08 09:20:06</time>
      </trkpt>
      <trkpt lat="43.15391" lon="-0.58433">
        <ele>310.2</ele>
        <time>2022-06-08 09:20:07</time>
      </trkpt>
      <trkpt lat="43.15384" lon="-0.5843">
        <ele>310.2</ele>
        <time>2022-06-08 09:20:08</time>
      </trkpt>
      <trkpt lat="43.15379" lon="-0.58428">
        <ele>310.2</ele>
        <time>2022-06-08 09:20:09</time>
      </trkpt>
      <trkpt lat="43.15373" lon="-0.58426">
        <ele>310.2</ele>
        <time>2022-06-08 09:20:10</time>
      </trkpt>
      <trkpt lat="43.15368" lon="-0.58423">
        <ele>310.2</ele>
        <time>2022-06-08 09:20:11</time>
      </trkpt>
      <trkpt lat="43.15362" lon="-0.58421">
        <ele>310.2</ele>
        <time>2022-06-08 09:20:12</time>
      </trkpt>
      <trkpt lat="43.15356" lon="-0.58418">
        <ele>310.2</ele>
        <time>2022-06-08 09:20:13</time>
      </trkpt>
      <trkpt lat="43.15352" lon="-0.58416">
        <ele>310.6</ele>
        <time>2022-06-08 09:20:14</time>
      </trkpt>
      <trkpt lat="43.15346" lon="-0.58413">
        <ele>310.6</ele>
        <time>2022-06-08 09:20:15</time>
      </trkpt>
      <trkpt lat="43.15341" lon="-0.58411">
        <ele>310.8</ele>
        <time>2022-06-08 09:20:16</time>
      </trkpt>
      <trkpt lat="43.15337" lon="-0.58409">
        <ele>311</ele>
        <time>2022-06-08 09:20:17</time>
      </trkpt>
      <trkpt lat="43.15331" lon="-0.58406">
        <ele>311</ele>
        <time>2022-06-08 09:20:18</time>
      </trkpt>
      <trkpt lat="43.15327" lon="-0.58404">
        <ele>311</ele>
        <time>2022-06-08 09:20:19</time>
      </trkpt>
      <trkpt lat="43.15322" lon="-0.58401">
        <ele>311.2</ele>
        <time>2022-06-08 09:20:20</time>
      </trkpt>
      <trkpt lat="43.15317" lon="-0.58399">
        <ele>311.2</ele>
        <time>2022-06-08 09:20:21</time>
      </trkpt>
      <trkpt lat="43.15311" lon="-0.58396">
        <ele>311.4</ele>
        <time>2022-06-08 09:20:22</time>
      </trkpt>
      <trkpt lat="43.15307" lon="-0.58394">
        <ele>311.4</ele>
        <time>2022-06-08 09:20:23</time>
      </trkpt>
      <trkpt lat="43.15303" lon="-0.58393">
        <ele>311.6</ele>
        <time>2022-06-08 09:20:24</time>
      </trkpt>
      <trkpt lat="43.15297" lon="-0.5839">
        <ele>311.6</ele>
        <time>2022-06-08 09:20:25</time>
      </trkpt>
      <trkpt lat="43.15293" lon="-0.58389">
        <ele>311.8</ele>
        <time>2022-06-08 09:20:26</time>
      </trkpt>
      <trkpt lat="43.15287" lon="-0.58386">
        <ele>311.8</ele>
        <time>2022-06-08 09:20:27</time>
      </trkpt>
      <trkpt lat="43.15283" lon="-0.58384">
        <ele>311.8</ele>
        <time>2022-06-08 09:20:28</time>
      </trkpt>
      <trkpt lat="43.15278" lon="-0.58382">
        <ele>312</ele>
        <time>2022-06-08 09:20:29</time>
      </trkpt>
      <trkpt lat="43.15273" lon="-0.58382">
        <ele>312</ele>
        <time>2022-06-08 09:20:30</time>
      </trkpt>
      <trkpt lat="43.15267" lon="-0.5838">
        <ele>312.4</ele>
        <time>2022-06-08 09:20:31</time>
      </trkpt>
      <trkpt lat="43.15262" lon="-0.58379">
        <ele>312.6</ele>
        <time>2022-06-08 09:20:32</time>
      </trkpt>
      <trkpt lat="43.15257" lon="-0.58377">
        <ele>312.8</ele>
        <time>2022-06-08 09:20:33</time>
      </trkpt>
      <trkpt lat="43.15252" lon="-0.58375">
        <ele>312.8</ele>
        <time>2022-06-08 09:20:34</time>
      </trkpt>
      <trkpt lat="43.15247" lon="-0.58373">
        <ele>313</ele>
        <time>2022-06-08 09:20:35</time>
      </trkpt>
      <trkpt lat="43.15241" lon="-0.5837">
        <ele>313.2</ele>
        <time>2022-06-08 09:20:36</time>
      </trkpt>
      <trkpt lat="43.15237" lon="-0.58369">
        <ele>313.2</ele>
        <time>2022-06-08 09:20:37</time>
      </trkpt>
      <trkpt lat="43.15232" lon="-0.58367">
        <ele>313.4</ele>
        <time>2022-06-08 09:20:38</time>
      </trkpt>
      <trkpt lat="43.15227" lon="-0.58365">
        <ele>313.4</ele>
        <time>2022-06-08 09:20:39</time>
      </trkpt>
      <trkpt lat="43.15223" lon="-0.58364">
        <ele>313.4</ele>
        <time>2022-06-08 09:20:40</time>
      </trkpt>
      <trkpt lat="43.15219" lon="-0.58362">
        <ele>313.6</ele>
        <time>2022-06-08 09:20:41</time>
      </trkpt>
      <trkpt lat="43.15216" lon="-0.58361">
        <ele>313.8</ele>
        <time>2022-06-08 09:20:42</time>
      </trkpt>
      <trkpt lat="43.15212" lon="-0.58359">
        <ele>314</ele>
        <time>2022-06-08 09:20:43</time>
      </trkpt>
      <trkpt lat="43.15207" lon="-0.58357">
        <ele>314</ele>
        <time>2022-06-08 09:20:44</time>
      </trkpt>
      <trkpt lat="43.15202" lon="-0.58355">
        <ele>314.2</ele>
        <time>2022-06-08 09:20:45</time>
      </trkpt>
      <trkpt lat="43.15199" lon="-0.58354">
        <ele>314.4</ele>
        <time>2022-06-08 09:20:46</time>
      </trkpt>
      <trkpt lat="43.15195" lon="-0.58353">
        <ele>314.6</ele>
        <time>2022-06-08 09:20:47</time>
      </trkpt>
      <trkpt lat="43.15191" lon="-0.58351">
        <ele>314.6</ele>
        <time>2022-06-08 09:20:48</time>
      </trkpt>
      <trkpt lat="43.15187" lon="-0.5835">
        <ele>315</ele>
        <time>2022-06-08 09:20:49</time>
      </trkpt>
      <trkpt lat="43.15182" lon="-0.58349">
        <ele>315.2</ele>
        <time>2022-06-08 09:20:50</time>
      </trkpt>
      <trkpt lat="43.15177" lon="-0.58348">
        <ele>315.4</ele>
        <time>2022-06-08 09:20:51</time>
      </trkpt>
      <trkpt lat="43.15172" lon="-0.58346">
        <ele>315.6</ele>
        <time>2022-06-08 09:20:52</time>
      </trkpt>
      <trkpt lat="43.15165" lon="-0.58345">
        <ele>315.6</ele>
        <time>2022-06-08 09:20:53</time>
      </trkpt>
      <trkpt lat="43.1516" lon="-0.58343">
        <ele>315.8</ele>
        <time>2022-06-08 09:20:54</time>
      </trkpt>
      <trkpt lat="43.15153" lon="-0.58341">
        <ele>315.8</ele>
        <time>2022-06-08 09:20:55</time>
      </trkpt>
      <trkpt lat="43.15146" lon="-0.5834">
        <ele>315.8</ele>
        <time>2022-06-08 09:20:56</time>
      </trkpt>
      <trkpt lat="43.15138" lon="-0.58339">
        <ele>315.8</ele>
        <time>2022-06-08 09:20:57</time>
      </trkpt>
      <trkpt lat="43.1513" lon="-0.58337">
        <ele>315.8</ele>
        <time>2022-06-08 09:20:58</time>
      </trkpt>
      <trkpt lat="43.15122" lon="-0.58335">
        <ele>315.8</ele>
        <time>2022-06-08 09:20:59</time>
      </trkpt>
      <trkpt lat="43.15114" lon="-0.58333">
        <ele>315.6</ele>
        <time>2022-06-08 09:21:00</time>
      </trkpt>
      <trkpt lat="43.15108" lon="-0.5833">
        <ele>315.4</ele>
        <time>2022-06-08 09:21:01</time>
      </trkpt>
      <trkpt lat="43.15101" lon="-0.58325">
        <ele>314.8</ele>
        <time>2022-06-08 09:21:02</time>
      </trkpt>
      <trkpt lat="43.15094" lon="-0.58319">
        <ele>314.6</ele>
        <time>2022-06-08 09:21:03</time>
      </trkpt>
      <trkpt lat="43.15088" lon="-0.58313">
        <ele>314.2</ele>
        <time>2022-06-08 09:21:04</time>
      </trkpt>
      <trkpt lat="43.15083" lon="-0.58308">
        <ele>313.8</ele>
        <time>2022-06-08 09:21:05</time>
      </trkpt>
      <trkpt lat="43.15078" lon="-0.58301">
        <ele>313.6</ele>
        <time>2022-06-08 09:21:06</time>
      </trkpt>
      <trkpt lat="43.15071" lon="-0.58292">
        <ele>313.8</ele>
        <time>2022-06-08 09:21:07</time>
      </trkpt>
      <trkpt lat="43.15064" lon="-0.58283">
        <ele>313.6</ele>
        <time>2022-06-08 09:21:08</time>
      </trkpt>
      <trkpt lat="43.15058" lon="-0.58275">
        <ele>313.4</ele>
        <time>2022-06-08 09:21:09</time>
      </trkpt>
      <trkpt lat="43.15051" lon="-0.58266">
        <ele>313.4</ele>
        <time>2022-06-08 09:21:10</time>
      </trkpt>
      <trkpt lat="43.15047" lon="-0.5826">
        <ele>313.2</ele>
        <time>2022-06-08 09:21:11</time>
      </trkpt>
      <trkpt lat="43.15042" lon="-0.58253">
        <ele>313</ele>
        <time>2022-06-08 09:21:12</time>
      </trkpt>
      <trkpt lat="43.15036" lon="-0.58246">
        <ele>312.8</ele>
        <time>2022-06-08 09:21:13</time>
      </trkpt>
      <trkpt lat="43.15031" lon="-0.58239">
        <ele>312.8</ele>
        <time>2022-06-08 09:21:14</time>
      </trkpt>
      <trkpt lat="43.15027" lon="-0.58232">
        <ele>312.4</ele>
        <time>2022-06-08 09:21:15</time>
      </trkpt>
      <trkpt lat="43.15023" lon="-0.58225">
        <ele>312.2</ele>
        <time>2022-06-08 09:21:16</time>
      </trkpt>
      <trkpt lat="43.15017" lon="-0.58217">
        <ele>312</ele>
        <time>2022-06-08 09:21:17</time>
      </trkpt>
      <trkpt lat="43.15013" lon="-0.58208">
        <ele>312</ele>
        <time>2022-06-08 09:21:18</time>
      </trkpt>
      <trkpt lat="43.1501" lon="-0.582">
        <ele>311.8</ele>
        <time>2022-06-08 09:21:19</time>
      </trkpt>
      <trkpt lat="43.15007" lon="-0.58193">
        <ele>311.8</ele>
        <time>2022-06-08 09:21:20</time>
      </trkpt>
      <trkpt lat="43.15003" lon="-0.58185">
        <ele>311.6</ele>
        <time>2022-06-08 09:21:21</time>
      </trkpt>
      <trkpt lat="43.14998" lon="-0.58174">
        <ele>311.6</ele>
        <time>2022-06-08 09:21:22</time>
      </trkpt>
      <trkpt lat="43.14995" lon="-0.58167">
        <ele>311.6</ele>
        <time>2022-06-08 09:21:23</time>
      </trkpt>
      <trkpt lat="43.1499" lon="-0.58158">
        <ele>311.6</ele>
        <time>2022-06-08 09:21:24</time>
      </trkpt>
      <trkpt lat="43.14984" lon="-0.5815">
        <ele>311.6</ele>
        <time>2022-06-08 09:21:25</time>
      </trkpt>
      <trkpt lat="43.14979" lon="-0.58141">
        <ele>311.4</ele>
        <time>2022-06-08 09:21:26</time>
      </trkpt>
      <trkpt lat="43.14973" lon="-0.58132">
        <ele>311.2</ele>
        <time>2022-06-08 09:21:27</time>
      </trkpt>
      <trkpt lat="43.14967" lon="-0.58122">
        <ele>311</ele>
        <time>2022-06-08 09:21:28</time>
      </trkpt>
      <trkpt lat="43.14963" lon="-0.58115">
        <ele>310.8</ele>
        <time>2022-06-08 09:21:29</time>
      </trkpt>
      <trkpt lat="43.14957" lon="-0.58108">
        <ele>310.8</ele>
        <time>2022-06-08 09:21:30</time>
      </trkpt>
      <trkpt lat="43.14951" lon="-0.581">
        <ele>310.6</ele>
        <time>2022-06-08 09:21:31</time>
      </trkpt>
      <trkpt lat="43.14945" lon="-0.58093">
        <ele>310.6</ele>
        <time>2022-06-08 09:21:32</time>
      </trkpt>
      <trkpt lat="43.14938" lon="-0.58085">
        <ele>310.4</ele>
        <time>2022-06-08 09:21:33</time>
      </trkpt>
      <trkpt lat="43.14934" lon="-0.58079">
        <ele>310.4</ele>
        <time>2022-06-08 09:21:34</time>
      </trkpt>
      <trkpt lat="43.14929" lon="-0.58073">
        <ele>310.4</ele>
        <time>2022-06-08 09:21:35</time>
      </trkpt>
      <trkpt lat="43.14923" lon="-0.58065">
        <ele>310.6</ele>
        <time>2022-06-08 09:21:36</time>
      </trkpt>
      <trkpt lat="43.14919" lon="-0.5806">
        <ele>310.6</ele>
        <time>2022-06-08 09:21:37</time>
      </trkpt>
      <trkpt lat="43.14914" lon="-0.58053">
        <ele>311</ele>
        <time>2022-06-08 09:21:38</time>
      </trkpt>
      <trkpt lat="43.14911" lon="-0.58048">
        <ele>311</ele>
        <time>2022-06-08 09:21:39</time>
      </trkpt>
      <trkpt lat="43.14908" lon="-0.58042">
        <ele>311.2</ele>
        <time>2022-06-08 09:21:40</time>
      </trkpt>
      <trkpt lat="43.14906" lon="-0.58036">
        <ele>311.4</ele>
        <time>2022-06-08 09:21:41</time>
      </trkpt>
      <trkpt lat="43.14904" lon="-0.58029">
        <ele>311.6</ele>
        <time>2022-06-08 09:21:42</time>
      </trkpt>
      <trkpt lat="43.14902" lon="-0.58023">
        <ele>312.2</ele>
        <time>2022-06-08 09:21:43</time>
      </trkpt>
      <trkpt lat="43.14902" lon="-0.58019">
        <ele>312.4</ele>
        <time>2022-06-08 09:21:44</time>
      </trkpt>
      <trkpt lat="43.14902" lon="-0.58013">
        <ele>312.6</ele>
        <time>2022-06-08 09:21:45</time>
      </trkpt>
      <trkpt lat="43.14902" lon="-0.58007">
        <ele>312.8</ele>
        <time>2022-06-08 09:21:46</time>
      </trkpt>
      <trkpt lat="43.14902" lon="-0.58">
        <ele>313</ele>
        <time>2022-06-08 09:21:47</time>
      </trkpt>
      <trkpt lat="43.14903" lon="-0.57996">
        <ele>313.4</ele>
        <time>2022-06-08 09:21:48</time>
      </trkpt>
      <trkpt lat="43.14903" lon="-0.5799">
        <ele>313.6</ele>
        <time>2022-06-08 09:21:49</time>
      </trkpt>
      <trkpt lat="43.14904" lon="-0.57984">
        <ele>313.8</ele>
        <time>2022-06-08 09:21:50</time>
      </trkpt>
      <trkpt lat="43.14904" lon="-0.57978">
        <ele>314</ele>
        <time>2022-06-08 09:21:51</time>
      </trkpt>
      <trkpt lat="43.14905" lon="-0.57971">
        <ele>314.2</ele>
        <time>2022-06-08 09:21:52</time>
      </trkpt>
      <trkpt lat="43.14905" lon="-0.57966">
        <ele>314.2</ele>
        <time>2022-06-08 09:21:53</time>
      </trkpt>
      <trkpt lat="43.14904" lon="-0.57959">
        <ele>314.2</ele>
        <time>2022-06-08 09:21:54</time>
      </trkpt>
      <trkpt lat="43.14904" lon="-0.57951">
        <ele>314.2</ele>
        <time>2022-06-08 09:21:55</time>
      </trkpt>
      <trkpt lat="43.14903" lon="-0.57943">
        <ele>314.2</ele>
        <time>2022-06-08 09:21:56</time>
      </trkpt>
      <trkpt lat="43.14903" lon="-0.57937">
        <ele>314.2</ele>
        <time>2022-06-08 09:21:57</time>
      </trkpt>
      <trkpt lat="43.14902" lon="-0.57928">
        <ele>314.2</ele>
        <time>2022-06-08 09:21:58</time>
      </trkpt>
      <trkpt lat="43.14901" lon="-0.57919">
        <ele>314.2</ele>
        <time>2022-06-08 09:21:59</time>
      </trkpt>
      <trkpt lat="43.149" lon="-0.57908">
        <ele>314.2</ele>
        <time>2022-06-08 09:22:00</time>
      </trkpt>
      <trkpt lat="43.14899" lon="-0.57899">
        <ele>314</ele>
        <time>2022-06-08 09:22:01</time>
      </trkpt>
      <trkpt lat="43.14897" lon="-0.57891">
        <ele>313.8</ele>
        <time>2022-06-08 09:22:02</time>
      </trkpt>
      <trkpt lat="43.14894" lon="-0.57882">
        <ele>313.8</ele>
        <time>2022-06-08 09:22:03</time>
      </trkpt>
      <trkpt lat="43.14891" lon="-0.57872">
        <ele>313.4</ele>
        <time>2022-06-08 09:22:04</time>
      </trkpt>
      <trkpt lat="43.14887" lon="-0.57863">
        <ele>313.4</ele>
        <time>2022-06-08 09:22:05</time>
      </trkpt>
      <trkpt lat="43.14882" lon="-0.57854">
        <ele>312.8</ele>
        <time>2022-06-08 09:22:06</time>
      </trkpt>
      <trkpt lat="43.14878" lon="-0.57849">
        <ele>312.6</ele>
        <time>2022-06-08 09:22:07</time>
      </trkpt>
      <trkpt lat="43.14873" lon="-0.57842">
        <ele>312.2</ele>
        <time>2022-06-08 09:22:08</time>
      </trkpt>
      <trkpt lat="43.14868" lon="-0.57837">
        <ele>312</ele>
        <time>2022-06-08 09:22:09</time>
      </trkpt>
      <trkpt lat="43.14862" lon="-0.5783">
        <ele>311.8</ele>
        <time>2022-06-08 09:22:10</time>
      </trkpt>
      <trkpt lat="43.14857" lon="-0.57824">
        <ele>311.6</ele>
        <time>2022-06-08 09:22:11</time>
      </trkpt>
      <trkpt lat="43.14853" lon="-0.57819">
        <ele>311.6</ele>
        <time>2022-06-08 09:22:12</time>
      </trkpt>
      <trkpt lat="43.14849" lon="-0.57814">
        <ele>311.6</ele>
        <time>2022-06-08 09:22:13</time>
      </trkpt>
      <trkpt lat="43.14844" lon="-0.57807">
        <ele>311.6</ele>
        <time>2022-06-08 09:22:14</time>
      </trkpt>
      <trkpt lat="43.14839" lon="-0.57801">
        <ele>311.6</ele>
        <time>2022-06-08 09:22:15</time>
      </trkpt>
      <trkpt lat="43.14834" lon="-0.57794">
        <ele>311.4</ele>
        <time>2022-06-08 09:22:16</time>
      </trkpt>
      <trkpt lat="43.14831" lon="-0.57788">
        <ele>311.2</ele>
        <time>2022-06-08 09:22:17</time>
      </trkpt>
      <trkpt lat="43.14826" lon="-0.5778">
        <ele>311.2</ele>
        <time>2022-06-08 09:22:18</time>
      </trkpt>
      <trkpt lat="43.14822" lon="-0.5777">
        <ele>311.2</ele>
        <time>2022-06-08 09:22:19</time>
      </trkpt>
      <trkpt lat="43.14818" lon="-0.57757">
        <ele>311</ele>
        <time>2022-06-08 09:22:20</time>
      </trkpt>
      <trkpt lat="43.14814" lon="-0.57745">
        <ele>311</ele>
        <time>2022-06-08 09:22:21</time>
      </trkpt>
      <trkpt lat="43.1481" lon="-0.57736">
        <ele>310.8</ele>
        <time>2022-06-08 09:22:22</time>
      </trkpt>
      <trkpt lat="43.14804" lon="-0.57725">
        <ele>309.8</ele>
        <time>2022-06-08 09:22:23</time>
      </trkpt>
      <trkpt lat="43.14794" lon="-0.57715">
        <ele>309.4</ele>
        <time>2022-06-08 09:22:24</time>
      </trkpt>
      <trkpt lat="43.14784" lon="-0.57708">
        <ele>307.8</ele>
        <time>2022-06-08 09:22:25</time>
      </trkpt>
      <trkpt lat="43.14777" lon="-0.57706">
        <ele>307</ele>
        <time>2022-06-08 09:22:26</time>
      </trkpt>
      <trkpt lat="43.14766" lon="-0.57706">
        <ele>305.6</ele>
        <time>2022-06-08 09:22:27</time>
      </trkpt>
      <trkpt lat="43.14754" lon="-0.57706">
        <ele>304.2</ele>
        <time>2022-06-08 09:22:28</time>
      </trkpt>
      <trkpt lat="43.14746" lon="-0.57707">
        <ele>303.6</ele>
        <time>2022-06-08 09:22:29</time>
      </trkpt>
      <trkpt lat="43.14737" lon="-0.57708">
        <ele>302.6</ele>
        <time>2022-06-08 09:22:30</time>
      </trkpt>
      <trkpt lat="43.14728" lon="-0.57708">
        <ele>302.4</ele>
        <time>2022-06-08 09:22:31</time>
      </trkpt>
      <trkpt lat="43.14719" lon="-0.57709">
        <ele>301.8</ele>
        <time>2022-06-08 09:22:32</time>
      </trkpt>
      <trkpt lat="43.14711" lon="-0.57709">
        <ele>301.6</ele>
        <time>2022-06-08 09:22:33</time>
      </trkpt>
      <trkpt lat="43.14703" lon="-0.57709">
        <ele>301.4</ele>
        <time>2022-06-08 09:22:34</time>
      </trkpt>
      <trkpt lat="43.14694" lon="-0.57709">
        <ele>301.4</ele>
        <time>2022-06-08 09:22:35</time>
      </trkpt>
      <trkpt lat="43.14688" lon="-0.5771">
        <ele>301.6</ele>
        <time>2022-06-08 09:22:36</time>
      </trkpt>
      <trkpt lat="43.14681" lon="-0.57711">
        <ele>301.8</ele>
        <time>2022-06-08 09:22:37</time>
      </trkpt>
      <trkpt lat="43.14673" lon="-0.57711">
        <ele>301.8</ele>
        <time>2022-06-08 09:22:38</time>
      </trkpt>
      <trkpt lat="43.14665" lon="-0.5771">
        <ele>302</ele>
        <time>2022-06-08 09:22:39</time>
      </trkpt>
      <trkpt lat="43.14656" lon="-0.5771">
        <ele>302</ele>
        <time>2022-06-08 09:22:40</time>
      </trkpt>
      <trkpt lat="43.14647" lon="-0.57709">
        <ele>302</ele>
        <time>2022-06-08 09:22:41</time>
      </trkpt>
      <trkpt lat="43.14639" lon="-0.57706">
        <ele>301.8</ele>
        <time>2022-06-08 09:22:42</time>
      </trkpt>
      <trkpt lat="43.14631" lon="-0.577">
        <ele>301.8</ele>
        <time>2022-06-08 09:22:43</time>
      </trkpt>
      <trkpt lat="43.14623" lon="-0.57692">
        <ele>301.6</ele>
        <time>2022-06-08 09:22:44</time>
      </trkpt>
      <trkpt lat="43.14619" lon="-0.57685">
        <ele>301.6</ele>
        <time>2022-06-08 09:22:45</time>
      </trkpt>
      <trkpt lat="43.14613" lon="-0.57676">
        <ele>301.6</ele>
        <time>2022-06-08 09:22:46</time>
      </trkpt>
      <trkpt lat="43.14607" lon="-0.57666">
        <ele>301.6</ele>
        <time>2022-06-08 09:22:47</time>
      </trkpt>
      <trkpt lat="43.14602" lon="-0.57659">
        <ele>301.6</ele>
        <time>2022-06-08 09:22:48</time>
      </trkpt>
      <trkpt lat="43.14599" lon="-0.57653">
        <ele>301.6</ele>
        <time>2022-06-08 09:22:49</time>
      </trkpt>
      <trkpt lat="43.14594" lon="-0.57646">
        <ele>301.6</ele>
        <time>2022-06-08 09:22:50</time>
      </trkpt>
      <trkpt lat="43.1459" lon="-0.57639">
        <ele>301.6</ele>
        <time>2022-06-08 09:22:51</time>
      </trkpt>
      <trkpt lat="43.14586" lon="-0.5763">
        <ele>301.8</ele>
        <time>2022-06-08 09:22:52</time>
      </trkpt>
      <trkpt lat="43.14583" lon="-0.57625">
        <ele>302.2</ele>
        <time>2022-06-08 09:22:53</time>
      </trkpt>
      <trkpt lat="43.14579" lon="-0.57619">
        <ele>302.6</ele>
        <time>2022-06-08 09:22:54</time>
      </trkpt>
      <trkpt lat="43.14576" lon="-0.57613">
        <ele>303.2</ele>
        <time>2022-06-08 09:22:55</time>
      </trkpt>
      <trkpt lat="43.14572" lon="-0.57607">
        <ele>303.4</ele>
        <time>2022-06-08 09:22:56</time>
      </trkpt>
      <trkpt lat="43.14568" lon="-0.57601">
        <ele>303.8</ele>
        <time>2022-06-08 09:22:57</time>
      </trkpt>
      <trkpt lat="43.14565" lon="-0.57595">
        <ele>304.6</ele>
        <time>2022-06-08 09:22:58</time>
      </trkpt>
      <trkpt lat="43.14562" lon="-0.57589">
        <ele>305</ele>
        <time>2022-06-08 09:22:59</time>
      </trkpt>
      <trkpt lat="43.14558" lon="-0.57584">
        <ele>305.4</ele>
        <time>2022-06-08 09:23:00</time>
      </trkpt>
      <trkpt lat="43.14555" lon="-0.57578">
        <ele>305.6</ele>
        <time>2022-06-08 09:23:01</time>
      </trkpt>
      <trkpt lat="43.14552" lon="-0.57572">
        <ele>305.8</ele>
        <time>2022-06-08 09:23:02</time>
      </trkpt>
      <trkpt lat="43.14547" lon="-0.57564">
        <ele>306</ele>
        <time>2022-06-08 09:23:03</time>
      </trkpt>
      <trkpt lat="43.14544" lon="-0.57558">
        <ele>306</ele>
        <time>2022-06-08 09:23:04</time>
      </trkpt>
      <trkpt lat="43.1454" lon="-0.57552">
        <ele>306</ele>
        <time>2022-06-08 09:23:05</time>
      </trkpt>
      <trkpt lat="43.14536" lon="-0.57545">
        <ele>306</ele>
        <time>2022-06-08 09:23:06</time>
      </trkpt>
      <trkpt lat="43.14533" lon="-0.57537">
        <ele>306</ele>
        <time>2022-06-08 09:23:07</time>
      </trkpt>
      <trkpt lat="43.14529" lon="-0.5753">
        <ele>306</ele>
        <time>2022-06-08 09:23:08</time>
      </trkpt>
      <trkpt lat="43.14525" lon="-0.57523">
        <ele>306</ele>
        <time>2022-06-08 09:23:09</time>
      </trkpt>
      <trkpt lat="43.1452" lon="-0.57515">
        <ele>305.6</ele>
        <time>2022-06-08 09:23:10</time>
      </trkpt>
      <trkpt lat="43.14516" lon="-0.57506">
        <ele>305.6</ele>
        <time>2022-06-08 09:23:11</time>
      </trkpt>
      <trkpt lat="43.14511" lon="-0.57498">
        <ele>305.2</ele>
        <time>2022-06-08 09:23:12</time>
      </trkpt>
      <trkpt lat="43.14506" lon="-0.57489">
        <ele>304.8</ele>
        <time>2022-06-08 09:23:13</time>
      </trkpt>
      <trkpt lat="43.14506" lon="-0.57489">
        <ele>304.4</ele>
        <time>2022-06-08 09:23:14</time>
      </trkpt>
      <trkpt lat="43.14496" lon="-0.57472">
        <ele>303.8</ele>
        <time>2022-06-08 09:23:15</time>
      </trkpt>
      <trkpt lat="43.1449" lon="-0.57464">
        <ele>303.8</ele>
        <time>2022-06-08 09:23:16</time>
      </trkpt>
      <trkpt lat="43.14484" lon="-0.57457">
        <ele>303.6</ele>
        <time>2022-06-08 09:23:17</time>
      </trkpt>
      <trkpt lat="43.14476" lon="-0.57449">
        <ele>303.6</ele>
        <time>2022-06-08 09:23:18</time>
      </trkpt>
      <trkpt lat="43.1447" lon="-0.57444">
        <ele>303</ele>
        <time>2022-06-08 09:23:19</time>
      </trkpt>
      <trkpt lat="43.14464" lon="-0.57439">
        <ele>302.8</ele>
        <time>2022-06-08 09:23:20</time>
      </trkpt>
      <trkpt lat="43.14457" lon="-0.57433">
        <ele>302.4</ele>
        <time>2022-06-08 09:23:21</time>
      </trkpt>
      <trkpt lat="43.14451" lon="-0.57428">
        <ele>302.4</ele>
        <time>2022-06-08 09:23:22</time>
      </trkpt>
      <trkpt lat="43.14445" lon="-0.57423">
        <ele>302</ele>
        <time>2022-06-08 09:23:23</time>
      </trkpt>
      <trkpt lat="43.14438" lon="-0.57418">
        <ele>302</ele>
        <time>2022-06-08 09:23:24</time>
      </trkpt>
      <trkpt lat="43.14432" lon="-0.57413">
        <ele>301.8</ele>
        <time>2022-06-08 09:23:25</time>
      </trkpt>
      <trkpt lat="43.14426" lon="-0.57408">
        <ele>301.8</ele>
        <time>2022-06-08 09:23:26</time>
      </trkpt>
      <trkpt lat="43.14419" lon="-0.57403">
        <ele>301.6</ele>
        <time>2022-06-08 09:23:27</time>
      </trkpt>
      <trkpt lat="43.14414" lon="-0.57398">
        <ele>301.6</ele>
        <time>2022-06-08 09:23:28</time>
      </trkpt>
      <trkpt lat="43.14408" lon="-0.57394">
        <ele>301.6</ele>
        <time>2022-06-08 09:23:29</time>
      </trkpt>
      <trkpt lat="43.14402" lon="-0.5739">
        <ele>301.6</ele>
        <time>2022-06-08 09:23:30</time>
      </trkpt>
      <trkpt lat="43.14397" lon="-0.57385">
        <ele>301.6</ele>
        <time>2022-06-08 09:23:31</time>
      </trkpt>
      <trkpt lat="43.14392" lon="-0.57381">
        <ele>301.8</ele>
        <time>2022-06-08 09:23:32</time>
      </trkpt>
      <trkpt lat="43.14387" lon="-0.57376">
        <ele>302</ele>
        <time>2022-06-08 09:23:33</time>
      </trkpt>
      <trkpt lat="43.14383" lon="-0.57371">
        <ele>302.4</ele>
        <time>2022-06-08 09:23:34</time>
      </trkpt>
      <trkpt lat="43.14378" lon="-0.57367">
        <ele>302.4</ele>
        <time>2022-06-08 09:23:35</time>
      </trkpt>
      <trkpt lat="43.14374" lon="-0.57362">
        <ele>303</ele>
        <time>2022-06-08 09:23:36</time>
      </trkpt>
      <trkpt lat="43.1437" lon="-0.57358">
        <ele>303.2</ele>
        <time>2022-06-08 09:23:37</time>
      </trkpt>
      <trkpt lat="43.14366" lon="-0.57353">
        <ele>303.6</ele>
        <time>2022-06-08 09:23:38</time>
      </trkpt>
      <trkpt lat="43.14362" lon="-0.57348">
        <ele>304</ele>
        <time>2022-06-08 09:23:39</time>
      </trkpt>
      <trkpt lat="43.14358" lon="-0.57343">
        <ele>304.2</ele>
        <time>2022-06-08 09:23:40</time>
      </trkpt>
      <trkpt lat="43.14354" lon="-0.57338">
        <ele>304.6</ele>
        <time>2022-06-08 09:23:41</time>
      </trkpt>
      <trkpt lat="43.1435" lon="-0.57334">
        <ele>304.6</ele>
        <time>2022-06-08 09:23:42</time>
      </trkpt>
      <trkpt lat="43.14346" lon="-0.57329">
        <ele>305</ele>
        <time>2022-06-08 09:23:43</time>
      </trkpt>
      <trkpt lat="43.14342" lon="-0.57324">
        <ele>305.2</ele>
        <time>2022-06-08 09:23:44</time>
      </trkpt>
      <trkpt lat="43.14338" lon="-0.57319">
        <ele>305.6</ele>
        <time>2022-06-08 09:23:45</time>
      </trkpt>
      <trkpt lat="43.14334" lon="-0.57315">
        <ele>305.8</ele>
        <time>2022-06-08 09:23:46</time>
      </trkpt>
      <trkpt lat="43.1433" lon="-0.5731">
        <ele>306</ele>
        <time>2022-06-08 09:23:47</time>
      </trkpt>
      <trkpt lat="43.14326" lon="-0.57305">
        <ele>306</ele>
        <time>2022-06-08 09:23:48</time>
      </trkpt>
      <trkpt lat="43.14322" lon="-0.573">
        <ele>306.2</ele>
        <time>2022-06-08 09:23:49</time>
      </trkpt>
      <trkpt lat="43.14317" lon="-0.57295">
        <ele>306.2</ele>
        <time>2022-06-08 09:23:50</time>
      </trkpt>
      <trkpt lat="43.14313" lon="-0.5729">
        <ele>306.2</ele>
        <time>2022-06-08 09:23:51</time>
      </trkpt>
      <trkpt lat="43.14309" lon="-0.57285">
        <ele>306.2</ele>
        <time>2022-06-08 09:23:52</time>
      </trkpt>
      <trkpt lat="43.14304" lon="-0.5728">
        <ele>306.2</ele>
        <time>2022-06-08 09:23:53</time>
      </trkpt>
      <trkpt lat="43.14299" lon="-0.57275">
        <ele>306.2</ele>
        <time>2022-06-08 09:23:54</time>
      </trkpt>
      <trkpt lat="43.14295" lon="-0.5727">
        <ele>306.2</ele>
        <time>2022-06-08 09:23:55</time>
      </trkpt>
      <trkpt lat="43.1429" lon="-0.57265">
        <ele>306.2</ele>
        <time>2022-06-08 09:23:56</time>
      </trkpt>
      <trkpt lat="43.14285" lon="-0.5726">
        <ele>306.2</ele>
        <time>2022-06-08 09:23:57</time>
      </trkpt>
      <trkpt lat="43.1428" lon="-0.57254">
        <ele>306.2</ele>
        <time>2022-06-08 09:23:58</time>
      </trkpt>
      <trkpt lat="43.14275" lon="-0.57249">
        <ele>306.2</ele>
        <time>2022-06-08 09:23:59</time>
      </trkpt>
      <trkpt lat="43.1427" lon="-0.57244">
        <ele>306.4</ele>
        <time>2022-06-08 09:24:00</time>
      </trkpt>
      <trkpt lat="43.14265" lon="-0.57239">
        <ele>306.4</ele>
        <time>2022-06-08 09:24:01</time>
      </trkpt>
      <trkpt lat="43.14259" lon="-0.57233">
        <ele>306.6</ele>
        <time>2022-06-08 09:24:02</time>
      </trkpt>
      <trkpt lat="43.14255" lon="-0.5723">
        <ele>306.8</ele>
        <time>2022-06-08 09:24:03</time>
      </trkpt>
      <trkpt lat="43.1425" lon="-0.57225">
        <ele>307</ele>
        <time>2022-06-08 09:24:04</time>
      </trkpt>
      <trkpt lat="43.14245" lon="-0.57221">
        <ele>307</ele>
        <time>2022-06-08 09:24:05</time>
      </trkpt>
      <trkpt lat="43.1424" lon="-0.57217">
        <ele>307</ele>
        <time>2022-06-08 09:24:06</time>
      </trkpt>
      <trkpt lat="43.14234" lon="-0.57213">
        <ele>307.2</ele>
        <time>2022-06-08 09:24:07</time>
      </trkpt>
      <trkpt lat="43.1423" lon="-0.5721">
        <ele>307.2</ele>
        <time>2022-06-08 09:24:08</time>
      </trkpt>
      <trkpt lat="43.14225" lon="-0.57208">
        <ele>307.4</ele>
        <time>2022-06-08 09:24:09</time>
      </trkpt>
      <trkpt lat="43.14219" lon="-0.57204">
        <ele>307.6</ele>
        <time>2022-06-08 09:24:10</time>
      </trkpt>
      <trkpt lat="43.14214" lon="-0.57202">
        <ele>307.6</ele>
        <time>2022-06-08 09:24:11</time>
      </trkpt>
      <trkpt lat="43.14209" lon="-0.57199">
        <ele>307.6</ele>
        <time>2022-06-08 09:24:12</time>
      </trkpt>
      <trkpt lat="43.14204" lon="-0.57197">
        <ele>307.8</ele>
        <time>2022-06-08 09:24:13</time>
      </trkpt>
      <trkpt lat="43.14198" lon="-0.57194">
        <ele>308</ele>
        <time>2022-06-08 09:24:14</time>
      </trkpt>
      <trkpt lat="43.14192" lon="-0.57191">
        <ele>308</ele>
        <time>2022-06-08 09:24:15</time>
      </trkpt>
      <trkpt lat="43.14186" lon="-0.57187">
        <ele>308</ele>
        <time>2022-06-08 09:24:16</time>
      </trkpt>
      <trkpt lat="43.14182" lon="-0.57184">
        <ele>308</ele>
        <time>2022-06-08 09:24:17</time>
      </trkpt>
      <trkpt lat="43.14177" lon="-0.57181">
        <ele>308</ele>
        <time>2022-06-08 09:24:18</time>
      </trkpt>
      <trkpt lat="43.14177" lon="-0.57181">
        <ele>308.2</ele>
        <time>2022-06-08 09:24:19</time>
      </trkpt>
      <trkpt lat="43.14166" lon="-0.57174">
        <ele>308.2</ele>
        <time>2022-06-08 09:24:20</time>
      </trkpt>
      <trkpt lat="43.1416" lon="-0.57169">
        <ele>308.2</ele>
        <time>2022-06-08 09:24:21</time>
      </trkpt>
      <trkpt lat="43.14156" lon="-0.57165">
        <ele>308.2</ele>
        <time>2022-06-08 09:24:22</time>
      </trkpt>
      <trkpt lat="43.14152" lon="-0.57161">
        <ele>308.2</ele>
        <time>2022-06-08 09:24:23</time>
      </trkpt>
      <trkpt lat="43.14147" lon="-0.57156">
        <ele>308.2</ele>
        <time>2022-06-08 09:24:24</time>
      </trkpt>
      <trkpt lat="43.14143" lon="-0.57151">
        <ele>308.4</ele>
        <time>2022-06-08 09:24:25</time>
      </trkpt>
      <trkpt lat="43.14138" lon="-0.57145">
        <ele>308.6</ele>
        <time>2022-06-08 09:24:26</time>
      </trkpt>
      <trkpt lat="43.14134" lon="-0.5714">
        <ele>308.6</ele>
        <time>2022-06-08 09:24:27</time>
      </trkpt>
      <trkpt lat="43.14131" lon="-0.57135">
        <ele>309</ele>
        <time>2022-06-08 09:24:28</time>
      </trkpt>
      <trkpt lat="43.14127" lon="-0.57131">
        <ele>309.2</ele>
        <time>2022-06-08 09:24:29</time>
      </trkpt>
      <trkpt lat="43.14124" lon="-0.57126">
        <ele>309.6</ele>
        <time>2022-06-08 09:24:30</time>
      </trkpt>
      <trkpt lat="43.14121" lon="-0.57122">
        <ele>309.8</ele>
        <time>2022-06-08 09:24:31</time>
      </trkpt>
      <trkpt lat="43.14118" lon="-0.57118">
        <ele>310.2</ele>
        <time>2022-06-08 09:24:32</time>
      </trkpt>
      <trkpt lat="43.14115" lon="-0.57114">
        <ele>310.4</ele>
        <time>2022-06-08 09:24:33</time>
      </trkpt>
      <trkpt lat="43.14112" lon="-0.5711">
        <ele>310.6</ele>
        <time>2022-06-08 09:24:34</time>
      </trkpt>
      <trkpt lat="43.14109" lon="-0.57107">
        <ele>310.8</ele>
        <time>2022-06-08 09:24:35</time>
      </trkpt>
      <trkpt lat="43.14107" lon="-0.57103">
        <ele>311.2</ele>
        <time>2022-06-08 09:24:36</time>
      </trkpt>
      <trkpt lat="43.14104" lon="-0.571">
        <ele>311.6</ele>
        <time>2022-06-08 09:24:37</time>
      </trkpt>
      <trkpt lat="43.14101" lon="-0.57097">
        <ele>312</ele>
        <time>2022-06-08 09:24:38</time>
      </trkpt>
      <trkpt lat="43.14098" lon="-0.57095">
        <ele>312.4</ele>
        <time>2022-06-08 09:24:39</time>
      </trkpt>
      <trkpt lat="43.14095" lon="-0.57091">
        <ele>312.6</ele>
        <time>2022-06-08 09:24:40</time>
      </trkpt>
      <trkpt lat="43.14093" lon="-0.57089">
        <ele>313.4</ele>
        <time>2022-06-08 09:24:41</time>
      </trkpt>
      <trkpt lat="43.14091" lon="-0.57087">
        <ele>313.6</ele>
        <time>2022-06-08 09:24:42</time>
      </trkpt>
      <trkpt lat="43.14088" lon="-0.57085">
        <ele>314.2</ele>
        <time>2022-06-08 09:24:43</time>
      </trkpt>
      <trkpt lat="43.14085" lon="-0.57083">
        <ele>314.4</ele>
        <time>2022-06-08 09:24:44</time>
      </trkpt>
      <trkpt lat="43.14083" lon="-0.57081">
        <ele>315</ele>
        <time>2022-06-08 09:24:45</time>
      </trkpt>
      <trkpt lat="43.1408" lon="-0.5708">
        <ele>315.2</ele>
        <time>2022-06-08 09:24:46</time>
      </trkpt>
      <trkpt lat="43.14077" lon="-0.57079">
        <ele>315.8</ele>
        <time>2022-06-08 09:24:47</time>
      </trkpt>
      <trkpt lat="43.14074" lon="-0.57079">
        <ele>316</ele>
        <time>2022-06-08 09:24:48</time>
      </trkpt>
      <trkpt lat="43.14072" lon="-0.57077">
        <ele>316.4</ele>
        <time>2022-06-08 09:24:49</time>
      </trkpt>
      <trkpt lat="43.14068" lon="-0.57076">
        <ele>316.6</ele>
        <time>2022-06-08 09:24:50</time>
      </trkpt>
      <trkpt lat="43.14066" lon="-0.57075">
        <ele>317.2</ele>
        <time>2022-06-08 09:24:51</time>
      </trkpt>
      <trkpt lat="43.14063" lon="-0.57074">
        <ele>317.6</ele>
        <time>2022-06-08 09:24:52</time>
      </trkpt>
      <trkpt lat="43.1406" lon="-0.57073">
        <ele>317.8</ele>
        <time>2022-06-08 09:24:53</time>
      </trkpt>
      <trkpt lat="43.14058" lon="-0.57072">
        <ele>318</ele>
        <time>2022-06-08 09:24:54</time>
      </trkpt>
      <trkpt lat="43.14054" lon="-0.5707">
        <ele>318.2</ele>
        <time>2022-06-08 09:24:55</time>
      </trkpt>
      <trkpt lat="43.14052" lon="-0.57069">
        <ele>318.8</ele>
        <time>2022-06-08 09:24:56</time>
      </trkpt>
      <trkpt lat="43.14049" lon="-0.57067">
        <ele>319.2</ele>
        <time>2022-06-08 09:24:57</time>
      </trkpt>
      <trkpt lat="43.14047" lon="-0.57065">
        <ele>319.6</ele>
        <time>2022-06-08 09:24:58</time>
      </trkpt>
      <trkpt lat="43.14044" lon="-0.57063">
        <ele>319.6</ele>
        <time>2022-06-08 09:24:59</time>
      </trkpt>
      <trkpt lat="43.14042" lon="-0.57061">
        <ele>320</ele>
        <time>2022-06-08 09:25:00</time>
      </trkpt>
      <trkpt lat="43.1404" lon="-0.57059">
        <ele>320.2</ele>
        <time>2022-06-08 09:25:01</time>
      </trkpt>
      <trkpt lat="43.14037" lon="-0.57055">
        <ele>320.6</ele>
        <time>2022-06-08 09:25:02</time>
      </trkpt>
      <trkpt lat="43.14035" lon="-0.57052">
        <ele>320.8</ele>
        <time>2022-06-08 09:25:03</time>
      </trkpt>
      <trkpt lat="43.14033" lon="-0.5705">
        <ele>321.2</ele>
        <time>2022-06-08 09:25:04</time>
      </trkpt>
      <trkpt lat="43.14031" lon="-0.57047">
        <ele>321.4</ele>
        <time>2022-06-08 09:25:05</time>
      </trkpt>
      <trkpt lat="43.14029" lon="-0.57045">
        <ele>321.6</ele>
        <time>2022-06-08 09:25:06</time>
      </trkpt>
      <trkpt lat="43.14027" lon="-0.57042">
        <ele>321.8</ele>
        <time>2022-06-08 09:25:07</time>
      </trkpt>
      <trkpt lat="43.14025" lon="-0.57039">
        <ele>322</ele>
        <time>2022-06-08 09:25:08</time>
      </trkpt>
      <trkpt lat="43.14022" lon="-0.57035">
        <ele>322.2</ele>
        <time>2022-06-08 09:25:09</time>
      </trkpt>
      <trkpt lat="43.1402" lon="-0.57032">
        <ele>322.4</ele>
        <time>2022-06-08 09:25:10</time>
      </trkpt>
      <trkpt lat="43.14018" lon="-0.57029">
        <ele>322.8</ele>
        <time>2022-06-08 09:25:11</time>
      </trkpt>
      <trkpt lat="43.14015" lon="-0.57025">
        <ele>322.8</ele>
        <time>2022-06-08 09:25:12</time>
      </trkpt>
      <trkpt lat="43.14013" lon="-0.57022">
        <ele>323.2</ele>
        <time>2022-06-08 09:25:13</time>
      </trkpt>
      <trkpt lat="43.14011" lon="-0.57019">
        <ele>323.4</ele>
        <time>2022-06-08 09:25:14</time>
      </trkpt>
      <trkpt lat="43.14009" lon="-0.57015">
        <ele>323.6</ele>
        <time>2022-06-08 09:25:15</time>
      </trkpt>
      <trkpt lat="43.14006" lon="-0.57011">
        <ele>323.6</ele>
        <time>2022-06-08 09:25:16</time>
      </trkpt>
      <trkpt lat="43.14003" lon="-0.57007">
        <ele>323.8</ele>
        <time>2022-06-08 09:25:17</time>
      </trkpt>
      <trkpt lat="43.14001" lon="-0.57003">
        <ele>324</ele>
        <time>2022-06-08 09:25:18</time>
      </trkpt>
      <trkpt lat="43.13999" lon="-0.57">
        <ele>324</ele>
        <time>2022-06-08 09:25:19</time>
      </trkpt>
      <trkpt lat="43.13996" lon="-0.56997">
        <ele>324.2</ele>
        <time>2022-06-08 09:25:20</time>
      </trkpt>
      <trkpt lat="43.13993" lon="-0.56993">
        <ele>324.2</ele>
        <time>2022-06-08 09:25:21</time>
      </trkpt>
      <trkpt lat="43.1399" lon="-0.56989">
        <ele>324.4</ele>
        <time>2022-06-08 09:25:22</time>
      </trkpt>
      <trkpt lat="43.13988" lon="-0.56986">
        <ele>324.6</ele>
        <time>2022-06-08 09:25:23</time>
      </trkpt>
      <trkpt lat="43.13986" lon="-0.56983">
        <ele>324.8</ele>
        <time>2022-06-08 09:25:24</time>
      </trkpt>
      <trkpt lat="43.13984" lon="-0.5698">
        <ele>325</ele>
        <time>2022-06-08 09:25:25</time>
      </trkpt>
      <trkpt lat="43.13982" lon="-0.56977">
        <ele>325.2</ele>
        <time>2022-06-08 09:25:26</time>
      </trkpt>
      <trkpt lat="43.13979" lon="-0.56974">
        <ele>325.2</ele>
        <time>2022-06-08 09:25:27</time>
      </trkpt>
      <trkpt lat="43.13976" lon="-0.5697">
        <ele>325.4</ele>
        <time>2022-06-08 09:25:28</time>
      </trkpt>
      <trkpt lat="43.13973" lon="-0.56966">
        <ele>325.4</ele>
        <time>2022-06-08 09:25:29</time>
      </trkpt>
      <trkpt lat="43.1397" lon="-0.56962">
        <ele>325.8</ele>
        <time>2022-06-08 09:25:30</time>
      </trkpt>
      <trkpt lat="43.13966" lon="-0.56957">
        <ele>325.8</ele>
        <time>2022-06-08 09:25:31</time>
      </trkpt>
      <trkpt lat="43.13963" lon="-0.56953">
        <ele>326</ele>
        <time>2022-06-08 09:25:32</time>
      </trkpt>
      <trkpt lat="43.1396" lon="-0.5695">
        <ele>326</ele>
        <time>2022-06-08 09:25:33</time>
      </trkpt>
      <trkpt lat="43.13957" lon="-0.56946">
        <ele>326.2</ele>
        <time>2022-06-08 09:25:34</time>
      </trkpt>
      <trkpt lat="43.13952" lon="-0.56941">
        <ele>326.2</ele>
        <time>2022-06-08 09:25:35</time>
      </trkpt>
      <trkpt lat="43.13949" lon="-0.56936">
        <ele>326.2</ele>
        <time>2022-06-08 09:25:36</time>
      </trkpt>
      <trkpt lat="43.13946" lon="-0.56932">
        <ele>326.2</ele>
        <time>2022-06-08 09:25:37</time>
      </trkpt>
      <trkpt lat="43.13942" lon="-0.56927">
        <ele>326.2</ele>
        <time>2022-06-08 09:25:38</time>
      </trkpt>
      <trkpt lat="43.13937" lon="-0.56921">
        <ele>326.2</ele>
        <time>2022-06-08 09:25:39</time>
      </trkpt>
      <trkpt lat="43.13932" lon="-0.56914">
        <ele>326.2</ele>
        <time>2022-06-08 09:25:40</time>
      </trkpt>
      <trkpt lat="43.13929" lon="-0.56909">
        <ele>326.2</ele>
        <time>2022-06-08 09:25:41</time>
      </trkpt>
      <trkpt lat="43.13924" lon="-0.56903">
        <ele>326.2</ele>
        <time>2022-06-08 09:25:42</time>
      </trkpt>
      <trkpt lat="43.1392" lon="-0.56896">
        <ele>326.2</ele>
        <time>2022-06-08 09:25:43</time>
      </trkpt>
      <trkpt lat="43.13916" lon="-0.56889">
        <ele>326.2</ele>
        <time>2022-06-08 09:25:44</time>
      </trkpt>
      <trkpt lat="43.1391" lon="-0.56881">
        <ele>326</ele>
        <time>2022-06-08 09:25:45</time>
      </trkpt>
      <trkpt lat="43.13905" lon="-0.56875">
        <ele>325.8</ele>
        <time>2022-06-08 09:25:46</time>
      </trkpt>
      <trkpt lat="43.13901" lon="-0.56871">
        <ele>325.6</ele>
        <time>2022-06-08 09:25:47</time>
      </trkpt>
      <trkpt lat="43.13896" lon="-0.56866">
        <ele>325.2</ele>
        <time>2022-06-08 09:25:48</time>
      </trkpt>
      <trkpt lat="43.13891" lon="-0.56861">
        <ele>325</ele>
        <time>2022-06-08 09:25:49</time>
      </trkpt>
      <trkpt lat="43.13885" lon="-0.56856">
        <ele>324.6</ele>
        <time>2022-06-08 09:25:50</time>
      </trkpt>
      <trkpt lat="43.13879" lon="-0.56851">
        <ele>324.4</ele>
        <time>2022-06-08 09:25:51</time>
      </trkpt>
      <trkpt lat="43.13873" lon="-0.56846">
        <ele>324.4</ele>
        <time>2022-06-08 09:25:52</time>
      </trkpt>
      <trkpt lat="43.13867" lon="-0.56841">
        <ele>324.2</ele>
        <time>2022-06-08 09:25:53</time>
      </trkpt>
      <trkpt lat="43.1386" lon="-0.56835">
        <ele>324.2</ele>
        <time>2022-06-08 09:25:54</time>
      </trkpt>
      <trkpt lat="43.13857" lon="-0.56831">
        <ele>324</ele>
        <time>2022-06-08 09:25:55</time>
      </trkpt>
      <trkpt lat="43.13851" lon="-0.56826">
        <ele>324</ele>
        <time>2022-06-08 09:25:56</time>
      </trkpt>
      <trkpt lat="43.13845" lon="-0.5682">
        <ele>323.8</ele>
        <time>2022-06-08 09:25:57</time>
      </trkpt>
      <trkpt lat="43.13839" lon="-0.56814">
        <ele>323.8</ele>
        <time>2022-06-08 09:25:58</time>
      </trkpt>
      <trkpt lat="43.13833" lon="-0.56806">
        <ele>323.6</ele>
        <time>2022-06-08 09:25:59</time>
      </trkpt>
      <trkpt lat="43.13828" lon="-0.56798">
        <ele>323.4</ele>
        <time>2022-06-08 09:26:00</time>
      </trkpt>
      <trkpt lat="43.13824" lon="-0.56792">
        <ele>323.4</ele>
        <time>2022-06-08 09:26:01</time>
      </trkpt>
      <trkpt lat="43.1382" lon="-0.56783">
        <ele>323.2</ele>
        <time>2022-06-08 09:26:02</time>
      </trkpt>
      <trkpt lat="43.13815" lon="-0.56772">
        <ele>323</ele>
        <time>2022-06-08 09:26:03</time>
      </trkpt>
      <trkpt lat="43.13812" lon="-0.56764">
        <ele>322.8</ele>
        <time>2022-06-08 09:26:04</time>
      </trkpt>
      <trkpt lat="43.13808" lon="-0.56755">
        <ele>322.8</ele>
        <time>2022-06-08 09:26:05</time>
      </trkpt>
      <trkpt lat="43.13805" lon="-0.56745">
        <ele>322.6</ele>
        <time>2022-06-08 09:26:06</time>
      </trkpt>
      <trkpt lat="43.13801" lon="-0.56735">
        <ele>322.4</ele>
        <time>2022-06-08 09:26:07</time>
      </trkpt>
      <trkpt lat="43.13798" lon="-0.56725">
        <ele>322.2</ele>
        <time>2022-06-08 09:26:08</time>
      </trkpt>
      <trkpt lat="43.13794" lon="-0.56715">
        <ele>321.8</ele>
        <time>2022-06-08 09:26:09</time>
      </trkpt>
      <trkpt lat="43.1379" lon="-0.56705">
        <ele>321.6</ele>
        <time>2022-06-08 09:26:10</time>
      </trkpt>
      <trkpt lat="43.13786" lon="-0.56696">
        <ele>321.4</ele>
        <time>2022-06-08 09:26:11</time>
      </trkpt>
      <trkpt lat="43.13783" lon="-0.56686">
        <ele>321.2</ele>
        <time>2022-06-08 09:26:12</time>
      </trkpt>
      <trkpt lat="43.13779" lon="-0.56676">
        <ele>320.8</ele>
        <time>2022-06-08 09:26:13</time>
      </trkpt>
      <trkpt lat="43.13774" lon="-0.56665">
        <ele>320.6</ele>
        <time>2022-06-08 09:26:14</time>
      </trkpt>
      <trkpt lat="43.1377" lon="-0.56656">
        <ele>320.4</ele>
        <time>2022-06-08 09:26:15</time>
      </trkpt>
      <trkpt lat="43.13766" lon="-0.56648">
        <ele>320</ele>
        <time>2022-06-08 09:26:16</time>
      </trkpt>
      <trkpt lat="43.13761" lon="-0.56639">
        <ele>319.8</ele>
        <time>2022-06-08 09:26:17</time>
      </trkpt>
      <trkpt lat="43.13757" lon="-0.56629">
        <ele>319.8</ele>
        <time>2022-06-08 09:26:18</time>
      </trkpt>
      <trkpt lat="43.13752" lon="-0.56617">
        <ele>319.8</ele>
        <time>2022-06-08 09:26:19</time>
      </trkpt>
      <trkpt lat="43.1375" lon="-0.56609">
        <ele>319.6</ele>
        <time>2022-06-08 09:26:20</time>
      </trkpt>
      <trkpt lat="43.13749" lon="-0.56598">
        <ele>319.6</ele>
        <time>2022-06-08 09:26:21</time>
      </trkpt>
      <trkpt lat="43.13747" lon="-0.56586">
        <ele>319.6</ele>
        <time>2022-06-08 09:26:22</time>
      </trkpt>
      <trkpt lat="43.13745" lon="-0.56576">
        <ele>319.6</ele>
        <time>2022-06-08 09:26:23</time>
      </trkpt>
      <trkpt lat="43.13744" lon="-0.56568">
        <ele>319.6</ele>
        <time>2022-06-08 09:26:24</time>
      </trkpt>
      <trkpt lat="43.13743" lon="-0.56559">
        <ele>319.6</ele>
        <time>2022-06-08 09:26:25</time>
      </trkpt>
      <trkpt lat="43.13742" lon="-0.5655">
        <ele>319.8</ele>
        <time>2022-06-08 09:26:26</time>
      </trkpt>
      <trkpt lat="43.13741" lon="-0.56539">
        <ele>319.8</ele>
        <time>2022-06-08 09:26:27</time>
      </trkpt>
      <trkpt lat="43.1374" lon="-0.56532">
        <ele>320</ele>
        <time>2022-06-08 09:26:28</time>
      </trkpt>
      <trkpt lat="43.13738" lon="-0.56521">
        <ele>320</ele>
        <time>2022-06-08 09:26:29</time>
      </trkpt>
      <trkpt lat="43.13737" lon="-0.56514">
        <ele>320</ele>
        <time>2022-06-08 09:26:30</time>
      </trkpt>
      <trkpt lat="43.13734" lon="-0.56505">
        <ele>320.2</ele>
        <time>2022-06-08 09:26:31</time>
      </trkpt>
      <trkpt lat="43.1373" lon="-0.56497">
        <ele>320.2</ele>
        <time>2022-06-08 09:26:32</time>
      </trkpt>
      <trkpt lat="43.13724" lon="-0.56489">
        <ele>320.2</ele>
        <time>2022-06-08 09:26:33</time>
      </trkpt>
      <trkpt lat="43.13718" lon="-0.56484">
        <ele>320.2</ele>
        <time>2022-06-08 09:26:34</time>
      </trkpt>
      <trkpt lat="43.1371" lon="-0.56479">
        <ele>320.2</ele>
        <time>2022-06-08 09:26:35</time>
      </trkpt>
      <trkpt lat="43.13702" lon="-0.56471">
        <ele>320</ele>
        <time>2022-06-08 09:26:36</time>
      </trkpt>
      <trkpt lat="43.13696" lon="-0.56461">
        <ele>319.8</ele>
        <time>2022-06-08 09:26:37</time>
      </trkpt>
      <trkpt lat="43.13692" lon="-0.56452">
        <ele>319.8</ele>
        <time>2022-06-08 09:26:38</time>
      </trkpt>
      <trkpt lat="43.13688" lon="-0.56439">
        <ele>319.4</ele>
        <time>2022-06-08 09:26:39</time>
      </trkpt>
      <trkpt lat="43.13686" lon="-0.56426">
        <ele>318.4</ele>
        <time>2022-06-08 09:26:40</time>
      </trkpt>
      <trkpt lat="43.13684" lon="-0.5641">
        <ele>317.4</ele>
        <time>2022-06-08 09:26:41</time>
      </trkpt>
      <trkpt lat="43.13684" lon="-0.56397">
        <ele>316.6</ele>
        <time>2022-06-08 09:26:42</time>
      </trkpt>
      <trkpt lat="43.13683" lon="-0.56386">
        <ele>315.8</ele>
        <time>2022-06-08 09:26:43</time>
      </trkpt>
      <trkpt lat="43.13682" lon="-0.56373">
        <ele>315.4</ele>
        <time>2022-06-08 09:26:44</time>
      </trkpt>
      <trkpt lat="43.13681" lon="-0.5636">
        <ele>315</ele>
        <time>2022-06-08 09:26:45</time>
      </trkpt>
      <trkpt lat="43.1368" lon="-0.56347">
        <ele>314.6</ele>
        <time>2022-06-08 09:26:46</time>
      </trkpt>
      <trkpt lat="43.13678" lon="-0.56332">
        <ele>314.2</ele>
        <time>2022-06-08 09:26:47</time>
      </trkpt>
      <trkpt lat="43.13677" lon="-0.56322">
        <ele>314</ele>
        <time>2022-06-08 09:26:48</time>
      </trkpt>
      <trkpt lat="43.13675" lon="-0.5631">
        <ele>313.8</ele>
        <time>2022-06-08 09:26:49</time>
      </trkpt>
      <trkpt lat="43.13673" lon="-0.56295">
        <ele>313.8</ele>
        <time>2022-06-08 09:26:50</time>
      </trkpt>
      <trkpt lat="43.13671" lon="-0.56286">
        <ele>313.8</ele>
        <time>2022-06-08 09:26:51</time>
      </trkpt>
      <trkpt lat="43.1367" lon="-0.56274">
        <ele>313.8</ele>
        <time>2022-06-08 09:26:52</time>
      </trkpt>
      <trkpt lat="43.13668" lon="-0.56263">
        <ele>313.8</ele>
        <time>2022-06-08 09:26:53</time>
      </trkpt>
      <trkpt lat="43.13666" lon="-0.56251">
        <ele>313.8</ele>
        <time>2022-06-08 09:26:54</time>
      </trkpt>
      <trkpt lat="43.13664" lon="-0.5624">
        <ele>313.8</ele>
        <time>2022-06-08 09:26:55</time>
      </trkpt>
      <trkpt lat="43.13661" lon="-0.5623">
        <ele>314.2</ele>
        <time>2022-06-08 09:26:56</time>
      </trkpt>
      <trkpt lat="43.13657" lon="-0.56218">
        <ele>314.4</ele>
        <time>2022-06-08 09:26:57</time>
      </trkpt>
      <trkpt lat="43.13655" lon="-0.56211">
        <ele>314.6</ele>
        <time>2022-06-08 09:26:58</time>
      </trkpt>
      <trkpt lat="43.13651" lon="-0.56202">
        <ele>314.8</ele>
        <time>2022-06-08 09:26:59</time>
      </trkpt>
      <trkpt lat="43.13648" lon="-0.56193">
        <ele>315</ele>
        <time>2022-06-08 09:27:00</time>
      </trkpt>
      <trkpt lat="43.13644" lon="-0.56182">
        <ele>315.2</ele>
        <time>2022-06-08 09:27:01</time>
      </trkpt>
      <trkpt lat="43.13642" lon="-0.56175">
        <ele>315.4</ele>
        <time>2022-06-08 09:27:02</time>
      </trkpt>
      <trkpt lat="43.13639" lon="-0.56167">
        <ele>316.2</ele>
        <time>2022-06-08 09:27:03</time>
      </trkpt>
      <trkpt lat="43.13636" lon="-0.56157">
        <ele>316.8</ele>
        <time>2022-06-08 09:27:04</time>
      </trkpt>
      <trkpt lat="43.13633" lon="-0.5615">
        <ele>317.2</ele>
        <time>2022-06-08 09:27:05</time>
      </trkpt>
      <trkpt lat="43.1363" lon="-0.5614">
        <ele>317.4</ele>
        <time>2022-06-08 09:27:06</time>
      </trkpt>
      <trkpt lat="43.13628" lon="-0.56134">
        <ele>317.6</ele>
        <time>2022-06-08 09:27:07</time>
      </trkpt>
      <trkpt lat="43.13625" lon="-0.56126">
        <ele>317.6</ele>
        <time>2022-06-08 09:27:08</time>
      </trkpt>
      <trkpt lat="43.13623" lon="-0.56118">
        <ele>317.8</ele>
        <time>2022-06-08 09:27:09</time>
      </trkpt>
      <trkpt lat="43.1362" lon="-0.56109">
        <ele>317.8</ele>
        <time>2022-06-08 09:27:10</time>
      </trkpt>
      <trkpt lat="43.13617" lon="-0.56102">
        <ele>318</ele>
        <time>2022-06-08 09:27:11</time>
      </trkpt>
      <trkpt lat="43.13615" lon="-0.56096">
        <ele>318.2</ele>
        <time>2022-06-08 09:27:12</time>
      </trkpt>
      <trkpt lat="43.13612" lon="-0.56089">
        <ele>318.4</ele>
        <time>2022-06-08 09:27:13</time>
      </trkpt>
      <trkpt lat="43.13609" lon="-0.56082">
        <ele>318.6</ele>
        <time>2022-06-08 09:27:14</time>
      </trkpt>
      <trkpt lat="43.13606" lon="-0.56075">
        <ele>318.8</ele>
        <time>2022-06-08 09:27:15</time>
      </trkpt>
      <trkpt lat="43.13603" lon="-0.56069">
        <ele>319.2</ele>
        <time>2022-06-08 09:27:16</time>
      </trkpt>
      <trkpt lat="43.13601" lon="-0.56063">
        <ele>319.4</ele>
        <time>2022-06-08 09:27:17</time>
      </trkpt>
      <trkpt lat="43.13598" lon="-0.56057">
        <ele>319.6</ele>
        <time>2022-06-08 09:27:18</time>
      </trkpt>
      <trkpt lat="43.13595" lon="-0.56051">
        <ele>319.8</ele>
        <time>2022-06-08 09:27:19</time>
      </trkpt>
      <trkpt lat="43.13593" lon="-0.56045">
        <ele>320.2</ele>
        <time>2022-06-08 09:27:20</time>
      </trkpt>
      <trkpt lat="43.1359" lon="-0.56039">
        <ele>320.2</ele>
        <time>2022-06-08 09:27:21</time>
      </trkpt>
      <trkpt lat="43.13587" lon="-0.56034">
        <ele>320.6</ele>
        <time>2022-06-08 09:27:22</time>
      </trkpt>
      <trkpt lat="43.13583" lon="-0.56028">
        <ele>320.8</ele>
        <time>2022-06-08 09:27:23</time>
      </trkpt>
      <trkpt lat="43.13579" lon="-0.56022">
        <ele>321</ele>
        <time>2022-06-08 09:27:24</time>
      </trkpt>
      <trkpt lat="43.13575" lon="-0.56017">
        <ele>321</ele>
        <time>2022-06-08 09:27:25</time>
      </trkpt>
      <trkpt lat="43.13575" lon="-0.56017">
        <ele>321.2</ele>
        <time>2022-06-08 09:27:26</time>
      </trkpt>
      <trkpt lat="43.13567" lon="-0.56007">
        <ele>321.4</ele>
        <time>2022-06-08 09:27:27</time>
      </trkpt>
      <trkpt lat="43.13563" lon="-0.56001">
        <ele>321.4</ele>
        <time>2022-06-08 09:27:28</time>
      </trkpt>
      <trkpt lat="43.13559" lon="-0.55996">
        <ele>321.4</ele>
        <time>2022-06-08 09:27:29</time>
      </trkpt>
      <trkpt lat="43.13555" lon="-0.55991">
        <ele>321.4</ele>
        <time>2022-06-08 09:27:30</time>
      </trkpt>
      <trkpt lat="43.13551" lon="-0.55986">
        <ele>321.6</ele>
        <time>2022-06-08 09:27:31</time>
      </trkpt>
      <trkpt lat="43.13546" lon="-0.55981">
        <ele>321.6</ele>
        <time>2022-06-08 09:27:32</time>
      </trkpt>
      <trkpt lat="43.13542" lon="-0.55977">
        <ele>321.8</ele>
        <time>2022-06-08 09:27:33</time>
      </trkpt>
      <trkpt lat="43.13538" lon="-0.55972">
        <ele>321.8</ele>
        <time>2022-06-08 09:27:34</time>
      </trkpt>
      <trkpt lat="43.13535" lon="-0.55968">
        <ele>322</ele>
        <time>2022-06-08 09:27:35</time>
      </trkpt>
      <trkpt lat="43.13531" lon="-0.55964">
        <ele>322.2</ele>
        <time>2022-06-08 09:27:36</time>
      </trkpt>
      <trkpt lat="43.13527" lon="-0.55959">
        <ele>322.2</ele>
        <time>2022-06-08 09:27:37</time>
      </trkpt>
      <trkpt lat="43.13524" lon="-0.55955">
        <ele>322.4</ele>
        <time>2022-06-08 09:27:38</time>
      </trkpt>
      <trkpt lat="43.1352" lon="-0.55951">
        <ele>322.6</ele>
        <time>2022-06-08 09:27:39</time>
      </trkpt>
      <trkpt lat="43.13516" lon="-0.55947">
        <ele>323</ele>
        <time>2022-06-08 09:27:40</time>
      </trkpt>
      <trkpt lat="43.13513" lon="-0.55942">
        <ele>323.8</ele>
        <time>2022-06-08 09:27:41</time>
      </trkpt>
      <trkpt lat="43.13509" lon="-0.55938">
        <ele>324.2</ele>
        <time>2022-06-08 09:27:42</time>
      </trkpt>
      <trkpt lat="43.13505" lon="-0.55934">
        <ele>324.4</ele>
        <time>2022-06-08 09:27:43</time>
      </trkpt>
      <trkpt lat="43.13502" lon="-0.5593">
        <ele>324.6</ele>
        <time>2022-06-08 09:27:44</time>
      </trkpt>
      <trkpt lat="43.13499" lon="-0.55925">
        <ele>324.6</ele>
        <time>2022-06-08 09:27:45</time>
      </trkpt>
      <trkpt lat="43.13495" lon="-0.55921">
        <ele>324.8</ele>
        <time>2022-06-08 09:27:46</time>
      </trkpt>
      <trkpt lat="43.13492" lon="-0.55917">
        <ele>324.8</ele>
        <time>2022-06-08 09:27:47</time>
      </trkpt>
      <trkpt lat="43.13488" lon="-0.55913">
        <ele>325</ele>
        <time>2022-06-08 09:27:48</time>
      </trkpt>
      <trkpt lat="43.13485" lon="-0.55909">
        <ele>325.2</ele>
        <time>2022-06-08 09:27:49</time>
      </trkpt>
      <trkpt lat="43.13482" lon="-0.55905">
        <ele>325.4</ele>
        <time>2022-06-08 09:27:50</time>
      </trkpt>
      <trkpt lat="43.13478" lon="-0.55901">
        <ele>325.6</ele>
        <time>2022-06-08 09:27:51</time>
      </trkpt>
      <trkpt lat="43.13475" lon="-0.55898">
        <ele>326</ele>
        <time>2022-06-08 09:27:52</time>
      </trkpt>
      <trkpt lat="43.13471" lon="-0.55894">
        <ele>326</ele>
        <time>2022-06-08 09:27:53</time>
      </trkpt>
      <trkpt lat="43.13468" lon="-0.5589">
        <ele>326.4</ele>
        <time>2022-06-08 09:27:54</time>
      </trkpt>
      <trkpt lat="43.13465" lon="-0.55886">
        <ele>326.6</ele>
        <time>2022-06-08 09:27:55</time>
      </trkpt>
      <trkpt lat="43.13462" lon="-0.55882">
        <ele>327</ele>
        <time>2022-06-08 09:27:56</time>
      </trkpt>
      <trkpt lat="43.13459" lon="-0.55878">
        <ele>327.4</ele>
        <time>2022-06-08 09:27:57</time>
      </trkpt>
      <trkpt lat="43.13456" lon="-0.55874">
        <ele>327.6</ele>
        <time>2022-06-08 09:27:58</time>
      </trkpt>
      <trkpt lat="43.13453" lon="-0.5587">
        <ele>328</ele>
        <time>2022-06-08 09:27:59</time>
      </trkpt>
      <trkpt lat="43.1345" lon="-0.55867">
        <ele>328.2</ele>
        <time>2022-06-08 09:28:00</time>
      </trkpt>
      <trkpt lat="43.13447" lon="-0.55863">
        <ele>328.4</ele>
        <time>2022-06-08 09:28:01</time>
      </trkpt>
      <trkpt lat="43.13444" lon="-0.5586">
        <ele>328.6</ele>
        <time>2022-06-08 09:28:02</time>
      </trkpt>
      <trkpt lat="43.13441" lon="-0.55856">
        <ele>328.8</ele>
        <time>2022-06-08 09:28:03</time>
      </trkpt>
      <trkpt lat="43.13438" lon="-0.55853">
        <ele>329</ele>
        <time>2022-06-08 09:28:04</time>
      </trkpt>
      <trkpt lat="43.13435" lon="-0.55849">
        <ele>329.2</ele>
        <time>2022-06-08 09:28:05</time>
      </trkpt>
      <trkpt lat="43.13432" lon="-0.55846">
        <ele>329.4</ele>
        <time>2022-06-08 09:28:06</time>
      </trkpt>
      <trkpt lat="43.13429" lon="-0.55842">
        <ele>329.6</ele>
        <time>2022-06-08 09:28:07</time>
      </trkpt>
      <trkpt lat="43.13425" lon="-0.55838">
        <ele>329.8</ele>
        <time>2022-06-08 09:28:08</time>
      </trkpt>
      <trkpt lat="43.13422" lon="-0.55834">
        <ele>330.2</ele>
        <time>2022-06-08 09:28:09</time>
      </trkpt>
      <trkpt lat="43.13419" lon="-0.5583">
        <ele>330.4</ele>
        <time>2022-06-08 09:28:10</time>
      </trkpt>
      <trkpt lat="43.13416" lon="-0.55826">
        <ele>330.4</ele>
        <time>2022-06-08 09:28:11</time>
      </trkpt>
      <trkpt lat="43.13412" lon="-0.55822">
        <ele>330.6</ele>
        <time>2022-06-08 09:28:12</time>
      </trkpt>
      <trkpt lat="43.13409" lon="-0.55818">
        <ele>330.6</ele>
        <time>2022-06-08 09:28:13</time>
      </trkpt>
      <trkpt lat="43.13406" lon="-0.55814">
        <ele>330.8</ele>
        <time>2022-06-08 09:28:14</time>
      </trkpt>
      <trkpt lat="43.13403" lon="-0.5581">
        <ele>330.8</ele>
        <time>2022-06-08 09:28:15</time>
      </trkpt>
      <trkpt lat="43.13399" lon="-0.55806">
        <ele>331.4</ele>
        <time>2022-06-08 09:28:16</time>
      </trkpt>
      <trkpt lat="43.13396" lon="-0.55802">
        <ele>331.6</ele>
        <time>2022-06-08 09:28:17</time>
      </trkpt>
      <trkpt lat="43.13393" lon="-0.55798">
        <ele>332</ele>
        <time>2022-06-08 09:28:18</time>
      </trkpt>
      <trkpt lat="43.1339" lon="-0.55794">
        <ele>332.2</ele>
        <time>2022-06-08 09:28:19</time>
      </trkpt>
      <trkpt lat="43.13387" lon="-0.55791">
        <ele>332.8</ele>
        <time>2022-06-08 09:28:20</time>
      </trkpt>
      <trkpt lat="43.13384" lon="-0.55787">
        <ele>332.8</ele>
        <time>2022-06-08 09:28:21</time>
      </trkpt>
      <trkpt lat="43.1338" lon="-0.55784">
        <ele>333.2</ele>
        <time>2022-06-08 09:28:22</time>
      </trkpt>
      <trkpt lat="43.13377" lon="-0.55781">
        <ele>333.4</ele>
        <time>2022-06-08 09:28:23</time>
      </trkpt>
      <trkpt lat="43.13374" lon="-0.55777">
        <ele>333.6</ele>
        <time>2022-06-08 09:28:24</time>
      </trkpt>
      <trkpt lat="43.13371" lon="-0.55774">
        <ele>333.8</ele>
        <time>2022-06-08 09:28:25</time>
      </trkpt>
      <trkpt lat="43.13368" lon="-0.55771">
        <ele>333.8</ele>
        <time>2022-06-08 09:28:26</time>
      </trkpt>
      <trkpt lat="43.13365" lon="-0.55768">
        <ele>334.2</ele>
        <time>2022-06-08 09:28:27</time>
      </trkpt>
      <trkpt lat="43.13361" lon="-0.55765">
        <ele>334.2</ele>
        <time>2022-06-08 09:28:28</time>
      </trkpt>
      <trkpt lat="43.13358" lon="-0.55762">
        <ele>334.4</ele>
        <time>2022-06-08 09:28:29</time>
      </trkpt>
      <trkpt lat="43.13354" lon="-0.5576">
        <ele>334.6</ele>
        <time>2022-06-08 09:28:30</time>
      </trkpt>
      <trkpt lat="43.1335" lon="-0.55758">
        <ele>334.8</ele>
        <time>2022-06-08 09:28:31</time>
      </trkpt>
      <trkpt lat="43.13346" lon="-0.55755">
        <ele>335</ele>
        <time>2022-06-08 09:28:32</time>
      </trkpt>
      <trkpt lat="43.13341" lon="-0.55752">
        <ele>335.2</ele>
        <time>2022-06-08 09:28:33</time>
      </trkpt>
      <trkpt lat="43.13336" lon="-0.5575">
        <ele>335.4</ele>
        <time>2022-06-08 09:28:34</time>
      </trkpt>
      <trkpt lat="43.13332" lon="-0.55747">
        <ele>335.4</ele>
        <time>2022-06-08 09:28:35</time>
      </trkpt>
      <trkpt lat="43.13328" lon="-0.55744">
        <ele>335.4</ele>
        <time>2022-06-08 09:28:36</time>
      </trkpt>
      <trkpt lat="43.13323" lon="-0.55741">
        <ele>335.4</ele>
        <time>2022-06-08 09:28:37</time>
      </trkpt>
      <trkpt lat="43.13319" lon="-0.55738">
        <ele>335.6</ele>
        <time>2022-06-08 09:28:38</time>
      </trkpt>
      <trkpt lat="43.13314" lon="-0.55735">
        <ele>335.6</ele>
        <time>2022-06-08 09:28:39</time>
      </trkpt>
      <trkpt lat="43.1331" lon="-0.55732">
        <ele>335.8</ele>
        <time>2022-06-08 09:28:40</time>
      </trkpt>
      <trkpt lat="43.13305" lon="-0.55729">
        <ele>335.8</ele>
        <time>2022-06-08 09:28:41</time>
      </trkpt>
      <trkpt lat="43.13301" lon="-0.55726">
        <ele>335.8</ele>
        <time>2022-06-08 09:28:42</time>
      </trkpt>
      <trkpt lat="43.13297" lon="-0.55723">
        <ele>336</ele>
        <time>2022-06-08 09:28:43</time>
      </trkpt>
      <trkpt lat="43.13293" lon="-0.55721">
        <ele>336.2</ele>
        <time>2022-06-08 09:28:44</time>
      </trkpt>
      <trkpt lat="43.13289" lon="-0.55718">
        <ele>336.2</ele>
        <time>2022-06-08 09:28:45</time>
      </trkpt>
      <trkpt lat="43.13284" lon="-0.55714">
        <ele>336.6</ele>
        <time>2022-06-08 09:28:46</time>
      </trkpt>
      <trkpt lat="43.13281" lon="-0.55712">
        <ele>336.6</ele>
        <time>2022-06-08 09:28:47</time>
      </trkpt>
      <trkpt lat="43.13277" lon="-0.55709">
        <ele>337</ele>
        <time>2022-06-08 09:28:48</time>
      </trkpt>
      <trkpt lat="43.13273" lon="-0.55706">
        <ele>337</ele>
        <time>2022-06-08 09:28:49</time>
      </trkpt>
      <trkpt lat="43.13269" lon="-0.55704">
        <ele>337.4</ele>
        <time>2022-06-08 09:28:50</time>
      </trkpt>
      <trkpt lat="43.13266" lon="-0.55701">
        <ele>337.6</ele>
        <time>2022-06-08 09:28:51</time>
      </trkpt>
      <trkpt lat="43.13262" lon="-0.55699">
        <ele>338</ele>
        <time>2022-06-08 09:28:52</time>
      </trkpt>
      <trkpt lat="43.13258" lon="-0.55696">
        <ele>338.2</ele>
        <time>2022-06-08 09:28:53</time>
      </trkpt>
      <trkpt lat="43.13254" lon="-0.55694">
        <ele>338.4</ele>
        <time>2022-06-08 09:28:54</time>
      </trkpt>
      <trkpt lat="43.13251" lon="-0.55691">
        <ele>338.8</ele>
        <time>2022-06-08 09:28:55</time>
      </trkpt>
      <trkpt lat="43.13247" lon="-0.55689">
        <ele>339</ele>
        <time>2022-06-08 09:28:56</time>
      </trkpt>
      <trkpt lat="43.13243" lon="-0.55686">
        <ele>339.2</ele>
        <time>2022-06-08 09:28:57</time>
      </trkpt>
      <trkpt lat="43.1324" lon="-0.55683">
        <ele>339.4</ele>
        <time>2022-06-08 09:28:58</time>
      </trkpt>
      <trkpt lat="43.13236" lon="-0.55681">
        <ele>339.6</ele>
        <time>2022-06-08 09:28:59</time>
      </trkpt>
      <trkpt lat="43.13232" lon="-0.55679">
        <ele>340</ele>
        <time>2022-06-08 09:29:00</time>
      </trkpt>
      <trkpt lat="43.13228" lon="-0.55676">
        <ele>340.4</ele>
        <time>2022-06-08 09:29:01</time>
      </trkpt>
      <trkpt lat="43.13225" lon="-0.55673">
        <ele>340.4</ele>
        <time>2022-06-08 09:29:02</time>
      </trkpt>
      <trkpt lat="43.13221" lon="-0.55671">
        <ele>340.6</ele>
        <time>2022-06-08 09:29:03</time>
      </trkpt>
      <trkpt lat="43.13218" lon="-0.55668">
        <ele>340.8</ele>
        <time>2022-06-08 09:29:04</time>
      </trkpt>
      <trkpt lat="43.13214" lon="-0.55665">
        <ele>341</ele>
        <time>2022-06-08 09:29:05</time>
      </trkpt>
      <trkpt lat="43.1321" lon="-0.55662">
        <ele>341.2</ele>
        <time>2022-06-08 09:29:06</time>
      </trkpt>
      <trkpt lat="43.13207" lon="-0.55658">
        <ele>341.4</ele>
        <time>2022-06-08 09:29:07</time>
      </trkpt>
      <trkpt lat="43.13204" lon="-0.55655">
        <ele>341.6</ele>
        <time>2022-06-08 09:29:08</time>
      </trkpt>
      <trkpt lat="43.132" lon="-0.55651">
        <ele>341.8</ele>
        <time>2022-06-08 09:29:09</time>
      </trkpt>
      <trkpt lat="43.13197" lon="-0.55647">
        <ele>342</ele>
        <time>2022-06-08 09:29:10</time>
      </trkpt>
      <trkpt lat="43.13194" lon="-0.55642">
        <ele>342</ele>
        <time>2022-06-08 09:29:11</time>
      </trkpt>
      <trkpt lat="43.1319" lon="-0.55637">
        <ele>342.2</ele>
        <time>2022-06-08 09:29:12</time>
      </trkpt>
      <trkpt lat="43.13187" lon="-0.55633">
        <ele>342.2</ele>
        <time>2022-06-08 09:29:13</time>
      </trkpt>
      <trkpt lat="43.13183" lon="-0.55627">
        <ele>342.4</ele>
        <time>2022-06-08 09:29:14</time>
      </trkpt>
      <trkpt lat="43.13179" lon="-0.55621">
        <ele>342.4</ele>
        <time>2022-06-08 09:29:15</time>
      </trkpt>
      <trkpt lat="43.13176" lon="-0.55616">
        <ele>342.6</ele>
        <time>2022-06-08 09:29:16</time>
      </trkpt>
      <trkpt lat="43.13173" lon="-0.5561">
        <ele>342.6</ele>
        <time>2022-06-08 09:29:17</time>
      </trkpt>
      <trkpt lat="43.1317" lon="-0.55605">
        <ele>342.8</ele>
        <time>2022-06-08 09:29:18</time>
      </trkpt>
      <trkpt lat="43.13166" lon="-0.556">
        <ele>342.8</ele>
        <time>2022-06-08 09:29:19</time>
      </trkpt>
      <trkpt lat="43.13163" lon="-0.55594">
        <ele>343</ele>
        <time>2022-06-08 09:29:20</time>
      </trkpt>
      <trkpt lat="43.1316" lon="-0.55588">
        <ele>343</ele>
        <time>2022-06-08 09:29:21</time>
      </trkpt>
      <trkpt lat="43.13156" lon="-0.55583">
        <ele>343</ele>
        <time>2022-06-08 09:29:22</time>
      </trkpt>
      <trkpt lat="43.13153" lon="-0.55577">
        <ele>343.2</ele>
        <time>2022-06-08 09:29:23</time>
      </trkpt>
      <trkpt lat="43.13149" lon="-0.55572">
        <ele>343.2</ele>
        <time>2022-06-08 09:29:24</time>
      </trkpt>
      <trkpt lat="43.13146" lon="-0.55567">
        <ele>343.6</ele>
        <time>2022-06-08 09:29:25</time>
      </trkpt>
      <trkpt lat="43.13143" lon="-0.55561">
        <ele>343.6</ele>
        <time>2022-06-08 09:29:26</time>
      </trkpt>
      <trkpt lat="43.13139" lon="-0.55556">
        <ele>343.6</ele>
        <time>2022-06-08 09:29:27</time>
      </trkpt>
      <trkpt lat="43.13136" lon="-0.55551">
        <ele>343.6</ele>
        <time>2022-06-08 09:29:28</time>
      </trkpt>
      <trkpt lat="43.13133" lon="-0.55547">
        <ele>343.8</ele>
        <time>2022-06-08 09:29:29</time>
      </trkpt>
      <trkpt lat="43.1313" lon="-0.55544">
        <ele>344</ele>
        <time>2022-06-08 09:29:30</time>
      </trkpt>
      <trkpt lat="43.13127" lon="-0.55541">
        <ele>344.4</ele>
        <time>2022-06-08 09:29:31</time>
      </trkpt>
      <trkpt lat="43.13125" lon="-0.55538">
        <ele>344.6</ele>
        <time>2022-06-08 09:29:32</time>
      </trkpt>
      <trkpt lat="43.13122" lon="-0.55536">
        <ele>344.8</ele>
        <time>2022-06-08 09:29:33</time>
      </trkpt>
      <trkpt lat="43.1312" lon="-0.55534">
        <ele>345</ele>
        <time>2022-06-08 09:29:34</time>
      </trkpt>
      <trkpt lat="43.13118" lon="-0.55532">
        <ele>345.6</ele>
        <time>2022-06-08 09:29:35</time>
      </trkpt>
      <trkpt lat="43.13116" lon="-0.5553">
        <ele>345.8</ele>
        <time>2022-06-08 09:29:36</time>
      </trkpt>
      <trkpt lat="43.13115" lon="-0.55528">
        <ele>346.2</ele>
        <time>2022-06-08 09:29:37</time>
      </trkpt>
      <trkpt lat="43.13113" lon="-0.55527">
        <ele>346.6</ele>
        <time>2022-06-08 09:29:38</time>
      </trkpt>
      <trkpt lat="43.13111" lon="-0.55525">
        <ele>346.8</ele>
        <time>2022-06-08 09:29:39</time>
      </trkpt>
      <trkpt lat="43.1311" lon="-0.55524">
        <ele>346.8</ele>
        <time>2022-06-08 09:29:40</time>
      </trkpt>
      <trkpt lat="43.13109" lon="-0.55522">
        <ele>347</ele>
        <time>2022-06-08 09:29:41</time>
      </trkpt>
      <trkpt lat="43.13107" lon="-0.55521">
        <ele>347.4</ele>
        <time>2022-06-08 09:29:42</time>
      </trkpt>
      <trkpt lat="43.13106" lon="-0.5552">
        <ele>347.6</ele>
        <time>2022-06-08 09:29:43</time>
      </trkpt>
      <trkpt lat="43.13105" lon="-0.55519">
        <ele>348</ele>
        <time>2022-06-08 09:29:44</time>
      </trkpt>
      <trkpt lat="43.13104" lon="-0.55518">
        <ele>348.2</ele>
        <time>2022-06-08 09:29:45</time>
      </trkpt>
      <trkpt lat="43.13102" lon="-0.55517">
        <ele>348.6</ele>
        <time>2022-06-08 09:29:46</time>
      </trkpt>
      <trkpt lat="43.13101" lon="-0.55516">
        <ele>348.8</ele>
        <time>2022-06-08 09:29:47</time>
      </trkpt>
      <trkpt lat="43.13099" lon="-0.55515">
        <ele>349.2</ele>
        <time>2022-06-08 09:29:48</time>
      </trkpt>
      <trkpt lat="43.13098" lon="-0.55514">
        <ele>349.6</ele>
        <time>2022-06-08 09:29:49</time>
      </trkpt>
      <trkpt lat="43.13097" lon="-0.55513">
        <ele>350.2</ele>
        <time>2022-06-08 09:29:50</time>
      </trkpt>
      <trkpt lat="43.13097" lon="-0.55513">
        <ele>351</ele>
        <time>2022-06-08 09:29:51</time>
      </trkpt>
      <trkpt lat="43.13096" lon="-0.55513">
        <ele>351.4</ele>
        <time>2022-06-08 09:29:52</time>
      </trkpt>
      <trkpt lat="43.13095" lon="-0.55512">
        <ele>351.8</ele>
        <time>2022-06-08 09:29:53</time>
      </trkpt>
      <trkpt lat="43.13094" lon="-0.5551">
        <ele>352</ele>
        <time>2022-06-08 09:29:54</time>
      </trkpt>
      <trkpt lat="43.13092" lon="-0.55509">
        <ele>352.4</ele>
        <time>2022-06-08 09:29:55</time>
      </trkpt>
      <trkpt lat="43.13091" lon="-0.55508">
        <ele>352.6</ele>
        <time>2022-06-08 09:29:57</time>
      </trkpt>
      <trkpt lat="43.13089" lon="-0.55508">
        <ele>352.8</ele>
        <time>2022-06-08 09:29:58</time>
      </trkpt>
      <trkpt lat="43.13088" lon="-0.55507">
        <ele>353</ele>
        <time>2022-06-08 09:29:59</time>
      </trkpt>
      <trkpt lat="43.13087" lon="-0.55506">
        <ele>353.2</ele>
        <time>2022-06-08 09:30:00</time>
      </trkpt>
      <trkpt lat="43.13086" lon="-0.55505">
        <ele>353.4</ele>
        <time>2022-06-08 09:30:01</time>
      </trkpt>
      <trkpt lat="43.13084" lon="-0.55503">
        <ele>353.8</ele>
        <time>2022-06-08 09:30:02</time>
      </trkpt>
      <trkpt lat="43.13083" lon="-0.55502">
        <ele>354</ele>
        <time>2022-06-08 09:30:03</time>
      </trkpt>
      <trkpt lat="43.1308" lon="-0.555">
        <ele>354.2</ele>
        <time>2022-06-08 09:30:04</time>
      </trkpt>
      <trkpt lat="43.13077" lon="-0.55498">
        <ele>354.8</ele>
        <time>2022-06-08 09:30:05</time>
      </trkpt>
      <trkpt lat="43.13074" lon="-0.55496">
        <ele>355</ele>
        <time>2022-06-08 09:30:06</time>
      </trkpt>
      <trkpt lat="43.13073" lon="-0.55495">
        <ele>355.4</ele>
        <time>2022-06-08 09:30:07</time>
      </trkpt>
      <trkpt lat="43.13072" lon="-0.55494">
        <ele>355.4</ele>
        <time>2022-06-08 09:30:08</time>
      </trkpt>
      <trkpt lat="43.13072" lon="-0.55492">
        <ele>355.8</ele>
        <time>2022-06-08 09:30:09</time>
      </trkpt>
      <trkpt lat="43.13071" lon="-0.5549">
        <ele>356</ele>
        <time>2022-06-08 09:30:10</time>
      </trkpt>
      <trkpt lat="43.13071" lon="-0.55488">
        <ele>356.4</ele>
        <time>2022-06-08 09:30:11</time>
      </trkpt>
      <trkpt lat="43.13069" lon="-0.55486">
        <ele>356.6</ele>
        <time>2022-06-08 09:30:12</time>
      </trkpt>
      <trkpt lat="43.13068" lon="-0.55484">
        <ele>356.8</ele>
        <time>2022-06-08 09:30:13</time>
      </trkpt>
      <trkpt lat="43.13066" lon="-0.55482">
        <ele>357.2</ele>
        <time>2022-06-08 09:30:14</time>
      </trkpt>
      <trkpt lat="43.13064" lon="-0.55479">
        <ele>357.8</ele>
        <time>2022-06-08 09:30:15</time>
      </trkpt>
      <trkpt lat="43.13061" lon="-0.55477">
        <ele>358</ele>
        <time>2022-06-08 09:30:16</time>
      </trkpt>
      <trkpt lat="43.13058" lon="-0.55474">
        <ele>358.2</ele>
        <time>2022-06-08 09:30:17</time>
      </trkpt>
      <trkpt lat="43.13056" lon="-0.55471">
        <ele>358.4</ele>
        <time>2022-06-08 09:30:18</time>
      </trkpt>
      <trkpt lat="43.13053" lon="-0.55468">
        <ele>358.6</ele>
        <time>2022-06-08 09:30:19</time>
      </trkpt>
      <trkpt lat="43.13051" lon="-0.55465">
        <ele>358.8</ele>
        <time>2022-06-08 09:30:20</time>
      </trkpt>
      <trkpt lat="43.1305" lon="-0.55463">
        <ele>359.2</ele>
        <time>2022-06-08 09:30:21</time>
      </trkpt>
      <trkpt lat="43.13049" lon="-0.55461">
        <ele>359.6</ele>
        <time>2022-06-08 09:30:22</time>
      </trkpt>
      <trkpt lat="43.13047" lon="-0.55458">
        <ele>359.8</ele>
        <time>2022-06-08 09:30:23</time>
      </trkpt>
      <trkpt lat="43.13044" lon="-0.55456">
        <ele>360.2</ele>
        <time>2022-06-08 09:30:24</time>
      </trkpt>
      <trkpt lat="43.13043" lon="-0.55454">
        <ele>360.4</ele>
        <time>2022-06-08 09:30:25</time>
      </trkpt>
      <trkpt lat="43.13043" lon="-0.55454">
        <ele>360.8</ele>
        <time>2022-06-08 09:30:26</time>
      </trkpt>
      <trkpt lat="43.13042" lon="-0.55451">
        <ele>361</ele>
        <time>2022-06-08 09:30:27</time>
      </trkpt>
      <trkpt lat="43.13041" lon="-0.55449">
        <ele>361.4</ele>
        <time>2022-06-08 09:30:28</time>
      </trkpt>
      <trkpt lat="43.13039" lon="-0.55448">
        <ele>361.6</ele>
        <time>2022-06-08 09:30:29</time>
      </trkpt>
      <trkpt lat="43.13038" lon="-0.55445">
        <ele>362</ele>
        <time>2022-06-08 09:30:30</time>
      </trkpt>
      <trkpt lat="43.13037" lon="-0.55443">
        <ele>362.2</ele>
        <time>2022-06-08 09:30:31</time>
      </trkpt>
      <trkpt lat="43.13037" lon="-0.55441">
        <ele>362.6</ele>
        <time>2022-06-08 09:30:32</time>
      </trkpt>
      <trkpt lat="43.1303" lon="-0.55439">
        <ele>362.6</ele>
        <time>2022-06-08 09:30:33</time>
      </trkpt>
      <trkpt lat="43.13029" lon="-0.55438">
        <ele>362.8</ele>
        <time>2022-06-08 09:30:34</time>
      </trkpt>
      <trkpt lat="43.13028" lon="-0.55437">
        <ele>363</ele>
        <time>2022-06-08 09:30:35</time>
      </trkpt>
      <trkpt lat="43.13027" lon="-0.55435">
        <ele>363.2</ele>
        <time>2022-06-08 09:30:36</time>
      </trkpt>
      <trkpt lat="43.13025" lon="-0.55433">
        <ele>363.4</ele>
        <time>2022-06-08 09:30:37</time>
      </trkpt>
      <trkpt lat="43.13023" lon="-0.5543">
        <ele>363.6</ele>
        <time>2022-06-08 09:30:38</time>
      </trkpt>
      <trkpt lat="43.13022" lon="-0.55428">
        <ele>364.2</ele>
        <time>2022-06-08 09:30:39</time>
      </trkpt>
      <trkpt lat="43.13021" lon="-0.55426">
        <ele>364.4</ele>
        <time>2022-06-08 09:30:40</time>
      </trkpt>
      <trkpt lat="43.13019" lon="-0.55424">
        <ele>364.8</ele>
        <time>2022-06-08 09:30:41</time>
      </trkpt>
      <trkpt lat="43.13017" lon="-0.55422">
        <ele>364.8</ele>
        <time>2022-06-08 09:30:42</time>
      </trkpt>
      <trkpt lat="43.13014" lon="-0.55419">
        <ele>365.2</ele>
        <time>2022-06-08 09:30:43</time>
      </trkpt>
      <trkpt lat="43.13012" lon="-0.55418">
        <ele>365.2</ele>
        <time>2022-06-08 09:30:44</time>
      </trkpt>
      <trkpt lat="43.13011" lon="-0.55417">
        <ele>365.4</ele>
        <time>2022-06-08 09:30:45</time>
      </trkpt>
      <trkpt lat="43.1301" lon="-0.55415">
        <ele>365.4</ele>
        <time>2022-06-08 09:30:46</time>
      </trkpt>
      <trkpt lat="43.13009" lon="-0.55412">
        <ele>366</ele>
        <time>2022-06-08 09:30:47</time>
      </trkpt>
      <trkpt lat="43.13007" lon="-0.5541">
        <ele>366.2</ele>
        <time>2022-06-08 09:30:48</time>
      </trkpt>
      <trkpt lat="43.13005" lon="-0.55407">
        <ele>366.2</ele>
        <time>2022-06-08 09:30:49</time>
      </trkpt>
      <trkpt lat="43.13003" lon="-0.55404">
        <ele>366.6</ele>
        <time>2022-06-08 09:30:50</time>
      </trkpt>
      <trkpt lat="43.13" lon="-0.554">
        <ele>366.6</ele>
        <time>2022-06-08 09:30:51</time>
      </trkpt>
      <trkpt lat="43.12995" lon="-0.55397">
        <ele>367.2</ele>
        <time>2022-06-08 09:30:52</time>
      </trkpt>
      <trkpt lat="43.12992" lon="-0.55395">
        <ele>367.2</ele>
        <time>2022-06-08 09:30:53</time>
      </trkpt>
      <trkpt lat="43.1299" lon="-0.55391">
        <ele>367.6</ele>
        <time>2022-06-08 09:30:54</time>
      </trkpt>
      <trkpt lat="43.12988" lon="-0.55386">
        <ele>367.8</ele>
        <time>2022-06-08 09:30:55</time>
      </trkpt>
      <trkpt lat="43.12987" lon="-0.55383">
        <ele>368</ele>
        <time>2022-06-08 09:30:56</time>
      </trkpt>
      <trkpt lat="43.12987" lon="-0.5538">
        <ele>368.2</ele>
        <time>2022-06-08 09:30:57</time>
      </trkpt>
      <trkpt lat="43.12988" lon="-0.55376">
        <ele>368.6</ele>
        <time>2022-06-08 09:30:58</time>
      </trkpt>
      <trkpt lat="43.12989" lon="-0.55372">
        <ele>368.8</ele>
        <time>2022-06-08 09:30:59</time>
      </trkpt>
      <trkpt lat="43.12987" lon="-0.55368">
        <ele>369.2</ele>
        <time>2022-06-08 09:31:00</time>
      </trkpt>
      <trkpt lat="43.12986" lon="-0.55365">
        <ele>369.6</ele>
        <time>2022-06-08 09:31:01</time>
      </trkpt>
      <trkpt lat="43.12986" lon="-0.55362">
        <ele>369.8</ele>
        <time>2022-06-08 09:31:02</time>
      </trkpt>
      <trkpt lat="43.12985" lon="-0.5536">
        <ele>370</ele>
        <time>2022-06-08 09:31:03</time>
      </trkpt>
      <trkpt lat="43.12986" lon="-0.55357">
        <ele>370.2</ele>
        <time>2022-06-08 09:31:04</time>
      </trkpt>
      <trkpt lat="43.12985" lon="-0.55355">
        <ele>370.6</ele>
        <time>2022-06-08 09:31:05</time>
      </trkpt>
      <trkpt lat="43.12984" lon="-0.55353">
        <ele>370.8</ele>
        <time>2022-06-08 09:31:06</time>
      </trkpt>
      <trkpt lat="43.12982" lon="-0.55351">
        <ele>371.2</ele>
        <time>2022-06-08 09:31:07</time>
      </trkpt>
      <trkpt lat="43.12981" lon="-0.55349">
        <ele>371.2</ele>
        <time>2022-06-08 09:31:08</time>
      </trkpt>
      <trkpt lat="43.12981" lon="-0.55347">
        <ele>371.6</ele>
        <time>2022-06-08 09:31:09</time>
      </trkpt>
      <trkpt lat="43.1298" lon="-0.55345">
        <ele>371.6</ele>
        <time>2022-06-08 09:31:10</time>
      </trkpt>
      <trkpt lat="43.1298" lon="-0.55343">
        <ele>372</ele>
        <time>2022-06-08 09:31:11</time>
      </trkpt>
      <trkpt lat="43.12979" lon="-0.5534">
        <ele>372.2</ele>
        <time>2022-06-08 09:31:12</time>
      </trkpt>
      <trkpt lat="43.12977" lon="-0.55338">
        <ele>372.6</ele>
        <time>2022-06-08 09:31:13</time>
      </trkpt>
      <trkpt lat="43.12976" lon="-0.55336">
        <ele>372.8</ele>
        <time>2022-06-08 09:31:14</time>
      </trkpt>
      <trkpt lat="43.12975" lon="-0.55334">
        <ele>373.2</ele>
        <time>2022-06-08 09:31:15</time>
      </trkpt>
      <trkpt lat="43.12974" lon="-0.55331">
        <ele>373.4</ele>
        <time>2022-06-08 09:31:16</time>
      </trkpt>
      <trkpt lat="43.12975" lon="-0.55329">
        <ele>373.8</ele>
        <time>2022-06-08 09:31:17</time>
      </trkpt>
      <trkpt lat="43.12976" lon="-0.55327">
        <ele>374</ele>
        <time>2022-06-08 09:31:18</time>
      </trkpt>
      <trkpt lat="43.12976" lon="-0.55325">
        <ele>374.2</ele>
        <time>2022-06-08 09:31:19</time>
      </trkpt>
      <trkpt lat="43.12976" lon="-0.55323">
        <ele>374.6</ele>
        <time>2022-06-08 09:31:20</time>
      </trkpt>
      <trkpt lat="43.12976" lon="-0.55321">
        <ele>374.8</ele>
        <time>2022-06-08 09:31:21</time>
      </trkpt>
      <trkpt lat="43.12975" lon="-0.55319">
        <ele>375.2</ele>
        <time>2022-06-08 09:31:22</time>
      </trkpt>
      <trkpt lat="43.12974" lon="-0.55317">
        <ele>375.2</ele>
        <time>2022-06-08 09:31:23</time>
      </trkpt>
      <trkpt lat="43.12974" lon="-0.55315">
        <ele>375.6</ele>
        <time>2022-06-08 09:31:24</time>
      </trkpt>
      <trkpt lat="43.12973" lon="-0.55312">
        <ele>376</ele>
        <time>2022-06-08 09:31:25</time>
      </trkpt>
      <trkpt lat="43.12971" lon="-0.5531">
        <ele>376.4</ele>
        <time>2022-06-08 09:31:26</time>
      </trkpt>
      <trkpt lat="43.1297" lon="-0.55307">
        <ele>376.8</ele>
        <time>2022-06-08 09:31:27</time>
      </trkpt>
      <trkpt lat="43.1297" lon="-0.55303">
        <ele>377.2</ele>
        <time>2022-06-08 09:31:28</time>
      </trkpt>
      <trkpt lat="43.1297" lon="-0.55299">
        <ele>377.4</ele>
        <time>2022-06-08 09:31:29</time>
      </trkpt>
      <trkpt lat="43.1297" lon="-0.55296">
        <ele>377.6</ele>
        <time>2022-06-08 09:31:30</time>
      </trkpt>
      <trkpt lat="43.12969" lon="-0.55293">
        <ele>378</ele>
        <time>2022-06-08 09:31:31</time>
      </trkpt>
      <trkpt lat="43.12969" lon="-0.55291">
        <ele>378.2</ele>
        <time>2022-06-08 09:31:32</time>
      </trkpt>
      <trkpt lat="43.12969" lon="-0.55288">
        <ele>378.6</ele>
        <time>2022-06-08 09:31:33</time>
      </trkpt>
      <trkpt lat="43.1297" lon="-0.55285">
        <ele>378.8</ele>
        <time>2022-06-08 09:31:34</time>
      </trkpt>
      <trkpt lat="43.12969" lon="-0.55281">
        <ele>378.8</ele>
        <time>2022-06-08 09:31:35</time>
      </trkpt>
      <trkpt lat="43.12969" lon="-0.55279">
        <ele>379</ele>
        <time>2022-06-08 09:31:36</time>
      </trkpt>
      <trkpt lat="43.1297" lon="-0.55277">
        <ele>379.2</ele>
        <time>2022-06-08 09:31:37</time>
      </trkpt>
      <trkpt lat="43.12968" lon="-0.55276">
        <ele>379.4</ele>
        <time>2022-06-08 09:31:38</time>
      </trkpt>
      <trkpt lat="43.12965" lon="-0.55274">
        <ele>380</ele>
        <time>2022-06-08 09:31:39</time>
      </trkpt>
      <trkpt lat="43.12962" lon="-0.55271">
        <ele>380.4</ele>
        <time>2022-06-08 09:31:40</time>
      </trkpt>
      <trkpt lat="43.12961" lon="-0.55269">
        <ele>380.6</ele>
        <time>2022-06-08 09:31:41</time>
      </trkpt>
      <trkpt lat="43.1296" lon="-0.55266">
        <ele>380.8</ele>
        <time>2022-06-08 09:31:42</time>
      </trkpt>
      <trkpt lat="43.12961" lon="-0.55263">
        <ele>381.2</ele>
        <time>2022-06-08 09:31:43</time>
      </trkpt>
      <trkpt lat="43.1296" lon="-0.5526">
        <ele>381.4</ele>
        <time>2022-06-08 09:31:44</time>
      </trkpt>
      <trkpt lat="43.12959" lon="-0.55256">
        <ele>381.4</ele>
        <time>2022-06-08 09:31:45</time>
      </trkpt>
      <trkpt lat="43.12959" lon="-0.55252">
        <ele>381.8</ele>
        <time>2022-06-08 09:31:46</time>
      </trkpt>
      <trkpt lat="43.1296" lon="-0.55249">
        <ele>382</ele>
        <time>2022-06-08 09:31:47</time>
      </trkpt>
      <trkpt lat="43.1296" lon="-0.55246">
        <ele>382.2</ele>
        <time>2022-06-08 09:31:48</time>
      </trkpt>
      <trkpt lat="43.1296" lon="-0.55243">
        <ele>382.6</ele>
        <time>2022-06-08 09:31:49</time>
      </trkpt>
      <trkpt lat="43.12957" lon="-0.5524">
        <ele>383</ele>
        <time>2022-06-08 09:31:50</time>
      </trkpt>
      <trkpt lat="43.12957" lon="-0.55238">
        <ele>383.2</ele>
        <time>2022-06-08 09:31:51</time>
      </trkpt>
      <trkpt lat="43.12957" lon="-0.55235">
        <ele>383.4</ele>
        <time>2022-06-08 09:31:52</time>
      </trkpt>
      <trkpt lat="43.12957" lon="-0.55233">
        <ele>383.4</ele>
        <time>2022-06-08 09:31:53</time>
      </trkpt>
      <trkpt lat="43.12956" lon="-0.5523">
        <ele>384</ele>
        <time>2022-06-08 09:31:54</time>
      </trkpt>
      <trkpt lat="43.12955" lon="-0.55227">
        <ele>384.2</ele>
        <time>2022-06-08 09:31:55</time>
      </trkpt>
      <trkpt lat="43.12954" lon="-0.55224">
        <ele>384.6</ele>
        <time>2022-06-08 09:31:56</time>
      </trkpt>
      <trkpt lat="43.12954" lon="-0.55221">
        <ele>384.6</ele>
        <time>2022-06-08 09:31:57</time>
      </trkpt>
      <trkpt lat="43.12954" lon="-0.55219">
        <ele>385.2</ele>
        <time>2022-06-08 09:31:58</time>
      </trkpt>
      <trkpt lat="43.12954" lon="-0.55216">
        <ele>385.8</ele>
        <time>2022-06-08 09:31:59</time>
      </trkpt>
      <trkpt lat="43.12954" lon="-0.55213">
        <ele>386</ele>
        <time>2022-06-08 09:32:00</time>
      </trkpt>
      <trkpt lat="43.12955" lon="-0.5521">
        <ele>386.2</ele>
        <time>2022-06-08 09:32:01</time>
      </trkpt>
      <trkpt lat="43.12956" lon="-0.55208">
        <ele>386.4</ele>
        <time>2022-06-08 09:32:02</time>
      </trkpt>
      <trkpt lat="43.12957" lon="-0.55205">
        <ele>386.8</ele>
        <time>2022-06-08 09:32:03</time>
      </trkpt>
      <trkpt lat="43.12958" lon="-0.55202">
        <ele>387</ele>
        <time>2022-06-08 09:32:04</time>
      </trkpt>
      <trkpt lat="43.12959" lon="-0.552">
        <ele>387.2</ele>
        <time>2022-06-08 09:32:05</time>
      </trkpt>
      <trkpt lat="43.12961" lon="-0.55198">
        <ele>387.4</ele>
        <time>2022-06-08 09:32:06</time>
      </trkpt>
      <trkpt lat="43.12962" lon="-0.55195">
        <ele>387.8</ele>
        <time>2022-06-08 09:32:07</time>
      </trkpt>
      <trkpt lat="43.12964" lon="-0.55192">
        <ele>387.8</ele>
        <time>2022-06-08 09:32:08</time>
      </trkpt>
      <trkpt lat="43.12965" lon="-0.55189">
        <ele>388.2</ele>
        <time>2022-06-08 09:32:09</time>
      </trkpt>
      <trkpt lat="43.12966" lon="-0.55187">
        <ele>388.2</ele>
        <time>2022-06-08 09:32:10</time>
      </trkpt>
      <trkpt lat="43.12967" lon="-0.55185">
        <ele>388.4</ele>
        <time>2022-06-08 09:32:11</time>
      </trkpt>
      <trkpt lat="43.12968" lon="-0.55182">
        <ele>388.8</ele>
        <time>2022-06-08 09:32:12</time>
      </trkpt>
      <trkpt lat="43.12969" lon="-0.55179">
        <ele>389.2</ele>
        <time>2022-06-08 09:32:13</time>
      </trkpt>
      <trkpt lat="43.1297" lon="-0.55176">
        <ele>389.4</ele>
        <time>2022-06-08 09:32:14</time>
      </trkpt>
      <trkpt lat="43.12971" lon="-0.55174">
        <ele>389.6</ele>
        <time>2022-06-08 09:32:15</time>
      </trkpt>
      <trkpt lat="43.12973" lon="-0.55172">
        <ele>390</ele>
        <time>2022-06-08 09:32:16</time>
      </trkpt>
      <trkpt lat="43.12973" lon="-0.5517">
        <ele>390.2</ele>
        <time>2022-06-08 09:32:17</time>
      </trkpt>
      <trkpt lat="43.12973" lon="-0.55168">
        <ele>390.6</ele>
        <time>2022-06-08 09:32:18</time>
      </trkpt>
      <trkpt lat="43.12972" lon="-0.55166">
        <ele>390.6</ele>
        <time>2022-06-08 09:32:19</time>
      </trkpt>
      <trkpt lat="43.12973" lon="-0.55163">
        <ele>391</ele>
        <time>2022-06-08 09:32:20</time>
      </trkpt>
      <trkpt lat="43.12973" lon="-0.55161">
        <ele>391.2</ele>
        <time>2022-06-08 09:32:21</time>
      </trkpt>
      <trkpt lat="43.12973" lon="-0.55158">
        <ele>391.6</ele>
        <time>2022-06-08 09:32:22</time>
      </trkpt>
      <trkpt lat="43.12974" lon="-0.55155">
        <ele>391.8</ele>
        <time>2022-06-08 09:32:23</time>
      </trkpt>
      <trkpt lat="43.12974" lon="-0.55153">
        <ele>392</ele>
        <time>2022-06-08 09:32:24</time>
      </trkpt>
      <trkpt lat="43.12975" lon="-0.5515">
        <ele>392.4</ele>
        <time>2022-06-08 09:32:25</time>
      </trkpt>
      <trkpt lat="43.12976" lon="-0.55147">
        <ele>392.8</ele>
        <time>2022-06-08 09:32:26</time>
      </trkpt>
      <trkpt lat="43.12976" lon="-0.55144">
        <ele>393</ele>
        <time>2022-06-08 09:32:27</time>
      </trkpt>
      <trkpt lat="43.12977" lon="-0.5514">
        <ele>393.2</ele>
        <time>2022-06-08 09:32:28</time>
      </trkpt>
      <trkpt lat="43.12977" lon="-0.55138">
        <ele>393.6</ele>
        <time>2022-06-08 09:32:29</time>
      </trkpt>
      <trkpt lat="43.12978" lon="-0.55135">
        <ele>393.8</ele>
        <time>2022-06-08 09:32:30</time>
      </trkpt>
      <trkpt lat="43.12978" lon="-0.55132">
        <ele>394.4</ele>
        <time>2022-06-08 09:32:31</time>
      </trkpt>
      <trkpt lat="43.12978" lon="-0.55129">
        <ele>394.6</ele>
        <time>2022-06-08 09:32:32</time>
      </trkpt>
      <trkpt lat="43.12979" lon="-0.55126">
        <ele>394.6</ele>
        <time>2022-06-08 09:32:33</time>
      </trkpt>
      <trkpt lat="43.12979" lon="-0.55123">
        <ele>394.8</ele>
        <time>2022-06-08 09:32:34</time>
      </trkpt>
      <trkpt lat="43.12979" lon="-0.5512">
        <ele>394.8</ele>
        <time>2022-06-08 09:32:35</time>
      </trkpt>
      <trkpt lat="43.12978" lon="-0.55118">
        <ele>394.8</ele>
        <time>2022-06-08 09:32:36</time>
      </trkpt>
      <trkpt lat="43.12978" lon="-0.55115">
        <ele>395</ele>
        <time>2022-06-08 09:32:37</time>
      </trkpt>
      <trkpt lat="43.12978" lon="-0.55112">
        <ele>395.2</ele>
        <time>2022-06-08 09:32:38</time>
      </trkpt>
      <trkpt lat="43.12977" lon="-0.55108">
        <ele>395.6</ele>
        <time>2022-06-08 09:32:39</time>
      </trkpt>
      <trkpt lat="43.12976" lon="-0.55105">
        <ele>395.6</ele>
        <time>2022-06-08 09:32:40</time>
      </trkpt>
      <trkpt lat="43.12974" lon="-0.55103">
        <ele>395.8</ele>
        <time>2022-06-08 09:32:41</time>
      </trkpt>
      <trkpt lat="43.12972" lon="-0.551">
        <ele>396</ele>
        <time>2022-06-08 09:32:42</time>
      </trkpt>
      <trkpt lat="43.1297" lon="-0.55097">
        <ele>396</ele>
        <time>2022-06-08 09:32:43</time>
      </trkpt>
      <trkpt lat="43.12968" lon="-0.55095">
        <ele>396.2</ele>
        <time>2022-06-08 09:32:44</time>
      </trkpt>
      <trkpt lat="43.12966" lon="-0.55093">
        <ele>396.2</ele>
        <time>2022-06-08 09:32:45</time>
      </trkpt>
      <trkpt lat="43.12964" lon="-0.55092">
        <ele>396.4</ele>
        <time>2022-06-08 09:32:46</time>
      </trkpt>
      <trkpt lat="43.12961" lon="-0.55091">
        <ele>396.6</ele>
        <time>2022-06-08 09:32:47</time>
      </trkpt>
      <trkpt lat="43.12959" lon="-0.55091">
        <ele>396.6</ele>
        <time>2022-06-08 09:32:48</time>
      </trkpt>
      <trkpt lat="43.12956" lon="-0.55092">
        <ele>396.6</ele>
        <time>2022-06-08 09:32:49</time>
      </trkpt>
      <trkpt lat="43.12954" lon="-0.55093">
        <ele>396.8</ele>
        <time>2022-06-08 09:32:50</time>
      </trkpt>
      <trkpt lat="43.12952" lon="-0.55094">
        <ele>397</ele>
        <time>2022-06-08 09:32:51</time>
      </trkpt>
      <trkpt lat="43.1295" lon="-0.55095">
        <ele>397.2</ele>
        <time>2022-06-08 09:32:52</time>
      </trkpt>
      <trkpt lat="43.12948" lon="-0.55096">
        <ele>397.4</ele>
        <time>2022-06-08 09:32:53</time>
      </trkpt>
      <trkpt lat="43.12947" lon="-0.55097">
        <ele>397.6</ele>
        <time>2022-06-08 09:32:54</time>
      </trkpt>
      <trkpt lat="43.12946" lon="-0.55099">
        <ele>397.8</ele>
        <time>2022-06-08 09:32:55</time>
      </trkpt>
      <trkpt lat="43.12945" lon="-0.55101">
        <ele>398</ele>
        <time>2022-06-08 09:32:56</time>
      </trkpt>
      <trkpt lat="43.12944" lon="-0.55103">
        <ele>398.6</ele>
        <time>2022-06-08 09:32:57</time>
      </trkpt>
      <trkpt lat="43.12943" lon="-0.55104">
        <ele>398.8</ele>
        <time>2022-06-08 09:32:58</time>
      </trkpt>
      <trkpt lat="43.12943" lon="-0.55106">
        <ele>399.2</ele>
        <time>2022-06-08 09:32:59</time>
      </trkpt>
      <trkpt lat="43.12942" lon="-0.55108">
        <ele>399.2</ele>
        <time>2022-06-08 09:33:00</time>
      </trkpt>
      <trkpt lat="43.12941" lon="-0.5511">
        <ele>399.4</ele>
        <time>2022-06-08 09:33:01</time>
      </trkpt>
      <trkpt lat="43.12939" lon="-0.55113">
        <ele>399.6</ele>
        <time>2022-06-08 09:33:02</time>
      </trkpt>
      <trkpt lat="43.12937" lon="-0.55115">
        <ele>400</ele>
        <time>2022-06-08 09:33:03</time>
      </trkpt>
      <trkpt lat="43.12936" lon="-0.55117">
        <ele>400.2</ele>
        <time>2022-06-08 09:33:04</time>
      </trkpt>
      <trkpt lat="43.12935" lon="-0.55119">
        <ele>400.4</ele>
        <time>2022-06-08 09:33:05</time>
      </trkpt>
      <trkpt lat="43.12934" lon="-0.55121">
        <ele>400.6</ele>
        <time>2022-06-08 09:33:06</time>
      </trkpt>
      <trkpt lat="43.12933" lon="-0.55123">
        <ele>400.8</ele>
        <time>2022-06-08 09:33:07</time>
      </trkpt>
      <trkpt lat="43.12931" lon="-0.55126">
        <ele>401</ele>
        <time>2022-06-08 09:33:08</time>
      </trkpt>
      <trkpt lat="43.12929" lon="-0.55128">
        <ele>401.2</ele>
        <time>2022-06-08 09:33:09</time>
      </trkpt>
      <trkpt lat="43.12927" lon="-0.5513">
        <ele>401.8</ele>
        <time>2022-06-08 09:33:10</time>
      </trkpt>
      <trkpt lat="43.12926" lon="-0.55133">
        <ele>402</ele>
        <time>2022-06-08 09:33:11</time>
      </trkpt>
      <trkpt lat="43.12926" lon="-0.55136">
        <ele>402.4</ele>
        <time>2022-06-08 09:33:12</time>
      </trkpt>
      <trkpt lat="43.12926" lon="-0.55138">
        <ele>402.4</ele>
        <time>2022-06-08 09:33:13</time>
      </trkpt>
      <trkpt lat="43.12922" lon="-0.55142">
        <ele>402.8</ele>
        <time>2022-06-08 09:33:14</time>
      </trkpt>
      <trkpt lat="43.1292" lon="-0.55145">
        <ele>403</ele>
        <time>2022-06-08 09:33:15</time>
      </trkpt>
      <trkpt lat="43.12917" lon="-0.55148">
        <ele>403.6</ele>
        <time>2022-06-08 09:33:16</time>
      </trkpt>
      <trkpt lat="43.12915" lon="-0.55151">
        <ele>403.6</ele>
        <time>2022-06-08 09:33:17</time>
      </trkpt>
      <trkpt lat="43.12914" lon="-0.55153">
        <ele>404</ele>
        <time>2022-06-08 09:33:18</time>
      </trkpt>
      <trkpt lat="43.12912" lon="-0.55155">
        <ele>404.2</ele>
        <time>2022-06-08 09:33:19</time>
      </trkpt>
      <trkpt lat="43.12911" lon="-0.55157">
        <ele>404.4</ele>
        <time>2022-06-08 09:33:20</time>
      </trkpt>
      <trkpt lat="43.12909" lon="-0.55159">
        <ele>404.8</ele>
        <time>2022-06-08 09:33:21</time>
      </trkpt>
      <trkpt lat="43.12906" lon="-0.55161">
        <ele>405.4</ele>
        <time>2022-06-08 09:33:22</time>
      </trkpt>
      <trkpt lat="43.12904" lon="-0.55163">
        <ele>405.8</ele>
        <time>2022-06-08 09:33:23</time>
      </trkpt>
      <trkpt lat="43.12902" lon="-0.55165">
        <ele>406</ele>
        <time>2022-06-08 09:33:24</time>
      </trkpt>
      <trkpt lat="43.12898" lon="-0.55168">
        <ele>406.2</ele>
        <time>2022-06-08 09:33:25</time>
      </trkpt>
      <trkpt lat="43.12893" lon="-0.55171">
        <ele>406.4</ele>
        <time>2022-06-08 09:33:26</time>
      </trkpt>
      <trkpt lat="43.1289" lon="-0.55173">
        <ele>406.8</ele>
        <time>2022-06-08 09:33:27</time>
      </trkpt>
      <trkpt lat="43.12889" lon="-0.55176">
        <ele>406.8</ele>
        <time>2022-06-08 09:33:28</time>
      </trkpt>
      <trkpt lat="43.12888" lon="-0.55179">
        <ele>407</ele>
        <time>2022-06-08 09:33:29</time>
      </trkpt>
      <trkpt lat="43.12887" lon="-0.55181">
        <ele>407.2</ele>
        <time>2022-06-08 09:33:30</time>
      </trkpt>
      <trkpt lat="43.12886" lon="-0.55183">
        <ele>407.6</ele>
        <time>2022-06-08 09:33:31</time>
      </trkpt>
      <trkpt lat="43.12884" lon="-0.55185">
        <ele>407.6</ele>
        <time>2022-06-08 09:33:32</time>
      </trkpt>
      <trkpt lat="43.12884" lon="-0.55188">
        <ele>408</ele>
        <time>2022-06-08 09:33:33</time>
      </trkpt>
      <trkpt lat="43.12883" lon="-0.55191">
        <ele>408.2</ele>
        <time>2022-06-08 09:33:34</time>
      </trkpt>
      <trkpt lat="43.12882" lon="-0.55193">
        <ele>408.6</ele>
        <time>2022-06-08 09:33:35</time>
      </trkpt>
      <trkpt lat="43.12881" lon="-0.55195">
        <ele>408.6</ele>
        <time>2022-06-08 09:33:36</time>
      </trkpt>
      <trkpt lat="43.1288" lon="-0.55197">
        <ele>409</ele>
        <time>2022-06-08 09:33:37</time>
      </trkpt>
      <trkpt lat="43.12879" lon="-0.55199">
        <ele>409.2</ele>
        <time>2022-06-08 09:33:38</time>
      </trkpt>
      <trkpt lat="43.12877" lon="-0.55201">
        <ele>409.4</ele>
        <time>2022-06-08 09:33:39</time>
      </trkpt>
      <trkpt lat="43.12876" lon="-0.55204">
        <ele>409.6</ele>
        <time>2022-06-08 09:33:40</time>
      </trkpt>
      <trkpt lat="43.12875" lon="-0.55206">
        <ele>409.6</ele>
        <time>2022-06-08 09:33:41</time>
      </trkpt>
      <trkpt lat="43.12875" lon="-0.55207">
        <ele>410</ele>
        <time>2022-06-08 09:33:42</time>
      </trkpt>
      <trkpt lat="43.12874" lon="-0.55208">
        <ele>410.2</ele>
        <time>2022-06-08 09:33:43</time>
      </trkpt>
      <trkpt lat="43.12872" lon="-0.55209">
        <ele>410.6</ele>
        <time>2022-06-08 09:33:44</time>
      </trkpt>
      <trkpt lat="43.12871" lon="-0.55209">
        <ele>410.8</ele>
        <time>2022-06-08 09:33:45</time>
      </trkpt>
      <trkpt lat="43.12869" lon="-0.55209">
        <ele>411.2</ele>
        <time>2022-06-08 09:33:46</time>
      </trkpt>
      <trkpt lat="43.12867" lon="-0.55209">
        <ele>411.4</ele>
        <time>2022-06-08 09:33:47</time>
      </trkpt>
      <trkpt lat="43.12865" lon="-0.55209">
        <ele>411.8</ele>
        <time>2022-06-08 09:33:48</time>
      </trkpt>
      <trkpt lat="43.12863" lon="-0.55209">
        <ele>412</ele>
        <time>2022-06-08 09:33:49</time>
      </trkpt>
      <trkpt lat="43.1286" lon="-0.55209">
        <ele>412.2</ele>
        <time>2022-06-08 09:33:50</time>
      </trkpt>
      <trkpt lat="43.12858" lon="-0.55208">
        <ele>412.4</ele>
        <time>2022-06-08 09:33:51</time>
      </trkpt>
      <trkpt lat="43.12857" lon="-0.55208">
        <ele>412.6</ele>
        <time>2022-06-08 09:33:52</time>
      </trkpt>
      <trkpt lat="43.12855" lon="-0.55208">
        <ele>412.6</ele>
        <time>2022-06-08 09:33:53</time>
      </trkpt>
      <trkpt lat="43.12853" lon="-0.55207">
        <ele>412.8</ele>
        <time>2022-06-08 09:33:54</time>
      </trkpt>
      <trkpt lat="43.12851" lon="-0.55206">
        <ele>413</ele>
        <time>2022-06-08 09:33:55</time>
      </trkpt>
      <trkpt lat="43.12849" lon="-0.55205">
        <ele>413.2</ele>
        <time>2022-06-08 09:33:56</time>
      </trkpt>
      <trkpt lat="43.12847" lon="-0.55204">
        <ele>413.6</ele>
        <time>2022-06-08 09:33:57</time>
      </trkpt>
      <trkpt lat="43.12844" lon="-0.55203">
        <ele>413.8</ele>
        <time>2022-06-08 09:33:58</time>
      </trkpt>
      <trkpt lat="43.12841" lon="-0.55202">
        <ele>414.2</ele>
        <time>2022-06-08 09:33:59</time>
      </trkpt>
      <trkpt lat="43.1284" lon="-0.552">
        <ele>414.2</ele>
        <time>2022-06-08 09:34:00</time>
      </trkpt>
      <trkpt lat="43.12838" lon="-0.55199">
        <ele>414.6</ele>
        <time>2022-06-08 09:34:01</time>
      </trkpt>
      <trkpt lat="43.12837" lon="-0.55197">
        <ele>414.8</ele>
        <time>2022-06-08 09:34:02</time>
      </trkpt>
      <trkpt lat="43.12835" lon="-0.55194">
        <ele>415.2</ele>
        <time>2022-06-08 09:34:03</time>
      </trkpt>
      <trkpt lat="43.12833" lon="-0.55192">
        <ele>415.4</ele>
        <time>2022-06-08 09:34:04</time>
      </trkpt>
      <trkpt lat="43.12831" lon="-0.55189">
        <ele>416.2</ele>
        <time>2022-06-08 09:34:05</time>
      </trkpt>
      <trkpt lat="43.1283" lon="-0.55185">
        <ele>416.6</ele>
        <time>2022-06-08 09:34:06</time>
      </trkpt>
      <trkpt lat="43.12828" lon="-0.55182">
        <ele>416.8</ele>
        <time>2022-06-08 09:34:07</time>
      </trkpt>
      <trkpt lat="43.12827" lon="-0.55179">
        <ele>417</ele>
        <time>2022-06-08 09:34:08</time>
      </trkpt>
      <trkpt lat="43.12824" lon="-0.55176">
        <ele>417.2</ele>
        <time>2022-06-08 09:34:09</time>
      </trkpt>
      <trkpt lat="43.12822" lon="-0.55173">
        <ele>417.4</ele>
        <time>2022-06-08 09:34:10</time>
      </trkpt>
      <trkpt lat="43.12821" lon="-0.55171">
        <ele>417.4</ele>
        <time>2022-06-08 09:34:11</time>
      </trkpt>
      <trkpt lat="43.1282" lon="-0.55169">
        <ele>417.6</ele>
        <time>2022-06-08 09:34:12</time>
      </trkpt>
      <trkpt lat="43.1282" lon="-0.55167">
        <ele>417.8</ele>
        <time>2022-06-08 09:34:13</time>
      </trkpt>
      <trkpt lat="43.12819" lon="-0.55164">
        <ele>418</ele>
        <time>2022-06-08 09:34:14</time>
      </trkpt>
      <trkpt lat="43.12818" lon="-0.55162">
        <ele>418.2</ele>
        <time>2022-06-08 09:34:15</time>
      </trkpt>
      <trkpt lat="43.12817" lon="-0.55159">
        <ele>418.4</ele>
        <time>2022-06-08 09:34:16</time>
      </trkpt>
      <trkpt lat="43.12817" lon="-0.55156">
        <ele>418.4</ele>
        <time>2022-06-08 09:34:17</time>
      </trkpt>
      <trkpt lat="43.12815" lon="-0.55153">
        <ele>418.6</ele>
        <time>2022-06-08 09:34:18</time>
      </trkpt>
      <trkpt lat="43.12814" lon="-0.55151">
        <ele>418.6</ele>
        <time>2022-06-08 09:34:19</time>
      </trkpt>
      <trkpt lat="43.12812" lon="-0.55148">
        <ele>418.8</ele>
        <time>2022-06-08 09:34:20</time>
      </trkpt>
      <trkpt lat="43.12811" lon="-0.55146">
        <ele>418.8</ele>
        <time>2022-06-08 09:34:21</time>
      </trkpt>
      <trkpt lat="43.1281" lon="-0.55143">
        <ele>418.8</ele>
        <time>2022-06-08 09:34:22</time>
      </trkpt>
      <trkpt lat="43.12809" lon="-0.5514">
        <ele>418.8</ele>
        <time>2022-06-08 09:34:23</time>
      </trkpt>
      <trkpt lat="43.12808" lon="-0.55138">
        <ele>418.8</ele>
        <time>2022-06-08 09:34:24</time>
      </trkpt>
      <trkpt lat="43.12808" lon="-0.55137">
        <ele>419</ele>
        <time>2022-06-08 09:34:25</time>
      </trkpt>
      <trkpt lat="43.12807" lon="-0.55134">
        <ele>419</ele>
        <time>2022-06-08 09:34:26</time>
      </trkpt>
      <trkpt lat="43.12806" lon="-0.5513">
        <ele>419</ele>
        <time>2022-06-08 09:34:27</time>
      </trkpt>
      <trkpt lat="43.12805" lon="-0.55126">
        <ele>419</ele>
        <time>2022-06-08 09:34:28</time>
      </trkpt>
      <trkpt lat="43.12804" lon="-0.55123">
        <ele>419.2</ele>
        <time>2022-06-08 09:34:29</time>
      </trkpt>
      <trkpt lat="43.12802" lon="-0.55119">
        <ele>419.2</ele>
        <time>2022-06-08 09:34:30</time>
      </trkpt>
      <trkpt lat="43.128" lon="-0.55117">
        <ele>419.4</ele>
        <time>2022-06-08 09:34:31</time>
      </trkpt>
      <trkpt lat="43.12797" lon="-0.55114">
        <ele>419.4</ele>
        <time>2022-06-08 09:34:32</time>
      </trkpt>
      <trkpt lat="43.12793" lon="-0.55111">
        <ele>419.6</ele>
        <time>2022-06-08 09:34:33</time>
      </trkpt>
      <trkpt lat="43.12788" lon="-0.55108">
        <ele>419.8</ele>
        <time>2022-06-08 09:34:34</time>
      </trkpt>
      <trkpt lat="43.12786" lon="-0.55106">
        <ele>419.6</ele>
        <time>2022-06-08 09:34:35</time>
      </trkpt>
      <trkpt lat="43.12785" lon="-0.55104">
        <ele>420</ele>
        <time>2022-06-08 09:34:36</time>
      </trkpt>
      <trkpt lat="43.12784" lon="-0.55101">
        <ele>420</ele>
        <time>2022-06-08 09:34:37</time>
      </trkpt>
      <trkpt lat="43.12782" lon="-0.55099">
        <ele>420.2</ele>
        <time>2022-06-08 09:34:38</time>
      </trkpt>
      <trkpt lat="43.12779" lon="-0.55097">
        <ele>420.2</ele>
        <time>2022-06-08 09:34:39</time>
      </trkpt>
      <trkpt lat="43.12775" lon="-0.55094">
        <ele>420.2</ele>
        <time>2022-06-08 09:34:40</time>
      </trkpt>
      <trkpt lat="43.12772" lon="-0.55092">
        <ele>420.2</ele>
        <time>2022-06-08 09:34:41</time>
      </trkpt>
      <trkpt lat="43.1277" lon="-0.55089">
        <ele>420.2</ele>
        <time>2022-06-08 09:34:42</time>
      </trkpt>
      <trkpt lat="43.12768" lon="-0.55086">
        <ele>420.4</ele>
        <time>2022-06-08 09:34:43</time>
      </trkpt>
      <trkpt lat="43.12764" lon="-0.55084">
        <ele>420.4</ele>
        <time>2022-06-08 09:34:44</time>
      </trkpt>
      <trkpt lat="43.12763" lon="-0.55081">
        <ele>420.4</ele>
        <time>2022-06-08 09:34:45</time>
      </trkpt>
      <trkpt lat="43.12762" lon="-0.55079">
        <ele>420.6</ele>
        <time>2022-06-08 09:34:46</time>
      </trkpt>
      <trkpt lat="43.12757" lon="-0.55077">
        <ele>420.6</ele>
        <time>2022-06-08 09:34:47</time>
      </trkpt>
      <trkpt lat="43.12753" lon="-0.55074">
        <ele>420.8</ele>
        <time>2022-06-08 09:34:48</time>
      </trkpt>
      <trkpt lat="43.12748" lon="-0.5507">
        <ele>420.8</ele>
        <time>2022-06-08 09:34:49</time>
      </trkpt>
      <trkpt lat="43.12745" lon="-0.55066">
        <ele>421</ele>
        <time>2022-06-08 09:34:50</time>
      </trkpt>
      <trkpt lat="43.1274" lon="-0.55063">
        <ele>421</ele>
        <time>2022-06-08 09:34:51</time>
      </trkpt>
      <trkpt lat="43.12732" lon="-0.55058">
        <ele>421</ele>
        <time>2022-06-08 09:34:52</time>
      </trkpt>
      <trkpt lat="43.12728" lon="-0.55054">
        <ele>421</ele>
        <time>2022-06-08 09:34:53</time>
      </trkpt>
      <trkpt lat="43.12723" lon="-0.5505">
        <ele>421</ele>
        <time>2022-06-08 09:34:54</time>
      </trkpt>
      <trkpt lat="43.12716" lon="-0.55041">
        <ele>420.6</ele>
        <time>2022-06-08 09:34:55</time>
      </trkpt>
      <trkpt lat="43.12711" lon="-0.55032">
        <ele>420.6</ele>
        <time>2022-06-08 09:34:56</time>
      </trkpt>
      <trkpt lat="43.12709" lon="-0.55024">
        <ele>420.4</ele>
        <time>2022-06-08 09:34:57</time>
      </trkpt>
      <trkpt lat="43.12706" lon="-0.55012">
        <ele>420.4</ele>
        <time>2022-06-08 09:34:58</time>
      </trkpt>
      <trkpt lat="43.12704" lon="-0.55004">
        <ele>420</ele>
        <time>2022-06-08 09:34:59</time>
      </trkpt>
      <trkpt lat="43.127" lon="-0.54995">
        <ele>419.8</ele>
        <time>2022-06-08 09:35:00</time>
      </trkpt>
      <trkpt lat="43.12698" lon="-0.54987">
        <ele>419.4</ele>
        <time>2022-06-08 09:35:01</time>
      </trkpt>
      <trkpt lat="43.12695" lon="-0.54978">
        <ele>418.8</ele>
        <time>2022-06-08 09:35:02</time>
      </trkpt>
      <trkpt lat="43.12688" lon="-0.54969">
        <ele>418.6</ele>
        <time>2022-06-08 09:35:03</time>
      </trkpt>
      <trkpt lat="43.12681" lon="-0.54957">
        <ele>417.8</ele>
        <time>2022-06-08 09:35:04</time>
      </trkpt>
      <trkpt lat="43.12676" lon="-0.54949">
        <ele>417.2</ele>
        <time>2022-06-08 09:35:05</time>
      </trkpt>
      <trkpt lat="43.12669" lon="-0.54937">
        <ele>416</ele>
        <time>2022-06-08 09:35:06</time>
      </trkpt>
      <trkpt lat="43.12662" lon="-0.54928">
        <ele>415.6</ele>
        <time>2022-06-08 09:35:07</time>
      </trkpt>
      <trkpt lat="43.12654" lon="-0.54918">
        <ele>414</ele>
        <time>2022-06-08 09:35:08</time>
      </trkpt>
      <trkpt lat="43.12646" lon="-0.54908">
        <ele>413.4</ele>
        <time>2022-06-08 09:35:09</time>
      </trkpt>
      <trkpt lat="43.1264" lon="-0.54896">
        <ele>412.6</ele>
        <time>2022-06-08 09:35:10</time>
      </trkpt>
      <trkpt lat="43.12632" lon="-0.54883">
        <ele>412.4</ele>
        <time>2022-06-08 09:35:11</time>
      </trkpt>
      <trkpt lat="43.12625" lon="-0.54871">
        <ele>411</ele>
        <time>2022-06-08 09:35:12</time>
      </trkpt>
      <trkpt lat="43.12618" lon="-0.54858">
        <ele>410.4</ele>
        <time>2022-06-08 09:35:13</time>
      </trkpt>
      <trkpt lat="43.12613" lon="-0.54849">
        <ele>409.6</ele>
        <time>2022-06-08 09:35:14</time>
      </trkpt>
      <trkpt lat="43.12606" lon="-0.54836">
        <ele>408.4</ele>
        <time>2022-06-08 09:35:15</time>
      </trkpt>
      <trkpt lat="43.126" lon="-0.54825">
        <ele>408</ele>
        <time>2022-06-08 09:35:16</time>
      </trkpt>
      <trkpt lat="43.12591" lon="-0.54813">
        <ele>407.4</ele>
        <time>2022-06-08 09:35:17</time>
      </trkpt>
      <trkpt lat="43.12583" lon="-0.54802">
        <ele>407</ele>
        <time>2022-06-08 09:35:18</time>
      </trkpt>
      <trkpt lat="43.12574" lon="-0.54789">
        <ele>406</ele>
        <time>2022-06-08 09:35:19</time>
      </trkpt>
      <trkpt lat="43.12569" lon="-0.54776">
        <ele>405.8</ele>
        <time>2022-06-08 09:35:20</time>
      </trkpt>
      <trkpt lat="43.12564" lon="-0.54766">
        <ele>405.6</ele>
        <time>2022-06-08 09:35:21</time>
      </trkpt>
      <trkpt lat="43.12558" lon="-0.54757">
        <ele>405.4</ele>
        <time>2022-06-08 09:35:22</time>
      </trkpt>
      <trkpt lat="43.12555" lon="-0.54751">
        <ele>405.4</ele>
        <time>2022-06-08 09:35:23</time>
      </trkpt>
      <trkpt lat="43.12549" lon="-0.54745">
        <ele>405.4</ele>
        <time>2022-06-08 09:35:24</time>
      </trkpt>
      <trkpt lat="43.12544" lon="-0.54738">
        <ele>405.4</ele>
        <time>2022-06-08 09:35:25</time>
      </trkpt>
      <trkpt lat="43.1254" lon="-0.54733">
        <ele>405.4</ele>
        <time>2022-06-08 09:35:26</time>
      </trkpt>
      <trkpt lat="43.12536" lon="-0.54727">
        <ele>405.8</ele>
        <time>2022-06-08 09:35:27</time>
      </trkpt>
      <trkpt lat="43.12532" lon="-0.54722">
        <ele>406</ele>
        <time>2022-06-08 09:35:28</time>
      </trkpt>
      <trkpt lat="43.12529" lon="-0.54717">
        <ele>406.6</ele>
        <time>2022-06-08 09:35:29</time>
      </trkpt>
      <trkpt lat="43.12526" lon="-0.54712">
        <ele>407</ele>
        <time>2022-06-08 09:35:30</time>
      </trkpt>
      <trkpt lat="43.12523" lon="-0.54707">
        <ele>407.2</ele>
        <time>2022-06-08 09:35:31</time>
      </trkpt>
      <trkpt lat="43.12519" lon="-0.54702">
        <ele>407.6</ele>
        <time>2022-06-08 09:35:32</time>
      </trkpt>
      <trkpt lat="43.12519" lon="-0.54702">
        <ele>408</ele>
        <time>2022-06-08 09:35:33</time>
      </trkpt>
      <trkpt lat="43.12512" lon="-0.54692">
        <ele>408.2</ele>
        <time>2022-06-08 09:35:34</time>
      </trkpt>
      <trkpt lat="43.12508" lon="-0.54687">
        <ele>408.4</ele>
        <time>2022-06-08 09:35:35</time>
      </trkpt>
      <trkpt lat="43.12505" lon="-0.54683">
        <ele>408.8</ele>
        <time>2022-06-08 09:35:36</time>
      </trkpt>
      <trkpt lat="43.12503" lon="-0.54678">
        <ele>409</ele>
        <time>2022-06-08 09:35:37</time>
      </trkpt>
      <trkpt lat="43.12501" lon="-0.54674">
        <ele>409.2</ele>
        <time>2022-06-08 09:35:38</time>
      </trkpt>
      <trkpt lat="43.12497" lon="-0.54668">
        <ele>409.4</ele>
        <time>2022-06-08 09:35:39</time>
      </trkpt>
      <trkpt lat="43.12494" lon="-0.54662">
        <ele>409.6</ele>
        <time>2022-06-08 09:35:40</time>
      </trkpt>
      <trkpt lat="43.1249" lon="-0.54657">
        <ele>409.6</ele>
        <time>2022-06-08 09:35:41</time>
      </trkpt>
      <trkpt lat="43.12487" lon="-0.54653">
        <ele>409.8</ele>
        <time>2022-06-08 09:35:42</time>
      </trkpt>
      <trkpt lat="43.12484" lon="-0.54649">
        <ele>410.2</ele>
        <time>2022-06-08 09:35:43</time>
      </trkpt>
      <trkpt lat="43.12481" lon="-0.54644">
        <ele>410.4</ele>
        <time>2022-06-08 09:35:44</time>
      </trkpt>
      <trkpt lat="43.1248" lon="-0.54639">
        <ele>410.8</ele>
        <time>2022-06-08 09:35:45</time>
      </trkpt>
      <trkpt lat="43.12479" lon="-0.54633">
        <ele>410.8</ele>
        <time>2022-06-08 09:35:46</time>
      </trkpt>
      <trkpt lat="43.12478" lon="-0.54628">
        <ele>411</ele>
        <time>2022-06-08 09:35:47</time>
      </trkpt>
      <trkpt lat="43.12479" lon="-0.54621">
        <ele>411.2</ele>
        <time>2022-06-08 09:35:48</time>
      </trkpt>
      <trkpt lat="43.12478" lon="-0.54616">
        <ele>411.6</ele>
        <time>2022-06-08 09:35:49</time>
      </trkpt>
      <trkpt lat="43.12476" lon="-0.54608">
        <ele>411.8</ele>
        <time>2022-06-08 09:35:50</time>
      </trkpt>
      <trkpt lat="43.12474" lon="-0.54601">
        <ele>412.4</ele>
        <time>2022-06-08 09:35:51</time>
      </trkpt>
      <trkpt lat="43.12472" lon="-0.54594">
        <ele>412.4</ele>
        <time>2022-06-08 09:35:52</time>
      </trkpt>
      <trkpt lat="43.12472" lon="-0.54587">
        <ele>412.6</ele>
        <time>2022-06-08 09:35:53</time>
      </trkpt>
      <trkpt lat="43.12471" lon="-0.5458">
        <ele>412.8</ele>
        <time>2022-06-08 09:35:54</time>
      </trkpt>
      <trkpt lat="43.12473" lon="-0.54573">
        <ele>412.8</ele>
        <time>2022-06-08 09:35:55</time>
      </trkpt>
      <trkpt lat="43.12474" lon="-0.54565">
        <ele>412.8</ele>
        <time>2022-06-08 09:35:56</time>
      </trkpt>
      <trkpt lat="43.12475" lon="-0.54558">
        <ele>412.8</ele>
        <time>2022-06-08 09:35:57</time>
      </trkpt>
      <trkpt lat="43.12472" lon="-0.54551">
        <ele>413.2</ele>
        <time>2022-06-08 09:35:58</time>
      </trkpt>
      <trkpt lat="43.1247" lon="-0.54544">
        <ele>413.2</ele>
        <time>2022-06-08 09:35:59</time>
      </trkpt>
      <trkpt lat="43.12468" lon="-0.54536">
        <ele>413.4</ele>
        <time>2022-06-08 09:36:00</time>
      </trkpt>
      <trkpt lat="43.12466" lon="-0.54529">
        <ele>413.6</ele>
        <time>2022-06-08 09:36:01</time>
      </trkpt>
      <trkpt lat="43.12464" lon="-0.54522">
        <ele>413.8</ele>
        <time>2022-06-08 09:36:02</time>
      </trkpt>
      <trkpt lat="43.12463" lon="-0.54516">
        <ele>414</ele>
        <time>2022-06-08 09:36:03</time>
      </trkpt>
      <trkpt lat="43.12462" lon="-0.54508">
        <ele>414.2</ele>
        <time>2022-06-08 09:36:04</time>
      </trkpt>
      <trkpt lat="43.1246" lon="-0.545">
        <ele>414.2</ele>
        <time>2022-06-08 09:36:05</time>
      </trkpt>
      <trkpt lat="43.1246" lon="-0.54494">
        <ele>414.2</ele>
        <time>2022-06-08 09:36:06</time>
      </trkpt>
      <trkpt lat="43.12459" lon="-0.54488">
        <ele>414.4</ele>
        <time>2022-06-08 09:36:07</time>
      </trkpt>
      <trkpt lat="43.12459" lon="-0.54482">
        <ele>414.4</ele>
        <time>2022-06-08 09:36:08</time>
      </trkpt>
      <trkpt lat="43.12458" lon="-0.54475">
        <ele>414.4</ele>
        <time>2022-06-08 09:36:09</time>
      </trkpt>
      <trkpt lat="43.12457" lon="-0.54468">
        <ele>414.6</ele>
        <time>2022-06-08 09:36:10</time>
      </trkpt>
      <trkpt lat="43.12457" lon="-0.54468">
        <ele>414.6</ele>
        <time>2022-06-08 09:36:11</time>
      </trkpt>
      <trkpt lat="43.12456" lon="-0.54453">
        <ele>414.8</ele>
        <time>2022-06-08 09:36:12</time>
      </trkpt>
      <trkpt lat="43.12455" lon="-0.54445">
        <ele>414.8</ele>
        <time>2022-06-08 09:36:13</time>
      </trkpt>
      <trkpt lat="43.12454" lon="-0.54439">
        <ele>414.8</ele>
        <time>2022-06-08 09:36:14</time>
      </trkpt>
      <trkpt lat="43.12454" lon="-0.54431">
        <ele>414.8</ele>
        <time>2022-06-08 09:36:15</time>
      </trkpt>
      <trkpt lat="43.12453" lon="-0.54422">
        <ele>414.8</ele>
        <time>2022-06-08 09:36:16</time>
      </trkpt>
      <trkpt lat="43.1245" lon="-0.54414">
        <ele>414.8</ele>
        <time>2022-06-08 09:36:17</time>
      </trkpt>
      <trkpt lat="43.12445" lon="-0.54406">
        <ele>414.8</ele>
        <time>2022-06-08 09:36:18</time>
      </trkpt>
      <trkpt lat="43.12441" lon="-0.54399">
        <ele>414.8</ele>
        <time>2022-06-08 09:36:19</time>
      </trkpt>
      <trkpt lat="43.12439" lon="-0.54394">
        <ele>414.8</ele>
        <time>2022-06-08 09:36:20</time>
      </trkpt>
      <trkpt lat="43.12436" lon="-0.54387">
        <ele>414.8</ele>
        <time>2022-06-08 09:36:21</time>
      </trkpt>
      <trkpt lat="43.12434" lon="-0.54379">
        <ele>414.8</ele>
        <time>2022-06-08 09:36:22</time>
      </trkpt>
      <trkpt lat="43.12433" lon="-0.54374">
        <ele>414.8</ele>
        <time>2022-06-08 09:36:23</time>
      </trkpt>
      <trkpt lat="43.12431" lon="-0.54366">
        <ele>415</ele>
        <time>2022-06-08 09:36:24</time>
      </trkpt>
      <trkpt lat="43.12427" lon="-0.5436">
        <ele>415</ele>
        <time>2022-06-08 09:36:25</time>
      </trkpt>
      <trkpt lat="43.12421" lon="-0.54354">
        <ele>415</ele>
        <time>2022-06-08 09:36:26</time>
      </trkpt>
      <trkpt lat="43.12419" lon="-0.54348">
        <ele>415.2</ele>
        <time>2022-06-08 09:36:27</time>
      </trkpt>
      <trkpt lat="43.12417" lon="-0.54342">
        <ele>415.4</ele>
        <time>2022-06-08 09:36:28</time>
      </trkpt>
      <trkpt lat="43.12416" lon="-0.54336">
        <ele>415.6</ele>
        <time>2022-06-08 09:36:29</time>
      </trkpt>
      <trkpt lat="43.12414" lon="-0.5433">
        <ele>415.8</ele>
        <time>2022-06-08 09:36:30</time>
      </trkpt>
      <trkpt lat="43.12413" lon="-0.54325">
        <ele>416</ele>
        <time>2022-06-08 09:36:31</time>
      </trkpt>
      <trkpt lat="43.12412" lon="-0.54318">
        <ele>416.2</ele>
        <time>2022-06-08 09:36:32</time>
      </trkpt>
      <trkpt lat="43.12411" lon="-0.54312">
        <ele>416.4</ele>
        <time>2022-06-08 09:36:33</time>
      </trkpt>
      <trkpt lat="43.1241" lon="-0.54307">
        <ele>416.8</ele>
        <time>2022-06-08 09:36:34</time>
      </trkpt>
      <trkpt lat="43.12406" lon="-0.54301">
        <ele>416.8</ele>
        <time>2022-06-08 09:36:35</time>
      </trkpt>
      <trkpt lat="43.12402" lon="-0.54294">
        <ele>417</ele>
        <time>2022-06-08 09:36:36</time>
      </trkpt>
      <trkpt lat="43.12401" lon="-0.54287">
        <ele>416.8</ele>
        <time>2022-06-08 09:36:37</time>
      </trkpt>
      <trkpt lat="43.124" lon="-0.5428">
        <ele>417</ele>
        <time>2022-06-08 09:36:38</time>
      </trkpt>
      <trkpt lat="43.12399" lon="-0.54273">
        <ele>417</ele>
        <time>2022-06-08 09:36:39</time>
      </trkpt>
      <trkpt lat="43.12398" lon="-0.54265">
        <ele>417</ele>
        <time>2022-06-08 09:36:40</time>
      </trkpt>
      <trkpt lat="43.12398" lon="-0.54258">
        <ele>417</ele>
        <time>2022-06-08 09:36:41</time>
      </trkpt>
      <trkpt lat="43.12397" lon="-0.5425">
        <ele>417</ele>
        <time>2022-06-08 09:36:42</time>
      </trkpt>
      <trkpt lat="43.12397" lon="-0.54242">
        <ele>417</ele>
        <time>2022-06-08 09:36:43</time>
      </trkpt>
      <trkpt lat="43.12397" lon="-0.54234">
        <ele>417</ele>
        <time>2022-06-08 09:36:44</time>
      </trkpt>
      <trkpt lat="43.12397" lon="-0.54228">
        <ele>417</ele>
        <time>2022-06-08 09:36:45</time>
      </trkpt>
      <trkpt lat="43.12395" lon="-0.54218">
        <ele>416.8</ele>
        <time>2022-06-08 09:36:46</time>
      </trkpt>
      <trkpt lat="43.12394" lon="-0.54208">
        <ele>416.8</ele>
        <time>2022-06-08 09:36:47</time>
      </trkpt>
      <trkpt lat="43.12391" lon="-0.54198">
        <ele>416.6</ele>
        <time>2022-06-08 09:36:48</time>
      </trkpt>
      <trkpt lat="43.12391" lon="-0.54198">
        <ele>416.4</ele>
        <time>2022-06-08 09:36:49</time>
      </trkpt>
      <trkpt lat="43.12388" lon="-0.54181">
        <ele>416.2</ele>
        <time>2022-06-08 09:36:50</time>
      </trkpt>
      <trkpt lat="43.12388" lon="-0.54172">
        <ele>416</ele>
        <time>2022-06-08 09:36:51</time>
      </trkpt>
      <trkpt lat="43.12388" lon="-0.54164">
        <ele>416</ele>
        <time>2022-06-08 09:36:52</time>
      </trkpt>
      <trkpt lat="43.12391" lon="-0.54154">
        <ele>415.8</ele>
        <time>2022-06-08 09:36:53</time>
      </trkpt>
      <trkpt lat="43.12393" lon="-0.54143">
        <ele>415.8</ele>
        <time>2022-06-08 09:36:54</time>
      </trkpt>
      <trkpt lat="43.12394" lon="-0.54134">
        <ele>415.6</ele>
        <time>2022-06-08 09:36:55</time>
      </trkpt>
      <trkpt lat="43.12394" lon="-0.54125">
        <ele>415.4</ele>
        <time>2022-06-08 09:36:56</time>
      </trkpt>
      <trkpt lat="43.12392" lon="-0.54114">
        <ele>415.2</ele>
        <time>2022-06-08 09:36:57</time>
      </trkpt>
      <trkpt lat="43.12391" lon="-0.54103">
        <ele>415</ele>
        <time>2022-06-08 09:36:58</time>
      </trkpt>
      <trkpt lat="43.12391" lon="-0.54103">
        <ele>415</ele>
        <time>2022-06-08 09:36:59</time>
      </trkpt>
      <trkpt lat="43.12392" lon="-0.54082">
        <ele>414.8</ele>
        <time>2022-06-08 09:37:00</time>
      </trkpt>
      <trkpt lat="43.12391" lon="-0.54071">
        <ele>414.8</ele>
        <time>2022-06-08 09:37:01</time>
      </trkpt>
      <trkpt lat="43.12389" lon="-0.54059">
        <ele>414.6</ele>
        <time>2022-06-08 09:37:02</time>
      </trkpt>
      <trkpt lat="43.12386" lon="-0.54046">
        <ele>414.2</ele>
        <time>2022-06-08 09:37:03</time>
      </trkpt>
      <trkpt lat="43.12382" lon="-0.54033">
        <ele>413.8</ele>
        <time>2022-06-08 09:37:04</time>
      </trkpt>
      <trkpt lat="43.12378" lon="-0.54021">
        <ele>413.6</ele>
        <time>2022-06-08 09:37:05</time>
      </trkpt>
      <trkpt lat="43.12372" lon="-0.54009">
        <ele>412.6</ele>
        <time>2022-06-08 09:37:06</time>
      </trkpt>
      <trkpt lat="43.12366" lon="-0.53996">
        <ele>412.2</ele>
        <time>2022-06-08 09:37:07</time>
      </trkpt>
      <trkpt lat="43.12362" lon="-0.53985">
        <ele>411.4</ele>
        <time>2022-06-08 09:37:08</time>
      </trkpt>
      <trkpt lat="43.12359" lon="-0.53974">
        <ele>410.6</ele>
        <time>2022-06-08 09:37:09</time>
      </trkpt>
      <trkpt lat="43.12357" lon="-0.53967">
        <ele>410</ele>
        <time>2022-06-08 09:37:10</time>
      </trkpt>
      <trkpt lat="43.12357" lon="-0.53967">
        <ele>409.6</ele>
        <time>2022-06-08 09:37:11</time>
      </trkpt>
      <trkpt lat="43.12347" lon="-0.53952">
        <ele>409.6</ele>
        <time>2022-06-08 09:37:12</time>
      </trkpt>
      <trkpt lat="43.12343" lon="-0.53948">
        <ele>409.4</ele>
        <time>2022-06-08 09:37:13</time>
      </trkpt>
      <trkpt lat="43.12339" lon="-0.53946">
        <ele>409.4</ele>
        <time>2022-06-08 09:37:14</time>
      </trkpt>
      <trkpt lat="43.12336" lon="-0.53945">
        <ele>409.2</ele>
        <time>2022-06-08 09:37:15</time>
      </trkpt>
      <trkpt lat="43.12333" lon="-0.53941">
        <ele>409.4</ele>
        <time>2022-06-08 09:37:16</time>
      </trkpt>
      <trkpt lat="43.12329" lon="-0.53938">
        <ele>409.6</ele>
        <time>2022-06-08 09:37:17</time>
      </trkpt>
      <trkpt lat="43.12326" lon="-0.53936">
        <ele>409.6</ele>
        <time>2022-06-08 09:37:18</time>
      </trkpt>
      <trkpt lat="43.12324" lon="-0.53934">
        <ele>409.6</ele>
        <time>2022-06-08 09:37:19</time>
      </trkpt>
      <trkpt lat="43.12322" lon="-0.53932">
        <ele>409.4</ele>
        <time>2022-06-08 09:37:20</time>
      </trkpt>
      <trkpt lat="43.12322" lon="-0.53932">
        <ele>409.6</ele>
        <time>2022-06-08 09:37:21</time>
      </trkpt>
      <trkpt lat="43.12315" lon="-0.53927">
        <ele>409.8</ele>
        <time>2022-06-08 09:37:22</time>
      </trkpt>
      <trkpt lat="43.12311" lon="-0.53924">
        <ele>410</ele>
        <time>2022-06-08 09:37:23</time>
      </trkpt>
      <trkpt lat="43.12306" lon="-0.53922">
        <ele>410.2</ele>
        <time>2022-06-08 09:37:24</time>
      </trkpt>
      <trkpt lat="43.12302" lon="-0.53919">
        <ele>410.2</ele>
        <time>2022-06-08 09:37:25</time>
      </trkpt>
      <trkpt lat="43.123" lon="-0.53917">
        <ele>410.4</ele>
        <time>2022-06-08 09:37:26</time>
      </trkpt>
      <trkpt lat="43.12295" lon="-0.53914">
        <ele>410.4</ele>
        <time>2022-06-08 09:37:27</time>
      </trkpt>
      <trkpt lat="43.12291" lon="-0.53911">
        <ele>410.6</ele>
        <time>2022-06-08 09:37:28</time>
      </trkpt>
      <trkpt lat="43.12286" lon="-0.53908">
        <ele>410.6</ele>
        <time>2022-06-08 09:37:29</time>
      </trkpt>
      <trkpt lat="43.12282" lon="-0.53905">
        <ele>410.8</ele>
        <time>2022-06-08 09:37:30</time>
      </trkpt>
      <trkpt lat="43.12278" lon="-0.53903">
        <ele>411</ele>
        <time>2022-06-08 09:37:31</time>
      </trkpt>
      <trkpt lat="43.12274" lon="-0.539">
        <ele>411.2</ele>
        <time>2022-06-08 09:37:32</time>
      </trkpt>
      <trkpt lat="43.12271" lon="-0.53897">
        <ele>411.4</ele>
        <time>2022-06-08 09:37:33</time>
      </trkpt>
      <trkpt lat="43.12267" lon="-0.53894">
        <ele>411.8</ele>
        <time>2022-06-08 09:37:34</time>
      </trkpt>
      <trkpt lat="43.12262" lon="-0.5389">
        <ele>412</ele>
        <time>2022-06-08 09:37:35</time>
      </trkpt>
      <trkpt lat="43.12258" lon="-0.53887">
        <ele>412.2</ele>
        <time>2022-06-08 09:37:36</time>
      </trkpt>
      <trkpt lat="43.12254" lon="-0.53885">
        <ele>412.6</ele>
        <time>2022-06-08 09:37:37</time>
      </trkpt>
      <trkpt lat="43.1225" lon="-0.53882">
        <ele>412.6</ele>
        <time>2022-06-08 09:37:38</time>
      </trkpt>
      <trkpt lat="43.12246" lon="-0.5388">
        <ele>412.8</ele>
        <time>2022-06-08 09:37:39</time>
      </trkpt>
      <trkpt lat="43.12243" lon="-0.53877">
        <ele>412.8</ele>
        <time>2022-06-08 09:37:40</time>
      </trkpt>
      <trkpt lat="43.12239" lon="-0.53875">
        <ele>413.2</ele>
        <time>2022-06-08 09:37:41</time>
      </trkpt>
      <trkpt lat="43.12235" lon="-0.53872">
        <ele>413.4</ele>
        <time>2022-06-08 09:37:42</time>
      </trkpt>
      <trkpt lat="43.1223" lon="-0.53869">
        <ele>413.8</ele>
        <time>2022-06-08 09:37:43</time>
      </trkpt>
      <trkpt lat="43.12227" lon="-0.53866">
        <ele>413.8</ele>
        <time>2022-06-08 09:37:44</time>
      </trkpt>
      <trkpt lat="43.12224" lon="-0.53863">
        <ele>414</ele>
        <time>2022-06-08 09:37:45</time>
      </trkpt>
      <trkpt lat="43.1222" lon="-0.53861">
        <ele>414.2</ele>
        <time>2022-06-08 09:37:46</time>
      </trkpt>
      <trkpt lat="43.12216" lon="-0.53858">
        <ele>414.6</ele>
        <time>2022-06-08 09:37:47</time>
      </trkpt>
      <trkpt lat="43.12213" lon="-0.53856">
        <ele>414.6</ele>
        <time>2022-06-08 09:37:48</time>
      </trkpt>
      <trkpt lat="43.12209" lon="-0.53853">
        <ele>414.8</ele>
        <time>2022-06-08 09:37:49</time>
      </trkpt>
      <trkpt lat="43.12206" lon="-0.5385">
        <ele>414.8</ele>
        <time>2022-06-08 09:37:50</time>
      </trkpt>
      <trkpt lat="43.12202" lon="-0.53847">
        <ele>415</ele>
        <time>2022-06-08 09:37:51</time>
      </trkpt>
      <trkpt lat="43.12196" lon="-0.53844">
        <ele>415.2</ele>
        <time>2022-06-08 09:37:52</time>
      </trkpt>
      <trkpt lat="43.12191" lon="-0.5384">
        <ele>415.4</ele>
        <time>2022-06-08 09:37:53</time>
      </trkpt>
      <trkpt lat="43.12188" lon="-0.53837">
        <ele>415.6</ele>
        <time>2022-06-08 09:37:54</time>
      </trkpt>
      <trkpt lat="43.12185" lon="-0.53833">
        <ele>415.6</ele>
        <time>2022-06-08 09:37:55</time>
      </trkpt>
      <trkpt lat="43.12183" lon="-0.53829">
        <ele>415.8</ele>
        <time>2022-06-08 09:37:56</time>
      </trkpt>
      <trkpt lat="43.12179" lon="-0.53826">
        <ele>416</ele>
        <time>2022-06-08 09:37:57</time>
      </trkpt>
      <trkpt lat="43.12174" lon="-0.53823">
        <ele>416</ele>
        <time>2022-06-08 09:37:58</time>
      </trkpt>
      <trkpt lat="43.1217" lon="-0.5382">
        <ele>416</ele>
        <time>2022-06-08 09:37:59</time>
      </trkpt>
      <trkpt lat="43.12163" lon="-0.53817">
        <ele>416.2</ele>
        <time>2022-06-08 09:38:00</time>
      </trkpt>
      <trkpt lat="43.12158" lon="-0.53814">
        <ele>416.2</ele>
        <time>2022-06-08 09:38:01</time>
      </trkpt>
      <trkpt lat="43.1215" lon="-0.53812">
        <ele>416.4</ele>
        <time>2022-06-08 09:38:02</time>
      </trkpt>
      <trkpt lat="43.12146" lon="-0.5381">
        <ele>416.4</ele>
        <time>2022-06-08 09:38:03</time>
      </trkpt>
      <trkpt lat="43.12142" lon="-0.53808">
        <ele>416.4</ele>
        <time>2022-06-08 09:38:04</time>
      </trkpt>
      <trkpt lat="43.12139" lon="-0.53808">
        <ele>416.8</ele>
        <time>2022-06-08 09:38:05</time>
      </trkpt>
      <trkpt lat="43.12135" lon="-0.53806">
        <ele>416.8</ele>
        <time>2022-06-08 09:38:06</time>
      </trkpt>
      <trkpt lat="43.12133" lon="-0.53804">
        <ele>416.8</ele>
        <time>2022-06-08 09:38:07</time>
      </trkpt>
      <trkpt lat="43.12129" lon="-0.53803">
        <ele>417</ele>
        <time>2022-06-08 09:38:08</time>
      </trkpt>
      <trkpt lat="43.12121" lon="-0.53802">
        <ele>417</ele>
        <time>2022-06-08 09:38:09</time>
      </trkpt>
      <trkpt lat="43.12114" lon="-0.53802">
        <ele>417</ele>
        <time>2022-06-08 09:38:10</time>
      </trkpt>
      <trkpt lat="43.12109" lon="-0.53802">
        <ele>417</ele>
        <time>2022-06-08 09:38:11</time>
      </trkpt>
      <trkpt lat="43.12105" lon="-0.53803">
        <ele>417</ele>
        <time>2022-06-08 09:38:12</time>
      </trkpt>
      <trkpt lat="43.12101" lon="-0.53803">
        <ele>417</ele>
        <time>2022-06-08 09:38:13</time>
      </trkpt>
      <trkpt lat="43.12098" lon="-0.53801">
        <ele>417</ele>
        <time>2022-06-08 09:38:14</time>
      </trkpt>
      <trkpt lat="43.12097" lon="-0.53798">
        <ele>417</ele>
        <time>2022-06-08 09:38:15</time>
      </trkpt>
      <trkpt lat="43.12095" lon="-0.53795">
        <ele>417</ele>
        <time>2022-06-08 09:38:16</time>
      </trkpt>
      <trkpt lat="43.12093" lon="-0.53791">
        <ele>416.8</ele>
        <time>2022-06-08 09:38:17</time>
      </trkpt>
      <trkpt lat="43.12088" lon="-0.53783">
        <ele>416.8</ele>
        <time>2022-06-08 09:38:18</time>
      </trkpt>
      <trkpt lat="43.12082" lon="-0.53774">
        <ele>416.8</ele>
        <time>2022-06-08 09:38:19</time>
      </trkpt>
      <trkpt lat="43.12078" lon="-0.53765">
        <ele>417</ele>
        <time>2022-06-08 09:38:20</time>
      </trkpt>
      <trkpt lat="43.12075" lon="-0.53756">
        <ele>417</ele>
        <time>2022-06-08 09:38:21</time>
      </trkpt>
      <trkpt lat="43.12071" lon="-0.53749">
        <ele>417.2</ele>
        <time>2022-06-08 09:38:22</time>
      </trkpt>
      <trkpt lat="43.12067" lon="-0.53745">
        <ele>417.4</ele>
        <time>2022-06-08 09:38:23</time>
      </trkpt>
      <trkpt lat="43.12064" lon="-0.53739">
        <ele>417.6</ele>
        <time>2022-06-08 09:38:24</time>
      </trkpt>
      <trkpt lat="43.12062" lon="-0.53734">
        <ele>417.6</ele>
        <time>2022-06-08 09:38:25</time>
      </trkpt>
      <trkpt lat="43.1206" lon="-0.53729">
        <ele>417.8</ele>
        <time>2022-06-08 09:38:26</time>
      </trkpt>
      <trkpt lat="43.12058" lon="-0.53725">
        <ele>417.8</ele>
        <time>2022-06-08 09:38:27</time>
      </trkpt>
      <trkpt lat="43.12055" lon="-0.53719">
        <ele>417.8</ele>
        <time>2022-06-08 09:38:28</time>
      </trkpt>
      <trkpt lat="43.12051" lon="-0.53714">
        <ele>417.8</ele>
        <time>2022-06-08 09:38:29</time>
      </trkpt>
      <trkpt lat="43.12046" lon="-0.53707">
        <ele>417.8</ele>
        <time>2022-06-08 09:38:30</time>
      </trkpt>
      <trkpt lat="43.12041" lon="-0.537">
        <ele>417.8</ele>
        <time>2022-06-08 09:38:31</time>
      </trkpt>
      <trkpt lat="43.12039" lon="-0.53693">
        <ele>417.8</ele>
        <time>2022-06-08 09:38:32</time>
      </trkpt>
      <trkpt lat="43.12037" lon="-0.53687">
        <ele>417.8</ele>
        <time>2022-06-08 09:38:33</time>
      </trkpt>
      <trkpt lat="43.12034" lon="-0.53682">
        <ele>417.8</ele>
        <time>2022-06-08 09:38:34</time>
      </trkpt>
      <trkpt lat="43.12031" lon="-0.53678">
        <ele>417.6</ele>
        <time>2022-06-08 09:38:35</time>
      </trkpt>
      <trkpt lat="43.12029" lon="-0.53674">
        <ele>417.6</ele>
        <time>2022-06-08 09:38:36</time>
      </trkpt>
      <trkpt lat="43.12026" lon="-0.5367">
        <ele>417.6</ele>
        <time>2022-06-08 09:38:37</time>
      </trkpt>
      <trkpt lat="43.12025" lon="-0.53665">
        <ele>417.6</ele>
        <time>2022-06-08 09:38:38</time>
      </trkpt>
      <trkpt lat="43.12023" lon="-0.53662">
        <ele>417.6</ele>
        <time>2022-06-08 09:38:39</time>
      </trkpt>
      <trkpt lat="43.12023" lon="-0.53662">
        <ele>417.6</ele>
        <time>2022-06-08 09:38:40</time>
      </trkpt>
      <trkpt lat="43.12023" lon="-0.53651">
        <ele>417.6</ele>
        <time>2022-06-08 09:38:41</time>
      </trkpt>
      <trkpt lat="43.12024" lon="-0.53642">
        <ele>417.6</ele>
        <time>2022-06-08 09:38:42</time>
      </trkpt>
      <trkpt lat="43.12023" lon="-0.53633">
        <ele>417.6</ele>
        <time>2022-06-08 09:38:43</time>
      </trkpt>
      <trkpt lat="43.12021" lon="-0.53625">
        <ele>417.6</ele>
        <time>2022-06-08 09:38:44</time>
      </trkpt>
      <trkpt lat="43.12021" lon="-0.53616">
        <ele>417.6</ele>
        <time>2022-06-08 09:38:45</time>
      </trkpt>
      <trkpt lat="43.1202" lon="-0.53608">
        <ele>417.6</ele>
        <time>2022-06-08 09:38:46</time>
      </trkpt>
      <trkpt lat="43.12021" lon="-0.536">
        <ele>417.6</ele>
        <time>2022-06-08 09:38:47</time>
      </trkpt>
      <trkpt lat="43.12023" lon="-0.53591">
        <ele>417.8</ele>
        <time>2022-06-08 09:38:48</time>
      </trkpt>
      <trkpt lat="43.12024" lon="-0.53582">
        <ele>417.8</ele>
        <time>2022-06-08 09:38:49</time>
      </trkpt>
      <trkpt lat="43.12024" lon="-0.53573">
        <ele>417.8</ele>
        <time>2022-06-08 09:38:50</time>
      </trkpt>
      <trkpt lat="43.12022" lon="-0.53564">
        <ele>417.8</ele>
        <time>2022-06-08 09:38:51</time>
      </trkpt>
      <trkpt lat="43.12021" lon="-0.53556">
        <ele>417.4</ele>
        <time>2022-06-08 09:38:52</time>
      </trkpt>
      <trkpt lat="43.12017" lon="-0.53549">
        <ele>417.4</ele>
        <time>2022-06-08 09:38:53</time>
      </trkpt>
      <trkpt lat="43.12013" lon="-0.53544">
        <ele>417.4</ele>
        <time>2022-06-08 09:38:54</time>
      </trkpt>
      <trkpt lat="43.12007" lon="-0.5354">
        <ele>417.4</ele>
        <time>2022-06-08 09:38:55</time>
      </trkpt>
      <trkpt lat="43.12" lon="-0.53536">
        <ele>417.2</ele>
        <time>2022-06-08 09:38:56</time>
      </trkpt>
      <trkpt lat="43.11991" lon="-0.53534">
        <ele>417.2</ele>
        <time>2022-06-08 09:38:57</time>
      </trkpt>
      <trkpt lat="43.11986" lon="-0.53532">
        <ele>417</ele>
        <time>2022-06-08 09:38:58</time>
      </trkpt>
      <trkpt lat="43.11981" lon="-0.53529">
        <ele>417</ele>
        <time>2022-06-08 09:38:59</time>
      </trkpt>
      <trkpt lat="43.11975" lon="-0.53521">
        <ele>417</ele>
        <time>2022-06-08 09:39:00</time>
      </trkpt>
      <trkpt lat="43.11971" lon="-0.5351">
        <ele>417</ele>
        <time>2022-06-08 09:39:01</time>
      </trkpt>
      <trkpt lat="43.11974" lon="-0.53501">
        <ele>416.8</ele>
        <time>2022-06-08 09:39:02</time>
      </trkpt>
      <trkpt lat="43.11977" lon="-0.53488">
        <ele>417</ele>
        <time>2022-06-08 09:39:03</time>
      </trkpt>
      <trkpt lat="43.11979" lon="-0.53479">
        <ele>416.8</ele>
        <time>2022-06-08 09:39:04</time>
      </trkpt>
      <trkpt lat="43.11979" lon="-0.53469">
        <ele>417</ele>
        <time>2022-06-08 09:39:05</time>
      </trkpt>
      <trkpt lat="43.11979" lon="-0.53459">
        <ele>417</ele>
        <time>2022-06-08 09:39:06</time>
      </trkpt>
      <trkpt lat="43.11979" lon="-0.53449">
        <ele>417</ele>
        <time>2022-06-08 09:39:07</time>
      </trkpt>
      <trkpt lat="43.11979" lon="-0.53439">
        <ele>417</ele>
        <time>2022-06-08 09:39:08</time>
      </trkpt>
      <trkpt lat="43.11978" lon="-0.53429">
        <ele>417.2</ele>
        <time>2022-06-08 09:39:09</time>
      </trkpt>
      <trkpt lat="43.11976" lon="-0.53418">
        <ele>417.2</ele>
        <time>2022-06-08 09:39:10</time>
      </trkpt>
      <trkpt lat="43.11974" lon="-0.5341">
        <ele>417.4</ele>
        <time>2022-06-08 09:39:11</time>
      </trkpt>
      <trkpt lat="43.11971" lon="-0.53403">
        <ele>417.4</ele>
        <time>2022-06-08 09:39:12</time>
      </trkpt>
      <trkpt lat="43.11969" lon="-0.53394">
        <ele>417.4</ele>
        <time>2022-06-08 09:39:13</time>
      </trkpt>
      <trkpt lat="43.11968" lon="-0.53386">
        <ele>417.4</ele>
        <time>2022-06-08 09:39:14</time>
      </trkpt>
      <trkpt lat="43.11969" lon="-0.53377">
        <ele>417.6</ele>
        <time>2022-06-08 09:39:15</time>
      </trkpt>
      <trkpt lat="43.11973" lon="-0.53367">
        <ele>417.6</ele>
        <time>2022-06-08 09:39:16</time>
      </trkpt>
      <trkpt lat="43.11977" lon="-0.53358">
        <ele>417.6</ele>
        <time>2022-06-08 09:39:17</time>
      </trkpt>
      <trkpt lat="43.11983" lon="-0.53349">
        <ele>417.6</ele>
        <time>2022-06-08 09:39:18</time>
      </trkpt>
      <trkpt lat="43.11988" lon="-0.53338">
        <ele>417.6</ele>
        <time>2022-06-08 09:39:19</time>
      </trkpt>
      <trkpt lat="43.11991" lon="-0.53331">
        <ele>417.8</ele>
        <time>2022-06-08 09:39:20</time>
      </trkpt>
      <trkpt lat="43.11996" lon="-0.53321">
        <ele>417.8</ele>
        <time>2022-06-08 09:39:21</time>
      </trkpt>
      <trkpt lat="43.11998" lon="-0.53315">
        <ele>417.6</ele>
        <time>2022-06-08 09:39:22</time>
      </trkpt>
      <trkpt lat="43.12" lon="-0.53305">
        <ele>417.6</ele>
        <time>2022-06-08 09:39:23</time>
      </trkpt>
      <trkpt lat="43.12002" lon="-0.53295">
        <ele>417.8</ele>
        <time>2022-06-08 09:39:24</time>
      </trkpt>
      <trkpt lat="43.12004" lon="-0.53287">
        <ele>417.8</ele>
        <time>2022-06-08 09:39:25</time>
      </trkpt>
      <trkpt lat="43.12006" lon="-0.5328">
        <ele>417.8</ele>
        <time>2022-06-08 09:39:26</time>
      </trkpt>
      <trkpt lat="43.12008" lon="-0.53275">
        <ele>417.8</ele>
        <time>2022-06-08 09:39:27</time>
      </trkpt>
      <trkpt lat="43.12011" lon="-0.53267">
        <ele>417.6</ele>
        <time>2022-06-08 09:39:28</time>
      </trkpt>
      <trkpt lat="43.12014" lon="-0.5326">
        <ele>417.6</ele>
        <time>2022-06-08 09:39:29</time>
      </trkpt>
      <trkpt lat="43.12016" lon="-0.53251">
        <ele>417.6</ele>
        <time>2022-06-08 09:39:30</time>
      </trkpt>
      <trkpt lat="43.12017" lon="-0.53242">
        <ele>417.4</ele>
        <time>2022-06-08 09:39:31</time>
      </trkpt>
      <trkpt lat="43.12017" lon="-0.53232">
        <ele>417.4</ele>
        <time>2022-06-08 09:39:32</time>
      </trkpt>
      <trkpt lat="43.12016" lon="-0.53222">
        <ele>417.4</ele>
        <time>2022-06-08 09:39:33</time>
      </trkpt>
      <trkpt lat="43.12013" lon="-0.53213">
        <ele>417.4</ele>
        <time>2022-06-08 09:39:34</time>
      </trkpt>
      <trkpt lat="43.12011" lon="-0.53205">
        <ele>417.6</ele>
        <time>2022-06-08 09:39:35</time>
      </trkpt>
      <trkpt lat="43.12007" lon="-0.53197">
        <ele>417.4</ele>
        <time>2022-06-08 09:39:36</time>
      </trkpt>
      <trkpt lat="43.12002" lon="-0.53191">
        <ele>417.6</ele>
        <time>2022-06-08 09:39:37</time>
      </trkpt>
      <trkpt lat="43.11997" lon="-0.53186">
        <ele>417.6</ele>
        <time>2022-06-08 09:39:38</time>
      </trkpt>
      <trkpt lat="43.1199" lon="-0.53181">
        <ele>417.6</ele>
        <time>2022-06-08 09:39:39</time>
      </trkpt>
      <trkpt lat="43.11983" lon="-0.53177">
        <ele>417.8</ele>
        <time>2022-06-08 09:39:40</time>
      </trkpt>
      <trkpt lat="43.11977" lon="-0.53172">
        <ele>417.6</ele>
        <time>2022-06-08 09:39:41</time>
      </trkpt>
      <trkpt lat="43.11971" lon="-0.53168">
        <ele>417.6</ele>
        <time>2022-06-08 09:39:42</time>
      </trkpt>
      <trkpt lat="43.11971" lon="-0.53168">
        <ele>417.4</ele>
        <time>2022-06-08 09:39:43</time>
      </trkpt>
      <trkpt lat="43.11958" lon="-0.53157">
        <ele>417.4</ele>
        <time>2022-06-08 09:39:44</time>
      </trkpt>
      <trkpt lat="43.11955" lon="-0.53149">
        <ele>417.4</ele>
        <time>2022-06-08 09:39:45</time>
      </trkpt>
      <trkpt lat="43.11955" lon="-0.53139">
        <ele>417.6</ele>
        <time>2022-06-08 09:39:46</time>
      </trkpt>
      <trkpt lat="43.11957" lon="-0.5313">
        <ele>417.6</ele>
        <time>2022-06-08 09:39:47</time>
      </trkpt>
      <trkpt lat="43.1196" lon="-0.5312">
        <ele>417.8</ele>
        <time>2022-06-08 09:39:48</time>
      </trkpt>
      <trkpt lat="43.11964" lon="-0.53113">
        <ele>417.8</ele>
        <time>2022-06-08 09:39:49</time>
      </trkpt>
      <trkpt lat="43.11969" lon="-0.53105">
        <ele>417.8</ele>
        <time>2022-06-08 09:39:50</time>
      </trkpt>
      <trkpt lat="43.11973" lon="-0.53095">
        <ele>418</ele>
        <time>2022-06-08 09:39:51</time>
      </trkpt>
      <trkpt lat="43.11977" lon="-0.53087">
        <ele>417.8</ele>
        <time>2022-06-08 09:39:52</time>
      </trkpt>
      <trkpt lat="43.1198" lon="-0.53078">
        <ele>417.8</ele>
        <time>2022-06-08 09:39:53</time>
      </trkpt>
      <trkpt lat="43.11984" lon="-0.53069">
        <ele>417.8</ele>
        <time>2022-06-08 09:39:54</time>
      </trkpt>
      <trkpt lat="43.11988" lon="-0.53062">
        <ele>417.8</ele>
        <time>2022-06-08 09:39:55</time>
      </trkpt>
      <trkpt lat="43.11991" lon="-0.53054">
        <ele>417.6</ele>
        <time>2022-06-08 09:39:56</time>
      </trkpt>
      <trkpt lat="43.11994" lon="-0.53044">
        <ele>417.6</ele>
        <time>2022-06-08 09:39:57</time>
      </trkpt>
      <trkpt lat="43.11998" lon="-0.53034">
        <ele>417.6</ele>
        <time>2022-06-08 09:39:58</time>
      </trkpt>
      <trkpt lat="43.12" lon="-0.53028">
        <ele>417.6</ele>
        <time>2022-06-08 09:39:59</time>
      </trkpt>
      <trkpt lat="43.12006" lon="-0.53016">
        <ele>417.6</ele>
        <time>2022-06-08 09:40:00</time>
      </trkpt>
      <trkpt lat="43.12012" lon="-0.53006">
        <ele>417.6</ele>
        <time>2022-06-08 09:40:01</time>
      </trkpt>
      <trkpt lat="43.12017" lon="-0.52997">
        <ele>417.6</ele>
        <time>2022-06-08 09:40:02</time>
      </trkpt>
      <trkpt lat="43.12022" lon="-0.5299">
        <ele>417.6</ele>
        <time>2022-06-08 09:40:03</time>
      </trkpt>
      <trkpt lat="43.12024" lon="-0.52983">
        <ele>417.4</ele>
        <time>2022-06-08 09:40:04</time>
      </trkpt>
      <trkpt lat="43.12026" lon="-0.52976">
        <ele>417.4</ele>
        <time>2022-06-08 09:40:05</time>
      </trkpt>
      <trkpt lat="43.12026" lon="-0.52976">
        <ele>417.4</ele>
        <time>2022-06-08 09:40:06</time>
      </trkpt>
      <trkpt lat="43.12032" lon="-0.5296">
        <ele>417.4</ele>
        <time>2022-06-08 09:40:07</time>
      </trkpt>
      <trkpt lat="43.12036" lon="-0.52953">
        <ele>417.6</ele>
        <time>2022-06-08 09:40:08</time>
      </trkpt>
      <trkpt lat="43.1204" lon="-0.52946">
        <ele>417.6</ele>
        <time>2022-06-08 09:40:09</time>
      </trkpt>
      <trkpt lat="43.12045" lon="-0.52938">
        <ele>417.6</ele>
        <time>2022-06-08 09:40:10</time>
      </trkpt>
      <trkpt lat="43.12053" lon="-0.5293">
        <ele>417.6</ele>
        <time>2022-06-08 09:40:11</time>
      </trkpt>
      <trkpt lat="43.12059" lon="-0.52923">
        <ele>417.6</ele>
        <time>2022-06-08 09:40:12</time>
      </trkpt>
      <trkpt lat="43.12066" lon="-0.52918">
        <ele>417.6</ele>
        <time>2022-06-08 09:40:13</time>
      </trkpt>
      <trkpt lat="43.12071" lon="-0.52913">
        <ele>417.6</ele>
        <time>2022-06-08 09:40:14</time>
      </trkpt>
      <trkpt lat="43.12071" lon="-0.52913">
        <ele>417.8</ele>
        <time>2022-06-08 09:40:15</time>
      </trkpt>
      <trkpt lat="43.12084" lon="-0.52895">
        <ele>417.6</ele>
        <time>2022-06-08 09:40:16</time>
      </trkpt>
      <trkpt lat="43.1209" lon="-0.52885">
        <ele>417.8</ele>
        <time>2022-06-08 09:40:17</time>
      </trkpt>
      <trkpt lat="43.12097" lon="-0.52877">
        <ele>417.8</ele>
        <time>2022-06-08 09:40:18</time>
      </trkpt>
      <trkpt lat="43.12103" lon="-0.52869">
        <ele>417.8</ele>
        <time>2022-06-08 09:40:19</time>
      </trkpt>
      <trkpt lat="43.12107" lon="-0.52864">
        <ele>417.6</ele>
        <time>2022-06-08 09:40:20</time>
      </trkpt>
      <trkpt lat="43.12107" lon="-0.52864">
        <ele>417.6</ele>
        <time>2022-06-08 09:40:21</time>
      </trkpt>
      <trkpt lat="43.12105" lon="-0.52848">
        <ele>417.4</ele>
        <time>2022-06-08 09:40:22</time>
      </trkpt>
      <trkpt lat="43.12104" lon="-0.52837">
        <ele>417.6</ele>
        <time>2022-06-08 09:40:23</time>
      </trkpt>
      <trkpt lat="43.12102" lon="-0.52828">
        <ele>417.4</ele>
        <time>2022-06-08 09:40:24</time>
      </trkpt>
      <trkpt lat="43.12102" lon="-0.52828">
        <ele>417.4</ele>
        <time>2022-06-08 09:40:25</time>
      </trkpt>
      <trkpt lat="43.121" lon="-0.52821">
        <ele>417.4</ele>
        <time>2022-06-08 09:40:26</time>
      </trkpt>
      <trkpt lat="43.12094" lon="-0.52807">
        <ele>417.4</ele>
        <time>2022-06-08 09:40:27</time>
      </trkpt>
      <trkpt lat="43.12086" lon="-0.52802">
        <ele>417.4</ele>
        <time>2022-06-08 09:40:28</time>
      </trkpt>
      <trkpt lat="43.12074" lon="-0.52799">
        <ele>417.4</ele>
        <time>2022-06-08 09:40:29</time>
      </trkpt>
      <trkpt lat="43.12068" lon="-0.52799">
        <ele>417.2</ele>
        <time>2022-06-08 09:40:30</time>
      </trkpt>
      <trkpt lat="43.12068" lon="-0.52799">
        <ele>417.2</ele>
        <time>2022-06-08 09:40:31</time>
      </trkpt>
      <trkpt lat="43.12049" lon="-0.52797">
        <ele>417</ele>
        <time>2022-06-08 09:40:32</time>
      </trkpt>
      <trkpt lat="43.12049" lon="-0.52797">
        <ele>417</ele>
        <time>2022-06-08 09:40:33</time>
      </trkpt>
      <trkpt lat="43.12031" lon="-0.52796">
        <ele>417</ele>
        <time>2022-06-08 09:40:34</time>
      </trkpt>
      <trkpt lat="43.12022" lon="-0.52793">
        <ele>416.8</ele>
        <time>2022-06-08 09:40:35</time>
      </trkpt>
      <trkpt lat="43.12014" lon="-0.52789">
        <ele>416.6</ele>
        <time>2022-06-08 09:40:36</time>
      </trkpt>
      <trkpt lat="43.12008" lon="-0.52789">
        <ele>416.6</ele>
        <time>2022-06-08 09:40:37</time>
      </trkpt>
      <trkpt lat="43.11998" lon="-0.5279">
        <ele>416.2</ele>
        <time>2022-06-08 09:40:38</time>
      </trkpt>
      <trkpt lat="43.11989" lon="-0.5279">
        <ele>415.8</ele>
        <time>2022-06-08 09:40:39</time>
      </trkpt>
      <trkpt lat="43.11979" lon="-0.52786">
        <ele>415.6</ele>
        <time>2022-06-08 09:40:40</time>
      </trkpt>
      <trkpt lat="43.11971" lon="-0.52779">
        <ele>415.2</ele>
        <time>2022-06-08 09:40:41</time>
      </trkpt>
      <trkpt lat="43.11964" lon="-0.52765">
        <ele>414.6</ele>
        <time>2022-06-08 09:40:42</time>
      </trkpt>
      <trkpt lat="43.11959" lon="-0.52753">
        <ele>414.2</ele>
        <time>2022-06-08 09:40:43</time>
      </trkpt>
      <trkpt lat="43.11953" lon="-0.52742">
        <ele>413.4</ele>
        <time>2022-06-08 09:40:44</time>
      </trkpt>
      <trkpt lat="43.11948" lon="-0.52733">
        <ele>413.2</ele>
        <time>2022-06-08 09:40:45</time>
      </trkpt>
      <trkpt lat="43.11942" lon="-0.52724">
        <ele>412.8</ele>
        <time>2022-06-08 09:40:46</time>
      </trkpt>
      <trkpt lat="43.11938" lon="-0.52717">
        <ele>412.8</ele>
        <time>2022-06-08 09:40:47</time>
      </trkpt>
      <trkpt lat="43.11932" lon="-0.52711">
        <ele>412</ele>
        <time>2022-06-08 09:40:48</time>
      </trkpt>
      <trkpt lat="43.11927" lon="-0.52704">
        <ele>411.8</ele>
        <time>2022-06-08 09:40:49</time>
      </trkpt>
      <trkpt lat="43.11924" lon="-0.52699">
        <ele>411.2</ele>
        <time>2022-06-08 09:40:50</time>
      </trkpt>
      <trkpt lat="43.11925" lon="-0.52688">
        <ele>411.2</ele>
        <time>2022-06-08 09:40:51</time>
      </trkpt>
      <trkpt lat="43.11926" lon="-0.52679">
        <ele>410.6</ele>
        <time>2022-06-08 09:40:52</time>
      </trkpt>
      <trkpt lat="43.11926" lon="-0.52671">
        <ele>410</ele>
        <time>2022-06-08 09:40:53</time>
      </trkpt>
      <trkpt lat="43.11928" lon="-0.52664">
        <ele>409.6</ele>
        <time>2022-06-08 09:40:54</time>
      </trkpt>
      <trkpt lat="43.11932" lon="-0.52659">
        <ele>409.4</ele>
        <time>2022-06-08 09:40:55</time>
      </trkpt>
      <trkpt lat="43.11934" lon="-0.52656">
        <ele>408.8</ele>
        <time>2022-06-08 09:40:56</time>
      </trkpt>
      <trkpt lat="43.11939" lon="-0.52653">
        <ele>408.2</ele>
        <time>2022-06-08 09:40:57</time>
      </trkpt>
      <trkpt lat="43.11944" lon="-0.52649">
        <ele>407.6</ele>
        <time>2022-06-08 09:40:58</time>
      </trkpt>
      <trkpt lat="43.11951" lon="-0.52646">
        <ele>406.8</ele>
        <time>2022-06-08 09:40:59</time>
      </trkpt>
      <trkpt lat="43.11959" lon="-0.52642">
        <ele>406.6</ele>
        <time>2022-06-08 09:41:00</time>
      </trkpt>
      <trkpt lat="43.11968" lon="-0.52637">
        <ele>406.4</ele>
        <time>2022-06-08 09:41:01</time>
      </trkpt>
      <trkpt lat="43.11977" lon="-0.52631">
        <ele>406.2</ele>
        <time>2022-06-08 09:41:02</time>
      </trkpt>
      <trkpt lat="43.11988" lon="-0.52624">
        <ele>405.6</ele>
        <time>2022-06-08 09:41:03</time>
      </trkpt>
      <trkpt lat="43.11997" lon="-0.52615">
        <ele>405.4</ele>
        <time>2022-06-08 09:41:04</time>
      </trkpt>
      <trkpt lat="43.12004" lon="-0.52604">
        <ele>404.8</ele>
        <time>2022-06-08 09:41:05</time>
      </trkpt>
      <trkpt lat="43.12013" lon="-0.52591">
        <ele>404.4</ele>
        <time>2022-06-08 09:41:06</time>
      </trkpt>
      <trkpt lat="43.12024" lon="-0.52577">
        <ele>404</ele>
        <time>2022-06-08 09:41:07</time>
      </trkpt>
      <trkpt lat="43.12032" lon="-0.52562">
        <ele>403.8</ele>
        <time>2022-06-08 09:41:08</time>
      </trkpt>
      <trkpt lat="43.12034" lon="-0.52548">
        <ele>403</ele>
        <time>2022-06-08 09:41:09</time>
      </trkpt>
      <trkpt lat="43.1203" lon="-0.52536">
        <ele>402.4</ele>
        <time>2022-06-08 09:41:10</time>
      </trkpt>
      <trkpt lat="43.12024" lon="-0.52525">
        <ele>401.8</ele>
        <time>2022-06-08 09:41:11</time>
      </trkpt>
      <trkpt lat="43.12017" lon="-0.52516">
        <ele>400.6</ele>
        <time>2022-06-08 09:41:12</time>
      </trkpt>
      <trkpt lat="43.12007" lon="-0.52509">
        <ele>400.4</ele>
        <time>2022-06-08 09:41:13</time>
      </trkpt>
      <trkpt lat="43.11997" lon="-0.52505">
        <ele>399.6</ele>
        <time>2022-06-08 09:41:14</time>
      </trkpt>
      <trkpt lat="43.11988" lon="-0.52502">
        <ele>399</ele>
        <time>2022-06-08 09:41:15</time>
      </trkpt>
      <trkpt lat="43.11977" lon="-0.525">
        <ele>398.2</ele>
        <time>2022-06-08 09:41:16</time>
      </trkpt>
      <trkpt lat="43.11977" lon="-0.525">
        <ele>397.8</ele>
        <time>2022-06-08 09:41:17</time>
      </trkpt>
      <trkpt lat="43.11961" lon="-0.52488">
        <ele>397</ele>
        <time>2022-06-08 09:41:18</time>
      </trkpt>
      <trkpt lat="43.11954" lon="-0.52479">
        <ele>396.2</ele>
        <time>2022-06-08 09:41:19</time>
      </trkpt>
      <trkpt lat="43.11951" lon="-0.52467">
        <ele>394.8</ele>
        <time>2022-06-08 09:41:20</time>
      </trkpt>
      <trkpt lat="43.11951" lon="-0.52453">
        <ele>394.4</ele>
        <time>2022-06-08 09:41:21</time>
      </trkpt>
      <trkpt lat="43.11956" lon="-0.52435">
        <ele>393.6</ele>
        <time>2022-06-08 09:41:22</time>
      </trkpt>
      <trkpt lat="43.11964" lon="-0.52423">
        <ele>393.4</ele>
        <time>2022-06-08 09:41:23</time>
      </trkpt>
      <trkpt lat="43.11973" lon="-0.52409">
        <ele>392.8</ele>
        <time>2022-06-08 09:41:24</time>
      </trkpt>
      <trkpt lat="43.11981" lon="-0.52396">
        <ele>392.6</ele>
        <time>2022-06-08 09:41:25</time>
      </trkpt>
      <trkpt lat="43.11989" lon="-0.52384">
        <ele>392.2</ele>
        <time>2022-06-08 09:41:26</time>
      </trkpt>
      <trkpt lat="43.11994" lon="-0.52371">
        <ele>391.8</ele>
        <time>2022-06-08 09:41:27</time>
      </trkpt>
      <trkpt lat="43.11994" lon="-0.52358">
        <ele>391.6</ele>
        <time>2022-06-08 09:41:28</time>
      </trkpt>
      <trkpt lat="43.11987" lon="-0.52345">
        <ele>391.2</ele>
        <time>2022-06-08 09:41:29</time>
      </trkpt>
      <trkpt lat="43.11982" lon="-0.52332">
        <ele>390.6</ele>
        <time>2022-06-08 09:41:30</time>
      </trkpt>
      <trkpt lat="43.11974" lon="-0.5232">
        <ele>390</ele>
        <time>2022-06-08 09:41:31</time>
      </trkpt>
      <trkpt lat="43.11967" lon="-0.52306">
        <ele>389.6</ele>
        <time>2022-06-08 09:41:32</time>
      </trkpt>
      <trkpt lat="43.11961" lon="-0.52292">
        <ele>388.8</ele>
        <time>2022-06-08 09:41:33</time>
      </trkpt>
      <trkpt lat="43.11958" lon="-0.52278">
        <ele>388.8</ele>
        <time>2022-06-08 09:41:34</time>
      </trkpt>
      <trkpt lat="43.11957" lon="-0.52264">
        <ele>388.2</ele>
        <time>2022-06-08 09:41:35</time>
      </trkpt>
      <trkpt lat="43.11956" lon="-0.52249">
        <ele>388</ele>
        <time>2022-06-08 09:41:36</time>
      </trkpt>
      <trkpt lat="43.11958" lon="-0.52236">
        <ele>387.8</ele>
        <time>2022-06-08 09:41:37</time>
      </trkpt>
      <trkpt lat="43.11963" lon="-0.52226">
        <ele>387.6</ele>
        <time>2022-06-08 09:41:38</time>
      </trkpt>
      <trkpt lat="43.11966" lon="-0.52219">
        <ele>386.8</ele>
        <time>2022-06-08 09:41:39</time>
      </trkpt>
      <trkpt lat="43.1197" lon="-0.52215">
        <ele>385.8</ele>
        <time>2022-06-08 09:41:40</time>
      </trkpt>
      <trkpt lat="43.11975" lon="-0.52214">
        <ele>385.4</ele>
        <time>2022-06-08 09:41:41</time>
      </trkpt>
      <trkpt lat="43.11982" lon="-0.52217">
        <ele>384.8</ele>
        <time>2022-06-08 09:41:42</time>
      </trkpt>
      <trkpt lat="43.11989" lon="-0.52221">
        <ele>384.6</ele>
        <time>2022-06-08 09:41:43</time>
      </trkpt>
      <trkpt lat="43.11998" lon="-0.52226">
        <ele>384</ele>
        <time>2022-06-08 09:41:44</time>
      </trkpt>
      <trkpt lat="43.12009" lon="-0.52233">
        <ele>383.4</ele>
        <time>2022-06-08 09:41:45</time>
      </trkpt>
      <trkpt lat="43.12022" lon="-0.52238">
        <ele>382.8</ele>
        <time>2022-06-08 09:41:46</time>
      </trkpt>
      <trkpt lat="43.12035" lon="-0.5224">
        <ele>382.6</ele>
        <time>2022-06-08 09:41:47</time>
      </trkpt>
      <trkpt lat="43.12046" lon="-0.52238">
        <ele>382.2</ele>
        <time>2022-06-08 09:41:48</time>
      </trkpt>
      <trkpt lat="43.1206" lon="-0.52234">
        <ele>382</ele>
        <time>2022-06-08 09:41:49</time>
      </trkpt>
      <trkpt lat="43.12076" lon="-0.52231">
        <ele>381.6</ele>
        <time>2022-06-08 09:41:50</time>
      </trkpt>
      <trkpt lat="43.12091" lon="-0.52225">
        <ele>381.2</ele>
        <time>2022-06-08 09:41:51</time>
      </trkpt>
      <trkpt lat="43.12102" lon="-0.52219">
        <ele>380.8</ele>
        <time>2022-06-08 09:41:52</time>
      </trkpt>
      <trkpt lat="43.12114" lon="-0.52206">
        <ele>380.6</ele>
        <time>2022-06-08 09:41:53</time>
      </trkpt>
      <trkpt lat="43.12123" lon="-0.52192">
        <ele>379.4</ele>
        <time>2022-06-08 09:41:54</time>
      </trkpt>
      <trkpt lat="43.12129" lon="-0.52175">
        <ele>378.8</ele>
        <time>2022-06-08 09:41:55</time>
      </trkpt>
      <trkpt lat="43.12132" lon="-0.5216">
        <ele>378.6</ele>
        <time>2022-06-08 09:41:56</time>
      </trkpt>
      <trkpt lat="43.12136" lon="-0.52145">
        <ele>377.8</ele>
        <time>2022-06-08 09:41:57</time>
      </trkpt>
      <trkpt lat="43.12139" lon="-0.52131">
        <ele>377.4</ele>
        <time>2022-06-08 09:41:58</time>
      </trkpt>
      <trkpt lat="43.12143" lon="-0.52119">
        <ele>376.8</ele>
        <time>2022-06-08 09:41:59</time>
      </trkpt>
      <trkpt lat="43.12147" lon="-0.52108">
        <ele>376.4</ele>
        <time>2022-06-08 09:42:00</time>
      </trkpt>
      <trkpt lat="43.12153" lon="-0.52099">
        <ele>375.6</ele>
        <time>2022-06-08 09:42:01</time>
      </trkpt>
      <trkpt lat="43.12161" lon="-0.52092">
        <ele>375.2</ele>
        <time>2022-06-08 09:42:02</time>
      </trkpt>
      <trkpt lat="43.12171" lon="-0.52088">
        <ele>374.6</ele>
        <time>2022-06-08 09:42:03</time>
      </trkpt>
      <trkpt lat="43.12181" lon="-0.52083">
        <ele>374</ele>
        <time>2022-06-08 09:42:04</time>
      </trkpt>
      <trkpt lat="43.12192" lon="-0.52078">
        <ele>373</ele>
        <time>2022-06-08 09:42:05</time>
      </trkpt>
      <trkpt lat="43.12202" lon="-0.52069">
        <ele>372.6</ele>
        <time>2022-06-08 09:42:06</time>
      </trkpt>
      <trkpt lat="43.12208" lon="-0.52055">
        <ele>371.8</ele>
        <time>2022-06-08 09:42:07</time>
      </trkpt>
      <trkpt lat="43.12212" lon="-0.52038">
        <ele>371.6</ele>
        <time>2022-06-08 09:42:08</time>
      </trkpt>
      <trkpt lat="43.12213" lon="-0.52024">
        <ele>370.6</ele>
        <time>2022-06-08 09:42:09</time>
      </trkpt>
      <trkpt lat="43.12212" lon="-0.52009">
        <ele>370</ele>
        <time>2022-06-08 09:42:10</time>
      </trkpt>
      <trkpt lat="43.1221" lon="-0.51996">
        <ele>369.8</ele>
        <time>2022-06-08 09:42:11</time>
      </trkpt>
      <trkpt lat="43.12208" lon="-0.51981">
        <ele>369.4</ele>
        <time>2022-06-08 09:42:12</time>
      </trkpt>
      <trkpt lat="43.12208" lon="-0.51967">
        <ele>369.2</ele>
        <time>2022-06-08 09:42:13</time>
      </trkpt>
      <trkpt lat="43.1221" lon="-0.51955">
        <ele>368</ele>
        <time>2022-06-08 09:42:14</time>
      </trkpt>
      <trkpt lat="43.12213" lon="-0.51946">
        <ele>367.2</ele>
        <time>2022-06-08 09:42:15</time>
      </trkpt>
      <trkpt lat="43.12218" lon="-0.5194">
        <ele>366.2</ele>
        <time>2022-06-08 09:42:16</time>
      </trkpt>
      <trkpt lat="43.12226" lon="-0.51937">
        <ele>365.8</ele>
        <time>2022-06-08 09:42:17</time>
      </trkpt>
      <trkpt lat="43.12234" lon="-0.51936">
        <ele>364.6</ele>
        <time>2022-06-08 09:42:18</time>
      </trkpt>
      <trkpt lat="43.12244" lon="-0.51934">
        <ele>364.4</ele>
        <time>2022-06-08 09:42:19</time>
      </trkpt>
      <trkpt lat="43.12253" lon="-0.51927">
        <ele>363</ele>
        <time>2022-06-08 09:42:20</time>
      </trkpt>
      <trkpt lat="43.12263" lon="-0.51921">
        <ele>362.2</ele>
        <time>2022-06-08 09:42:21</time>
      </trkpt>
      <trkpt lat="43.12273" lon="-0.51913">
        <ele>361.2</ele>
        <time>2022-06-08 09:42:22</time>
      </trkpt>
      <trkpt lat="43.12281" lon="-0.51903">
        <ele>360.6</ele>
        <time>2022-06-08 09:42:23</time>
      </trkpt>
      <trkpt lat="43.12288" lon="-0.51893">
        <ele>360.6</ele>
        <time>2022-06-08 09:42:24</time>
      </trkpt>
      <trkpt lat="43.12296" lon="-0.51881">
        <ele>360.2</ele>
        <time>2022-06-08 09:42:25</time>
      </trkpt>
      <trkpt lat="43.12296" lon="-0.51881">
        <ele>359.8</ele>
        <time>2022-06-08 09:42:26</time>
      </trkpt>
      <trkpt lat="43.12309" lon="-0.51859">
        <ele>359.2</ele>
        <time>2022-06-08 09:42:27</time>
      </trkpt>
      <trkpt lat="43.12314" lon="-0.51849">
        <ele>358.8</ele>
        <time>2022-06-08 09:42:28</time>
      </trkpt>
      <trkpt lat="43.12321" lon="-0.51834">
        <ele>357.8</ele>
        <time>2022-06-08 09:42:29</time>
      </trkpt>
      <trkpt lat="43.12325" lon="-0.51822">
        <ele>357.4</ele>
        <time>2022-06-08 09:42:30</time>
      </trkpt>
      <trkpt lat="43.12325" lon="-0.51822">
        <ele>356.8</ele>
        <time>2022-06-08 09:42:31</time>
      </trkpt>
      <trkpt lat="43.12333" lon="-0.51799">
        <ele>356.4</ele>
        <time>2022-06-08 09:42:32</time>
      </trkpt>
      <trkpt lat="43.12331" lon="-0.51785">
        <ele>355.4</ele>
        <time>2022-06-08 09:42:33</time>
      </trkpt>
      <trkpt lat="43.12328" lon="-0.51772">
        <ele>355</ele>
        <time>2022-06-08 09:42:34</time>
      </trkpt>
      <trkpt lat="43.12322" lon="-0.51759">
        <ele>354.6</ele>
        <time>2022-06-08 09:42:35</time>
      </trkpt>
      <trkpt lat="43.12316" lon="-0.51748">
        <ele>354.2</ele>
        <time>2022-06-08 09:42:36</time>
      </trkpt>
      <trkpt lat="43.1231" lon="-0.51736">
        <ele>353.2</ele>
        <time>2022-06-08 09:42:37</time>
      </trkpt>
      <trkpt lat="43.12304" lon="-0.51724">
        <ele>352.4</ele>
        <time>2022-06-08 09:42:38</time>
      </trkpt>
      <trkpt lat="43.12301" lon="-0.5171">
        <ele>351.6</ele>
        <time>2022-06-08 09:42:39</time>
      </trkpt>
      <trkpt lat="43.12299" lon="-0.51695">
        <ele>350.2</ele>
        <time>2022-06-08 09:42:40</time>
      </trkpt>
      <trkpt lat="43.123" lon="-0.51678">
        <ele>349.8</ele>
        <time>2022-06-08 09:42:41</time>
      </trkpt>
      <trkpt lat="43.12302" lon="-0.51663">
        <ele>349.2</ele>
        <time>2022-06-08 09:42:42</time>
      </trkpt>
      <trkpt lat="43.12306" lon="-0.51649">
        <ele>348.8</ele>
        <time>2022-06-08 09:42:43</time>
      </trkpt>
      <trkpt lat="43.12311" lon="-0.51634">
        <ele>348.2</ele>
        <time>2022-06-08 09:42:44</time>
      </trkpt>
      <trkpt lat="43.12316" lon="-0.51618">
        <ele>348</ele>
        <time>2022-06-08 09:42:45</time>
      </trkpt>
      <trkpt lat="43.12322" lon="-0.51604">
        <ele>347.2</ele>
        <time>2022-06-08 09:42:46</time>
      </trkpt>
      <trkpt lat="43.12329" lon="-0.51588">
        <ele>347</ele>
        <time>2022-06-08 09:42:47</time>
      </trkpt>
      <trkpt lat="43.12337" lon="-0.51571">
        <ele>346.4</ele>
        <time>2022-06-08 09:42:48</time>
      </trkpt>
      <trkpt lat="43.12343" lon="-0.51555">
        <ele>346.2</ele>
        <time>2022-06-08 09:42:49</time>
      </trkpt>
      <trkpt lat="43.12347" lon="-0.51542">
        <ele>345.6</ele>
        <time>2022-06-08 09:42:50</time>
      </trkpt>
      <trkpt lat="43.1235" lon="-0.51524">
        <ele>345.6</ele>
        <time>2022-06-08 09:42:51</time>
      </trkpt>
      <trkpt lat="43.12348" lon="-0.51507">
        <ele>345.2</ele>
        <time>2022-06-08 09:42:52</time>
      </trkpt>
      <trkpt lat="43.12342" lon="-0.5149">
        <ele>344.2</ele>
        <time>2022-06-08 09:42:53</time>
      </trkpt>
      <trkpt lat="43.12338" lon="-0.51473">
        <ele>343.2</ele>
        <time>2022-06-08 09:42:54</time>
      </trkpt>
      <trkpt lat="43.12334" lon="-0.51456">
        <ele>341.6</ele>
        <time>2022-06-08 09:42:55</time>
      </trkpt>
      <trkpt lat="43.12334" lon="-0.51441">
        <ele>341.2</ele>
        <time>2022-06-08 09:42:56</time>
      </trkpt>
      <trkpt lat="43.12334" lon="-0.51425">
        <ele>340.8</ele>
        <time>2022-06-08 09:42:57</time>
      </trkpt>
      <trkpt lat="43.12332" lon="-0.51411">
        <ele>340.6</ele>
        <time>2022-06-08 09:42:58</time>
      </trkpt>
      <trkpt lat="43.12328" lon="-0.51399">
        <ele>340</ele>
        <time>2022-06-08 09:42:59</time>
      </trkpt>
      <trkpt lat="43.1232" lon="-0.51391">
        <ele>339.6</ele>
        <time>2022-06-08 09:43:00</time>
      </trkpt>
      <trkpt lat="43.1231" lon="-0.51384">
        <ele>339.2</ele>
        <time>2022-06-08 09:43:01</time>
      </trkpt>
      <trkpt lat="43.123" lon="-0.51378">
        <ele>338.6</ele>
        <time>2022-06-08 09:43:02</time>
      </trkpt>
      <trkpt lat="43.12289" lon="-0.51373">
        <ele>337</ele>
        <time>2022-06-08 09:43:03</time>
      </trkpt>
      <trkpt lat="43.12278" lon="-0.51366">
        <ele>336.2</ele>
        <time>2022-06-08 09:43:04</time>
      </trkpt>
      <trkpt lat="43.12268" lon="-0.5136">
        <ele>335.4</ele>
        <time>2022-06-08 09:43:05</time>
      </trkpt>
      <trkpt lat="43.12257" lon="-0.51353">
        <ele>335.2</ele>
        <time>2022-06-08 09:43:06</time>
      </trkpt>
      <trkpt lat="43.12246" lon="-0.5135">
        <ele>334.4</ele>
        <time>2022-06-08 09:43:07</time>
      </trkpt>
      <trkpt lat="43.12235" lon="-0.5135">
        <ele>333.4</ele>
        <time>2022-06-08 09:43:08</time>
      </trkpt>
      <trkpt lat="43.12224" lon="-0.51353">
        <ele>333</ele>
        <time>2022-06-08 09:43:09</time>
      </trkpt>
      <trkpt lat="43.12213" lon="-0.51357">
        <ele>332.4</ele>
        <time>2022-06-08 09:43:10</time>
      </trkpt>
      <trkpt lat="43.12202" lon="-0.5136">
        <ele>332.2</ele>
        <time>2022-06-08 09:43:11</time>
      </trkpt>
      <trkpt lat="43.1219" lon="-0.51362">
        <ele>331.2</ele>
        <time>2022-06-08 09:43:12</time>
      </trkpt>
      <trkpt lat="43.12177" lon="-0.51363">
        <ele>330.4</ele>
        <time>2022-06-08 09:43:13</time>
      </trkpt>
      <trkpt lat="43.12165" lon="-0.51363">
        <ele>329.2</ele>
        <time>2022-06-08 09:43:14</time>
      </trkpt>
      <trkpt lat="43.12152" lon="-0.51362">
        <ele>328.8</ele>
        <time>2022-06-08 09:43:15</time>
      </trkpt>
      <trkpt lat="43.12138" lon="-0.51359">
        <ele>327.6</ele>
        <time>2022-06-08 09:43:16</time>
      </trkpt>
      <trkpt lat="43.12126" lon="-0.51353">
        <ele>327.2</ele>
        <time>2022-06-08 09:43:17</time>
      </trkpt>
      <trkpt lat="43.12114" lon="-0.51348">
        <ele>326.2</ele>
        <time>2022-06-08 09:43:18</time>
      </trkpt>
      <trkpt lat="43.12105" lon="-0.5134">
        <ele>325.8</ele>
        <time>2022-06-08 09:43:19</time>
      </trkpt>
      <trkpt lat="43.12096" lon="-0.51328">
        <ele>325.2</ele>
        <time>2022-06-08 09:43:20</time>
      </trkpt>
      <trkpt lat="43.12092" lon="-0.51305">
        <ele>325</ele>
        <time>2022-06-08 09:43:21</time>
      </trkpt>
      <trkpt lat="43.1209" lon="-0.51284">
        <ele>324.6</ele>
        <time>2022-06-08 09:43:22</time>
      </trkpt>
      <trkpt lat="43.12091" lon="-0.51266">
        <ele>323.6</ele>
        <time>2022-06-08 09:43:23</time>
      </trkpt>
      <trkpt lat="43.12094" lon="-0.5125">
        <ele>323</ele>
        <time>2022-06-08 09:43:24</time>
      </trkpt>
      <trkpt lat="43.12098" lon="-0.51234">
        <ele>321.6</ele>
        <time>2022-06-08 09:43:25</time>
      </trkpt>
      <trkpt lat="43.12103" lon="-0.51222">
        <ele>321</ele>
        <time>2022-06-08 09:43:26</time>
      </trkpt>
      <trkpt lat="43.12108" lon="-0.51209">
        <ele>320.2</ele>
        <time>2022-06-08 09:43:27</time>
      </trkpt>
      <trkpt lat="43.12113" lon="-0.51194">
        <ele>320</ele>
        <time>2022-06-08 09:43:28</time>
      </trkpt>
      <trkpt lat="43.12118" lon="-0.51179">
        <ele>319.8</ele>
        <time>2022-06-08 09:43:29</time>
      </trkpt>
      <trkpt lat="43.12123" lon="-0.51165">
        <ele>319.4</ele>
        <time>2022-06-08 09:43:30</time>
      </trkpt>
      <trkpt lat="43.12131" lon="-0.51152">
        <ele>319</ele>
        <time>2022-06-08 09:43:31</time>
      </trkpt>
      <trkpt lat="43.12139" lon="-0.51138">
        <ele>318.8</ele>
        <time>2022-06-08 09:43:32</time>
      </trkpt>
      <trkpt lat="43.12145" lon="-0.51122">
        <ele>318.2</ele>
        <time>2022-06-08 09:43:33</time>
      </trkpt>
      <trkpt lat="43.12153" lon="-0.51108">
        <ele>317.8</ele>
        <time>2022-06-08 09:43:34</time>
      </trkpt>
      <trkpt lat="43.1216" lon="-0.51097">
        <ele>317.6</ele>
        <time>2022-06-08 09:43:35</time>
      </trkpt>
      <trkpt lat="43.12168" lon="-0.51088">
        <ele>317.4</ele>
        <time>2022-06-08 09:43:36</time>
      </trkpt>
      <trkpt lat="43.12177" lon="-0.51081">
        <ele>317.4</ele>
        <time>2022-06-08 09:43:37</time>
      </trkpt>
      <trkpt lat="43.12186" lon="-0.51076">
        <ele>317.2</ele>
        <time>2022-06-08 09:43:38</time>
      </trkpt>
      <trkpt lat="43.12194" lon="-0.51074">
        <ele>317.2</ele>
        <time>2022-06-08 09:43:39</time>
      </trkpt>
      <trkpt lat="43.12194" lon="-0.51074">
        <ele>317.2</ele>
        <time>2022-06-08 09:43:40</time>
      </trkpt>
      <trkpt lat="43.12211" lon="-0.51081">
        <ele>317.2</ele>
        <time>2022-06-08 09:43:41</time>
      </trkpt>
      <trkpt lat="43.1222" lon="-0.51086">
        <ele>317.4</ele>
        <time>2022-06-08 09:43:42</time>
      </trkpt>
      <trkpt lat="43.12229" lon="-0.51093">
        <ele>317.4</ele>
        <time>2022-06-08 09:43:43</time>
      </trkpt>
      <trkpt lat="43.12237" lon="-0.511">
        <ele>317.4</ele>
        <time>2022-06-08 09:43:44</time>
      </trkpt>
      <trkpt lat="43.12245" lon="-0.51107">
        <ele>317.4</ele>
        <time>2022-06-08 09:43:45</time>
      </trkpt>
      <trkpt lat="43.12253" lon="-0.51115">
        <ele>318</ele>
        <time>2022-06-08 09:43:46</time>
      </trkpt>
      <trkpt lat="43.1226" lon="-0.51121">
        <ele>318.2</ele>
        <time>2022-06-08 09:43:47</time>
      </trkpt>
      <trkpt lat="43.12268" lon="-0.51124">
        <ele>318.4</ele>
        <time>2022-06-08 09:43:48</time>
      </trkpt>
      <trkpt lat="43.12276" lon="-0.51126">
        <ele>318.4</ele>
        <time>2022-06-08 09:43:49</time>
      </trkpt>
      <trkpt lat="43.12285" lon="-0.51126">
        <ele>318.6</ele>
        <time>2022-06-08 09:43:50</time>
      </trkpt>
      <trkpt lat="43.12293" lon="-0.51124">
        <ele>318.4</ele>
        <time>2022-06-08 09:43:51</time>
      </trkpt>
      <trkpt lat="43.12301" lon="-0.51119">
        <ele>318.2</ele>
        <time>2022-06-08 09:43:52</time>
      </trkpt>
      <trkpt lat="43.12307" lon="-0.5111">
        <ele>318.2</ele>
        <time>2022-06-08 09:43:53</time>
      </trkpt>
      <trkpt lat="43.12313" lon="-0.51098">
        <ele>318.2</ele>
        <time>2022-06-08 09:43:54</time>
      </trkpt>
      <trkpt lat="43.12316" lon="-0.51086">
        <ele>318.4</ele>
        <time>2022-06-08 09:43:55</time>
      </trkpt>
      <trkpt lat="43.12319" lon="-0.51073">
        <ele>318.4</ele>
        <time>2022-06-08 09:43:56</time>
      </trkpt>
      <trkpt lat="43.12322" lon="-0.51061">
        <ele>318.4</ele>
        <time>2022-06-08 09:43:57</time>
      </trkpt>
      <trkpt lat="43.12324" lon="-0.5105">
        <ele>318.4</ele>
        <time>2022-06-08 09:43:58</time>
      </trkpt>
      <trkpt lat="43.12326" lon="-0.51042">
        <ele>318.2</ele>
        <time>2022-06-08 09:43:59</time>
      </trkpt>
      <trkpt lat="43.1233" lon="-0.51031">
        <ele>318.2</ele>
        <time>2022-06-08 09:44:00</time>
      </trkpt>
      <trkpt lat="43.12335" lon="-0.51023">
        <ele>318.2</ele>
        <time>2022-06-08 09:44:01</time>
      </trkpt>
      <trkpt lat="43.12341" lon="-0.51015">
        <ele>318.2</ele>
        <time>2022-06-08 09:44:02</time>
      </trkpt>
      <trkpt lat="43.12346" lon="-0.51008">
        <ele>318.4</ele>
        <time>2022-06-08 09:44:03</time>
      </trkpt>
      <trkpt lat="43.12351" lon="-0.50999">
        <ele>318.4</ele>
        <time>2022-06-08 09:44:04</time>
      </trkpt>
      <trkpt lat="43.12356" lon="-0.50989">
        <ele>318.6</ele>
        <time>2022-06-08 09:44:05</time>
      </trkpt>
      <trkpt lat="43.12358" lon="-0.5098">
        <ele>318.6</ele>
        <time>2022-06-08 09:44:06</time>
      </trkpt>
      <trkpt lat="43.12358" lon="-0.5098">
        <ele>318.8</ele>
        <time>2022-06-08 09:44:07</time>
      </trkpt>
      <trkpt lat="43.12359" lon="-0.50964">
        <ele>318.6</ele>
        <time>2022-06-08 09:44:08</time>
      </trkpt>
      <trkpt lat="43.12357" lon="-0.50955">
        <ele>318.6</ele>
        <time>2022-06-08 09:44:09</time>
      </trkpt>
      <trkpt lat="43.12354" lon="-0.50948">
        <ele>318.6</ele>
        <time>2022-06-08 09:44:10</time>
      </trkpt>
      <trkpt lat="43.12354" lon="-0.50948">
        <ele>318.8</ele>
        <time>2022-06-08 09:44:11</time>
      </trkpt>
      <trkpt lat="43.12347" lon="-0.50941">
        <ele>318.8</ele>
        <time>2022-06-08 09:44:12</time>
      </trkpt>
      <trkpt lat="43.12336" lon="-0.50931">
        <ele>318.8</ele>
        <time>2022-06-08 09:44:13</time>
      </trkpt>
      <trkpt lat="43.12332" lon="-0.50925">
        <ele>318.8</ele>
        <time>2022-06-08 09:44:14</time>
      </trkpt>
      <trkpt lat="43.12328" lon="-0.50919">
        <ele>318.8</ele>
        <time>2022-06-08 09:44:15</time>
      </trkpt>
      <trkpt lat="43.12324" lon="-0.5091">
        <ele>319</ele>
        <time>2022-06-08 09:44:16</time>
      </trkpt>
      <trkpt lat="43.12324" lon="-0.5091">
        <ele>319</ele>
        <time>2022-06-08 09:44:17</time>
      </trkpt>
      <trkpt lat="43.12323" lon="-0.50895">
        <ele>319.2</ele>
        <time>2022-06-08 09:44:18</time>
      </trkpt>
      <trkpt lat="43.12325" lon="-0.50888">
        <ele>319.4</ele>
        <time>2022-06-08 09:44:19</time>
      </trkpt>
      <trkpt lat="43.12328" lon="-0.50882">
        <ele>319.6</ele>
        <time>2022-06-08 09:44:20</time>
      </trkpt>
      <trkpt lat="43.12328" lon="-0.50882">
        <ele>319.8</ele>
        <time>2022-06-08 09:44:21</time>
      </trkpt>
      <trkpt lat="43.12336" lon="-0.50873">
        <ele>319.8</ele>
        <time>2022-06-08 09:44:22</time>
      </trkpt>
      <trkpt lat="43.1234" lon="-0.50869">
        <ele>320</ele>
        <time>2022-06-08 09:44:23</time>
      </trkpt>
      <trkpt lat="43.12344" lon="-0.50865">
        <ele>320</ele>
        <time>2022-06-08 09:44:24</time>
      </trkpt>
      <trkpt lat="43.12349" lon="-0.50862">
        <ele>320.2</ele>
        <time>2022-06-08 09:44:25</time>
      </trkpt>
      <trkpt lat="43.12353" lon="-0.50859">
        <ele>320.4</ele>
        <time>2022-06-08 09:44:26</time>
      </trkpt>
      <trkpt lat="43.12358" lon="-0.50853">
        <ele>320.6</ele>
        <time>2022-06-08 09:44:27</time>
      </trkpt>
      <trkpt lat="43.12363" lon="-0.50847">
        <ele>320.6</ele>
        <time>2022-06-08 09:44:28</time>
      </trkpt>
      <trkpt lat="43.12369" lon="-0.50839">
        <ele>320.8</ele>
        <time>2022-06-08 09:44:29</time>
      </trkpt>
      <trkpt lat="43.12372" lon="-0.50831">
        <ele>321</ele>
        <time>2022-06-08 09:44:30</time>
      </trkpt>
      <trkpt lat="43.12374" lon="-0.50824">
        <ele>321.2</ele>
        <time>2022-06-08 09:44:31</time>
      </trkpt>
      <trkpt lat="43.12374" lon="-0.50817">
        <ele>321.4</ele>
        <time>2022-06-08 09:44:32</time>
      </trkpt>
      <trkpt lat="43.12373" lon="-0.5081">
        <ele>321.8</ele>
        <time>2022-06-08 09:44:33</time>
      </trkpt>
      <trkpt lat="43.12372" lon="-0.50803">
        <ele>321.8</ele>
        <time>2022-06-08 09:44:34</time>
      </trkpt>
      <trkpt lat="43.12371" lon="-0.50796">
        <ele>322</ele>
        <time>2022-06-08 09:44:35</time>
      </trkpt>
      <trkpt lat="43.12371" lon="-0.50789">
        <ele>322.2</ele>
        <time>2022-06-08 09:44:36</time>
      </trkpt>
      <trkpt lat="43.12372" lon="-0.50781">
        <ele>322.4</ele>
        <time>2022-06-08 09:44:37</time>
      </trkpt>
      <trkpt lat="43.12373" lon="-0.50774">
        <ele>322.8</ele>
        <time>2022-06-08 09:44:38</time>
      </trkpt>
      <trkpt lat="43.12374" lon="-0.50767">
        <ele>322.8</ele>
        <time>2022-06-08 09:44:39</time>
      </trkpt>
      <trkpt lat="43.12374" lon="-0.50767">
        <ele>323</ele>
        <time>2022-06-08 09:44:40</time>
      </trkpt>
      <trkpt lat="43.12377" lon="-0.50754">
        <ele>323.2</ele>
        <time>2022-06-08 09:44:41</time>
      </trkpt>
      <trkpt lat="43.12378" lon="-0.50744">
        <ele>323.4</ele>
        <time>2022-06-08 09:44:42</time>
      </trkpt>
      <trkpt lat="43.12379" lon="-0.50737">
        <ele>323.4</ele>
        <time>2022-06-08 09:44:43</time>
      </trkpt>
      <trkpt lat="43.12381" lon="-0.50729">
        <ele>323.6</ele>
        <time>2022-06-08 09:44:44</time>
      </trkpt>
      <trkpt lat="43.12381" lon="-0.50729">
        <ele>323.6</ele>
        <time>2022-06-08 09:44:45</time>
      </trkpt>
      <trkpt lat="43.12383" lon="-0.5072">
        <ele>323.6</ele>
        <time>2022-06-08 09:44:46</time>
      </trkpt>
      <trkpt lat="43.1238" lon="-0.50707">
        <ele>323.6</ele>
        <time>2022-06-08 09:44:47</time>
      </trkpt>
      <trkpt lat="43.12377" lon="-0.50697">
        <ele>323.6</ele>
        <time>2022-06-08 09:44:48</time>
      </trkpt>
      <trkpt lat="43.12377" lon="-0.50689">
        <ele>323.8</ele>
        <time>2022-06-08 09:44:49</time>
      </trkpt>
      <trkpt lat="43.12377" lon="-0.50684">
        <ele>323.8</ele>
        <time>2022-06-08 09:44:50</time>
      </trkpt>
      <trkpt lat="43.12377" lon="-0.50677">
        <ele>323.8</ele>
        <time>2022-06-08 09:44:51</time>
      </trkpt>
      <trkpt lat="43.12377" lon="-0.50668">
        <ele>323.8</ele>
        <time>2022-06-08 09:44:52</time>
      </trkpt>
      <trkpt lat="43.12377" lon="-0.50668">
        <ele>323.8</ele>
        <time>2022-06-08 09:44:53</time>
      </trkpt>
      <trkpt lat="43.12376" lon="-0.5066">
        <ele>323.8</ele>
        <time>2022-06-08 09:44:54</time>
      </trkpt>
      <trkpt lat="43.12374" lon="-0.50643">
        <ele>323.8</ele>
        <time>2022-06-08 09:44:55</time>
      </trkpt>
      <trkpt lat="43.12373" lon="-0.50634">
        <ele>323.8</ele>
        <time>2022-06-08 09:44:56</time>
      </trkpt>
      <trkpt lat="43.12372" lon="-0.50623">
        <ele>323.6</ele>
        <time>2022-06-08 09:44:57</time>
      </trkpt>
      <trkpt lat="43.12371" lon="-0.50614">
        <ele>323.6</ele>
        <time>2022-06-08 09:44:58</time>
      </trkpt>
      <trkpt lat="43.12369" lon="-0.50605">
        <ele>323.4</ele>
        <time>2022-06-08 09:44:59</time>
      </trkpt>
      <trkpt lat="43.12368" lon="-0.50596">
        <ele>323.2</ele>
        <time>2022-06-08 09:45:00</time>
      </trkpt>
      <trkpt lat="43.12367" lon="-0.50587">
        <ele>323</ele>
        <time>2022-06-08 09:45:01</time>
      </trkpt>
      <trkpt lat="43.12366" lon="-0.50578">
        <ele>323</ele>
        <time>2022-06-08 09:45:02</time>
      </trkpt>
      <trkpt lat="43.12365" lon="-0.50569">
        <ele>323</ele>
        <time>2022-06-08 09:45:03</time>
      </trkpt>
      <trkpt lat="43.12364" lon="-0.50559">
        <ele>322.8</ele>
        <time>2022-06-08 09:45:04</time>
      </trkpt>
      <trkpt lat="43.12363" lon="-0.5055">
        <ele>322.8</ele>
        <time>2022-06-08 09:45:05</time>
      </trkpt>
      <trkpt lat="43.12362" lon="-0.50539">
        <ele>322.8</ele>
        <time>2022-06-08 09:45:06</time>
      </trkpt>
      <trkpt lat="43.12362" lon="-0.50532">
        <ele>322.6</ele>
        <time>2022-06-08 09:45:07</time>
      </trkpt>
      <trkpt lat="43.12361" lon="-0.50523">
        <ele>322.4</ele>
        <time>2022-06-08 09:45:08</time>
      </trkpt>
      <trkpt lat="43.12361" lon="-0.50515">
        <ele>322.2</ele>
        <time>2022-06-08 09:45:09</time>
      </trkpt>
      <trkpt lat="43.12359" lon="-0.50506">
        <ele>322</ele>
        <time>2022-06-08 09:45:10</time>
      </trkpt>
      <trkpt lat="43.12356" lon="-0.50498">
        <ele>321.8</ele>
        <time>2022-06-08 09:45:11</time>
      </trkpt>
      <trkpt lat="43.12353" lon="-0.50493">
        <ele>321.6</ele>
        <time>2022-06-08 09:45:12</time>
      </trkpt>
      <trkpt lat="43.12348" lon="-0.50487">
        <ele>321.4</ele>
        <time>2022-06-08 09:45:13</time>
      </trkpt>
      <trkpt lat="43.12339" lon="-0.50483">
        <ele>321</ele>
        <time>2022-06-08 09:45:14</time>
      </trkpt>
      <trkpt lat="43.1233" lon="-0.5048">
        <ele>320.8</ele>
        <time>2022-06-08 09:45:15</time>
      </trkpt>
      <trkpt lat="43.12322" lon="-0.50479">
        <ele>320.4</ele>
        <time>2022-06-08 09:45:16</time>
      </trkpt>
      <trkpt lat="43.12315" lon="-0.5048">
        <ele>320.2</ele>
        <time>2022-06-08 09:45:17</time>
      </trkpt>
      <trkpt lat="43.12308" lon="-0.5048">
        <ele>319.8</ele>
        <time>2022-06-08 09:45:18</time>
      </trkpt>
      <trkpt lat="43.12302" lon="-0.5048">
        <ele>319.6</ele>
        <time>2022-06-08 09:45:19</time>
      </trkpt>
      <trkpt lat="43.12295" lon="-0.50477">
        <ele>319.4</ele>
        <time>2022-06-08 09:45:20</time>
      </trkpt>
      <trkpt lat="43.12288" lon="-0.50472">
        <ele>319.2</ele>
        <time>2022-06-08 09:45:21</time>
      </trkpt>
      <trkpt lat="43.12284" lon="-0.50467">
        <ele>319</ele>
        <time>2022-06-08 09:45:22</time>
      </trkpt>
      <trkpt lat="43.1228" lon="-0.50461">
        <ele>318.8</ele>
        <time>2022-06-08 09:45:23</time>
      </trkpt>
      <trkpt lat="43.12277" lon="-0.5045">
        <ele>318.6</ele>
        <time>2022-06-08 09:45:24</time>
      </trkpt>
      <trkpt lat="43.12277" lon="-0.50441">
        <ele>318.4</ele>
        <time>2022-06-08 09:45:25</time>
      </trkpt>
      <trkpt lat="43.12278" lon="-0.50428">
        <ele>318.4</ele>
        <time>2022-06-08 09:45:26</time>
      </trkpt>
      <trkpt lat="43.1228" lon="-0.50418">
        <ele>318.2</ele>
        <time>2022-06-08 09:45:27</time>
      </trkpt>
      <trkpt lat="43.12281" lon="-0.5041">
        <ele>318.2</ele>
        <time>2022-06-08 09:45:28</time>
      </trkpt>
      <trkpt lat="43.12283" lon="-0.50401">
        <ele>318</ele>
        <time>2022-06-08 09:45:29</time>
      </trkpt>
      <trkpt lat="43.12284" lon="-0.50395">
        <ele>318</ele>
        <time>2022-06-08 09:45:30</time>
      </trkpt>
      <trkpt lat="43.12285" lon="-0.50388">
        <ele>318</ele>
        <time>2022-06-08 09:45:31</time>
      </trkpt>
      <trkpt lat="43.12287" lon="-0.50379">
        <ele>318</ele>
        <time>2022-06-08 09:45:32</time>
      </trkpt>
      <trkpt lat="43.1229" lon="-0.50371">
        <ele>318.2</ele>
        <time>2022-06-08 09:45:33</time>
      </trkpt>
      <trkpt lat="43.12292" lon="-0.50363">
        <ele>318.4</ele>
        <time>2022-06-08 09:45:34</time>
      </trkpt>
      <trkpt lat="43.12293" lon="-0.50355">
        <ele>318.6</ele>
        <time>2022-06-08 09:45:35</time>
      </trkpt>
      <trkpt lat="43.12293" lon="-0.50347">
        <ele>318.6</ele>
        <time>2022-06-08 09:45:36</time>
      </trkpt>
      <trkpt lat="43.12293" lon="-0.50342">
        <ele>319</ele>
        <time>2022-06-08 09:45:37</time>
      </trkpt>
      <trkpt lat="43.12292" lon="-0.50333">
        <ele>319.4</ele>
        <time>2022-06-08 09:45:38</time>
      </trkpt>
      <trkpt lat="43.12289" lon="-0.50326">
        <ele>319.6</ele>
        <time>2022-06-08 09:45:39</time>
      </trkpt>
      <trkpt lat="43.12285" lon="-0.50321">
        <ele>319.8</ele>
        <time>2022-06-08 09:45:40</time>
      </trkpt>
      <trkpt lat="43.1228" lon="-0.50315">
        <ele>319.8</ele>
        <time>2022-06-08 09:45:41</time>
      </trkpt>
      <trkpt lat="43.12276" lon="-0.50312">
        <ele>320</ele>
        <time>2022-06-08 09:45:42</time>
      </trkpt>
      <trkpt lat="43.12271" lon="-0.50308">
        <ele>320</ele>
        <time>2022-06-08 09:45:43</time>
      </trkpt>
      <trkpt lat="43.12266" lon="-0.50306">
        <ele>320</ele>
        <time>2022-06-08 09:45:44</time>
      </trkpt>
      <trkpt lat="43.12261" lon="-0.50304">
        <ele>320</ele>
        <time>2022-06-08 09:45:45</time>
      </trkpt>
      <trkpt lat="43.12255" lon="-0.50303">
        <ele>320</ele>
        <time>2022-06-08 09:45:46</time>
      </trkpt>
      <trkpt lat="43.12247" lon="-0.50302">
        <ele>320</ele>
        <time>2022-06-08 09:45:47</time>
      </trkpt>
      <trkpt lat="43.1224" lon="-0.50303">
        <ele>320</ele>
        <time>2022-06-08 09:45:48</time>
      </trkpt>
      <trkpt lat="43.12232" lon="-0.50305">
        <ele>320</ele>
        <time>2022-06-08 09:45:49</time>
      </trkpt>
      <trkpt lat="43.12224" lon="-0.50307">
        <ele>320</ele>
        <time>2022-06-08 09:45:50</time>
      </trkpt>
      <trkpt lat="43.12217" lon="-0.50308">
        <ele>319.8</ele>
        <time>2022-06-08 09:45:51</time>
      </trkpt>
      <trkpt lat="43.12209" lon="-0.50309">
        <ele>319.6</ele>
        <time>2022-06-08 09:45:52</time>
      </trkpt>
      <trkpt lat="43.122" lon="-0.50309">
        <ele>319.2</ele>
        <time>2022-06-08 09:45:53</time>
      </trkpt>
      <trkpt lat="43.12189" lon="-0.50308">
        <ele>318.8</ele>
        <time>2022-06-08 09:45:54</time>
      </trkpt>
      <trkpt lat="43.12181" lon="-0.50305">
        <ele>317.8</ele>
        <time>2022-06-08 09:45:55</time>
      </trkpt>
      <trkpt lat="43.12173" lon="-0.50299">
        <ele>317.2</ele>
        <time>2022-06-08 09:45:56</time>
      </trkpt>
      <trkpt lat="43.12163" lon="-0.50294">
        <ele>316</ele>
        <time>2022-06-08 09:45:57</time>
      </trkpt>
      <trkpt lat="43.12158" lon="-0.50287">
        <ele>315.8</ele>
        <time>2022-06-08 09:45:58</time>
      </trkpt>
      <trkpt lat="43.12154" lon="-0.50275">
        <ele>315.4</ele>
        <time>2022-06-08 09:45:59</time>
      </trkpt>
      <trkpt lat="43.1215" lon="-0.5026">
        <ele>315.2</ele>
        <time>2022-06-08 09:46:00</time>
      </trkpt>
      <trkpt lat="43.12147" lon="-0.50248">
        <ele>315</ele>
        <time>2022-06-08 09:46:01</time>
      </trkpt>
      <trkpt lat="43.12145" lon="-0.50236">
        <ele>314.6</ele>
        <time>2022-06-08 09:46:02</time>
      </trkpt>
      <trkpt lat="43.12143" lon="-0.50227">
        <ele>314.6</ele>
        <time>2022-06-08 09:46:03</time>
      </trkpt>
      <trkpt lat="43.12141" lon="-0.50216">
        <ele>314.6</ele>
        <time>2022-06-08 09:46:04</time>
      </trkpt>
      <trkpt lat="43.1214" lon="-0.50204">
        <ele>314.8</ele>
        <time>2022-06-08 09:46:05</time>
      </trkpt>
      <trkpt lat="43.1214" lon="-0.50193">
        <ele>314.8</ele>
        <time>2022-06-08 09:46:06</time>
      </trkpt>
      <trkpt lat="43.1214" lon="-0.50183">
        <ele>314.8</ele>
        <time>2022-06-08 09:46:07</time>
      </trkpt>
      <trkpt lat="43.12142" lon="-0.50171">
        <ele>315</ele>
        <time>2022-06-08 09:46:08</time>
      </trkpt>
      <trkpt lat="43.12144" lon="-0.5016">
        <ele>315.2</ele>
        <time>2022-06-08 09:46:09</time>
      </trkpt>
      <trkpt lat="43.12147" lon="-0.50151">
        <ele>315.2</ele>
        <time>2022-06-08 09:46:10</time>
      </trkpt>
      <trkpt lat="43.12151" lon="-0.50145">
        <ele>315.2</ele>
        <time>2022-06-08 09:46:11</time>
      </trkpt>
      <trkpt lat="43.12157" lon="-0.50139">
        <ele>315.4</ele>
        <time>2022-06-08 09:46:12</time>
      </trkpt>
      <trkpt lat="43.12163" lon="-0.50135">
        <ele>315.4</ele>
        <time>2022-06-08 09:46:13</time>
      </trkpt>
      <trkpt lat="43.1217" lon="-0.50132">
        <ele>315.4</ele>
        <time>2022-06-08 09:46:14</time>
      </trkpt>
      <trkpt lat="43.12176" lon="-0.50129">
        <ele>315.6</ele>
        <time>2022-06-08 09:46:15</time>
      </trkpt>
      <trkpt lat="43.12182" lon="-0.50127">
        <ele>315.8</ele>
        <time>2022-06-08 09:46:16</time>
      </trkpt>
      <trkpt lat="43.12188" lon="-0.50125">
        <ele>315.8</ele>
        <time>2022-06-08 09:46:17</time>
      </trkpt>
      <trkpt lat="43.12193" lon="-0.50123">
        <ele>316.2</ele>
        <time>2022-06-08 09:46:18</time>
      </trkpt>
      <trkpt lat="43.12199" lon="-0.5012">
        <ele>316.4</ele>
        <time>2022-06-08 09:46:19</time>
      </trkpt>
      <trkpt lat="43.12204" lon="-0.50116">
        <ele>316.6</ele>
        <time>2022-06-08 09:46:20</time>
      </trkpt>
      <trkpt lat="43.12208" lon="-0.50112">
        <ele>317</ele>
        <time>2022-06-08 09:46:21</time>
      </trkpt>
      <trkpt lat="43.12213" lon="-0.50107">
        <ele>317</ele>
        <time>2022-06-08 09:46:22</time>
      </trkpt>
      <trkpt lat="43.12217" lon="-0.50102">
        <ele>317.4</ele>
        <time>2022-06-08 09:46:23</time>
      </trkpt>
      <trkpt lat="43.1222" lon="-0.50098">
        <ele>317.6</ele>
        <time>2022-06-08 09:46:24</time>
      </trkpt>
      <trkpt lat="43.12223" lon="-0.50093">
        <ele>317.8</ele>
        <time>2022-06-08 09:46:25</time>
      </trkpt>
      <trkpt lat="43.12226" lon="-0.50086">
        <ele>318</ele>
        <time>2022-06-08 09:46:26</time>
      </trkpt>
      <trkpt lat="43.12228" lon="-0.50082">
        <ele>318.2</ele>
        <time>2022-06-08 09:46:27</time>
      </trkpt>
      <trkpt lat="43.12231" lon="-0.50077">
        <ele>318.4</ele>
        <time>2022-06-08 09:46:28</time>
      </trkpt>
      <trkpt lat="43.12233" lon="-0.50073">
        <ele>318.8</ele>
        <time>2022-06-08 09:46:29</time>
      </trkpt>
      <trkpt lat="43.12235" lon="-0.50068">
        <ele>319</ele>
        <time>2022-06-08 09:46:30</time>
      </trkpt>
      <trkpt lat="43.12238" lon="-0.50064">
        <ele>319</ele>
        <time>2022-06-08 09:46:31</time>
      </trkpt>
      <trkpt lat="43.12241" lon="-0.50059">
        <ele>319.2</ele>
        <time>2022-06-08 09:46:32</time>
      </trkpt>
      <trkpt lat="43.12243" lon="-0.50053">
        <ele>319.2</ele>
        <time>2022-06-08 09:46:33</time>
      </trkpt>
      <trkpt lat="43.12246" lon="-0.50046">
        <ele>319.2</ele>
        <time>2022-06-08 09:46:34</time>
      </trkpt>
      <trkpt lat="43.12248" lon="-0.50038">
        <ele>319.2</ele>
        <time>2022-06-08 09:46:35</time>
      </trkpt>
      <trkpt lat="43.12251" lon="-0.5003">
        <ele>319.2</ele>
        <time>2022-06-08 09:46:36</time>
      </trkpt>
      <trkpt lat="43.12253" lon="-0.50021">
        <ele>319.4</ele>
        <time>2022-06-08 09:46:37</time>
      </trkpt>
      <trkpt lat="43.12255" lon="-0.50012">
        <ele>319.4</ele>
        <time>2022-06-08 09:46:38</time>
      </trkpt>
      <trkpt lat="43.12257" lon="-0.50003">
        <ele>319.4</ele>
        <time>2022-06-08 09:46:39</time>
      </trkpt>
      <trkpt lat="43.12259" lon="-0.49994">
        <ele>319.2</ele>
        <time>2022-06-08 09:46:40</time>
      </trkpt>
      <trkpt lat="43.12261" lon="-0.49984">
        <ele>319.2</ele>
        <time>2022-06-08 09:46:41</time>
      </trkpt>
      <trkpt lat="43.12263" lon="-0.49974">
        <ele>319.2</ele>
        <time>2022-06-08 09:46:42</time>
      </trkpt>
      <trkpt lat="43.12265" lon="-0.49965">
        <ele>319.2</ele>
        <time>2022-06-08 09:46:43</time>
      </trkpt>
      <trkpt lat="43.12267" lon="-0.49956">
        <ele>319</ele>
        <time>2022-06-08 09:46:44</time>
      </trkpt>
      <trkpt lat="43.12269" lon="-0.49946">
        <ele>319</ele>
        <time>2022-06-08 09:46:45</time>
      </trkpt>
      <trkpt lat="43.12271" lon="-0.49936">
        <ele>318.8</ele>
        <time>2022-06-08 09:46:46</time>
      </trkpt>
      <trkpt lat="43.12271" lon="-0.49926">
        <ele>318.8</ele>
        <time>2022-06-08 09:46:47</time>
      </trkpt>
      <trkpt lat="43.12269" lon="-0.49915">
        <ele>318.8</ele>
        <time>2022-06-08 09:46:48</time>
      </trkpt>
      <trkpt lat="43.12266" lon="-0.49905">
        <ele>318.6</ele>
        <time>2022-06-08 09:46:49</time>
      </trkpt>
      <trkpt lat="43.12263" lon="-0.49897">
        <ele>318.4</ele>
        <time>2022-06-08 09:46:50</time>
      </trkpt>
      <trkpt lat="43.12259" lon="-0.49889">
        <ele>318.2</ele>
        <time>2022-06-08 09:46:51</time>
      </trkpt>
      <trkpt lat="43.12254" lon="-0.49883">
        <ele>318</ele>
        <time>2022-06-08 09:46:52</time>
      </trkpt>
      <trkpt lat="43.12245" lon="-0.49881">
        <ele>317.6</ele>
        <time>2022-06-08 09:46:53</time>
      </trkpt>
      <trkpt lat="43.12235" lon="-0.4988">
        <ele>317.4</ele>
        <time>2022-06-08 09:46:54</time>
      </trkpt>
      <trkpt lat="43.12227" lon="-0.49881">
        <ele>317</ele>
        <time>2022-06-08 09:46:55</time>
      </trkpt>
      <trkpt lat="43.12219" lon="-0.49882">
        <ele>316.8</ele>
        <time>2022-06-08 09:46:56</time>
      </trkpt>
      <trkpt lat="43.1221" lon="-0.49883">
        <ele>316.4</ele>
        <time>2022-06-08 09:46:57</time>
      </trkpt>
      <trkpt lat="43.12201" lon="-0.49881">
        <ele>316.4</ele>
        <time>2022-06-08 09:46:58</time>
      </trkpt>
      <trkpt lat="43.12193" lon="-0.49877">
        <ele>316</ele>
        <time>2022-06-08 09:46:59</time>
      </trkpt>
      <trkpt lat="43.12186" lon="-0.49871">
        <ele>315.8</ele>
        <time>2022-06-08 09:47:00</time>
      </trkpt>
      <trkpt lat="43.12181" lon="-0.49862">
        <ele>315.4</ele>
        <time>2022-06-08 09:47:01</time>
      </trkpt>
      <trkpt lat="43.1218" lon="-0.49851">
        <ele>315.2</ele>
        <time>2022-06-08 09:47:02</time>
      </trkpt>
      <trkpt lat="43.12181" lon="-0.49839">
        <ele>314.8</ele>
        <time>2022-06-08 09:47:03</time>
      </trkpt>
      <trkpt lat="43.12183" lon="-0.49829">
        <ele>314.8</ele>
        <time>2022-06-08 09:47:04</time>
      </trkpt>
      <trkpt lat="43.12187" lon="-0.49821">
        <ele>314.8</ele>
        <time>2022-06-08 09:47:05</time>
      </trkpt>
      <trkpt lat="43.12191" lon="-0.49813">
        <ele>314.8</ele>
        <time>2022-06-08 09:47:06</time>
      </trkpt>
      <trkpt lat="43.12196" lon="-0.49805">
        <ele>314.8</ele>
        <time>2022-06-08 09:47:07</time>
      </trkpt>
      <trkpt lat="43.12201" lon="-0.49797">
        <ele>314.8</ele>
        <time>2022-06-08 09:47:08</time>
      </trkpt>
      <trkpt lat="43.12206" lon="-0.49788">
        <ele>314.8</ele>
        <time>2022-06-08 09:47:09</time>
      </trkpt>
      <trkpt lat="43.12209" lon="-0.49778">
        <ele>315</ele>
        <time>2022-06-08 09:47:10</time>
      </trkpt>
      <trkpt lat="43.12212" lon="-0.49768">
        <ele>315</ele>
        <time>2022-06-08 09:47:11</time>
      </trkpt>
      <trkpt lat="43.12214" lon="-0.49759">
        <ele>315.4</ele>
        <time>2022-06-08 09:47:12</time>
      </trkpt>
      <trkpt lat="43.12215" lon="-0.49749">
        <ele>315.6</ele>
        <time>2022-06-08 09:47:13</time>
      </trkpt>
      <trkpt lat="43.12215" lon="-0.4974">
        <ele>316</ele>
        <time>2022-06-08 09:47:14</time>
      </trkpt>
      <trkpt lat="43.12215" lon="-0.49731">
        <ele>316.4</ele>
        <time>2022-06-08 09:47:15</time>
      </trkpt>
      <trkpt lat="43.12215" lon="-0.49722">
        <ele>316.6</ele>
        <time>2022-06-08 09:47:16</time>
      </trkpt>
      <trkpt lat="43.12214" lon="-0.49713">
        <ele>316.8</ele>
        <time>2022-06-08 09:47:17</time>
      </trkpt>
      <trkpt lat="43.12212" lon="-0.49705">
        <ele>316.8</ele>
        <time>2022-06-08 09:47:18</time>
      </trkpt>
      <trkpt lat="43.12209" lon="-0.49698">
        <ele>317</ele>
        <time>2022-06-08 09:47:19</time>
      </trkpt>
      <trkpt lat="43.12206" lon="-0.4969">
        <ele>317.2</ele>
        <time>2022-06-08 09:47:20</time>
      </trkpt>
      <trkpt lat="43.12203" lon="-0.49683">
        <ele>317.2</ele>
        <time>2022-06-08 09:47:21</time>
      </trkpt>
      <trkpt lat="43.122" lon="-0.49676">
        <ele>317.4</ele>
        <time>2022-06-08 09:47:22</time>
      </trkpt>
      <trkpt lat="43.12197" lon="-0.4967">
        <ele>317.6</ele>
        <time>2022-06-08 09:47:23</time>
      </trkpt>
      <trkpt lat="43.12193" lon="-0.49664">
        <ele>317.8</ele>
        <time>2022-06-08 09:47:24</time>
      </trkpt>
      <trkpt lat="43.12189" lon="-0.49659">
        <ele>318</ele>
        <time>2022-06-08 09:47:25</time>
      </trkpt>
      <trkpt lat="43.12185" lon="-0.49654">
        <ele>318.2</ele>
        <time>2022-06-08 09:47:26</time>
      </trkpt>
      <trkpt lat="43.1218" lon="-0.49649">
        <ele>318.4</ele>
        <time>2022-06-08 09:47:27</time>
      </trkpt>
      <trkpt lat="43.12176" lon="-0.49645">
        <ele>318.6</ele>
        <time>2022-06-08 09:47:28</time>
      </trkpt>
      <trkpt lat="43.12171" lon="-0.49641">
        <ele>318.8</ele>
        <time>2022-06-08 09:47:29</time>
      </trkpt>
      <trkpt lat="43.12166" lon="-0.49639">
        <ele>319</ele>
        <time>2022-06-08 09:47:30</time>
      </trkpt>
      <trkpt lat="43.12161" lon="-0.49637">
        <ele>319.2</ele>
        <time>2022-06-08 09:47:31</time>
      </trkpt>
      <trkpt lat="43.12155" lon="-0.49636">
        <ele>319.6</ele>
        <time>2022-06-08 09:47:32</time>
      </trkpt>
      <trkpt lat="43.1215" lon="-0.49636">
        <ele>319.6</ele>
        <time>2022-06-08 09:47:33</time>
      </trkpt>
      <trkpt lat="43.12144" lon="-0.49637">
        <ele>319.8</ele>
        <time>2022-06-08 09:47:34</time>
      </trkpt>
      <trkpt lat="43.12139" lon="-0.49639">
        <ele>320</ele>
        <time>2022-06-08 09:47:35</time>
      </trkpt>
      <trkpt lat="43.12133" lon="-0.49641">
        <ele>320</ele>
        <time>2022-06-08 09:47:36</time>
      </trkpt>
      <trkpt lat="43.12128" lon="-0.49644">
        <ele>320</ele>
        <time>2022-06-08 09:47:37</time>
      </trkpt>
      <trkpt lat="43.12122" lon="-0.49647">
        <ele>320.2</ele>
        <time>2022-06-08 09:47:38</time>
      </trkpt>
      <trkpt lat="43.12116" lon="-0.4965">
        <ele>320.2</ele>
        <time>2022-06-08 09:47:39</time>
      </trkpt>
      <trkpt lat="43.1211" lon="-0.49652">
        <ele>320.4</ele>
        <time>2022-06-08 09:47:40</time>
      </trkpt>
      <trkpt lat="43.12104" lon="-0.49654">
        <ele>320.6</ele>
        <time>2022-06-08 09:47:41</time>
      </trkpt>
      <trkpt lat="43.12098" lon="-0.49655">
        <ele>320.6</ele>
        <time>2022-06-08 09:47:42</time>
      </trkpt>
      <trkpt lat="43.12092" lon="-0.49655">
        <ele>320.6</ele>
        <time>2022-06-08 09:47:43</time>
      </trkpt>
      <trkpt lat="43.12086" lon="-0.49651">
        <ele>320.6</ele>
        <time>2022-06-08 09:47:44</time>
      </trkpt>
      <trkpt lat="43.1208" lon="-0.49646">
        <ele>320.6</ele>
        <time>2022-06-08 09:47:45</time>
      </trkpt>
      <trkpt lat="43.12075" lon="-0.49638">
        <ele>320.6</ele>
        <time>2022-06-08 09:47:46</time>
      </trkpt>
      <trkpt lat="43.12072" lon="-0.49629">
        <ele>320.8</ele>
        <time>2022-06-08 09:47:47</time>
      </trkpt>
      <trkpt lat="43.1207" lon="-0.4962">
        <ele>320.8</ele>
        <time>2022-06-08 09:47:48</time>
      </trkpt>
      <trkpt lat="43.1207" lon="-0.4961">
        <ele>320.8</ele>
        <time>2022-06-08 09:47:49</time>
      </trkpt>
      <trkpt lat="43.12071" lon="-0.49602">
        <ele>320.8</ele>
        <time>2022-06-08 09:47:50</time>
      </trkpt>
      <trkpt lat="43.12073" lon="-0.49594">
        <ele>321</ele>
        <time>2022-06-08 09:47:51</time>
      </trkpt>
      <trkpt lat="43.12077" lon="-0.49586">
        <ele>321</ele>
        <time>2022-06-08 09:47:52</time>
      </trkpt>
      <trkpt lat="43.12082" lon="-0.49578">
        <ele>321.2</ele>
        <time>2022-06-08 09:47:53</time>
      </trkpt>
      <trkpt lat="43.12085" lon="-0.49569">
        <ele>321</ele>
        <time>2022-06-08 09:47:54</time>
      </trkpt>
      <trkpt lat="43.12088" lon="-0.4956">
        <ele>321</ele>
        <time>2022-06-08 09:47:55</time>
      </trkpt>
      <trkpt lat="43.12089" lon="-0.4955">
        <ele>321</ele>
        <time>2022-06-08 09:47:56</time>
      </trkpt>
      <trkpt lat="43.12089" lon="-0.4954">
        <ele>320.8</ele>
        <time>2022-06-08 09:47:57</time>
      </trkpt>
      <trkpt lat="43.12089" lon="-0.49531">
        <ele>320.8</ele>
        <time>2022-06-08 09:47:58</time>
      </trkpt>
      <trkpt lat="43.12087" lon="-0.49523">
        <ele>321</ele>
        <time>2022-06-08 09:47:59</time>
      </trkpt>
      <trkpt lat="43.12087" lon="-0.49516">
        <ele>321.2</ele>
        <time>2022-06-08 09:48:00</time>
      </trkpt>
      <trkpt lat="43.12083" lon="-0.49509">
        <ele>321.2</ele>
        <time>2022-06-08 09:48:01</time>
      </trkpt>
      <trkpt lat="43.12076" lon="-0.49502">
        <ele>321.2</ele>
        <time>2022-06-08 09:48:02</time>
      </trkpt>
      <trkpt lat="43.12071" lon="-0.49495">
        <ele>321.6</ele>
        <time>2022-06-08 09:48:03</time>
      </trkpt>
      <trkpt lat="43.12066" lon="-0.49487">
        <ele>321.8</ele>
        <time>2022-06-08 09:48:04</time>
      </trkpt>
      <trkpt lat="43.12063" lon="-0.49478">
        <ele>322</ele>
        <time>2022-06-08 09:48:05</time>
      </trkpt>
      <trkpt lat="43.12062" lon="-0.49468">
        <ele>322</ele>
        <time>2022-06-08 09:48:06</time>
      </trkpt>
      <trkpt lat="43.12063" lon="-0.49459">
        <ele>322</ele>
        <time>2022-06-08 09:48:07</time>
      </trkpt>
      <trkpt lat="43.12064" lon="-0.49451">
        <ele>322.4</ele>
        <time>2022-06-08 09:48:08</time>
      </trkpt>
      <trkpt lat="43.12067" lon="-0.49443">
        <ele>322.4</ele>
        <time>2022-06-08 09:48:09</time>
      </trkpt>
      <trkpt lat="43.1207" lon="-0.49435">
        <ele>323</ele>
        <time>2022-06-08 09:48:10</time>
      </trkpt>
      <trkpt lat="43.12074" lon="-0.49428">
        <ele>322.8</ele>
        <time>2022-06-08 09:48:11</time>
      </trkpt>
      <trkpt lat="43.12077" lon="-0.4942">
        <ele>323</ele>
        <time>2022-06-08 09:48:12</time>
      </trkpt>
      <trkpt lat="43.12079" lon="-0.49411">
        <ele>323.2</ele>
        <time>2022-06-08 09:48:13</time>
      </trkpt>
      <trkpt lat="43.1208" lon="-0.49403">
        <ele>323.4</ele>
        <time>2022-06-08 09:48:14</time>
      </trkpt>
      <trkpt lat="43.1208" lon="-0.49394">
        <ele>323.6</ele>
        <time>2022-06-08 09:48:15</time>
      </trkpt>
      <trkpt lat="43.12079" lon="-0.49385">
        <ele>323.4</ele>
        <time>2022-06-08 09:48:16</time>
      </trkpt>
      <trkpt lat="43.12078" lon="-0.49377">
        <ele>323.8</ele>
        <time>2022-06-08 09:48:17</time>
      </trkpt>
      <trkpt lat="43.12076" lon="-0.49369">
        <ele>323.8</ele>
        <time>2022-06-08 09:48:18</time>
      </trkpt>
      <trkpt lat="43.12075" lon="-0.49361">
        <ele>323.8</ele>
        <time>2022-06-08 09:48:19</time>
      </trkpt>
      <trkpt lat="43.12073" lon="-0.49354">
        <ele>324.2</ele>
        <time>2022-06-08 09:48:20</time>
      </trkpt>
      <trkpt lat="43.12071" lon="-0.49346">
        <ele>324</ele>
        <time>2022-06-08 09:48:21</time>
      </trkpt>
      <trkpt lat="43.12069" lon="-0.49338">
        <ele>324.2</ele>
        <time>2022-06-08 09:48:22</time>
      </trkpt>
      <trkpt lat="43.12067" lon="-0.49331">
        <ele>324.4</ele>
        <time>2022-06-08 09:48:23</time>
      </trkpt>
      <trkpt lat="43.12066" lon="-0.49323">
        <ele>324.4</ele>
        <time>2022-06-08 09:48:24</time>
      </trkpt>
      <trkpt lat="43.12065" lon="-0.49316">
        <ele>324.6</ele>
        <time>2022-06-08 09:48:25</time>
      </trkpt>
      <trkpt lat="43.12064" lon="-0.49309">
        <ele>324.8</ele>
        <time>2022-06-08 09:48:26</time>
      </trkpt>
      <trkpt lat="43.12063" lon="-0.49302">
        <ele>324.8</ele>
        <time>2022-06-08 09:48:27</time>
      </trkpt>
      <trkpt lat="43.12061" lon="-0.49295">
        <ele>325</ele>
        <time>2022-06-08 09:48:28</time>
      </trkpt>
      <trkpt lat="43.1206" lon="-0.49288">
        <ele>325.4</ele>
        <time>2022-06-08 09:48:29</time>
      </trkpt>
      <trkpt lat="43.12058" lon="-0.49282">
        <ele>325.8</ele>
        <time>2022-06-08 09:48:30</time>
      </trkpt>
      <trkpt lat="43.12056" lon="-0.49276">
        <ele>325.8</ele>
        <time>2022-06-08 09:48:31</time>
      </trkpt>
      <trkpt lat="43.12052" lon="-0.49271">
        <ele>326</ele>
        <time>2022-06-08 09:48:32</time>
      </trkpt>
      <trkpt lat="43.12049" lon="-0.49266">
        <ele>326</ele>
        <time>2022-06-08 09:48:33</time>
      </trkpt>
      <trkpt lat="43.12045" lon="-0.49261">
        <ele>326.2</ele>
        <time>2022-06-08 09:48:34</time>
      </trkpt>
      <trkpt lat="43.12042" lon="-0.49256">
        <ele>326.4</ele>
        <time>2022-06-08 09:48:35</time>
      </trkpt>
      <trkpt lat="43.12039" lon="-0.4925">
        <ele>326.6</ele>
        <time>2022-06-08 09:48:36</time>
      </trkpt>
      <trkpt lat="43.12037" lon="-0.49244">
        <ele>326.8</ele>
        <time>2022-06-08 09:48:37</time>
      </trkpt>
      <trkpt lat="43.12036" lon="-0.49238">
        <ele>327</ele>
        <time>2022-06-08 09:48:38</time>
      </trkpt>
      <trkpt lat="43.12034" lon="-0.49232">
        <ele>327.2</ele>
        <time>2022-06-08 09:48:39</time>
      </trkpt>
      <trkpt lat="43.12033" lon="-0.49225">
        <ele>327.2</ele>
        <time>2022-06-08 09:48:40</time>
      </trkpt>
      <trkpt lat="43.12033" lon="-0.49218">
        <ele>327.4</ele>
        <time>2022-06-08 09:48:41</time>
      </trkpt>
      <trkpt lat="43.12032" lon="-0.49212">
        <ele>327.6</ele>
        <time>2022-06-08 09:48:42</time>
      </trkpt>
      <trkpt lat="43.12032" lon="-0.49205">
        <ele>327.6</ele>
        <time>2022-06-08 09:48:43</time>
      </trkpt>
      <trkpt lat="43.12031" lon="-0.49198">
        <ele>327.8</ele>
        <time>2022-06-08 09:48:44</time>
      </trkpt>
      <trkpt lat="43.1203" lon="-0.49191">
        <ele>328.2</ele>
        <time>2022-06-08 09:48:45</time>
      </trkpt>
      <trkpt lat="43.12029" lon="-0.49184">
        <ele>328.2</ele>
        <time>2022-06-08 09:48:46</time>
      </trkpt>
      <trkpt lat="43.12028" lon="-0.49177">
        <ele>328.6</ele>
        <time>2022-06-08 09:48:47</time>
      </trkpt>
      <trkpt lat="43.12026" lon="-0.4917">
        <ele>328.8</ele>
        <time>2022-06-08 09:48:48</time>
      </trkpt>
      <trkpt lat="43.12024" lon="-0.49164">
        <ele>329.2</ele>
        <time>2022-06-08 09:48:49</time>
      </trkpt>
      <trkpt lat="43.12021" lon="-0.49158">
        <ele>329.2</ele>
        <time>2022-06-08 09:48:50</time>
      </trkpt>
      <trkpt lat="43.12017" lon="-0.49153">
        <ele>329.4</ele>
        <time>2022-06-08 09:48:51</time>
      </trkpt>
      <trkpt lat="43.12013" lon="-0.49149">
        <ele>329.4</ele>
        <time>2022-06-08 09:48:52</time>
      </trkpt>
      <trkpt lat="43.12008" lon="-0.49145">
        <ele>329.4</ele>
        <time>2022-06-08 09:48:53</time>
      </trkpt>
      <trkpt lat="43.12003" lon="-0.49141">
        <ele>329.6</ele>
        <time>2022-06-08 09:48:54</time>
      </trkpt>
      <trkpt lat="43.11998" lon="-0.49139">
        <ele>329.8</ele>
        <time>2022-06-08 09:48:55</time>
      </trkpt>
      <trkpt lat="43.11994" lon="-0.49137">
        <ele>329.8</ele>
        <time>2022-06-08 09:48:56</time>
      </trkpt>
      <trkpt lat="43.11989" lon="-0.49136">
        <ele>330</ele>
        <time>2022-06-08 09:48:57</time>
      </trkpt>
      <trkpt lat="43.11985" lon="-0.49134">
        <ele>330</ele>
        <time>2022-06-08 09:48:58</time>
      </trkpt>
      <trkpt lat="43.11981" lon="-0.49134">
        <ele>330.2</ele>
        <time>2022-06-08 09:48:59</time>
      </trkpt>
      <trkpt lat="43.11976" lon="-0.49134">
        <ele>330.6</ele>
        <time>2022-06-08 09:49:00</time>
      </trkpt>
      <trkpt lat="43.11972" lon="-0.49134">
        <ele>330.8</ele>
        <time>2022-06-08 09:49:01</time>
      </trkpt>
      <trkpt lat="43.11968" lon="-0.49136">
        <ele>331</ele>
        <time>2022-06-08 09:49:02</time>
      </trkpt>
      <trkpt lat="43.11964" lon="-0.49138">
        <ele>331</ele>
        <time>2022-06-08 09:49:03</time>
      </trkpt>
      <trkpt lat="43.1196" lon="-0.49141">
        <ele>331.4</ele>
        <time>2022-06-08 09:49:04</time>
      </trkpt>
      <trkpt lat="43.11955" lon="-0.49144">
        <ele>331.6</ele>
        <time>2022-06-08 09:49:05</time>
      </trkpt>
      <trkpt lat="43.1195" lon="-0.49148">
        <ele>331.8</ele>
        <time>2022-06-08 09:49:06</time>
      </trkpt>
      <trkpt lat="43.11946" lon="-0.49152">
        <ele>332</ele>
        <time>2022-06-08 09:49:07</time>
      </trkpt>
      <trkpt lat="43.11941" lon="-0.49155">
        <ele>332</ele>
        <time>2022-06-08 09:49:08</time>
      </trkpt>
      <trkpt lat="43.11935" lon="-0.49158">
        <ele>332</ele>
        <time>2022-06-08 09:49:09</time>
      </trkpt>
      <trkpt lat="43.1193" lon="-0.49161">
        <ele>332.2</ele>
        <time>2022-06-08 09:49:10</time>
      </trkpt>
      <trkpt lat="43.11924" lon="-0.49163">
        <ele>332.4</ele>
        <time>2022-06-08 09:49:11</time>
      </trkpt>
      <trkpt lat="43.11919" lon="-0.49163">
        <ele>332.6</ele>
        <time>2022-06-08 09:49:12</time>
      </trkpt>
      <trkpt lat="43.11914" lon="-0.49163">
        <ele>332.8</ele>
        <time>2022-06-08 09:49:13</time>
      </trkpt>
      <trkpt lat="43.1191" lon="-0.49161">
        <ele>333</ele>
        <time>2022-06-08 09:49:14</time>
      </trkpt>
      <trkpt lat="43.11906" lon="-0.4916">
        <ele>333</ele>
        <time>2022-06-08 09:49:15</time>
      </trkpt>
      <trkpt lat="43.11903" lon="-0.49159">
        <ele>333.2</ele>
        <time>2022-06-08 09:49:16</time>
      </trkpt>
      <trkpt lat="43.11901" lon="-0.49157">
        <ele>333.4</ele>
        <time>2022-06-08 09:49:17</time>
      </trkpt>
      <trkpt lat="43.11899" lon="-0.49155">
        <ele>333.4</ele>
        <time>2022-06-08 09:49:18</time>
      </trkpt>
      <trkpt lat="43.11897" lon="-0.49152">
        <ele>333.6</ele>
        <time>2022-06-08 09:49:19</time>
      </trkpt>
      <trkpt lat="43.11895" lon="-0.49148">
        <ele>333.6</ele>
        <time>2022-06-08 09:49:20</time>
      </trkpt>
      <trkpt lat="43.11894" lon="-0.49143">
        <ele>333.6</ele>
        <time>2022-06-08 09:49:21</time>
      </trkpt>
      <trkpt lat="43.11893" lon="-0.49138">
        <ele>333.8</ele>
        <time>2022-06-08 09:49:22</time>
      </trkpt>
      <trkpt lat="43.11891" lon="-0.49132">
        <ele>334</ele>
        <time>2022-06-08 09:49:23</time>
      </trkpt>
      <trkpt lat="43.11891" lon="-0.49127">
        <ele>334</ele>
        <time>2022-06-08 09:49:24</time>
      </trkpt>
      <trkpt lat="43.11891" lon="-0.49121">
        <ele>334</ele>
        <time>2022-06-08 09:49:25</time>
      </trkpt>
      <trkpt lat="43.11892" lon="-0.49116">
        <ele>334.2</ele>
        <time>2022-06-08 09:49:26</time>
      </trkpt>
      <trkpt lat="43.11892" lon="-0.49111">
        <ele>334.2</ele>
        <time>2022-06-08 09:49:27</time>
      </trkpt>
      <trkpt lat="43.11894" lon="-0.49106">
        <ele>334.4</ele>
        <time>2022-06-08 09:49:28</time>
      </trkpt>
      <trkpt lat="43.11896" lon="-0.49102">
        <ele>334.4</ele>
        <time>2022-06-08 09:49:29</time>
      </trkpt>
      <trkpt lat="43.11899" lon="-0.49098">
        <ele>334.6</ele>
        <time>2022-06-08 09:49:30</time>
      </trkpt>
      <trkpt lat="43.11902" lon="-0.49092">
        <ele>334.6</ele>
        <time>2022-06-08 09:49:31</time>
      </trkpt>
      <trkpt lat="43.11906" lon="-0.49087">
        <ele>334.8</ele>
        <time>2022-06-08 09:49:32</time>
      </trkpt>
      <trkpt lat="43.11909" lon="-0.49081">
        <ele>334.8</ele>
        <time>2022-06-08 09:49:33</time>
      </trkpt>
      <trkpt lat="43.11913" lon="-0.49076">
        <ele>335</ele>
        <time>2022-06-08 09:49:34</time>
      </trkpt>
      <trkpt lat="43.11917" lon="-0.49071">
        <ele>335</ele>
        <time>2022-06-08 09:49:35</time>
      </trkpt>
      <trkpt lat="43.11921" lon="-0.49066">
        <ele>335</ele>
        <time>2022-06-08 09:49:36</time>
      </trkpt>
      <trkpt lat="43.11925" lon="-0.4906">
        <ele>335</ele>
        <time>2022-06-08 09:49:37</time>
      </trkpt>
      <trkpt lat="43.11928" lon="-0.49055">
        <ele>335.2</ele>
        <time>2022-06-08 09:49:38</time>
      </trkpt>
      <trkpt lat="43.11932" lon="-0.4905">
        <ele>335.2</ele>
        <time>2022-06-08 09:49:39</time>
      </trkpt>
      <trkpt lat="43.11935" lon="-0.49044">
        <ele>335.4</ele>
        <time>2022-06-08 09:49:40</time>
      </trkpt>
      <trkpt lat="43.11938" lon="-0.49038">
        <ele>335.6</ele>
        <time>2022-06-08 09:49:41</time>
      </trkpt>
      <trkpt lat="43.11941" lon="-0.49031">
        <ele>335.8</ele>
        <time>2022-06-08 09:49:42</time>
      </trkpt>
      <trkpt lat="43.11943" lon="-0.49023">
        <ele>335.8</ele>
        <time>2022-06-08 09:49:43</time>
      </trkpt>
      <trkpt lat="43.11944" lon="-0.49016">
        <ele>335.8</ele>
        <time>2022-06-08 09:49:44</time>
      </trkpt>
      <trkpt lat="43.11945" lon="-0.49008">
        <ele>335.8</ele>
        <time>2022-06-08 09:49:45</time>
      </trkpt>
      <trkpt lat="43.11946" lon="-0.49">
        <ele>335.8</ele>
        <time>2022-06-08 09:49:46</time>
      </trkpt>
      <trkpt lat="43.11946" lon="-0.48991">
        <ele>336</ele>
        <time>2022-06-08 09:49:47</time>
      </trkpt>
      <trkpt lat="43.11946" lon="-0.48985">
        <ele>336</ele>
        <time>2022-06-08 09:49:48</time>
      </trkpt>
      <trkpt lat="43.11945" lon="-0.48976">
        <ele>336.2</ele>
        <time>2022-06-08 09:49:49</time>
      </trkpt>
      <trkpt lat="43.11943" lon="-0.48967">
        <ele>336.2</ele>
        <time>2022-06-08 09:49:50</time>
      </trkpt>
      <trkpt lat="43.11941" lon="-0.48959">
        <ele>336.2</ele>
        <time>2022-06-08 09:49:51</time>
      </trkpt>
      <trkpt lat="43.11938" lon="-0.48953">
        <ele>336.2</ele>
        <time>2022-06-08 09:49:52</time>
      </trkpt>
      <trkpt lat="43.11934" lon="-0.48947">
        <ele>336.2</ele>
        <time>2022-06-08 09:49:53</time>
      </trkpt>
      <trkpt lat="43.11929" lon="-0.48941">
        <ele>336.2</ele>
        <time>2022-06-08 09:49:54</time>
      </trkpt>
      <trkpt lat="43.11924" lon="-0.48936">
        <ele>336.2</ele>
        <time>2022-06-08 09:49:55</time>
      </trkpt>
      <trkpt lat="43.11919" lon="-0.48931">
        <ele>336.2</ele>
        <time>2022-06-08 09:49:56</time>
      </trkpt>
      <trkpt lat="43.11914" lon="-0.48926">
        <ele>336.2</ele>
        <time>2022-06-08 09:49:57</time>
      </trkpt>
      <trkpt lat="43.11908" lon="-0.48921">
        <ele>336.2</ele>
        <time>2022-06-08 09:49:58</time>
      </trkpt>
      <trkpt lat="43.11903" lon="-0.48915">
        <ele>336.2</ele>
        <time>2022-06-08 09:49:59</time>
      </trkpt>
      <trkpt lat="43.11899" lon="-0.48909">
        <ele>336.2</ele>
        <time>2022-06-08 09:50:00</time>
      </trkpt>
      <trkpt lat="43.11894" lon="-0.48903">
        <ele>336.2</ele>
        <time>2022-06-08 09:50:01</time>
      </trkpt>
      <trkpt lat="43.1189" lon="-0.48895">
        <ele>336.2</ele>
        <time>2022-06-08 09:50:02</time>
      </trkpt>
      <trkpt lat="43.11886" lon="-0.48888">
        <ele>336.2</ele>
        <time>2022-06-08 09:50:03</time>
      </trkpt>
      <trkpt lat="43.11882" lon="-0.4888">
        <ele>336</ele>
        <time>2022-06-08 09:50:04</time>
      </trkpt>
      <trkpt lat="43.11878" lon="-0.48871">
        <ele>336</ele>
        <time>2022-06-08 09:50:05</time>
      </trkpt>
      <trkpt lat="43.11874" lon="-0.48862">
        <ele>336</ele>
        <time>2022-06-08 09:50:06</time>
      </trkpt>
      <trkpt lat="43.1187" lon="-0.48853">
        <ele>335.8</ele>
        <time>2022-06-08 09:50:07</time>
      </trkpt>
      <trkpt lat="43.11865" lon="-0.48844">
        <ele>335.6</ele>
        <time>2022-06-08 09:50:08</time>
      </trkpt>
      <trkpt lat="43.1186" lon="-0.48836">
        <ele>335</ele>
        <time>2022-06-08 09:50:09</time>
      </trkpt>
      <trkpt lat="43.11854" lon="-0.48828">
        <ele>334.8</ele>
        <time>2022-06-08 09:50:10</time>
      </trkpt>
      <trkpt lat="43.11846" lon="-0.48823">
        <ele>334.2</ele>
        <time>2022-06-08 09:50:11</time>
      </trkpt>
      <trkpt lat="43.11839" lon="-0.4882">
        <ele>334.2</ele>
        <time>2022-06-08 09:50:12</time>
      </trkpt>
      <trkpt lat="43.1183" lon="-0.48818">
        <ele>333.8</ele>
        <time>2022-06-08 09:50:13</time>
      </trkpt>
      <trkpt lat="43.11822" lon="-0.48818">
        <ele>333.6</ele>
        <time>2022-06-08 09:50:14</time>
      </trkpt>
      <trkpt lat="43.11813" lon="-0.48819">
        <ele>333.2</ele>
        <time>2022-06-08 09:50:15</time>
      </trkpt>
      <trkpt lat="43.11804" lon="-0.48821">
        <ele>333</ele>
        <time>2022-06-08 09:50:16</time>
      </trkpt>
      <trkpt lat="43.11796" lon="-0.48821">
        <ele>332.2</ele>
        <time>2022-06-08 09:50:17</time>
      </trkpt>
      <trkpt lat="43.11787" lon="-0.48818">
        <ele>331.8</ele>
        <time>2022-06-08 09:50:18</time>
      </trkpt>
      <trkpt lat="43.11779" lon="-0.48813">
        <ele>331.2</ele>
        <time>2022-06-08 09:50:19</time>
      </trkpt>
      <trkpt lat="43.11772" lon="-0.48807">
        <ele>330.8</ele>
        <time>2022-06-08 09:50:20</time>
      </trkpt>
      <trkpt lat="43.11764" lon="-0.48802">
        <ele>330.4</ele>
        <time>2022-06-08 09:50:21</time>
      </trkpt>
      <trkpt lat="43.11757" lon="-0.48796">
        <ele>330.2</ele>
        <time>2022-06-08 09:50:22</time>
      </trkpt>
      <trkpt lat="43.11749" lon="-0.48789">
        <ele>330</ele>
        <time>2022-06-08 09:50:23</time>
      </trkpt>
      <trkpt lat="43.11742" lon="-0.48779">
        <ele>329.4</ele>
        <time>2022-06-08 09:50:24</time>
      </trkpt>
      <trkpt lat="43.11737" lon="-0.48768">
        <ele>329.2</ele>
        <time>2022-06-08 09:50:25</time>
      </trkpt>
      <trkpt lat="43.11733" lon="-0.48758">
        <ele>329</ele>
        <time>2022-06-08 09:50:26</time>
      </trkpt>
      <trkpt lat="43.11736" lon="-0.48747">
        <ele>328.8</ele>
        <time>2022-06-08 09:50:27</time>
      </trkpt>
      <trkpt lat="43.1174" lon="-0.48737">
        <ele>328.6</ele>
        <time>2022-06-08 09:50:28</time>
      </trkpt>
      <trkpt lat="43.11745" lon="-0.48728">
        <ele>328.6</ele>
        <time>2022-06-08 09:50:29</time>
      </trkpt>
      <trkpt lat="43.1175" lon="-0.48719">
        <ele>328.6</ele>
        <time>2022-06-08 09:50:30</time>
      </trkpt>
      <trkpt lat="43.11756" lon="-0.48709">
        <ele>328.4</ele>
        <time>2022-06-08 09:50:31</time>
      </trkpt>
      <trkpt lat="43.1176" lon="-0.48698">
        <ele>328.2</ele>
        <time>2022-06-08 09:50:32</time>
      </trkpt>
      <trkpt lat="43.11763" lon="-0.48687">
        <ele>328.2</ele>
        <time>2022-06-08 09:50:33</time>
      </trkpt>
      <trkpt lat="43.11764" lon="-0.48675">
        <ele>328.2</ele>
        <time>2022-06-08 09:50:34</time>
      </trkpt>
      <trkpt lat="43.11764" lon="-0.48664">
        <ele>328</ele>
        <time>2022-06-08 09:50:35</time>
      </trkpt>
      <trkpt lat="43.11764" lon="-0.48653">
        <ele>328.2</ele>
        <time>2022-06-08 09:50:36</time>
      </trkpt>
      <trkpt lat="43.11766" lon="-0.48642">
        <ele>328.2</ele>
        <time>2022-06-08 09:50:37</time>
      </trkpt>
      <trkpt lat="43.11768" lon="-0.48631">
        <ele>328.2</ele>
        <time>2022-06-08 09:50:38</time>
      </trkpt>
      <trkpt lat="43.11771" lon="-0.48621">
        <ele>328.2</ele>
        <time>2022-06-08 09:50:39</time>
      </trkpt>
      <trkpt lat="43.11775" lon="-0.48611">
        <ele>328.2</ele>
        <time>2022-06-08 09:50:40</time>
      </trkpt>
      <trkpt lat="43.1178" lon="-0.48603">
        <ele>328.2</ele>
        <time>2022-06-08 09:50:41</time>
      </trkpt>
      <trkpt lat="43.11785" lon="-0.48594">
        <ele>328.2</ele>
        <time>2022-06-08 09:50:42</time>
      </trkpt>
      <trkpt lat="43.11789" lon="-0.48585">
        <ele>328.4</ele>
        <time>2022-06-08 09:50:43</time>
      </trkpt>
      <trkpt lat="43.11793" lon="-0.48575">
        <ele>328.6</ele>
        <time>2022-06-08 09:50:44</time>
      </trkpt>
      <trkpt lat="43.11796" lon="-0.48565">
        <ele>328.6</ele>
        <time>2022-06-08 09:50:45</time>
      </trkpt>
      <trkpt lat="43.11798" lon="-0.48555">
        <ele>328.6</ele>
        <time>2022-06-08 09:50:46</time>
      </trkpt>
      <trkpt lat="43.118" lon="-0.48546">
        <ele>328.8</ele>
        <time>2022-06-08 09:50:47</time>
      </trkpt>
      <trkpt lat="43.118" lon="-0.48537">
        <ele>328.8</ele>
        <time>2022-06-08 09:50:48</time>
      </trkpt>
      <trkpt lat="43.11799" lon="-0.48528">
        <ele>328.8</ele>
        <time>2022-06-08 09:50:49</time>
      </trkpt>
      <trkpt lat="43.11798" lon="-0.4852">
        <ele>328.8</ele>
        <time>2022-06-08 09:50:50</time>
      </trkpt>
      <trkpt lat="43.11798" lon="-0.48511">
        <ele>329</ele>
        <time>2022-06-08 09:50:51</time>
      </trkpt>
      <trkpt lat="43.11798" lon="-0.48502">
        <ele>329.4</ele>
        <time>2022-06-08 09:50:52</time>
      </trkpt>
      <trkpt lat="43.11799" lon="-0.48494">
        <ele>329.4</ele>
        <time>2022-06-08 09:50:53</time>
      </trkpt>
      <trkpt lat="43.11801" lon="-0.48485">
        <ele>329.6</ele>
        <time>2022-06-08 09:50:54</time>
      </trkpt>
      <trkpt lat="43.11804" lon="-0.48477">
        <ele>329.8</ele>
        <time>2022-06-08 09:50:55</time>
      </trkpt>
      <trkpt lat="43.11806" lon="-0.48469">
        <ele>330.2</ele>
        <time>2022-06-08 09:50:56</time>
      </trkpt>
      <trkpt lat="43.11808" lon="-0.4846">
        <ele>330.6</ele>
        <time>2022-06-08 09:50:57</time>
      </trkpt>
      <trkpt lat="43.1181" lon="-0.48451">
        <ele>331</ele>
        <time>2022-06-08 09:50:58</time>
      </trkpt>
      <trkpt lat="43.1181" lon="-0.48443">
        <ele>331</ele>
        <time>2022-06-08 09:50:59</time>
      </trkpt>
      <trkpt lat="43.1181" lon="-0.48436">
        <ele>331.2</ele>
        <time>2022-06-08 09:51:00</time>
      </trkpt>
      <trkpt lat="43.1181" lon="-0.48429">
        <ele>331.6</ele>
        <time>2022-06-08 09:51:01</time>
      </trkpt>
      <trkpt lat="43.1181" lon="-0.48421">
        <ele>331.8</ele>
        <time>2022-06-08 09:51:02</time>
      </trkpt>
      <trkpt lat="43.1181" lon="-0.48413">
        <ele>332</ele>
        <time>2022-06-08 09:51:03</time>
      </trkpt>
      <trkpt lat="43.11812" lon="-0.48405">
        <ele>332</ele>
        <time>2022-06-08 09:51:04</time>
      </trkpt>
      <trkpt lat="43.11814" lon="-0.48399">
        <ele>332.4</ele>
        <time>2022-06-08 09:51:05</time>
      </trkpt>
      <trkpt lat="43.11816" lon="-0.48393">
        <ele>332.6</ele>
        <time>2022-06-08 09:51:06</time>
      </trkpt>
      <trkpt lat="43.1182" lon="-0.48387">
        <ele>333</ele>
        <time>2022-06-08 09:51:07</time>
      </trkpt>
      <trkpt lat="43.11821" lon="-0.48382">
        <ele>333.2</ele>
        <time>2022-06-08 09:51:08</time>
      </trkpt>
      <trkpt lat="43.11822" lon="-0.48378">
        <ele>333.4</ele>
        <time>2022-06-08 09:51:09</time>
      </trkpt>
      <trkpt lat="43.11826" lon="-0.48375">
        <ele>333.4</ele>
        <time>2022-06-08 09:51:10</time>
      </trkpt>
      <trkpt lat="43.1183" lon="-0.4837">
        <ele>333.6</ele>
        <time>2022-06-08 09:51:11</time>
      </trkpt>
      <trkpt lat="43.11834" lon="-0.48364">
        <ele>333.8</ele>
        <time>2022-06-08 09:51:12</time>
      </trkpt>
      <trkpt lat="43.11838" lon="-0.48358">
        <ele>333.8</ele>
        <time>2022-06-08 09:51:13</time>
      </trkpt>
      <trkpt lat="43.11841" lon="-0.48352">
        <ele>333.8</ele>
        <time>2022-06-08 09:51:14</time>
      </trkpt>
      <trkpt lat="43.11844" lon="-0.48346">
        <ele>334</ele>
        <time>2022-06-08 09:51:15</time>
      </trkpt>
      <trkpt lat="43.11847" lon="-0.48339">
        <ele>334</ele>
        <time>2022-06-08 09:51:16</time>
      </trkpt>
      <trkpt lat="43.11849" lon="-0.48332">
        <ele>334.2</ele>
        <time>2022-06-08 09:51:17</time>
      </trkpt>
      <trkpt lat="43.11852" lon="-0.48326">
        <ele>334.2</ele>
        <time>2022-06-08 09:51:18</time>
      </trkpt>
      <trkpt lat="43.11854" lon="-0.4832">
        <ele>334.4</ele>
        <time>2022-06-08 09:51:19</time>
      </trkpt>
      <trkpt lat="43.11858" lon="-0.48312">
        <ele>334.6</ele>
        <time>2022-06-08 09:51:20</time>
      </trkpt>
      <trkpt lat="43.11859" lon="-0.48307">
        <ele>334.6</ele>
        <time>2022-06-08 09:51:21</time>
      </trkpt>
      <trkpt lat="43.11862" lon="-0.483">
        <ele>334.6</ele>
        <time>2022-06-08 09:51:22</time>
      </trkpt>
      <trkpt lat="43.11863" lon="-0.48293">
        <ele>334.6</ele>
        <time>2022-06-08 09:51:23</time>
      </trkpt>
      <trkpt lat="43.11865" lon="-0.48286">
        <ele>335</ele>
        <time>2022-06-08 09:51:24</time>
      </trkpt>
      <trkpt lat="43.11865" lon="-0.48278">
        <ele>335</ele>
        <time>2022-06-08 09:51:25</time>
      </trkpt>
      <trkpt lat="43.11866" lon="-0.48271">
        <ele>335.2</ele>
        <time>2022-06-08 09:51:26</time>
      </trkpt>
      <trkpt lat="43.11866" lon="-0.48263">
        <ele>335.2</ele>
        <time>2022-06-08 09:51:27</time>
      </trkpt>
      <trkpt lat="43.11865" lon="-0.48255">
        <ele>335.2</ele>
        <time>2022-06-08 09:51:28</time>
      </trkpt>
      <trkpt lat="43.11864" lon="-0.48247">
        <ele>335.2</ele>
        <time>2022-06-08 09:51:29</time>
      </trkpt>
      <trkpt lat="43.11862" lon="-0.4824">
        <ele>335.2</ele>
        <time>2022-06-08 09:51:30</time>
      </trkpt>
      <trkpt lat="43.11859" lon="-0.48233">
        <ele>335.2</ele>
        <time>2022-06-08 09:51:31</time>
      </trkpt>
      <trkpt lat="43.11856" lon="-0.48226">
        <ele>335</ele>
        <time>2022-06-08 09:51:32</time>
      </trkpt>
      <trkpt lat="43.11853" lon="-0.4822">
        <ele>335</ele>
        <time>2022-06-08 09:51:33</time>
      </trkpt>
      <trkpt lat="43.11848" lon="-0.48213">
        <ele>335</ele>
        <time>2022-06-08 09:51:34</time>
      </trkpt>
      <trkpt lat="43.11844" lon="-0.48208">
        <ele>334.8</ele>
        <time>2022-06-08 09:51:35</time>
      </trkpt>
      <trkpt lat="43.11838" lon="-0.48202">
        <ele>334.8</ele>
        <time>2022-06-08 09:51:36</time>
      </trkpt>
      <trkpt lat="43.11833" lon="-0.48197">
        <ele>334.8</ele>
        <time>2022-06-08 09:51:37</time>
      </trkpt>
      <trkpt lat="43.11827" lon="-0.48193">
        <ele>334.6</ele>
        <time>2022-06-08 09:51:38</time>
      </trkpt>
      <trkpt lat="43.11821" lon="-0.48187">
        <ele>334.6</ele>
        <time>2022-06-08 09:51:39</time>
      </trkpt>
      <trkpt lat="43.11815" lon="-0.48182">
        <ele>334.6</ele>
        <time>2022-06-08 09:51:40</time>
      </trkpt>
      <trkpt lat="43.11809" lon="-0.48177">
        <ele>334.4</ele>
        <time>2022-06-08 09:51:41</time>
      </trkpt>
      <trkpt lat="43.11803" lon="-0.48171">
        <ele>334.4</ele>
        <time>2022-06-08 09:51:42</time>
      </trkpt>
      <trkpt lat="43.11797" lon="-0.48165">
        <ele>334.4</ele>
        <time>2022-06-08 09:51:43</time>
      </trkpt>
      <trkpt lat="43.11792" lon="-0.48157">
        <ele>334.2</ele>
        <time>2022-06-08 09:51:44</time>
      </trkpt>
      <trkpt lat="43.11788" lon="-0.48149">
        <ele>334.4</ele>
        <time>2022-06-08 09:51:45</time>
      </trkpt>
      <trkpt lat="43.11785" lon="-0.4814">
        <ele>334</ele>
        <time>2022-06-08 09:51:46</time>
      </trkpt>
      <trkpt lat="43.11783" lon="-0.48131">
        <ele>333.4</ele>
        <time>2022-06-08 09:51:47</time>
      </trkpt>
      <trkpt lat="43.11783" lon="-0.4812">
        <ele>332.6</ele>
        <time>2022-06-08 09:51:48</time>
      </trkpt>
      <trkpt lat="43.11784" lon="-0.48109">
        <ele>332.2</ele>
        <time>2022-06-08 09:51:49</time>
      </trkpt>
      <trkpt lat="43.11787" lon="-0.48097">
        <ele>332</ele>
        <time>2022-06-08 09:51:50</time>
      </trkpt>
      <trkpt lat="43.11791" lon="-0.48089">
        <ele>331.8</ele>
        <time>2022-06-08 09:51:51</time>
      </trkpt>
      <trkpt lat="43.11796" lon="-0.4808">
        <ele>331.6</ele>
        <time>2022-06-08 09:51:52</time>
      </trkpt>
      <trkpt lat="43.11801" lon="-0.48074">
        <ele>331.4</ele>
        <time>2022-06-08 09:51:53</time>
      </trkpt>
      <trkpt lat="43.11808" lon="-0.48071">
        <ele>331.2</ele>
        <time>2022-06-08 09:51:54</time>
      </trkpt>
      <trkpt lat="43.11815" lon="-0.4807">
        <ele>331.2</ele>
        <time>2022-06-08 09:51:55</time>
      </trkpt>
      <trkpt lat="43.11825" lon="-0.48072">
        <ele>331.2</ele>
        <time>2022-06-08 09:51:56</time>
      </trkpt>
      <trkpt lat="43.11831" lon="-0.48075">
        <ele>331.2</ele>
        <time>2022-06-08 09:51:57</time>
      </trkpt>
      <trkpt lat="43.11839" lon="-0.48078">
        <ele>331.2</ele>
        <time>2022-06-08 09:51:58</time>
      </trkpt>
      <trkpt lat="43.11846" lon="-0.48083">
        <ele>331.2</ele>
        <time>2022-06-08 09:51:59</time>
      </trkpt>
      <trkpt lat="43.11852" lon="-0.48089">
        <ele>331.2</ele>
        <time>2022-06-08 09:52:00</time>
      </trkpt>
      <trkpt lat="43.11858" lon="-0.48095">
        <ele>331.2</ele>
        <time>2022-06-08 09:52:01</time>
      </trkpt>
      <trkpt lat="43.11863" lon="-0.48102">
        <ele>331.2</ele>
        <time>2022-06-08 09:52:02</time>
      </trkpt>
      <trkpt lat="43.11869" lon="-0.4811">
        <ele>331.6</ele>
        <time>2022-06-08 09:52:03</time>
      </trkpt>
      <trkpt lat="43.11875" lon="-0.48117">
        <ele>331.6</ele>
        <time>2022-06-08 09:52:04</time>
      </trkpt>
      <trkpt lat="43.11881" lon="-0.48123">
        <ele>331.8</ele>
        <time>2022-06-08 09:52:05</time>
      </trkpt>
      <trkpt lat="43.11887" lon="-0.48127">
        <ele>332</ele>
        <time>2022-06-08 09:52:06</time>
      </trkpt>
      <trkpt lat="43.11895" lon="-0.48131">
        <ele>332.2</ele>
        <time>2022-06-08 09:52:07</time>
      </trkpt>
      <trkpt lat="43.119" lon="-0.48132">
        <ele>332.4</ele>
        <time>2022-06-08 09:52:08</time>
      </trkpt>
      <trkpt lat="43.11906" lon="-0.48132">
        <ele>332.6</ele>
        <time>2022-06-08 09:52:09</time>
      </trkpt>
      <trkpt lat="43.11914" lon="-0.48128">
        <ele>333</ele>
        <time>2022-06-08 09:52:10</time>
      </trkpt>
      <trkpt lat="43.11918" lon="-0.48124">
        <ele>333.6</ele>
        <time>2022-06-08 09:52:11</time>
      </trkpt>
      <trkpt lat="43.11923" lon="-0.48118">
        <ele>333.8</ele>
        <time>2022-06-08 09:52:12</time>
      </trkpt>
      <trkpt lat="43.11928" lon="-0.48111">
        <ele>334.4</ele>
        <time>2022-06-08 09:52:13</time>
      </trkpt>
      <trkpt lat="43.11932" lon="-0.48103">
        <ele>334.6</ele>
        <time>2022-06-08 09:52:14</time>
      </trkpt>
      <trkpt lat="43.11934" lon="-0.48094">
        <ele>334.6</ele>
        <time>2022-06-08 09:52:15</time>
      </trkpt>
      <trkpt lat="43.11935" lon="-0.48085">
        <ele>334.8</ele>
        <time>2022-06-08 09:52:16</time>
      </trkpt>
      <trkpt lat="43.11936" lon="-0.48076">
        <ele>334.8</ele>
        <time>2022-06-08 09:52:17</time>
      </trkpt>
      <trkpt lat="43.11936" lon="-0.48068">
        <ele>334.8</ele>
        <time>2022-06-08 09:52:18</time>
      </trkpt>
      <trkpt lat="43.11934" lon="-0.4806">
        <ele>334.8</ele>
        <time>2022-06-08 09:52:19</time>
      </trkpt>
      <trkpt lat="43.11932" lon="-0.48052">
        <ele>335</ele>
        <time>2022-06-08 09:52:20</time>
      </trkpt>
      <trkpt lat="43.11931" lon="-0.48045">
        <ele>335</ele>
        <time>2022-06-08 09:52:21</time>
      </trkpt>
      <trkpt lat="43.11929" lon="-0.48038">
        <ele>335.2</ele>
        <time>2022-06-08 09:52:22</time>
      </trkpt>
      <trkpt lat="43.11927" lon="-0.48032">
        <ele>335.2</ele>
        <time>2022-06-08 09:52:23</time>
      </trkpt>
      <trkpt lat="43.11925" lon="-0.48025">
        <ele>335.4</ele>
        <time>2022-06-08 09:52:24</time>
      </trkpt>
      <trkpt lat="43.11923" lon="-0.48017">
        <ele>335.4</ele>
        <time>2022-06-08 09:52:25</time>
      </trkpt>
      <trkpt lat="43.1192" lon="-0.4801">
        <ele>335.4</ele>
        <time>2022-06-08 09:52:26</time>
      </trkpt>
      <trkpt lat="43.11918" lon="-0.48002">
        <ele>335.4</ele>
        <time>2022-06-08 09:52:27</time>
      </trkpt>
      <trkpt lat="43.11918" lon="-0.47994">
        <ele>335.6</ele>
        <time>2022-06-08 09:52:28</time>
      </trkpt>
      <trkpt lat="43.11917" lon="-0.47986">
        <ele>335.8</ele>
        <time>2022-06-08 09:52:29</time>
      </trkpt>
      <trkpt lat="43.11917" lon="-0.47977">
        <ele>336.4</ele>
        <time>2022-06-08 09:52:30</time>
      </trkpt>
      <trkpt lat="43.11917" lon="-0.47968">
        <ele>336.8</ele>
        <time>2022-06-08 09:52:31</time>
      </trkpt>
      <trkpt lat="43.1192" lon="-0.47959">
        <ele>337</ele>
        <time>2022-06-08 09:52:32</time>
      </trkpt>
      <trkpt lat="43.1192" lon="-0.47951">
        <ele>337.2</ele>
        <time>2022-06-08 09:52:33</time>
      </trkpt>
      <trkpt lat="43.1192" lon="-0.47943">
        <ele>337.4</ele>
        <time>2022-06-08 09:52:34</time>
      </trkpt>
      <trkpt lat="43.11922" lon="-0.47936">
        <ele>337.4</ele>
        <time>2022-06-08 09:52:35</time>
      </trkpt>
      <trkpt lat="43.11922" lon="-0.47928">
        <ele>337.4</ele>
        <time>2022-06-08 09:52:36</time>
      </trkpt>
      <trkpt lat="43.11922" lon="-0.4792">
        <ele>337.8</ele>
        <time>2022-06-08 09:52:37</time>
      </trkpt>
      <trkpt lat="43.11922" lon="-0.47912">
        <ele>337.8</ele>
        <time>2022-06-08 09:52:38</time>
      </trkpt>
      <trkpt lat="43.11922" lon="-0.47904">
        <ele>338</ele>
        <time>2022-06-08 09:52:39</time>
      </trkpt>
      <trkpt lat="43.11923" lon="-0.47896">
        <ele>338</ele>
        <time>2022-06-08 09:52:40</time>
      </trkpt>
      <trkpt lat="43.11922" lon="-0.47888">
        <ele>338.2</ele>
        <time>2022-06-08 09:52:41</time>
      </trkpt>
      <trkpt lat="43.11922" lon="-0.4788">
        <ele>338.2</ele>
        <time>2022-06-08 09:52:42</time>
      </trkpt>
      <trkpt lat="43.11921" lon="-0.47873">
        <ele>338.4</ele>
        <time>2022-06-08 09:52:43</time>
      </trkpt>
      <trkpt lat="43.11919" lon="-0.47866">
        <ele>338.6</ele>
        <time>2022-06-08 09:52:44</time>
      </trkpt>
      <trkpt lat="43.11917" lon="-0.47859">
        <ele>338.8</ele>
        <time>2022-06-08 09:52:45</time>
      </trkpt>
      <trkpt lat="43.11915" lon="-0.47852">
        <ele>339.2</ele>
        <time>2022-06-08 09:52:46</time>
      </trkpt>
      <trkpt lat="43.11912" lon="-0.47845">
        <ele>339.4</ele>
        <time>2022-06-08 09:52:47</time>
      </trkpt>
      <trkpt lat="43.11909" lon="-0.47839">
        <ele>339.4</ele>
        <time>2022-06-08 09:52:48</time>
      </trkpt>
      <trkpt lat="43.11906" lon="-0.47833">
        <ele>339.4</ele>
        <time>2022-06-08 09:52:49</time>
      </trkpt>
      <trkpt lat="43.11903" lon="-0.47827">
        <ele>339.6</ele>
        <time>2022-06-08 09:52:50</time>
      </trkpt>
      <trkpt lat="43.119" lon="-0.47821">
        <ele>339.8</ele>
        <time>2022-06-08 09:52:51</time>
      </trkpt>
      <trkpt lat="43.11898" lon="-0.47814">
        <ele>340</ele>
        <time>2022-06-08 09:52:52</time>
      </trkpt>
      <trkpt lat="43.11895" lon="-0.47807">
        <ele>340</ele>
        <time>2022-06-08 09:52:53</time>
      </trkpt>
      <trkpt lat="43.11893" lon="-0.47801">
        <ele>340</ele>
        <time>2022-06-08 09:52:54</time>
      </trkpt>
      <trkpt lat="43.1189" lon="-0.47794">
        <ele>340.2</ele>
        <time>2022-06-08 09:52:55</time>
      </trkpt>
      <trkpt lat="43.11888" lon="-0.47787">
        <ele>340.4</ele>
        <time>2022-06-08 09:52:56</time>
      </trkpt>
      <trkpt lat="43.11886" lon="-0.47779">
        <ele>340.4</ele>
        <time>2022-06-08 09:52:57</time>
      </trkpt>
      <trkpt lat="43.11884" lon="-0.47772">
        <ele>340.6</ele>
        <time>2022-06-08 09:52:58</time>
      </trkpt>
      <trkpt lat="43.11882" lon="-0.47764">
        <ele>340.8</ele>
        <time>2022-06-08 09:52:59</time>
      </trkpt>
      <trkpt lat="43.1188" lon="-0.47757">
        <ele>340.8</ele>
        <time>2022-06-08 09:53:00</time>
      </trkpt>
      <trkpt lat="43.11879" lon="-0.47749">
        <ele>341</ele>
        <time>2022-06-08 09:53:01</time>
      </trkpt>
      <trkpt lat="43.11878" lon="-0.47741">
        <ele>341</ele>
        <time>2022-06-08 09:53:02</time>
      </trkpt>
      <trkpt lat="43.11876" lon="-0.47733">
        <ele>341.2</ele>
        <time>2022-06-08 09:53:03</time>
      </trkpt>
      <trkpt lat="43.11876" lon="-0.47725">
        <ele>341.2</ele>
        <time>2022-06-08 09:53:04</time>
      </trkpt>
      <trkpt lat="43.11876" lon="-0.47717">
        <ele>341.4</ele>
        <time>2022-06-08 09:53:05</time>
      </trkpt>
      <trkpt lat="43.11876" lon="-0.47709">
        <ele>341.6</ele>
        <time>2022-06-08 09:53:06</time>
      </trkpt>
      <trkpt lat="43.11877" lon="-0.47701">
        <ele>341.8</ele>
        <time>2022-06-08 09:53:07</time>
      </trkpt>
      <trkpt lat="43.11877" lon="-0.47692">
        <ele>342</ele>
        <time>2022-06-08 09:53:08</time>
      </trkpt>
      <trkpt lat="43.11877" lon="-0.47684">
        <ele>342.2</ele>
        <time>2022-06-08 09:53:09</time>
      </trkpt>
      <trkpt lat="43.11876" lon="-0.47676">
        <ele>342.2</ele>
        <time>2022-06-08 09:53:10</time>
      </trkpt>
      <trkpt lat="43.11876" lon="-0.47668">
        <ele>342.2</ele>
        <time>2022-06-08 09:53:11</time>
      </trkpt>
      <trkpt lat="43.11875" lon="-0.47658">
        <ele>342.4</ele>
        <time>2022-06-08 09:53:12</time>
      </trkpt>
      <trkpt lat="43.11874" lon="-0.47652">
        <ele>342.8</ele>
        <time>2022-06-08 09:53:13</time>
      </trkpt>
      <trkpt lat="43.11873" lon="-0.47644">
        <ele>342.8</ele>
        <time>2022-06-08 09:53:14</time>
      </trkpt>
      <trkpt lat="43.11871" lon="-0.47636">
        <ele>343</ele>
        <time>2022-06-08 09:53:15</time>
      </trkpt>
      <trkpt lat="43.1187" lon="-0.47629">
        <ele>343.2</ele>
        <time>2022-06-08 09:53:16</time>
      </trkpt>
      <trkpt lat="43.11868" lon="-0.47623">
        <ele>343.4</ele>
        <time>2022-06-08 09:53:17</time>
      </trkpt>
      <trkpt lat="43.11866" lon="-0.47616">
        <ele>343.4</ele>
        <time>2022-06-08 09:53:18</time>
      </trkpt>
      <trkpt lat="43.11863" lon="-0.4761">
        <ele>343.6</ele>
        <time>2022-06-08 09:53:19</time>
      </trkpt>
      <trkpt lat="43.1186" lon="-0.47603">
        <ele>343.6</ele>
        <time>2022-06-08 09:53:20</time>
      </trkpt>
      <trkpt lat="43.1186" lon="-0.47594">
        <ele>343.8</ele>
        <time>2022-06-08 09:53:21</time>
      </trkpt>
      <trkpt lat="43.11857" lon="-0.47588">
        <ele>344</ele>
        <time>2022-06-08 09:53:22</time>
      </trkpt>
      <trkpt lat="43.11853" lon="-0.47582">
        <ele>344.2</ele>
        <time>2022-06-08 09:53:23</time>
      </trkpt>
      <trkpt lat="43.11849" lon="-0.47576">
        <ele>344.6</ele>
        <time>2022-06-08 09:53:24</time>
      </trkpt>
      <trkpt lat="43.11845" lon="-0.4757">
        <ele>344.8</ele>
        <time>2022-06-08 09:53:25</time>
      </trkpt>
      <trkpt lat="43.11843" lon="-0.47564">
        <ele>345.2</ele>
        <time>2022-06-08 09:53:26</time>
      </trkpt>
      <trkpt lat="43.11842" lon="-0.47555">
        <ele>345.4</ele>
        <time>2022-06-08 09:53:27</time>
      </trkpt>
      <trkpt lat="43.1184" lon="-0.47548">
        <ele>345.8</ele>
        <time>2022-06-08 09:53:28</time>
      </trkpt>
      <trkpt lat="43.11839" lon="-0.47542">
        <ele>346.2</ele>
        <time>2022-06-08 09:53:29</time>
      </trkpt>
      <trkpt lat="43.11837" lon="-0.47535">
        <ele>346.2</ele>
        <time>2022-06-08 09:53:30</time>
      </trkpt>
      <trkpt lat="43.11836" lon="-0.47529">
        <ele>346.4</ele>
        <time>2022-06-08 09:53:31</time>
      </trkpt>
      <trkpt lat="43.11835" lon="-0.47524">
        <ele>346.4</ele>
        <time>2022-06-08 09:53:32</time>
      </trkpt>
      <trkpt lat="43.11833" lon="-0.47518">
        <ele>346.4</ele>
        <time>2022-06-08 09:53:33</time>
      </trkpt>
      <trkpt lat="43.11831" lon="-0.47512">
        <ele>346.4</ele>
        <time>2022-06-08 09:53:34</time>
      </trkpt>
      <trkpt lat="43.1183" lon="-0.47506">
        <ele>346.4</ele>
        <time>2022-06-08 09:53:35</time>
      </trkpt>
      <trkpt lat="43.11829" lon="-0.47499">
        <ele>346.4</ele>
        <time>2022-06-08 09:53:36</time>
      </trkpt>
      <trkpt lat="43.11829" lon="-0.47493">
        <ele>346.6</ele>
        <time>2022-06-08 09:53:37</time>
      </trkpt>
      <trkpt lat="43.1183" lon="-0.47486">
        <ele>346.8</ele>
        <time>2022-06-08 09:53:38</time>
      </trkpt>
      <trkpt lat="43.1183" lon="-0.4748">
        <ele>347</ele>
        <time>2022-06-08 09:53:39</time>
      </trkpt>
      <trkpt lat="43.1183" lon="-0.47473">
        <ele>347.2</ele>
        <time>2022-06-08 09:53:40</time>
      </trkpt>
      <trkpt lat="43.11831" lon="-0.47467">
        <ele>347.6</ele>
        <time>2022-06-08 09:53:41</time>
      </trkpt>
      <trkpt lat="43.1183" lon="-0.47462">
        <ele>347.8</ele>
        <time>2022-06-08 09:53:42</time>
      </trkpt>
      <trkpt lat="43.11829" lon="-0.47455">
        <ele>348</ele>
        <time>2022-06-08 09:53:43</time>
      </trkpt>
      <trkpt lat="43.11827" lon="-0.47448">
        <ele>348.2</ele>
        <time>2022-06-08 09:53:44</time>
      </trkpt>
      <trkpt lat="43.11826" lon="-0.47441">
        <ele>348.4</ele>
        <time>2022-06-08 09:53:45</time>
      </trkpt>
      <trkpt lat="43.11825" lon="-0.47434">
        <ele>348.8</ele>
        <time>2022-06-08 09:53:46</time>
      </trkpt>
      <trkpt lat="43.11826" lon="-0.47427">
        <ele>349</ele>
        <time>2022-06-08 09:53:47</time>
      </trkpt>
      <trkpt lat="43.11827" lon="-0.47419">
        <ele>349.2</ele>
        <time>2022-06-08 09:53:48</time>
      </trkpt>
      <trkpt lat="43.11828" lon="-0.47412">
        <ele>349.4</ele>
        <time>2022-06-08 09:53:49</time>
      </trkpt>
      <trkpt lat="43.11831" lon="-0.47405">
        <ele>349.6</ele>
        <time>2022-06-08 09:53:50</time>
      </trkpt>
      <trkpt lat="43.11831" lon="-0.47397">
        <ele>349.8</ele>
        <time>2022-06-08 09:53:51</time>
      </trkpt>
      <trkpt lat="43.1183" lon="-0.4739">
        <ele>350</ele>
        <time>2022-06-08 09:53:52</time>
      </trkpt>
      <trkpt lat="43.11829" lon="-0.47384">
        <ele>350</ele>
        <time>2022-06-08 09:53:53</time>
      </trkpt>
      <trkpt lat="43.1183" lon="-0.47377">
        <ele>350</ele>
        <time>2022-06-08 09:53:54</time>
      </trkpt>
      <trkpt lat="43.11832" lon="-0.47368">
        <ele>350.4</ele>
        <time>2022-06-08 09:53:55</time>
      </trkpt>
      <trkpt lat="43.11833" lon="-0.47361">
        <ele>350.6</ele>
        <time>2022-06-08 09:53:56</time>
      </trkpt>
      <trkpt lat="43.11834" lon="-0.47355">
        <ele>350.8</ele>
        <time>2022-06-08 09:53:57</time>
      </trkpt>
      <trkpt lat="43.11835" lon="-0.47349">
        <ele>350.8</ele>
        <time>2022-06-08 09:53:58</time>
      </trkpt>
      <trkpt lat="43.11835" lon="-0.47342">
        <ele>351</ele>
        <time>2022-06-08 09:53:59</time>
      </trkpt>
      <trkpt lat="43.11836" lon="-0.47337">
        <ele>351.4</ele>
        <time>2022-06-08 09:54:00</time>
      </trkpt>
      <trkpt lat="43.11835" lon="-0.47331">
        <ele>351.8</ele>
        <time>2022-06-08 09:54:01</time>
      </trkpt>
      <trkpt lat="43.11834" lon="-0.47324">
        <ele>352</ele>
        <time>2022-06-08 09:54:02</time>
      </trkpt>
      <trkpt lat="43.11833" lon="-0.47317">
        <ele>352.2</ele>
        <time>2022-06-08 09:54:03</time>
      </trkpt>
      <trkpt lat="43.11831" lon="-0.47313">
        <ele>352.4</ele>
        <time>2022-06-08 09:54:04</time>
      </trkpt>
      <trkpt lat="43.11829" lon="-0.47307">
        <ele>352.6</ele>
        <time>2022-06-08 09:54:05</time>
      </trkpt>
      <trkpt lat="43.11827" lon="-0.47301">
        <ele>352.6</ele>
        <time>2022-06-08 09:54:06</time>
      </trkpt>
      <trkpt lat="43.11826" lon="-0.47296">
        <ele>353</ele>
        <time>2022-06-08 09:54:07</time>
      </trkpt>
      <trkpt lat="43.11825" lon="-0.4729">
        <ele>353</ele>
        <time>2022-06-08 09:54:08</time>
      </trkpt>
      <trkpt lat="43.11824" lon="-0.47284">
        <ele>353.2</ele>
        <time>2022-06-08 09:54:09</time>
      </trkpt>
      <trkpt lat="43.11823" lon="-0.47278">
        <ele>353.6</ele>
        <time>2022-06-08 09:54:10</time>
      </trkpt>
      <trkpt lat="43.11821" lon="-0.47273">
        <ele>353.6</ele>
        <time>2022-06-08 09:54:11</time>
      </trkpt>
      <trkpt lat="43.11822" lon="-0.47267">
        <ele>354</ele>
        <time>2022-06-08 09:54:12</time>
      </trkpt>
      <trkpt lat="43.11823" lon="-0.47261">
        <ele>354</ele>
        <time>2022-06-08 09:54:13</time>
      </trkpt>
      <trkpt lat="43.11825" lon="-0.47256">
        <ele>354</ele>
        <time>2022-06-08 09:54:14</time>
      </trkpt>
      <trkpt lat="43.11827" lon="-0.4725">
        <ele>354.2</ele>
        <time>2022-06-08 09:54:15</time>
      </trkpt>
      <trkpt lat="43.11829" lon="-0.47244">
        <ele>354.6</ele>
        <time>2022-06-08 09:54:16</time>
      </trkpt>
      <trkpt lat="43.11831" lon="-0.47237">
        <ele>354.6</ele>
        <time>2022-06-08 09:54:17</time>
      </trkpt>
      <trkpt lat="43.11832" lon="-0.4723">
        <ele>354.8</ele>
        <time>2022-06-08 09:54:18</time>
      </trkpt>
      <trkpt lat="43.11832" lon="-0.47223">
        <ele>355</ele>
        <time>2022-06-08 09:54:19</time>
      </trkpt>
      <trkpt lat="43.11832" lon="-0.47216">
        <ele>355</ele>
        <time>2022-06-08 09:54:20</time>
      </trkpt>
      <trkpt lat="43.11832" lon="-0.47208">
        <ele>355.2</ele>
        <time>2022-06-08 09:54:21</time>
      </trkpt>
      <trkpt lat="43.11829" lon="-0.47201">
        <ele>355.2</ele>
        <time>2022-06-08 09:54:22</time>
      </trkpt>
      <trkpt lat="43.11827" lon="-0.47194">
        <ele>355.4</ele>
        <time>2022-06-08 09:54:23</time>
      </trkpt>
      <trkpt lat="43.11824" lon="-0.47187">
        <ele>355.4</ele>
        <time>2022-06-08 09:54:24</time>
      </trkpt>
      <trkpt lat="43.11823" lon="-0.4718">
        <ele>355.6</ele>
        <time>2022-06-08 09:54:25</time>
      </trkpt>
      <trkpt lat="43.11822" lon="-0.47173">
        <ele>355.6</ele>
        <time>2022-06-08 09:54:26</time>
      </trkpt>
      <trkpt lat="43.11821" lon="-0.47165">
        <ele>355.8</ele>
        <time>2022-06-08 09:54:27</time>
      </trkpt>
      <trkpt lat="43.1182" lon="-0.47158">
        <ele>356</ele>
        <time>2022-06-08 09:54:28</time>
      </trkpt>
      <trkpt lat="43.11819" lon="-0.47152">
        <ele>356.4</ele>
        <time>2022-06-08 09:54:29</time>
      </trkpt>
      <trkpt lat="43.11818" lon="-0.47145">
        <ele>356.4</ele>
        <time>2022-06-08 09:54:30</time>
      </trkpt>
      <trkpt lat="43.11816" lon="-0.47139">
        <ele>356.6</ele>
        <time>2022-06-08 09:54:31</time>
      </trkpt>
      <trkpt lat="43.11814" lon="-0.47133">
        <ele>356.8</ele>
        <time>2022-06-08 09:54:32</time>
      </trkpt>
      <trkpt lat="43.11812" lon="-0.47126">
        <ele>357.2</ele>
        <time>2022-06-08 09:54:33</time>
      </trkpt>
      <trkpt lat="43.1181" lon="-0.4712">
        <ele>357.4</ele>
        <time>2022-06-08 09:54:34</time>
      </trkpt>
      <trkpt lat="43.11808" lon="-0.47115">
        <ele>357.6</ele>
        <time>2022-06-08 09:54:35</time>
      </trkpt>
      <trkpt lat="43.11803" lon="-0.4711">
        <ele>357.8</ele>
        <time>2022-06-08 09:54:36</time>
      </trkpt>
      <trkpt lat="43.11797" lon="-0.47104">
        <ele>358</ele>
        <time>2022-06-08 09:54:37</time>
      </trkpt>
      <trkpt lat="43.11793" lon="-0.47099">
        <ele>358.2</ele>
        <time>2022-06-08 09:54:38</time>
      </trkpt>
      <trkpt lat="43.11789" lon="-0.47094">
        <ele>358.4</ele>
        <time>2022-06-08 09:54:39</time>
      </trkpt>
      <trkpt lat="43.11785" lon="-0.47089">
        <ele>358.6</ele>
        <time>2022-06-08 09:54:40</time>
      </trkpt>
      <trkpt lat="43.11781" lon="-0.47086">
        <ele>358.8</ele>
        <time>2022-06-08 09:54:41</time>
      </trkpt>
      <trkpt lat="43.11776" lon="-0.47083">
        <ele>359</ele>
        <time>2022-06-08 09:54:42</time>
      </trkpt>
      <trkpt lat="43.1177" lon="-0.47081">
        <ele>359.2</ele>
        <time>2022-06-08 09:54:43</time>
      </trkpt>
      <trkpt lat="43.11764" lon="-0.47079">
        <ele>359.4</ele>
        <time>2022-06-08 09:54:44</time>
      </trkpt>
      <trkpt lat="43.11758" lon="-0.47078">
        <ele>359.6</ele>
        <time>2022-06-08 09:54:45</time>
      </trkpt>
      <trkpt lat="43.1175" lon="-0.47075">
        <ele>359.6</ele>
        <time>2022-06-08 09:54:46</time>
      </trkpt>
      <trkpt lat="43.11744" lon="-0.47074">
        <ele>359.6</ele>
        <time>2022-06-08 09:54:47</time>
      </trkpt>
      <trkpt lat="43.11739" lon="-0.47072">
        <ele>359.8</ele>
        <time>2022-06-08 09:54:48</time>
      </trkpt>
      <trkpt lat="43.11735" lon="-0.47071">
        <ele>360</ele>
        <time>2022-06-08 09:54:49</time>
      </trkpt>
      <trkpt lat="43.11731" lon="-0.47067">
        <ele>360.4</ele>
        <time>2022-06-08 09:54:50</time>
      </trkpt>
      <trkpt lat="43.11728" lon="-0.47063">
        <ele>360.6</ele>
        <time>2022-06-08 09:54:51</time>
      </trkpt>
      <trkpt lat="43.11725" lon="-0.47058">
        <ele>360.8</ele>
        <time>2022-06-08 09:54:52</time>
      </trkpt>
      <trkpt lat="43.11723" lon="-0.4705">
        <ele>361.2</ele>
        <time>2022-06-08 09:54:53</time>
      </trkpt>
      <trkpt lat="43.11718" lon="-0.47045">
        <ele>361.2</ele>
        <time>2022-06-08 09:54:54</time>
      </trkpt>
      <trkpt lat="43.11715" lon="-0.47041">
        <ele>361.4</ele>
        <time>2022-06-08 09:54:55</time>
      </trkpt>
      <trkpt lat="43.11711" lon="-0.47036">
        <ele>361.4</ele>
        <time>2022-06-08 09:54:56</time>
      </trkpt>
      <trkpt lat="43.11709" lon="-0.47029">
        <ele>361.4</ele>
        <time>2022-06-08 09:54:57</time>
      </trkpt>
      <trkpt lat="43.1171" lon="-0.47021">
        <ele>361.6</ele>
        <time>2022-06-08 09:54:58</time>
      </trkpt>
      <trkpt lat="43.11707" lon="-0.47016">
        <ele>361.8</ele>
        <time>2022-06-08 09:54:59</time>
      </trkpt>
      <trkpt lat="43.11706" lon="-0.47012">
        <ele>361.8</ele>
        <time>2022-06-08 09:55:00</time>
      </trkpt>
      <trkpt lat="43.11704" lon="-0.47008">
        <ele>362</ele>
        <time>2022-06-08 09:55:01</time>
      </trkpt>
      <trkpt lat="43.11703" lon="-0.46999">
        <ele>362</ele>
        <time>2022-06-08 09:55:02</time>
      </trkpt>
      <trkpt lat="43.11701" lon="-0.4699">
        <ele>362</ele>
        <time>2022-06-08 09:55:03</time>
      </trkpt>
      <trkpt lat="43.11701" lon="-0.46986">
        <ele>362.4</ele>
        <time>2022-06-08 09:55:04</time>
      </trkpt>
      <trkpt lat="43.11699" lon="-0.46981">
        <ele>362.8</ele>
        <time>2022-06-08 09:55:05</time>
      </trkpt>
      <trkpt lat="43.11697" lon="-0.46975">
        <ele>363</ele>
        <time>2022-06-08 09:55:06</time>
      </trkpt>
      <trkpt lat="43.11694" lon="-0.46969">
        <ele>363.2</ele>
        <time>2022-06-08 09:55:07</time>
      </trkpt>
      <trkpt lat="43.1169" lon="-0.46964">
        <ele>363.4</ele>
        <time>2022-06-08 09:55:08</time>
      </trkpt>
      <trkpt lat="43.11686" lon="-0.46958">
        <ele>363.6</ele>
        <time>2022-06-08 09:55:09</time>
      </trkpt>
      <trkpt lat="43.11681" lon="-0.46952">
        <ele>363.8</ele>
        <time>2022-06-08 09:55:10</time>
      </trkpt>
      <trkpt lat="43.11678" lon="-0.46947">
        <ele>363.8</ele>
        <time>2022-06-08 09:55:11</time>
      </trkpt>
      <trkpt lat="43.11674" lon="-0.46942">
        <ele>363.8</ele>
        <time>2022-06-08 09:55:12</time>
      </trkpt>
      <trkpt lat="43.11669" lon="-0.46937">
        <ele>363.8</ele>
        <time>2022-06-08 09:55:13</time>
      </trkpt>
      <trkpt lat="43.11665" lon="-0.46932">
        <ele>364</ele>
        <time>2022-06-08 09:55:14</time>
      </trkpt>
      <trkpt lat="43.11661" lon="-0.46926">
        <ele>364.2</ele>
        <time>2022-06-08 09:55:15</time>
      </trkpt>
      <trkpt lat="43.11656" lon="-0.46922">
        <ele>364.2</ele>
        <time>2022-06-08 09:55:16</time>
      </trkpt>
      <trkpt lat="43.11651" lon="-0.46917">
        <ele>364.2</ele>
        <time>2022-06-08 09:55:17</time>
      </trkpt>
      <trkpt lat="43.11647" lon="-0.46913">
        <ele>364.6</ele>
        <time>2022-06-08 09:55:18</time>
      </trkpt>
      <trkpt lat="43.11641" lon="-0.46911">
        <ele>364.6</ele>
        <time>2022-06-08 09:55:19</time>
      </trkpt>
      <trkpt lat="43.11635" lon="-0.46909">
        <ele>364.8</ele>
        <time>2022-06-08 09:55:20</time>
      </trkpt>
      <trkpt lat="43.11629" lon="-0.46906">
        <ele>365</ele>
        <time>2022-06-08 09:55:21</time>
      </trkpt>
      <trkpt lat="43.11623" lon="-0.46905">
        <ele>365.2</ele>
        <time>2022-06-08 09:55:22</time>
      </trkpt>
      <trkpt lat="43.11617" lon="-0.46903">
        <ele>365.4</ele>
        <time>2022-06-08 09:55:23</time>
      </trkpt>
      <trkpt lat="43.11612" lon="-0.46901">
        <ele>365.6</ele>
        <time>2022-06-08 09:55:24</time>
      </trkpt>
      <trkpt lat="43.11607" lon="-0.46901">
        <ele>365.8</ele>
        <time>2022-06-08 09:55:25</time>
      </trkpt>
      <trkpt lat="43.11602" lon="-0.46901">
        <ele>365.8</ele>
        <time>2022-06-08 09:55:26</time>
      </trkpt>
      <trkpt lat="43.11598" lon="-0.469">
        <ele>366</ele>
        <time>2022-06-08 09:55:27</time>
      </trkpt>
      <trkpt lat="43.11593" lon="-0.46896">
        <ele>366</ele>
        <time>2022-06-08 09:55:28</time>
      </trkpt>
      <trkpt lat="43.11587" lon="-0.46893">
        <ele>366</ele>
        <time>2022-06-08 09:55:29</time>
      </trkpt>
      <trkpt lat="43.1158" lon="-0.4689">
        <ele>366.2</ele>
        <time>2022-06-08 09:55:30</time>
      </trkpt>
      <trkpt lat="43.11574" lon="-0.46885">
        <ele>366.4</ele>
        <time>2022-06-08 09:55:31</time>
      </trkpt>
      <trkpt lat="43.1157" lon="-0.46881">
        <ele>366.4</ele>
        <time>2022-06-08 09:55:32</time>
      </trkpt>
      <trkpt lat="43.11566" lon="-0.46877">
        <ele>366.8</ele>
        <time>2022-06-08 09:55:33</time>
      </trkpt>
      <trkpt lat="43.11563" lon="-0.46873">
        <ele>367</ele>
        <time>2022-06-08 09:55:34</time>
      </trkpt>
      <trkpt lat="43.1156" lon="-0.46869">
        <ele>367.2</ele>
        <time>2022-06-08 09:55:35</time>
      </trkpt>
      <trkpt lat="43.11557" lon="-0.46863">
        <ele>367.4</ele>
        <time>2022-06-08 09:55:36</time>
      </trkpt>
      <trkpt lat="43.11554" lon="-0.46858">
        <ele>367.4</ele>
        <time>2022-06-08 09:55:37</time>
      </trkpt>
      <trkpt lat="43.11551" lon="-0.46852">
        <ele>367.6</ele>
        <time>2022-06-08 09:55:38</time>
      </trkpt>
      <trkpt lat="43.11548" lon="-0.46847">
        <ele>367.8</ele>
        <time>2022-06-08 09:55:39</time>
      </trkpt>
      <trkpt lat="43.11544" lon="-0.46842">
        <ele>368</ele>
        <time>2022-06-08 09:55:40</time>
      </trkpt>
      <trkpt lat="43.1154" lon="-0.46838">
        <ele>368</ele>
        <time>2022-06-08 09:55:41</time>
      </trkpt>
      <trkpt lat="43.11536" lon="-0.46834">
        <ele>368.2</ele>
        <time>2022-06-08 09:55:42</time>
      </trkpt>
      <trkpt lat="43.11532" lon="-0.4683">
        <ele>368.2</ele>
        <time>2022-06-08 09:55:43</time>
      </trkpt>
      <trkpt lat="43.11528" lon="-0.46826">
        <ele>368.4</ele>
        <time>2022-06-08 09:55:44</time>
      </trkpt>
      <trkpt lat="43.11523" lon="-0.46823">
        <ele>368.4</ele>
        <time>2022-06-08 09:55:45</time>
      </trkpt>
      <trkpt lat="43.11519" lon="-0.46821">
        <ele>368.8</ele>
        <time>2022-06-08 09:55:46</time>
      </trkpt>
      <trkpt lat="43.11515" lon="-0.46818">
        <ele>369</ele>
        <time>2022-06-08 09:55:47</time>
      </trkpt>
      <trkpt lat="43.1151" lon="-0.46814">
        <ele>369.2</ele>
        <time>2022-06-08 09:55:48</time>
      </trkpt>
      <trkpt lat="43.11506" lon="-0.4681">
        <ele>369.4</ele>
        <time>2022-06-08 09:55:49</time>
      </trkpt>
      <trkpt lat="43.11503" lon="-0.46806">
        <ele>369.6</ele>
        <time>2022-06-08 09:55:50</time>
      </trkpt>
      <trkpt lat="43.115" lon="-0.46803">
        <ele>369.6</ele>
        <time>2022-06-08 09:55:51</time>
      </trkpt>
      <trkpt lat="43.11496" lon="-0.46801">
        <ele>369.6</ele>
        <time>2022-06-08 09:55:52</time>
      </trkpt>
      <trkpt lat="43.11493" lon="-0.46799">
        <ele>370</ele>
        <time>2022-06-08 09:55:53</time>
      </trkpt>
      <trkpt lat="43.1149" lon="-0.46792">
        <ele>370</ele>
        <time>2022-06-08 09:55:54</time>
      </trkpt>
      <trkpt lat="43.11488" lon="-0.46786">
        <ele>370</ele>
        <time>2022-06-08 09:55:55</time>
      </trkpt>
      <trkpt lat="43.11487" lon="-0.46777">
        <ele>370.2</ele>
        <time>2022-06-08 09:55:56</time>
      </trkpt>
      <trkpt lat="43.11484" lon="-0.46769">
        <ele>370.2</ele>
        <time>2022-06-08 09:55:57</time>
      </trkpt>
      <trkpt lat="43.11482" lon="-0.46762">
        <ele>370.2</ele>
        <time>2022-06-08 09:55:58</time>
      </trkpt>
      <trkpt lat="43.11481" lon="-0.46753">
        <ele>370.2</ele>
        <time>2022-06-08 09:55:59</time>
      </trkpt>
      <trkpt lat="43.1148" lon="-0.46743">
        <ele>370.2</ele>
        <time>2022-06-08 09:56:00</time>
      </trkpt>
      <trkpt lat="43.11479" lon="-0.46731">
        <ele>370.4</ele>
        <time>2022-06-08 09:56:01</time>
      </trkpt>
      <trkpt lat="43.11479" lon="-0.46721">
        <ele>370.4</ele>
        <time>2022-06-08 09:56:02</time>
      </trkpt>
      <trkpt lat="43.11479" lon="-0.46713">
        <ele>370.4</ele>
        <time>2022-06-08 09:56:03</time>
      </trkpt>
      <trkpt lat="43.11478" lon="-0.46705">
        <ele>370.6</ele>
        <time>2022-06-08 09:56:04</time>
      </trkpt>
      <trkpt lat="43.11477" lon="-0.46697">
        <ele>370.6</ele>
        <time>2022-06-08 09:56:05</time>
      </trkpt>
      <trkpt lat="43.11475" lon="-0.46689">
        <ele>370.8</ele>
        <time>2022-06-08 09:56:06</time>
      </trkpt>
      <trkpt lat="43.11474" lon="-0.46682">
        <ele>370.8</ele>
        <time>2022-06-08 09:56:07</time>
      </trkpt>
      <trkpt lat="43.1147" lon="-0.46673">
        <ele>371.4</ele>
        <time>2022-06-08 09:56:08</time>
      </trkpt>
      <trkpt lat="43.11469" lon="-0.46666">
        <ele>371.2</ele>
        <time>2022-06-08 09:56:09</time>
      </trkpt>
      <trkpt lat="43.11465" lon="-0.46659">
        <ele>371.4</ele>
        <time>2022-06-08 09:56:10</time>
      </trkpt>
      <trkpt lat="43.11462" lon="-0.46651">
        <ele>371.4</ele>
        <time>2022-06-08 09:56:11</time>
      </trkpt>
      <trkpt lat="43.11459" lon="-0.46643">
        <ele>371.6</ele>
        <time>2022-06-08 09:56:12</time>
      </trkpt>
      <trkpt lat="43.11456" lon="-0.46634">
        <ele>371.6</ele>
        <time>2022-06-08 09:56:13</time>
      </trkpt>
      <trkpt lat="43.11454" lon="-0.46625">
        <ele>371.6</ele>
        <time>2022-06-08 09:56:14</time>
      </trkpt>
      <trkpt lat="43.11453" lon="-0.46613">
        <ele>371.6</ele>
        <time>2022-06-08 09:56:15</time>
      </trkpt>
      <trkpt lat="43.1145" lon="-0.46602">
        <ele>371.6</ele>
        <time>2022-06-08 09:56:16</time>
      </trkpt>
      <trkpt lat="43.11447" lon="-0.46593">
        <ele>371.6</ele>
        <time>2022-06-08 09:56:17</time>
      </trkpt>
      <trkpt lat="43.11446" lon="-0.46583">
        <ele>371.6</ele>
        <time>2022-06-08 09:56:18</time>
      </trkpt>
      <trkpt lat="43.11446" lon="-0.46572">
        <ele>371.8</ele>
        <time>2022-06-08 09:56:19</time>
      </trkpt>
      <trkpt lat="43.11449" lon="-0.46563">
        <ele>371.8</ele>
        <time>2022-06-08 09:56:20</time>
      </trkpt>
      <trkpt lat="43.11454" lon="-0.46557">
        <ele>371.8</ele>
        <time>2022-06-08 09:56:21</time>
      </trkpt>
      <trkpt lat="43.11459" lon="-0.46551">
        <ele>371.8</ele>
        <time>2022-06-08 09:56:22</time>
      </trkpt>
      <trkpt lat="43.11464" lon="-0.46546">
        <ele>371.8</ele>
        <time>2022-06-08 09:56:23</time>
      </trkpt>
      <trkpt lat="43.11469" lon="-0.46542">
        <ele>372</ele>
        <time>2022-06-08 09:56:24</time>
      </trkpt>
      <trkpt lat="43.11474" lon="-0.46538">
        <ele>372</ele>
        <time>2022-06-08 09:56:25</time>
      </trkpt>
      <trkpt lat="43.11478" lon="-0.46533">
        <ele>372.2</ele>
        <time>2022-06-08 09:56:26</time>
      </trkpt>
      <trkpt lat="43.11483" lon="-0.46529">
        <ele>372.4</ele>
        <time>2022-06-08 09:56:27</time>
      </trkpt>
      <trkpt lat="43.11488" lon="-0.46525">
        <ele>372.6</ele>
        <time>2022-06-08 09:56:28</time>
      </trkpt>
      <trkpt lat="43.11492" lon="-0.4652">
        <ele>372.8</ele>
        <time>2022-06-08 09:56:29</time>
      </trkpt>
      <trkpt lat="43.11496" lon="-0.46516">
        <ele>373</ele>
        <time>2022-06-08 09:56:30</time>
      </trkpt>
      <trkpt lat="43.11501" lon="-0.46512">
        <ele>373.4</ele>
        <time>2022-06-08 09:56:31</time>
      </trkpt>
      <trkpt lat="43.11505" lon="-0.46509">
        <ele>373.8</ele>
        <time>2022-06-08 09:56:32</time>
      </trkpt>
      <trkpt lat="43.11509" lon="-0.46505">
        <ele>374</ele>
        <time>2022-06-08 09:56:33</time>
      </trkpt>
      <trkpt lat="43.11514" lon="-0.46501">
        <ele>374.2</ele>
        <time>2022-06-08 09:56:34</time>
      </trkpt>
      <trkpt lat="43.11518" lon="-0.46497">
        <ele>374.4</ele>
        <time>2022-06-08 09:56:35</time>
      </trkpt>
      <trkpt lat="43.11522" lon="-0.46493">
        <ele>374.6</ele>
        <time>2022-06-08 09:56:36</time>
      </trkpt>
      <trkpt lat="43.11526" lon="-0.46489">
        <ele>374.8</ele>
        <time>2022-06-08 09:56:37</time>
      </trkpt>
      <trkpt lat="43.11531" lon="-0.46485">
        <ele>375.2</ele>
        <time>2022-06-08 09:56:38</time>
      </trkpt>
      <trkpt lat="43.11535" lon="-0.46481">
        <ele>375.2</ele>
        <time>2022-06-08 09:56:39</time>
      </trkpt>
      <trkpt lat="43.11539" lon="-0.46477">
        <ele>375.4</ele>
        <time>2022-06-08 09:56:40</time>
      </trkpt>
      <trkpt lat="43.11544" lon="-0.46473">
        <ele>375.6</ele>
        <time>2022-06-08 09:56:41</time>
      </trkpt>
      <trkpt lat="43.11548" lon="-0.46469">
        <ele>375.8</ele>
        <time>2022-06-08 09:56:42</time>
      </trkpt>
      <trkpt lat="43.11553" lon="-0.46464">
        <ele>375.8</ele>
        <time>2022-06-08 09:56:43</time>
      </trkpt>
      <trkpt lat="43.11557" lon="-0.46459">
        <ele>376</ele>
        <time>2022-06-08 09:56:44</time>
      </trkpt>
      <trkpt lat="43.11562" lon="-0.46454">
        <ele>376.2</ele>
        <time>2022-06-08 09:56:45</time>
      </trkpt>
      <trkpt lat="43.11565" lon="-0.4645">
        <ele>376.2</ele>
        <time>2022-06-08 09:56:46</time>
      </trkpt>
      <trkpt lat="43.11569" lon="-0.46444">
        <ele>376.4</ele>
        <time>2022-06-08 09:56:47</time>
      </trkpt>
      <trkpt lat="43.11572" lon="-0.46439">
        <ele>376.4</ele>
        <time>2022-06-08 09:56:48</time>
      </trkpt>
      <trkpt lat="43.11575" lon="-0.46433">
        <ele>376.6</ele>
        <time>2022-06-08 09:56:49</time>
      </trkpt>
      <trkpt lat="43.11578" lon="-0.46427">
        <ele>376.8</ele>
        <time>2022-06-08 09:56:50</time>
      </trkpt>
      <trkpt lat="43.1158" lon="-0.46421">
        <ele>376.8</ele>
        <time>2022-06-08 09:56:51</time>
      </trkpt>
      <trkpt lat="43.11582" lon="-0.46414">
        <ele>376.8</ele>
        <time>2022-06-08 09:56:52</time>
      </trkpt>
      <trkpt lat="43.11583" lon="-0.46407">
        <ele>377</ele>
        <time>2022-06-08 09:56:53</time>
      </trkpt>
      <trkpt lat="43.11584" lon="-0.46401">
        <ele>377.2</ele>
        <time>2022-06-08 09:56:54</time>
      </trkpt>
      <trkpt lat="43.11585" lon="-0.46394">
        <ele>377.6</ele>
        <time>2022-06-08 09:56:55</time>
      </trkpt>
      <trkpt lat="43.11585" lon="-0.46386">
        <ele>377.8</ele>
        <time>2022-06-08 09:56:56</time>
      </trkpt>
      <trkpt lat="43.11585" lon="-0.46379">
        <ele>378.2</ele>
        <time>2022-06-08 09:56:57</time>
      </trkpt>
      <trkpt lat="43.11585" lon="-0.46371">
        <ele>378.4</ele>
        <time>2022-06-08 09:56:58</time>
      </trkpt>
      <trkpt lat="43.11583" lon="-0.46364">
        <ele>378.4</ele>
        <time>2022-06-08 09:56:59</time>
      </trkpt>
      <trkpt lat="43.11582" lon="-0.46357">
        <ele>378.6</ele>
        <time>2022-06-08 09:57:00</time>
      </trkpt>
      <trkpt lat="43.1158" lon="-0.4635">
        <ele>378.8</ele>
        <time>2022-06-08 09:57:01</time>
      </trkpt>
      <trkpt lat="43.11578" lon="-0.46344">
        <ele>378.8</ele>
        <time>2022-06-08 09:57:02</time>
      </trkpt>
      <trkpt lat="43.11575" lon="-0.46338">
        <ele>379</ele>
        <time>2022-06-08 09:57:03</time>
      </trkpt>
      <trkpt lat="43.11572" lon="-0.46332">
        <ele>379.4</ele>
        <time>2022-06-08 09:57:04</time>
      </trkpt>
      <trkpt lat="43.11569" lon="-0.46327">
        <ele>379.6</ele>
        <time>2022-06-08 09:57:05</time>
      </trkpt>
      <trkpt lat="43.11565" lon="-0.46322">
        <ele>379.8</ele>
        <time>2022-06-08 09:57:06</time>
      </trkpt>
      <trkpt lat="43.11561" lon="-0.46318">
        <ele>380</ele>
        <time>2022-06-08 09:57:07</time>
      </trkpt>
      <trkpt lat="43.11557" lon="-0.46313">
        <ele>380</ele>
        <time>2022-06-08 09:57:08</time>
      </trkpt>
      <trkpt lat="43.11552" lon="-0.4631">
        <ele>380.2</ele>
        <time>2022-06-08 09:57:09</time>
      </trkpt>
      <trkpt lat="43.11547" lon="-0.46306">
        <ele>380.2</ele>
        <time>2022-06-08 09:57:10</time>
      </trkpt>
      <trkpt lat="43.11542" lon="-0.46303">
        <ele>380.2</ele>
        <time>2022-06-08 09:57:11</time>
      </trkpt>
      <trkpt lat="43.11537" lon="-0.463">
        <ele>380.4</ele>
        <time>2022-06-08 09:57:12</time>
      </trkpt>
      <trkpt lat="43.11532" lon="-0.46297">
        <ele>380.4</ele>
        <time>2022-06-08 09:57:13</time>
      </trkpt>
      <trkpt lat="43.11528" lon="-0.46293">
        <ele>380.4</ele>
        <time>2022-06-08 09:57:14</time>
      </trkpt>
      <trkpt lat="43.11523" lon="-0.4629">
        <ele>380.6</ele>
        <time>2022-06-08 09:57:15</time>
      </trkpt>
      <trkpt lat="43.11518" lon="-0.46286">
        <ele>380.8</ele>
        <time>2022-06-08 09:57:16</time>
      </trkpt>
      <trkpt lat="43.11513" lon="-0.46283">
        <ele>381</ele>
        <time>2022-06-08 09:57:17</time>
      </trkpt>
      <trkpt lat="43.11509" lon="-0.46279">
        <ele>381</ele>
        <time>2022-06-08 09:57:18</time>
      </trkpt>
      <trkpt lat="43.11504" lon="-0.46276">
        <ele>381.2</ele>
        <time>2022-06-08 09:57:19</time>
      </trkpt>
      <trkpt lat="43.115" lon="-0.46272">
        <ele>381.4</ele>
        <time>2022-06-08 09:57:20</time>
      </trkpt>
      <trkpt lat="43.11495" lon="-0.46268">
        <ele>381.8</ele>
        <time>2022-06-08 09:57:21</time>
      </trkpt>
      <trkpt lat="43.11491" lon="-0.46264">
        <ele>382</ele>
        <time>2022-06-08 09:57:22</time>
      </trkpt>
      <trkpt lat="43.11486" lon="-0.4626">
        <ele>382</ele>
        <time>2022-06-08 09:57:23</time>
      </trkpt>
      <trkpt lat="43.11482" lon="-0.46256">
        <ele>382.2</ele>
        <time>2022-06-08 09:57:24</time>
      </trkpt>
      <trkpt lat="43.11478" lon="-0.46252">
        <ele>382.4</ele>
        <time>2022-06-08 09:57:25</time>
      </trkpt>
      <trkpt lat="43.11473" lon="-0.46249">
        <ele>382.6</ele>
        <time>2022-06-08 09:57:26</time>
      </trkpt>
      <trkpt lat="43.11468" lon="-0.46245">
        <ele>382.8</ele>
        <time>2022-06-08 09:57:27</time>
      </trkpt>
      <trkpt lat="43.11464" lon="-0.46242">
        <ele>382.8</ele>
        <time>2022-06-08 09:57:28</time>
      </trkpt>
      <trkpt lat="43.11458" lon="-0.46239">
        <ele>382.8</ele>
        <time>2022-06-08 09:57:29</time>
      </trkpt>
      <trkpt lat="43.11453" lon="-0.46236">
        <ele>383</ele>
        <time>2022-06-08 09:57:30</time>
      </trkpt>
      <trkpt lat="43.11449" lon="-0.46233">
        <ele>383.2</ele>
        <time>2022-06-08 09:57:31</time>
      </trkpt>
      <trkpt lat="43.11444" lon="-0.4623">
        <ele>383.4</ele>
        <time>2022-06-08 09:57:32</time>
      </trkpt>
      <trkpt lat="43.11438" lon="-0.46227">
        <ele>383.4</ele>
        <time>2022-06-08 09:57:33</time>
      </trkpt>
      <trkpt lat="43.11433" lon="-0.46224">
        <ele>383.6</ele>
        <time>2022-06-08 09:57:34</time>
      </trkpt>
      <trkpt lat="43.11428" lon="-0.46222">
        <ele>383.6</ele>
        <time>2022-06-08 09:57:35</time>
      </trkpt>
      <trkpt lat="43.11423" lon="-0.46219">
        <ele>383.8</ele>
        <time>2022-06-08 09:57:36</time>
      </trkpt>
      <trkpt lat="43.11417" lon="-0.46216">
        <ele>384</ele>
        <time>2022-06-08 09:57:37</time>
      </trkpt>
      <trkpt lat="43.11412" lon="-0.46213">
        <ele>384.2</ele>
        <time>2022-06-08 09:57:38</time>
      </trkpt>
      <trkpt lat="43.11407" lon="-0.4621">
        <ele>384.4</ele>
        <time>2022-06-08 09:57:39</time>
      </trkpt>
      <trkpt lat="43.11402" lon="-0.46207">
        <ele>384.6</ele>
        <time>2022-06-08 09:57:40</time>
      </trkpt>
      <trkpt lat="43.11396" lon="-0.46204">
        <ele>384.6</ele>
        <time>2022-06-08 09:57:41</time>
      </trkpt>
      <trkpt lat="43.11391" lon="-0.46201">
        <ele>384.8</ele>
        <time>2022-06-08 09:57:42</time>
      </trkpt>
      <trkpt lat="43.11387" lon="-0.46197">
        <ele>385</ele>
        <time>2022-06-08 09:57:43</time>
      </trkpt>
      <trkpt lat="43.11383" lon="-0.46194">
        <ele>385.2</ele>
        <time>2022-06-08 09:57:44</time>
      </trkpt>
      <trkpt lat="43.11378" lon="-0.4619">
        <ele>385.4</ele>
        <time>2022-06-08 09:57:45</time>
      </trkpt>
      <trkpt lat="43.11374" lon="-0.46186">
        <ele>385.6</ele>
        <time>2022-06-08 09:57:46</time>
      </trkpt>
      <trkpt lat="43.1137" lon="-0.46182">
        <ele>386</ele>
        <time>2022-06-08 09:57:47</time>
      </trkpt>
      <trkpt lat="43.11366" lon="-0.46178">
        <ele>386</ele>
        <time>2022-06-08 09:57:48</time>
      </trkpt>
      <trkpt lat="43.11362" lon="-0.46174">
        <ele>386.4</ele>
        <time>2022-06-08 09:57:49</time>
      </trkpt>
      <trkpt lat="43.11359" lon="-0.4617">
        <ele>386.4</ele>
        <time>2022-06-08 09:57:50</time>
      </trkpt>
      <trkpt lat="43.11355" lon="-0.46165">
        <ele>386.8</ele>
        <time>2022-06-08 09:57:51</time>
      </trkpt>
      <trkpt lat="43.11352" lon="-0.46161">
        <ele>387.2</ele>
        <time>2022-06-08 09:57:52</time>
      </trkpt>
      <trkpt lat="43.11348" lon="-0.46157">
        <ele>387.6</ele>
        <time>2022-06-08 09:57:53</time>
      </trkpt>
      <trkpt lat="43.11345" lon="-0.46152">
        <ele>387.8</ele>
        <time>2022-06-08 09:57:54</time>
      </trkpt>
      <trkpt lat="43.11341" lon="-0.46147">
        <ele>388</ele>
        <time>2022-06-08 09:57:55</time>
      </trkpt>
      <trkpt lat="43.11338" lon="-0.46143">
        <ele>388.4</ele>
        <time>2022-06-08 09:57:56</time>
      </trkpt>
      <trkpt lat="43.11335" lon="-0.46137">
        <ele>388.6</ele>
        <time>2022-06-08 09:57:57</time>
      </trkpt>
      <trkpt lat="43.11333" lon="-0.46134">
        <ele>389.2</ele>
        <time>2022-06-08 09:57:58</time>
      </trkpt>
      <trkpt lat="43.11329" lon="-0.46128">
        <ele>389.4</ele>
        <time>2022-06-08 09:57:59</time>
      </trkpt>
      <trkpt lat="43.11327" lon="-0.46124">
        <ele>389.6</ele>
        <time>2022-06-08 09:58:00</time>
      </trkpt>
      <trkpt lat="43.11324" lon="-0.46119">
        <ele>389.8</ele>
        <time>2022-06-08 09:58:01</time>
      </trkpt>
      <trkpt lat="43.11323" lon="-0.46115">
        <ele>390</ele>
        <time>2022-06-08 09:58:02</time>
      </trkpt>
      <trkpt lat="43.11321" lon="-0.4611">
        <ele>390</ele>
        <time>2022-06-08 09:58:03</time>
      </trkpt>
      <trkpt lat="43.11318" lon="-0.46104">
        <ele>390.4</ele>
        <time>2022-06-08 09:58:04</time>
      </trkpt>
      <trkpt lat="43.11316" lon="-0.461">
        <ele>390.4</ele>
        <time>2022-06-08 09:58:05</time>
      </trkpt>
      <trkpt lat="43.11314" lon="-0.46095">
        <ele>390.6</ele>
        <time>2022-06-08 09:58:06</time>
      </trkpt>
      <trkpt lat="43.11311" lon="-0.46089">
        <ele>390.8</ele>
        <time>2022-06-08 09:58:07</time>
      </trkpt>
      <trkpt lat="43.11309" lon="-0.46084">
        <ele>391.4</ele>
        <time>2022-06-08 09:58:08</time>
      </trkpt>
      <trkpt lat="43.11306" lon="-0.46078">
        <ele>391.8</ele>
        <time>2022-06-08 09:58:09</time>
      </trkpt>
      <trkpt lat="43.11303" lon="-0.46072">
        <ele>392</ele>
        <time>2022-06-08 09:58:10</time>
      </trkpt>
      <trkpt lat="43.11301" lon="-0.46067">
        <ele>392.4</ele>
        <time>2022-06-08 09:58:11</time>
      </trkpt>
      <trkpt lat="43.11299" lon="-0.46063">
        <ele>392.6</ele>
        <time>2022-06-08 09:58:12</time>
      </trkpt>
      <trkpt lat="43.11296" lon="-0.46058">
        <ele>393</ele>
        <time>2022-06-08 09:58:13</time>
      </trkpt>
      <trkpt lat="43.11294" lon="-0.46052">
        <ele>393</ele>
        <time>2022-06-08 09:58:14</time>
      </trkpt>
      <trkpt lat="43.11291" lon="-0.46047">
        <ele>393.4</ele>
        <time>2022-06-08 09:58:15</time>
      </trkpt>
      <trkpt lat="43.1129" lon="-0.46042">
        <ele>393.4</ele>
        <time>2022-06-08 09:58:16</time>
      </trkpt>
      <trkpt lat="43.11287" lon="-0.46037">
        <ele>393.6</ele>
        <time>2022-06-08 09:58:17</time>
      </trkpt>
      <trkpt lat="43.11284" lon="-0.46032">
        <ele>393.8</ele>
        <time>2022-06-08 09:58:18</time>
      </trkpt>
      <trkpt lat="43.11282" lon="-0.46027">
        <ele>394</ele>
        <time>2022-06-08 09:58:19</time>
      </trkpt>
      <trkpt lat="43.11279" lon="-0.4602">
        <ele>394.4</ele>
        <time>2022-06-08 09:58:20</time>
      </trkpt>
      <trkpt lat="43.11277" lon="-0.46016">
        <ele>394.8</ele>
        <time>2022-06-08 09:58:21</time>
      </trkpt>
      <trkpt lat="43.11274" lon="-0.46011">
        <ele>395</ele>
        <time>2022-06-08 09:58:22</time>
      </trkpt>
      <trkpt lat="43.11271" lon="-0.46004">
        <ele>395.4</ele>
        <time>2022-06-08 09:58:23</time>
      </trkpt>
      <trkpt lat="43.11269" lon="-0.46">
        <ele>395.8</ele>
        <time>2022-06-08 09:58:24</time>
      </trkpt>
      <trkpt lat="43.11265" lon="-0.45995">
        <ele>396.2</ele>
        <time>2022-06-08 09:58:25</time>
      </trkpt>
      <trkpt lat="43.11262" lon="-0.45989">
        <ele>396.6</ele>
        <time>2022-06-08 09:58:26</time>
      </trkpt>
      <trkpt lat="43.11259" lon="-0.45984">
        <ele>396.6</ele>
        <time>2022-06-08 09:58:27</time>
      </trkpt>
      <trkpt lat="43.11256" lon="-0.45979">
        <ele>397</ele>
        <time>2022-06-08 09:58:28</time>
      </trkpt>
      <trkpt lat="43.11253" lon="-0.45973">
        <ele>397</ele>
        <time>2022-06-08 09:58:29</time>
      </trkpt>
      <trkpt lat="43.1125" lon="-0.45967">
        <ele>397.2</ele>
        <time>2022-06-08 09:58:30</time>
      </trkpt>
      <trkpt lat="43.11247" lon="-0.45963">
        <ele>397.4</ele>
        <time>2022-06-08 09:58:31</time>
      </trkpt>
      <trkpt lat="43.11244" lon="-0.45958">
        <ele>397.8</ele>
        <time>2022-06-08 09:58:32</time>
      </trkpt>
      <trkpt lat="43.11241" lon="-0.45951">
        <ele>397.8</ele>
        <time>2022-06-08 09:58:33</time>
      </trkpt>
      <trkpt lat="43.11239" lon="-0.45947">
        <ele>398</ele>
        <time>2022-06-08 09:58:34</time>
      </trkpt>
      <trkpt lat="43.11235" lon="-0.45941">
        <ele>398</ele>
        <time>2022-06-08 09:58:35</time>
      </trkpt>
      <trkpt lat="43.11233" lon="-0.45936">
        <ele>398.2</ele>
        <time>2022-06-08 09:58:36</time>
      </trkpt>
      <trkpt lat="43.1123" lon="-0.4593">
        <ele>398.4</ele>
        <time>2022-06-08 09:58:37</time>
      </trkpt>
      <trkpt lat="43.11226" lon="-0.45923">
        <ele>398.6</ele>
        <time>2022-06-08 09:58:38</time>
      </trkpt>
      <trkpt lat="43.11223" lon="-0.45917">
        <ele>398.6</ele>
        <time>2022-06-08 09:58:39</time>
      </trkpt>
      <trkpt lat="43.11219" lon="-0.45911">
        <ele>398.6</ele>
        <time>2022-06-08 09:58:40</time>
      </trkpt>
      <trkpt lat="43.11217" lon="-0.45906">
        <ele>398.6</ele>
        <time>2022-06-08 09:58:41</time>
      </trkpt>
      <trkpt lat="43.11213" lon="-0.459">
        <ele>398.8</ele>
        <time>2022-06-08 09:58:42</time>
      </trkpt>
      <trkpt lat="43.11208" lon="-0.45892">
        <ele>398.6</ele>
        <time>2022-06-08 09:58:43</time>
      </trkpt>
      <trkpt lat="43.11204" lon="-0.45888">
        <ele>398.6</ele>
        <time>2022-06-08 09:58:44</time>
      </trkpt>
      <trkpt lat="43.11198" lon="-0.45881">
        <ele>398.4</ele>
        <time>2022-06-08 09:58:45</time>
      </trkpt>
      <trkpt lat="43.11194" lon="-0.45876">
        <ele>398.4</ele>
        <time>2022-06-08 09:58:46</time>
      </trkpt>
      <trkpt lat="43.11189" lon="-0.45871">
        <ele>398.4</ele>
        <time>2022-06-08 09:58:47</time>
      </trkpt>
      <trkpt lat="43.11184" lon="-0.45867">
        <ele>398.4</ele>
        <time>2022-06-08 09:58:48</time>
      </trkpt>
      <trkpt lat="43.11177" lon="-0.45864">
        <ele>398</ele>
        <time>2022-06-08 09:58:49</time>
      </trkpt>
      <trkpt lat="43.1117" lon="-0.4586">
        <ele>397.8</ele>
        <time>2022-06-08 09:58:50</time>
      </trkpt>
      <trkpt lat="43.11164" lon="-0.45858">
        <ele>397.6</ele>
        <time>2022-06-08 09:58:51</time>
      </trkpt>
      <trkpt lat="43.11157" lon="-0.45855">
        <ele>397.4</ele>
        <time>2022-06-08 09:58:52</time>
      </trkpt>
      <trkpt lat="43.1115" lon="-0.45852">
        <ele>397.4</ele>
        <time>2022-06-08 09:58:53</time>
      </trkpt>
      <trkpt lat="43.11142" lon="-0.4585">
        <ele>397</ele>
        <time>2022-06-08 09:58:54</time>
      </trkpt>
      <trkpt lat="43.11134" lon="-0.45848">
        <ele>397</ele>
        <time>2022-06-08 09:58:55</time>
      </trkpt>
      <trkpt lat="43.11134" lon="-0.45848">
        <ele>396.8</ele>
        <time>2022-06-08 09:58:56</time>
      </trkpt>
      <trkpt lat="43.11119" lon="-0.4584">
        <ele>396.8</ele>
        <time>2022-06-08 09:58:57</time>
      </trkpt>
      <trkpt lat="43.11112" lon="-0.45833">
        <ele>396.6</ele>
        <time>2022-06-08 09:58:58</time>
      </trkpt>
      <trkpt lat="43.11106" lon="-0.45826">
        <ele>396.4</ele>
        <time>2022-06-08 09:58:59</time>
      </trkpt>
      <trkpt lat="43.11099" lon="-0.45818">
        <ele>396.2</ele>
        <time>2022-06-08 09:59:00</time>
      </trkpt>
      <trkpt lat="43.11092" lon="-0.45809">
        <ele>396</ele>
        <time>2022-06-08 09:59:01</time>
      </trkpt>
      <trkpt lat="43.11087" lon="-0.45802">
        <ele>395.8</ele>
        <time>2022-06-08 09:59:02</time>
      </trkpt>
      <trkpt lat="43.1108" lon="-0.45793">
        <ele>395.4</ele>
        <time>2022-06-08 09:59:03</time>
      </trkpt>
      <trkpt lat="43.11071" lon="-0.45785">
        <ele>394.8</ele>
        <time>2022-06-08 09:59:04</time>
      </trkpt>
      <trkpt lat="43.11064" lon="-0.45779">
        <ele>394.6</ele>
        <time>2022-06-08 09:59:05</time>
      </trkpt>
      <trkpt lat="43.11057" lon="-0.45775">
        <ele>394</ele>
        <time>2022-06-08 09:59:06</time>
      </trkpt>
      <trkpt lat="43.11051" lon="-0.45767">
        <ele>393.6</ele>
        <time>2022-06-08 09:59:07</time>
      </trkpt>
      <trkpt lat="43.11046" lon="-0.45757">
        <ele>393.4</ele>
        <time>2022-06-08 09:59:08</time>
      </trkpt>
      <trkpt lat="43.11044" lon="-0.45749">
        <ele>393.2</ele>
        <time>2022-06-08 09:59:09</time>
      </trkpt>
      <trkpt lat="43.11042" lon="-0.45739">
        <ele>393</ele>
        <time>2022-06-08 09:59:10</time>
      </trkpt>
      <trkpt lat="43.11041" lon="-0.45727">
        <ele>393</ele>
        <time>2022-06-08 09:59:11</time>
      </trkpt>
      <trkpt lat="43.11042" lon="-0.45714">
        <ele>393</ele>
        <time>2022-06-08 09:59:12</time>
      </trkpt>
      <trkpt lat="43.11042" lon="-0.45701">
        <ele>393</ele>
        <time>2022-06-08 09:59:13</time>
      </trkpt>
      <trkpt lat="43.11041" lon="-0.45689">
        <ele>392.8</ele>
        <time>2022-06-08 09:59:14</time>
      </trkpt>
      <trkpt lat="43.11038" lon="-0.45675">
        <ele>392.8</ele>
        <time>2022-06-08 09:59:15</time>
      </trkpt>
      <trkpt lat="43.11035" lon="-0.45667">
        <ele>392.8</ele>
        <time>2022-06-08 09:59:16</time>
      </trkpt>
      <trkpt lat="43.1103" lon="-0.45656">
        <ele>392.8</ele>
        <time>2022-06-08 09:59:17</time>
      </trkpt>
      <trkpt lat="43.11024" lon="-0.45645">
        <ele>392.8</ele>
        <time>2022-06-08 09:59:18</time>
      </trkpt>
      <trkpt lat="43.1102" lon="-0.45636">
        <ele>392.6</ele>
        <time>2022-06-08 09:59:19</time>
      </trkpt>
      <trkpt lat="43.11016" lon="-0.45626">
        <ele>392.6</ele>
        <time>2022-06-08 09:59:20</time>
      </trkpt>
      <trkpt lat="43.11011" lon="-0.45615">
        <ele>392.6</ele>
        <time>2022-06-08 09:59:21</time>
      </trkpt>
      <trkpt lat="43.11007" lon="-0.45604">
        <ele>392.6</ele>
        <time>2022-06-08 09:59:22</time>
      </trkpt>
      <trkpt lat="43.11002" lon="-0.45594">
        <ele>392.6</ele>
        <time>2022-06-08 09:59:23</time>
      </trkpt>
      <trkpt lat="43.10998" lon="-0.45584">
        <ele>392.4</ele>
        <time>2022-06-08 09:59:24</time>
      </trkpt>
      <trkpt lat="43.10994" lon="-0.45574">
        <ele>392.2</ele>
        <time>2022-06-08 09:59:25</time>
      </trkpt>
      <trkpt lat="43.1099" lon="-0.45563">
        <ele>391.6</ele>
        <time>2022-06-08 09:59:26</time>
      </trkpt>
      <trkpt lat="43.10986" lon="-0.45551">
        <ele>391.4</ele>
        <time>2022-06-08 09:59:27</time>
      </trkpt>
      <trkpt lat="43.10981" lon="-0.4554">
        <ele>391</ele>
        <time>2022-06-08 09:59:28</time>
      </trkpt>
      <trkpt lat="43.10977" lon="-0.45529">
        <ele>391</ele>
        <time>2022-06-08 09:59:29</time>
      </trkpt>
      <trkpt lat="43.10973" lon="-0.45518">
        <ele>390.8</ele>
        <time>2022-06-08 09:59:30</time>
      </trkpt>
      <trkpt lat="43.10969" lon="-0.45508">
        <ele>390.6</ele>
        <time>2022-06-08 09:59:31</time>
      </trkpt>
      <trkpt lat="43.10967" lon="-0.45497">
        <ele>390.6</ele>
        <time>2022-06-08 09:59:32</time>
      </trkpt>
      <trkpt lat="43.10965" lon="-0.45485">
        <ele>390.4</ele>
        <time>2022-06-08 09:59:33</time>
      </trkpt>
      <trkpt lat="43.10965" lon="-0.45473">
        <ele>390.2</ele>
        <time>2022-06-08 09:59:34</time>
      </trkpt>
      <trkpt lat="43.10965" lon="-0.45461">
        <ele>390</ele>
        <time>2022-06-08 09:59:35</time>
      </trkpt>
      <trkpt lat="43.10967" lon="-0.4545">
        <ele>390</ele>
        <time>2022-06-08 09:59:36</time>
      </trkpt>
      <trkpt lat="43.10969" lon="-0.45439">
        <ele>389.8</ele>
        <time>2022-06-08 09:59:37</time>
      </trkpt>
      <trkpt lat="43.10972" lon="-0.45429">
        <ele>389.8</ele>
        <time>2022-06-08 09:59:38</time>
      </trkpt>
      <trkpt lat="43.10975" lon="-0.45419">
        <ele>390</ele>
        <time>2022-06-08 09:59:39</time>
      </trkpt>
      <trkpt lat="43.10979" lon="-0.4541">
        <ele>390</ele>
        <time>2022-06-08 09:59:40</time>
      </trkpt>
      <trkpt lat="43.10982" lon="-0.45402">
        <ele>390</ele>
        <time>2022-06-08 09:59:41</time>
      </trkpt>
      <trkpt lat="43.10985" lon="-0.45394">
        <ele>390</ele>
        <time>2022-06-08 09:59:42</time>
      </trkpt>
      <trkpt lat="43.10988" lon="-0.45386">
        <ele>390.2</ele>
        <time>2022-06-08 09:59:43</time>
      </trkpt>
      <trkpt lat="43.10991" lon="-0.45379">
        <ele>390.4</ele>
        <time>2022-06-08 09:59:44</time>
      </trkpt>
      <trkpt lat="43.10993" lon="-0.45372">
        <ele>390.6</ele>
        <time>2022-06-08 09:59:45</time>
      </trkpt>
      <trkpt lat="43.10996" lon="-0.45365">
        <ele>390.8</ele>
        <time>2022-06-08 09:59:46</time>
      </trkpt>
      <trkpt lat="43.10998" lon="-0.45357">
        <ele>391.2</ele>
        <time>2022-06-08 09:59:47</time>
      </trkpt>
      <trkpt lat="43.10999" lon="-0.4535">
        <ele>391.8</ele>
        <time>2022-06-08 09:59:48</time>
      </trkpt>
      <trkpt lat="43.11" lon="-0.45343">
        <ele>392.2</ele>
        <time>2022-06-08 09:59:49</time>
      </trkpt>
      <trkpt lat="43.11001" lon="-0.45335">
        <ele>392.8</ele>
        <time>2022-06-08 09:59:50</time>
      </trkpt>
      <trkpt lat="43.11002" lon="-0.45328">
        <ele>393</ele>
        <time>2022-06-08 09:59:51</time>
      </trkpt>
      <trkpt lat="43.11002" lon="-0.45321">
        <ele>393.6</ele>
        <time>2022-06-08 09:59:52</time>
      </trkpt>
      <trkpt lat="43.11002" lon="-0.45315">
        <ele>393.8</ele>
        <time>2022-06-08 09:59:53</time>
      </trkpt>
      <trkpt lat="43.11001" lon="-0.45308">
        <ele>394.2</ele>
        <time>2022-06-08 09:59:54</time>
      </trkpt>
      <trkpt lat="43.11" lon="-0.45301">
        <ele>394.2</ele>
        <time>2022-06-08 09:59:55</time>
      </trkpt>
      <trkpt lat="43.10999" lon="-0.45296">
        <ele>394.6</ele>
        <time>2022-06-08 09:59:56</time>
      </trkpt>
      <trkpt lat="43.10997" lon="-0.4529">
        <ele>395</ele>
        <time>2022-06-08 09:59:57</time>
      </trkpt>
      <trkpt lat="43.10995" lon="-0.45284">
        <ele>395.4</ele>
        <time>2022-06-08 09:59:58</time>
      </trkpt>
      <trkpt lat="43.10993" lon="-0.45278">
        <ele>395.4</ele>
        <time>2022-06-08 09:59:59</time>
      </trkpt>
      <trkpt lat="43.10993" lon="-0.45278">
        <ele>396</ele>
        <time>2022-06-08 10:00:00</time>
      </trkpt>
      <trkpt lat="43.10989" lon="-0.45267">
        <ele>396</ele>
        <time>2022-06-08 10:00:01</time>
      </trkpt>
      <trkpt lat="43.10986" lon="-0.45262">
        <ele>396.6</ele>
        <time>2022-06-08 10:00:02</time>
      </trkpt>
      <trkpt lat="43.10984" lon="-0.45256">
        <ele>397.2</ele>
        <time>2022-06-08 10:00:03</time>
      </trkpt>
      <trkpt lat="43.10982" lon="-0.4525">
        <ele>397.4</ele>
        <time>2022-06-08 10:00:04</time>
      </trkpt>
      <trkpt lat="43.1098" lon="-0.45244">
        <ele>397.8</ele>
        <time>2022-06-08 10:00:05</time>
      </trkpt>
      <trkpt lat="43.10979" lon="-0.45238">
        <ele>398</ele>
        <time>2022-06-08 10:00:06</time>
      </trkpt>
      <trkpt lat="43.10978" lon="-0.45232">
        <ele>398.2</ele>
        <time>2022-06-08 10:00:07</time>
      </trkpt>
      <trkpt lat="43.10978" lon="-0.45226">
        <ele>398.4</ele>
        <time>2022-06-08 10:00:08</time>
      </trkpt>
      <trkpt lat="43.10978" lon="-0.4522">
        <ele>398.8</ele>
        <time>2022-06-08 10:00:09</time>
      </trkpt>
      <trkpt lat="43.10978" lon="-0.45214">
        <ele>398.8</ele>
        <time>2022-06-08 10:00:10</time>
      </trkpt>
      <trkpt lat="43.10979" lon="-0.45207">
        <ele>399.2</ele>
        <time>2022-06-08 10:00:11</time>
      </trkpt>
      <trkpt lat="43.1098" lon="-0.45201">
        <ele>399.2</ele>
        <time>2022-06-08 10:00:12</time>
      </trkpt>
      <trkpt lat="43.10981" lon="-0.45194">
        <ele>399.6</ele>
        <time>2022-06-08 10:00:13</time>
      </trkpt>
      <trkpt lat="43.10982" lon="-0.45188">
        <ele>399.8</ele>
        <time>2022-06-08 10:00:14</time>
      </trkpt>
      <trkpt lat="43.10984" lon="-0.45182">
        <ele>400.2</ele>
        <time>2022-06-08 10:00:15</time>
      </trkpt>
      <trkpt lat="43.10985" lon="-0.45176">
        <ele>400.4</ele>
        <time>2022-06-08 10:00:16</time>
      </trkpt>
      <trkpt lat="43.10985" lon="-0.4517">
        <ele>400.4</ele>
        <time>2022-06-08 10:00:17</time>
      </trkpt>
      <trkpt lat="43.10986" lon="-0.45164">
        <ele>400.8</ele>
        <time>2022-06-08 10:00:18</time>
      </trkpt>
      <trkpt lat="43.10987" lon="-0.45158">
        <ele>401</ele>
        <time>2022-06-08 10:00:19</time>
      </trkpt>
      <trkpt lat="43.10987" lon="-0.45152">
        <ele>401.2</ele>
        <time>2022-06-08 10:00:20</time>
      </trkpt>
      <trkpt lat="43.10987" lon="-0.45146">
        <ele>401.4</ele>
        <time>2022-06-08 10:00:21</time>
      </trkpt>
      <trkpt lat="43.10987" lon="-0.4514">
        <ele>401.8</ele>
        <time>2022-06-08 10:00:22</time>
      </trkpt>
      <trkpt lat="43.10987" lon="-0.45134">
        <ele>401.6</ele>
        <time>2022-06-08 10:00:23</time>
      </trkpt>
      <trkpt lat="43.10987" lon="-0.45127">
        <ele>402</ele>
        <time>2022-06-08 10:00:24</time>
      </trkpt>
      <trkpt lat="43.10986" lon="-0.45121">
        <ele>402.2</ele>
        <time>2022-06-08 10:00:25</time>
      </trkpt>
      <trkpt lat="43.10986" lon="-0.45114">
        <ele>402.6</ele>
        <time>2022-06-08 10:00:26</time>
      </trkpt>
      <trkpt lat="43.10986" lon="-0.45108">
        <ele>402.6</ele>
        <time>2022-06-08 10:00:27</time>
      </trkpt>
      <trkpt lat="43.10985" lon="-0.45103">
        <ele>403</ele>
        <time>2022-06-08 10:00:28</time>
      </trkpt>
      <trkpt lat="43.10985" lon="-0.45097">
        <ele>403.2</ele>
        <time>2022-06-08 10:00:29</time>
      </trkpt>
      <trkpt lat="43.10984" lon="-0.45091">
        <ele>403.4</ele>
        <time>2022-06-08 10:00:30</time>
      </trkpt>
      <trkpt lat="43.10983" lon="-0.45085">
        <ele>403.8</ele>
        <time>2022-06-08 10:00:31</time>
      </trkpt>
      <trkpt lat="43.10982" lon="-0.4508">
        <ele>404.2</ele>
        <time>2022-06-08 10:00:32</time>
      </trkpt>
      <trkpt lat="43.10981" lon="-0.45074">
        <ele>404.6</ele>
        <time>2022-06-08 10:00:33</time>
      </trkpt>
      <trkpt lat="43.10981" lon="-0.45068">
        <ele>404.6</ele>
        <time>2022-06-08 10:00:34</time>
      </trkpt>
      <trkpt lat="43.1098" lon="-0.45062">
        <ele>405</ele>
        <time>2022-06-08 10:00:35</time>
      </trkpt>
      <trkpt lat="43.10979" lon="-0.45057">
        <ele>405.2</ele>
        <time>2022-06-08 10:00:36</time>
      </trkpt>
      <trkpt lat="43.10979" lon="-0.45051">
        <ele>405.4</ele>
        <time>2022-06-08 10:00:37</time>
      </trkpt>
      <trkpt lat="43.10978" lon="-0.45045">
        <ele>405.6</ele>
        <time>2022-06-08 10:00:38</time>
      </trkpt>
      <trkpt lat="43.10977" lon="-0.45039">
        <ele>405.8</ele>
        <time>2022-06-08 10:00:39</time>
      </trkpt>
      <trkpt lat="43.10977" lon="-0.45034">
        <ele>405.8</ele>
        <time>2022-06-08 10:00:40</time>
      </trkpt>
      <trkpt lat="43.10978" lon="-0.45028">
        <ele>406.2</ele>
        <time>2022-06-08 10:00:41</time>
      </trkpt>
      <trkpt lat="43.10978" lon="-0.45022">
        <ele>406.6</ele>
        <time>2022-06-08 10:00:42</time>
      </trkpt>
      <trkpt lat="43.10979" lon="-0.45015">
        <ele>407</ele>
        <time>2022-06-08 10:00:43</time>
      </trkpt>
      <trkpt lat="43.10979" lon="-0.45009">
        <ele>407</ele>
        <time>2022-06-08 10:00:44</time>
      </trkpt>
      <trkpt lat="43.1098" lon="-0.45002">
        <ele>407.2</ele>
        <time>2022-06-08 10:00:45</time>
      </trkpt>
      <trkpt lat="43.1098" lon="-0.44994">
        <ele>407.2</ele>
        <time>2022-06-08 10:00:46</time>
      </trkpt>
      <trkpt lat="43.1098" lon="-0.44987">
        <ele>407.2</ele>
        <time>2022-06-08 10:00:47</time>
      </trkpt>
      <trkpt lat="43.1098" lon="-0.4498">
        <ele>407.4</ele>
        <time>2022-06-08 10:00:48</time>
      </trkpt>
      <trkpt lat="43.10978" lon="-0.44973">
        <ele>407.4</ele>
        <time>2022-06-08 10:00:49</time>
      </trkpt>
      <trkpt lat="43.10975" lon="-0.44967">
        <ele>407.4</ele>
        <time>2022-06-08 10:00:50</time>
      </trkpt>
      <trkpt lat="43.10973" lon="-0.44961">
        <ele>407.4</ele>
        <time>2022-06-08 10:00:51</time>
      </trkpt>
      <trkpt lat="43.1097" lon="-0.44956">
        <ele>407.2</ele>
        <time>2022-06-08 10:00:52</time>
      </trkpt>
      <trkpt lat="43.10966" lon="-0.44949">
        <ele>407.2</ele>
        <time>2022-06-08 10:00:53</time>
      </trkpt>
      <trkpt lat="43.1096" lon="-0.44942">
        <ele>407</ele>
        <time>2022-06-08 10:00:54</time>
      </trkpt>
      <trkpt lat="43.10955" lon="-0.44934">
        <ele>406.8</ele>
        <time>2022-06-08 10:00:55</time>
      </trkpt>
      <trkpt lat="43.1095" lon="-0.44928">
        <ele>406.2</ele>
        <time>2022-06-08 10:00:56</time>
      </trkpt>
      <trkpt lat="43.10944" lon="-0.44922">
        <ele>406.2</ele>
        <time>2022-06-08 10:00:57</time>
      </trkpt>
      <trkpt lat="43.10937" lon="-0.44916">
        <ele>405.8</ele>
        <time>2022-06-08 10:00:58</time>
      </trkpt>
      <trkpt lat="43.10928" lon="-0.4491">
        <ele>405.4</ele>
        <time>2022-06-08 10:00:59</time>
      </trkpt>
      <trkpt lat="43.10921" lon="-0.44904">
        <ele>405.2</ele>
        <time>2022-06-08 10:01:00</time>
      </trkpt>
      <trkpt lat="43.10913" lon="-0.44899">
        <ele>404.8</ele>
        <time>2022-06-08 10:01:01</time>
      </trkpt>
      <trkpt lat="43.10905" lon="-0.44893">
        <ele>404.6</ele>
        <time>2022-06-08 10:01:02</time>
      </trkpt>
      <trkpt lat="43.10897" lon="-0.44887">
        <ele>404.4</ele>
        <time>2022-06-08 10:01:03</time>
      </trkpt>
      <trkpt lat="43.1089" lon="-0.4488">
        <ele>404.2</ele>
        <time>2022-06-08 10:01:04</time>
      </trkpt>
      <trkpt lat="43.10882" lon="-0.44874">
        <ele>403.4</ele>
        <time>2022-06-08 10:01:05</time>
      </trkpt>
      <trkpt lat="43.10873" lon="-0.44868">
        <ele>402.8</ele>
        <time>2022-06-08 10:01:06</time>
      </trkpt>
      <trkpt lat="43.10865" lon="-0.44861">
        <ele>402</ele>
        <time>2022-06-08 10:01:07</time>
      </trkpt>
      <trkpt lat="43.10856" lon="-0.44855">
        <ele>401.8</ele>
        <time>2022-06-08 10:01:08</time>
      </trkpt>
      <trkpt lat="43.10849" lon="-0.44848">
        <ele>400.8</ele>
        <time>2022-06-08 10:01:09</time>
      </trkpt>
      <trkpt lat="43.10841" lon="-0.4484">
        <ele>400.4</ele>
        <time>2022-06-08 10:01:10</time>
      </trkpt>
      <trkpt lat="43.10834" lon="-0.44832">
        <ele>400</ele>
        <time>2022-06-08 10:01:11</time>
      </trkpt>
      <trkpt lat="43.10828" lon="-0.44823">
        <ele>399.8</ele>
        <time>2022-06-08 10:01:12</time>
      </trkpt>
      <trkpt lat="43.10822" lon="-0.44813">
        <ele>399.4</ele>
        <time>2022-06-08 10:01:13</time>
      </trkpt>
      <trkpt lat="43.10817" lon="-0.44803">
        <ele>399</ele>
        <time>2022-06-08 10:01:14</time>
      </trkpt>
      <trkpt lat="43.10813" lon="-0.44794">
        <ele>398.6</ele>
        <time>2022-06-08 10:01:15</time>
      </trkpt>
      <trkpt lat="43.10809" lon="-0.44783">
        <ele>398.4</ele>
        <time>2022-06-08 10:01:16</time>
      </trkpt>
      <trkpt lat="43.10805" lon="-0.44771">
        <ele>398.4</ele>
        <time>2022-06-08 10:01:17</time>
      </trkpt>
      <trkpt lat="43.10802" lon="-0.44759">
        <ele>398.2</ele>
        <time>2022-06-08 10:01:18</time>
      </trkpt>
      <trkpt lat="43.10799" lon="-0.44747">
        <ele>398.2</ele>
        <time>2022-06-08 10:01:19</time>
      </trkpt>
      <trkpt lat="43.10797" lon="-0.44735">
        <ele>398</ele>
        <time>2022-06-08 10:01:20</time>
      </trkpt>
      <trkpt lat="43.10795" lon="-0.44721">
        <ele>397.8</ele>
        <time>2022-06-08 10:01:21</time>
      </trkpt>
      <trkpt lat="43.10794" lon="-0.44711">
        <ele>397.6</ele>
        <time>2022-06-08 10:01:22</time>
      </trkpt>
      <trkpt lat="43.10792" lon="-0.447">
        <ele>397.4</ele>
        <time>2022-06-08 10:01:23</time>
      </trkpt>
      <trkpt lat="43.1079" lon="-0.44688">
        <ele>397.2</ele>
        <time>2022-06-08 10:01:24</time>
      </trkpt>
      <trkpt lat="43.10788" lon="-0.44676">
        <ele>397</ele>
        <time>2022-06-08 10:01:25</time>
      </trkpt>
      <trkpt lat="43.10785" lon="-0.44662">
        <ele>397</ele>
        <time>2022-06-08 10:01:26</time>
      </trkpt>
      <trkpt lat="43.10783" lon="-0.44653">
        <ele>397</ele>
        <time>2022-06-08 10:01:27</time>
      </trkpt>
      <trkpt lat="43.10781" lon="-0.44642">
        <ele>397</ele>
        <time>2022-06-08 10:01:28</time>
      </trkpt>
      <trkpt lat="43.10778" lon="-0.44631">
        <ele>397</ele>
        <time>2022-06-08 10:01:29</time>
      </trkpt>
      <trkpt lat="43.10776" lon="-0.4462">
        <ele>396.8</ele>
        <time>2022-06-08 10:01:30</time>
      </trkpt>
      <trkpt lat="43.10773" lon="-0.44609">
        <ele>396.8</ele>
        <time>2022-06-08 10:01:31</time>
      </trkpt>
      <trkpt lat="43.10771" lon="-0.44598">
        <ele>396.8</ele>
        <time>2022-06-08 10:01:32</time>
      </trkpt>
      <trkpt lat="43.1077" lon="-0.44586">
        <ele>396.6</ele>
        <time>2022-06-08 10:01:33</time>
      </trkpt>
      <trkpt lat="43.10769" lon="-0.44575">
        <ele>396.4</ele>
        <time>2022-06-08 10:01:34</time>
      </trkpt>
      <trkpt lat="43.10768" lon="-0.44564">
        <ele>396.2</ele>
        <time>2022-06-08 10:01:35</time>
      </trkpt>
      <trkpt lat="43.10768" lon="-0.44551">
        <ele>396.2</ele>
        <time>2022-06-08 10:01:36</time>
      </trkpt>
      <trkpt lat="43.10769" lon="-0.44542">
        <ele>396.2</ele>
        <time>2022-06-08 10:01:37</time>
      </trkpt>
      <trkpt lat="43.1077" lon="-0.44531">
        <ele>396.2</ele>
        <time>2022-06-08 10:01:38</time>
      </trkpt>
      <trkpt lat="43.10772" lon="-0.4452">
        <ele>396.2</ele>
        <time>2022-06-08 10:01:39</time>
      </trkpt>
      <trkpt lat="43.10773" lon="-0.44509">
        <ele>396</ele>
        <time>2022-06-08 10:01:40</time>
      </trkpt>
      <trkpt lat="43.10774" lon="-0.44498">
        <ele>395.8</ele>
        <time>2022-06-08 10:01:41</time>
      </trkpt>
      <trkpt lat="43.10774" lon="-0.44487">
        <ele>395.6</ele>
        <time>2022-06-08 10:01:42</time>
      </trkpt>
      <trkpt lat="43.10774" lon="-0.44475">
        <ele>395.6</ele>
        <time>2022-06-08 10:01:43</time>
      </trkpt>
      <trkpt lat="43.10773" lon="-0.44463">
        <ele>395.6</ele>
        <time>2022-06-08 10:01:44</time>
      </trkpt>
      <trkpt lat="43.10772" lon="-0.44452">
        <ele>395.4</ele>
        <time>2022-06-08 10:01:45</time>
      </trkpt>
      <trkpt lat="43.10771" lon="-0.4444">
        <ele>395.4</ele>
        <time>2022-06-08 10:01:46</time>
      </trkpt>
      <trkpt lat="43.10769" lon="-0.44428">
        <ele>395.2</ele>
        <time>2022-06-08 10:01:47</time>
      </trkpt>
      <trkpt lat="43.10767" lon="-0.44416">
        <ele>394.6</ele>
        <time>2022-06-08 10:01:48</time>
      </trkpt>
      <trkpt lat="43.10764" lon="-0.44404">
        <ele>394.4</ele>
        <time>2022-06-08 10:01:49</time>
      </trkpt>
      <trkpt lat="43.1076" lon="-0.44392">
        <ele>393.8</ele>
        <time>2022-06-08 10:01:50</time>
      </trkpt>
      <trkpt lat="43.10756" lon="-0.44381">
        <ele>393.6</ele>
        <time>2022-06-08 10:01:51</time>
      </trkpt>
      <trkpt lat="43.10751" lon="-0.4437">
        <ele>393.2</ele>
        <time>2022-06-08 10:01:52</time>
      </trkpt>
      <trkpt lat="43.10745" lon="-0.4436">
        <ele>392.8</ele>
        <time>2022-06-08 10:01:53</time>
      </trkpt>
      <trkpt lat="43.10739" lon="-0.44351">
        <ele>392.2</ele>
        <time>2022-06-08 10:01:54</time>
      </trkpt>
      <trkpt lat="43.10732" lon="-0.44342">
        <ele>391.8</ele>
        <time>2022-06-08 10:01:55</time>
      </trkpt>
      <trkpt lat="43.10726" lon="-0.44333">
        <ele>390.8</ele>
        <time>2022-06-08 10:01:56</time>
      </trkpt>
      <trkpt lat="43.10719" lon="-0.44323">
        <ele>390.2</ele>
        <time>2022-06-08 10:01:57</time>
      </trkpt>
      <trkpt lat="43.10714" lon="-0.44313">
        <ele>390.2</ele>
        <time>2022-06-08 10:01:58</time>
      </trkpt>
      <trkpt lat="43.10709" lon="-0.44303">
        <ele>390</ele>
        <time>2022-06-08 10:01:59</time>
      </trkpt>
      <trkpt lat="43.10704" lon="-0.44293">
        <ele>390</ele>
        <time>2022-06-08 10:02:00</time>
      </trkpt>
      <trkpt lat="43.107" lon="-0.44283">
        <ele>390</ele>
        <time>2022-06-08 10:02:01</time>
      </trkpt>
      <trkpt lat="43.10697" lon="-0.44273">
        <ele>389.8</ele>
        <time>2022-06-08 10:02:02</time>
      </trkpt>
      <trkpt lat="43.10693" lon="-0.44265">
        <ele>389.8</ele>
        <time>2022-06-08 10:02:03</time>
      </trkpt>
      <trkpt lat="43.10689" lon="-0.44257">
        <ele>389.8</ele>
        <time>2022-06-08 10:02:04</time>
      </trkpt>
      <trkpt lat="43.10686" lon="-0.44249">
        <ele>390.4</ele>
        <time>2022-06-08 10:02:05</time>
      </trkpt>
      <trkpt lat="43.10682" lon="-0.44242">
        <ele>390.8</ele>
        <time>2022-06-08 10:02:06</time>
      </trkpt>
      <trkpt lat="43.10677" lon="-0.44235">
        <ele>391.4</ele>
        <time>2022-06-08 10:02:07</time>
      </trkpt>
      <trkpt lat="43.10673" lon="-0.44229">
        <ele>391.6</ele>
        <time>2022-06-08 10:02:08</time>
      </trkpt>
      <trkpt lat="43.10669" lon="-0.44223">
        <ele>392</ele>
        <time>2022-06-08 10:02:09</time>
      </trkpt>
      <trkpt lat="43.10664" lon="-0.44217">
        <ele>392.6</ele>
        <time>2022-06-08 10:02:10</time>
      </trkpt>
      <trkpt lat="43.1066" lon="-0.44211">
        <ele>393</ele>
        <time>2022-06-08 10:02:11</time>
      </trkpt>
      <trkpt lat="43.10655" lon="-0.44206">
        <ele>393.6</ele>
        <time>2022-06-08 10:02:12</time>
      </trkpt>
      <trkpt lat="43.10651" lon="-0.44201">
        <ele>393.8</ele>
        <time>2022-06-08 10:02:13</time>
      </trkpt>
      <trkpt lat="43.10647" lon="-0.44197">
        <ele>394.4</ele>
        <time>2022-06-08 10:02:14</time>
      </trkpt>
      <trkpt lat="43.10643" lon="-0.44193">
        <ele>394.6</ele>
        <time>2022-06-08 10:02:15</time>
      </trkpt>
      <trkpt lat="43.10639" lon="-0.44188">
        <ele>394.8</ele>
        <time>2022-06-08 10:02:16</time>
      </trkpt>
      <trkpt lat="43.10636" lon="-0.44184">
        <ele>394.8</ele>
        <time>2022-06-08 10:02:17</time>
      </trkpt>
      <trkpt lat="43.10632" lon="-0.4418">
        <ele>395.2</ele>
        <time>2022-06-08 10:02:18</time>
      </trkpt>
      <trkpt lat="43.10629" lon="-0.44176">
        <ele>395.6</ele>
        <time>2022-06-08 10:02:19</time>
      </trkpt>
      <trkpt lat="43.10625" lon="-0.44172">
        <ele>396.6</ele>
        <time>2022-06-08 10:02:20</time>
      </trkpt>
      <trkpt lat="43.1062" lon="-0.44167">
        <ele>396.8</ele>
        <time>2022-06-08 10:02:21</time>
      </trkpt>
      <trkpt lat="43.10616" lon="-0.44163">
        <ele>397.2</ele>
        <time>2022-06-08 10:02:22</time>
      </trkpt>
      <trkpt lat="43.10612" lon="-0.44159">
        <ele>397.2</ele>
        <time>2022-06-08 10:02:23</time>
      </trkpt>
      <trkpt lat="43.10608" lon="-0.44154">
        <ele>397.4</ele>
        <time>2022-06-08 10:02:24</time>
      </trkpt>
      <trkpt lat="43.10604" lon="-0.4415">
        <ele>397.6</ele>
        <time>2022-06-08 10:02:25</time>
      </trkpt>
      <trkpt lat="43.10601" lon="-0.44146">
        <ele>397.6</ele>
        <time>2022-06-08 10:02:26</time>
      </trkpt>
      <trkpt lat="43.10597" lon="-0.44141">
        <ele>397.8</ele>
        <time>2022-06-08 10:02:27</time>
      </trkpt>
      <trkpt lat="43.10593" lon="-0.44137">
        <ele>398</ele>
        <time>2022-06-08 10:02:28</time>
      </trkpt>
      <trkpt lat="43.1059" lon="-0.44133">
        <ele>398.6</ele>
        <time>2022-06-08 10:02:29</time>
      </trkpt>
      <trkpt lat="43.10587" lon="-0.44129">
        <ele>398.8</ele>
        <time>2022-06-08 10:02:30</time>
      </trkpt>
      <trkpt lat="43.10584" lon="-0.44126">
        <ele>399</ele>
        <time>2022-06-08 10:02:31</time>
      </trkpt>
      <trkpt lat="43.10581" lon="-0.44122">
        <ele>399.2</ele>
        <time>2022-06-08 10:02:32</time>
      </trkpt>
      <trkpt lat="43.10577" lon="-0.44117">
        <ele>399.8</ele>
        <time>2022-06-08 10:02:33</time>
      </trkpt>
      <trkpt lat="43.10574" lon="-0.44112">
        <ele>400</ele>
        <time>2022-06-08 10:02:34</time>
      </trkpt>
      <trkpt lat="43.10572" lon="-0.44107">
        <ele>400.2</ele>
        <time>2022-06-08 10:02:35</time>
      </trkpt>
      <trkpt lat="43.1057" lon="-0.44102">
        <ele>400.4</ele>
        <time>2022-06-08 10:02:36</time>
      </trkpt>
      <trkpt lat="43.10568" lon="-0.44097">
        <ele>400.8</ele>
        <time>2022-06-08 10:02:37</time>
      </trkpt>
      <trkpt lat="43.10566" lon="-0.44092">
        <ele>401.4</ele>
        <time>2022-06-08 10:02:38</time>
      </trkpt>
      <trkpt lat="43.10565" lon="-0.44087">
        <ele>401.6</ele>
        <time>2022-06-08 10:02:39</time>
      </trkpt>
      <trkpt lat="43.10564" lon="-0.44081">
        <ele>402</ele>
        <time>2022-06-08 10:02:40</time>
      </trkpt>
      <trkpt lat="43.10563" lon="-0.44075">
        <ele>402</ele>
        <time>2022-06-08 10:02:41</time>
      </trkpt>
      <trkpt lat="43.10562" lon="-0.44069">
        <ele>402.4</ele>
        <time>2022-06-08 10:02:42</time>
      </trkpt>
      <trkpt lat="43.10562" lon="-0.44063">
        <ele>402.6</ele>
        <time>2022-06-08 10:02:43</time>
      </trkpt>
      <trkpt lat="43.10562" lon="-0.44056">
        <ele>402.6</ele>
        <time>2022-06-08 10:02:44</time>
      </trkpt>
      <trkpt lat="43.10562" lon="-0.44051">
        <ele>402.8</ele>
        <time>2022-06-08 10:02:45</time>
      </trkpt>
      <trkpt lat="43.10563" lon="-0.44046">
        <ele>403</ele>
        <time>2022-06-08 10:02:46</time>
      </trkpt>
      <trkpt lat="43.10564" lon="-0.4404">
        <ele>403.2</ele>
        <time>2022-06-08 10:02:47</time>
      </trkpt>
      <trkpt lat="43.10565" lon="-0.44034">
        <ele>403.4</ele>
        <time>2022-06-08 10:02:48</time>
      </trkpt>
      <trkpt lat="43.10566" lon="-0.44029">
        <ele>403.4</ele>
        <time>2022-06-08 10:02:49</time>
      </trkpt>
      <trkpt lat="43.10566" lon="-0.44029">
        <ele>403.6</ele>
        <time>2022-06-08 10:02:50</time>
      </trkpt>
      <trkpt lat="43.10568" lon="-0.44017">
        <ele>403.6</ele>
        <time>2022-06-08 10:02:51</time>
      </trkpt>
      <trkpt lat="43.1057" lon="-0.44011">
        <ele>404</ele>
        <time>2022-06-08 10:02:52</time>
      </trkpt>
      <trkpt lat="43.1057" lon="-0.44011">
        <ele>404.6</ele>
        <time>2022-06-08 10:02:53</time>
      </trkpt>
      <trkpt lat="43.10573" lon="-0.44">
        <ele>405</ele>
        <time>2022-06-08 10:02:54</time>
      </trkpt>
      <trkpt lat="43.10575" lon="-0.43996">
        <ele>405.4</ele>
        <time>2022-06-08 10:02:55</time>
      </trkpt>
      <trkpt lat="43.10575" lon="-0.4399">
        <ele>405.6</ele>
        <time>2022-06-08 10:02:56</time>
      </trkpt>
      <trkpt lat="43.10576" lon="-0.43984">
        <ele>405.8</ele>
        <time>2022-06-08 10:02:57</time>
      </trkpt>
      <trkpt lat="43.10576" lon="-0.43984">
        <ele>406</ele>
        <time>2022-06-08 10:02:58</time>
      </trkpt>
      <trkpt lat="43.10577" lon="-0.43979">
        <ele>406.2</ele>
        <time>2022-06-08 10:02:59</time>
      </trkpt>
      <trkpt lat="43.1058" lon="-0.4397">
        <ele>406.4</ele>
        <time>2022-06-08 10:03:00</time>
      </trkpt>
      <trkpt lat="43.10581" lon="-0.43965">
        <ele>406.6</ele>
        <time>2022-06-08 10:03:01</time>
      </trkpt>
      <trkpt lat="43.10583" lon="-0.43959">
        <ele>406.8</ele>
        <time>2022-06-08 10:03:02</time>
      </trkpt>
      <trkpt lat="43.10584" lon="-0.43954">
        <ele>407</ele>
        <time>2022-06-08 10:03:03</time>
      </trkpt>
      <trkpt lat="43.10586" lon="-0.4395">
        <ele>407.2</ele>
        <time>2022-06-08 10:03:04</time>
      </trkpt>
      <trkpt lat="43.10586" lon="-0.43946">
        <ele>407.4</ele>
        <time>2022-06-08 10:03:05</time>
      </trkpt>
      <trkpt lat="43.10587" lon="-0.43941">
        <ele>407.6</ele>
        <time>2022-06-08 10:03:06</time>
      </trkpt>
      <trkpt lat="43.10586" lon="-0.43937">
        <ele>407.6</ele>
        <time>2022-06-08 10:03:07</time>
      </trkpt>
      <trkpt lat="43.10586" lon="-0.43934">
        <ele>407.8</ele>
        <time>2022-06-08 10:03:08</time>
      </trkpt>
      <trkpt lat="43.10586" lon="-0.43934">
        <ele>408</ele>
        <time>2022-06-08 10:03:09</time>
      </trkpt>
      <trkpt lat="43.10585" lon="-0.43926">
        <ele>408.2</ele>
        <time>2022-06-08 10:03:10</time>
      </trkpt>
      <trkpt lat="43.10585" lon="-0.43926">
        <ele>408.2</ele>
        <time>2022-06-08 10:03:11</time>
      </trkpt>
      <trkpt lat="43.10586" lon="-0.43915">
        <ele>408.4</ele>
        <time>2022-06-08 10:03:12</time>
      </trkpt>
      <trkpt lat="43.10587" lon="-0.43909">
        <ele>408.6</ele>
        <time>2022-06-08 10:03:13</time>
      </trkpt>
      <trkpt lat="43.10587" lon="-0.43904">
        <ele>408.8</ele>
        <time>2022-06-08 10:03:14</time>
      </trkpt>
      <trkpt lat="43.10587" lon="-0.43899">
        <ele>408.8</ele>
        <time>2022-06-08 10:03:15</time>
      </trkpt>
      <trkpt lat="43.10586" lon="-0.43896">
        <ele>409</ele>
        <time>2022-06-08 10:03:16</time>
      </trkpt>
      <trkpt lat="43.10586" lon="-0.43891">
        <ele>409.2</ele>
        <time>2022-06-08 10:03:17</time>
      </trkpt>
      <trkpt lat="43.10586" lon="-0.43885">
        <ele>410</ele>
        <time>2022-06-08 10:03:18</time>
      </trkpt>
      <trkpt lat="43.10586" lon="-0.43885">
        <ele>410.2</ele>
        <time>2022-06-08 10:03:19</time>
      </trkpt>
      <trkpt lat="43.10585" lon="-0.43879">
        <ele>410.6</ele>
        <time>2022-06-08 10:03:20</time>
      </trkpt>
      <trkpt lat="43.10584" lon="-0.43871">
        <ele>410.6</ele>
        <time>2022-06-08 10:03:21</time>
      </trkpt>
      <trkpt lat="43.10583" lon="-0.43865">
        <ele>410.8</ele>
        <time>2022-06-08 10:03:22</time>
      </trkpt>
      <trkpt lat="43.10582" lon="-0.43859">
        <ele>411</ele>
        <time>2022-06-08 10:03:23</time>
      </trkpt>
      <trkpt lat="43.10581" lon="-0.43854">
        <ele>411.2</ele>
        <time>2022-06-08 10:03:24</time>
      </trkpt>
      <trkpt lat="43.10579" lon="-0.43848">
        <ele>411.2</ele>
        <time>2022-06-08 10:03:25</time>
      </trkpt>
      <trkpt lat="43.10576" lon="-0.43843">
        <ele>411.4</ele>
        <time>2022-06-08 10:03:26</time>
      </trkpt>
      <trkpt lat="43.10574" lon="-0.43838">
        <ele>411.4</ele>
        <time>2022-06-08 10:03:27</time>
      </trkpt>
      <trkpt lat="43.10572" lon="-0.43833">
        <ele>411.4</ele>
        <time>2022-06-08 10:03:28</time>
      </trkpt>
      <trkpt lat="43.10568" lon="-0.43828">
        <ele>411.6</ele>
        <time>2022-06-08 10:03:29</time>
      </trkpt>
      <trkpt lat="43.10566" lon="-0.43823">
        <ele>411.6</ele>
        <time>2022-06-08 10:03:30</time>
      </trkpt>
      <trkpt lat="43.10566" lon="-0.43823">
        <ele>411.8</ele>
        <time>2022-06-08 10:03:31</time>
      </trkpt>
      <trkpt lat="43.10561" lon="-0.43812">
        <ele>412</ele>
        <time>2022-06-08 10:03:32</time>
      </trkpt>
      <trkpt lat="43.10561" lon="-0.43812">
        <ele>412</ele>
        <time>2022-06-08 10:03:33</time>
      </trkpt>
      <trkpt lat="43.10553" lon="-0.438">
        <ele>412</ele>
        <time>2022-06-08 10:03:34</time>
      </trkpt>
      <trkpt lat="43.10553" lon="-0.438">
        <ele>412</ele>
        <time>2022-06-08 10:03:35</time>
      </trkpt>
      <trkpt lat="43.10551" lon="-0.43795">
        <ele>412</ele>
        <time>2022-06-08 10:03:36</time>
      </trkpt>
      <trkpt lat="43.10543" lon="-0.43783">
        <ele>412</ele>
        <time>2022-06-08 10:03:37</time>
      </trkpt>
      <trkpt lat="43.10543" lon="-0.43783">
        <ele>412.2</ele>
        <time>2022-06-08 10:03:38</time>
      </trkpt>
      <trkpt lat="43.10534" lon="-0.43772">
        <ele>412.2</ele>
        <time>2022-06-08 10:03:39</time>
      </trkpt>
      <trkpt lat="43.10531" lon="-0.43767">
        <ele>412.2</ele>
        <time>2022-06-08 10:03:40</time>
      </trkpt>
      <trkpt lat="43.10527" lon="-0.43762">
        <ele>412.2</ele>
        <time>2022-06-08 10:03:41</time>
      </trkpt>
      <trkpt lat="43.10523" lon="-0.43756">
        <ele>412.2</ele>
        <time>2022-06-08 10:03:42</time>
      </trkpt>
      <trkpt lat="43.10518" lon="-0.43749">
        <ele>412.4</ele>
        <time>2022-06-08 10:03:43</time>
      </trkpt>
      <trkpt lat="43.10515" lon="-0.43742">
        <ele>412.4</ele>
        <time>2022-06-08 10:03:44</time>
      </trkpt>
      <trkpt lat="43.10511" lon="-0.43736">
        <ele>412.4</ele>
        <time>2022-06-08 10:03:45</time>
      </trkpt>
      <trkpt lat="43.10508" lon="-0.4373">
        <ele>412.6</ele>
        <time>2022-06-08 10:03:46</time>
      </trkpt>
      <trkpt lat="43.10505" lon="-0.43723">
        <ele>412.6</ele>
        <time>2022-06-08 10:03:47</time>
      </trkpt>
      <trkpt lat="43.10502" lon="-0.43714">
        <ele>412.8</ele>
        <time>2022-06-08 10:03:48</time>
      </trkpt>
      <trkpt lat="43.10499" lon="-0.43709">
        <ele>412.8</ele>
        <time>2022-06-08 10:03:49</time>
      </trkpt>
      <trkpt lat="43.10496" lon="-0.43699">
        <ele>412.8</ele>
        <time>2022-06-08 10:03:50</time>
      </trkpt>
      <trkpt lat="43.10494" lon="-0.43691">
        <ele>412.8</ele>
        <time>2022-06-08 10:03:51</time>
      </trkpt>
      <trkpt lat="43.10492" lon="-0.43683">
        <ele>412.8</ele>
        <time>2022-06-08 10:03:52</time>
      </trkpt>
      <trkpt lat="43.1049" lon="-0.43676">
        <ele>412.6</ele>
        <time>2022-06-08 10:03:53</time>
      </trkpt>
      <trkpt lat="43.10487" lon="-0.43665">
        <ele>412.6</ele>
        <time>2022-06-08 10:03:54</time>
      </trkpt>
      <trkpt lat="43.10484" lon="-0.43656">
        <ele>412.6</ele>
        <time>2022-06-08 10:03:55</time>
      </trkpt>
      <trkpt lat="43.10482" lon="-0.43648">
        <ele>412.6</ele>
        <time>2022-06-08 10:03:56</time>
      </trkpt>
      <trkpt lat="43.10479" lon="-0.43639">
        <ele>412.4</ele>
        <time>2022-06-08 10:03:57</time>
      </trkpt>
      <trkpt lat="43.10476" lon="-0.43631">
        <ele>412.4</ele>
        <time>2022-06-08 10:03:58</time>
      </trkpt>
      <trkpt lat="43.10473" lon="-0.43623">
        <ele>412.2</ele>
        <time>2022-06-08 10:03:59</time>
      </trkpt>
      <trkpt lat="43.1047" lon="-0.43614">
        <ele>412</ele>
        <time>2022-06-08 10:04:00</time>
      </trkpt>
      <trkpt lat="43.10467" lon="-0.43606">
        <ele>412</ele>
        <time>2022-06-08 10:04:01</time>
      </trkpt>
      <trkpt lat="43.10463" lon="-0.43597">
        <ele>411.8</ele>
        <time>2022-06-08 10:04:02</time>
      </trkpt>
      <trkpt lat="43.1046" lon="-0.43588">
        <ele>411.6</ele>
        <time>2022-06-08 10:04:03</time>
      </trkpt>
      <trkpt lat="43.10457" lon="-0.4358">
        <ele>411.4</ele>
        <time>2022-06-08 10:04:04</time>
      </trkpt>
      <trkpt lat="43.10454" lon="-0.43572">
        <ele>411.4</ele>
        <time>2022-06-08 10:04:05</time>
      </trkpt>
      <trkpt lat="43.1045" lon="-0.43564">
        <ele>411.2</ele>
        <time>2022-06-08 10:04:06</time>
      </trkpt>
      <trkpt lat="43.10446" lon="-0.43556">
        <ele>411.2</ele>
        <time>2022-06-08 10:04:07</time>
      </trkpt>
      <trkpt lat="43.10441" lon="-0.4355">
        <ele>411</ele>
        <time>2022-06-08 10:04:08</time>
      </trkpt>
      <trkpt lat="43.10434" lon="-0.43546">
        <ele>411</ele>
        <time>2022-06-08 10:04:09</time>
      </trkpt>
      <trkpt lat="43.10427" lon="-0.43543">
        <ele>410.8</ele>
        <time>2022-06-08 10:04:10</time>
      </trkpt>
      <trkpt lat="43.1042" lon="-0.43541">
        <ele>410.8</ele>
        <time>2022-06-08 10:04:11</time>
      </trkpt>
      <trkpt lat="43.10413" lon="-0.43539">
        <ele>410.6</ele>
        <time>2022-06-08 10:04:12</time>
      </trkpt>
      <trkpt lat="43.10406" lon="-0.43537">
        <ele>410.4</ele>
        <time>2022-06-08 10:04:13</time>
      </trkpt>
      <trkpt lat="43.10398" lon="-0.43536">
        <ele>410</ele>
        <time>2022-06-08 10:04:14</time>
      </trkpt>
      <trkpt lat="43.10391" lon="-0.43535">
        <ele>410</ele>
        <time>2022-06-08 10:04:15</time>
      </trkpt>
      <trkpt lat="43.10384" lon="-0.43535">
        <ele>409.6</ele>
        <time>2022-06-08 10:04:16</time>
      </trkpt>
      <trkpt lat="43.10377" lon="-0.43532">
        <ele>409.6</ele>
        <time>2022-06-08 10:04:17</time>
      </trkpt>
      <trkpt lat="43.10371" lon="-0.43528">
        <ele>409.4</ele>
        <time>2022-06-08 10:04:18</time>
      </trkpt>
      <trkpt lat="43.10365" lon="-0.43525">
        <ele>409.4</ele>
        <time>2022-06-08 10:04:19</time>
      </trkpt>
      <trkpt lat="43.10358" lon="-0.4352">
        <ele>409.4</ele>
        <time>2022-06-08 10:04:20</time>
      </trkpt>
      <trkpt lat="43.10351" lon="-0.43516">
        <ele>409.4</ele>
        <time>2022-06-08 10:04:21</time>
      </trkpt>
      <trkpt lat="43.10345" lon="-0.43513">
        <ele>409.4</ele>
        <time>2022-06-08 10:04:22</time>
      </trkpt>
      <trkpt lat="43.10339" lon="-0.4351">
        <ele>409.4</ele>
        <time>2022-06-08 10:04:23</time>
      </trkpt>
      <trkpt lat="43.10333" lon="-0.43508">
        <ele>409.4</ele>
        <time>2022-06-08 10:04:24</time>
      </trkpt>
      <trkpt lat="43.10326" lon="-0.43506">
        <ele>409.4</ele>
        <time>2022-06-08 10:04:25</time>
      </trkpt>
      <trkpt lat="43.1032" lon="-0.43504">
        <ele>409.4</ele>
        <time>2022-06-08 10:04:26</time>
      </trkpt>
      <trkpt lat="43.10314" lon="-0.43503">
        <ele>409.4</ele>
        <time>2022-06-08 10:04:27</time>
      </trkpt>
      <trkpt lat="43.10307" lon="-0.43501">
        <ele>409.4</ele>
        <time>2022-06-08 10:04:28</time>
      </trkpt>
      <trkpt lat="43.10302" lon="-0.435">
        <ele>409.6</ele>
        <time>2022-06-08 10:04:29</time>
      </trkpt>
      <trkpt lat="43.10294" lon="-0.43498">
        <ele>409.8</ele>
        <time>2022-06-08 10:04:30</time>
      </trkpt>
      <trkpt lat="43.10287" lon="-0.43497">
        <ele>409.8</ele>
        <time>2022-06-08 10:04:31</time>
      </trkpt>
      <trkpt lat="43.1028" lon="-0.43496">
        <ele>409.8</ele>
        <time>2022-06-08 10:04:32</time>
      </trkpt>
      <trkpt lat="43.10274" lon="-0.43495">
        <ele>409.8</ele>
        <time>2022-06-08 10:04:33</time>
      </trkpt>
      <trkpt lat="43.10267" lon="-0.43495">
        <ele>409.8</ele>
        <time>2022-06-08 10:04:34</time>
      </trkpt>
      <trkpt lat="43.1026" lon="-0.43494">
        <ele>409.8</ele>
        <time>2022-06-08 10:04:35</time>
      </trkpt>
      <trkpt lat="43.10253" lon="-0.43493">
        <ele>409.8</ele>
        <time>2022-06-08 10:04:36</time>
      </trkpt>
      <trkpt lat="43.10247" lon="-0.43492">
        <ele>409.8</ele>
        <time>2022-06-08 10:04:37</time>
      </trkpt>
      <trkpt lat="43.1024" lon="-0.4349">
        <ele>409.8</ele>
        <time>2022-06-08 10:04:38</time>
      </trkpt>
      <trkpt lat="43.10233" lon="-0.43489">
        <ele>409.8</ele>
        <time>2022-06-08 10:04:39</time>
      </trkpt>
      <trkpt lat="43.10226" lon="-0.43487">
        <ele>409.8</ele>
        <time>2022-06-08 10:04:40</time>
      </trkpt>
      <trkpt lat="43.1022" lon="-0.43485">
        <ele>409.8</ele>
        <time>2022-06-08 10:04:41</time>
      </trkpt>
      <trkpt lat="43.10213" lon="-0.43482">
        <ele>409.6</ele>
        <time>2022-06-08 10:04:42</time>
      </trkpt>
      <trkpt lat="43.10207" lon="-0.4348">
        <ele>409.6</ele>
        <time>2022-06-08 10:04:43</time>
      </trkpt>
      <trkpt lat="43.102" lon="-0.43478">
        <ele>409.6</ele>
        <time>2022-06-08 10:04:44</time>
      </trkpt>
      <trkpt lat="43.10194" lon="-0.43475">
        <ele>409.4</ele>
        <time>2022-06-08 10:04:45</time>
      </trkpt>
      <trkpt lat="43.10188" lon="-0.43472">
        <ele>409.4</ele>
        <time>2022-06-08 10:04:46</time>
      </trkpt>
      <trkpt lat="43.10182" lon="-0.43469">
        <ele>409.2</ele>
        <time>2022-06-08 10:04:47</time>
      </trkpt>
      <trkpt lat="43.10176" lon="-0.43466">
        <ele>409.2</ele>
        <time>2022-06-08 10:04:48</time>
      </trkpt>
      <trkpt lat="43.1017" lon="-0.43463">
        <ele>409</ele>
        <time>2022-06-08 10:04:49</time>
      </trkpt>
      <trkpt lat="43.10164" lon="-0.4346">
        <ele>409</ele>
        <time>2022-06-08 10:04:50</time>
      </trkpt>
      <trkpt lat="43.10159" lon="-0.43457">
        <ele>409</ele>
        <time>2022-06-08 10:04:51</time>
      </trkpt>
      <trkpt lat="43.10153" lon="-0.43453">
        <ele>409</ele>
        <time>2022-06-08 10:04:52</time>
      </trkpt>
      <trkpt lat="43.10147" lon="-0.43449">
        <ele>409</ele>
        <time>2022-06-08 10:04:53</time>
      </trkpt>
      <trkpt lat="43.10141" lon="-0.43446">
        <ele>409</ele>
        <time>2022-06-08 10:04:54</time>
      </trkpt>
      <trkpt lat="43.10135" lon="-0.43442">
        <ele>409</ele>
        <time>2022-06-08 10:04:55</time>
      </trkpt>
      <trkpt lat="43.1013" lon="-0.43439">
        <ele>409</ele>
        <time>2022-06-08 10:04:56</time>
      </trkpt>
      <trkpt lat="43.10122" lon="-0.43435">
        <ele>409</ele>
        <time>2022-06-08 10:04:57</time>
      </trkpt>
      <trkpt lat="43.10116" lon="-0.43432">
        <ele>408.8</ele>
        <time>2022-06-08 10:04:58</time>
      </trkpt>
      <trkpt lat="43.10111" lon="-0.43428">
        <ele>408.8</ele>
        <time>2022-06-08 10:04:59</time>
      </trkpt>
      <trkpt lat="43.10105" lon="-0.43424">
        <ele>408.8</ele>
        <time>2022-06-08 10:05:00</time>
      </trkpt>
      <trkpt lat="43.101" lon="-0.43419">
        <ele>408.8</ele>
        <time>2022-06-08 10:05:01</time>
      </trkpt>
      <trkpt lat="43.10095" lon="-0.43414">
        <ele>409</ele>
        <time>2022-06-08 10:05:02</time>
      </trkpt>
      <trkpt lat="43.1009" lon="-0.43409">
        <ele>409</ele>
        <time>2022-06-08 10:05:03</time>
      </trkpt>
      <trkpt lat="43.10085" lon="-0.43403">
        <ele>409.2</ele>
        <time>2022-06-08 10:05:04</time>
      </trkpt>
      <trkpt lat="43.1008" lon="-0.43397">
        <ele>409.2</ele>
        <time>2022-06-08 10:05:05</time>
      </trkpt>
      <trkpt lat="43.10075" lon="-0.43391">
        <ele>409.2</ele>
        <time>2022-06-08 10:05:06</time>
      </trkpt>
      <trkpt lat="43.1007" lon="-0.43385">
        <ele>409.2</ele>
        <time>2022-06-08 10:05:07</time>
      </trkpt>
      <trkpt lat="43.10066" lon="-0.43381">
        <ele>409.2</ele>
        <time>2022-06-08 10:05:08</time>
      </trkpt>
      <trkpt lat="43.10061" lon="-0.43374">
        <ele>409.2</ele>
        <time>2022-06-08 10:05:09</time>
      </trkpt>
      <trkpt lat="43.10058" lon="-0.43367">
        <ele>409.2</ele>
        <time>2022-06-08 10:05:10</time>
      </trkpt>
      <trkpt lat="43.10058" lon="-0.43367">
        <ele>409.2</ele>
        <time>2022-06-08 10:05:11</time>
      </trkpt>
      <trkpt lat="43.10058" lon="-0.43353">
        <ele>409.2</ele>
        <time>2022-06-08 10:05:12</time>
      </trkpt>
      <trkpt lat="43.1006" lon="-0.43345">
        <ele>409.2</ele>
        <time>2022-06-08 10:05:13</time>
      </trkpt>
      <trkpt lat="43.10063" lon="-0.43337">
        <ele>409.4</ele>
        <time>2022-06-08 10:05:14</time>
      </trkpt>
      <trkpt lat="43.10065" lon="-0.43329">
        <ele>409.4</ele>
        <time>2022-06-08 10:05:15</time>
      </trkpt>
      <trkpt lat="43.10066" lon="-0.43323">
        <ele>409.4</ele>
        <time>2022-06-08 10:05:16</time>
      </trkpt>
      <trkpt lat="43.10065" lon="-0.43313">
        <ele>409.4</ele>
        <time>2022-06-08 10:05:17</time>
      </trkpt>
      <trkpt lat="43.10062" lon="-0.43307">
        <ele>409.4</ele>
        <time>2022-06-08 10:05:18</time>
      </trkpt>
      <trkpt lat="43.10058" lon="-0.43302">
        <ele>409.6</ele>
        <time>2022-06-08 10:05:19</time>
      </trkpt>
      <trkpt lat="43.10053" lon="-0.43297">
        <ele>409.6</ele>
        <time>2022-06-08 10:05:20</time>
      </trkpt>
      <trkpt lat="43.10048" lon="-0.43294">
        <ele>409.8</ele>
        <time>2022-06-08 10:05:21</time>
      </trkpt>
      <trkpt lat="43.10042" lon="-0.43291">
        <ele>409.8</ele>
        <time>2022-06-08 10:05:22</time>
      </trkpt>
      <trkpt lat="43.10037" lon="-0.43287">
        <ele>409.8</ele>
        <time>2022-06-08 10:05:23</time>
      </trkpt>
      <trkpt lat="43.10033" lon="-0.43283">
        <ele>409.8</ele>
        <time>2022-06-08 10:05:24</time>
      </trkpt>
      <trkpt lat="43.10027" lon="-0.43279">
        <ele>409.8</ele>
        <time>2022-06-08 10:05:25</time>
      </trkpt>
      <trkpt lat="43.10022" lon="-0.43274">
        <ele>410</ele>
        <time>2022-06-08 10:05:26</time>
      </trkpt>
      <trkpt lat="43.10016" lon="-0.4327">
        <ele>410</ele>
        <time>2022-06-08 10:05:27</time>
      </trkpt>
      <trkpt lat="43.10009" lon="-0.43265">
        <ele>410.2</ele>
        <time>2022-06-08 10:05:28</time>
      </trkpt>
      <trkpt lat="43.10003" lon="-0.43261">
        <ele>410.2</ele>
        <time>2022-06-08 10:05:29</time>
      </trkpt>
      <trkpt lat="43.09997" lon="-0.43257">
        <ele>410</ele>
        <time>2022-06-08 10:05:30</time>
      </trkpt>
      <trkpt lat="43.09991" lon="-0.43254">
        <ele>410.2</ele>
        <time>2022-06-08 10:05:31</time>
      </trkpt>
      <trkpt lat="43.09991" lon="-0.43254">
        <ele>410</ele>
        <time>2022-06-08 10:05:32</time>
      </trkpt>
      <trkpt lat="43.09979" lon="-0.4325">
        <ele>410</ele>
        <time>2022-06-08 10:05:33</time>
      </trkpt>
      <trkpt lat="43.09973" lon="-0.43249">
        <ele>410</ele>
        <time>2022-06-08 10:05:34</time>
      </trkpt>
      <trkpt lat="43.09973" lon="-0.43249">
        <ele>410</ele>
        <time>2022-06-08 10:05:35</time>
      </trkpt>
      <trkpt lat="43.09958" lon="-0.43247">
        <ele>409.8</ele>
        <time>2022-06-08 10:05:36</time>
      </trkpt>
      <trkpt lat="43.09958" lon="-0.43247">
        <ele>409.8</ele>
        <time>2022-06-08 10:05:37</time>
      </trkpt>
      <trkpt lat="43.09946" lon="-0.43247">
        <ele>409.8</ele>
        <time>2022-06-08 10:05:38</time>
      </trkpt>
      <trkpt lat="43.09946" lon="-0.43247">
        <ele>409.8</ele>
        <time>2022-06-08 10:05:39</time>
      </trkpt>
      <trkpt lat="43.09932" lon="-0.43247">
        <ele>409.8</ele>
        <time>2022-06-08 10:05:40</time>
      </trkpt>
      <trkpt lat="43.09923" lon="-0.43245">
        <ele>409.8</ele>
        <time>2022-06-08 10:05:41</time>
      </trkpt>
      <trkpt lat="43.09917" lon="-0.43242">
        <ele>409.8</ele>
        <time>2022-06-08 10:05:42</time>
      </trkpt>
      <trkpt lat="43.09911" lon="-0.43237">
        <ele>409.8</ele>
        <time>2022-06-08 10:05:43</time>
      </trkpt>
      <trkpt lat="43.09905" lon="-0.43232">
        <ele>409.8</ele>
        <time>2022-06-08 10:05:44</time>
      </trkpt>
      <trkpt lat="43.099" lon="-0.43227">
        <ele>409.8</ele>
        <time>2022-06-08 10:05:45</time>
      </trkpt>
      <trkpt lat="43.09894" lon="-0.43221">
        <ele>409.8</ele>
        <time>2022-06-08 10:05:46</time>
      </trkpt>
      <trkpt lat="43.09889" lon="-0.43215">
        <ele>409.8</ele>
        <time>2022-06-08 10:05:47</time>
      </trkpt>
      <trkpt lat="43.09883" lon="-0.43209">
        <ele>410</ele>
        <time>2022-06-08 10:05:48</time>
      </trkpt>
      <trkpt lat="43.09879" lon="-0.43203">
        <ele>410</ele>
        <time>2022-06-08 10:05:49</time>
      </trkpt>
      <trkpt lat="43.09874" lon="-0.43198">
        <ele>410</ele>
        <time>2022-06-08 10:05:50</time>
      </trkpt>
      <trkpt lat="43.09869" lon="-0.43193">
        <ele>410</ele>
        <time>2022-06-08 10:05:51</time>
      </trkpt>
      <trkpt lat="43.09864" lon="-0.43188">
        <ele>410</ele>
        <time>2022-06-08 10:05:52</time>
      </trkpt>
      <trkpt lat="43.09858" lon="-0.43182">
        <ele>410</ele>
        <time>2022-06-08 10:05:53</time>
      </trkpt>
      <trkpt lat="43.09855" lon="-0.43178">
        <ele>410</ele>
        <time>2022-06-08 10:05:54</time>
      </trkpt>
      <trkpt lat="43.0985" lon="-0.43173">
        <ele>410</ele>
        <time>2022-06-08 10:05:55</time>
      </trkpt>
      <trkpt lat="43.09843" lon="-0.43166">
        <ele>410</ele>
        <time>2022-06-08 10:05:56</time>
      </trkpt>
      <trkpt lat="43.09838" lon="-0.43161">
        <ele>410</ele>
        <time>2022-06-08 10:05:57</time>
      </trkpt>
      <trkpt lat="43.09833" lon="-0.43155">
        <ele>410</ele>
        <time>2022-06-08 10:05:58</time>
      </trkpt>
      <trkpt lat="43.09828" lon="-0.43149">
        <ele>410</ele>
        <time>2022-06-08 10:05:59</time>
      </trkpt>
      <trkpt lat="43.09823" lon="-0.43144">
        <ele>410.2</ele>
        <time>2022-06-08 10:06:00</time>
      </trkpt>
      <trkpt lat="43.09818" lon="-0.43139">
        <ele>410.4</ele>
        <time>2022-06-08 10:06:01</time>
      </trkpt>
      <trkpt lat="43.09812" lon="-0.43133">
        <ele>410.4</ele>
        <time>2022-06-08 10:06:02</time>
      </trkpt>
      <trkpt lat="43.09807" lon="-0.43128">
        <ele>410.4</ele>
        <time>2022-06-08 10:06:03</time>
      </trkpt>
      <trkpt lat="43.09802" lon="-0.43123">
        <ele>410.6</ele>
        <time>2022-06-08 10:06:04</time>
      </trkpt>
      <trkpt lat="43.09797" lon="-0.43118">
        <ele>410.4</ele>
        <time>2022-06-08 10:06:05</time>
      </trkpt>
      <trkpt lat="43.09792" lon="-0.43113">
        <ele>410.6</ele>
        <time>2022-06-08 10:06:06</time>
      </trkpt>
      <trkpt lat="43.09786" lon="-0.43108">
        <ele>410.8</ele>
        <time>2022-06-08 10:06:07</time>
      </trkpt>
      <trkpt lat="43.09781" lon="-0.43103">
        <ele>410.8</ele>
        <time>2022-06-08 10:06:08</time>
      </trkpt>
      <trkpt lat="43.09775" lon="-0.43099">
        <ele>410.4</ele>
        <time>2022-06-08 10:06:09</time>
      </trkpt>
      <trkpt lat="43.09769" lon="-0.43094">
        <ele>410.4</ele>
        <time>2022-06-08 10:06:10</time>
      </trkpt>
      <trkpt lat="43.09763" lon="-0.4309">
        <ele>410.4</ele>
        <time>2022-06-08 10:06:11</time>
      </trkpt>
      <trkpt lat="43.09758" lon="-0.43085">
        <ele>410.6</ele>
        <time>2022-06-08 10:06:12</time>
      </trkpt>
      <trkpt lat="43.09752" lon="-0.43081">
        <ele>410.8</ele>
        <time>2022-06-08 10:06:13</time>
      </trkpt>
      <trkpt lat="43.09746" lon="-0.43076">
        <ele>410.8</ele>
        <time>2022-06-08 10:06:14</time>
      </trkpt>
      <trkpt lat="43.0974" lon="-0.43071">
        <ele>410.8</ele>
        <time>2022-06-08 10:06:15</time>
      </trkpt>
      <trkpt lat="43.09734" lon="-0.43067">
        <ele>410.8</ele>
        <time>2022-06-08 10:06:16</time>
      </trkpt>
      <trkpt lat="43.09728" lon="-0.43062">
        <ele>410.8</ele>
        <time>2022-06-08 10:06:17</time>
      </trkpt>
      <trkpt lat="43.09722" lon="-0.43058">
        <ele>410.8</ele>
        <time>2022-06-08 10:06:18</time>
      </trkpt>
      <trkpt lat="43.09722" lon="-0.43058">
        <ele>411</ele>
        <time>2022-06-08 10:06:19</time>
      </trkpt>
      <trkpt lat="43.09712" lon="-0.4305">
        <ele>411</ele>
        <time>2022-06-08 10:06:20</time>
      </trkpt>
      <trkpt lat="43.09706" lon="-0.43045">
        <ele>410.8</ele>
        <time>2022-06-08 10:06:21</time>
      </trkpt>
      <trkpt lat="43.09699" lon="-0.43039">
        <ele>410.8</ele>
        <time>2022-06-08 10:06:22</time>
      </trkpt>
      <trkpt lat="43.09693" lon="-0.43035">
        <ele>410.8</ele>
        <time>2022-06-08 10:06:23</time>
      </trkpt>
      <trkpt lat="43.09687" lon="-0.4303">
        <ele>410.6</ele>
        <time>2022-06-08 10:06:24</time>
      </trkpt>
      <trkpt lat="43.09681" lon="-0.43025">
        <ele>410.6</ele>
        <time>2022-06-08 10:06:25</time>
      </trkpt>
      <trkpt lat="43.09675" lon="-0.43021">
        <ele>410.4</ele>
        <time>2022-06-08 10:06:26</time>
      </trkpt>
      <trkpt lat="43.0967" lon="-0.43017">
        <ele>410.4</ele>
        <time>2022-06-08 10:06:27</time>
      </trkpt>
      <trkpt lat="43.09664" lon="-0.43012">
        <ele>410.8</ele>
        <time>2022-06-08 10:06:28</time>
      </trkpt>
      <trkpt lat="43.09658" lon="-0.43008">
        <ele>410.8</ele>
        <time>2022-06-08 10:06:29</time>
      </trkpt>
      <trkpt lat="43.09652" lon="-0.43003">
        <ele>410.4</ele>
        <time>2022-06-08 10:06:30</time>
      </trkpt>
      <trkpt lat="43.09647" lon="-0.42999">
        <ele>410.4</ele>
        <time>2022-06-08 10:06:31</time>
      </trkpt>
      <trkpt lat="43.09641" lon="-0.42995">
        <ele>410.6</ele>
        <time>2022-06-08 10:06:32</time>
      </trkpt>
      <trkpt lat="43.09635" lon="-0.4299">
        <ele>410.8</ele>
        <time>2022-06-08 10:06:33</time>
      </trkpt>
      <trkpt lat="43.09628" lon="-0.42984">
        <ele>410.8</ele>
        <time>2022-06-08 10:06:34</time>
      </trkpt>
      <trkpt lat="43.09623" lon="-0.4298">
        <ele>410.8</ele>
        <time>2022-06-08 10:06:35</time>
      </trkpt>
      <trkpt lat="43.09617" lon="-0.42975">
        <ele>411</ele>
        <time>2022-06-08 10:06:36</time>
      </trkpt>
      <trkpt lat="43.09611" lon="-0.42971">
        <ele>411</ele>
        <time>2022-06-08 10:06:37</time>
      </trkpt>
      <trkpt lat="43.09605" lon="-0.42967">
        <ele>411</ele>
        <time>2022-06-08 10:06:38</time>
      </trkpt>
      <trkpt lat="43.09599" lon="-0.42962">
        <ele>411</ele>
        <time>2022-06-08 10:06:39</time>
      </trkpt>
      <trkpt lat="43.09599" lon="-0.42962">
        <ele>411</ele>
        <time>2022-06-08 10:06:40</time>
      </trkpt>
      <trkpt lat="43.09594" lon="-0.42957">
        <ele>411.2</ele>
        <time>2022-06-08 10:06:41</time>
      </trkpt>
      <trkpt lat="43.09584" lon="-0.42949">
        <ele>411.4</ele>
        <time>2022-06-08 10:06:42</time>
      </trkpt>
      <trkpt lat="43.09577" lon="-0.42945">
        <ele>411.4</ele>
        <time>2022-06-08 10:06:43</time>
      </trkpt>
      <trkpt lat="43.0957" lon="-0.4294">
        <ele>411.4</ele>
        <time>2022-06-08 10:06:44</time>
      </trkpt>
      <trkpt lat="43.09564" lon="-0.42935">
        <ele>411.6</ele>
        <time>2022-06-08 10:06:45</time>
      </trkpt>
      <trkpt lat="43.09559" lon="-0.42931">
        <ele>411.6</ele>
        <time>2022-06-08 10:06:46</time>
      </trkpt>
      <trkpt lat="43.09552" lon="-0.42926">
        <ele>411.6</ele>
        <time>2022-06-08 10:06:47</time>
      </trkpt>
      <trkpt lat="43.09552" lon="-0.42926">
        <ele>412</ele>
        <time>2022-06-08 10:06:48</time>
      </trkpt>
      <trkpt lat="43.09548" lon="-0.42922">
        <ele>412</ele>
        <time>2022-06-08 10:06:49</time>
      </trkpt>
      <trkpt lat="43.09535" lon="-0.42911">
        <ele>412.2</ele>
        <time>2022-06-08 10:06:50</time>
      </trkpt>
      <trkpt lat="43.09535" lon="-0.42911">
        <ele>412</ele>
        <time>2022-06-08 10:06:51</time>
      </trkpt>
      <trkpt lat="43.09529" lon="-0.42907">
        <ele>412.2</ele>
        <time>2022-06-08 10:06:52</time>
      </trkpt>
      <trkpt lat="43.09517" lon="-0.42897">
        <ele>412.2</ele>
        <time>2022-06-08 10:06:53</time>
      </trkpt>
      <trkpt lat="43.0951" lon="-0.42891">
        <ele>412.2</ele>
        <time>2022-06-08 10:06:54</time>
      </trkpt>
      <trkpt lat="43.09504" lon="-0.42886">
        <ele>412.2</ele>
        <time>2022-06-08 10:06:55</time>
      </trkpt>
      <trkpt lat="43.09498" lon="-0.42881">
        <ele>412.2</ele>
        <time>2022-06-08 10:06:56</time>
      </trkpt>
      <trkpt lat="43.09498" lon="-0.42881">
        <ele>412.2</ele>
        <time>2022-06-08 10:06:57</time>
      </trkpt>
      <trkpt lat="43.09487" lon="-0.42873">
        <ele>412.2</ele>
        <time>2022-06-08 10:06:58</time>
      </trkpt>
      <trkpt lat="43.09479" lon="-0.42867">
        <ele>412.2</ele>
        <time>2022-06-08 10:06:59</time>
      </trkpt>
      <trkpt lat="43.09474" lon="-0.42862">
        <ele>412.2</ele>
        <time>2022-06-08 10:07:00</time>
      </trkpt>
      <trkpt lat="43.09468" lon="-0.42858">
        <ele>412.2</ele>
        <time>2022-06-08 10:07:01</time>
      </trkpt>
      <trkpt lat="43.09462" lon="-0.42853">
        <ele>412.2</ele>
        <time>2022-06-08 10:07:02</time>
      </trkpt>
      <trkpt lat="43.09456" lon="-0.42848">
        <ele>412</ele>
        <time>2022-06-08 10:07:03</time>
      </trkpt>
      <trkpt lat="43.0945" lon="-0.42844">
        <ele>412</ele>
        <time>2022-06-08 10:07:04</time>
      </trkpt>
      <trkpt lat="43.09444" lon="-0.42839">
        <ele>412</ele>
        <time>2022-06-08 10:07:05</time>
      </trkpt>
      <trkpt lat="43.09439" lon="-0.42834">
        <ele>412</ele>
        <time>2022-06-08 10:07:06</time>
      </trkpt>
      <trkpt lat="43.09434" lon="-0.42829">
        <ele>412</ele>
        <time>2022-06-08 10:07:07</time>
      </trkpt>
      <trkpt lat="43.09429" lon="-0.42823">
        <ele>412</ele>
        <time>2022-06-08 10:07:08</time>
      </trkpt>
      <trkpt lat="43.09424" lon="-0.42818">
        <ele>412</ele>
        <time>2022-06-08 10:07:09</time>
      </trkpt>
      <trkpt lat="43.09419" lon="-0.42813">
        <ele>412</ele>
        <time>2022-06-08 10:07:10</time>
      </trkpt>
      <trkpt lat="43.09414" lon="-0.42807">
        <ele>412</ele>
        <time>2022-06-08 10:07:11</time>
      </trkpt>
      <trkpt lat="43.09408" lon="-0.42801">
        <ele>412</ele>
        <time>2022-06-08 10:07:12</time>
      </trkpt>
      <trkpt lat="43.09402" lon="-0.42795">
        <ele>411.8</ele>
        <time>2022-06-08 10:07:13</time>
      </trkpt>
      <trkpt lat="43.09396" lon="-0.42788">
        <ele>411.6</ele>
        <time>2022-06-08 10:07:14</time>
      </trkpt>
      <trkpt lat="43.0939" lon="-0.42782">
        <ele>411.4</ele>
        <time>2022-06-08 10:07:15</time>
      </trkpt>
      <trkpt lat="43.09384" lon="-0.42775">
        <ele>411</ele>
        <time>2022-06-08 10:07:16</time>
      </trkpt>
      <trkpt lat="43.09378" lon="-0.42769">
        <ele>410.8</ele>
        <time>2022-06-08 10:07:17</time>
      </trkpt>
      <trkpt lat="43.09372" lon="-0.42763">
        <ele>410.6</ele>
        <time>2022-06-08 10:07:18</time>
      </trkpt>
      <trkpt lat="43.09366" lon="-0.42757">
        <ele>410.4</ele>
        <time>2022-06-08 10:07:19</time>
      </trkpt>
      <trkpt lat="43.09362" lon="-0.42753">
        <ele>409.8</ele>
        <time>2022-06-08 10:07:20</time>
      </trkpt>
      <trkpt lat="43.09358" lon="-0.42749">
        <ele>409.6</ele>
        <time>2022-06-08 10:07:21</time>
      </trkpt>
      <trkpt lat="43.09355" lon="-0.42745">
        <ele>409.4</ele>
        <time>2022-06-08 10:07:22</time>
      </trkpt>
      <trkpt lat="43.09351" lon="-0.42741">
        <ele>409.2</ele>
        <time>2022-06-08 10:07:23</time>
      </trkpt>
      <trkpt lat="43.09347" lon="-0.42736">
        <ele>409</ele>
        <time>2022-06-08 10:07:24</time>
      </trkpt>
      <trkpt lat="43.09343" lon="-0.42732">
        <ele>408.8</ele>
        <time>2022-06-08 10:07:25</time>
      </trkpt>
      <trkpt lat="43.09339" lon="-0.42727">
        <ele>408.8</ele>
        <time>2022-06-08 10:07:26</time>
      </trkpt>
      <trkpt lat="43.09334" lon="-0.42722">
        <ele>408.8</ele>
        <time>2022-06-08 10:07:27</time>
      </trkpt>
      <trkpt lat="43.0933" lon="-0.42716">
        <ele>408.6</ele>
        <time>2022-06-08 10:07:28</time>
      </trkpt>
      <trkpt lat="43.09325" lon="-0.42711">
        <ele>408.6</ele>
        <time>2022-06-08 10:07:29</time>
      </trkpt>
      <trkpt lat="43.0932" lon="-0.42705">
        <ele>408.6</ele>
        <time>2022-06-08 10:07:30</time>
      </trkpt>
      <trkpt lat="43.09315" lon="-0.427">
        <ele>408.6</ele>
        <time>2022-06-08 10:07:31</time>
      </trkpt>
      <trkpt lat="43.09311" lon="-0.42694">
        <ele>408.6</ele>
        <time>2022-06-08 10:07:32</time>
      </trkpt>
      <trkpt lat="43.09306" lon="-0.4269">
        <ele>408.6</ele>
        <time>2022-06-08 10:07:33</time>
      </trkpt>
      <trkpt lat="43.093" lon="-0.42687">
        <ele>408.6</ele>
        <time>2022-06-08 10:07:34</time>
      </trkpt>
      <trkpt lat="43.09294" lon="-0.42683">
        <ele>408.6</ele>
        <time>2022-06-08 10:07:35</time>
      </trkpt>
      <trkpt lat="43.09288" lon="-0.4268">
        <ele>408.6</ele>
        <time>2022-06-08 10:07:36</time>
      </trkpt>
      <trkpt lat="43.09282" lon="-0.42677">
        <ele>408.8</ele>
        <time>2022-06-08 10:07:37</time>
      </trkpt>
      <trkpt lat="43.09275" lon="-0.42674">
        <ele>409</ele>
        <time>2022-06-08 10:07:38</time>
      </trkpt>
      <trkpt lat="43.09269" lon="-0.42672">
        <ele>409.2</ele>
        <time>2022-06-08 10:07:39</time>
      </trkpt>
      <trkpt lat="43.09263" lon="-0.42668">
        <ele>409.2</ele>
        <time>2022-06-08 10:07:40</time>
      </trkpt>
      <trkpt lat="43.09257" lon="-0.42666">
        <ele>409.2</ele>
        <time>2022-06-08 10:07:41</time>
      </trkpt>
      <trkpt lat="43.0925" lon="-0.42664">
        <ele>409.2</ele>
        <time>2022-06-08 10:07:42</time>
      </trkpt>
      <trkpt lat="43.09243" lon="-0.42662">
        <ele>409.2</ele>
        <time>2022-06-08 10:07:43</time>
      </trkpt>
      <trkpt lat="43.09238" lon="-0.42658">
        <ele>409.2</ele>
        <time>2022-06-08 10:07:44</time>
      </trkpt>
      <trkpt lat="43.09232" lon="-0.42655">
        <ele>409.2</ele>
        <time>2022-06-08 10:07:45</time>
      </trkpt>
      <trkpt lat="43.09226" lon="-0.42653">
        <ele>409</ele>
        <time>2022-06-08 10:07:46</time>
      </trkpt>
      <trkpt lat="43.0922" lon="-0.4265">
        <ele>409</ele>
        <time>2022-06-08 10:07:47</time>
      </trkpt>
      <trkpt lat="43.09215" lon="-0.42647">
        <ele>409</ele>
        <time>2022-06-08 10:07:48</time>
      </trkpt>
      <trkpt lat="43.09215" lon="-0.42647">
        <ele>408.8</ele>
        <time>2022-06-08 10:07:49</time>
      </trkpt>
      <trkpt lat="43.09206" lon="-0.4264">
        <ele>408.8</ele>
        <time>2022-06-08 10:07:50</time>
      </trkpt>
      <trkpt lat="43.09202" lon="-0.42638">
        <ele>408.8</ele>
        <time>2022-06-08 10:07:51</time>
      </trkpt>
      <trkpt lat="43.09197" lon="-0.42636">
        <ele>408.8</ele>
        <time>2022-06-08 10:07:52</time>
      </trkpt>
      <trkpt lat="43.09193" lon="-0.42634">
        <ele>408.8</ele>
        <time>2022-06-08 10:07:53</time>
      </trkpt>
      <trkpt lat="43.09188" lon="-0.42631">
        <ele>408.8</ele>
        <time>2022-06-08 10:07:54</time>
      </trkpt>
      <trkpt lat="43.09183" lon="-0.42629">
        <ele>408.8</ele>
        <time>2022-06-08 10:07:55</time>
      </trkpt>
      <trkpt lat="43.09178" lon="-0.42628">
        <ele>408.8</ele>
        <time>2022-06-08 10:07:56</time>
      </trkpt>
      <trkpt lat="43.09173" lon="-0.42626">
        <ele>408.8</ele>
        <time>2022-06-08 10:07:57</time>
      </trkpt>
      <trkpt lat="43.09168" lon="-0.42623">
        <ele>408.8</ele>
        <time>2022-06-08 10:07:58</time>
      </trkpt>
      <trkpt lat="43.09163" lon="-0.42621">
        <ele>408.8</ele>
        <time>2022-06-08 10:07:59</time>
      </trkpt>
      <trkpt lat="43.09157" lon="-0.42618">
        <ele>408.8</ele>
        <time>2022-06-08 10:08:00</time>
      </trkpt>
      <trkpt lat="43.09152" lon="-0.42616">
        <ele>408.8</ele>
        <time>2022-06-08 10:08:01</time>
      </trkpt>
      <trkpt lat="43.09147" lon="-0.42613">
        <ele>408.8</ele>
        <time>2022-06-08 10:08:02</time>
      </trkpt>
      <trkpt lat="43.09143" lon="-0.42609">
        <ele>408.8</ele>
        <time>2022-06-08 10:08:03</time>
      </trkpt>
      <trkpt lat="43.0914" lon="-0.42606">
        <ele>408.8</ele>
        <time>2022-06-08 10:08:04</time>
      </trkpt>
      <trkpt lat="43.09138" lon="-0.42604">
        <ele>409</ele>
        <time>2022-06-08 10:08:05</time>
      </trkpt>
      <trkpt lat="43.09137" lon="-0.42603">
        <ele>409.2</ele>
        <time>2022-06-08 10:08:06</time>
      </trkpt>
      <trkpt lat="43.09136" lon="-0.42603">
        <ele>409.4</ele>
        <time>2022-06-08 10:08:07</time>
      </trkpt>
      <trkpt lat="43.09135" lon="-0.42602">
        <ele>409.4</ele>
        <time>2022-06-08 10:08:08</time>
      </trkpt>
      <trkpt lat="43.09134" lon="-0.42601">
        <ele>409.4</ele>
        <time>2022-06-08 10:08:09</time>
      </trkpt>
      <trkpt lat="43.09133" lon="-0.42599">
        <ele>409.6</ele>
        <time>2022-06-08 10:08:10</time>
      </trkpt>
      <trkpt lat="43.09133" lon="-0.42599">
        <ele>409.6</ele>
        <time>2022-06-08 10:08:11</time>
      </trkpt>
      <trkpt lat="43.09131" lon="-0.42597">
        <ele>409.8</ele>
        <time>2022-06-08 10:08:12</time>
      </trkpt>
      <trkpt lat="43.09127" lon="-0.42592">
        <ele>409.8</ele>
        <time>2022-06-08 10:08:13</time>
      </trkpt>
      <trkpt lat="43.09123" lon="-0.42589">
        <ele>409.6</ele>
        <time>2022-06-08 10:08:14</time>
      </trkpt>
      <trkpt lat="43.09119" lon="-0.42587">
        <ele>409.6</ele>
        <time>2022-06-08 10:08:15</time>
      </trkpt>
      <trkpt lat="43.09115" lon="-0.42584">
        <ele>409.6</ele>
        <time>2022-06-08 10:08:16</time>
      </trkpt>
      <trkpt lat="43.09111" lon="-0.42581">
        <ele>409.4</ele>
        <time>2022-06-08 10:08:17</time>
      </trkpt>
      <trkpt lat="43.09107" lon="-0.42579">
        <ele>409.4</ele>
        <time>2022-06-08 10:08:18</time>
      </trkpt>
      <trkpt lat="43.09103" lon="-0.42578">
        <ele>409.4</ele>
        <time>2022-06-08 10:08:19</time>
      </trkpt>
      <trkpt lat="43.09098" lon="-0.42577">
        <ele>409.2</ele>
        <time>2022-06-08 10:08:20</time>
      </trkpt>
      <trkpt lat="43.09092" lon="-0.42576">
        <ele>409.2</ele>
        <time>2022-06-08 10:08:21</time>
      </trkpt>
      <trkpt lat="43.09087" lon="-0.42576">
        <ele>409.2</ele>
        <time>2022-06-08 10:08:22</time>
      </trkpt>
      <trkpt lat="43.09082" lon="-0.42574">
        <ele>409</ele>
        <time>2022-06-08 10:08:23</time>
      </trkpt>
      <trkpt lat="43.09077" lon="-0.42573">
        <ele>409</ele>
        <time>2022-06-08 10:08:24</time>
      </trkpt>
      <trkpt lat="43.09072" lon="-0.42571">
        <ele>409</ele>
        <time>2022-06-08 10:08:25</time>
      </trkpt>
      <trkpt lat="43.09067" lon="-0.42569">
        <ele>409</ele>
        <time>2022-06-08 10:08:26</time>
      </trkpt>
      <trkpt lat="43.09061" lon="-0.42568">
        <ele>408.8</ele>
        <time>2022-06-08 10:08:27</time>
      </trkpt>
      <trkpt lat="43.09055" lon="-0.42566">
        <ele>408.8</ele>
        <time>2022-06-08 10:08:28</time>
      </trkpt>
      <trkpt lat="43.09049" lon="-0.42564">
        <ele>408.8</ele>
        <time>2022-06-08 10:08:29</time>
      </trkpt>
      <trkpt lat="43.09043" lon="-0.42562">
        <ele>408.8</ele>
        <time>2022-06-08 10:08:30</time>
      </trkpt>
      <trkpt lat="43.09038" lon="-0.42561">
        <ele>408.8</ele>
        <time>2022-06-08 10:08:31</time>
      </trkpt>
      <trkpt lat="43.09032" lon="-0.42559">
        <ele>408.8</ele>
        <time>2022-06-08 10:08:32</time>
      </trkpt>
      <trkpt lat="43.09027" lon="-0.42557">
        <ele>408.8</ele>
        <time>2022-06-08 10:08:33</time>
      </trkpt>
      <trkpt lat="43.09022" lon="-0.42555">
        <ele>408.8</ele>
        <time>2022-06-08 10:08:34</time>
      </trkpt>
      <trkpt lat="43.09016" lon="-0.42554">
        <ele>408.8</ele>
        <time>2022-06-08 10:08:35</time>
      </trkpt>
      <trkpt lat="43.09011" lon="-0.42552">
        <ele>408.8</ele>
        <time>2022-06-08 10:08:36</time>
      </trkpt>
      <trkpt lat="43.09005" lon="-0.4255">
        <ele>408.8</ele>
        <time>2022-06-08 10:08:37</time>
      </trkpt>
      <trkpt lat="43.08999" lon="-0.42548">
        <ele>408.8</ele>
        <time>2022-06-08 10:08:38</time>
      </trkpt>
      <trkpt lat="43.08993" lon="-0.42547">
        <ele>408.8</ele>
        <time>2022-06-08 10:08:39</time>
      </trkpt>
      <trkpt lat="43.08989" lon="-0.42545">
        <ele>409</ele>
        <time>2022-06-08 10:08:40</time>
      </trkpt>
      <trkpt lat="43.08981" lon="-0.42543">
        <ele>409</ele>
        <time>2022-06-08 10:08:41</time>
      </trkpt>
      <trkpt lat="43.08981" lon="-0.42543">
        <ele>409</ele>
        <time>2022-06-08 10:08:42</time>
      </trkpt>
      <trkpt lat="43.0897" lon="-0.42538">
        <ele>409</ele>
        <time>2022-06-08 10:08:43</time>
      </trkpt>
      <trkpt lat="43.08963" lon="-0.42536">
        <ele>409.2</ele>
        <time>2022-06-08 10:08:44</time>
      </trkpt>
      <trkpt lat="43.08957" lon="-0.42534">
        <ele>409.2</ele>
        <time>2022-06-08 10:08:45</time>
      </trkpt>
      <trkpt lat="43.08951" lon="-0.42532">
        <ele>409.4</ele>
        <time>2022-06-08 10:08:46</time>
      </trkpt>
      <trkpt lat="43.08944" lon="-0.4253">
        <ele>409.4</ele>
        <time>2022-06-08 10:08:47</time>
      </trkpt>
      <trkpt lat="43.08939" lon="-0.42526">
        <ele>409.6</ele>
        <time>2022-06-08 10:08:48</time>
      </trkpt>
      <trkpt lat="43.08933" lon="-0.42523">
        <ele>409.4</ele>
        <time>2022-06-08 10:08:49</time>
      </trkpt>
      <trkpt lat="43.08927" lon="-0.4252">
        <ele>409.2</ele>
        <time>2022-06-08 10:08:50</time>
      </trkpt>
      <trkpt lat="43.08921" lon="-0.42516">
        <ele>409.2</ele>
        <time>2022-06-08 10:08:51</time>
      </trkpt>
      <trkpt lat="43.08915" lon="-0.42513">
        <ele>409.4</ele>
        <time>2022-06-08 10:08:52</time>
      </trkpt>
      <trkpt lat="43.08909" lon="-0.42509">
        <ele>409.4</ele>
        <time>2022-06-08 10:08:53</time>
      </trkpt>
      <trkpt lat="43.08902" lon="-0.42505">
        <ele>409.4</ele>
        <time>2022-06-08 10:08:54</time>
      </trkpt>
      <trkpt lat="43.08896" lon="-0.42501">
        <ele>409.4</ele>
        <time>2022-06-08 10:08:55</time>
      </trkpt>
      <trkpt lat="43.08889" lon="-0.42496">
        <ele>409.4</ele>
        <time>2022-06-08 10:08:56</time>
      </trkpt>
      <trkpt lat="43.08883" lon="-0.42492">
        <ele>409.2</ele>
        <time>2022-06-08 10:08:57</time>
      </trkpt>
      <trkpt lat="43.08878" lon="-0.42487">
        <ele>409</ele>
        <time>2022-06-08 10:08:58</time>
      </trkpt>
      <trkpt lat="43.08872" lon="-0.42482">
        <ele>409</ele>
        <time>2022-06-08 10:08:59</time>
      </trkpt>
      <trkpt lat="43.08867" lon="-0.42477">
        <ele>409</ele>
        <time>2022-06-08 10:09:00</time>
      </trkpt>
      <trkpt lat="43.08861" lon="-0.42472">
        <ele>409</ele>
        <time>2022-06-08 10:09:01</time>
      </trkpt>
      <trkpt lat="43.08857" lon="-0.42467">
        <ele>409.2</ele>
        <time>2022-06-08 10:09:02</time>
      </trkpt>
      <trkpt lat="43.08852" lon="-0.42462">
        <ele>409.2</ele>
        <time>2022-06-08 10:09:03</time>
      </trkpt>
      <trkpt lat="43.08848" lon="-0.42457">
        <ele>409</ele>
        <time>2022-06-08 10:09:04</time>
      </trkpt>
      <trkpt lat="43.08843" lon="-0.42452">
        <ele>408.8</ele>
        <time>2022-06-08 10:09:05</time>
      </trkpt>
      <trkpt lat="43.08839" lon="-0.42447">
        <ele>408.8</ele>
        <time>2022-06-08 10:09:06</time>
      </trkpt>
      <trkpt lat="43.08834" lon="-0.42442">
        <ele>408.8</ele>
        <time>2022-06-08 10:09:07</time>
      </trkpt>
      <trkpt lat="43.08829" lon="-0.42436">
        <ele>408.8</ele>
        <time>2022-06-08 10:09:08</time>
      </trkpt>
      <trkpt lat="43.08825" lon="-0.42432">
        <ele>409</ele>
        <time>2022-06-08 10:09:09</time>
      </trkpt>
      <trkpt lat="43.08825" lon="-0.42432">
        <ele>409</ele>
        <time>2022-06-08 10:09:10</time>
      </trkpt>
      <trkpt lat="43.08815" lon="-0.42421">
        <ele>409.4</ele>
        <time>2022-06-08 10:09:11</time>
      </trkpt>
      <trkpt lat="43.08815" lon="-0.42421">
        <ele>410.2</ele>
        <time>2022-06-08 10:09:12</time>
      </trkpt>
      <trkpt lat="43.08804" lon="-0.42409">
        <ele>410.2</ele>
        <time>2022-06-08 10:09:13</time>
      </trkpt>
      <trkpt lat="43.08804" lon="-0.42409">
        <ele>410.4</ele>
        <time>2022-06-08 10:09:14</time>
      </trkpt>
      <trkpt lat="43.088" lon="-0.42404">
        <ele>410.2</ele>
        <time>2022-06-08 10:09:15</time>
      </trkpt>
      <trkpt lat="43.0879" lon="-0.42392">
        <ele>410.2</ele>
        <time>2022-06-08 10:09:16</time>
      </trkpt>
      <trkpt lat="43.08784" lon="-0.42386">
        <ele>410.4</ele>
        <time>2022-06-08 10:09:17</time>
      </trkpt>
      <trkpt lat="43.08779" lon="-0.4238">
        <ele>410.4</ele>
        <time>2022-06-08 10:09:18</time>
      </trkpt>
      <trkpt lat="43.08779" lon="-0.4238">
        <ele>410.4</ele>
        <time>2022-06-08 10:09:19</time>
      </trkpt>
      <trkpt lat="43.08774" lon="-0.42375">
        <ele>410.4</ele>
        <time>2022-06-08 10:09:20</time>
      </trkpt>
      <trkpt lat="43.08769" lon="-0.4237">
        <ele>410.4</ele>
        <time>2022-06-08 10:09:21</time>
      </trkpt>
      <trkpt lat="43.08759" lon="-0.42359">
        <ele>410.4</ele>
        <time>2022-06-08 10:09:22</time>
      </trkpt>
      <trkpt lat="43.08759" lon="-0.42359">
        <ele>410.4</ele>
        <time>2022-06-08 10:09:23</time>
      </trkpt>
      <trkpt lat="43.08754" lon="-0.42353">
        <ele>410.2</ele>
        <time>2022-06-08 10:09:24</time>
      </trkpt>
      <trkpt lat="43.08749" lon="-0.42349">
        <ele>410.4</ele>
        <time>2022-06-08 10:09:25</time>
      </trkpt>
      <trkpt lat="43.08743" lon="-0.42344">
        <ele>410.4</ele>
        <time>2022-06-08 10:09:26</time>
      </trkpt>
      <trkpt lat="43.08737" lon="-0.4234">
        <ele>410.6</ele>
        <time>2022-06-08 10:09:27</time>
      </trkpt>
      <trkpt lat="43.08732" lon="-0.42336">
        <ele>410.6</ele>
        <time>2022-06-08 10:09:28</time>
      </trkpt>
      <trkpt lat="43.08726" lon="-0.42332">
        <ele>410.6</ele>
        <time>2022-06-08 10:09:29</time>
      </trkpt>
      <trkpt lat="43.0872" lon="-0.42328">
        <ele>410.6</ele>
        <time>2022-06-08 10:09:30</time>
      </trkpt>
      <trkpt lat="43.08714" lon="-0.42324">
        <ele>410.8</ele>
        <time>2022-06-08 10:09:31</time>
      </trkpt>
      <trkpt lat="43.08708" lon="-0.42318">
        <ele>410.8</ele>
        <time>2022-06-08 10:09:32</time>
      </trkpt>
      <trkpt lat="43.08697" lon="-0.42309">
        <ele>410.8</ele>
        <time>2022-06-08 10:09:33</time>
      </trkpt>
      <trkpt lat="43.0869" lon="-0.42304">
        <ele>410.4</ele>
        <time>2022-06-08 10:09:34</time>
      </trkpt>
      <trkpt lat="43.0869" lon="-0.42304">
        <ele>410.4</ele>
        <time>2022-06-08 10:09:35</time>
      </trkpt>
      <trkpt lat="43.08686" lon="-0.42301">
        <ele>410.4</ele>
        <time>2022-06-08 10:09:36</time>
      </trkpt>
      <trkpt lat="43.0868" lon="-0.42296">
        <ele>410.6</ele>
        <time>2022-06-08 10:09:37</time>
      </trkpt>
      <trkpt lat="43.08674" lon="-0.42292">
        <ele>410.8</ele>
        <time>2022-06-08 10:09:38</time>
      </trkpt>
      <trkpt lat="43.08662" lon="-0.42285">
        <ele>410.8</ele>
        <time>2022-06-08 10:09:39</time>
      </trkpt>
      <trkpt lat="43.08662" lon="-0.42285">
        <ele>410.8</ele>
        <time>2022-06-08 10:09:40</time>
      </trkpt>
      <trkpt lat="43.08656" lon="-0.42281">
        <ele>411</ele>
        <time>2022-06-08 10:09:41</time>
      </trkpt>
      <trkpt lat="43.0865" lon="-0.42278">
        <ele>411</ele>
        <time>2022-06-08 10:09:42</time>
      </trkpt>
      <trkpt lat="43.08639" lon="-0.4227">
        <ele>411</ele>
        <time>2022-06-08 10:09:43</time>
      </trkpt>
      <trkpt lat="43.08632" lon="-0.42266">
        <ele>411.2</ele>
        <time>2022-06-08 10:09:44</time>
      </trkpt>
      <trkpt lat="43.08632" lon="-0.42266">
        <ele>411.2</ele>
        <time>2022-06-08 10:09:45</time>
      </trkpt>
      <trkpt lat="43.08622" lon="-0.4226">
        <ele>411.2</ele>
        <time>2022-06-08 10:09:46</time>
      </trkpt>
      <trkpt lat="43.08622" lon="-0.4226">
        <ele>411.4</ele>
        <time>2022-06-08 10:09:47</time>
      </trkpt>
      <trkpt lat="43.0861" lon="-0.42252">
        <ele>411.6</ele>
        <time>2022-06-08 10:09:48</time>
      </trkpt>
      <trkpt lat="43.08604" lon="-0.42247">
        <ele>412</ele>
        <time>2022-06-08 10:09:49</time>
      </trkpt>
      <trkpt lat="43.08599" lon="-0.42242">
        <ele>412.2</ele>
        <time>2022-06-08 10:09:50</time>
      </trkpt>
      <trkpt lat="43.08592" lon="-0.42239">
        <ele>412.2</ele>
        <time>2022-06-08 10:09:51</time>
      </trkpt>
      <trkpt lat="43.08589" lon="-0.42236">
        <ele>412.4</ele>
        <time>2022-06-08 10:09:52</time>
      </trkpt>
      <trkpt lat="43.08586" lon="-0.42233">
        <ele>412.6</ele>
        <time>2022-06-08 10:09:53</time>
      </trkpt>
      <trkpt lat="43.08586" lon="-0.42233">
        <ele>412.6</ele>
        <time>2022-06-08 10:09:54</time>
      </trkpt>
      <trkpt lat="43.08582" lon="-0.42228">
        <ele>412.6</ele>
        <time>2022-06-08 10:09:55</time>
      </trkpt>
      <trkpt lat="43.08582" lon="-0.42228">
        <ele>412.6</ele>
        <time>2022-06-08 10:09:56</time>
      </trkpt>
      <trkpt lat="43.08581" lon="-0.42225">
        <ele>412.8</ele>
        <time>2022-06-08 10:09:57</time>
      </trkpt>
      <trkpt lat="43.0858" lon="-0.42224">
        <ele>412.8</ele>
        <time>2022-06-08 10:09:58</time>
      </trkpt>
      <trkpt lat="43.0858" lon="-0.42224">
        <ele>412.8</ele>
        <time>2022-06-08 10:09:59</time>
      </trkpt>
      <trkpt lat="43.0858" lon="-0.42224">
        <ele>412.8</ele>
        <time>2022-06-08 10:10:00</time>
      </trkpt>
      <trkpt lat="43.0858" lon="-0.42224">
        <ele>412.8</ele>
        <time>2022-06-08 10:10:01</time>
      </trkpt>
      <trkpt lat="43.0858" lon="-0.42224">
        <ele>413</ele>
        <time>2022-06-08 10:10:26</time>
      </trkpt>
      <trkpt lat="43.08581" lon="-0.42217">
        <ele>413</ele>
        <time>2022-06-08 10:10:27</time>
      </trkpt>
      <trkpt lat="43.08583" lon="-0.42214">
        <ele>413</ele>
        <time>2022-06-08 10:10:28</time>
      </trkpt>
      <trkpt lat="43.08585" lon="-0.4221">
        <ele>413</ele>
        <time>2022-06-08 10:10:29</time>
      </trkpt>
      <trkpt lat="43.08585" lon="-0.4221">
        <ele>413</ele>
        <time>2022-06-08 10:10:30</time>
      </trkpt>
      <trkpt lat="43.08588" lon="-0.42205">
        <ele>413</ele>
        <time>2022-06-08 10:10:31</time>
      </trkpt>
      <trkpt lat="43.08592" lon="-0.42196">
        <ele>413</ele>
        <time>2022-06-08 10:10:32</time>
      </trkpt>
      <trkpt lat="43.08592" lon="-0.42196">
        <ele>413</ele>
        <time>2022-06-08 10:10:33</time>
      </trkpt>
      <trkpt lat="43.08594" lon="-0.4219">
        <ele>413</ele>
        <time>2022-06-08 10:10:34</time>
      </trkpt>
      <trkpt lat="43.08596" lon="-0.42184">
        <ele>413</ele>
        <time>2022-06-08 10:10:35</time>
      </trkpt>
      <trkpt lat="43.08598" lon="-0.42178">
        <ele>413</ele>
        <time>2022-06-08 10:10:36</time>
      </trkpt>
      <trkpt lat="43.08604" lon="-0.42166">
        <ele>413</ele>
        <time>2022-06-08 10:10:37</time>
      </trkpt>
      <trkpt lat="43.08604" lon="-0.42166">
        <ele>413</ele>
        <time>2022-06-08 10:10:38</time>
      </trkpt>
      <trkpt lat="43.08608" lon="-0.42158">
        <ele>413.2</ele>
        <time>2022-06-08 10:10:39</time>
      </trkpt>
      <trkpt lat="43.0861" lon="-0.42152">
        <ele>413.2</ele>
        <time>2022-06-08 10:10:40</time>
      </trkpt>
      <trkpt lat="43.08613" lon="-0.42145">
        <ele>413.4</ele>
        <time>2022-06-08 10:10:41</time>
      </trkpt>
      <trkpt lat="43.08616" lon="-0.42139">
        <ele>413.4</ele>
        <time>2022-06-08 10:10:42</time>
      </trkpt>
      <trkpt lat="43.08619" lon="-0.42133">
        <ele>413.4</ele>
        <time>2022-06-08 10:10:43</time>
      </trkpt>
      <trkpt lat="43.08623" lon="-0.42125">
        <ele>413.4</ele>
        <time>2022-06-08 10:10:44</time>
      </trkpt>
      <trkpt lat="43.08625" lon="-0.42119">
        <ele>413.4</ele>
        <time>2022-06-08 10:10:45</time>
      </trkpt>
      <trkpt lat="43.08627" lon="-0.42111">
        <ele>413.4</ele>
        <time>2022-06-08 10:10:46</time>
      </trkpt>
      <trkpt lat="43.08628" lon="-0.42103">
        <ele>413.4</ele>
        <time>2022-06-08 10:10:47</time>
      </trkpt>
      <trkpt lat="43.08628" lon="-0.42086">
        <ele>413.4</ele>
        <time>2022-06-08 10:10:48</time>
      </trkpt>
      <trkpt lat="43.08628" lon="-0.42086">
        <ele>413.2</ele>
        <time>2022-06-08 10:10:49</time>
      </trkpt>
      <trkpt lat="43.08628" lon="-0.42077">
        <ele>413</ele>
        <time>2022-06-08 10:10:50</time>
      </trkpt>
      <trkpt lat="43.08625" lon="-0.4206">
        <ele>412.8</ele>
        <time>2022-06-08 10:10:51</time>
      </trkpt>
      <trkpt lat="43.08623" lon="-0.42051">
        <ele>412.6</ele>
        <time>2022-06-08 10:10:52</time>
      </trkpt>
      <trkpt lat="43.08622" lon="-0.4204">
        <ele>412.6</ele>
        <time>2022-06-08 10:10:53</time>
      </trkpt>
      <trkpt lat="43.0862" lon="-0.42032">
        <ele>412.4</ele>
        <time>2022-06-08 10:10:54</time>
      </trkpt>
      <trkpt lat="43.08619" lon="-0.42023">
        <ele>412.4</ele>
        <time>2022-06-08 10:10:55</time>
      </trkpt>
      <trkpt lat="43.08619" lon="-0.42014">
        <ele>412.4</ele>
        <time>2022-06-08 10:10:56</time>
      </trkpt>
      <trkpt lat="43.08619" lon="-0.42006">
        <ele>412.4</ele>
        <time>2022-06-08 10:10:57</time>
      </trkpt>
      <trkpt lat="43.0862" lon="-0.41997">
        <ele>412.4</ele>
        <time>2022-06-08 10:10:58</time>
      </trkpt>
      <trkpt lat="43.08621" lon="-0.4199">
        <ele>412.4</ele>
        <time>2022-06-08 10:10:59</time>
      </trkpt>
      <trkpt lat="43.08622" lon="-0.41984">
        <ele>412.4</ele>
        <time>2022-06-08 10:11:00</time>
      </trkpt>
      <trkpt lat="43.08622" lon="-0.41979">
        <ele>412.4</ele>
        <time>2022-06-08 10:11:01</time>
      </trkpt>
      <trkpt lat="43.08622" lon="-0.41976">
        <ele>412.6</ele>
        <time>2022-06-08 10:11:02</time>
      </trkpt>
      <trkpt lat="43.08622" lon="-0.41971">
        <ele>412.6</ele>
        <time>2022-06-08 10:11:03</time>
      </trkpt>
      <trkpt lat="43.08621" lon="-0.41967">
        <ele>412.8</ele>
        <time>2022-06-08 10:11:04</time>
      </trkpt>
      <trkpt lat="43.08621" lon="-0.41967">
        <ele>413</ele>
        <time>2022-06-08 10:11:05</time>
      </trkpt>
      <trkpt lat="43.08619" lon="-0.41966">
        <ele>413.2</ele>
        <time>2022-06-08 10:11:06</time>
      </trkpt>
      <trkpt lat="43.08614" lon="-0.41964">
        <ele>413.4</ele>
        <time>2022-06-08 10:11:07</time>
      </trkpt>
      <trkpt lat="43.08612" lon="-0.41963">
        <ele>413.4</ele>
        <time>2022-06-08 10:11:08</time>
      </trkpt>
      <trkpt lat="43.08607" lon="-0.41963">
        <ele>413.6</ele>
        <time>2022-06-08 10:11:09</time>
      </trkpt>
      <trkpt lat="43.08607" lon="-0.41963">
        <ele>413.6</ele>
        <time>2022-06-08 10:11:10</time>
      </trkpt>
      <trkpt lat="43.08604" lon="-0.41963">
        <ele>413.6</ele>
        <time>2022-06-08 10:11:11</time>
      </trkpt>
      <trkpt lat="43.08601" lon="-0.41963">
        <ele>413.6</ele>
        <time>2022-06-08 10:11:12</time>
      </trkpt>
      <trkpt lat="43.08597" lon="-0.41962">
        <ele>413.6</ele>
        <time>2022-06-08 10:11:13</time>
      </trkpt>
      <trkpt lat="43.08592" lon="-0.41962">
        <ele>413.6</ele>
        <time>2022-06-08 10:11:14</time>
      </trkpt>
      <trkpt lat="43.08588" lon="-0.41961">
        <ele>413.6</ele>
        <time>2022-06-08 10:11:15</time>
      </trkpt>
      <trkpt lat="43.08583" lon="-0.41961">
        <ele>413.6</ele>
        <time>2022-06-08 10:11:16</time>
      </trkpt>
      <trkpt lat="43.08578" lon="-0.4196">
        <ele>413.6</ele>
        <time>2022-06-08 10:11:17</time>
      </trkpt>
      <trkpt lat="43.08568" lon="-0.41959">
        <ele>413.6</ele>
        <time>2022-06-08 10:11:18</time>
      </trkpt>
      <trkpt lat="43.08563" lon="-0.41959">
        <ele>413.6</ele>
        <time>2022-06-08 10:11:19</time>
      </trkpt>
      <trkpt lat="43.08563" lon="-0.41959">
        <ele>413.6</ele>
        <time>2022-06-08 10:11:20</time>
      </trkpt>
      <trkpt lat="43.08557" lon="-0.41958">
        <ele>413.6</ele>
        <time>2022-06-08 10:11:21</time>
      </trkpt>
      <trkpt lat="43.08552" lon="-0.41958">
        <ele>413.6</ele>
        <time>2022-06-08 10:11:22</time>
      </trkpt>
      <trkpt lat="43.08541" lon="-0.41957">
        <ele>413.6</ele>
        <time>2022-06-08 10:11:23</time>
      </trkpt>
      <trkpt lat="43.08541" lon="-0.41957">
        <ele>413.6</ele>
        <time>2022-06-08 10:11:24</time>
      </trkpt>
      <trkpt lat="43.0853" lon="-0.41955">
        <ele>413.6</ele>
        <time>2022-06-08 10:11:25</time>
      </trkpt>
      <trkpt lat="43.0853" lon="-0.41955">
        <ele>413.6</ele>
        <time>2022-06-08 10:11:26</time>
      </trkpt>
      <trkpt lat="43.08525" lon="-0.41955">
        <ele>413.6</ele>
        <time>2022-06-08 10:11:27</time>
      </trkpt>
      <trkpt lat="43.0852" lon="-0.41955">
        <ele>413.8</ele>
        <time>2022-06-08 10:11:28</time>
      </trkpt>
      <trkpt lat="43.08509" lon="-0.41954">
        <ele>413.8</ele>
        <time>2022-06-08 10:11:29</time>
      </trkpt>
      <trkpt lat="43.08503" lon="-0.41953">
        <ele>413.8</ele>
        <time>2022-06-08 10:11:30</time>
      </trkpt>
      <trkpt lat="43.08497" lon="-0.41952">
        <ele>413.8</ele>
        <time>2022-06-08 10:11:31</time>
      </trkpt>
      <trkpt lat="43.08497" lon="-0.41952">
        <ele>413.8</ele>
        <time>2022-06-08 10:11:32</time>
      </trkpt>
      <trkpt lat="43.08487" lon="-0.41951">
        <ele>413.6</ele>
        <time>2022-06-08 10:11:33</time>
      </trkpt>
      <trkpt lat="43.08481" lon="-0.4195">
        <ele>413.6</ele>
        <time>2022-06-08 10:11:34</time>
      </trkpt>
      <trkpt lat="43.08474" lon="-0.41949">
        <ele>413.6</ele>
        <time>2022-06-08 10:11:35</time>
      </trkpt>
      <trkpt lat="43.08474" lon="-0.41949">
        <ele>413.6</ele>
        <time>2022-06-08 10:11:36</time>
      </trkpt>
      <trkpt lat="43.08469" lon="-0.41948">
        <ele>413.4</ele>
        <time>2022-06-08 10:11:37</time>
      </trkpt>
      <trkpt lat="43.08457" lon="-0.41946">
        <ele>413.6</ele>
        <time>2022-06-08 10:11:38</time>
      </trkpt>
      <trkpt lat="43.08452" lon="-0.41945">
        <ele>413.4</ele>
        <time>2022-06-08 10:11:39</time>
      </trkpt>
      <trkpt lat="43.08446" lon="-0.41945">
        <ele>413.4</ele>
        <time>2022-06-08 10:11:40</time>
      </trkpt>
      <trkpt lat="43.08446" lon="-0.41945">
        <ele>413.4</ele>
        <time>2022-06-08 10:11:41</time>
      </trkpt>
      <trkpt lat="43.08441" lon="-0.41944">
        <ele>413.4</ele>
        <time>2022-06-08 10:11:42</time>
      </trkpt>
      <trkpt lat="43.08436" lon="-0.41943">
        <ele>413.4</ele>
        <time>2022-06-08 10:11:43</time>
      </trkpt>
      <trkpt lat="43.08431" lon="-0.41942">
        <ele>413.4</ele>
        <time>2022-06-08 10:11:44</time>
      </trkpt>
      <trkpt lat="43.08426" lon="-0.41941">
        <ele>413.4</ele>
        <time>2022-06-08 10:11:45</time>
      </trkpt>
      <trkpt lat="43.08421" lon="-0.4194">
        <ele>413.4</ele>
        <time>2022-06-08 10:11:46</time>
      </trkpt>
      <trkpt lat="43.08415" lon="-0.41939">
        <ele>413.4</ele>
        <time>2022-06-08 10:11:47</time>
      </trkpt>
      <trkpt lat="43.0841" lon="-0.41938">
        <ele>413.6</ele>
        <time>2022-06-08 10:11:48</time>
      </trkpt>
      <trkpt lat="43.08406" lon="-0.41938">
        <ele>413.6</ele>
        <time>2022-06-08 10:11:49</time>
      </trkpt>
      <trkpt lat="43.08403" lon="-0.41938">
        <ele>413.8</ele>
        <time>2022-06-08 10:11:50</time>
      </trkpt>
      <trkpt lat="43.08399" lon="-0.41937">
        <ele>413.8</ele>
        <time>2022-06-08 10:11:51</time>
      </trkpt>
      <trkpt lat="43.08399" lon="-0.41937">
        <ele>414</ele>
        <time>2022-06-08 10:11:52</time>
      </trkpt>
      <trkpt lat="43.08396" lon="-0.41937">
        <ele>414</ele>
        <time>2022-06-08 10:11:53</time>
      </trkpt>
      <trkpt lat="43.08395" lon="-0.41936">
        <ele>414</ele>
        <time>2022-06-08 10:11:54</time>
      </trkpt>
      <trkpt lat="43.0839" lon="-0.41935">
        <ele>414.2</ele>
        <time>2022-06-08 10:11:55</time>
      </trkpt>
      <trkpt lat="43.08387" lon="-0.41934">
        <ele>414.4</ele>
        <time>2022-06-08 10:11:56</time>
      </trkpt>
      <trkpt lat="43.08383" lon="-0.41933">
        <ele>414.4</ele>
        <time>2022-06-08 10:11:57</time>
      </trkpt>
      <trkpt lat="43.0838" lon="-0.41933">
        <ele>414.2</ele>
        <time>2022-06-08 10:11:58</time>
      </trkpt>
      <trkpt lat="43.08375" lon="-0.41933">
        <ele>414.4</ele>
        <time>2022-06-08 10:11:59</time>
      </trkpt>
      <trkpt lat="43.0837" lon="-0.41933">
        <ele>414.2</ele>
        <time>2022-06-08 10:12:00</time>
      </trkpt>
      <trkpt lat="43.08364" lon="-0.41933">
        <ele>414.2</ele>
        <time>2022-06-08 10:12:01</time>
      </trkpt>
      <trkpt lat="43.08359" lon="-0.41933">
        <ele>414</ele>
        <time>2022-06-08 10:12:02</time>
      </trkpt>
      <trkpt lat="43.08353" lon="-0.41933">
        <ele>414</ele>
        <time>2022-06-08 10:12:03</time>
      </trkpt>
      <trkpt lat="43.08348" lon="-0.41932">
        <ele>413.8</ele>
        <time>2022-06-08 10:12:04</time>
      </trkpt>
      <trkpt lat="43.08348" lon="-0.41932">
        <ele>413.8</ele>
        <time>2022-06-08 10:12:05</time>
      </trkpt>
      <trkpt lat="43.08338" lon="-0.41929">
        <ele>413.6</ele>
        <time>2022-06-08 10:12:06</time>
      </trkpt>
      <trkpt lat="43.08332" lon="-0.41925">
        <ele>413.4</ele>
        <time>2022-06-08 10:12:07</time>
      </trkpt>
      <trkpt lat="43.08332" lon="-0.41925">
        <ele>413.4</ele>
        <time>2022-06-08 10:12:08</time>
      </trkpt>
      <trkpt lat="43.08321" lon="-0.41917">
        <ele>413.4</ele>
        <time>2022-06-08 10:12:09</time>
      </trkpt>
      <trkpt lat="43.08317" lon="-0.41914">
        <ele>413.4</ele>
        <time>2022-06-08 10:12:10</time>
      </trkpt>
      <trkpt lat="43.08311" lon="-0.4191">
        <ele>413.2</ele>
        <time>2022-06-08 10:12:11</time>
      </trkpt>
      <trkpt lat="43.08307" lon="-0.41906">
        <ele>413.2</ele>
        <time>2022-06-08 10:12:12</time>
      </trkpt>
      <trkpt lat="43.08302" lon="-0.41902">
        <ele>413.2</ele>
        <time>2022-06-08 10:12:13</time>
      </trkpt>
      <trkpt lat="43.08297" lon="-0.41899">
        <ele>413.2</ele>
        <time>2022-06-08 10:12:14</time>
      </trkpt>
      <trkpt lat="43.08293" lon="-0.41896">
        <ele>413.2</ele>
        <time>2022-06-08 10:12:15</time>
      </trkpt>
      <trkpt lat="43.08288" lon="-0.41891">
        <ele>413.2</ele>
        <time>2022-06-08 10:12:16</time>
      </trkpt>
      <trkpt lat="43.08283" lon="-0.41888">
        <ele>413.2</ele>
        <time>2022-06-08 10:12:17</time>
      </trkpt>
      <trkpt lat="43.08279" lon="-0.41885">
        <ele>413.4</ele>
        <time>2022-06-08 10:12:18</time>
      </trkpt>
      <trkpt lat="43.08274" lon="-0.41882">
        <ele>413.4</ele>
        <time>2022-06-08 10:12:19</time>
      </trkpt>
      <trkpt lat="43.08268" lon="-0.4188">
        <ele>413.6</ele>
        <time>2022-06-08 10:12:20</time>
      </trkpt>
      <trkpt lat="43.08263" lon="-0.41879">
        <ele>413.6</ele>
        <time>2022-06-08 10:12:21</time>
      </trkpt>
      <trkpt lat="43.08259" lon="-0.41878">
        <ele>413.6</ele>
        <time>2022-06-08 10:12:22</time>
      </trkpt>
      <trkpt lat="43.08252" lon="-0.41878">
        <ele>413.6</ele>
        <time>2022-06-08 10:12:23</time>
      </trkpt>
      <trkpt lat="43.08246" lon="-0.41878">
        <ele>413.8</ele>
        <time>2022-06-08 10:12:24</time>
      </trkpt>
      <trkpt lat="43.08241" lon="-0.41879">
        <ele>413.8</ele>
        <time>2022-06-08 10:12:25</time>
      </trkpt>
      <trkpt lat="43.08235" lon="-0.41881">
        <ele>413.8</ele>
        <time>2022-06-08 10:12:26</time>
      </trkpt>
      <trkpt lat="43.08229" lon="-0.41882">
        <ele>413.8</ele>
        <time>2022-06-08 10:12:27</time>
      </trkpt>
      <trkpt lat="43.08224" lon="-0.41883">
        <ele>414</ele>
        <time>2022-06-08 10:12:28</time>
      </trkpt>
      <trkpt lat="43.08218" lon="-0.41885">
        <ele>414</ele>
        <time>2022-06-08 10:12:29</time>
      </trkpt>
      <trkpt lat="43.08213" lon="-0.41885">
        <ele>414</ele>
        <time>2022-06-08 10:12:30</time>
      </trkpt>
      <trkpt lat="43.08206" lon="-0.41887">
        <ele>413.8</ele>
        <time>2022-06-08 10:12:31</time>
      </trkpt>
      <trkpt lat="43.08201" lon="-0.41888">
        <ele>413.8</ele>
        <time>2022-06-08 10:12:32</time>
      </trkpt>
      <trkpt lat="43.08195" lon="-0.41889">
        <ele>413.8</ele>
        <time>2022-06-08 10:12:33</time>
      </trkpt>
      <trkpt lat="43.0819" lon="-0.4189">
        <ele>413.8</ele>
        <time>2022-06-08 10:12:34</time>
      </trkpt>
      <trkpt lat="43.08185" lon="-0.41891">
        <ele>413.8</ele>
        <time>2022-06-08 10:12:35</time>
      </trkpt>
      <trkpt lat="43.08185" lon="-0.41891">
        <ele>413.8</ele>
        <time>2022-06-08 10:12:36</time>
      </trkpt>
      <trkpt lat="43.08176" lon="-0.41895">
        <ele>413.8</ele>
        <time>2022-06-08 10:12:37</time>
      </trkpt>
      <trkpt lat="43.08176" lon="-0.41895">
        <ele>413.8</ele>
        <time>2022-06-08 10:12:38</time>
      </trkpt>
      <trkpt lat="43.08165" lon="-0.41898">
        <ele>413.8</ele>
        <time>2022-06-08 10:12:39</time>
      </trkpt>
      <trkpt lat="43.0816" lon="-0.41899">
        <ele>413.8</ele>
        <time>2022-06-08 10:12:40</time>
      </trkpt>
      <trkpt lat="43.08156" lon="-0.419">
        <ele>413.8</ele>
        <time>2022-06-08 10:12:41</time>
      </trkpt>
      <trkpt lat="43.08156" lon="-0.419">
        <ele>413.8</ele>
        <time>2022-06-08 10:12:42</time>
      </trkpt>
      <trkpt lat="43.08145" lon="-0.41903">
        <ele>413.8</ele>
        <time>2022-06-08 10:12:43</time>
      </trkpt>
      <trkpt lat="43.08138" lon="-0.41905">
        <ele>413.8</ele>
        <time>2022-06-08 10:12:44</time>
      </trkpt>
      <trkpt lat="43.08132" lon="-0.41905">
        <ele>413.8</ele>
        <time>2022-06-08 10:12:45</time>
      </trkpt>
      <trkpt lat="43.08132" lon="-0.41905">
        <ele>413.8</ele>
        <time>2022-06-08 10:12:46</time>
      </trkpt>
      <trkpt lat="43.08121" lon="-0.41907">
        <ele>413.6</ele>
        <time>2022-06-08 10:12:47</time>
      </trkpt>
      <trkpt lat="43.08114" lon="-0.41909">
        <ele>413.6</ele>
        <time>2022-06-08 10:12:48</time>
      </trkpt>
      <trkpt lat="43.08109" lon="-0.4191">
        <ele>413.4</ele>
        <time>2022-06-08 10:12:49</time>
      </trkpt>
      <trkpt lat="43.08109" lon="-0.4191">
        <ele>413.4</ele>
        <time>2022-06-08 10:12:50</time>
      </trkpt>
      <trkpt lat="43.08103" lon="-0.41911">
        <ele>413.4</ele>
        <time>2022-06-08 10:12:51</time>
      </trkpt>
      <trkpt lat="43.08093" lon="-0.41914">
        <ele>413.4</ele>
        <time>2022-06-08 10:12:52</time>
      </trkpt>
      <trkpt lat="43.08089" lon="-0.41915">
        <ele>413.6</ele>
        <time>2022-06-08 10:12:53</time>
      </trkpt>
      <trkpt lat="43.08083" lon="-0.41916">
        <ele>413.6</ele>
        <time>2022-06-08 10:12:54</time>
      </trkpt>
      <trkpt lat="43.08078" lon="-0.41918">
        <ele>413.4</ele>
        <time>2022-06-08 10:12:55</time>
      </trkpt>
      <trkpt lat="43.08073" lon="-0.41919">
        <ele>413.6</ele>
        <time>2022-06-08 10:12:56</time>
      </trkpt>
      <trkpt lat="43.08068" lon="-0.41921">
        <ele>413.6</ele>
        <time>2022-06-08 10:12:57</time>
      </trkpt>
      <trkpt lat="43.08063" lon="-0.41923">
        <ele>413.8</ele>
        <time>2022-06-08 10:12:58</time>
      </trkpt>
      <trkpt lat="43.08058" lon="-0.41924">
        <ele>413.8</ele>
        <time>2022-06-08 10:12:59</time>
      </trkpt>
      <trkpt lat="43.08053" lon="-0.41926">
        <ele>414</ele>
        <time>2022-06-08 10:13:00</time>
      </trkpt>
      <trkpt lat="43.08053" lon="-0.41926">
        <ele>414</ele>
        <time>2022-06-08 10:13:01</time>
      </trkpt>
      <trkpt lat="43.08044" lon="-0.41929">
        <ele>414</ele>
        <time>2022-06-08 10:13:02</time>
      </trkpt>
      <trkpt lat="43.08039" lon="-0.4193">
        <ele>414</ele>
        <time>2022-06-08 10:13:03</time>
      </trkpt>
      <trkpt lat="43.08033" lon="-0.41931">
        <ele>414</ele>
        <time>2022-06-08 10:13:04</time>
      </trkpt>
      <trkpt lat="43.08027" lon="-0.41932">
        <ele>414</ele>
        <time>2022-06-08 10:13:05</time>
      </trkpt>
      <trkpt lat="43.08022" lon="-0.41934">
        <ele>414</ele>
        <time>2022-06-08 10:13:06</time>
      </trkpt>
      <trkpt lat="43.08016" lon="-0.41936">
        <ele>413.8</ele>
        <time>2022-06-08 10:13:07</time>
      </trkpt>
      <trkpt lat="43.08011" lon="-0.41937">
        <ele>413.8</ele>
        <time>2022-06-08 10:13:08</time>
      </trkpt>
      <trkpt lat="43.08006" lon="-0.41938">
        <ele>413.8</ele>
        <time>2022-06-08 10:13:09</time>
      </trkpt>
      <trkpt lat="43.08001" lon="-0.41939">
        <ele>413.8</ele>
        <time>2022-06-08 10:13:10</time>
      </trkpt>
      <trkpt lat="43.07996" lon="-0.4194">
        <ele>413.8</ele>
        <time>2022-06-08 10:13:11</time>
      </trkpt>
      <trkpt lat="43.07991" lon="-0.41941">
        <ele>413.8</ele>
        <time>2022-06-08 10:13:12</time>
      </trkpt>
      <trkpt lat="43.07986" lon="-0.41941">
        <ele>413.8</ele>
        <time>2022-06-08 10:13:13</time>
      </trkpt>
      <trkpt lat="43.07982" lon="-0.41941">
        <ele>413.8</ele>
        <time>2022-06-08 10:13:14</time>
      </trkpt>
      <trkpt lat="43.07977" lon="-0.41941">
        <ele>414</ele>
        <time>2022-06-08 10:13:15</time>
      </trkpt>
      <trkpt lat="43.07972" lon="-0.41941">
        <ele>414</ele>
        <time>2022-06-08 10:13:16</time>
      </trkpt>
      <trkpt lat="43.07972" lon="-0.41941">
        <ele>414</ele>
        <time>2022-06-08 10:13:17</time>
      </trkpt>
      <trkpt lat="43.07966" lon="-0.41941">
        <ele>414</ele>
        <time>2022-06-08 10:13:18</time>
      </trkpt>
      <trkpt lat="43.07957" lon="-0.41942">
        <ele>414</ele>
        <time>2022-06-08 10:13:19</time>
      </trkpt>
      <trkpt lat="43.07951" lon="-0.41942">
        <ele>414</ele>
        <time>2022-06-08 10:13:20</time>
      </trkpt>
      <trkpt lat="43.07945" lon="-0.41942">
        <ele>414.2</ele>
        <time>2022-06-08 10:13:21</time>
      </trkpt>
      <trkpt lat="43.07939" lon="-0.41942">
        <ele>414.2</ele>
        <time>2022-06-08 10:13:22</time>
      </trkpt>
      <trkpt lat="43.07934" lon="-0.41941">
        <ele>414.2</ele>
        <time>2022-06-08 10:13:23</time>
      </trkpt>
      <trkpt lat="43.07929" lon="-0.41942">
        <ele>414.2</ele>
        <time>2022-06-08 10:13:24</time>
      </trkpt>
      <trkpt lat="43.07924" lon="-0.41942">
        <ele>414.2</ele>
        <time>2022-06-08 10:13:25</time>
      </trkpt>
      <trkpt lat="43.07918" lon="-0.41943">
        <ele>414.4</ele>
        <time>2022-06-08 10:13:26</time>
      </trkpt>
      <trkpt lat="43.07913" lon="-0.41944">
        <ele>414.6</ele>
        <time>2022-06-08 10:13:27</time>
      </trkpt>
      <trkpt lat="43.07907" lon="-0.41945">
        <ele>414.6</ele>
        <time>2022-06-08 10:13:28</time>
      </trkpt>
      <trkpt lat="43.07902" lon="-0.41946">
        <ele>414.8</ele>
        <time>2022-06-08 10:13:29</time>
      </trkpt>
      <trkpt lat="43.07896" lon="-0.41947">
        <ele>414.8</ele>
        <time>2022-06-08 10:13:30</time>
      </trkpt>
      <trkpt lat="43.0789" lon="-0.41948">
        <ele>414.8</ele>
        <time>2022-06-08 10:13:31</time>
      </trkpt>
      <trkpt lat="43.07885" lon="-0.4195">
        <ele>414.8</ele>
        <time>2022-06-08 10:13:32</time>
      </trkpt>
      <trkpt lat="43.07879" lon="-0.41951">
        <ele>414.8</ele>
        <time>2022-06-08 10:13:33</time>
      </trkpt>
      <trkpt lat="43.07873" lon="-0.41953">
        <ele>414.8</ele>
        <time>2022-06-08 10:13:34</time>
      </trkpt>
      <trkpt lat="43.07868" lon="-0.41954">
        <ele>414.8</ele>
        <time>2022-06-08 10:13:35</time>
      </trkpt>
      <trkpt lat="43.07862" lon="-0.41956">
        <ele>415</ele>
        <time>2022-06-08 10:13:36</time>
      </trkpt>
      <trkpt lat="43.07856" lon="-0.41957">
        <ele>415</ele>
        <time>2022-06-08 10:13:37</time>
      </trkpt>
      <trkpt lat="43.0785" lon="-0.41959">
        <ele>415</ele>
        <time>2022-06-08 10:13:38</time>
      </trkpt>
      <trkpt lat="43.07845" lon="-0.41961">
        <ele>415</ele>
        <time>2022-06-08 10:13:39</time>
      </trkpt>
      <trkpt lat="43.07838" lon="-0.41962">
        <ele>415</ele>
        <time>2022-06-08 10:13:40</time>
      </trkpt>
      <trkpt lat="43.07833" lon="-0.41962">
        <ele>415</ele>
        <time>2022-06-08 10:13:41</time>
      </trkpt>
      <trkpt lat="43.07827" lon="-0.41962">
        <ele>415</ele>
        <time>2022-06-08 10:13:42</time>
      </trkpt>
      <trkpt lat="43.07821" lon="-0.41961">
        <ele>415</ele>
        <time>2022-06-08 10:13:43</time>
      </trkpt>
      <trkpt lat="43.07816" lon="-0.4196">
        <ele>415.2</ele>
        <time>2022-06-08 10:13:44</time>
      </trkpt>
      <trkpt lat="43.0781" lon="-0.41958">
        <ele>415.2</ele>
        <time>2022-06-08 10:13:45</time>
      </trkpt>
      <trkpt lat="43.07805" lon="-0.41956">
        <ele>415.2</ele>
        <time>2022-06-08 10:13:46</time>
      </trkpt>
      <trkpt lat="43.078" lon="-0.41954">
        <ele>415.2</ele>
        <time>2022-06-08 10:13:47</time>
      </trkpt>
      <trkpt lat="43.07794" lon="-0.41951">
        <ele>415.2</ele>
        <time>2022-06-08 10:13:48</time>
      </trkpt>
      <trkpt lat="43.0779" lon="-0.4195">
        <ele>415.4</ele>
        <time>2022-06-08 10:13:49</time>
      </trkpt>
      <trkpt lat="43.07784" lon="-0.41948">
        <ele>415.6</ele>
        <time>2022-06-08 10:13:50</time>
      </trkpt>
      <trkpt lat="43.07779" lon="-0.41946">
        <ele>415.6</ele>
        <time>2022-06-08 10:13:51</time>
      </trkpt>
      <trkpt lat="43.07774" lon="-0.41943">
        <ele>416</ele>
        <time>2022-06-08 10:13:52</time>
      </trkpt>
      <trkpt lat="43.0777" lon="-0.41941">
        <ele>416</ele>
        <time>2022-06-08 10:13:53</time>
      </trkpt>
      <trkpt lat="43.07765" lon="-0.41939">
        <ele>416.2</ele>
        <time>2022-06-08 10:13:54</time>
      </trkpt>
      <trkpt lat="43.07761" lon="-0.41937">
        <ele>416.4</ele>
        <time>2022-06-08 10:13:55</time>
      </trkpt>
      <trkpt lat="43.07757" lon="-0.41935">
        <ele>416.8</ele>
        <time>2022-06-08 10:13:56</time>
      </trkpt>
      <trkpt lat="43.07753" lon="-0.41933">
        <ele>417</ele>
        <time>2022-06-08 10:13:57</time>
      </trkpt>
      <trkpt lat="43.07749" lon="-0.41932">
        <ele>417.2</ele>
        <time>2022-06-08 10:13:58</time>
      </trkpt>
      <trkpt lat="43.07746" lon="-0.4193">
        <ele>418</ele>
        <time>2022-06-08 10:13:59</time>
      </trkpt>
      <trkpt lat="43.07742" lon="-0.41928">
        <ele>418.2</ele>
        <time>2022-06-08 10:14:00</time>
      </trkpt>
      <trkpt lat="43.07739" lon="-0.41926">
        <ele>418.4</ele>
        <time>2022-06-08 10:14:01</time>
      </trkpt>
      <trkpt lat="43.07735" lon="-0.41923">
        <ele>418.6</ele>
        <time>2022-06-08 10:14:02</time>
      </trkpt>
      <trkpt lat="43.07731" lon="-0.41921">
        <ele>419</ele>
        <time>2022-06-08 10:14:03</time>
      </trkpt>
      <trkpt lat="43.07728" lon="-0.41918">
        <ele>419.2</ele>
        <time>2022-06-08 10:14:04</time>
      </trkpt>
      <trkpt lat="43.07724" lon="-0.41915">
        <ele>419.4</ele>
        <time>2022-06-08 10:14:05</time>
      </trkpt>
      <trkpt lat="43.0772" lon="-0.41913">
        <ele>419.6</ele>
        <time>2022-06-08 10:14:06</time>
      </trkpt>
      <trkpt lat="43.07716" lon="-0.4191">
        <ele>420.4</ele>
        <time>2022-06-08 10:14:07</time>
      </trkpt>
      <trkpt lat="43.07714" lon="-0.41908">
        <ele>420.6</ele>
        <time>2022-06-08 10:14:08</time>
      </trkpt>
      <trkpt lat="43.0771" lon="-0.41906">
        <ele>421.4</ele>
        <time>2022-06-08 10:14:09</time>
      </trkpt>
      <trkpt lat="43.07706" lon="-0.41904">
        <ele>422</ele>
        <time>2022-06-08 10:14:10</time>
      </trkpt>
      <trkpt lat="43.07703" lon="-0.41901">
        <ele>422.4</ele>
        <time>2022-06-08 10:14:11</time>
      </trkpt>
      <trkpt lat="43.077" lon="-0.41898">
        <ele>422.8</ele>
        <time>2022-06-08 10:14:12</time>
      </trkpt>
      <trkpt lat="43.07697" lon="-0.41895">
        <ele>422.8</ele>
        <time>2022-06-08 10:14:13</time>
      </trkpt>
      <trkpt lat="43.07694" lon="-0.41893">
        <ele>423</ele>
        <time>2022-06-08 10:14:14</time>
      </trkpt>
      <trkpt lat="43.07691" lon="-0.4189">
        <ele>423.2</ele>
        <time>2022-06-08 10:14:15</time>
      </trkpt>
      <trkpt lat="43.07689" lon="-0.41887">
        <ele>423.2</ele>
        <time>2022-06-08 10:14:16</time>
      </trkpt>
      <trkpt lat="43.07686" lon="-0.41884">
        <ele>423.6</ele>
        <time>2022-06-08 10:14:17</time>
      </trkpt>
      <trkpt lat="43.07683" lon="-0.41881">
        <ele>423.8</ele>
        <time>2022-06-08 10:14:18</time>
      </trkpt>
      <trkpt lat="43.07679" lon="-0.41878">
        <ele>423.8</ele>
        <time>2022-06-08 10:14:19</time>
      </trkpt>
      <trkpt lat="43.07676" lon="-0.41875">
        <ele>424</ele>
        <time>2022-06-08 10:14:20</time>
      </trkpt>
      <trkpt lat="43.07671" lon="-0.41872">
        <ele>424.2</ele>
        <time>2022-06-08 10:14:21</time>
      </trkpt>
      <trkpt lat="43.07667" lon="-0.41871">
        <ele>424.2</ele>
        <time>2022-06-08 10:14:22</time>
      </trkpt>
      <trkpt lat="43.07662" lon="-0.4187">
        <ele>424.2</ele>
        <time>2022-06-08 10:14:23</time>
      </trkpt>
      <trkpt lat="43.07656" lon="-0.41869">
        <ele>424.2</ele>
        <time>2022-06-08 10:14:24</time>
      </trkpt>
      <trkpt lat="43.07651" lon="-0.41868">
        <ele>424.4</ele>
        <time>2022-06-08 10:14:25</time>
      </trkpt>
      <trkpt lat="43.07646" lon="-0.4187">
        <ele>424.4</ele>
        <time>2022-06-08 10:14:26</time>
      </trkpt>
      <trkpt lat="43.07641" lon="-0.41871">
        <ele>424.4</ele>
        <time>2022-06-08 10:14:27</time>
      </trkpt>
      <trkpt lat="43.07636" lon="-0.41872">
        <ele>424.4</ele>
        <time>2022-06-08 10:14:28</time>
      </trkpt>
      <trkpt lat="43.0763" lon="-0.41873">
        <ele>424.4</ele>
        <time>2022-06-08 10:14:29</time>
      </trkpt>
      <trkpt lat="43.07626" lon="-0.41873">
        <ele>424.4</ele>
        <time>2022-06-08 10:14:30</time>
      </trkpt>
      <trkpt lat="43.07621" lon="-0.41872">
        <ele>424.4</ele>
        <time>2022-06-08 10:14:31</time>
      </trkpt>
      <trkpt lat="43.07616" lon="-0.41871">
        <ele>424.4</ele>
        <time>2022-06-08 10:14:32</time>
      </trkpt>
      <trkpt lat="43.07611" lon="-0.41869">
        <ele>424.4</ele>
        <time>2022-06-08 10:14:33</time>
      </trkpt>
      <trkpt lat="43.07606" lon="-0.41867">
        <ele>424.4</ele>
        <time>2022-06-08 10:14:34</time>
      </trkpt>
      <trkpt lat="43.07602" lon="-0.41865">
        <ele>424.4</ele>
        <time>2022-06-08 10:14:35</time>
      </trkpt>
      <trkpt lat="43.07597" lon="-0.41863">
        <ele>424.6</ele>
        <time>2022-06-08 10:14:36</time>
      </trkpt>
      <trkpt lat="43.07592" lon="-0.41861">
        <ele>424.6</ele>
        <time>2022-06-08 10:14:37</time>
      </trkpt>
      <trkpt lat="43.07586" lon="-0.41859">
        <ele>424.6</ele>
        <time>2022-06-08 10:14:38</time>
      </trkpt>
      <trkpt lat="43.07581" lon="-0.41858">
        <ele>424.8</ele>
        <time>2022-06-08 10:14:39</time>
      </trkpt>
      <trkpt lat="43.07576" lon="-0.41857">
        <ele>424.8</ele>
        <time>2022-06-08 10:14:40</time>
      </trkpt>
      <trkpt lat="43.07571" lon="-0.41856">
        <ele>424.8</ele>
        <time>2022-06-08 10:14:41</time>
      </trkpt>
      <trkpt lat="43.07566" lon="-0.41855">
        <ele>425</ele>
        <time>2022-06-08 10:14:42</time>
      </trkpt>
      <trkpt lat="43.07561" lon="-0.41854">
        <ele>425</ele>
        <time>2022-06-08 10:14:43</time>
      </trkpt>
      <trkpt lat="43.07556" lon="-0.41853">
        <ele>425</ele>
        <time>2022-06-08 10:14:44</time>
      </trkpt>
      <trkpt lat="43.07551" lon="-0.41852">
        <ele>425</ele>
        <time>2022-06-08 10:14:45</time>
      </trkpt>
      <trkpt lat="43.07546" lon="-0.4185">
        <ele>425.2</ele>
        <time>2022-06-08 10:14:46</time>
      </trkpt>
      <trkpt lat="43.07541" lon="-0.41848">
        <ele>425.2</ele>
        <time>2022-06-08 10:14:47</time>
      </trkpt>
      <trkpt lat="43.07537" lon="-0.41844">
        <ele>425.2</ele>
        <time>2022-06-08 10:14:48</time>
      </trkpt>
      <trkpt lat="43.07532" lon="-0.41841">
        <ele>425.4</ele>
        <time>2022-06-08 10:14:49</time>
      </trkpt>
      <trkpt lat="43.07528" lon="-0.41837">
        <ele>425.4</ele>
        <time>2022-06-08 10:14:50</time>
      </trkpt>
      <trkpt lat="43.07523" lon="-0.41834">
        <ele>425.6</ele>
        <time>2022-06-08 10:14:51</time>
      </trkpt>
      <trkpt lat="43.07519" lon="-0.4183">
        <ele>425.6</ele>
        <time>2022-06-08 10:14:52</time>
      </trkpt>
      <trkpt lat="43.07515" lon="-0.41825">
        <ele>425.6</ele>
        <time>2022-06-08 10:14:53</time>
      </trkpt>
      <trkpt lat="43.07512" lon="-0.41821">
        <ele>425.8</ele>
        <time>2022-06-08 10:14:54</time>
      </trkpt>
      <trkpt lat="43.07508" lon="-0.41816">
        <ele>426</ele>
        <time>2022-06-08 10:14:55</time>
      </trkpt>
      <trkpt lat="43.07505" lon="-0.41812">
        <ele>426</ele>
        <time>2022-06-08 10:14:56</time>
      </trkpt>
      <trkpt lat="43.07502" lon="-0.41807">
        <ele>426.2</ele>
        <time>2022-06-08 10:14:57</time>
      </trkpt>
      <trkpt lat="43.07498" lon="-0.41803">
        <ele>426.2</ele>
        <time>2022-06-08 10:14:58</time>
      </trkpt>
      <trkpt lat="43.07494" lon="-0.41799">
        <ele>426.2</ele>
        <time>2022-06-08 10:14:59</time>
      </trkpt>
      <trkpt lat="43.0749" lon="-0.41794">
        <ele>426.2</ele>
        <time>2022-06-08 10:15:00</time>
      </trkpt>
      <trkpt lat="43.07486" lon="-0.4179">
        <ele>426.4</ele>
        <time>2022-06-08 10:15:01</time>
      </trkpt>
      <trkpt lat="43.07482" lon="-0.41786">
        <ele>426.4</ele>
        <time>2022-06-08 10:15:02</time>
      </trkpt>
      <trkpt lat="43.07477" lon="-0.41781">
        <ele>426.4</ele>
        <time>2022-06-08 10:15:03</time>
      </trkpt>
      <trkpt lat="43.07473" lon="-0.41776">
        <ele>426.6</ele>
        <time>2022-06-08 10:15:04</time>
      </trkpt>
      <trkpt lat="43.07469" lon="-0.41772">
        <ele>426.8</ele>
        <time>2022-06-08 10:15:05</time>
      </trkpt>
      <trkpt lat="43.07465" lon="-0.41769">
        <ele>427</ele>
        <time>2022-06-08 10:15:06</time>
      </trkpt>
      <trkpt lat="43.07461" lon="-0.41764">
        <ele>427.2</ele>
        <time>2022-06-08 10:15:07</time>
      </trkpt>
      <trkpt lat="43.07457" lon="-0.41761">
        <ele>427.4</ele>
        <time>2022-06-08 10:15:08</time>
      </trkpt>
      <trkpt lat="43.07451" lon="-0.41759">
        <ele>427.4</ele>
        <time>2022-06-08 10:15:09</time>
      </trkpt>
      <trkpt lat="43.07446" lon="-0.41756">
        <ele>427.6</ele>
        <time>2022-06-08 10:15:10</time>
      </trkpt>
      <trkpt lat="43.07441" lon="-0.41754">
        <ele>427.6</ele>
        <time>2022-06-08 10:15:11</time>
      </trkpt>
      <trkpt lat="43.07437" lon="-0.41751">
        <ele>427.8</ele>
        <time>2022-06-08 10:15:12</time>
      </trkpt>
      <trkpt lat="43.07432" lon="-0.41747">
        <ele>428</ele>
        <time>2022-06-08 10:15:13</time>
      </trkpt>
      <trkpt lat="43.07428" lon="-0.41743">
        <ele>428.2</ele>
        <time>2022-06-08 10:15:14</time>
      </trkpt>
      <trkpt lat="43.07424" lon="-0.41739">
        <ele>428.4</ele>
        <time>2022-06-08 10:15:15</time>
      </trkpt>
      <trkpt lat="43.07421" lon="-0.41732">
        <ele>428.4</ele>
        <time>2022-06-08 10:15:16</time>
      </trkpt>
      <trkpt lat="43.07418" lon="-0.41725">
        <ele>428.6</ele>
        <time>2022-06-08 10:15:17</time>
      </trkpt>
      <trkpt lat="43.07416" lon="-0.41719">
        <ele>428.8</ele>
        <time>2022-06-08 10:15:18</time>
      </trkpt>
      <trkpt lat="43.07412" lon="-0.41712">
        <ele>429</ele>
        <time>2022-06-08 10:15:19</time>
      </trkpt>
      <trkpt lat="43.07409" lon="-0.41706">
        <ele>429.2</ele>
        <time>2022-06-08 10:15:20</time>
      </trkpt>
      <trkpt lat="43.07406" lon="-0.417">
        <ele>429.2</ele>
        <time>2022-06-08 10:15:21</time>
      </trkpt>
      <trkpt lat="43.07404" lon="-0.41692">
        <ele>429.4</ele>
        <time>2022-06-08 10:15:22</time>
      </trkpt>
      <trkpt lat="43.07401" lon="-0.41687">
        <ele>429.6</ele>
        <time>2022-06-08 10:15:23</time>
      </trkpt>
      <trkpt lat="43.07395" lon="-0.41683">
        <ele>429.6</ele>
        <time>2022-06-08 10:15:24</time>
      </trkpt>
      <trkpt lat="43.07391" lon="-0.41679">
        <ele>429.8</ele>
        <time>2022-06-08 10:15:25</time>
      </trkpt>
      <trkpt lat="43.07386" lon="-0.41675">
        <ele>429.8</ele>
        <time>2022-06-08 10:15:26</time>
      </trkpt>
      <trkpt lat="43.07382" lon="-0.41672">
        <ele>429.8</ele>
        <time>2022-06-08 10:15:27</time>
      </trkpt>
      <trkpt lat="43.07378" lon="-0.41668">
        <ele>429.8</ele>
        <time>2022-06-08 10:15:28</time>
      </trkpt>
      <trkpt lat="43.07373" lon="-0.41663">
        <ele>430</ele>
        <time>2022-06-08 10:15:29</time>
      </trkpt>
      <trkpt lat="43.07368" lon="-0.41659">
        <ele>430</ele>
        <time>2022-06-08 10:15:30</time>
      </trkpt>
      <trkpt lat="43.07364" lon="-0.41654">
        <ele>430</ele>
        <time>2022-06-08 10:15:31</time>
      </trkpt>
      <trkpt lat="43.07359" lon="-0.4165">
        <ele>430</ele>
        <time>2022-06-08 10:15:32</time>
      </trkpt>
      <trkpt lat="43.07354" lon="-0.41645">
        <ele>430</ele>
        <time>2022-06-08 10:15:33</time>
      </trkpt>
      <trkpt lat="43.07349" lon="-0.41641">
        <ele>430</ele>
        <time>2022-06-08 10:15:34</time>
      </trkpt>
      <trkpt lat="43.07343" lon="-0.41637">
        <ele>430</ele>
        <time>2022-06-08 10:15:35</time>
      </trkpt>
      <trkpt lat="43.07337" lon="-0.41634">
        <ele>430</ele>
        <time>2022-06-08 10:15:36</time>
      </trkpt>
      <trkpt lat="43.07332" lon="-0.41633">
        <ele>429.8</ele>
        <time>2022-06-08 10:15:37</time>
      </trkpt>
      <trkpt lat="43.07325" lon="-0.41632">
        <ele>429.6</ele>
        <time>2022-06-08 10:15:38</time>
      </trkpt>
      <trkpt lat="43.07319" lon="-0.41633">
        <ele>429.6</ele>
        <time>2022-06-08 10:15:39</time>
      </trkpt>
      <trkpt lat="43.07312" lon="-0.41635">
        <ele>429.4</ele>
        <time>2022-06-08 10:15:40</time>
      </trkpt>
      <trkpt lat="43.07308" lon="-0.41636">
        <ele>429.4</ele>
        <time>2022-06-08 10:15:41</time>
      </trkpt>
      <trkpt lat="43.073" lon="-0.41639">
        <ele>429.4</ele>
        <time>2022-06-08 10:15:42</time>
      </trkpt>
      <trkpt lat="43.07294" lon="-0.41642">
        <ele>429.4</ele>
        <time>2022-06-08 10:15:43</time>
      </trkpt>
      <trkpt lat="43.07288" lon="-0.41644">
        <ele>429.4</ele>
        <time>2022-06-08 10:15:44</time>
      </trkpt>
      <trkpt lat="43.07282" lon="-0.41646">
        <ele>429.4</ele>
        <time>2022-06-08 10:15:45</time>
      </trkpt>
      <trkpt lat="43.07276" lon="-0.41648">
        <ele>429.4</ele>
        <time>2022-06-08 10:15:46</time>
      </trkpt>
      <trkpt lat="43.0727" lon="-0.4165">
        <ele>429.4</ele>
        <time>2022-06-08 10:15:47</time>
      </trkpt>
      <trkpt lat="43.07265" lon="-0.41652">
        <ele>429</ele>
        <time>2022-06-08 10:15:48</time>
      </trkpt>
      <trkpt lat="43.07259" lon="-0.41654">
        <ele>429</ele>
        <time>2022-06-08 10:15:49</time>
      </trkpt>
      <trkpt lat="43.07252" lon="-0.41656">
        <ele>429</ele>
        <time>2022-06-08 10:15:50</time>
      </trkpt>
      <trkpt lat="43.07247" lon="-0.41657">
        <ele>429</ele>
        <time>2022-06-08 10:15:51</time>
      </trkpt>
      <trkpt lat="43.0724" lon="-0.41659">
        <ele>429</ele>
        <time>2022-06-08 10:15:52</time>
      </trkpt>
      <trkpt lat="43.07234" lon="-0.4166">
        <ele>429</ele>
        <time>2022-06-08 10:15:53</time>
      </trkpt>
      <trkpt lat="43.07228" lon="-0.41661">
        <ele>429.4</ele>
        <time>2022-06-08 10:15:54</time>
      </trkpt>
      <trkpt lat="43.07222" lon="-0.41662">
        <ele>429.4</ele>
        <time>2022-06-08 10:15:55</time>
      </trkpt>
      <trkpt lat="43.07217" lon="-0.41662">
        <ele>429.4</ele>
        <time>2022-06-08 10:15:56</time>
      </trkpt>
      <trkpt lat="43.07212" lon="-0.41663">
        <ele>429.4</ele>
        <time>2022-06-08 10:15:57</time>
      </trkpt>
      <trkpt lat="43.07206" lon="-0.41663">
        <ele>429.4</ele>
        <time>2022-06-08 10:15:58</time>
      </trkpt>
      <trkpt lat="43.07199" lon="-0.41664">
        <ele>429.6</ele>
        <time>2022-06-08 10:15:59</time>
      </trkpt>
      <trkpt lat="43.07194" lon="-0.41665">
        <ele>429.6</ele>
        <time>2022-06-08 10:16:00</time>
      </trkpt>
      <trkpt lat="43.07189" lon="-0.41666">
        <ele>429.8</ele>
        <time>2022-06-08 10:16:01</time>
      </trkpt>
      <trkpt lat="43.07183" lon="-0.41667">
        <ele>429.8</ele>
        <time>2022-06-08 10:16:02</time>
      </trkpt>
      <trkpt lat="43.07177" lon="-0.41667">
        <ele>429.8</ele>
        <time>2022-06-08 10:16:03</time>
      </trkpt>
      <trkpt lat="43.0717" lon="-0.41667">
        <ele>429.8</ele>
        <time>2022-06-08 10:16:04</time>
      </trkpt>
      <trkpt lat="43.07164" lon="-0.41667">
        <ele>429.8</ele>
        <time>2022-06-08 10:16:05</time>
      </trkpt>
      <trkpt lat="43.07158" lon="-0.41668">
        <ele>429.8</ele>
        <time>2022-06-08 10:16:06</time>
      </trkpt>
      <trkpt lat="43.07152" lon="-0.41668">
        <ele>430</ele>
        <time>2022-06-08 10:16:07</time>
      </trkpt>
      <trkpt lat="43.07147" lon="-0.41668">
        <ele>430</ele>
        <time>2022-06-08 10:16:08</time>
      </trkpt>
      <trkpt lat="43.07141" lon="-0.41669">
        <ele>430</ele>
        <time>2022-06-08 10:16:09</time>
      </trkpt>
      <trkpt lat="43.07136" lon="-0.41669">
        <ele>430.2</ele>
        <time>2022-06-08 10:16:10</time>
      </trkpt>
      <trkpt lat="43.07131" lon="-0.41669">
        <ele>430.2</ele>
        <time>2022-06-08 10:16:11</time>
      </trkpt>
      <trkpt lat="43.07127" lon="-0.4167">
        <ele>430.2</ele>
        <time>2022-06-08 10:16:12</time>
      </trkpt>
      <trkpt lat="43.07122" lon="-0.4167">
        <ele>430.4</ele>
        <time>2022-06-08 10:16:13</time>
      </trkpt>
      <trkpt lat="43.07117" lon="-0.41671">
        <ele>431</ele>
        <time>2022-06-08 10:16:14</time>
      </trkpt>
      <trkpt lat="43.07112" lon="-0.41672">
        <ele>431.2</ele>
        <time>2022-06-08 10:16:15</time>
      </trkpt>
      <trkpt lat="43.07107" lon="-0.41673">
        <ele>431.4</ele>
        <time>2022-06-08 10:16:16</time>
      </trkpt>
      <trkpt lat="43.07101" lon="-0.41674">
        <ele>431.4</ele>
        <time>2022-06-08 10:16:17</time>
      </trkpt>
      <trkpt lat="43.07096" lon="-0.41675">
        <ele>431.6</ele>
        <time>2022-06-08 10:16:18</time>
      </trkpt>
      <trkpt lat="43.0709" lon="-0.41676">
        <ele>431.6</ele>
        <time>2022-06-08 10:16:19</time>
      </trkpt>
      <trkpt lat="43.07085" lon="-0.41677">
        <ele>431.6</ele>
        <time>2022-06-08 10:16:20</time>
      </trkpt>
      <trkpt lat="43.07079" lon="-0.41678">
        <ele>431.6</ele>
        <time>2022-06-08 10:16:21</time>
      </trkpt>
      <trkpt lat="43.07073" lon="-0.41679">
        <ele>431.6</ele>
        <time>2022-06-08 10:16:22</time>
      </trkpt>
      <trkpt lat="43.07067" lon="-0.41681">
        <ele>431.4</ele>
        <time>2022-06-08 10:16:23</time>
      </trkpt>
      <trkpt lat="43.07061" lon="-0.41683">
        <ele>431.4</ele>
        <time>2022-06-08 10:16:24</time>
      </trkpt>
      <trkpt lat="43.07055" lon="-0.41684">
        <ele>431.2</ele>
        <time>2022-06-08 10:16:25</time>
      </trkpt>
      <trkpt lat="43.07049" lon="-0.41685">
        <ele>431.2</ele>
        <time>2022-06-08 10:16:26</time>
      </trkpt>
      <trkpt lat="43.07044" lon="-0.41686">
        <ele>431</ele>
        <time>2022-06-08 10:16:27</time>
      </trkpt>
      <trkpt lat="43.07039" lon="-0.41685">
        <ele>431</ele>
        <time>2022-06-08 10:16:28</time>
      </trkpt>
      <trkpt lat="43.07032" lon="-0.41686">
        <ele>430.8</ele>
        <time>2022-06-08 10:16:29</time>
      </trkpt>
      <trkpt lat="43.07027" lon="-0.41687">
        <ele>430.8</ele>
        <time>2022-06-08 10:16:30</time>
      </trkpt>
      <trkpt lat="43.07021" lon="-0.41689">
        <ele>430.8</ele>
        <time>2022-06-08 10:16:31</time>
      </trkpt>
      <trkpt lat="43.07016" lon="-0.4169">
        <ele>430.8</ele>
        <time>2022-06-08 10:16:32</time>
      </trkpt>
      <trkpt lat="43.07011" lon="-0.4169">
        <ele>430.6</ele>
        <time>2022-06-08 10:16:33</time>
      </trkpt>
      <trkpt lat="43.07003" lon="-0.41692">
        <ele>430.6</ele>
        <time>2022-06-08 10:16:34</time>
      </trkpt>
      <trkpt lat="43.06997" lon="-0.41693">
        <ele>430.4</ele>
        <time>2022-06-08 10:16:35</time>
      </trkpt>
      <trkpt lat="43.0699" lon="-0.41693">
        <ele>430.4</ele>
        <time>2022-06-08 10:16:36</time>
      </trkpt>
      <trkpt lat="43.06983" lon="-0.41693">
        <ele>430.2</ele>
        <time>2022-06-08 10:16:37</time>
      </trkpt>
      <trkpt lat="43.06978" lon="-0.41693">
        <ele>430.2</ele>
        <time>2022-06-08 10:16:38</time>
      </trkpt>
      <trkpt lat="43.06972" lon="-0.41693">
        <ele>430</ele>
        <time>2022-06-08 10:16:39</time>
      </trkpt>
      <trkpt lat="43.06964" lon="-0.41693">
        <ele>430</ele>
        <time>2022-06-08 10:16:40</time>
      </trkpt>
      <trkpt lat="43.06958" lon="-0.41692">
        <ele>430</ele>
        <time>2022-06-08 10:16:41</time>
      </trkpt>
      <trkpt lat="43.06952" lon="-0.41691">
        <ele>430</ele>
        <time>2022-06-08 10:16:42</time>
      </trkpt>
      <trkpt lat="43.06948" lon="-0.4169">
        <ele>430</ele>
        <time>2022-06-08 10:16:43</time>
      </trkpt>
      <trkpt lat="43.06941" lon="-0.41688">
        <ele>429.8</ele>
        <time>2022-06-08 10:16:44</time>
      </trkpt>
      <trkpt lat="43.06935" lon="-0.41685">
        <ele>429.8</ele>
        <time>2022-06-08 10:16:45</time>
      </trkpt>
      <trkpt lat="43.06929" lon="-0.41682">
        <ele>430</ele>
        <time>2022-06-08 10:16:46</time>
      </trkpt>
      <trkpt lat="43.06924" lon="-0.41679">
        <ele>430</ele>
        <time>2022-06-08 10:16:47</time>
      </trkpt>
      <trkpt lat="43.06918" lon="-0.41675">
        <ele>430</ele>
        <time>2022-06-08 10:16:48</time>
      </trkpt>
      <trkpt lat="43.06913" lon="-0.4167">
        <ele>430</ele>
        <time>2022-06-08 10:16:49</time>
      </trkpt>
      <trkpt lat="43.06908" lon="-0.41666">
        <ele>430</ele>
        <time>2022-06-08 10:16:50</time>
      </trkpt>
      <trkpt lat="43.06903" lon="-0.4166">
        <ele>430.2</ele>
        <time>2022-06-08 10:16:51</time>
      </trkpt>
      <trkpt lat="43.06898" lon="-0.41656">
        <ele>430.2</ele>
        <time>2022-06-08 10:16:52</time>
      </trkpt>
      <trkpt lat="43.06893" lon="-0.41653">
        <ele>430.4</ele>
        <time>2022-06-08 10:16:53</time>
      </trkpt>
      <trkpt lat="43.06887" lon="-0.41652">
        <ele>430.6</ele>
        <time>2022-06-08 10:16:54</time>
      </trkpt>
      <trkpt lat="43.06882" lon="-0.41651">
        <ele>430.8</ele>
        <time>2022-06-08 10:16:55</time>
      </trkpt>
      <trkpt lat="43.06876" lon="-0.41649">
        <ele>430.8</ele>
        <time>2022-06-08 10:16:56</time>
      </trkpt>
      <trkpt lat="43.0687" lon="-0.41648">
        <ele>431</ele>
        <time>2022-06-08 10:16:57</time>
      </trkpt>
      <trkpt lat="43.06864" lon="-0.41648">
        <ele>431</ele>
        <time>2022-06-08 10:16:58</time>
      </trkpt>
      <trkpt lat="43.06858" lon="-0.41651">
        <ele>431</ele>
        <time>2022-06-08 10:16:59</time>
      </trkpt>
      <trkpt lat="43.06851" lon="-0.41654">
        <ele>431</ele>
        <time>2022-06-08 10:17:00</time>
      </trkpt>
      <trkpt lat="43.06843" lon="-0.41658">
        <ele>431</ele>
        <time>2022-06-08 10:17:01</time>
      </trkpt>
      <trkpt lat="43.06835" lon="-0.41661">
        <ele>431</ele>
        <time>2022-06-08 10:17:02</time>
      </trkpt>
      <trkpt lat="43.06827" lon="-0.41665">
        <ele>430.8</ele>
        <time>2022-06-08 10:17:03</time>
      </trkpt>
      <trkpt lat="43.06819" lon="-0.41668">
        <ele>430.2</ele>
        <time>2022-06-08 10:17:04</time>
      </trkpt>
      <trkpt lat="43.06807" lon="-0.41672">
        <ele>429.8</ele>
        <time>2022-06-08 10:17:05</time>
      </trkpt>
      <trkpt lat="43.06797" lon="-0.41675">
        <ele>429</ele>
        <time>2022-06-08 10:17:06</time>
      </trkpt>
      <trkpt lat="43.06786" lon="-0.41679">
        <ele>428.2</ele>
        <time>2022-06-08 10:17:07</time>
      </trkpt>
      <trkpt lat="43.06775" lon="-0.41682">
        <ele>427</ele>
        <time>2022-06-08 10:17:08</time>
      </trkpt>
      <trkpt lat="43.06765" lon="-0.41685">
        <ele>426.2</ele>
        <time>2022-06-08 10:17:09</time>
      </trkpt>
      <trkpt lat="43.06754" lon="-0.41688">
        <ele>424.8</ele>
        <time>2022-06-08 10:17:10</time>
      </trkpt>
      <trkpt lat="43.06744" lon="-0.41691">
        <ele>424.2</ele>
        <time>2022-06-08 10:17:11</time>
      </trkpt>
      <trkpt lat="43.06735" lon="-0.41694">
        <ele>423.4</ele>
        <time>2022-06-08 10:17:12</time>
      </trkpt>
      <trkpt lat="43.06725" lon="-0.41697">
        <ele>422.8</ele>
        <time>2022-06-08 10:17:13</time>
      </trkpt>
      <trkpt lat="43.06718" lon="-0.417">
        <ele>422.2</ele>
        <time>2022-06-08 10:17:14</time>
      </trkpt>
      <trkpt lat="43.06708" lon="-0.41704">
        <ele>421.8</ele>
        <time>2022-06-08 10:17:15</time>
      </trkpt>
      <trkpt lat="43.06699" lon="-0.41707">
        <ele>421.2</ele>
        <time>2022-06-08 10:17:16</time>
      </trkpt>
      <trkpt lat="43.06691" lon="-0.41709">
        <ele>421</ele>
        <time>2022-06-08 10:17:17</time>
      </trkpt>
      <trkpt lat="43.06682" lon="-0.41712">
        <ele>421</ele>
        <time>2022-06-08 10:17:18</time>
      </trkpt>
      <trkpt lat="43.06674" lon="-0.41714">
        <ele>420.8</ele>
        <time>2022-06-08 10:17:19</time>
      </trkpt>
      <trkpt lat="43.06666" lon="-0.41716">
        <ele>420.8</ele>
        <time>2022-06-08 10:17:20</time>
      </trkpt>
      <trkpt lat="43.06657" lon="-0.41718">
        <ele>420.8</ele>
        <time>2022-06-08 10:17:21</time>
      </trkpt>
      <trkpt lat="43.06649" lon="-0.4172">
        <ele>420.8</ele>
        <time>2022-06-08 10:17:22</time>
      </trkpt>
      <trkpt lat="43.06643" lon="-0.4172">
        <ele>420.8</ele>
        <time>2022-06-08 10:17:23</time>
      </trkpt>
      <trkpt lat="43.06634" lon="-0.4172">
        <ele>420.8</ele>
        <time>2022-06-08 10:17:24</time>
      </trkpt>
      <trkpt lat="43.06626" lon="-0.41718">
        <ele>420.8</ele>
        <time>2022-06-08 10:17:25</time>
      </trkpt>
      <trkpt lat="43.06619" lon="-0.41715">
        <ele>420.8</ele>
        <time>2022-06-08 10:17:26</time>
      </trkpt>
      <trkpt lat="43.06614" lon="-0.41712">
        <ele>420.8</ele>
        <time>2022-06-08 10:17:27</time>
      </trkpt>
      <trkpt lat="43.06607" lon="-0.41708">
        <ele>420.8</ele>
        <time>2022-06-08 10:17:28</time>
      </trkpt>
      <trkpt lat="43.06601" lon="-0.41703">
        <ele>421</ele>
        <time>2022-06-08 10:17:29</time>
      </trkpt>
      <trkpt lat="43.06594" lon="-0.41696">
        <ele>421.2</ele>
        <time>2022-06-08 10:17:30</time>
      </trkpt>
      <trkpt lat="43.0659" lon="-0.41691">
        <ele>421.4</ele>
        <time>2022-06-08 10:17:31</time>
      </trkpt>
      <trkpt lat="43.06584" lon="-0.41684">
        <ele>421.4</ele>
        <time>2022-06-08 10:17:32</time>
      </trkpt>
      <trkpt lat="43.0658" lon="-0.41677">
        <ele>421.8</ele>
        <time>2022-06-08 10:17:33</time>
      </trkpt>
      <trkpt lat="43.06577" lon="-0.41671">
        <ele>422</ele>
        <time>2022-06-08 10:17:34</time>
      </trkpt>
      <trkpt lat="43.06572" lon="-0.41665">
        <ele>422.2</ele>
        <time>2022-06-08 10:17:35</time>
      </trkpt>
      <trkpt lat="43.06568" lon="-0.41658">
        <ele>422.4</ele>
        <time>2022-06-08 10:17:36</time>
      </trkpt>
      <trkpt lat="43.06564" lon="-0.41651">
        <ele>422.4</ele>
        <time>2022-06-08 10:17:37</time>
      </trkpt>
      <trkpt lat="43.06559" lon="-0.41646">
        <ele>422.6</ele>
        <time>2022-06-08 10:17:38</time>
      </trkpt>
      <trkpt lat="43.06555" lon="-0.41641">
        <ele>422.8</ele>
        <time>2022-06-08 10:17:39</time>
      </trkpt>
      <trkpt lat="43.06551" lon="-0.41636">
        <ele>423</ele>
        <time>2022-06-08 10:17:40</time>
      </trkpt>
      <trkpt lat="43.06546" lon="-0.41633">
        <ele>423.2</ele>
        <time>2022-06-08 10:17:41</time>
      </trkpt>
      <trkpt lat="43.06541" lon="-0.4163">
        <ele>423.4</ele>
        <time>2022-06-08 10:17:42</time>
      </trkpt>
      <trkpt lat="43.06536" lon="-0.41628">
        <ele>423.6</ele>
        <time>2022-06-08 10:17:43</time>
      </trkpt>
      <trkpt lat="43.0653" lon="-0.41627">
        <ele>424</ele>
        <time>2022-06-08 10:17:44</time>
      </trkpt>
      <trkpt lat="43.06525" lon="-0.41627">
        <ele>424.2</ele>
        <time>2022-06-08 10:17:45</time>
      </trkpt>
      <trkpt lat="43.06519" lon="-0.41628">
        <ele>424.4</ele>
        <time>2022-06-08 10:17:46</time>
      </trkpt>
      <trkpt lat="43.06513" lon="-0.41629">
        <ele>424.6</ele>
        <time>2022-06-08 10:17:47</time>
      </trkpt>
      <trkpt lat="43.06508" lon="-0.41631">
        <ele>424.8</ele>
        <time>2022-06-08 10:17:48</time>
      </trkpt>
      <trkpt lat="43.06502" lon="-0.41633">
        <ele>425</ele>
        <time>2022-06-08 10:17:49</time>
      </trkpt>
      <trkpt lat="43.06497" lon="-0.41635">
        <ele>425</ele>
        <time>2022-06-08 10:17:50</time>
      </trkpt>
      <trkpt lat="43.06491" lon="-0.41636">
        <ele>425</ele>
        <time>2022-06-08 10:17:51</time>
      </trkpt>
      <trkpt lat="43.06485" lon="-0.41638">
        <ele>425</ele>
        <time>2022-06-08 10:17:52</time>
      </trkpt>
      <trkpt lat="43.0648" lon="-0.41639">
        <ele>425</ele>
        <time>2022-06-08 10:17:53</time>
      </trkpt>
      <trkpt lat="43.06474" lon="-0.4164">
        <ele>425</ele>
        <time>2022-06-08 10:17:54</time>
      </trkpt>
      <trkpt lat="43.06469" lon="-0.4164">
        <ele>425</ele>
        <time>2022-06-08 10:17:55</time>
      </trkpt>
      <trkpt lat="43.06463" lon="-0.41641">
        <ele>425</ele>
        <time>2022-06-08 10:17:56</time>
      </trkpt>
      <trkpt lat="43.06456" lon="-0.41642">
        <ele>425</ele>
        <time>2022-06-08 10:17:57</time>
      </trkpt>
      <trkpt lat="43.06451" lon="-0.41643">
        <ele>425</ele>
        <time>2022-06-08 10:17:58</time>
      </trkpt>
      <trkpt lat="43.06445" lon="-0.41643">
        <ele>425</ele>
        <time>2022-06-08 10:17:59</time>
      </trkpt>
      <trkpt lat="43.06439" lon="-0.41644">
        <ele>425</ele>
        <time>2022-06-08 10:18:00</time>
      </trkpt>
      <trkpt lat="43.06434" lon="-0.41645">
        <ele>425</ele>
        <time>2022-06-08 10:18:01</time>
      </trkpt>
      <trkpt lat="43.06428" lon="-0.41646">
        <ele>425</ele>
        <time>2022-06-08 10:18:02</time>
      </trkpt>
      <trkpt lat="43.06422" lon="-0.41647">
        <ele>425</ele>
        <time>2022-06-08 10:18:03</time>
      </trkpt>
      <trkpt lat="43.06416" lon="-0.41649">
        <ele>425</ele>
        <time>2022-06-08 10:18:04</time>
      </trkpt>
      <trkpt lat="43.0641" lon="-0.41651">
        <ele>425</ele>
        <time>2022-06-08 10:18:05</time>
      </trkpt>
      <trkpt lat="43.06404" lon="-0.41654">
        <ele>425.2</ele>
        <time>2022-06-08 10:18:06</time>
      </trkpt>
      <trkpt lat="43.06398" lon="-0.41657">
        <ele>425.2</ele>
        <time>2022-06-08 10:18:07</time>
      </trkpt>
      <trkpt lat="43.06392" lon="-0.4166">
        <ele>425.2</ele>
        <time>2022-06-08 10:18:08</time>
      </trkpt>
      <trkpt lat="43.06387" lon="-0.41664">
        <ele>425.2</ele>
        <time>2022-06-08 10:18:09</time>
      </trkpt>
      <trkpt lat="43.06382" lon="-0.41668">
        <ele>425.2</ele>
        <time>2022-06-08 10:18:10</time>
      </trkpt>
      <trkpt lat="43.06377" lon="-0.41672">
        <ele>425</ele>
        <time>2022-06-08 10:18:11</time>
      </trkpt>
      <trkpt lat="43.06372" lon="-0.41676">
        <ele>425</ele>
        <time>2022-06-08 10:18:12</time>
      </trkpt>
      <trkpt lat="43.06367" lon="-0.4168">
        <ele>425.2</ele>
        <time>2022-06-08 10:18:13</time>
      </trkpt>
      <trkpt lat="43.06362" lon="-0.41684">
        <ele>425.2</ele>
        <time>2022-06-08 10:18:14</time>
      </trkpt>
      <trkpt lat="43.06357" lon="-0.41688">
        <ele>425.2</ele>
        <time>2022-06-08 10:18:15</time>
      </trkpt>
      <trkpt lat="43.06353" lon="-0.41692">
        <ele>425</ele>
        <time>2022-06-08 10:18:16</time>
      </trkpt>
      <trkpt lat="43.06349" lon="-0.41695">
        <ele>425</ele>
        <time>2022-06-08 10:18:17</time>
      </trkpt>
      <trkpt lat="43.06343" lon="-0.417">
        <ele>424.8</ele>
        <time>2022-06-08 10:18:18</time>
      </trkpt>
      <trkpt lat="43.06338" lon="-0.41704">
        <ele>425</ele>
        <time>2022-06-08 10:18:19</time>
      </trkpt>
      <trkpt lat="43.06332" lon="-0.41707">
        <ele>425</ele>
        <time>2022-06-08 10:18:20</time>
      </trkpt>
      <trkpt lat="43.06327" lon="-0.4171">
        <ele>425</ele>
        <time>2022-06-08 10:18:21</time>
      </trkpt>
      <trkpt lat="43.06323" lon="-0.41712">
        <ele>425</ele>
        <time>2022-06-08 10:18:22</time>
      </trkpt>
      <trkpt lat="43.06316" lon="-0.41715">
        <ele>425</ele>
        <time>2022-06-08 10:18:23</time>
      </trkpt>
      <trkpt lat="43.0631" lon="-0.41716">
        <ele>425</ele>
        <time>2022-06-08 10:18:24</time>
      </trkpt>
      <trkpt lat="43.06304" lon="-0.41717">
        <ele>425</ele>
        <time>2022-06-08 10:18:25</time>
      </trkpt>
      <trkpt lat="43.06297" lon="-0.41717">
        <ele>425</ele>
        <time>2022-06-08 10:18:26</time>
      </trkpt>
      <trkpt lat="43.06291" lon="-0.41717">
        <ele>425</ele>
        <time>2022-06-08 10:18:27</time>
      </trkpt>
      <trkpt lat="43.06284" lon="-0.41717">
        <ele>425.2</ele>
        <time>2022-06-08 10:18:28</time>
      </trkpt>
      <trkpt lat="43.06278" lon="-0.41716">
        <ele>425.2</ele>
        <time>2022-06-08 10:18:29</time>
      </trkpt>
      <trkpt lat="43.06272" lon="-0.41716">
        <ele>425.2</ele>
        <time>2022-06-08 10:18:30</time>
      </trkpt>
      <trkpt lat="43.06265" lon="-0.41716">
        <ele>425.2</ele>
        <time>2022-06-08 10:18:31</time>
      </trkpt>
      <trkpt lat="43.06259" lon="-0.41716">
        <ele>425</ele>
        <time>2022-06-08 10:18:32</time>
      </trkpt>
      <trkpt lat="43.06252" lon="-0.41718">
        <ele>425.2</ele>
        <time>2022-06-08 10:18:33</time>
      </trkpt>
      <trkpt lat="43.06245" lon="-0.4172">
        <ele>425.2</ele>
        <time>2022-06-08 10:18:34</time>
      </trkpt>
      <trkpt lat="43.06239" lon="-0.41724">
        <ele>425.2</ele>
        <time>2022-06-08 10:18:35</time>
      </trkpt>
      <trkpt lat="43.06233" lon="-0.41729">
        <ele>425.2</ele>
        <time>2022-06-08 10:18:36</time>
      </trkpt>
      <trkpt lat="43.06228" lon="-0.41734">
        <ele>425</ele>
        <time>2022-06-08 10:18:37</time>
      </trkpt>
      <trkpt lat="43.06222" lon="-0.41741">
        <ele>424.8</ele>
        <time>2022-06-08 10:18:38</time>
      </trkpt>
      <trkpt lat="43.06217" lon="-0.41747">
        <ele>424.8</ele>
        <time>2022-06-08 10:18:39</time>
      </trkpt>
      <trkpt lat="43.06212" lon="-0.41754">
        <ele>424.6</ele>
        <time>2022-06-08 10:18:40</time>
      </trkpt>
      <trkpt lat="43.06207" lon="-0.41761">
        <ele>424.6</ele>
        <time>2022-06-08 10:18:41</time>
      </trkpt>
      <trkpt lat="43.06202" lon="-0.41768">
        <ele>424.6</ele>
        <time>2022-06-08 10:18:42</time>
      </trkpt>
      <trkpt lat="43.06196" lon="-0.41774">
        <ele>424.6</ele>
        <time>2022-06-08 10:18:43</time>
      </trkpt>
      <trkpt lat="43.06191" lon="-0.41781">
        <ele>424.4</ele>
        <time>2022-06-08 10:18:44</time>
      </trkpt>
      <trkpt lat="43.06186" lon="-0.41788">
        <ele>424.4</ele>
        <time>2022-06-08 10:18:45</time>
      </trkpt>
      <trkpt lat="43.06181" lon="-0.41795">
        <ele>424.4</ele>
        <time>2022-06-08 10:18:46</time>
      </trkpt>
      <trkpt lat="43.06176" lon="-0.41802">
        <ele>424.4</ele>
        <time>2022-06-08 10:18:47</time>
      </trkpt>
      <trkpt lat="43.06171" lon="-0.41809">
        <ele>424.2</ele>
        <time>2022-06-08 10:18:48</time>
      </trkpt>
      <trkpt lat="43.06166" lon="-0.41816">
        <ele>424.2</ele>
        <time>2022-06-08 10:18:49</time>
      </trkpt>
      <trkpt lat="43.06161" lon="-0.41823">
        <ele>424.2</ele>
        <time>2022-06-08 10:18:50</time>
      </trkpt>
      <trkpt lat="43.06156" lon="-0.41829">
        <ele>424</ele>
        <time>2022-06-08 10:18:51</time>
      </trkpt>
      <trkpt lat="43.0615" lon="-0.41836">
        <ele>424</ele>
        <time>2022-06-08 10:18:52</time>
      </trkpt>
      <trkpt lat="43.06145" lon="-0.41843">
        <ele>424</ele>
        <time>2022-06-08 10:18:53</time>
      </trkpt>
      <trkpt lat="43.0614" lon="-0.41849">
        <ele>424</ele>
        <time>2022-06-08 10:18:54</time>
      </trkpt>
      <trkpt lat="43.06134" lon="-0.41855">
        <ele>424</ele>
        <time>2022-06-08 10:18:55</time>
      </trkpt>
      <trkpt lat="43.06128" lon="-0.4186">
        <ele>424</ele>
        <time>2022-06-08 10:18:56</time>
      </trkpt>
      <trkpt lat="43.06122" lon="-0.41865">
        <ele>423.6</ele>
        <time>2022-06-08 10:18:57</time>
      </trkpt>
      <trkpt lat="43.06115" lon="-0.41869">
        <ele>423.4</ele>
        <time>2022-06-08 10:18:58</time>
      </trkpt>
      <trkpt lat="43.06108" lon="-0.41871">
        <ele>423.4</ele>
        <time>2022-06-08 10:18:59</time>
      </trkpt>
      <trkpt lat="43.06101" lon="-0.41873">
        <ele>423.2</ele>
        <time>2022-06-08 10:19:00</time>
      </trkpt>
      <trkpt lat="43.06093" lon="-0.41875">
        <ele>423.2</ele>
        <time>2022-06-08 10:19:01</time>
      </trkpt>
      <trkpt lat="43.06086" lon="-0.41876">
        <ele>423.2</ele>
        <time>2022-06-08 10:19:02</time>
      </trkpt>
      <trkpt lat="43.06079" lon="-0.41878">
        <ele>423.4</ele>
        <time>2022-06-08 10:19:03</time>
      </trkpt>
      <trkpt lat="43.06072" lon="-0.4188">
        <ele>423.6</ele>
        <time>2022-06-08 10:19:04</time>
      </trkpt>
      <trkpt lat="43.06065" lon="-0.41882">
        <ele>423.6</ele>
        <time>2022-06-08 10:19:05</time>
      </trkpt>
      <trkpt lat="43.06058" lon="-0.41884">
        <ele>423.6</ele>
        <time>2022-06-08 10:19:06</time>
      </trkpt>
      <trkpt lat="43.06051" lon="-0.41887">
        <ele>423.6</ele>
        <time>2022-06-08 10:19:07</time>
      </trkpt>
      <trkpt lat="43.06044" lon="-0.41889">
        <ele>423.8</ele>
        <time>2022-06-08 10:19:08</time>
      </trkpt>
      <trkpt lat="43.06037" lon="-0.41893">
        <ele>423.8</ele>
        <time>2022-06-08 10:19:09</time>
      </trkpt>
      <trkpt lat="43.0603" lon="-0.41896">
        <ele>424</ele>
        <time>2022-06-08 10:19:10</time>
      </trkpt>
      <trkpt lat="43.06023" lon="-0.419">
        <ele>424.2</ele>
        <time>2022-06-08 10:19:11</time>
      </trkpt>
      <trkpt lat="43.06016" lon="-0.41903">
        <ele>424.2</ele>
        <time>2022-06-08 10:19:12</time>
      </trkpt>
      <trkpt lat="43.06009" lon="-0.41905">
        <ele>424.2</ele>
        <time>2022-06-08 10:19:13</time>
      </trkpt>
      <trkpt lat="43.06002" lon="-0.41904">
        <ele>424.4</ele>
        <time>2022-06-08 10:19:14</time>
      </trkpt>
      <trkpt lat="43.05994" lon="-0.41903">
        <ele>424.4</ele>
        <time>2022-06-08 10:19:15</time>
      </trkpt>
      <trkpt lat="43.05987" lon="-0.419">
        <ele>424.4</ele>
        <time>2022-06-08 10:19:16</time>
      </trkpt>
      <trkpt lat="43.0598" lon="-0.41896">
        <ele>424.4</ele>
        <time>2022-06-08 10:19:17</time>
      </trkpt>
      <trkpt lat="43.05973" lon="-0.41893">
        <ele>424.4</ele>
        <time>2022-06-08 10:19:18</time>
      </trkpt>
      <trkpt lat="43.05966" lon="-0.4189">
        <ele>424.4</ele>
        <time>2022-06-08 10:19:19</time>
      </trkpt>
      <trkpt lat="43.05959" lon="-0.41886">
        <ele>424.4</ele>
        <time>2022-06-08 10:19:20</time>
      </trkpt>
      <trkpt lat="43.05952" lon="-0.41883">
        <ele>424.4</ele>
        <time>2022-06-08 10:19:21</time>
      </trkpt>
      <trkpt lat="43.05945" lon="-0.41879">
        <ele>424.2</ele>
        <time>2022-06-08 10:19:22</time>
      </trkpt>
      <trkpt lat="43.05938" lon="-0.41877">
        <ele>424.2</ele>
        <time>2022-06-08 10:19:23</time>
      </trkpt>
      <trkpt lat="43.05932" lon="-0.41874">
        <ele>424.2</ele>
        <time>2022-06-08 10:19:24</time>
      </trkpt>
      <trkpt lat="43.05925" lon="-0.41874">
        <ele>424.2</ele>
        <time>2022-06-08 10:19:25</time>
      </trkpt>
      <trkpt lat="43.05918" lon="-0.41875">
        <ele>424.2</ele>
        <time>2022-06-08 10:19:26</time>
      </trkpt>
      <trkpt lat="43.05911" lon="-0.41878">
        <ele>424.2</ele>
        <time>2022-06-08 10:19:27</time>
      </trkpt>
      <trkpt lat="43.05905" lon="-0.41882">
        <ele>424.4</ele>
        <time>2022-06-08 10:19:28</time>
      </trkpt>
      <trkpt lat="43.059" lon="-0.41886">
        <ele>424.4</ele>
        <time>2022-06-08 10:19:29</time>
      </trkpt>
      <trkpt lat="43.05896" lon="-0.4189">
        <ele>424.6</ele>
        <time>2022-06-08 10:19:30</time>
      </trkpt>
      <trkpt lat="43.05891" lon="-0.41897">
        <ele>424.8</ele>
        <time>2022-06-08 10:19:31</time>
      </trkpt>
      <trkpt lat="43.05887" lon="-0.41901">
        <ele>425</ele>
        <time>2022-06-08 10:19:32</time>
      </trkpt>
      <trkpt lat="43.05882" lon="-0.41907">
        <ele>425.2</ele>
        <time>2022-06-08 10:19:33</time>
      </trkpt>
      <trkpt lat="43.05878" lon="-0.41912">
        <ele>425.4</ele>
        <time>2022-06-08 10:19:34</time>
      </trkpt>
      <trkpt lat="43.05872" lon="-0.41919">
        <ele>425.6</ele>
        <time>2022-06-08 10:19:35</time>
      </trkpt>
      <trkpt lat="43.05867" lon="-0.41923">
        <ele>425.6</ele>
        <time>2022-06-08 10:19:36</time>
      </trkpt>
      <trkpt lat="43.05862" lon="-0.41926">
        <ele>425.8</ele>
        <time>2022-06-08 10:19:37</time>
      </trkpt>
      <trkpt lat="43.05856" lon="-0.4193">
        <ele>425.8</ele>
        <time>2022-06-08 10:19:38</time>
      </trkpt>
      <trkpt lat="43.05848" lon="-0.41932">
        <ele>425.8</ele>
        <time>2022-06-08 10:19:39</time>
      </trkpt>
      <trkpt lat="43.05842" lon="-0.41934">
        <ele>426</ele>
        <time>2022-06-08 10:19:40</time>
      </trkpt>
      <trkpt lat="43.05836" lon="-0.41935">
        <ele>426</ele>
        <time>2022-06-08 10:19:41</time>
      </trkpt>
      <trkpt lat="43.05829" lon="-0.41936">
        <ele>426</ele>
        <time>2022-06-08 10:19:42</time>
      </trkpt>
      <trkpt lat="43.05821" lon="-0.41938">
        <ele>426</ele>
        <time>2022-06-08 10:19:43</time>
      </trkpt>
      <trkpt lat="43.05815" lon="-0.41939">
        <ele>426</ele>
        <time>2022-06-08 10:19:44</time>
      </trkpt>
      <trkpt lat="43.05808" lon="-0.4194">
        <ele>426</ele>
        <time>2022-06-08 10:19:45</time>
      </trkpt>
      <trkpt lat="43.05802" lon="-0.41941">
        <ele>426</ele>
        <time>2022-06-08 10:19:46</time>
      </trkpt>
      <trkpt lat="43.05794" lon="-0.41943">
        <ele>426</ele>
        <time>2022-06-08 10:19:47</time>
      </trkpt>
      <trkpt lat="43.05787" lon="-0.41944">
        <ele>426.2</ele>
        <time>2022-06-08 10:19:48</time>
      </trkpt>
      <trkpt lat="43.05781" lon="-0.41945">
        <ele>426.4</ele>
        <time>2022-06-08 10:19:49</time>
      </trkpt>
      <trkpt lat="43.05774" lon="-0.41947">
        <ele>426.4</ele>
        <time>2022-06-08 10:19:50</time>
      </trkpt>
      <trkpt lat="43.05767" lon="-0.41948">
        <ele>426.6</ele>
        <time>2022-06-08 10:19:51</time>
      </trkpt>
      <trkpt lat="43.0576" lon="-0.4195">
        <ele>426.6</ele>
        <time>2022-06-08 10:19:52</time>
      </trkpt>
      <trkpt lat="43.05753" lon="-0.41952">
        <ele>426.6</ele>
        <time>2022-06-08 10:19:53</time>
      </trkpt>
      <trkpt lat="43.05747" lon="-0.41955">
        <ele>426.6</ele>
        <time>2022-06-08 10:19:54</time>
      </trkpt>
      <trkpt lat="43.0574" lon="-0.41958">
        <ele>426.6</ele>
        <time>2022-06-08 10:19:55</time>
      </trkpt>
      <trkpt lat="43.05733" lon="-0.41961">
        <ele>426.6</ele>
        <time>2022-06-08 10:19:56</time>
      </trkpt>
      <trkpt lat="43.05727" lon="-0.41964">
        <ele>426.8</ele>
        <time>2022-06-08 10:19:57</time>
      </trkpt>
      <trkpt lat="43.0572" lon="-0.41966">
        <ele>426.8</ele>
        <time>2022-06-08 10:19:58</time>
      </trkpt>
      <trkpt lat="43.05714" lon="-0.41968">
        <ele>427</ele>
        <time>2022-06-08 10:19:59</time>
      </trkpt>
      <trkpt lat="43.05707" lon="-0.41971">
        <ele>427</ele>
        <time>2022-06-08 10:20:00</time>
      </trkpt>
      <trkpt lat="43.05701" lon="-0.41974">
        <ele>427</ele>
        <time>2022-06-08 10:20:01</time>
      </trkpt>
      <trkpt lat="43.05695" lon="-0.41976">
        <ele>427</ele>
        <time>2022-06-08 10:20:02</time>
      </trkpt>
      <trkpt lat="43.05688" lon="-0.41979">
        <ele>427</ele>
        <time>2022-06-08 10:20:03</time>
      </trkpt>
      <trkpt lat="43.05682" lon="-0.41982">
        <ele>427.6</ele>
        <time>2022-06-08 10:20:04</time>
      </trkpt>
      <trkpt lat="43.05675" lon="-0.41985">
        <ele>427.6</ele>
        <time>2022-06-08 10:20:05</time>
      </trkpt>
      <trkpt lat="43.05668" lon="-0.41988">
        <ele>427.6</ele>
        <time>2022-06-08 10:20:06</time>
      </trkpt>
      <trkpt lat="43.05661" lon="-0.41991">
        <ele>427.8</ele>
        <time>2022-06-08 10:20:07</time>
      </trkpt>
      <trkpt lat="43.05655" lon="-0.41995">
        <ele>427.8</ele>
        <time>2022-06-08 10:20:08</time>
      </trkpt>
      <trkpt lat="43.05648" lon="-0.41998">
        <ele>428.2</ele>
        <time>2022-06-08 10:20:09</time>
      </trkpt>
      <trkpt lat="43.05643" lon="-0.42001">
        <ele>428.2</ele>
        <time>2022-06-08 10:20:10</time>
      </trkpt>
      <trkpt lat="43.05635" lon="-0.42005">
        <ele>428.2</ele>
        <time>2022-06-08 10:20:11</time>
      </trkpt>
      <trkpt lat="43.05628" lon="-0.42009">
        <ele>428.2</ele>
        <time>2022-06-08 10:20:12</time>
      </trkpt>
      <trkpt lat="43.05622" lon="-0.42013">
        <ele>428.2</ele>
        <time>2022-06-08 10:20:13</time>
      </trkpt>
      <trkpt lat="43.05615" lon="-0.42016">
        <ele>428.2</ele>
        <time>2022-06-08 10:20:14</time>
      </trkpt>
      <trkpt lat="43.05609" lon="-0.4202">
        <ele>428.2</ele>
        <time>2022-06-08 10:20:15</time>
      </trkpt>
      <trkpt lat="43.05602" lon="-0.42025">
        <ele>427.8</ele>
        <time>2022-06-08 10:20:16</time>
      </trkpt>
      <trkpt lat="43.05596" lon="-0.42029">
        <ele>427.8</ele>
        <time>2022-06-08 10:20:17</time>
      </trkpt>
      <trkpt lat="43.0559" lon="-0.42034">
        <ele>427.8</ele>
        <time>2022-06-08 10:20:18</time>
      </trkpt>
      <trkpt lat="43.05584" lon="-0.4204">
        <ele>427.6</ele>
        <time>2022-06-08 10:20:19</time>
      </trkpt>
      <trkpt lat="43.05578" lon="-0.42045">
        <ele>427.6</ele>
        <time>2022-06-08 10:20:20</time>
      </trkpt>
      <trkpt lat="43.05572" lon="-0.4205">
        <ele>427.6</ele>
        <time>2022-06-08 10:20:21</time>
      </trkpt>
      <trkpt lat="43.05567" lon="-0.42056">
        <ele>427.6</ele>
        <time>2022-06-08 10:20:22</time>
      </trkpt>
      <trkpt lat="43.05561" lon="-0.42062">
        <ele>427.6</ele>
        <time>2022-06-08 10:20:23</time>
      </trkpt>
      <trkpt lat="43.05555" lon="-0.42067">
        <ele>427.6</ele>
        <time>2022-06-08 10:20:24</time>
      </trkpt>
      <trkpt lat="43.05549" lon="-0.42073">
        <ele>427.6</ele>
        <time>2022-06-08 10:20:25</time>
      </trkpt>
      <trkpt lat="43.05543" lon="-0.42078">
        <ele>427.8</ele>
        <time>2022-06-08 10:20:26</time>
      </trkpt>
      <trkpt lat="43.05538" lon="-0.42084">
        <ele>428</ele>
        <time>2022-06-08 10:20:27</time>
      </trkpt>
      <trkpt lat="43.05532" lon="-0.4209">
        <ele>428</ele>
        <time>2022-06-08 10:20:28</time>
      </trkpt>
      <trkpt lat="43.05527" lon="-0.42096">
        <ele>428.2</ele>
        <time>2022-06-08 10:20:29</time>
      </trkpt>
      <trkpt lat="43.05522" lon="-0.42103">
        <ele>428.2</ele>
        <time>2022-06-08 10:20:30</time>
      </trkpt>
      <trkpt lat="43.05516" lon="-0.42109">
        <ele>428.2</ele>
        <time>2022-06-08 10:20:31</time>
      </trkpt>
      <trkpt lat="43.05511" lon="-0.42115">
        <ele>428.2</ele>
        <time>2022-06-08 10:20:32</time>
      </trkpt>
      <trkpt lat="43.05505" lon="-0.42122">
        <ele>428.2</ele>
        <time>2022-06-08 10:20:33</time>
      </trkpt>
      <trkpt lat="43.055" lon="-0.42128">
        <ele>428.2</ele>
        <time>2022-06-08 10:20:34</time>
      </trkpt>
      <trkpt lat="43.05495" lon="-0.42133">
        <ele>428.2</ele>
        <time>2022-06-08 10:20:35</time>
      </trkpt>
      <trkpt lat="43.05489" lon="-0.42138">
        <ele>428.2</ele>
        <time>2022-06-08 10:20:36</time>
      </trkpt>
      <trkpt lat="43.05482" lon="-0.42142">
        <ele>428.2</ele>
        <time>2022-06-08 10:20:37</time>
      </trkpt>
      <trkpt lat="43.05475" lon="-0.42145">
        <ele>428</ele>
        <time>2022-06-08 10:20:38</time>
      </trkpt>
      <trkpt lat="43.05468" lon="-0.42148">
        <ele>428</ele>
        <time>2022-06-08 10:20:39</time>
      </trkpt>
      <trkpt lat="43.05461" lon="-0.42151">
        <ele>428</ele>
        <time>2022-06-08 10:20:40</time>
      </trkpt>
      <trkpt lat="43.05454" lon="-0.42155">
        <ele>428</ele>
        <time>2022-06-08 10:20:41</time>
      </trkpt>
      <trkpt lat="43.05447" lon="-0.42157">
        <ele>428</ele>
        <time>2022-06-08 10:20:42</time>
      </trkpt>
      <trkpt lat="43.0544" lon="-0.42159">
        <ele>428</ele>
        <time>2022-06-08 10:20:43</time>
      </trkpt>
      <trkpt lat="43.05433" lon="-0.4216">
        <ele>428</ele>
        <time>2022-06-08 10:20:44</time>
      </trkpt>
      <trkpt lat="43.05426" lon="-0.42161">
        <ele>428</ele>
        <time>2022-06-08 10:20:45</time>
      </trkpt>
      <trkpt lat="43.05419" lon="-0.42162">
        <ele>428</ele>
        <time>2022-06-08 10:20:46</time>
      </trkpt>
      <trkpt lat="43.05412" lon="-0.42164">
        <ele>428</ele>
        <time>2022-06-08 10:20:47</time>
      </trkpt>
      <trkpt lat="43.05405" lon="-0.42165">
        <ele>428.2</ele>
        <time>2022-06-08 10:20:48</time>
      </trkpt>
      <trkpt lat="43.05398" lon="-0.42166">
        <ele>428.2</ele>
        <time>2022-06-08 10:20:49</time>
      </trkpt>
      <trkpt lat="43.05391" lon="-0.42168">
        <ele>428.2</ele>
        <time>2022-06-08 10:20:50</time>
      </trkpt>
      <trkpt lat="43.05386" lon="-0.42169">
        <ele>428.6</ele>
        <time>2022-06-08 10:20:51</time>
      </trkpt>
      <trkpt lat="43.05378" lon="-0.4217">
        <ele>428.6</ele>
        <time>2022-06-08 10:20:52</time>
      </trkpt>
      <trkpt lat="43.05371" lon="-0.42171">
        <ele>428.8</ele>
        <time>2022-06-08 10:20:53</time>
      </trkpt>
      <trkpt lat="43.05364" lon="-0.42172">
        <ele>428.8</ele>
        <time>2022-06-08 10:20:54</time>
      </trkpt>
      <trkpt lat="43.05357" lon="-0.42173">
        <ele>429</ele>
        <time>2022-06-08 10:20:55</time>
      </trkpt>
      <trkpt lat="43.0535" lon="-0.42173">
        <ele>429.2</ele>
        <time>2022-06-08 10:20:56</time>
      </trkpt>
      <trkpt lat="43.05343" lon="-0.42173">
        <ele>429.2</ele>
        <time>2022-06-08 10:20:57</time>
      </trkpt>
      <trkpt lat="43.05336" lon="-0.42172">
        <ele>429</ele>
        <time>2022-06-08 10:20:58</time>
      </trkpt>
      <trkpt lat="43.0533" lon="-0.4217">
        <ele>428.8</ele>
        <time>2022-06-08 10:20:59</time>
      </trkpt>
      <trkpt lat="43.05323" lon="-0.42167">
        <ele>428.8</ele>
        <time>2022-06-08 10:21:00</time>
      </trkpt>
      <trkpt lat="43.05317" lon="-0.42164">
        <ele>428.8</ele>
        <time>2022-06-08 10:21:01</time>
      </trkpt>
      <trkpt lat="43.05311" lon="-0.42161">
        <ele>428.8</ele>
        <time>2022-06-08 10:21:02</time>
      </trkpt>
      <trkpt lat="43.05304" lon="-0.42158">
        <ele>429</ele>
        <time>2022-06-08 10:21:03</time>
      </trkpt>
      <trkpt lat="43.05298" lon="-0.42154">
        <ele>429.4</ele>
        <time>2022-06-08 10:21:04</time>
      </trkpt>
      <trkpt lat="43.05291" lon="-0.42151">
        <ele>429.6</ele>
        <time>2022-06-08 10:21:05</time>
      </trkpt>
      <trkpt lat="43.05285" lon="-0.42147">
        <ele>429.6</ele>
        <time>2022-06-08 10:21:06</time>
      </trkpt>
      <trkpt lat="43.05279" lon="-0.42144">
        <ele>429.8</ele>
        <time>2022-06-08 10:21:07</time>
      </trkpt>
      <trkpt lat="43.05273" lon="-0.4214">
        <ele>429.8</ele>
        <time>2022-06-08 10:21:08</time>
      </trkpt>
      <trkpt lat="43.05268" lon="-0.42136">
        <ele>429.8</ele>
        <time>2022-06-08 10:21:09</time>
      </trkpt>
      <trkpt lat="43.05261" lon="-0.42132">
        <ele>430</ele>
        <time>2022-06-08 10:21:10</time>
      </trkpt>
      <trkpt lat="43.05255" lon="-0.42128">
        <ele>430</ele>
        <time>2022-06-08 10:21:11</time>
      </trkpt>
      <trkpt lat="43.05249" lon="-0.42125">
        <ele>430</ele>
        <time>2022-06-08 10:21:12</time>
      </trkpt>
      <trkpt lat="43.05243" lon="-0.42121">
        <ele>430</ele>
        <time>2022-06-08 10:21:13</time>
      </trkpt>
      <trkpt lat="43.05238" lon="-0.42118">
        <ele>430</ele>
        <time>2022-06-08 10:21:14</time>
      </trkpt>
      <trkpt lat="43.05231" lon="-0.42114">
        <ele>430.2</ele>
        <time>2022-06-08 10:21:15</time>
      </trkpt>
      <trkpt lat="43.05225" lon="-0.4211">
        <ele>430.2</ele>
        <time>2022-06-08 10:21:16</time>
      </trkpt>
      <trkpt lat="43.05219" lon="-0.42107">
        <ele>430.2</ele>
        <time>2022-06-08 10:21:17</time>
      </trkpt>
      <trkpt lat="43.05213" lon="-0.42103">
        <ele>430.6</ele>
        <time>2022-06-08 10:21:18</time>
      </trkpt>
      <trkpt lat="43.05208" lon="-0.42101">
        <ele>430.6</ele>
        <time>2022-06-08 10:21:19</time>
      </trkpt>
      <trkpt lat="43.05201" lon="-0.42097">
        <ele>430.6</ele>
        <time>2022-06-08 10:21:20</time>
      </trkpt>
      <trkpt lat="43.05195" lon="-0.42093">
        <ele>431</ele>
        <time>2022-06-08 10:21:21</time>
      </trkpt>
      <trkpt lat="43.0519" lon="-0.42089">
        <ele>431</ele>
        <time>2022-06-08 10:21:22</time>
      </trkpt>
      <trkpt lat="43.05184" lon="-0.42085">
        <ele>431.2</ele>
        <time>2022-06-08 10:21:23</time>
      </trkpt>
      <trkpt lat="43.05178" lon="-0.42081">
        <ele>431.4</ele>
        <time>2022-06-08 10:21:24</time>
      </trkpt>
      <trkpt lat="43.05173" lon="-0.42078">
        <ele>431.6</ele>
        <time>2022-06-08 10:21:25</time>
      </trkpt>
      <trkpt lat="43.05167" lon="-0.42074">
        <ele>431.6</ele>
        <time>2022-06-08 10:21:26</time>
      </trkpt>
      <trkpt lat="43.05161" lon="-0.42071">
        <ele>431.8</ele>
        <time>2022-06-08 10:21:27</time>
      </trkpt>
      <trkpt lat="43.05155" lon="-0.42067">
        <ele>431.8</ele>
        <time>2022-06-08 10:21:28</time>
      </trkpt>
      <trkpt lat="43.0515" lon="-0.42064">
        <ele>432</ele>
        <time>2022-06-08 10:21:29</time>
      </trkpt>
      <trkpt lat="43.05144" lon="-0.42062">
        <ele>432</ele>
        <time>2022-06-08 10:21:30</time>
      </trkpt>
      <trkpt lat="43.05137" lon="-0.4206">
        <ele>432</ele>
        <time>2022-06-08 10:21:31</time>
      </trkpt>
      <trkpt lat="43.05131" lon="-0.42059">
        <ele>432</ele>
        <time>2022-06-08 10:21:32</time>
      </trkpt>
      <trkpt lat="43.05125" lon="-0.42057">
        <ele>432</ele>
        <time>2022-06-08 10:21:33</time>
      </trkpt>
      <trkpt lat="43.0512" lon="-0.42056">
        <ele>432.2</ele>
        <time>2022-06-08 10:21:34</time>
      </trkpt>
      <trkpt lat="43.05112" lon="-0.42055">
        <ele>432.2</ele>
        <time>2022-06-08 10:21:35</time>
      </trkpt>
      <trkpt lat="43.05106" lon="-0.42054">
        <ele>432.4</ele>
        <time>2022-06-08 10:21:36</time>
      </trkpt>
      <trkpt lat="43.051" lon="-0.42054">
        <ele>432.4</ele>
        <time>2022-06-08 10:21:37</time>
      </trkpt>
      <trkpt lat="43.05094" lon="-0.42055">
        <ele>432.6</ele>
        <time>2022-06-08 10:21:38</time>
      </trkpt>
      <trkpt lat="43.05088" lon="-0.42056">
        <ele>432.8</ele>
        <time>2022-06-08 10:21:39</time>
      </trkpt>
      <trkpt lat="43.05082" lon="-0.42057">
        <ele>432.8</ele>
        <time>2022-06-08 10:21:40</time>
      </trkpt>
      <trkpt lat="43.05076" lon="-0.42059">
        <ele>433</ele>
        <time>2022-06-08 10:21:41</time>
      </trkpt>
      <trkpt lat="43.0507" lon="-0.4206">
        <ele>433.2</ele>
        <time>2022-06-08 10:21:42</time>
      </trkpt>
      <trkpt lat="43.05064" lon="-0.4206">
        <ele>433.2</ele>
        <time>2022-06-08 10:21:43</time>
      </trkpt>
      <trkpt lat="43.05058" lon="-0.42059">
        <ele>433.4</ele>
        <time>2022-06-08 10:21:44</time>
      </trkpt>
      <trkpt lat="43.05052" lon="-0.42058">
        <ele>433.4</ele>
        <time>2022-06-08 10:21:45</time>
      </trkpt>
      <trkpt lat="43.05046" lon="-0.42057">
        <ele>433.4</ele>
        <time>2022-06-08 10:21:46</time>
      </trkpt>
      <trkpt lat="43.0504" lon="-0.42055">
        <ele>433.6</ele>
        <time>2022-06-08 10:21:47</time>
      </trkpt>
      <trkpt lat="43.05034" lon="-0.42053">
        <ele>433.6</ele>
        <time>2022-06-08 10:21:48</time>
      </trkpt>
      <trkpt lat="43.05028" lon="-0.42051">
        <ele>433.8</ele>
        <time>2022-06-08 10:21:49</time>
      </trkpt>
      <trkpt lat="43.05022" lon="-0.42049">
        <ele>434</ele>
        <time>2022-06-08 10:21:50</time>
      </trkpt>
      <trkpt lat="43.05016" lon="-0.42047">
        <ele>434.2</ele>
        <time>2022-06-08 10:21:51</time>
      </trkpt>
      <trkpt lat="43.05011" lon="-0.42044">
        <ele>434.4</ele>
        <time>2022-06-08 10:21:52</time>
      </trkpt>
      <trkpt lat="43.05005" lon="-0.42043">
        <ele>434.4</ele>
        <time>2022-06-08 10:21:53</time>
      </trkpt>
      <trkpt lat="43.05" lon="-0.42042">
        <ele>434.6</ele>
        <time>2022-06-08 10:21:54</time>
      </trkpt>
      <trkpt lat="43.04993" lon="-0.42041">
        <ele>434.6</ele>
        <time>2022-06-08 10:21:55</time>
      </trkpt>
      <trkpt lat="43.04987" lon="-0.42038">
        <ele>434.6</ele>
        <time>2022-06-08 10:21:56</time>
      </trkpt>
      <trkpt lat="43.04981" lon="-0.42036">
        <ele>434.6</ele>
        <time>2022-06-08 10:21:57</time>
      </trkpt>
      <trkpt lat="43.04975" lon="-0.42034">
        <ele>434.6</ele>
        <time>2022-06-08 10:21:58</time>
      </trkpt>
      <trkpt lat="43.0497" lon="-0.42033">
        <ele>434.6</ele>
        <time>2022-06-08 10:21:59</time>
      </trkpt>
      <trkpt lat="43.04963" lon="-0.42031">
        <ele>434.6</ele>
        <time>2022-06-08 10:22:00</time>
      </trkpt>
      <trkpt lat="43.04956" lon="-0.4203">
        <ele>434.8</ele>
        <time>2022-06-08 10:22:01</time>
      </trkpt>
      <trkpt lat="43.0495" lon="-0.42029">
        <ele>434.8</ele>
        <time>2022-06-08 10:22:02</time>
      </trkpt>
      <trkpt lat="43.04944" lon="-0.42028">
        <ele>434.8</ele>
        <time>2022-06-08 10:22:03</time>
      </trkpt>
      <trkpt lat="43.04939" lon="-0.42027">
        <ele>434.8</ele>
        <time>2022-06-08 10:22:04</time>
      </trkpt>
      <trkpt lat="43.04931" lon="-0.42024">
        <ele>435</ele>
        <time>2022-06-08 10:22:05</time>
      </trkpt>
      <trkpt lat="43.04925" lon="-0.42021">
        <ele>435</ele>
        <time>2022-06-08 10:22:06</time>
      </trkpt>
      <trkpt lat="43.0492" lon="-0.42018">
        <ele>435</ele>
        <time>2022-06-08 10:22:07</time>
      </trkpt>
      <trkpt lat="43.04915" lon="-0.42014">
        <ele>435.4</ele>
        <time>2022-06-08 10:22:08</time>
      </trkpt>
      <trkpt lat="43.04909" lon="-0.42008">
        <ele>435.6</ele>
        <time>2022-06-08 10:22:09</time>
      </trkpt>
      <trkpt lat="43.04904" lon="-0.42004">
        <ele>435.6</ele>
        <time>2022-06-08 10:22:10</time>
      </trkpt>
      <trkpt lat="43.04898" lon="-0.41999">
        <ele>435.8</ele>
        <time>2022-06-08 10:22:11</time>
      </trkpt>
      <trkpt lat="43.04893" lon="-0.41994">
        <ele>436</ele>
        <time>2022-06-08 10:22:12</time>
      </trkpt>
      <trkpt lat="43.04888" lon="-0.41989">
        <ele>436</ele>
        <time>2022-06-08 10:22:13</time>
      </trkpt>
      <trkpt lat="43.04883" lon="-0.41984">
        <ele>436</ele>
        <time>2022-06-08 10:22:14</time>
      </trkpt>
      <trkpt lat="43.04878" lon="-0.4198">
        <ele>436</ele>
        <time>2022-06-08 10:22:15</time>
      </trkpt>
      <trkpt lat="43.04872" lon="-0.41975">
        <ele>436</ele>
        <time>2022-06-08 10:22:16</time>
      </trkpt>
      <trkpt lat="43.04867" lon="-0.41971">
        <ele>436.2</ele>
        <time>2022-06-08 10:22:17</time>
      </trkpt>
      <trkpt lat="43.04862" lon="-0.41967">
        <ele>436.2</ele>
        <time>2022-06-08 10:22:18</time>
      </trkpt>
      <trkpt lat="43.04856" lon="-0.41963">
        <ele>436.2</ele>
        <time>2022-06-08 10:22:19</time>
      </trkpt>
      <trkpt lat="43.04851" lon="-0.4196">
        <ele>436.2</ele>
        <time>2022-06-08 10:22:20</time>
      </trkpt>
      <trkpt lat="43.04846" lon="-0.41957">
        <ele>436.2</ele>
        <time>2022-06-08 10:22:21</time>
      </trkpt>
      <trkpt lat="43.0484" lon="-0.41955">
        <ele>436.4</ele>
        <time>2022-06-08 10:22:22</time>
      </trkpt>
      <trkpt lat="43.04834" lon="-0.41952">
        <ele>436.6</ele>
        <time>2022-06-08 10:22:23</time>
      </trkpt>
      <trkpt lat="43.04828" lon="-0.4195">
        <ele>436.6</ele>
        <time>2022-06-08 10:22:24</time>
      </trkpt>
      <trkpt lat="43.04822" lon="-0.41948">
        <ele>436.8</ele>
        <time>2022-06-08 10:22:25</time>
      </trkpt>
      <trkpt lat="43.04817" lon="-0.41946">
        <ele>436.8</ele>
        <time>2022-06-08 10:22:26</time>
      </trkpt>
      <trkpt lat="43.04811" lon="-0.41944">
        <ele>436.8</ele>
        <time>2022-06-08 10:22:27</time>
      </trkpt>
      <trkpt lat="43.04805" lon="-0.41942">
        <ele>436.6</ele>
        <time>2022-06-08 10:22:28</time>
      </trkpt>
      <trkpt lat="43.04799" lon="-0.41941">
        <ele>436.2</ele>
        <time>2022-06-08 10:22:29</time>
      </trkpt>
      <trkpt lat="43.04793" lon="-0.4194">
        <ele>436</ele>
        <time>2022-06-08 10:22:30</time>
      </trkpt>
      <trkpt lat="43.04787" lon="-0.41939">
        <ele>436</ele>
        <time>2022-06-08 10:22:31</time>
      </trkpt>
      <trkpt lat="43.04781" lon="-0.41938">
        <ele>436.2</ele>
        <time>2022-06-08 10:22:32</time>
      </trkpt>
      <trkpt lat="43.04775" lon="-0.41937">
        <ele>436.2</ele>
        <time>2022-06-08 10:22:33</time>
      </trkpt>
      <trkpt lat="43.04769" lon="-0.41936">
        <ele>436.4</ele>
        <time>2022-06-08 10:22:34</time>
      </trkpt>
      <trkpt lat="43.04763" lon="-0.41936">
        <ele>436.4</ele>
        <time>2022-06-08 10:22:35</time>
      </trkpt>
      <trkpt lat="43.04757" lon="-0.41935">
        <ele>437</ele>
        <time>2022-06-08 10:22:36</time>
      </trkpt>
      <trkpt lat="43.04751" lon="-0.41935">
        <ele>437.2</ele>
        <time>2022-06-08 10:22:37</time>
      </trkpt>
      <trkpt lat="43.04745" lon="-0.41934">
        <ele>437.2</ele>
        <time>2022-06-08 10:22:38</time>
      </trkpt>
      <trkpt lat="43.04739" lon="-0.41933">
        <ele>437.2</ele>
        <time>2022-06-08 10:22:39</time>
      </trkpt>
      <trkpt lat="43.04734" lon="-0.41932">
        <ele>437.8</ele>
        <time>2022-06-08 10:22:40</time>
      </trkpt>
      <trkpt lat="43.04728" lon="-0.4193">
        <ele>438.2</ele>
        <time>2022-06-08 10:22:41</time>
      </trkpt>
      <trkpt lat="43.04723" lon="-0.41929">
        <ele>438.4</ele>
        <time>2022-06-08 10:22:42</time>
      </trkpt>
      <trkpt lat="43.04718" lon="-0.41927">
        <ele>438.4</ele>
        <time>2022-06-08 10:22:43</time>
      </trkpt>
      <trkpt lat="43.04713" lon="-0.41925">
        <ele>438.8</ele>
        <time>2022-06-08 10:22:44</time>
      </trkpt>
      <trkpt lat="43.04708" lon="-0.41923">
        <ele>439</ele>
        <time>2022-06-08 10:22:45</time>
      </trkpt>
      <trkpt lat="43.04704" lon="-0.41921">
        <ele>439.2</ele>
        <time>2022-06-08 10:22:46</time>
      </trkpt>
      <trkpt lat="43.047" lon="-0.4192">
        <ele>439.2</ele>
        <time>2022-06-08 10:22:47</time>
      </trkpt>
      <trkpt lat="43.04695" lon="-0.41918">
        <ele>439.2</ele>
        <time>2022-06-08 10:22:48</time>
      </trkpt>
      <trkpt lat="43.04691" lon="-0.41916">
        <ele>439.4</ele>
        <time>2022-06-08 10:22:49</time>
      </trkpt>
      <trkpt lat="43.04687" lon="-0.41914">
        <ele>439.4</ele>
        <time>2022-06-08 10:22:50</time>
      </trkpt>
      <trkpt lat="43.04683" lon="-0.41912">
        <ele>439.8</ele>
        <time>2022-06-08 10:22:51</time>
      </trkpt>
      <trkpt lat="43.04679" lon="-0.41909">
        <ele>440.2</ele>
        <time>2022-06-08 10:22:52</time>
      </trkpt>
      <trkpt lat="43.04674" lon="-0.41906">
        <ele>440.8</ele>
        <time>2022-06-08 10:22:53</time>
      </trkpt>
      <trkpt lat="43.0467" lon="-0.41903">
        <ele>440.8</ele>
        <time>2022-06-08 10:22:54</time>
      </trkpt>
      <trkpt lat="43.04665" lon="-0.419">
        <ele>441</ele>
        <time>2022-06-08 10:22:55</time>
      </trkpt>
      <trkpt lat="43.0466" lon="-0.41896">
        <ele>441</ele>
        <time>2022-06-08 10:22:56</time>
      </trkpt>
      <trkpt lat="43.04655" lon="-0.41892">
        <ele>441</ele>
        <time>2022-06-08 10:22:57</time>
      </trkpt>
      <trkpt lat="43.0465" lon="-0.41888">
        <ele>441.2</ele>
        <time>2022-06-08 10:22:58</time>
      </trkpt>
      <trkpt lat="43.04645" lon="-0.41884">
        <ele>441.2</ele>
        <time>2022-06-08 10:22:59</time>
      </trkpt>
      <trkpt lat="43.0464" lon="-0.41879">
        <ele>441.2</ele>
        <time>2022-06-08 10:23:00</time>
      </trkpt>
      <trkpt lat="43.04635" lon="-0.41875">
        <ele>441</ele>
        <time>2022-06-08 10:23:01</time>
      </trkpt>
      <trkpt lat="43.04629" lon="-0.41871">
        <ele>441</ele>
        <time>2022-06-08 10:23:02</time>
      </trkpt>
      <trkpt lat="43.04624" lon="-0.41867">
        <ele>441</ele>
        <time>2022-06-08 10:23:03</time>
      </trkpt>
      <trkpt lat="43.04619" lon="-0.41862">
        <ele>440.8</ele>
        <time>2022-06-08 10:23:04</time>
      </trkpt>
      <trkpt lat="43.04615" lon="-0.41856">
        <ele>440.8</ele>
        <time>2022-06-08 10:23:05</time>
      </trkpt>
      <trkpt lat="43.04611" lon="-0.4185">
        <ele>440.6</ele>
        <time>2022-06-08 10:23:06</time>
      </trkpt>
      <trkpt lat="43.04607" lon="-0.41843">
        <ele>440.4</ele>
        <time>2022-06-08 10:23:07</time>
      </trkpt>
      <trkpt lat="43.04603" lon="-0.41836">
        <ele>440.4</ele>
        <time>2022-06-08 10:23:08</time>
      </trkpt>
      <trkpt lat="43.04599" lon="-0.41829">
        <ele>440.4</ele>
        <time>2022-06-08 10:23:09</time>
      </trkpt>
      <trkpt lat="43.04595" lon="-0.41822">
        <ele>440</ele>
        <time>2022-06-08 10:23:10</time>
      </trkpt>
      <trkpt lat="43.04591" lon="-0.41815">
        <ele>440</ele>
        <time>2022-06-08 10:23:11</time>
      </trkpt>
      <trkpt lat="43.04586" lon="-0.41809">
        <ele>439.8</ele>
        <time>2022-06-08 10:23:12</time>
      </trkpt>
      <trkpt lat="43.04581" lon="-0.41803">
        <ele>439.6</ele>
        <time>2022-06-08 10:23:13</time>
      </trkpt>
      <trkpt lat="43.04576" lon="-0.41797">
        <ele>439.4</ele>
        <time>2022-06-08 10:23:14</time>
      </trkpt>
      <trkpt lat="43.0457" lon="-0.41792">
        <ele>439.2</ele>
        <time>2022-06-08 10:23:15</time>
      </trkpt>
      <trkpt lat="43.04565" lon="-0.41788">
        <ele>439</ele>
        <time>2022-06-08 10:23:16</time>
      </trkpt>
      <trkpt lat="43.04559" lon="-0.41784">
        <ele>439</ele>
        <time>2022-06-08 10:23:17</time>
      </trkpt>
      <trkpt lat="43.04553" lon="-0.41781">
        <ele>439</ele>
        <time>2022-06-08 10:23:18</time>
      </trkpt>
      <trkpt lat="43.04546" lon="-0.41778">
        <ele>439</ele>
        <time>2022-06-08 10:23:19</time>
      </trkpt>
      <trkpt lat="43.0454" lon="-0.41776">
        <ele>439</ele>
        <time>2022-06-08 10:23:20</time>
      </trkpt>
      <trkpt lat="43.04534" lon="-0.41775">
        <ele>439.2</ele>
        <time>2022-06-08 10:23:21</time>
      </trkpt>
      <trkpt lat="43.04527" lon="-0.41774">
        <ele>439.2</ele>
        <time>2022-06-08 10:23:22</time>
      </trkpt>
      <trkpt lat="43.04521" lon="-0.41774">
        <ele>439.2</ele>
        <time>2022-06-08 10:23:23</time>
      </trkpt>
      <trkpt lat="43.04514" lon="-0.41776">
        <ele>439.4</ele>
        <time>2022-06-08 10:23:24</time>
      </trkpt>
      <trkpt lat="43.04508" lon="-0.41779">
        <ele>439.2</ele>
        <time>2022-06-08 10:23:25</time>
      </trkpt>
      <trkpt lat="43.04502" lon="-0.41781">
        <ele>439.2</ele>
        <time>2022-06-08 10:23:26</time>
      </trkpt>
      <trkpt lat="43.04495" lon="-0.41784">
        <ele>439.2</ele>
        <time>2022-06-08 10:23:27</time>
      </trkpt>
      <trkpt lat="43.04489" lon="-0.41787">
        <ele>439.6</ele>
        <time>2022-06-08 10:23:28</time>
      </trkpt>
      <trkpt lat="43.04483" lon="-0.4179">
        <ele>439.4</ele>
        <time>2022-06-08 10:23:29</time>
      </trkpt>
      <trkpt lat="43.04477" lon="-0.41792">
        <ele>439.4</ele>
        <time>2022-06-08 10:23:30</time>
      </trkpt>
      <trkpt lat="43.0447" lon="-0.41794">
        <ele>439.4</ele>
        <time>2022-06-08 10:23:31</time>
      </trkpt>
      <trkpt lat="43.04463" lon="-0.41797">
        <ele>439.4</ele>
        <time>2022-06-08 10:23:32</time>
      </trkpt>
      <trkpt lat="43.04456" lon="-0.41799">
        <ele>439.2</ele>
        <time>2022-06-08 10:23:33</time>
      </trkpt>
      <trkpt lat="43.04449" lon="-0.41801">
        <ele>439.2</ele>
        <time>2022-06-08 10:23:34</time>
      </trkpt>
      <trkpt lat="43.04442" lon="-0.41803">
        <ele>439.2</ele>
        <time>2022-06-08 10:23:35</time>
      </trkpt>
      <trkpt lat="43.04435" lon="-0.41805">
        <ele>439</ele>
        <time>2022-06-08 10:23:36</time>
      </trkpt>
      <trkpt lat="43.04428" lon="-0.41806">
        <ele>439</ele>
        <time>2022-06-08 10:23:37</time>
      </trkpt>
      <trkpt lat="43.04421" lon="-0.41806">
        <ele>439</ele>
        <time>2022-06-08 10:23:38</time>
      </trkpt>
      <trkpt lat="43.04415" lon="-0.41807">
        <ele>439</ele>
        <time>2022-06-08 10:23:39</time>
      </trkpt>
      <trkpt lat="43.04408" lon="-0.41807">
        <ele>439</ele>
        <time>2022-06-08 10:23:40</time>
      </trkpt>
      <trkpt lat="43.04401" lon="-0.41807">
        <ele>439</ele>
        <time>2022-06-08 10:23:41</time>
      </trkpt>
      <trkpt lat="43.04395" lon="-0.41807">
        <ele>439.2</ele>
        <time>2022-06-08 10:23:42</time>
      </trkpt>
      <trkpt lat="43.04388" lon="-0.41807">
        <ele>439.2</ele>
        <time>2022-06-08 10:23:43</time>
      </trkpt>
      <trkpt lat="43.04381" lon="-0.41807">
        <ele>439.2</ele>
        <time>2022-06-08 10:23:44</time>
      </trkpt>
      <trkpt lat="43.04374" lon="-0.41808">
        <ele>439.2</ele>
        <time>2022-06-08 10:23:45</time>
      </trkpt>
      <trkpt lat="43.04368" lon="-0.41809">
        <ele>439.2</ele>
        <time>2022-06-08 10:23:46</time>
      </trkpt>
      <trkpt lat="43.04361" lon="-0.4181">
        <ele>439.2</ele>
        <time>2022-06-08 10:23:47</time>
      </trkpt>
      <trkpt lat="43.04354" lon="-0.41811">
        <ele>439.2</ele>
        <time>2022-06-08 10:23:48</time>
      </trkpt>
      <trkpt lat="43.04348" lon="-0.41813">
        <ele>439.2</ele>
        <time>2022-06-08 10:23:49</time>
      </trkpt>
      <trkpt lat="43.04342" lon="-0.41814">
        <ele>439.2</ele>
        <time>2022-06-08 10:23:50</time>
      </trkpt>
      <trkpt lat="43.04336" lon="-0.41816">
        <ele>438.8</ele>
        <time>2022-06-08 10:23:51</time>
      </trkpt>
      <trkpt lat="43.0433" lon="-0.41818">
        <ele>438.8</ele>
        <time>2022-06-08 10:23:52</time>
      </trkpt>
      <trkpt lat="43.04323" lon="-0.4182">
        <ele>438.6</ele>
        <time>2022-06-08 10:23:53</time>
      </trkpt>
      <trkpt lat="43.04317" lon="-0.41823">
        <ele>438.4</ele>
        <time>2022-06-08 10:23:54</time>
      </trkpt>
      <trkpt lat="43.04311" lon="-0.41827">
        <ele>438.4</ele>
        <time>2022-06-08 10:23:55</time>
      </trkpt>
      <trkpt lat="43.04305" lon="-0.41832">
        <ele>438.4</ele>
        <time>2022-06-08 10:23:56</time>
      </trkpt>
      <trkpt lat="43.04298" lon="-0.41836">
        <ele>438.2</ele>
        <time>2022-06-08 10:23:57</time>
      </trkpt>
      <trkpt lat="43.04291" lon="-0.41839">
        <ele>438.2</ele>
        <time>2022-06-08 10:23:58</time>
      </trkpt>
      <trkpt lat="43.04284" lon="-0.41843">
        <ele>438</ele>
        <time>2022-06-08 10:23:59</time>
      </trkpt>
      <trkpt lat="43.04277" lon="-0.41847">
        <ele>437.8</ele>
        <time>2022-06-08 10:24:00</time>
      </trkpt>
      <trkpt lat="43.0427" lon="-0.4185">
        <ele>437.6</ele>
        <time>2022-06-08 10:24:01</time>
      </trkpt>
      <trkpt lat="43.04262" lon="-0.41853">
        <ele>437.4</ele>
        <time>2022-06-08 10:24:02</time>
      </trkpt>
      <trkpt lat="43.04255" lon="-0.41856">
        <ele>437.2</ele>
        <time>2022-06-08 10:24:03</time>
      </trkpt>
      <trkpt lat="43.04248" lon="-0.41859">
        <ele>437.2</ele>
        <time>2022-06-08 10:24:04</time>
      </trkpt>
      <trkpt lat="43.0424" lon="-0.41861">
        <ele>437.2</ele>
        <time>2022-06-08 10:24:05</time>
      </trkpt>
      <trkpt lat="43.04233" lon="-0.41863">
        <ele>437.2</ele>
        <time>2022-06-08 10:24:06</time>
      </trkpt>
      <trkpt lat="43.04226" lon="-0.41862">
        <ele>437</ele>
        <time>2022-06-08 10:24:07</time>
      </trkpt>
      <trkpt lat="43.04219" lon="-0.4186">
        <ele>437</ele>
        <time>2022-06-08 10:24:08</time>
      </trkpt>
      <trkpt lat="43.04212" lon="-0.41857">
        <ele>437</ele>
        <time>2022-06-08 10:24:09</time>
      </trkpt>
      <trkpt lat="43.04206" lon="-0.41852">
        <ele>437</ele>
        <time>2022-06-08 10:24:10</time>
      </trkpt>
      <trkpt lat="43.042" lon="-0.41847">
        <ele>437</ele>
        <time>2022-06-08 10:24:11</time>
      </trkpt>
      <trkpt lat="43.04195" lon="-0.4184">
        <ele>437</ele>
        <time>2022-06-08 10:24:12</time>
      </trkpt>
      <trkpt lat="43.0419" lon="-0.41834">
        <ele>437</ele>
        <time>2022-06-08 10:24:13</time>
      </trkpt>
      <trkpt lat="43.04185" lon="-0.41827">
        <ele>437.2</ele>
        <time>2022-06-08 10:24:14</time>
      </trkpt>
      <trkpt lat="43.0418" lon="-0.41821">
        <ele>437.2</ele>
        <time>2022-06-08 10:24:15</time>
      </trkpt>
      <trkpt lat="43.04176" lon="-0.41814">
        <ele>437.2</ele>
        <time>2022-06-08 10:24:16</time>
      </trkpt>
      <trkpt lat="43.04171" lon="-0.41808">
        <ele>437.2</ele>
        <time>2022-06-08 10:24:17</time>
      </trkpt>
      <trkpt lat="43.04166" lon="-0.41802">
        <ele>437.2</ele>
        <time>2022-06-08 10:24:18</time>
      </trkpt>
      <trkpt lat="43.04161" lon="-0.41796">
        <ele>437.2</ele>
        <time>2022-06-08 10:24:19</time>
      </trkpt>
      <trkpt lat="43.04156" lon="-0.4179">
        <ele>437.6</ele>
        <time>2022-06-08 10:24:20</time>
      </trkpt>
      <trkpt lat="43.0415" lon="-0.41786">
        <ele>437.8</ele>
        <time>2022-06-08 10:24:21</time>
      </trkpt>
      <trkpt lat="43.04144" lon="-0.41784">
        <ele>438</ele>
        <time>2022-06-08 10:24:22</time>
      </trkpt>
      <trkpt lat="43.04138" lon="-0.41782">
        <ele>438.2</ele>
        <time>2022-06-08 10:24:23</time>
      </trkpt>
      <trkpt lat="43.04132" lon="-0.41782">
        <ele>438.2</ele>
        <time>2022-06-08 10:24:24</time>
      </trkpt>
      <trkpt lat="43.04126" lon="-0.41782">
        <ele>438.2</ele>
        <time>2022-06-08 10:24:25</time>
      </trkpt>
      <trkpt lat="43.0412" lon="-0.41781">
        <ele>438.4</ele>
        <time>2022-06-08 10:24:26</time>
      </trkpt>
      <trkpt lat="43.04115" lon="-0.4178">
        <ele>438.6</ele>
        <time>2022-06-08 10:24:27</time>
      </trkpt>
      <trkpt lat="43.04109" lon="-0.4178">
        <ele>438.6</ele>
        <time>2022-06-08 10:24:28</time>
      </trkpt>
      <trkpt lat="43.04103" lon="-0.41779">
        <ele>439</ele>
        <time>2022-06-08 10:24:29</time>
      </trkpt>
      <trkpt lat="43.04098" lon="-0.41779">
        <ele>439.2</ele>
        <time>2022-06-08 10:24:30</time>
      </trkpt>
      <trkpt lat="43.04092" lon="-0.41778">
        <ele>439.8</ele>
        <time>2022-06-08 10:24:31</time>
      </trkpt>
      <trkpt lat="43.04086" lon="-0.41776">
        <ele>440</ele>
        <time>2022-06-08 10:24:32</time>
      </trkpt>
      <trkpt lat="43.04081" lon="-0.41773">
        <ele>440.2</ele>
        <time>2022-06-08 10:24:33</time>
      </trkpt>
      <trkpt lat="43.04075" lon="-0.4177">
        <ele>440.2</ele>
        <time>2022-06-08 10:24:34</time>
      </trkpt>
      <trkpt lat="43.0407" lon="-0.41766">
        <ele>440.6</ele>
        <time>2022-06-08 10:24:35</time>
      </trkpt>
      <trkpt lat="43.04066" lon="-0.41762">
        <ele>440.6</ele>
        <time>2022-06-08 10:24:36</time>
      </trkpt>
      <trkpt lat="43.04061" lon="-0.41758">
        <ele>440.8</ele>
        <time>2022-06-08 10:24:37</time>
      </trkpt>
      <trkpt lat="43.04056" lon="-0.41755">
        <ele>440.8</ele>
        <time>2022-06-08 10:24:38</time>
      </trkpt>
      <trkpt lat="43.04051" lon="-0.41752">
        <ele>440.8</ele>
        <time>2022-06-08 10:24:39</time>
      </trkpt>
      <trkpt lat="43.04046" lon="-0.41749">
        <ele>441</ele>
        <time>2022-06-08 10:24:40</time>
      </trkpt>
      <trkpt lat="43.04041" lon="-0.41747">
        <ele>441</ele>
        <time>2022-06-08 10:24:41</time>
      </trkpt>
      <trkpt lat="43.04036" lon="-0.41744">
        <ele>441.4</ele>
        <time>2022-06-08 10:24:42</time>
      </trkpt>
      <trkpt lat="43.04029" lon="-0.41742">
        <ele>441.6</ele>
        <time>2022-06-08 10:24:43</time>
      </trkpt>
      <trkpt lat="43.04023" lon="-0.41739">
        <ele>441.8</ele>
        <time>2022-06-08 10:24:44</time>
      </trkpt>
      <trkpt lat="43.04016" lon="-0.41735">
        <ele>442</ele>
        <time>2022-06-08 10:24:45</time>
      </trkpt>
      <trkpt lat="43.0401" lon="-0.41732">
        <ele>442</ele>
        <time>2022-06-08 10:24:46</time>
      </trkpt>
      <trkpt lat="43.04003" lon="-0.41729">
        <ele>442</ele>
        <time>2022-06-08 10:24:47</time>
      </trkpt>
      <trkpt lat="43.03996" lon="-0.41726">
        <ele>442</ele>
        <time>2022-06-08 10:24:48</time>
      </trkpt>
      <trkpt lat="43.03989" lon="-0.41724">
        <ele>442</ele>
        <time>2022-06-08 10:24:49</time>
      </trkpt>
      <trkpt lat="43.03982" lon="-0.41723">
        <ele>441.6</ele>
        <time>2022-06-08 10:24:50</time>
      </trkpt>
      <trkpt lat="43.03975" lon="-0.41722">
        <ele>441.4</ele>
        <time>2022-06-08 10:24:51</time>
      </trkpt>
      <trkpt lat="43.03967" lon="-0.41721">
        <ele>441.2</ele>
        <time>2022-06-08 10:24:52</time>
      </trkpt>
      <trkpt lat="43.0396" lon="-0.41721">
        <ele>441</ele>
        <time>2022-06-08 10:24:53</time>
      </trkpt>
      <trkpt lat="43.03954" lon="-0.4172">
        <ele>440.8</ele>
        <time>2022-06-08 10:24:54</time>
      </trkpt>
      <trkpt lat="43.03945" lon="-0.41719">
        <ele>440.6</ele>
        <time>2022-06-08 10:24:55</time>
      </trkpt>
      <trkpt lat="43.03938" lon="-0.41718">
        <ele>440.4</ele>
        <time>2022-06-08 10:24:56</time>
      </trkpt>
      <trkpt lat="43.03931" lon="-0.41718">
        <ele>440.4</ele>
        <time>2022-06-08 10:24:57</time>
      </trkpt>
      <trkpt lat="43.03924" lon="-0.41717">
        <ele>440.4</ele>
        <time>2022-06-08 10:24:58</time>
      </trkpt>
      <trkpt lat="43.03917" lon="-0.41718">
        <ele>440.4</ele>
        <time>2022-06-08 10:24:59</time>
      </trkpt>
      <trkpt lat="43.03912" lon="-0.41719">
        <ele>440.4</ele>
        <time>2022-06-08 10:25:00</time>
      </trkpt>
      <trkpt lat="43.03905" lon="-0.4172">
        <ele>440.4</ele>
        <time>2022-06-08 10:25:01</time>
      </trkpt>
      <trkpt lat="43.03898" lon="-0.41721">
        <ele>440.4</ele>
        <time>2022-06-08 10:25:02</time>
      </trkpt>
      <trkpt lat="43.03891" lon="-0.41722">
        <ele>440.4</ele>
        <time>2022-06-08 10:25:03</time>
      </trkpt>
      <trkpt lat="43.03883" lon="-0.41722">
        <ele>440.4</ele>
        <time>2022-06-08 10:25:04</time>
      </trkpt>
      <trkpt lat="43.03876" lon="-0.41723">
        <ele>440.6</ele>
        <time>2022-06-08 10:25:05</time>
      </trkpt>
      <trkpt lat="43.03869" lon="-0.41725">
        <ele>440.6</ele>
        <time>2022-06-08 10:25:06</time>
      </trkpt>
      <trkpt lat="43.03863" lon="-0.41726">
        <ele>440.8</ele>
        <time>2022-06-08 10:25:07</time>
      </trkpt>
      <trkpt lat="43.03856" lon="-0.41727">
        <ele>440.8</ele>
        <time>2022-06-08 10:25:08</time>
      </trkpt>
      <trkpt lat="43.0385" lon="-0.41729">
        <ele>440.8</ele>
        <time>2022-06-08 10:25:09</time>
      </trkpt>
      <trkpt lat="43.03843" lon="-0.4173">
        <ele>440.8</ele>
        <time>2022-06-08 10:25:10</time>
      </trkpt>
      <trkpt lat="43.03837" lon="-0.41732">
        <ele>440.8</ele>
        <time>2022-06-08 10:25:11</time>
      </trkpt>
      <trkpt lat="43.03831" lon="-0.41734">
        <ele>441</ele>
        <time>2022-06-08 10:25:12</time>
      </trkpt>
      <trkpt lat="43.03825" lon="-0.41736">
        <ele>441</ele>
        <time>2022-06-08 10:25:13</time>
      </trkpt>
      <trkpt lat="43.03818" lon="-0.41739">
        <ele>441.2</ele>
        <time>2022-06-08 10:25:14</time>
      </trkpt>
      <trkpt lat="43.03812" lon="-0.41742">
        <ele>441.2</ele>
        <time>2022-06-08 10:25:15</time>
      </trkpt>
      <trkpt lat="43.03806" lon="-0.41745">
        <ele>441.6</ele>
        <time>2022-06-08 10:25:16</time>
      </trkpt>
      <trkpt lat="43.038" lon="-0.41749">
        <ele>441.6</ele>
        <time>2022-06-08 10:25:17</time>
      </trkpt>
      <trkpt lat="43.03793" lon="-0.41752">
        <ele>441.8</ele>
        <time>2022-06-08 10:25:18</time>
      </trkpt>
      <trkpt lat="43.03787" lon="-0.41756">
        <ele>441.8</ele>
        <time>2022-06-08 10:25:19</time>
      </trkpt>
      <trkpt lat="43.0378" lon="-0.41759">
        <ele>442</ele>
        <time>2022-06-08 10:25:20</time>
      </trkpt>
      <trkpt lat="43.03773" lon="-0.41762">
        <ele>442</ele>
        <time>2022-06-08 10:25:21</time>
      </trkpt>
      <trkpt lat="43.03767" lon="-0.41765">
        <ele>442</ele>
        <time>2022-06-08 10:25:22</time>
      </trkpt>
      <trkpt lat="43.0376" lon="-0.41769">
        <ele>442.2</ele>
        <time>2022-06-08 10:25:23</time>
      </trkpt>
      <trkpt lat="43.03754" lon="-0.41773">
        <ele>442.2</ele>
        <time>2022-06-08 10:25:24</time>
      </trkpt>
      <trkpt lat="43.03747" lon="-0.41777">
        <ele>442.2</ele>
        <time>2022-06-08 10:25:25</time>
      </trkpt>
      <trkpt lat="43.03741" lon="-0.4178">
        <ele>442.2</ele>
        <time>2022-06-08 10:25:26</time>
      </trkpt>
      <trkpt lat="43.03735" lon="-0.41784">
        <ele>442.2</ele>
        <time>2022-06-08 10:25:27</time>
      </trkpt>
      <trkpt lat="43.03729" lon="-0.41787">
        <ele>442.2</ele>
        <time>2022-06-08 10:25:28</time>
      </trkpt>
      <trkpt lat="43.03722" lon="-0.4179">
        <ele>442.2</ele>
        <time>2022-06-08 10:25:29</time>
      </trkpt>
      <trkpt lat="43.03716" lon="-0.41792">
        <ele>442.4</ele>
        <time>2022-06-08 10:25:30</time>
      </trkpt>
      <trkpt lat="43.03709" lon="-0.41794">
        <ele>442.4</ele>
        <time>2022-06-08 10:25:31</time>
      </trkpt>
      <trkpt lat="43.03703" lon="-0.41795">
        <ele>442.4</ele>
        <time>2022-06-08 10:25:32</time>
      </trkpt>
      <trkpt lat="43.03696" lon="-0.41797">
        <ele>442.6</ele>
        <time>2022-06-08 10:25:33</time>
      </trkpt>
      <trkpt lat="43.03689" lon="-0.41799">
        <ele>442.6</ele>
        <time>2022-06-08 10:25:34</time>
      </trkpt>
      <trkpt lat="43.03683" lon="-0.41801">
        <ele>442.6</ele>
        <time>2022-06-08 10:25:35</time>
      </trkpt>
      <trkpt lat="43.03676" lon="-0.41803">
        <ele>442.6</ele>
        <time>2022-06-08 10:25:36</time>
      </trkpt>
      <trkpt lat="43.0367" lon="-0.41806">
        <ele>442.8</ele>
        <time>2022-06-08 10:25:37</time>
      </trkpt>
      <trkpt lat="43.03663" lon="-0.41809">
        <ele>442.8</ele>
        <time>2022-06-08 10:25:38</time>
      </trkpt>
      <trkpt lat="43.03657" lon="-0.41812">
        <ele>443</ele>
        <time>2022-06-08 10:25:39</time>
      </trkpt>
      <trkpt lat="43.03651" lon="-0.41815">
        <ele>443</ele>
        <time>2022-06-08 10:25:40</time>
      </trkpt>
      <trkpt lat="43.03644" lon="-0.41818">
        <ele>442.8</ele>
        <time>2022-06-08 10:25:41</time>
      </trkpt>
      <trkpt lat="43.03638" lon="-0.41822">
        <ele>442.8</ele>
        <time>2022-06-08 10:25:42</time>
      </trkpt>
      <trkpt lat="43.03632" lon="-0.41825">
        <ele>442.8</ele>
        <time>2022-06-08 10:25:43</time>
      </trkpt>
      <trkpt lat="43.03625" lon="-0.41827">
        <ele>443</ele>
        <time>2022-06-08 10:25:44</time>
      </trkpt>
      <trkpt lat="43.03619" lon="-0.41829">
        <ele>443</ele>
        <time>2022-06-08 10:25:45</time>
      </trkpt>
      <trkpt lat="43.03613" lon="-0.41831">
        <ele>443</ele>
        <time>2022-06-08 10:25:46</time>
      </trkpt>
      <trkpt lat="43.03607" lon="-0.41833">
        <ele>443</ele>
        <time>2022-06-08 10:25:47</time>
      </trkpt>
      <trkpt lat="43.03602" lon="-0.41834">
        <ele>443.2</ele>
        <time>2022-06-08 10:25:48</time>
      </trkpt>
      <trkpt lat="43.03595" lon="-0.41836">
        <ele>443.2</ele>
        <time>2022-06-08 10:25:49</time>
      </trkpt>
      <trkpt lat="43.03589" lon="-0.41837">
        <ele>443.4</ele>
        <time>2022-06-08 10:25:50</time>
      </trkpt>
      <trkpt lat="43.03584" lon="-0.41839">
        <ele>443.6</ele>
        <time>2022-06-08 10:25:51</time>
      </trkpt>
      <trkpt lat="43.03579" lon="-0.41839">
        <ele>444</ele>
        <time>2022-06-08 10:25:52</time>
      </trkpt>
      <trkpt lat="43.03573" lon="-0.4184">
        <ele>444</ele>
        <time>2022-06-08 10:25:53</time>
      </trkpt>
      <trkpt lat="43.03569" lon="-0.4184">
        <ele>444.6</ele>
        <time>2022-06-08 10:25:54</time>
      </trkpt>
      <trkpt lat="43.03564" lon="-0.41841">
        <ele>444.8</ele>
        <time>2022-06-08 10:25:55</time>
      </trkpt>
      <trkpt lat="43.03559" lon="-0.41841">
        <ele>445</ele>
        <time>2022-06-08 10:25:56</time>
      </trkpt>
      <trkpt lat="43.03556" lon="-0.41841">
        <ele>445.4</ele>
        <time>2022-06-08 10:25:57</time>
      </trkpt>
      <trkpt lat="43.03552" lon="-0.41842">
        <ele>445.6</ele>
        <time>2022-06-08 10:25:58</time>
      </trkpt>
      <trkpt lat="43.03547" lon="-0.41843">
        <ele>445.6</ele>
        <time>2022-06-08 10:25:59</time>
      </trkpt>
      <trkpt lat="43.03542" lon="-0.41843">
        <ele>445.8</ele>
        <time>2022-06-08 10:26:00</time>
      </trkpt>
      <trkpt lat="43.03538" lon="-0.41843">
        <ele>445.8</ele>
        <time>2022-06-08 10:26:01</time>
      </trkpt>
      <trkpt lat="43.03534" lon="-0.41842">
        <ele>445.8</ele>
        <time>2022-06-08 10:26:02</time>
      </trkpt>
      <trkpt lat="43.03529" lon="-0.41839">
        <ele>446</ele>
        <time>2022-06-08 10:26:03</time>
      </trkpt>
      <trkpt lat="43.03524" lon="-0.41835">
        <ele>446</ele>
        <time>2022-06-08 10:26:04</time>
      </trkpt>
      <trkpt lat="43.0352" lon="-0.41831">
        <ele>446</ele>
        <time>2022-06-08 10:26:05</time>
      </trkpt>
      <trkpt lat="43.03517" lon="-0.41826">
        <ele>446.2</ele>
        <time>2022-06-08 10:26:06</time>
      </trkpt>
      <trkpt lat="43.03515" lon="-0.41823">
        <ele>446.4</ele>
        <time>2022-06-08 10:26:07</time>
      </trkpt>
      <trkpt lat="43.03513" lon="-0.41818">
        <ele>446.4</ele>
        <time>2022-06-08 10:26:08</time>
      </trkpt>
      <trkpt lat="43.0351" lon="-0.41812">
        <ele>446.6</ele>
        <time>2022-06-08 10:26:09</time>
      </trkpt>
      <trkpt lat="43.03507" lon="-0.41807">
        <ele>446.6</ele>
        <time>2022-06-08 10:26:10</time>
      </trkpt>
      <trkpt lat="43.03503" lon="-0.41803">
        <ele>446.6</ele>
        <time>2022-06-08 10:26:11</time>
      </trkpt>
      <trkpt lat="43.035" lon="-0.418">
        <ele>447</ele>
        <time>2022-06-08 10:26:12</time>
      </trkpt>
      <trkpt lat="43.03495" lon="-0.41795">
        <ele>447</ele>
        <time>2022-06-08 10:26:13</time>
      </trkpt>
      <trkpt lat="43.03491" lon="-0.41792">
        <ele>447.2</ele>
        <time>2022-06-08 10:26:14</time>
      </trkpt>
      <trkpt lat="43.03486" lon="-0.4179">
        <ele>447.4</ele>
        <time>2022-06-08 10:26:15</time>
      </trkpt>
      <trkpt lat="43.03482" lon="-0.41789">
        <ele>447.4</ele>
        <time>2022-06-08 10:26:16</time>
      </trkpt>
      <trkpt lat="43.03478" lon="-0.41786">
        <ele>447.6</ele>
        <time>2022-06-08 10:26:17</time>
      </trkpt>
      <trkpt lat="43.03473" lon="-0.41783">
        <ele>447.6</ele>
        <time>2022-06-08 10:26:18</time>
      </trkpt>
      <trkpt lat="43.03468" lon="-0.41781">
        <ele>447.6</ele>
        <time>2022-06-08 10:26:19</time>
      </trkpt>
      <trkpt lat="43.03464" lon="-0.41779">
        <ele>447.8</ele>
        <time>2022-06-08 10:26:20</time>
      </trkpt>
      <trkpt lat="43.03459" lon="-0.41779">
        <ele>447.8</ele>
        <time>2022-06-08 10:26:21</time>
      </trkpt>
      <trkpt lat="43.03456" lon="-0.41779">
        <ele>448</ele>
        <time>2022-06-08 10:26:22</time>
      </trkpt>
      <trkpt lat="43.03451" lon="-0.41779">
        <ele>448</ele>
        <time>2022-06-08 10:26:23</time>
      </trkpt>
      <trkpt lat="43.03446" lon="-0.4178">
        <ele>448.2</ele>
        <time>2022-06-08 10:26:24</time>
      </trkpt>
      <trkpt lat="43.03441" lon="-0.4178">
        <ele>448.4</ele>
        <time>2022-06-08 10:26:25</time>
      </trkpt>
      <trkpt lat="43.03437" lon="-0.41781">
        <ele>448.8</ele>
        <time>2022-06-08 10:26:26</time>
      </trkpt>
      <trkpt lat="43.03433" lon="-0.4178">
        <ele>449</ele>
        <time>2022-06-08 10:26:27</time>
      </trkpt>
      <trkpt lat="43.03427" lon="-0.41779">
        <ele>449.2</ele>
        <time>2022-06-08 10:26:28</time>
      </trkpt>
      <trkpt lat="43.03423" lon="-0.41778">
        <ele>449.6</ele>
        <time>2022-06-08 10:26:29</time>
      </trkpt>
      <trkpt lat="43.03419" lon="-0.41776">
        <ele>449.6</ele>
        <time>2022-06-08 10:26:30</time>
      </trkpt>
      <trkpt lat="43.03413" lon="-0.41776">
        <ele>450</ele>
        <time>2022-06-08 10:26:31</time>
      </trkpt>
      <trkpt lat="43.03407" lon="-0.41775">
        <ele>450</ele>
        <time>2022-06-08 10:26:32</time>
      </trkpt>
      <trkpt lat="43.03402" lon="-0.41774">
        <ele>450</ele>
        <time>2022-06-08 10:26:33</time>
      </trkpt>
      <trkpt lat="43.03396" lon="-0.41775">
        <ele>450</ele>
        <time>2022-06-08 10:26:34</time>
      </trkpt>
      <trkpt lat="43.03391" lon="-0.41775">
        <ele>450</ele>
        <time>2022-06-08 10:26:35</time>
      </trkpt>
      <trkpt lat="43.03386" lon="-0.41775">
        <ele>450</ele>
        <time>2022-06-08 10:26:36</time>
      </trkpt>
      <trkpt lat="43.03382" lon="-0.41773">
        <ele>450</ele>
        <time>2022-06-08 10:26:37</time>
      </trkpt>
      <trkpt lat="43.03376" lon="-0.41771">
        <ele>450</ele>
        <time>2022-06-08 10:26:38</time>
      </trkpt>
      <trkpt lat="43.03371" lon="-0.41769">
        <ele>450</ele>
        <time>2022-06-08 10:26:39</time>
      </trkpt>
      <trkpt lat="43.03366" lon="-0.41767">
        <ele>450</ele>
        <time>2022-06-08 10:26:40</time>
      </trkpt>
      <trkpt lat="43.03361" lon="-0.41765">
        <ele>450</ele>
        <time>2022-06-08 10:26:41</time>
      </trkpt>
      <trkpt lat="43.03358" lon="-0.41763">
        <ele>450</ele>
        <time>2022-06-08 10:26:42</time>
      </trkpt>
      <trkpt lat="43.03353" lon="-0.41759">
        <ele>450</ele>
        <time>2022-06-08 10:26:43</time>
      </trkpt>
      <trkpt lat="43.03348" lon="-0.41756">
        <ele>450.2</ele>
        <time>2022-06-08 10:26:44</time>
      </trkpt>
      <trkpt lat="43.03345" lon="-0.41753">
        <ele>450.2</ele>
        <time>2022-06-08 10:26:45</time>
      </trkpt>
      <trkpt lat="43.03341" lon="-0.4175">
        <ele>450.6</ele>
        <time>2022-06-08 10:26:46</time>
      </trkpt>
      <trkpt lat="43.03337" lon="-0.41747">
        <ele>450.6</ele>
        <time>2022-06-08 10:26:47</time>
      </trkpt>
      <trkpt lat="43.03334" lon="-0.41745">
        <ele>451</ele>
        <time>2022-06-08 10:26:48</time>
      </trkpt>
      <trkpt lat="43.03331" lon="-0.41741">
        <ele>451.4</ele>
        <time>2022-06-08 10:26:49</time>
      </trkpt>
      <trkpt lat="43.03328" lon="-0.41739">
        <ele>451.8</ele>
        <time>2022-06-08 10:26:50</time>
      </trkpt>
      <trkpt lat="43.03325" lon="-0.41736">
        <ele>452</ele>
        <time>2022-06-08 10:26:51</time>
      </trkpt>
      <trkpt lat="43.03322" lon="-0.41733">
        <ele>452.2</ele>
        <time>2022-06-08 10:26:52</time>
      </trkpt>
      <trkpt lat="43.03318" lon="-0.4173">
        <ele>452.4</ele>
        <time>2022-06-08 10:26:53</time>
      </trkpt>
      <trkpt lat="43.03316" lon="-0.41727">
        <ele>452.6</ele>
        <time>2022-06-08 10:26:54</time>
      </trkpt>
      <trkpt lat="43.03313" lon="-0.41725">
        <ele>452.6</ele>
        <time>2022-06-08 10:26:55</time>
      </trkpt>
      <trkpt lat="43.0331" lon="-0.41722">
        <ele>452.8</ele>
        <time>2022-06-08 10:26:56</time>
      </trkpt>
      <trkpt lat="43.03307" lon="-0.4172">
        <ele>453</ele>
        <time>2022-06-08 10:26:57</time>
      </trkpt>
      <trkpt lat="43.03305" lon="-0.41717">
        <ele>453</ele>
        <time>2022-06-08 10:26:58</time>
      </trkpt>
      <trkpt lat="43.03302" lon="-0.41714">
        <ele>453.6</ele>
        <time>2022-06-08 10:26:59</time>
      </trkpt>
      <trkpt lat="43.03299" lon="-0.41711">
        <ele>454.4</ele>
        <time>2022-06-08 10:27:00</time>
      </trkpt>
      <trkpt lat="43.03297" lon="-0.41708">
        <ele>455.2</ele>
        <time>2022-06-08 10:27:01</time>
      </trkpt>
      <trkpt lat="43.03294" lon="-0.41706">
        <ele>455.6</ele>
        <time>2022-06-08 10:27:02</time>
      </trkpt>
      <trkpt lat="43.03292" lon="-0.41704">
        <ele>455.8</ele>
        <time>2022-06-08 10:27:03</time>
      </trkpt>
      <trkpt lat="43.03289" lon="-0.41701">
        <ele>456</ele>
        <time>2022-06-08 10:27:04</time>
      </trkpt>
      <trkpt lat="43.03287" lon="-0.41699">
        <ele>456.2</ele>
        <time>2022-06-08 10:27:05</time>
      </trkpt>
      <trkpt lat="43.03285" lon="-0.41696">
        <ele>456.2</ele>
        <time>2022-06-08 10:27:06</time>
      </trkpt>
      <trkpt lat="43.03283" lon="-0.41694">
        <ele>456.2</ele>
        <time>2022-06-08 10:27:07</time>
      </trkpt>
      <trkpt lat="43.0328" lon="-0.41691">
        <ele>456.2</ele>
        <time>2022-06-08 10:27:08</time>
      </trkpt>
      <trkpt lat="43.03277" lon="-0.41689">
        <ele>456.2</ele>
        <time>2022-06-08 10:27:09</time>
      </trkpt>
      <trkpt lat="43.03274" lon="-0.41686">
        <ele>456.2</ele>
        <time>2022-06-08 10:27:10</time>
      </trkpt>
      <trkpt lat="43.03271" lon="-0.41684">
        <ele>456.4</ele>
        <time>2022-06-08 10:27:11</time>
      </trkpt>
      <trkpt lat="43.03267" lon="-0.41681">
        <ele>456.6</ele>
        <time>2022-06-08 10:27:12</time>
      </trkpt>
      <trkpt lat="43.03265" lon="-0.41678">
        <ele>457.6</ele>
        <time>2022-06-08 10:27:13</time>
      </trkpt>
      <trkpt lat="43.03261" lon="-0.41676">
        <ele>458.4</ele>
        <time>2022-06-08 10:27:14</time>
      </trkpt>
      <trkpt lat="43.03259" lon="-0.41675">
        <ele>458.6</ele>
        <time>2022-06-08 10:27:15</time>
      </trkpt>
      <trkpt lat="43.03256" lon="-0.41673">
        <ele>458.8</ele>
        <time>2022-06-08 10:27:16</time>
      </trkpt>
      <trkpt lat="43.03253" lon="-0.41671">
        <ele>459</ele>
        <time>2022-06-08 10:27:17</time>
      </trkpt>
      <trkpt lat="43.0325" lon="-0.41669">
        <ele>459.2</ele>
        <time>2022-06-08 10:27:18</time>
      </trkpt>
      <trkpt lat="43.03247" lon="-0.41667">
        <ele>459.2</ele>
        <time>2022-06-08 10:27:19</time>
      </trkpt>
      <trkpt lat="43.03245" lon="-0.41666">
        <ele>459.6</ele>
        <time>2022-06-08 10:27:20</time>
      </trkpt>
      <trkpt lat="43.03242" lon="-0.41664">
        <ele>459.8</ele>
        <time>2022-06-08 10:27:21</time>
      </trkpt>
      <trkpt lat="43.0324" lon="-0.41663">
        <ele>460</ele>
        <time>2022-06-08 10:27:22</time>
      </trkpt>
      <trkpt lat="43.03237" lon="-0.41661">
        <ele>460</ele>
        <time>2022-06-08 10:27:23</time>
      </trkpt>
      <trkpt lat="43.03234" lon="-0.41659">
        <ele>460.2</ele>
        <time>2022-06-08 10:27:24</time>
      </trkpt>
      <trkpt lat="43.03231" lon="-0.41657">
        <ele>460.2</ele>
        <time>2022-06-08 10:27:25</time>
      </trkpt>
      <trkpt lat="43.03229" lon="-0.41655">
        <ele>460.4</ele>
        <time>2022-06-08 10:27:26</time>
      </trkpt>
      <trkpt lat="43.03226" lon="-0.41653">
        <ele>460.4</ele>
        <time>2022-06-08 10:27:27</time>
      </trkpt>
      <trkpt lat="43.03224" lon="-0.41651">
        <ele>461.6</ele>
        <time>2022-06-08 10:27:28</time>
      </trkpt>
      <trkpt lat="43.03221" lon="-0.41649">
        <ele>462.2</ele>
        <time>2022-06-08 10:27:29</time>
      </trkpt>
      <trkpt lat="43.03218" lon="-0.41647">
        <ele>462.4</ele>
        <time>2022-06-08 10:27:30</time>
      </trkpt>
      <trkpt lat="43.03215" lon="-0.41645">
        <ele>462.8</ele>
        <time>2022-06-08 10:27:31</time>
      </trkpt>
      <trkpt lat="43.03212" lon="-0.41643">
        <ele>463</ele>
        <time>2022-06-08 10:27:32</time>
      </trkpt>
      <trkpt lat="43.03209" lon="-0.41641">
        <ele>463.4</ele>
        <time>2022-06-08 10:27:33</time>
      </trkpt>
      <trkpt lat="43.03206" lon="-0.41639">
        <ele>463.4</ele>
        <time>2022-06-08 10:27:34</time>
      </trkpt>
      <trkpt lat="43.03202" lon="-0.41637">
        <ele>463.6</ele>
        <time>2022-06-08 10:27:35</time>
      </trkpt>
      <trkpt lat="43.032" lon="-0.41636">
        <ele>463.6</ele>
        <time>2022-06-08 10:27:36</time>
      </trkpt>
      <trkpt lat="43.03196" lon="-0.41634">
        <ele>463.8</ele>
        <time>2022-06-08 10:27:37</time>
      </trkpt>
      <trkpt lat="43.03192" lon="-0.41632">
        <ele>463.8</ele>
        <time>2022-06-08 10:27:38</time>
      </trkpt>
      <trkpt lat="43.03189" lon="-0.4163">
        <ele>464.2</ele>
        <time>2022-06-08 10:27:39</time>
      </trkpt>
      <trkpt lat="43.03185" lon="-0.41628">
        <ele>464.2</ele>
        <time>2022-06-08 10:27:40</time>
      </trkpt>
      <trkpt lat="43.03182" lon="-0.41626">
        <ele>464.4</ele>
        <time>2022-06-08 10:27:41</time>
      </trkpt>
      <trkpt lat="43.03179" lon="-0.41624">
        <ele>464.6</ele>
        <time>2022-06-08 10:27:42</time>
      </trkpt>
      <trkpt lat="43.03176" lon="-0.41622">
        <ele>465</ele>
        <time>2022-06-08 10:27:43</time>
      </trkpt>
      <trkpt lat="43.03173" lon="-0.4162">
        <ele>465.4</ele>
        <time>2022-06-08 10:27:44</time>
      </trkpt>
      <trkpt lat="43.0317" lon="-0.41619">
        <ele>465.6</ele>
        <time>2022-06-08 10:27:45</time>
      </trkpt>
      <trkpt lat="43.03167" lon="-0.41617">
        <ele>465.6</ele>
        <time>2022-06-08 10:27:46</time>
      </trkpt>
      <trkpt lat="43.03163" lon="-0.41614">
        <ele>465.8</ele>
        <time>2022-06-08 10:27:47</time>
      </trkpt>
      <trkpt lat="43.0316" lon="-0.41612">
        <ele>466.2</ele>
        <time>2022-06-08 10:27:48</time>
      </trkpt>
      <trkpt lat="43.03158" lon="-0.41611">
        <ele>466.4</ele>
        <time>2022-06-08 10:27:49</time>
      </trkpt>
      <trkpt lat="43.03154" lon="-0.41609">
        <ele>466.6</ele>
        <time>2022-06-08 10:27:50</time>
      </trkpt>
      <trkpt lat="43.03152" lon="-0.41608">
        <ele>466.8</ele>
        <time>2022-06-08 10:27:51</time>
      </trkpt>
      <trkpt lat="43.0315" lon="-0.41606">
        <ele>467.4</ele>
        <time>2022-06-08 10:27:52</time>
      </trkpt>
      <trkpt lat="43.03146" lon="-0.41604">
        <ele>467.8</ele>
        <time>2022-06-08 10:27:53</time>
      </trkpt>
      <trkpt lat="43.03144" lon="-0.41602">
        <ele>468.2</ele>
        <time>2022-06-08 10:27:54</time>
      </trkpt>
      <trkpt lat="43.03141" lon="-0.416">
        <ele>468.4</ele>
        <time>2022-06-08 10:27:55</time>
      </trkpt>
      <trkpt lat="43.03139" lon="-0.41598">
        <ele>468.6</ele>
        <time>2022-06-08 10:27:56</time>
      </trkpt>
      <trkpt lat="43.03136" lon="-0.41596">
        <ele>468.8</ele>
        <time>2022-06-08 10:27:57</time>
      </trkpt>
      <trkpt lat="43.03133" lon="-0.41595">
        <ele>468.8</ele>
        <time>2022-06-08 10:27:58</time>
      </trkpt>
      <trkpt lat="43.0313" lon="-0.41594">
        <ele>469.2</ele>
        <time>2022-06-08 10:27:59</time>
      </trkpt>
      <trkpt lat="43.03127" lon="-0.41592">
        <ele>469.2</ele>
        <time>2022-06-08 10:28:00</time>
      </trkpt>
      <trkpt lat="43.03125" lon="-0.4159">
        <ele>469.4</ele>
        <time>2022-06-08 10:28:01</time>
      </trkpt>
      <trkpt lat="43.03121" lon="-0.41589">
        <ele>469.6</ele>
        <time>2022-06-08 10:28:02</time>
      </trkpt>
      <trkpt lat="43.03118" lon="-0.41587">
        <ele>470.2</ele>
        <time>2022-06-08 10:28:03</time>
      </trkpt>
      <trkpt lat="43.03115" lon="-0.41585">
        <ele>470.4</ele>
        <time>2022-06-08 10:28:04</time>
      </trkpt>
      <trkpt lat="43.03112" lon="-0.41583">
        <ele>470.6</ele>
        <time>2022-06-08 10:28:05</time>
      </trkpt>
      <trkpt lat="43.03109" lon="-0.41582">
        <ele>470.8</ele>
        <time>2022-06-08 10:28:06</time>
      </trkpt>
      <trkpt lat="43.03106" lon="-0.41581">
        <ele>471</ele>
        <time>2022-06-08 10:28:07</time>
      </trkpt>
      <trkpt lat="43.03102" lon="-0.41579">
        <ele>471.2</ele>
        <time>2022-06-08 10:28:08</time>
      </trkpt>
      <trkpt lat="43.031" lon="-0.41577">
        <ele>471.6</ele>
        <time>2022-06-08 10:28:09</time>
      </trkpt>
      <trkpt lat="43.03097" lon="-0.41574">
        <ele>471.8</ele>
        <time>2022-06-08 10:28:10</time>
      </trkpt>
      <trkpt lat="43.03094" lon="-0.41572">
        <ele>472</ele>
        <time>2022-06-08 10:28:11</time>
      </trkpt>
      <trkpt lat="43.03091" lon="-0.41569">
        <ele>472.2</ele>
        <time>2022-06-08 10:28:12</time>
      </trkpt>
      <trkpt lat="43.03088" lon="-0.41567">
        <ele>472.2</ele>
        <time>2022-06-08 10:28:13</time>
      </trkpt>
      <trkpt lat="43.03086" lon="-0.41564">
        <ele>472.4</ele>
        <time>2022-06-08 10:28:14</time>
      </trkpt>
      <trkpt lat="43.03083" lon="-0.41562">
        <ele>472.4</ele>
        <time>2022-06-08 10:28:15</time>
      </trkpt>
      <trkpt lat="43.0308" lon="-0.4156">
        <ele>472.8</ele>
        <time>2022-06-08 10:28:16</time>
      </trkpt>
      <trkpt lat="43.03078" lon="-0.41558">
        <ele>472.8</ele>
        <time>2022-06-08 10:28:17</time>
      </trkpt>
      <trkpt lat="43.03075" lon="-0.41555">
        <ele>473</ele>
        <time>2022-06-08 10:28:18</time>
      </trkpt>
      <trkpt lat="43.03072" lon="-0.41552">
        <ele>473.2</ele>
        <time>2022-06-08 10:28:19</time>
      </trkpt>
      <trkpt lat="43.0307" lon="-0.4155">
        <ele>473.2</ele>
        <time>2022-06-08 10:28:20</time>
      </trkpt>
      <trkpt lat="43.03067" lon="-0.41548">
        <ele>473.4</ele>
        <time>2022-06-08 10:28:21</time>
      </trkpt>
      <trkpt lat="43.03064" lon="-0.41546">
        <ele>473.6</ele>
        <time>2022-06-08 10:28:22</time>
      </trkpt>
      <trkpt lat="43.03061" lon="-0.41544">
        <ele>473.6</ele>
        <time>2022-06-08 10:28:23</time>
      </trkpt>
      <trkpt lat="43.03058" lon="-0.41542">
        <ele>474</ele>
        <time>2022-06-08 10:28:24</time>
      </trkpt>
      <trkpt lat="43.03055" lon="-0.41541">
        <ele>474</ele>
        <time>2022-06-08 10:28:25</time>
      </trkpt>
      <trkpt lat="43.03052" lon="-0.41539">
        <ele>474.2</ele>
        <time>2022-06-08 10:28:26</time>
      </trkpt>
      <trkpt lat="43.03049" lon="-0.41538">
        <ele>474.4</ele>
        <time>2022-06-08 10:28:27</time>
      </trkpt>
      <trkpt lat="43.03046" lon="-0.41536">
        <ele>474.6</ele>
        <time>2022-06-08 10:28:28</time>
      </trkpt>
      <trkpt lat="43.03043" lon="-0.41534">
        <ele>474.6</ele>
        <time>2022-06-08 10:28:29</time>
      </trkpt>
      <trkpt lat="43.03039" lon="-0.41532">
        <ele>474.8</ele>
        <time>2022-06-08 10:28:30</time>
      </trkpt>
      <trkpt lat="43.03037" lon="-0.4153">
        <ele>474.8</ele>
        <time>2022-06-08 10:28:31</time>
      </trkpt>
      <trkpt lat="43.03034" lon="-0.41528">
        <ele>474.8</ele>
        <time>2022-06-08 10:28:32</time>
      </trkpt>
      <trkpt lat="43.0303" lon="-0.41526">
        <ele>475</ele>
        <time>2022-06-08 10:28:33</time>
      </trkpt>
      <trkpt lat="43.03027" lon="-0.41524">
        <ele>475.2</ele>
        <time>2022-06-08 10:28:34</time>
      </trkpt>
      <trkpt lat="43.03024" lon="-0.41522">
        <ele>475.4</ele>
        <time>2022-06-08 10:28:35</time>
      </trkpt>
      <trkpt lat="43.03021" lon="-0.4152">
        <ele>475.4</ele>
        <time>2022-06-08 10:28:36</time>
      </trkpt>
      <trkpt lat="43.03017" lon="-0.41518">
        <ele>475.4</ele>
        <time>2022-06-08 10:28:37</time>
      </trkpt>
      <trkpt lat="43.03014" lon="-0.41516">
        <ele>475.6</ele>
        <time>2022-06-08 10:28:38</time>
      </trkpt>
      <trkpt lat="43.0301" lon="-0.41515">
        <ele>475.8</ele>
        <time>2022-06-08 10:28:39</time>
      </trkpt>
      <trkpt lat="43.03006" lon="-0.41514">
        <ele>475.8</ele>
        <time>2022-06-08 10:28:40</time>
      </trkpt>
      <trkpt lat="43.03001" lon="-0.41512">
        <ele>476</ele>
        <time>2022-06-08 10:28:41</time>
      </trkpt>
      <trkpt lat="43.02998" lon="-0.41512">
        <ele>476</ele>
        <time>2022-06-08 10:28:42</time>
      </trkpt>
      <trkpt lat="43.02993" lon="-0.4151">
        <ele>476.2</ele>
        <time>2022-06-08 10:28:43</time>
      </trkpt>
      <trkpt lat="43.02989" lon="-0.41509">
        <ele>476.2</ele>
        <time>2022-06-08 10:28:44</time>
      </trkpt>
      <trkpt lat="43.02985" lon="-0.41508">
        <ele>476.4</ele>
        <time>2022-06-08 10:28:45</time>
      </trkpt>
      <trkpt lat="43.02981" lon="-0.41507">
        <ele>476.4</ele>
        <time>2022-06-08 10:28:46</time>
      </trkpt>
      <trkpt lat="43.02977" lon="-0.41506">
        <ele>476.4</ele>
        <time>2022-06-08 10:28:47</time>
      </trkpt>
      <trkpt lat="43.02974" lon="-0.41505">
        <ele>476.6</ele>
        <time>2022-06-08 10:28:48</time>
      </trkpt>
      <trkpt lat="43.0297" lon="-0.41504">
        <ele>476.6</ele>
        <time>2022-06-08 10:28:49</time>
      </trkpt>
      <trkpt lat="43.02967" lon="-0.41503">
        <ele>476.8</ele>
        <time>2022-06-08 10:28:50</time>
      </trkpt>
      <trkpt lat="43.02963" lon="-0.41503">
        <ele>477</ele>
        <time>2022-06-08 10:28:51</time>
      </trkpt>
      <trkpt lat="43.0296" lon="-0.41502">
        <ele>477.6</ele>
        <time>2022-06-08 10:28:52</time>
      </trkpt>
      <trkpt lat="43.02955" lon="-0.41501">
        <ele>477.6</ele>
        <time>2022-06-08 10:28:53</time>
      </trkpt>
      <trkpt lat="43.02951" lon="-0.41499">
        <ele>478</ele>
        <time>2022-06-08 10:28:54</time>
      </trkpt>
      <trkpt lat="43.02948" lon="-0.41498">
        <ele>478</ele>
        <time>2022-06-08 10:28:55</time>
      </trkpt>
      <trkpt lat="43.02944" lon="-0.41497">
        <ele>478.2</ele>
        <time>2022-06-08 10:28:56</time>
      </trkpt>
      <trkpt lat="43.02941" lon="-0.41495">
        <ele>478.2</ele>
        <time>2022-06-08 10:28:57</time>
      </trkpt>
      <trkpt lat="43.02937" lon="-0.41494">
        <ele>478.4</ele>
        <time>2022-06-08 10:28:58</time>
      </trkpt>
      <trkpt lat="43.02933" lon="-0.41492">
        <ele>478.4</ele>
        <time>2022-06-08 10:28:59</time>
      </trkpt>
      <trkpt lat="43.02929" lon="-0.4149">
        <ele>478.6</ele>
        <time>2022-06-08 10:29:00</time>
      </trkpt>
      <trkpt lat="43.02927" lon="-0.41488">
        <ele>478.8</ele>
        <time>2022-06-08 10:29:01</time>
      </trkpt>
      <trkpt lat="43.02923" lon="-0.41484">
        <ele>478.8</ele>
        <time>2022-06-08 10:29:02</time>
      </trkpt>
      <trkpt lat="43.0292" lon="-0.4148">
        <ele>479</ele>
        <time>2022-06-08 10:29:03</time>
      </trkpt>
      <trkpt lat="43.02917" lon="-0.41476">
        <ele>479</ele>
        <time>2022-06-08 10:29:04</time>
      </trkpt>
      <trkpt lat="43.02914" lon="-0.41473">
        <ele>479</ele>
        <time>2022-06-08 10:29:05</time>
      </trkpt>
      <trkpt lat="43.02911" lon="-0.4147">
        <ele>479</ele>
        <time>2022-06-08 10:29:06</time>
      </trkpt>
      <trkpt lat="43.02907" lon="-0.41467">
        <ele>479</ele>
        <time>2022-06-08 10:29:07</time>
      </trkpt>
      <trkpt lat="43.02903" lon="-0.41466">
        <ele>479.2</ele>
        <time>2022-06-08 10:29:08</time>
      </trkpt>
      <trkpt lat="43.02899" lon="-0.41465">
        <ele>479.4</ele>
        <time>2022-06-08 10:29:09</time>
      </trkpt>
      <trkpt lat="43.02895" lon="-0.41465">
        <ele>479.6</ele>
        <time>2022-06-08 10:29:10</time>
      </trkpt>
      <trkpt lat="43.02892" lon="-0.41465">
        <ele>479.8</ele>
        <time>2022-06-08 10:29:11</time>
      </trkpt>
      <trkpt lat="43.02888" lon="-0.41466">
        <ele>479.8</ele>
        <time>2022-06-08 10:29:12</time>
      </trkpt>
      <trkpt lat="43.02884" lon="-0.41467">
        <ele>479.8</ele>
        <time>2022-06-08 10:29:13</time>
      </trkpt>
      <trkpt lat="43.02879" lon="-0.41467">
        <ele>479.8</ele>
        <time>2022-06-08 10:29:14</time>
      </trkpt>
      <trkpt lat="43.02875" lon="-0.41468">
        <ele>480</ele>
        <time>2022-06-08 10:29:15</time>
      </trkpt>
      <trkpt lat="43.02871" lon="-0.4147">
        <ele>480</ele>
        <time>2022-06-08 10:29:16</time>
      </trkpt>
      <trkpt lat="43.02866" lon="-0.41471">
        <ele>480</ele>
        <time>2022-06-08 10:29:17</time>
      </trkpt>
      <trkpt lat="43.02862" lon="-0.41472">
        <ele>480</ele>
        <time>2022-06-08 10:29:18</time>
      </trkpt>
      <trkpt lat="43.02858" lon="-0.41473">
        <ele>480.2</ele>
        <time>2022-06-08 10:29:19</time>
      </trkpt>
      <trkpt lat="43.02854" lon="-0.41475">
        <ele>480.2</ele>
        <time>2022-06-08 10:29:20</time>
      </trkpt>
      <trkpt lat="43.0285" lon="-0.41476">
        <ele>480.2</ele>
        <time>2022-06-08 10:29:21</time>
      </trkpt>
      <trkpt lat="43.02846" lon="-0.41477">
        <ele>480.4</ele>
        <time>2022-06-08 10:29:22</time>
      </trkpt>
      <trkpt lat="43.02842" lon="-0.41479">
        <ele>480.4</ele>
        <time>2022-06-08 10:29:23</time>
      </trkpt>
      <trkpt lat="43.02837" lon="-0.41481">
        <ele>480.4</ele>
        <time>2022-06-08 10:29:24</time>
      </trkpt>
      <trkpt lat="43.02833" lon="-0.41482">
        <ele>480.4</ele>
        <time>2022-06-08 10:29:25</time>
      </trkpt>
      <trkpt lat="43.02828" lon="-0.41483">
        <ele>480.4</ele>
        <time>2022-06-08 10:29:26</time>
      </trkpt>
      <trkpt lat="43.02824" lon="-0.41484">
        <ele>480.4</ele>
        <time>2022-06-08 10:29:27</time>
      </trkpt>
      <trkpt lat="43.02819" lon="-0.41484">
        <ele>480.6</ele>
        <time>2022-06-08 10:29:28</time>
      </trkpt>
      <trkpt lat="43.02815" lon="-0.41483">
        <ele>480.6</ele>
        <time>2022-06-08 10:29:29</time>
      </trkpt>
      <trkpt lat="43.02811" lon="-0.41483">
        <ele>480.6</ele>
        <time>2022-06-08 10:29:30</time>
      </trkpt>
      <trkpt lat="43.02807" lon="-0.41482">
        <ele>480.6</ele>
        <time>2022-06-08 10:29:31</time>
      </trkpt>
      <trkpt lat="43.02803" lon="-0.41481">
        <ele>480.6</ele>
        <time>2022-06-08 10:29:32</time>
      </trkpt>
      <trkpt lat="43.02799" lon="-0.41479">
        <ele>480.6</ele>
        <time>2022-06-08 10:29:33</time>
      </trkpt>
      <trkpt lat="43.02795" lon="-0.41478">
        <ele>480.6</ele>
        <time>2022-06-08 10:29:34</time>
      </trkpt>
      <trkpt lat="43.0279" lon="-0.41478">
        <ele>480.4</ele>
        <time>2022-06-08 10:29:35</time>
      </trkpt>
      <trkpt lat="43.02786" lon="-0.41477">
        <ele>480.4</ele>
        <time>2022-06-08 10:29:36</time>
      </trkpt>
      <trkpt lat="43.02783" lon="-0.41476">
        <ele>480.4</ele>
        <time>2022-06-08 10:29:37</time>
      </trkpt>
      <trkpt lat="43.02777" lon="-0.41475">
        <ele>480.4</ele>
        <time>2022-06-08 10:29:38</time>
      </trkpt>
      <trkpt lat="43.02773" lon="-0.41473">
        <ele>480.4</ele>
        <time>2022-06-08 10:29:39</time>
      </trkpt>
      <trkpt lat="43.02769" lon="-0.41472">
        <ele>480.4</ele>
        <time>2022-06-08 10:29:40</time>
      </trkpt>
      <trkpt lat="43.02766" lon="-0.41471">
        <ele>480.4</ele>
        <time>2022-06-08 10:29:41</time>
      </trkpt>
      <trkpt lat="43.02762" lon="-0.41469">
        <ele>480.4</ele>
        <time>2022-06-08 10:29:42</time>
      </trkpt>
      <trkpt lat="43.02758" lon="-0.41466">
        <ele>480.4</ele>
        <time>2022-06-08 10:29:43</time>
      </trkpt>
      <trkpt lat="43.02754" lon="-0.41464">
        <ele>480.4</ele>
        <time>2022-06-08 10:29:44</time>
      </trkpt>
      <trkpt lat="43.0275" lon="-0.41461">
        <ele>480.4</ele>
        <time>2022-06-08 10:29:45</time>
      </trkpt>
      <trkpt lat="43.02747" lon="-0.41459">
        <ele>480.4</ele>
        <time>2022-06-08 10:29:46</time>
      </trkpt>
      <trkpt lat="43.02743" lon="-0.41456">
        <ele>480.4</ele>
        <time>2022-06-08 10:29:47</time>
      </trkpt>
      <trkpt lat="43.02739" lon="-0.41452">
        <ele>480.4</ele>
        <time>2022-06-08 10:29:48</time>
      </trkpt>
      <trkpt lat="43.02735" lon="-0.4145">
        <ele>480.4</ele>
        <time>2022-06-08 10:29:49</time>
      </trkpt>
      <trkpt lat="43.02732" lon="-0.41447">
        <ele>480.6</ele>
        <time>2022-06-08 10:29:50</time>
      </trkpt>
      <trkpt lat="43.02729" lon="-0.41444">
        <ele>480.6</ele>
        <time>2022-06-08 10:29:51</time>
      </trkpt>
      <trkpt lat="43.02724" lon="-0.41442">
        <ele>480.6</ele>
        <time>2022-06-08 10:29:52</time>
      </trkpt>
      <trkpt lat="43.0272" lon="-0.41439">
        <ele>480.6</ele>
        <time>2022-06-08 10:29:53</time>
      </trkpt>
      <trkpt lat="43.02716" lon="-0.41437">
        <ele>480.6</ele>
        <time>2022-06-08 10:29:54</time>
      </trkpt>
      <trkpt lat="43.02713" lon="-0.41434">
        <ele>480.6</ele>
        <time>2022-06-08 10:29:55</time>
      </trkpt>
      <trkpt lat="43.02708" lon="-0.41432">
        <ele>480.8</ele>
        <time>2022-06-08 10:29:56</time>
      </trkpt>
      <trkpt lat="43.02704" lon="-0.4143">
        <ele>480.8</ele>
        <time>2022-06-08 10:29:57</time>
      </trkpt>
      <trkpt lat="43.02699" lon="-0.41427">
        <ele>480.8</ele>
        <time>2022-06-08 10:29:58</time>
      </trkpt>
      <trkpt lat="43.02694" lon="-0.41425">
        <ele>480.8</ele>
        <time>2022-06-08 10:29:59</time>
      </trkpt>
      <trkpt lat="43.02689" lon="-0.41422">
        <ele>480.8</ele>
        <time>2022-06-08 10:30:00</time>
      </trkpt>
      <trkpt lat="43.02686" lon="-0.41421">
        <ele>480.8</ele>
        <time>2022-06-08 10:30:01</time>
      </trkpt>
      <trkpt lat="43.02681" lon="-0.4142">
        <ele>480.8</ele>
        <time>2022-06-08 10:30:02</time>
      </trkpt>
      <trkpt lat="43.02675" lon="-0.41419">
        <ele>480.6</ele>
        <time>2022-06-08 10:30:03</time>
      </trkpt>
      <trkpt lat="43.02671" lon="-0.41418">
        <ele>480.4</ele>
        <time>2022-06-08 10:30:04</time>
      </trkpt>
      <trkpt lat="43.02666" lon="-0.41417">
        <ele>480.4</ele>
        <time>2022-06-08 10:30:05</time>
      </trkpt>
      <trkpt lat="43.02662" lon="-0.41416">
        <ele>480.4</ele>
        <time>2022-06-08 10:30:06</time>
      </trkpt>
      <trkpt lat="43.02658" lon="-0.41415">
        <ele>480.4</ele>
        <time>2022-06-08 10:30:07</time>
      </trkpt>
      <trkpt lat="43.02654" lon="-0.41415">
        <ele>480.4</ele>
        <time>2022-06-08 10:30:08</time>
      </trkpt>
      <trkpt lat="43.02649" lon="-0.41414">
        <ele>480.4</ele>
        <time>2022-06-08 10:30:09</time>
      </trkpt>
      <trkpt lat="43.02645" lon="-0.41413">
        <ele>480.4</ele>
        <time>2022-06-08 10:30:10</time>
      </trkpt>
      <trkpt lat="43.02642" lon="-0.41413">
        <ele>480.6</ele>
        <time>2022-06-08 10:30:11</time>
      </trkpt>
      <trkpt lat="43.02637" lon="-0.41412">
        <ele>480.6</ele>
        <time>2022-06-08 10:30:12</time>
      </trkpt>
      <trkpt lat="43.02632" lon="-0.41411">
        <ele>480.6</ele>
        <time>2022-06-08 10:30:13</time>
      </trkpt>
      <trkpt lat="43.02628" lon="-0.4141">
        <ele>480.8</ele>
        <time>2022-06-08 10:30:14</time>
      </trkpt>
      <trkpt lat="43.02624" lon="-0.41409">
        <ele>481</ele>
        <time>2022-06-08 10:30:15</time>
      </trkpt>
      <trkpt lat="43.0262" lon="-0.41407">
        <ele>481</ele>
        <time>2022-06-08 10:30:16</time>
      </trkpt>
      <trkpt lat="43.02616" lon="-0.41404">
        <ele>481.2</ele>
        <time>2022-06-08 10:30:17</time>
      </trkpt>
      <trkpt lat="43.02612" lon="-0.41402">
        <ele>481.4</ele>
        <time>2022-06-08 10:30:18</time>
      </trkpt>
      <trkpt lat="43.02608" lon="-0.414">
        <ele>481.4</ele>
        <time>2022-06-08 10:30:19</time>
      </trkpt>
      <trkpt lat="43.02604" lon="-0.41397">
        <ele>481.6</ele>
        <time>2022-06-08 10:30:20</time>
      </trkpt>
      <trkpt lat="43.02601" lon="-0.41394">
        <ele>481.6</ele>
        <time>2022-06-08 10:30:21</time>
      </trkpt>
      <trkpt lat="43.02597" lon="-0.4139">
        <ele>481.6</ele>
        <time>2022-06-08 10:30:22</time>
      </trkpt>
      <trkpt lat="43.02593" lon="-0.41386">
        <ele>481.6</ele>
        <time>2022-06-08 10:30:23</time>
      </trkpt>
      <trkpt lat="43.02589" lon="-0.41382">
        <ele>481.6</ele>
        <time>2022-06-08 10:30:24</time>
      </trkpt>
      <trkpt lat="43.02584" lon="-0.41378">
        <ele>481.6</ele>
        <time>2022-06-08 10:30:25</time>
      </trkpt>
      <trkpt lat="43.02581" lon="-0.41374">
        <ele>481.6</ele>
        <time>2022-06-08 10:30:26</time>
      </trkpt>
      <trkpt lat="43.02577" lon="-0.4137">
        <ele>481.6</ele>
        <time>2022-06-08 10:30:27</time>
      </trkpt>
      <trkpt lat="43.02574" lon="-0.41367">
        <ele>481.6</ele>
        <time>2022-06-08 10:30:28</time>
      </trkpt>
      <trkpt lat="43.0257" lon="-0.41364">
        <ele>481.6</ele>
        <time>2022-06-08 10:30:29</time>
      </trkpt>
      <trkpt lat="43.02566" lon="-0.41361">
        <ele>481.6</ele>
        <time>2022-06-08 10:30:30</time>
      </trkpt>
      <trkpt lat="43.02561" lon="-0.41357">
        <ele>481.6</ele>
        <time>2022-06-08 10:30:31</time>
      </trkpt>
      <trkpt lat="43.02557" lon="-0.41354">
        <ele>481.6</ele>
        <time>2022-06-08 10:30:32</time>
      </trkpt>
      <trkpt lat="43.02551" lon="-0.4135">
        <ele>481.6</ele>
        <time>2022-06-08 10:30:33</time>
      </trkpt>
      <trkpt lat="43.02546" lon="-0.41347">
        <ele>481.6</ele>
        <time>2022-06-08 10:30:34</time>
      </trkpt>
      <trkpt lat="43.02542" lon="-0.41344">
        <ele>481.6</ele>
        <time>2022-06-08 10:30:35</time>
      </trkpt>
      <trkpt lat="43.02535" lon="-0.41339">
        <ele>481.6</ele>
        <time>2022-06-08 10:30:36</time>
      </trkpt>
      <trkpt lat="43.02529" lon="-0.41336">
        <ele>481.6</ele>
        <time>2022-06-08 10:30:37</time>
      </trkpt>
      <trkpt lat="43.02524" lon="-0.41333">
        <ele>481.6</ele>
        <time>2022-06-08 10:30:38</time>
      </trkpt>
      <trkpt lat="43.02518" lon="-0.4133">
        <ele>481.6</ele>
        <time>2022-06-08 10:30:39</time>
      </trkpt>
      <trkpt lat="43.02513" lon="-0.41328">
        <ele>481.6</ele>
        <time>2022-06-08 10:30:40</time>
      </trkpt>
      <trkpt lat="43.02507" lon="-0.41326">
        <ele>481.8</ele>
        <time>2022-06-08 10:30:41</time>
      </trkpt>
      <trkpt lat="43.025" lon="-0.41323">
        <ele>481.8</ele>
        <time>2022-06-08 10:30:42</time>
      </trkpt>
      <trkpt lat="43.02493" lon="-0.41321">
        <ele>482</ele>
        <time>2022-06-08 10:30:43</time>
      </trkpt>
      <trkpt lat="43.02487" lon="-0.41319">
        <ele>482.2</ele>
        <time>2022-06-08 10:30:44</time>
      </trkpt>
      <trkpt lat="43.02482" lon="-0.41317">
        <ele>482.2</ele>
        <time>2022-06-08 10:30:45</time>
      </trkpt>
      <trkpt lat="43.02476" lon="-0.41316">
        <ele>482.2</ele>
        <time>2022-06-08 10:30:46</time>
      </trkpt>
      <trkpt lat="43.0247" lon="-0.41315">
        <ele>482.4</ele>
        <time>2022-06-08 10:30:47</time>
      </trkpt>
      <trkpt lat="43.02464" lon="-0.41314">
        <ele>482.4</ele>
        <time>2022-06-08 10:30:48</time>
      </trkpt>
      <trkpt lat="43.02457" lon="-0.41313">
        <ele>482.4</ele>
        <time>2022-06-08 10:30:49</time>
      </trkpt>
      <trkpt lat="43.02453" lon="-0.41312">
        <ele>482.8</ele>
        <time>2022-06-08 10:30:50</time>
      </trkpt>
      <trkpt lat="43.02448" lon="-0.41311">
        <ele>483</ele>
        <time>2022-06-08 10:30:51</time>
      </trkpt>
      <trkpt lat="43.02442" lon="-0.41309">
        <ele>483.6</ele>
        <time>2022-06-08 10:30:52</time>
      </trkpt>
      <trkpt lat="43.02437" lon="-0.41308">
        <ele>483.8</ele>
        <time>2022-06-08 10:30:53</time>
      </trkpt>
      <trkpt lat="43.02433" lon="-0.41306">
        <ele>484</ele>
        <time>2022-06-08 10:30:54</time>
      </trkpt>
      <trkpt lat="43.02429" lon="-0.41304">
        <ele>484</ele>
        <time>2022-06-08 10:30:55</time>
      </trkpt>
      <trkpt lat="43.02425" lon="-0.41302">
        <ele>484.4</ele>
        <time>2022-06-08 10:30:56</time>
      </trkpt>
      <trkpt lat="43.02421" lon="-0.413">
        <ele>484.8</ele>
        <time>2022-06-08 10:30:57</time>
      </trkpt>
      <trkpt lat="43.02416" lon="-0.41297">
        <ele>485</ele>
        <time>2022-06-08 10:30:58</time>
      </trkpt>
      <trkpt lat="43.02411" lon="-0.41295">
        <ele>485.4</ele>
        <time>2022-06-08 10:30:59</time>
      </trkpt>
      <trkpt lat="43.02408" lon="-0.41293">
        <ele>486.2</ele>
        <time>2022-06-08 10:31:00</time>
      </trkpt>
      <trkpt lat="43.02404" lon="-0.41291">
        <ele>486.6</ele>
        <time>2022-06-08 10:31:01</time>
      </trkpt>
      <trkpt lat="43.024" lon="-0.41288">
        <ele>487</ele>
        <time>2022-06-08 10:31:02</time>
      </trkpt>
      <trkpt lat="43.02396" lon="-0.41286">
        <ele>487.4</ele>
        <time>2022-06-08 10:31:03</time>
      </trkpt>
      <trkpt lat="43.02394" lon="-0.41284">
        <ele>487.6</ele>
        <time>2022-06-08 10:31:04</time>
      </trkpt>
      <trkpt lat="43.0239" lon="-0.41282">
        <ele>488</ele>
        <time>2022-06-08 10:31:05</time>
      </trkpt>
      <trkpt lat="43.02386" lon="-0.4128">
        <ele>488.2</ele>
        <time>2022-06-08 10:31:06</time>
      </trkpt>
      <trkpt lat="43.02381" lon="-0.41278">
        <ele>488.8</ele>
        <time>2022-06-08 10:31:07</time>
      </trkpt>
      <trkpt lat="43.02377" lon="-0.41277">
        <ele>488.8</ele>
        <time>2022-06-08 10:31:08</time>
      </trkpt>
      <trkpt lat="43.02373" lon="-0.41277">
        <ele>489.6</ele>
        <time>2022-06-08 10:31:09</time>
      </trkpt>
      <trkpt lat="43.02369" lon="-0.41276">
        <ele>489.8</ele>
        <time>2022-06-08 10:31:10</time>
      </trkpt>
      <trkpt lat="43.02365" lon="-0.41275">
        <ele>490.2</ele>
        <time>2022-06-08 10:31:11</time>
      </trkpt>
      <trkpt lat="43.02361" lon="-0.41275">
        <ele>490.2</ele>
        <time>2022-06-08 10:31:12</time>
      </trkpt>
      <trkpt lat="43.02357" lon="-0.41275">
        <ele>490.4</ele>
        <time>2022-06-08 10:31:13</time>
      </trkpt>
      <trkpt lat="43.02352" lon="-0.41274">
        <ele>490.6</ele>
        <time>2022-06-08 10:31:14</time>
      </trkpt>
      <trkpt lat="43.02349" lon="-0.41274">
        <ele>490.8</ele>
        <time>2022-06-08 10:31:15</time>
      </trkpt>
      <trkpt lat="43.02345" lon="-0.41273">
        <ele>491</ele>
        <time>2022-06-08 10:31:16</time>
      </trkpt>
      <trkpt lat="43.02341" lon="-0.41272">
        <ele>491.4</ele>
        <time>2022-06-08 10:31:17</time>
      </trkpt>
      <trkpt lat="43.02337" lon="-0.41272">
        <ele>492</ele>
        <time>2022-06-08 10:31:18</time>
      </trkpt>
      <trkpt lat="43.02333" lon="-0.41272">
        <ele>492.4</ele>
        <time>2022-06-08 10:31:19</time>
      </trkpt>
      <trkpt lat="43.0233" lon="-0.41272">
        <ele>492.8</ele>
        <time>2022-06-08 10:31:20</time>
      </trkpt>
      <trkpt lat="43.02326" lon="-0.41272">
        <ele>493</ele>
        <time>2022-06-08 10:31:21</time>
      </trkpt>
      <trkpt lat="43.02323" lon="-0.41273">
        <ele>493.2</ele>
        <time>2022-06-08 10:31:22</time>
      </trkpt>
      <trkpt lat="43.0232" lon="-0.41274">
        <ele>493.4</ele>
        <time>2022-06-08 10:31:23</time>
      </trkpt>
      <trkpt lat="43.02316" lon="-0.41276">
        <ele>494</ele>
        <time>2022-06-08 10:31:24</time>
      </trkpt>
      <trkpt lat="43.02313" lon="-0.41278">
        <ele>494</ele>
        <time>2022-06-08 10:31:25</time>
      </trkpt>
      <trkpt lat="43.0231" lon="-0.41281">
        <ele>494.4</ele>
        <time>2022-06-08 10:31:26</time>
      </trkpt>
      <trkpt lat="43.02306" lon="-0.41284">
        <ele>494.4</ele>
        <time>2022-06-08 10:31:27</time>
      </trkpt>
      <trkpt lat="43.02302" lon="-0.41287">
        <ele>494.6</ele>
        <time>2022-06-08 10:31:28</time>
      </trkpt>
      <trkpt lat="43.02298" lon="-0.41289">
        <ele>494.6</ele>
        <time>2022-06-08 10:31:29</time>
      </trkpt>
      <trkpt lat="43.02293" lon="-0.41291">
        <ele>494.6</ele>
        <time>2022-06-08 10:31:30</time>
      </trkpt>
      <trkpt lat="43.0229" lon="-0.41294">
        <ele>494.6</ele>
        <time>2022-06-08 10:31:31</time>
      </trkpt>
      <trkpt lat="43.02285" lon="-0.41297">
        <ele>494.8</ele>
        <time>2022-06-08 10:31:32</time>
      </trkpt>
      <trkpt lat="43.02281" lon="-0.413">
        <ele>494.8</ele>
        <time>2022-06-08 10:31:33</time>
      </trkpt>
      <trkpt lat="43.02277" lon="-0.41302">
        <ele>494.8</ele>
        <time>2022-06-08 10:31:34</time>
      </trkpt>
      <trkpt lat="43.02274" lon="-0.41304">
        <ele>494.8</ele>
        <time>2022-06-08 10:31:35</time>
      </trkpt>
      <trkpt lat="43.02269" lon="-0.41307">
        <ele>494.8</ele>
        <time>2022-06-08 10:31:36</time>
      </trkpt>
      <trkpt lat="43.02266" lon="-0.4131">
        <ele>494.8</ele>
        <time>2022-06-08 10:31:37</time>
      </trkpt>
      <trkpt lat="43.02263" lon="-0.41313">
        <ele>494.8</ele>
        <time>2022-06-08 10:31:38</time>
      </trkpt>
      <trkpt lat="43.02259" lon="-0.41319">
        <ele>494.8</ele>
        <time>2022-06-08 10:31:39</time>
      </trkpt>
      <trkpt lat="43.02256" lon="-0.41324">
        <ele>494.8</ele>
        <time>2022-06-08 10:31:40</time>
      </trkpt>
      <trkpt lat="43.02252" lon="-0.41331">
        <ele>495</ele>
        <time>2022-06-08 10:31:41</time>
      </trkpt>
      <trkpt lat="43.02248" lon="-0.41336">
        <ele>495</ele>
        <time>2022-06-08 10:31:42</time>
      </trkpt>
      <trkpt lat="43.02244" lon="-0.41341">
        <ele>495</ele>
        <time>2022-06-08 10:31:43</time>
      </trkpt>
      <trkpt lat="43.02241" lon="-0.41346">
        <ele>495</ele>
        <time>2022-06-08 10:31:44</time>
      </trkpt>
      <trkpt lat="43.02238" lon="-0.4135">
        <ele>495.2</ele>
        <time>2022-06-08 10:31:45</time>
      </trkpt>
      <trkpt lat="43.02235" lon="-0.41355">
        <ele>495.2</ele>
        <time>2022-06-08 10:31:46</time>
      </trkpt>
      <trkpt lat="43.02233" lon="-0.4136">
        <ele>495.2</ele>
        <time>2022-06-08 10:31:47</time>
      </trkpt>
      <trkpt lat="43.0223" lon="-0.41366">
        <ele>495.2</ele>
        <time>2022-06-08 10:31:48</time>
      </trkpt>
      <trkpt lat="43.02229" lon="-0.41372">
        <ele>495</ele>
        <time>2022-06-08 10:31:49</time>
      </trkpt>
      <trkpt lat="43.02228" lon="-0.41379">
        <ele>494.8</ele>
        <time>2022-06-08 10:31:50</time>
      </trkpt>
      <trkpt lat="43.02227" lon="-0.41387">
        <ele>494.8</ele>
        <time>2022-06-08 10:31:51</time>
      </trkpt>
      <trkpt lat="43.02226" lon="-0.41398">
        <ele>494.8</ele>
        <time>2022-06-08 10:31:52</time>
      </trkpt>
      <trkpt lat="43.02225" lon="-0.41408">
        <ele>494.6</ele>
        <time>2022-06-08 10:31:53</time>
      </trkpt>
      <trkpt lat="43.02223" lon="-0.41417">
        <ele>494.6</ele>
        <time>2022-06-08 10:31:54</time>
      </trkpt>
      <trkpt lat="43.0222" lon="-0.41425">
        <ele>494.4</ele>
        <time>2022-06-08 10:31:55</time>
      </trkpt>
      <trkpt lat="43.02214" lon="-0.41433">
        <ele>493.8</ele>
        <time>2022-06-08 10:31:56</time>
      </trkpt>
      <trkpt lat="43.02207" lon="-0.41439">
        <ele>493.4</ele>
        <time>2022-06-08 10:31:57</time>
      </trkpt>
      <trkpt lat="43.02201" lon="-0.41442">
        <ele>492.6</ele>
        <time>2022-06-08 10:31:58</time>
      </trkpt>
      <trkpt lat="43.02194" lon="-0.41445">
        <ele>492.2</ele>
        <time>2022-06-08 10:31:59</time>
      </trkpt>
      <trkpt lat="43.02188" lon="-0.41446">
        <ele>491.8</ele>
        <time>2022-06-08 10:32:00</time>
      </trkpt>
      <trkpt lat="43.02181" lon="-0.41447">
        <ele>491.6</ele>
        <time>2022-06-08 10:32:01</time>
      </trkpt>
      <trkpt lat="43.02174" lon="-0.4145">
        <ele>491.2</ele>
        <time>2022-06-08 10:32:02</time>
      </trkpt>
      <trkpt lat="43.02165" lon="-0.41454">
        <ele>491.2</ele>
        <time>2022-06-08 10:32:03</time>
      </trkpt>
      <trkpt lat="43.02158" lon="-0.41457">
        <ele>491</ele>
        <time>2022-06-08 10:32:04</time>
      </trkpt>
      <trkpt lat="43.02152" lon="-0.41461">
        <ele>490.8</ele>
        <time>2022-06-08 10:32:05</time>
      </trkpt>
      <trkpt lat="43.02146" lon="-0.41466">
        <ele>490.8</ele>
        <time>2022-06-08 10:32:06</time>
      </trkpt>
      <trkpt lat="43.02141" lon="-0.41473">
        <ele>490.8</ele>
        <time>2022-06-08 10:32:07</time>
      </trkpt>
      <trkpt lat="43.02136" lon="-0.41481">
        <ele>490.6</ele>
        <time>2022-06-08 10:32:08</time>
      </trkpt>
      <trkpt lat="43.02131" lon="-0.41488">
        <ele>490.4</ele>
        <time>2022-06-08 10:32:09</time>
      </trkpt>
      <trkpt lat="43.02125" lon="-0.41496">
        <ele>490.4</ele>
        <time>2022-06-08 10:32:10</time>
      </trkpt>
      <trkpt lat="43.02121" lon="-0.41501">
        <ele>490</ele>
        <time>2022-06-08 10:32:11</time>
      </trkpt>
      <trkpt lat="43.02113" lon="-0.41508">
        <ele>489.8</ele>
        <time>2022-06-08 10:32:12</time>
      </trkpt>
      <trkpt lat="43.02106" lon="-0.41514">
        <ele>489.4</ele>
        <time>2022-06-08 10:32:13</time>
      </trkpt>
      <trkpt lat="43.02098" lon="-0.41519">
        <ele>489</ele>
        <time>2022-06-08 10:32:14</time>
      </trkpt>
      <trkpt lat="43.02092" lon="-0.41522">
        <ele>488.6</ele>
        <time>2022-06-08 10:32:15</time>
      </trkpt>
      <trkpt lat="43.02082" lon="-0.41527">
        <ele>488.4</ele>
        <time>2022-06-08 10:32:16</time>
      </trkpt>
      <trkpt lat="43.02074" lon="-0.4153">
        <ele>488</ele>
        <time>2022-06-08 10:32:17</time>
      </trkpt>
      <trkpt lat="43.02065" lon="-0.41533">
        <ele>487.8</ele>
        <time>2022-06-08 10:32:18</time>
      </trkpt>
      <trkpt lat="43.02056" lon="-0.41535">
        <ele>487.4</ele>
        <time>2022-06-08 10:32:19</time>
      </trkpt>
      <trkpt lat="43.02049" lon="-0.41536">
        <ele>487.2</ele>
        <time>2022-06-08 10:32:20</time>
      </trkpt>
      <trkpt lat="43.02038" lon="-0.41538">
        <ele>486.8</ele>
        <time>2022-06-08 10:32:21</time>
      </trkpt>
      <trkpt lat="43.02028" lon="-0.4154">
        <ele>486.4</ele>
        <time>2022-06-08 10:32:22</time>
      </trkpt>
      <trkpt lat="43.02019" lon="-0.41541">
        <ele>486.2</ele>
        <time>2022-06-08 10:32:23</time>
      </trkpt>
      <trkpt lat="43.02009" lon="-0.41542">
        <ele>485.6</ele>
        <time>2022-06-08 10:32:24</time>
      </trkpt>
      <trkpt lat="43.02" lon="-0.41543">
        <ele>485</ele>
        <time>2022-06-08 10:32:25</time>
      </trkpt>
      <trkpt lat="43.01993" lon="-0.41544">
        <ele>483.8</ele>
        <time>2022-06-08 10:32:26</time>
      </trkpt>
      <trkpt lat="43.01983" lon="-0.41544">
        <ele>483.2</ele>
        <time>2022-06-08 10:32:27</time>
      </trkpt>
      <trkpt lat="43.01976" lon="-0.41543">
        <ele>482.6</ele>
        <time>2022-06-08 10:32:28</time>
      </trkpt>
      <trkpt lat="43.0197" lon="-0.41541">
        <ele>482.2</ele>
        <time>2022-06-08 10:32:29</time>
      </trkpt>
      <trkpt lat="43.01964" lon="-0.41537">
        <ele>481.4</ele>
        <time>2022-06-08 10:32:30</time>
      </trkpt>
      <trkpt lat="43.01959" lon="-0.41531">
        <ele>481.2</ele>
        <time>2022-06-08 10:32:31</time>
      </trkpt>
      <trkpt lat="43.01956" lon="-0.4152">
        <ele>480.6</ele>
        <time>2022-06-08 10:32:32</time>
      </trkpt>
      <trkpt lat="43.01954" lon="-0.4151">
        <ele>480.4</ele>
        <time>2022-06-08 10:32:33</time>
      </trkpt>
      <trkpt lat="43.01952" lon="-0.41501">
        <ele>479.6</ele>
        <time>2022-06-08 10:32:34</time>
      </trkpt>
      <trkpt lat="43.01949" lon="-0.41488">
        <ele>479</ele>
        <time>2022-06-08 10:32:35</time>
      </trkpt>
      <trkpt lat="43.01946" lon="-0.41478">
        <ele>478.4</ele>
        <time>2022-06-08 10:32:36</time>
      </trkpt>
      <trkpt lat="43.01942" lon="-0.41468">
        <ele>477.4</ele>
        <time>2022-06-08 10:32:37</time>
      </trkpt>
      <trkpt lat="43.01938" lon="-0.4146">
        <ele>477</ele>
        <time>2022-06-08 10:32:38</time>
      </trkpt>
      <trkpt lat="43.01933" lon="-0.41454">
        <ele>476.4</ele>
        <time>2022-06-08 10:32:39</time>
      </trkpt>
      <trkpt lat="43.01928" lon="-0.4145">
        <ele>476</ele>
        <time>2022-06-08 10:32:40</time>
      </trkpt>
      <trkpt lat="43.01923" lon="-0.41448">
        <ele>475.2</ele>
        <time>2022-06-08 10:32:41</time>
      </trkpt>
      <trkpt lat="43.01918" lon="-0.41449">
        <ele>474.8</ele>
        <time>2022-06-08 10:32:42</time>
      </trkpt>
      <trkpt lat="43.01913" lon="-0.41453">
        <ele>474.2</ele>
        <time>2022-06-08 10:32:43</time>
      </trkpt>
      <trkpt lat="43.01909" lon="-0.41458">
        <ele>474</ele>
        <time>2022-06-08 10:32:44</time>
      </trkpt>
      <trkpt lat="43.01907" lon="-0.41467">
        <ele>473.6</ele>
        <time>2022-06-08 10:32:45</time>
      </trkpt>
      <trkpt lat="43.01905" lon="-0.41476">
        <ele>473.4</ele>
        <time>2022-06-08 10:32:46</time>
      </trkpt>
      <trkpt lat="43.01903" lon="-0.41486">
        <ele>472.6</ele>
        <time>2022-06-08 10:32:47</time>
      </trkpt>
      <trkpt lat="43.01901" lon="-0.41497">
        <ele>472.4</ele>
        <time>2022-06-08 10:32:48</time>
      </trkpt>
      <trkpt lat="43.01899" lon="-0.41507">
        <ele>471.8</ele>
        <time>2022-06-08 10:32:49</time>
      </trkpt>
      <trkpt lat="43.01897" lon="-0.41518">
        <ele>471</ele>
        <time>2022-06-08 10:32:50</time>
      </trkpt>
      <trkpt lat="43.01895" lon="-0.41529">
        <ele>470.8</ele>
        <time>2022-06-08 10:32:51</time>
      </trkpt>
      <trkpt lat="43.01892" lon="-0.4154">
        <ele>470</ele>
        <time>2022-06-08 10:32:52</time>
      </trkpt>
      <trkpt lat="43.01888" lon="-0.41551">
        <ele>469.8</ele>
        <time>2022-06-08 10:32:53</time>
      </trkpt>
      <trkpt lat="43.01884" lon="-0.41561">
        <ele>469.4</ele>
        <time>2022-06-08 10:32:54</time>
      </trkpt>
      <trkpt lat="43.01879" lon="-0.41571">
        <ele>468.8</ele>
        <time>2022-06-08 10:32:55</time>
      </trkpt>
      <trkpt lat="43.01873" lon="-0.4158">
        <ele>468.6</ele>
        <time>2022-06-08 10:32:56</time>
      </trkpt>
      <trkpt lat="43.01867" lon="-0.41589">
        <ele>468.4</ele>
        <time>2022-06-08 10:32:57</time>
      </trkpt>
      <trkpt lat="43.0186" lon="-0.41598">
        <ele>468</ele>
        <time>2022-06-08 10:32:58</time>
      </trkpt>
      <trkpt lat="43.01852" lon="-0.41606">
        <ele>467.6</ele>
        <time>2022-06-08 10:32:59</time>
      </trkpt>
      <trkpt lat="43.01843" lon="-0.41612">
        <ele>466.6</ele>
        <time>2022-06-08 10:33:00</time>
      </trkpt>
      <trkpt lat="43.01834" lon="-0.41617">
        <ele>466</ele>
        <time>2022-06-08 10:33:01</time>
      </trkpt>
      <trkpt lat="43.01824" lon="-0.41622">
        <ele>465.4</ele>
        <time>2022-06-08 10:33:02</time>
      </trkpt>
      <trkpt lat="43.01815" lon="-0.41626">
        <ele>464.8</ele>
        <time>2022-06-08 10:33:03</time>
      </trkpt>
      <trkpt lat="43.01805" lon="-0.41631">
        <ele>463.8</ele>
        <time>2022-06-08 10:33:04</time>
      </trkpt>
      <trkpt lat="43.01795" lon="-0.41635">
        <ele>463</ele>
        <time>2022-06-08 10:33:05</time>
      </trkpt>
      <trkpt lat="43.01785" lon="-0.41641">
        <ele>462.6</ele>
        <time>2022-06-08 10:33:06</time>
      </trkpt>
      <trkpt lat="43.01775" lon="-0.41648">
        <ele>461.6</ele>
        <time>2022-06-08 10:33:07</time>
      </trkpt>
      <trkpt lat="43.01766" lon="-0.41656">
        <ele>461.2</ele>
        <time>2022-06-08 10:33:08</time>
      </trkpt>
      <trkpt lat="43.01759" lon="-0.41664">
        <ele>460.8</ele>
        <time>2022-06-08 10:33:09</time>
      </trkpt>
      <trkpt lat="43.01751" lon="-0.41673">
        <ele>460.6</ele>
        <time>2022-06-08 10:33:10</time>
      </trkpt>
      <trkpt lat="43.01744" lon="-0.41681">
        <ele>460.4</ele>
        <time>2022-06-08 10:33:11</time>
      </trkpt>
      <trkpt lat="43.01737" lon="-0.41689">
        <ele>460.4</ele>
        <time>2022-06-08 10:33:12</time>
      </trkpt>
      <trkpt lat="43.01729" lon="-0.41696">
        <ele>460.4</ele>
        <time>2022-06-08 10:33:13</time>
      </trkpt>
      <trkpt lat="43.01722" lon="-0.41703">
        <ele>460.4</ele>
        <time>2022-06-08 10:33:14</time>
      </trkpt>
      <trkpt lat="43.01714" lon="-0.41708">
        <ele>460.4</ele>
        <time>2022-06-08 10:33:15</time>
      </trkpt>
      <trkpt lat="43.01707" lon="-0.41713">
        <ele>460.6</ele>
        <time>2022-06-08 10:33:16</time>
      </trkpt>
      <trkpt lat="43.01699" lon="-0.41717">
        <ele>460.6</ele>
        <time>2022-06-08 10:33:17</time>
      </trkpt>
      <trkpt lat="43.01692" lon="-0.41721">
        <ele>460.6</ele>
        <time>2022-06-08 10:33:18</time>
      </trkpt>
      <trkpt lat="43.01685" lon="-0.41723">
        <ele>460.6</ele>
        <time>2022-06-08 10:33:19</time>
      </trkpt>
      <trkpt lat="43.01677" lon="-0.41724">
        <ele>460.6</ele>
        <time>2022-06-08 10:33:20</time>
      </trkpt>
      <trkpt lat="43.0167" lon="-0.41725">
        <ele>460.8</ele>
        <time>2022-06-08 10:33:21</time>
      </trkpt>
      <trkpt lat="43.01664" lon="-0.41724">
        <ele>460.8</ele>
        <time>2022-06-08 10:33:22</time>
      </trkpt>
      <trkpt lat="43.01657" lon="-0.41721">
        <ele>460.8</ele>
        <time>2022-06-08 10:33:23</time>
      </trkpt>
      <trkpt lat="43.0165" lon="-0.41717">
        <ele>461</ele>
        <time>2022-06-08 10:33:24</time>
      </trkpt>
      <trkpt lat="43.01644" lon="-0.41713">
        <ele>461</ele>
        <time>2022-06-08 10:33:25</time>
      </trkpt>
      <trkpt lat="43.01637" lon="-0.41709">
        <ele>461</ele>
        <time>2022-06-08 10:33:26</time>
      </trkpt>
      <trkpt lat="43.0163" lon="-0.41706">
        <ele>461</ele>
        <time>2022-06-08 10:33:27</time>
      </trkpt>
      <trkpt lat="43.01624" lon="-0.41703">
        <ele>461</ele>
        <time>2022-06-08 10:33:28</time>
      </trkpt>
      <trkpt lat="43.01617" lon="-0.41702">
        <ele>461</ele>
        <time>2022-06-08 10:33:29</time>
      </trkpt>
      <trkpt lat="43.0161" lon="-0.41702">
        <ele>461.2</ele>
        <time>2022-06-08 10:33:30</time>
      </trkpt>
      <trkpt lat="43.01604" lon="-0.41704">
        <ele>461.4</ele>
        <time>2022-06-08 10:33:31</time>
      </trkpt>
      <trkpt lat="43.01597" lon="-0.41706">
        <ele>461.4</ele>
        <time>2022-06-08 10:33:32</time>
      </trkpt>
      <trkpt lat="43.01591" lon="-0.41709">
        <ele>461.6</ele>
        <time>2022-06-08 10:33:33</time>
      </trkpt>
      <trkpt lat="43.01585" lon="-0.41711">
        <ele>461.8</ele>
        <time>2022-06-08 10:33:34</time>
      </trkpt>
      <trkpt lat="43.01578" lon="-0.41714">
        <ele>462</ele>
        <time>2022-06-08 10:33:35</time>
      </trkpt>
      <trkpt lat="43.01571" lon="-0.41717">
        <ele>462</ele>
        <time>2022-06-08 10:33:36</time>
      </trkpt>
      <trkpt lat="43.01565" lon="-0.4172">
        <ele>462.2</ele>
        <time>2022-06-08 10:33:37</time>
      </trkpt>
      <trkpt lat="43.01558" lon="-0.41722">
        <ele>462.2</ele>
        <time>2022-06-08 10:33:38</time>
      </trkpt>
      <trkpt lat="43.01552" lon="-0.41724">
        <ele>462.4</ele>
        <time>2022-06-08 10:33:39</time>
      </trkpt>
      <trkpt lat="43.01546" lon="-0.41727">
        <ele>462.4</ele>
        <time>2022-06-08 10:33:40</time>
      </trkpt>
      <trkpt lat="43.0154" lon="-0.4173">
        <ele>462.4</ele>
        <time>2022-06-08 10:33:41</time>
      </trkpt>
      <trkpt lat="43.01534" lon="-0.41733">
        <ele>462.4</ele>
        <time>2022-06-08 10:33:42</time>
      </trkpt>
      <trkpt lat="43.01528" lon="-0.41738">
        <ele>462.6</ele>
        <time>2022-06-08 10:33:43</time>
      </trkpt>
      <trkpt lat="43.01522" lon="-0.41741">
        <ele>462.8</ele>
        <time>2022-06-08 10:33:44</time>
      </trkpt>
      <trkpt lat="43.01516" lon="-0.41745">
        <ele>463</ele>
        <time>2022-06-08 10:33:45</time>
      </trkpt>
      <trkpt lat="43.01509" lon="-0.41747">
        <ele>463</ele>
        <time>2022-06-08 10:33:46</time>
      </trkpt>
      <trkpt lat="43.01503" lon="-0.4175">
        <ele>463.2</ele>
        <time>2022-06-08 10:33:47</time>
      </trkpt>
      <trkpt lat="43.01496" lon="-0.41751">
        <ele>463.2</ele>
        <time>2022-06-08 10:33:48</time>
      </trkpt>
      <trkpt lat="43.01489" lon="-0.41753">
        <ele>463.2</ele>
        <time>2022-06-08 10:33:49</time>
      </trkpt>
      <trkpt lat="43.01482" lon="-0.41754">
        <ele>463.2</ele>
        <time>2022-06-08 10:33:50</time>
      </trkpt>
      <trkpt lat="43.01476" lon="-0.41756">
        <ele>463.2</ele>
        <time>2022-06-08 10:33:51</time>
      </trkpt>
      <trkpt lat="43.01469" lon="-0.41758">
        <ele>463.2</ele>
        <time>2022-06-08 10:33:52</time>
      </trkpt>
      <trkpt lat="43.01462" lon="-0.4176">
        <ele>463.2</ele>
        <time>2022-06-08 10:33:53</time>
      </trkpt>
      <trkpt lat="43.01456" lon="-0.41762">
        <ele>463.2</ele>
        <time>2022-06-08 10:33:54</time>
      </trkpt>
      <trkpt lat="43.01449" lon="-0.41765">
        <ele>463.2</ele>
        <time>2022-06-08 10:33:55</time>
      </trkpt>
      <trkpt lat="43.01442" lon="-0.41767">
        <ele>463.2</ele>
        <time>2022-06-08 10:33:56</time>
      </trkpt>
      <trkpt lat="43.01436" lon="-0.4177">
        <ele>463.4</ele>
        <time>2022-06-08 10:33:57</time>
      </trkpt>
      <trkpt lat="43.0143" lon="-0.41774">
        <ele>463.4</ele>
        <time>2022-06-08 10:33:58</time>
      </trkpt>
      <trkpt lat="43.01423" lon="-0.41778">
        <ele>463.4</ele>
        <time>2022-06-08 10:33:59</time>
      </trkpt>
      <trkpt lat="43.01418" lon="-0.41782">
        <ele>463.4</ele>
        <time>2022-06-08 10:34:00</time>
      </trkpt>
      <trkpt lat="43.01413" lon="-0.41787">
        <ele>463.4</ele>
        <time>2022-06-08 10:34:01</time>
      </trkpt>
      <trkpt lat="43.01407" lon="-0.41791">
        <ele>463.6</ele>
        <time>2022-06-08 10:34:02</time>
      </trkpt>
      <trkpt lat="43.01402" lon="-0.41796">
        <ele>463.6</ele>
        <time>2022-06-08 10:34:03</time>
      </trkpt>
      <trkpt lat="43.01396" lon="-0.418">
        <ele>463.6</ele>
        <time>2022-06-08 10:34:04</time>
      </trkpt>
      <trkpt lat="43.01391" lon="-0.41805">
        <ele>463.6</ele>
        <time>2022-06-08 10:34:05</time>
      </trkpt>
      <trkpt lat="43.01386" lon="-0.41809">
        <ele>463.6</ele>
        <time>2022-06-08 10:34:06</time>
      </trkpt>
      <trkpt lat="43.0138" lon="-0.41813">
        <ele>464</ele>
        <time>2022-06-08 10:34:07</time>
      </trkpt>
      <trkpt lat="43.01374" lon="-0.41816">
        <ele>464.2</ele>
        <time>2022-06-08 10:34:08</time>
      </trkpt>
      <trkpt lat="43.01368" lon="-0.41819">
        <ele>464.4</ele>
        <time>2022-06-08 10:34:09</time>
      </trkpt>
      <trkpt lat="43.01362" lon="-0.41823">
        <ele>464.4</ele>
        <time>2022-06-08 10:34:10</time>
      </trkpt>
      <trkpt lat="43.01355" lon="-0.41826">
        <ele>464.6</ele>
        <time>2022-06-08 10:34:11</time>
      </trkpt>
      <trkpt lat="43.01349" lon="-0.41829">
        <ele>464.6</ele>
        <time>2022-06-08 10:34:12</time>
      </trkpt>
      <trkpt lat="43.01343" lon="-0.41832">
        <ele>464.6</ele>
        <time>2022-06-08 10:34:13</time>
      </trkpt>
      <trkpt lat="43.01337" lon="-0.41835">
        <ele>464.6</ele>
        <time>2022-06-08 10:34:14</time>
      </trkpt>
      <trkpt lat="43.01331" lon="-0.41838">
        <ele>464.6</ele>
        <time>2022-06-08 10:34:15</time>
      </trkpt>
      <trkpt lat="43.01324" lon="-0.41841">
        <ele>464.6</ele>
        <time>2022-06-08 10:34:16</time>
      </trkpt>
      <trkpt lat="43.01318" lon="-0.41844">
        <ele>464.8</ele>
        <time>2022-06-08 10:34:17</time>
      </trkpt>
      <trkpt lat="43.01311" lon="-0.41846">
        <ele>465</ele>
        <time>2022-06-08 10:34:18</time>
      </trkpt>
      <trkpt lat="43.01305" lon="-0.41847">
        <ele>465</ele>
        <time>2022-06-08 10:34:19</time>
      </trkpt>
      <trkpt lat="43.01298" lon="-0.41848">
        <ele>465</ele>
        <time>2022-06-08 10:34:20</time>
      </trkpt>
      <trkpt lat="43.01292" lon="-0.41847">
        <ele>465</ele>
        <time>2022-06-08 10:34:21</time>
      </trkpt>
      <trkpt lat="43.01285" lon="-0.41846">
        <ele>465</ele>
        <time>2022-06-08 10:34:22</time>
      </trkpt>
      <trkpt lat="43.01278" lon="-0.41844">
        <ele>465</ele>
        <time>2022-06-08 10:34:23</time>
      </trkpt>
      <trkpt lat="43.01272" lon="-0.41843">
        <ele>465</ele>
        <time>2022-06-08 10:34:24</time>
      </trkpt>
      <trkpt lat="43.01266" lon="-0.41842">
        <ele>465</ele>
        <time>2022-06-08 10:34:25</time>
      </trkpt>
      <trkpt lat="43.01259" lon="-0.41842">
        <ele>465</ele>
        <time>2022-06-08 10:34:26</time>
      </trkpt>
      <trkpt lat="43.01252" lon="-0.41843">
        <ele>465</ele>
        <time>2022-06-08 10:34:27</time>
      </trkpt>
      <trkpt lat="43.01246" lon="-0.41845">
        <ele>465</ele>
        <time>2022-06-08 10:34:28</time>
      </trkpt>
      <trkpt lat="43.01239" lon="-0.41847">
        <ele>465</ele>
        <time>2022-06-08 10:34:29</time>
      </trkpt>
      <trkpt lat="43.01234" lon="-0.41851">
        <ele>465</ele>
        <time>2022-06-08 10:34:30</time>
      </trkpt>
      <trkpt lat="43.01228" lon="-0.41855">
        <ele>465</ele>
        <time>2022-06-08 10:34:31</time>
      </trkpt>
      <trkpt lat="43.01223" lon="-0.4186">
        <ele>465</ele>
        <time>2022-06-08 10:34:32</time>
      </trkpt>
      <trkpt lat="43.01218" lon="-0.41865">
        <ele>465.2</ele>
        <time>2022-06-08 10:34:33</time>
      </trkpt>
      <trkpt lat="43.01212" lon="-0.41869">
        <ele>465.2</ele>
        <time>2022-06-08 10:34:34</time>
      </trkpt>
      <trkpt lat="43.01206" lon="-0.41875">
        <ele>465.4</ele>
        <time>2022-06-08 10:34:35</time>
      </trkpt>
      <trkpt lat="43.01201" lon="-0.41879">
        <ele>465.4</ele>
        <time>2022-06-08 10:34:36</time>
      </trkpt>
      <trkpt lat="43.01195" lon="-0.41883">
        <ele>465.6</ele>
        <time>2022-06-08 10:34:37</time>
      </trkpt>
      <trkpt lat="43.01189" lon="-0.41886">
        <ele>465.8</ele>
        <time>2022-06-08 10:34:38</time>
      </trkpt>
      <trkpt lat="43.01183" lon="-0.41889">
        <ele>465.8</ele>
        <time>2022-06-08 10:34:39</time>
      </trkpt>
      <trkpt lat="43.01177" lon="-0.41892">
        <ele>466</ele>
        <time>2022-06-08 10:34:40</time>
      </trkpt>
      <trkpt lat="43.0117" lon="-0.41895">
        <ele>466</ele>
        <time>2022-06-08 10:34:41</time>
      </trkpt>
      <trkpt lat="43.01164" lon="-0.41898">
        <ele>466</ele>
        <time>2022-06-08 10:34:42</time>
      </trkpt>
      <trkpt lat="43.01157" lon="-0.419">
        <ele>466.2</ele>
        <time>2022-06-08 10:34:43</time>
      </trkpt>
      <trkpt lat="43.01151" lon="-0.41902">
        <ele>466.4</ele>
        <time>2022-06-08 10:34:44</time>
      </trkpt>
      <trkpt lat="43.01144" lon="-0.41905">
        <ele>466.6</ele>
        <time>2022-06-08 10:34:45</time>
      </trkpt>
      <trkpt lat="43.01137" lon="-0.41908">
        <ele>466.6</ele>
        <time>2022-06-08 10:34:46</time>
      </trkpt>
      <trkpt lat="43.01132" lon="-0.4191">
        <ele>466.8</ele>
        <time>2022-06-08 10:34:47</time>
      </trkpt>
      <trkpt lat="43.01126" lon="-0.41912">
        <ele>467</ele>
        <time>2022-06-08 10:34:48</time>
      </trkpt>
      <trkpt lat="43.0112" lon="-0.41915">
        <ele>467</ele>
        <time>2022-06-08 10:34:49</time>
      </trkpt>
      <trkpt lat="43.01114" lon="-0.41917">
        <ele>467.2</ele>
        <time>2022-06-08 10:34:50</time>
      </trkpt>
      <trkpt lat="43.01108" lon="-0.41919">
        <ele>467.2</ele>
        <time>2022-06-08 10:34:51</time>
      </trkpt>
      <trkpt lat="43.01104" lon="-0.41921">
        <ele>467.4</ele>
        <time>2022-06-08 10:34:52</time>
      </trkpt>
      <trkpt lat="43.01099" lon="-0.41923">
        <ele>467.4</ele>
        <time>2022-06-08 10:34:53</time>
      </trkpt>
      <trkpt lat="43.01095" lon="-0.41924">
        <ele>467.4</ele>
        <time>2022-06-08 10:34:54</time>
      </trkpt>
      <trkpt lat="43.01092" lon="-0.41925">
        <ele>467.6</ele>
        <time>2022-06-08 10:34:55</time>
      </trkpt>
      <trkpt lat="43.0109" lon="-0.41926">
        <ele>467.6</ele>
        <time>2022-06-08 10:34:56</time>
      </trkpt>
      <trkpt lat="43.01087" lon="-0.41928">
        <ele>467.6</ele>
        <time>2022-06-08 10:34:57</time>
      </trkpt>
      <trkpt lat="43.01085" lon="-0.41929">
        <ele>467.6</ele>
        <time>2022-06-08 10:34:58</time>
      </trkpt>
      <trkpt lat="43.01082" lon="-0.4193">
        <ele>467.6</ele>
        <time>2022-06-08 10:34:59</time>
      </trkpt>
      <trkpt lat="43.01081" lon="-0.4193">
        <ele>467.6</ele>
        <time>2022-06-08 10:35:00</time>
      </trkpt>
      <trkpt lat="43.01079" lon="-0.41931">
        <ele>467.6</ele>
        <time>2022-06-08 10:35:01</time>
      </trkpt>
      <trkpt lat="43.01078" lon="-0.41932">
        <ele>467.6</ele>
        <time>2022-06-08 10:35:02</time>
      </trkpt>
      <trkpt lat="43.01076" lon="-0.41932">
        <ele>467.6</ele>
        <time>2022-06-08 10:35:03</time>
      </trkpt>
      <trkpt lat="43.01075" lon="-0.41933">
        <ele>467.8</ele>
        <time>2022-06-08 10:35:04</time>
      </trkpt>
      <trkpt lat="43.01074" lon="-0.41934">
        <ele>467.8</ele>
        <time>2022-06-08 10:35:05</time>
      </trkpt>
      <trkpt lat="43.01073" lon="-0.41934">
        <ele>467.8</ele>
        <time>2022-06-08 10:35:06</time>
      </trkpt>
      <trkpt lat="43.01072" lon="-0.41935">
        <ele>468</ele>
        <time>2022-06-08 10:35:07</time>
      </trkpt>
      <trkpt lat="43.0107" lon="-0.41936">
        <ele>468</ele>
        <time>2022-06-08 10:35:08</time>
      </trkpt>
      <trkpt lat="43.01069" lon="-0.41937">
        <ele>468</ele>
        <time>2022-06-08 10:35:09</time>
      </trkpt>
      <trkpt lat="43.01068" lon="-0.41937">
        <ele>468</ele>
        <time>2022-06-08 10:35:10</time>
      </trkpt>
      <trkpt lat="43.01067" lon="-0.41938">
        <ele>468</ele>
        <time>2022-06-08 10:35:11</time>
      </trkpt>
      <trkpt lat="43.01066" lon="-0.41938">
        <ele>468</ele>
        <time>2022-06-08 10:35:12</time>
      </trkpt>
      <trkpt lat="43.01064" lon="-0.41939">
        <ele>468</ele>
        <time>2022-06-08 10:35:13</time>
      </trkpt>
      <trkpt lat="43.01063" lon="-0.41939">
        <ele>468</ele>
        <time>2022-06-08 10:35:14</time>
      </trkpt>
      <trkpt lat="43.0106" lon="-0.4194">
        <ele>468</ele>
        <time>2022-06-08 10:35:15</time>
      </trkpt>
      <trkpt lat="43.01058" lon="-0.41941">
        <ele>468</ele>
        <time>2022-06-08 10:35:16</time>
      </trkpt>
      <trkpt lat="43.01055" lon="-0.41942">
        <ele>468</ele>
        <time>2022-06-08 10:35:17</time>
      </trkpt>
      <trkpt lat="43.01053" lon="-0.41944">
        <ele>468</ele>
        <time>2022-06-08 10:35:18</time>
      </trkpt>
      <trkpt lat="43.01049" lon="-0.41946">
        <ele>468</ele>
        <time>2022-06-08 10:35:19</time>
      </trkpt>
      <trkpt lat="43.01046" lon="-0.41947">
        <ele>468</ele>
        <time>2022-06-08 10:35:20</time>
      </trkpt>
      <trkpt lat="43.01043" lon="-0.41949">
        <ele>468</ele>
        <time>2022-06-08 10:35:21</time>
      </trkpt>
      <trkpt lat="43.01039" lon="-0.4195">
        <ele>468.2</ele>
        <time>2022-06-08 10:35:22</time>
      </trkpt>
      <trkpt lat="43.01035" lon="-0.41952">
        <ele>468.2</ele>
        <time>2022-06-08 10:35:23</time>
      </trkpt>
      <trkpt lat="43.0103" lon="-0.41953">
        <ele>468.2</ele>
        <time>2022-06-08 10:35:24</time>
      </trkpt>
      <trkpt lat="43.01026" lon="-0.41955">
        <ele>468.2</ele>
        <time>2022-06-08 10:35:25</time>
      </trkpt>
      <trkpt lat="43.01021" lon="-0.41956">
        <ele>468.2</ele>
        <time>2022-06-08 10:35:26</time>
      </trkpt>
      <trkpt lat="43.01017" lon="-0.41958">
        <ele>468.2</ele>
        <time>2022-06-08 10:35:27</time>
      </trkpt>
      <trkpt lat="43.01013" lon="-0.4196">
        <ele>468.2</ele>
        <time>2022-06-08 10:35:28</time>
      </trkpt>
      <trkpt lat="43.01008" lon="-0.41962">
        <ele>468.2</ele>
        <time>2022-06-08 10:35:29</time>
      </trkpt>
      <trkpt lat="43.01003" lon="-0.41965">
        <ele>468</ele>
        <time>2022-06-08 10:35:30</time>
      </trkpt>
      <trkpt lat="43.00999" lon="-0.41969">
        <ele>468</ele>
        <time>2022-06-08 10:35:31</time>
      </trkpt>
      <trkpt lat="43.00994" lon="-0.41973">
        <ele>468</ele>
        <time>2022-06-08 10:35:32</time>
      </trkpt>
      <trkpt lat="43.0099" lon="-0.41978">
        <ele>468</ele>
        <time>2022-06-08 10:35:33</time>
      </trkpt>
      <trkpt lat="43.00985" lon="-0.41983">
        <ele>468</ele>
        <time>2022-06-08 10:35:34</time>
      </trkpt>
      <trkpt lat="43.00981" lon="-0.41989">
        <ele>468</ele>
        <time>2022-06-08 10:35:35</time>
      </trkpt>
      <trkpt lat="43.00977" lon="-0.41994">
        <ele>468</ele>
        <time>2022-06-08 10:35:36</time>
      </trkpt>
      <trkpt lat="43.00973" lon="-0.41999">
        <ele>468</ele>
        <time>2022-06-08 10:35:37</time>
      </trkpt>
      <trkpt lat="43.00968" lon="-0.42005">
        <ele>468</ele>
        <time>2022-06-08 10:35:38</time>
      </trkpt>
      <trkpt lat="43.00964" lon="-0.4201">
        <ele>468</ele>
        <time>2022-06-08 10:35:39</time>
      </trkpt>
      <trkpt lat="43.00959" lon="-0.42014">
        <ele>468.2</ele>
        <time>2022-06-08 10:35:40</time>
      </trkpt>
      <trkpt lat="43.00954" lon="-0.42018">
        <ele>468.2</ele>
        <time>2022-06-08 10:35:41</time>
      </trkpt>
      <trkpt lat="43.00949" lon="-0.42021">
        <ele>468.2</ele>
        <time>2022-06-08 10:35:42</time>
      </trkpt>
      <trkpt lat="43.00944" lon="-0.42023">
        <ele>468.4</ele>
        <time>2022-06-08 10:35:43</time>
      </trkpt>
      <trkpt lat="43.00938" lon="-0.42024">
        <ele>468.4</ele>
        <time>2022-06-08 10:35:44</time>
      </trkpt>
      <trkpt lat="43.00933" lon="-0.42026">
        <ele>468.4</ele>
        <time>2022-06-08 10:35:45</time>
      </trkpt>
      <trkpt lat="43.00928" lon="-0.42027">
        <ele>468.8</ele>
        <time>2022-06-08 10:35:46</time>
      </trkpt>
      <trkpt lat="43.00922" lon="-0.42027">
        <ele>468.8</ele>
        <time>2022-06-08 10:35:47</time>
      </trkpt>
      <trkpt lat="43.00917" lon="-0.42026">
        <ele>468.8</ele>
        <time>2022-06-08 10:35:48</time>
      </trkpt>
      <trkpt lat="43.00911" lon="-0.42025">
        <ele>468.8</ele>
        <time>2022-06-08 10:35:49</time>
      </trkpt>
      <trkpt lat="43.00906" lon="-0.42023">
        <ele>469</ele>
        <time>2022-06-08 10:35:50</time>
      </trkpt>
      <trkpt lat="43.009" lon="-0.4202">
        <ele>469</ele>
        <time>2022-06-08 10:35:51</time>
      </trkpt>
      <trkpt lat="43.00895" lon="-0.42017">
        <ele>469</ele>
        <time>2022-06-08 10:35:52</time>
      </trkpt>
      <trkpt lat="43.0089" lon="-0.42013">
        <ele>469</ele>
        <time>2022-06-08 10:35:53</time>
      </trkpt>
      <trkpt lat="43.00885" lon="-0.42009">
        <ele>468.8</ele>
        <time>2022-06-08 10:35:54</time>
      </trkpt>
      <trkpt lat="43.0088" lon="-0.42005">
        <ele>468.8</ele>
        <time>2022-06-08 10:35:55</time>
      </trkpt>
      <trkpt lat="43.00875" lon="-0.42001">
        <ele>469</ele>
        <time>2022-06-08 10:35:56</time>
      </trkpt>
      <trkpt lat="43.0087" lon="-0.41997">
        <ele>469</ele>
        <time>2022-06-08 10:35:57</time>
      </trkpt>
      <trkpt lat="43.00865" lon="-0.41994">
        <ele>469</ele>
        <time>2022-06-08 10:35:58</time>
      </trkpt>
      <trkpt lat="43.00859" lon="-0.4199">
        <ele>469</ele>
        <time>2022-06-08 10:35:59</time>
      </trkpt>
      <trkpt lat="43.00854" lon="-0.41986">
        <ele>469.4</ele>
        <time>2022-06-08 10:36:00</time>
      </trkpt>
      <trkpt lat="43.00849" lon="-0.41982">
        <ele>469.4</ele>
        <time>2022-06-08 10:36:01</time>
      </trkpt>
      <trkpt lat="43.00843" lon="-0.41977">
        <ele>469.8</ele>
        <time>2022-06-08 10:36:02</time>
      </trkpt>
      <trkpt lat="43.00838" lon="-0.41973">
        <ele>470</ele>
        <time>2022-06-08 10:36:03</time>
      </trkpt>
      <trkpt lat="43.00833" lon="-0.41968">
        <ele>469.8</ele>
        <time>2022-06-08 10:36:04</time>
      </trkpt>
      <trkpt lat="43.00827" lon="-0.41964">
        <ele>469.6</ele>
        <time>2022-06-08 10:36:05</time>
      </trkpt>
      <trkpt lat="43.00822" lon="-0.41959">
        <ele>469.6</ele>
        <time>2022-06-08 10:36:06</time>
      </trkpt>
      <trkpt lat="43.00816" lon="-0.41955">
        <ele>469.6</ele>
        <time>2022-06-08 10:36:07</time>
      </trkpt>
      <trkpt lat="43.00811" lon="-0.4195">
        <ele>469.6</ele>
        <time>2022-06-08 10:36:08</time>
      </trkpt>
      <trkpt lat="43.00806" lon="-0.41946">
        <ele>469.6</ele>
        <time>2022-06-08 10:36:09</time>
      </trkpt>
      <trkpt lat="43.008" lon="-0.41941">
        <ele>469.6</ele>
        <time>2022-06-08 10:36:10</time>
      </trkpt>
      <trkpt lat="43.00795" lon="-0.41937">
        <ele>469.6</ele>
        <time>2022-06-08 10:36:11</time>
      </trkpt>
      <trkpt lat="43.00789" lon="-0.41932">
        <ele>469.6</ele>
        <time>2022-06-08 10:36:12</time>
      </trkpt>
      <trkpt lat="43.00784" lon="-0.41927">
        <ele>469.6</ele>
        <time>2022-06-08 10:36:13</time>
      </trkpt>
      <trkpt lat="43.00778" lon="-0.41923">
        <ele>469.6</ele>
        <time>2022-06-08 10:36:14</time>
      </trkpt>
      <trkpt lat="43.00773" lon="-0.41918">
        <ele>469.8</ele>
        <time>2022-06-08 10:36:15</time>
      </trkpt>
      <trkpt lat="43.00768" lon="-0.41914">
        <ele>469.8</ele>
        <time>2022-06-08 10:36:16</time>
      </trkpt>
      <trkpt lat="43.00762" lon="-0.41909">
        <ele>470</ele>
        <time>2022-06-08 10:36:17</time>
      </trkpt>
      <trkpt lat="43.00758" lon="-0.41904">
        <ele>470</ele>
        <time>2022-06-08 10:36:18</time>
      </trkpt>
      <trkpt lat="43.00752" lon="-0.41899">
        <ele>470</ele>
        <time>2022-06-08 10:36:19</time>
      </trkpt>
      <trkpt lat="43.00747" lon="-0.41895">
        <ele>470</ele>
        <time>2022-06-08 10:36:20</time>
      </trkpt>
      <trkpt lat="43.00742" lon="-0.41891">
        <ele>470.2</ele>
        <time>2022-06-08 10:36:21</time>
      </trkpt>
      <trkpt lat="43.00737" lon="-0.41887">
        <ele>470.4</ele>
        <time>2022-06-08 10:36:22</time>
      </trkpt>
      <trkpt lat="43.00732" lon="-0.41884">
        <ele>470.6</ele>
        <time>2022-06-08 10:36:23</time>
      </trkpt>
      <trkpt lat="43.00727" lon="-0.4188">
        <ele>470.8</ele>
        <time>2022-06-08 10:36:24</time>
      </trkpt>
      <trkpt lat="43.00722" lon="-0.41876">
        <ele>471</ele>
        <time>2022-06-08 10:36:25</time>
      </trkpt>
      <trkpt lat="43.00717" lon="-0.41872">
        <ele>471.2</ele>
        <time>2022-06-08 10:36:26</time>
      </trkpt>
      <trkpt lat="43.00713" lon="-0.41868">
        <ele>471.4</ele>
        <time>2022-06-08 10:36:27</time>
      </trkpt>
      <trkpt lat="43.00708" lon="-0.41863">
        <ele>471.6</ele>
        <time>2022-06-08 10:36:28</time>
      </trkpt>
      <trkpt lat="43.00704" lon="-0.41859">
        <ele>471.6</ele>
        <time>2022-06-08 10:36:29</time>
      </trkpt>
      <trkpt lat="43.00699" lon="-0.41854">
        <ele>471.8</ele>
        <time>2022-06-08 10:36:30</time>
      </trkpt>
      <trkpt lat="43.00695" lon="-0.4185">
        <ele>472</ele>
        <time>2022-06-08 10:36:31</time>
      </trkpt>
      <trkpt lat="43.0069" lon="-0.41845">
        <ele>472</ele>
        <time>2022-06-08 10:36:32</time>
      </trkpt>
      <trkpt lat="43.00685" lon="-0.4184">
        <ele>472.2</ele>
        <time>2022-06-08 10:36:33</time>
      </trkpt>
      <trkpt lat="43.00681" lon="-0.41836">
        <ele>472.4</ele>
        <time>2022-06-08 10:36:34</time>
      </trkpt>
      <trkpt lat="43.00676" lon="-0.41831">
        <ele>472.4</ele>
        <time>2022-06-08 10:36:35</time>
      </trkpt>
      <trkpt lat="43.0067" lon="-0.41825">
        <ele>472.6</ele>
        <time>2022-06-08 10:36:36</time>
      </trkpt>
      <trkpt lat="43.00666" lon="-0.41822">
        <ele>472.8</ele>
        <time>2022-06-08 10:36:37</time>
      </trkpt>
      <trkpt lat="43.00661" lon="-0.41817">
        <ele>472.8</ele>
        <time>2022-06-08 10:36:38</time>
      </trkpt>
      <trkpt lat="43.00656" lon="-0.41812">
        <ele>472.8</ele>
        <time>2022-06-08 10:36:39</time>
      </trkpt>
      <trkpt lat="43.00652" lon="-0.41807">
        <ele>472.8</ele>
        <time>2022-06-08 10:36:40</time>
      </trkpt>
      <trkpt lat="43.00648" lon="-0.41803">
        <ele>473</ele>
        <time>2022-06-08 10:36:41</time>
      </trkpt>
      <trkpt lat="43.00644" lon="-0.41799">
        <ele>473</ele>
        <time>2022-06-08 10:36:42</time>
      </trkpt>
      <trkpt lat="43.00639" lon="-0.41794">
        <ele>473.2</ele>
        <time>2022-06-08 10:36:43</time>
      </trkpt>
      <trkpt lat="43.00636" lon="-0.4179">
        <ele>473.2</ele>
        <time>2022-06-08 10:36:44</time>
      </trkpt>
      <trkpt lat="43.00632" lon="-0.41786">
        <ele>473.4</ele>
        <time>2022-06-08 10:36:45</time>
      </trkpt>
      <trkpt lat="43.00629" lon="-0.41781">
        <ele>473.4</ele>
        <time>2022-06-08 10:36:46</time>
      </trkpt>
      <trkpt lat="43.00625" lon="-0.41776">
        <ele>473.6</ele>
        <time>2022-06-08 10:36:47</time>
      </trkpt>
      <trkpt lat="43.00622" lon="-0.41772">
        <ele>473.6</ele>
        <time>2022-06-08 10:36:48</time>
      </trkpt>
      <trkpt lat="43.00619" lon="-0.41768">
        <ele>473.8</ele>
        <time>2022-06-08 10:36:49</time>
      </trkpt>
      <trkpt lat="43.00617" lon="-0.41766">
        <ele>473.8</ele>
        <time>2022-06-08 10:36:50</time>
      </trkpt>
      <trkpt lat="43.00614" lon="-0.41764">
        <ele>473.8</ele>
        <time>2022-06-08 10:36:51</time>
      </trkpt>
      <trkpt lat="43.00612" lon="-0.41763">
        <ele>473.8</ele>
        <time>2022-06-08 10:36:52</time>
      </trkpt>
      <trkpt lat="43.00611" lon="-0.41762">
        <ele>473.8</ele>
        <time>2022-06-08 10:36:53</time>
      </trkpt>
      <trkpt lat="43.0061" lon="-0.41761">
        <ele>473.8</ele>
        <time>2022-06-08 10:36:54</time>
      </trkpt>
      <trkpt lat="43.0061" lon="-0.41761">
        <ele>473.8</ele>
        <time>2022-06-08 10:36:55</time>
      </trkpt>
      <trkpt lat="43.00605" lon="-0.41752">
        <ele>474.6</ele>
        <time>2022-06-08 10:42:43</time>
      </trkpt>
      <trkpt lat="43.00604" lon="-0.4175">
        <ele>474.8</ele>
        <time>2022-06-08 10:42:44</time>
      </trkpt>
      <trkpt lat="43.00602" lon="-0.41748">
        <ele>474.6</ele>
        <time>2022-06-08 10:42:45</time>
      </trkpt>
      <trkpt lat="43.00599" lon="-0.41746">
        <ele>474.6</ele>
        <time>2022-06-08 10:42:46</time>
      </trkpt>
      <trkpt lat="43.00597" lon="-0.41744">
        <ele>474.4</ele>
        <time>2022-06-08 10:42:47</time>
      </trkpt>
      <trkpt lat="43.00595" lon="-0.41742">
        <ele>474.4</ele>
        <time>2022-06-08 10:42:48</time>
      </trkpt>
      <trkpt lat="43.00592" lon="-0.4174">
        <ele>474.4</ele>
        <time>2022-06-08 10:42:49</time>
      </trkpt>
      <trkpt lat="43.0059" lon="-0.41738">
        <ele>474.4</ele>
        <time>2022-06-08 10:42:50</time>
      </trkpt>
      <trkpt lat="43.00587" lon="-0.41735">
        <ele>474.4</ele>
        <time>2022-06-08 10:42:51</time>
      </trkpt>
      <trkpt lat="43.00583" lon="-0.41732">
        <ele>474.4</ele>
        <time>2022-06-08 10:42:52</time>
      </trkpt>
      <trkpt lat="43.0058" lon="-0.41729">
        <ele>474.2</ele>
        <time>2022-06-08 10:42:53</time>
      </trkpt>
      <trkpt lat="43.00575" lon="-0.41725">
        <ele>474.2</ele>
        <time>2022-06-08 10:42:54</time>
      </trkpt>
      <trkpt lat="43.00571" lon="-0.41721">
        <ele>474</ele>
        <time>2022-06-08 10:42:55</time>
      </trkpt>
      <trkpt lat="43.00567" lon="-0.41717">
        <ele>473.8</ele>
        <time>2022-06-08 10:42:56</time>
      </trkpt>
      <trkpt lat="43.00562" lon="-0.41714">
        <ele>473.8</ele>
        <time>2022-06-08 10:42:57</time>
      </trkpt>
      <trkpt lat="43.00558" lon="-0.41711">
        <ele>473.6</ele>
        <time>2022-06-08 10:42:58</time>
      </trkpt>
      <trkpt lat="43.00553" lon="-0.41708">
        <ele>473.6</ele>
        <time>2022-06-08 10:42:59</time>
      </trkpt>
      <trkpt lat="43.00548" lon="-0.41706">
        <ele>473.6</ele>
        <time>2022-06-08 10:43:00</time>
      </trkpt>
      <trkpt lat="43.00543" lon="-0.41704">
        <ele>473.6</ele>
        <time>2022-06-08 10:43:01</time>
      </trkpt>
      <trkpt lat="43.00539" lon="-0.41703">
        <ele>473.6</ele>
        <time>2022-06-08 10:43:02</time>
      </trkpt>
      <trkpt lat="43.00534" lon="-0.41702">
        <ele>473.6</ele>
        <time>2022-06-08 10:43:03</time>
      </trkpt>
      <trkpt lat="43.0053" lon="-0.41702">
        <ele>473.6</ele>
        <time>2022-06-08 10:43:04</time>
      </trkpt>
      <trkpt lat="43.00526" lon="-0.41701">
        <ele>473.8</ele>
        <time>2022-06-08 10:43:05</time>
      </trkpt>
      <trkpt lat="43.00521" lon="-0.41699">
        <ele>473.8</ele>
        <time>2022-06-08 10:43:06</time>
      </trkpt>
      <trkpt lat="43.00516" lon="-0.41698">
        <ele>474</ele>
        <time>2022-06-08 10:43:07</time>
      </trkpt>
      <trkpt lat="43.00511" lon="-0.41697">
        <ele>474</ele>
        <time>2022-06-08 10:43:08</time>
      </trkpt>
      <trkpt lat="43.00507" lon="-0.41696">
        <ele>474</ele>
        <time>2022-06-08 10:43:09</time>
      </trkpt>
      <trkpt lat="43.00502" lon="-0.41695">
        <ele>474</ele>
        <time>2022-06-08 10:43:10</time>
      </trkpt>
      <trkpt lat="43.00498" lon="-0.41694">
        <ele>474</ele>
        <time>2022-06-08 10:43:11</time>
      </trkpt>
      <trkpt lat="43.00494" lon="-0.41692">
        <ele>474</ele>
        <time>2022-06-08 10:43:12</time>
      </trkpt>
      <trkpt lat="43.00489" lon="-0.4169">
        <ele>474</ele>
        <time>2022-06-08 10:43:13</time>
      </trkpt>
      <trkpt lat="43.00484" lon="-0.41689">
        <ele>474</ele>
        <time>2022-06-08 10:43:14</time>
      </trkpt>
      <trkpt lat="43.0048" lon="-0.41688">
        <ele>474</ele>
        <time>2022-06-08 10:43:15</time>
      </trkpt>
      <trkpt lat="43.00475" lon="-0.41686">
        <ele>474.2</ele>
        <time>2022-06-08 10:43:16</time>
      </trkpt>
      <trkpt lat="43.0047" lon="-0.41685">
        <ele>474.2</ele>
        <time>2022-06-08 10:43:17</time>
      </trkpt>
      <trkpt lat="43.00466" lon="-0.41684">
        <ele>474.2</ele>
        <time>2022-06-08 10:43:18</time>
      </trkpt>
      <trkpt lat="43.00461" lon="-0.41684">
        <ele>474.2</ele>
        <time>2022-06-08 10:43:19</time>
      </trkpt>
      <trkpt lat="43.00456" lon="-0.41684">
        <ele>474.2</ele>
        <time>2022-06-08 10:43:20</time>
      </trkpt>
      <trkpt lat="43.00451" lon="-0.41683">
        <ele>474.2</ele>
        <time>2022-06-08 10:43:21</time>
      </trkpt>
      <trkpt lat="43.00445" lon="-0.41684">
        <ele>474.4</ele>
        <time>2022-06-08 10:43:22</time>
      </trkpt>
      <trkpt lat="43.0044" lon="-0.41685">
        <ele>474.4</ele>
        <time>2022-06-08 10:43:23</time>
      </trkpt>
      <trkpt lat="43.00436" lon="-0.41687">
        <ele>474.4</ele>
        <time>2022-06-08 10:43:24</time>
      </trkpt>
      <trkpt lat="43.00432" lon="-0.41689">
        <ele>474.4</ele>
        <time>2022-06-08 10:43:25</time>
      </trkpt>
      <trkpt lat="43.00427" lon="-0.41691">
        <ele>474.6</ele>
        <time>2022-06-08 10:43:26</time>
      </trkpt>
      <trkpt lat="43.00423" lon="-0.41693">
        <ele>474.8</ele>
        <time>2022-06-08 10:43:27</time>
      </trkpt>
      <trkpt lat="43.00419" lon="-0.41695">
        <ele>474.8</ele>
        <time>2022-06-08 10:43:28</time>
      </trkpt>
      <trkpt lat="43.00415" lon="-0.41698">
        <ele>474.8</ele>
        <time>2022-06-08 10:43:29</time>
      </trkpt>
      <trkpt lat="43.00411" lon="-0.417">
        <ele>475</ele>
        <time>2022-06-08 10:43:30</time>
      </trkpt>
      <trkpt lat="43.00407" lon="-0.41703">
        <ele>475.2</ele>
        <time>2022-06-08 10:43:31</time>
      </trkpt>
      <trkpt lat="43.00403" lon="-0.41705">
        <ele>475.2</ele>
        <time>2022-06-08 10:43:32</time>
      </trkpt>
      <trkpt lat="43.00399" lon="-0.41708">
        <ele>475.2</ele>
        <time>2022-06-08 10:43:33</time>
      </trkpt>
      <trkpt lat="43.00395" lon="-0.4171">
        <ele>475.2</ele>
        <time>2022-06-08 10:43:34</time>
      </trkpt>
      <trkpt lat="43.00391" lon="-0.41713">
        <ele>475.4</ele>
        <time>2022-06-08 10:43:35</time>
      </trkpt>
      <trkpt lat="43.00387" lon="-0.41715">
        <ele>475.4</ele>
        <time>2022-06-08 10:43:36</time>
      </trkpt>
      <trkpt lat="43.00383" lon="-0.41718">
        <ele>475.6</ele>
        <time>2022-06-08 10:43:37</time>
      </trkpt>
      <trkpt lat="43.00379" lon="-0.4172">
        <ele>475.8</ele>
        <time>2022-06-08 10:43:38</time>
      </trkpt>
      <trkpt lat="43.00375" lon="-0.41723">
        <ele>475.8</ele>
        <time>2022-06-08 10:43:39</time>
      </trkpt>
      <trkpt lat="43.00371" lon="-0.41726">
        <ele>476.2</ele>
        <time>2022-06-08 10:43:40</time>
      </trkpt>
      <trkpt lat="43.00368" lon="-0.41729">
        <ele>476.2</ele>
        <time>2022-06-08 10:43:41</time>
      </trkpt>
      <trkpt lat="43.00364" lon="-0.41732">
        <ele>476.4</ele>
        <time>2022-06-08 10:43:42</time>
      </trkpt>
      <trkpt lat="43.0036" lon="-0.41735">
        <ele>476.6</ele>
        <time>2022-06-08 10:43:43</time>
      </trkpt>
      <trkpt lat="43.00356" lon="-0.41738">
        <ele>476.6</ele>
        <time>2022-06-08 10:43:44</time>
      </trkpt>
      <trkpt lat="43.00352" lon="-0.41741">
        <ele>476.8</ele>
        <time>2022-06-08 10:43:45</time>
      </trkpt>
      <trkpt lat="43.00348" lon="-0.41744">
        <ele>476.8</ele>
        <time>2022-06-08 10:43:46</time>
      </trkpt>
      <trkpt lat="43.00344" lon="-0.41747">
        <ele>477</ele>
        <time>2022-06-08 10:43:47</time>
      </trkpt>
      <trkpt lat="43.0034" lon="-0.4175">
        <ele>477</ele>
        <time>2022-06-08 10:43:48</time>
      </trkpt>
      <trkpt lat="43.00336" lon="-0.41753">
        <ele>477</ele>
        <time>2022-06-08 10:43:49</time>
      </trkpt>
      <trkpt lat="43.00332" lon="-0.41756">
        <ele>477.2</ele>
        <time>2022-06-08 10:43:50</time>
      </trkpt>
      <trkpt lat="43.00328" lon="-0.41759">
        <ele>477.2</ele>
        <time>2022-06-08 10:43:51</time>
      </trkpt>
      <trkpt lat="43.00323" lon="-0.41762">
        <ele>477.4</ele>
        <time>2022-06-08 10:43:52</time>
      </trkpt>
      <trkpt lat="43.00319" lon="-0.41765">
        <ele>477.4</ele>
        <time>2022-06-08 10:43:53</time>
      </trkpt>
      <trkpt lat="43.00315" lon="-0.41768">
        <ele>477.6</ele>
        <time>2022-06-08 10:43:54</time>
      </trkpt>
      <trkpt lat="43.0031" lon="-0.41771">
        <ele>477.6</ele>
        <time>2022-06-08 10:43:55</time>
      </trkpt>
      <trkpt lat="43.00306" lon="-0.41775">
        <ele>477.6</ele>
        <time>2022-06-08 10:43:56</time>
      </trkpt>
      <trkpt lat="43.00301" lon="-0.41777">
        <ele>477.6</ele>
        <time>2022-06-08 10:43:57</time>
      </trkpt>
      <trkpt lat="43.00297" lon="-0.4178">
        <ele>477.8</ele>
        <time>2022-06-08 10:43:58</time>
      </trkpt>
      <trkpt lat="43.00292" lon="-0.41783">
        <ele>477.8</ele>
        <time>2022-06-08 10:43:59</time>
      </trkpt>
      <trkpt lat="43.00288" lon="-0.41786">
        <ele>477.6</ele>
        <time>2022-06-08 10:44:00</time>
      </trkpt>
      <trkpt lat="43.00283" lon="-0.41789">
        <ele>477.6</ele>
        <time>2022-06-08 10:44:01</time>
      </trkpt>
      <trkpt lat="43.00279" lon="-0.41792">
        <ele>477.6</ele>
        <time>2022-06-08 10:44:02</time>
      </trkpt>
      <trkpt lat="43.00274" lon="-0.41794">
        <ele>477.6</ele>
        <time>2022-06-08 10:44:03</time>
      </trkpt>
      <trkpt lat="43.0027" lon="-0.41796">
        <ele>477.6</ele>
        <time>2022-06-08 10:44:04</time>
      </trkpt>
      <trkpt lat="43.00265" lon="-0.41799">
        <ele>477.8</ele>
        <time>2022-06-08 10:44:05</time>
      </trkpt>
      <trkpt lat="43.00261" lon="-0.41801">
        <ele>477.8</ele>
        <time>2022-06-08 10:44:06</time>
      </trkpt>
      <trkpt lat="43.00257" lon="-0.41803">
        <ele>478</ele>
        <time>2022-06-08 10:44:07</time>
      </trkpt>
      <trkpt lat="43.00253" lon="-0.41806">
        <ele>478</ele>
        <time>2022-06-08 10:44:08</time>
      </trkpt>
      <trkpt lat="43.00249" lon="-0.41808">
        <ele>478.4</ele>
        <time>2022-06-08 10:44:09</time>
      </trkpt>
      <trkpt lat="43.00245" lon="-0.41811">
        <ele>478.6</ele>
        <time>2022-06-08 10:44:10</time>
      </trkpt>
      <trkpt lat="43.00241" lon="-0.41814">
        <ele>479</ele>
        <time>2022-06-08 10:44:11</time>
      </trkpt>
      <trkpt lat="43.00237" lon="-0.41817">
        <ele>479</ele>
        <time>2022-06-08 10:44:12</time>
      </trkpt>
      <trkpt lat="43.00232" lon="-0.41819">
        <ele>479.4</ele>
        <time>2022-06-08 10:44:13</time>
      </trkpt>
      <trkpt lat="43.00229" lon="-0.41822">
        <ele>479.4</ele>
        <time>2022-06-08 10:44:14</time>
      </trkpt>
      <trkpt lat="43.00225" lon="-0.41824">
        <ele>479.6</ele>
        <time>2022-06-08 10:44:15</time>
      </trkpt>
      <trkpt lat="43.00221" lon="-0.41826">
        <ele>479.6</ele>
        <time>2022-06-08 10:44:16</time>
      </trkpt>
      <trkpt lat="43.00217" lon="-0.41827">
        <ele>479.8</ele>
        <time>2022-06-08 10:44:17</time>
      </trkpt>
      <trkpt lat="43.00213" lon="-0.41828">
        <ele>480</ele>
        <time>2022-06-08 10:44:18</time>
      </trkpt>
      <trkpt lat="43.00208" lon="-0.4183">
        <ele>480.2</ele>
        <time>2022-06-08 10:44:19</time>
      </trkpt>
      <trkpt lat="43.00204" lon="-0.41831">
        <ele>480.2</ele>
        <time>2022-06-08 10:44:20</time>
      </trkpt>
      <trkpt lat="43.00199" lon="-0.41831">
        <ele>480.4</ele>
        <time>2022-06-08 10:44:21</time>
      </trkpt>
      <trkpt lat="43.00195" lon="-0.41831">
        <ele>480.4</ele>
        <time>2022-06-08 10:44:22</time>
      </trkpt>
      <trkpt lat="43.0019" lon="-0.41831">
        <ele>480.6</ele>
        <time>2022-06-08 10:44:23</time>
      </trkpt>
      <trkpt lat="43.00185" lon="-0.41832">
        <ele>481</ele>
        <time>2022-06-08 10:44:24</time>
      </trkpt>
      <trkpt lat="43.00179" lon="-0.41833">
        <ele>481</ele>
        <time>2022-06-08 10:44:25</time>
      </trkpt>
      <trkpt lat="43.00174" lon="-0.41836">
        <ele>481</ele>
        <time>2022-06-08 10:44:26</time>
      </trkpt>
      <trkpt lat="43.00169" lon="-0.41839">
        <ele>481.2</ele>
        <time>2022-06-08 10:44:27</time>
      </trkpt>
      <trkpt lat="43.00164" lon="-0.41842">
        <ele>481.2</ele>
        <time>2022-06-08 10:44:28</time>
      </trkpt>
      <trkpt lat="43.00158" lon="-0.41846">
        <ele>481.2</ele>
        <time>2022-06-08 10:44:29</time>
      </trkpt>
      <trkpt lat="43.00153" lon="-0.4185">
        <ele>481.2</ele>
        <time>2022-06-08 10:44:30</time>
      </trkpt>
      <trkpt lat="43.00148" lon="-0.41854">
        <ele>481.4</ele>
        <time>2022-06-08 10:44:31</time>
      </trkpt>
      <trkpt lat="43.00143" lon="-0.41859">
        <ele>481.4</ele>
        <time>2022-06-08 10:44:32</time>
      </trkpt>
      <trkpt lat="43.00137" lon="-0.41863">
        <ele>481.4</ele>
        <time>2022-06-08 10:44:33</time>
      </trkpt>
      <trkpt lat="43.00132" lon="-0.41868">
        <ele>481.4</ele>
        <time>2022-06-08 10:44:34</time>
      </trkpt>
      <trkpt lat="43.00127" lon="-0.41872">
        <ele>481.4</ele>
        <time>2022-06-08 10:44:35</time>
      </trkpt>
      <trkpt lat="43.00121" lon="-0.41877">
        <ele>481.4</ele>
        <time>2022-06-08 10:44:36</time>
      </trkpt>
      <trkpt lat="43.00117" lon="-0.41879">
        <ele>481.4</ele>
        <time>2022-06-08 10:44:37</time>
      </trkpt>
      <trkpt lat="43.00111" lon="-0.41883">
        <ele>481.2</ele>
        <time>2022-06-08 10:44:38</time>
      </trkpt>
      <trkpt lat="43.00104" lon="-0.41887">
        <ele>480.6</ele>
        <time>2022-06-08 10:44:39</time>
      </trkpt>
      <trkpt lat="43.00096" lon="-0.41893">
        <ele>480.4</ele>
        <time>2022-06-08 10:44:40</time>
      </trkpt>
      <trkpt lat="43.00089" lon="-0.41896">
        <ele>480</ele>
        <time>2022-06-08 10:44:41</time>
      </trkpt>
      <trkpt lat="43.00082" lon="-0.41898">
        <ele>480</ele>
        <time>2022-06-08 10:44:42</time>
      </trkpt>
      <trkpt lat="43.00075" lon="-0.419">
        <ele>479.8</ele>
        <time>2022-06-08 10:44:43</time>
      </trkpt>
      <trkpt lat="43.00069" lon="-0.41903">
        <ele>479.8</ele>
        <time>2022-06-08 10:44:44</time>
      </trkpt>
      <trkpt lat="43.00062" lon="-0.41905">
        <ele>479.6</ele>
        <time>2022-06-08 10:44:45</time>
      </trkpt>
      <trkpt lat="43.00055" lon="-0.41908">
        <ele>479.6</ele>
        <time>2022-06-08 10:44:46</time>
      </trkpt>
      <trkpt lat="43.00048" lon="-0.41912">
        <ele>479</ele>
        <time>2022-06-08 10:44:47</time>
      </trkpt>
      <trkpt lat="43.00042" lon="-0.41915">
        <ele>479</ele>
        <time>2022-06-08 10:44:48</time>
      </trkpt>
      <trkpt lat="43.00035" lon="-0.41918">
        <ele>478.6</ele>
        <time>2022-06-08 10:44:49</time>
      </trkpt>
      <trkpt lat="43.00029" lon="-0.41921">
        <ele>478.4</ele>
        <time>2022-06-08 10:44:50</time>
      </trkpt>
      <trkpt lat="43.00022" lon="-0.41924">
        <ele>478.2</ele>
        <time>2022-06-08 10:44:51</time>
      </trkpt>
      <trkpt lat="43.00016" lon="-0.41926">
        <ele>478.2</ele>
        <time>2022-06-08 10:44:52</time>
      </trkpt>
      <trkpt lat="43.00009" lon="-0.41929">
        <ele>478.2</ele>
        <time>2022-06-08 10:44:53</time>
      </trkpt>
      <trkpt lat="43.00003" lon="-0.41931">
        <ele>478.2</ele>
        <time>2022-06-08 10:44:54</time>
      </trkpt>
      <trkpt lat="42.99997" lon="-0.41933">
        <ele>478.2</ele>
        <time>2022-06-08 10:44:55</time>
      </trkpt>
      <trkpt lat="42.99991" lon="-0.41935">
        <ele>478.2</ele>
        <time>2022-06-08 10:44:56</time>
      </trkpt>
      <trkpt lat="42.99985" lon="-0.41938">
        <ele>478.2</ele>
        <time>2022-06-08 10:44:57</time>
      </trkpt>
      <trkpt lat="42.99979" lon="-0.41941">
        <ele>478.4</ele>
        <time>2022-06-08 10:44:58</time>
      </trkpt>
      <trkpt lat="42.99973" lon="-0.41944">
        <ele>478.4</ele>
        <time>2022-06-08 10:44:59</time>
      </trkpt>
      <trkpt lat="42.99967" lon="-0.41946">
        <ele>478.4</ele>
        <time>2022-06-08 10:45:00</time>
      </trkpt>
      <trkpt lat="42.99961" lon="-0.41949">
        <ele>478.6</ele>
        <time>2022-06-08 10:45:01</time>
      </trkpt>
      <trkpt lat="42.99955" lon="-0.41952">
        <ele>478.8</ele>
        <time>2022-06-08 10:45:02</time>
      </trkpt>
      <trkpt lat="42.9995" lon="-0.41954">
        <ele>478.8</ele>
        <time>2022-06-08 10:45:03</time>
      </trkpt>
      <trkpt lat="42.99944" lon="-0.41956">
        <ele>478.8</ele>
        <time>2022-06-08 10:45:04</time>
      </trkpt>
      <trkpt lat="42.99938" lon="-0.41959">
        <ele>479</ele>
        <time>2022-06-08 10:45:05</time>
      </trkpt>
      <trkpt lat="42.99932" lon="-0.41961">
        <ele>479</ele>
        <time>2022-06-08 10:45:06</time>
      </trkpt>
      <trkpt lat="42.99927" lon="-0.41963">
        <ele>479</ele>
        <time>2022-06-08 10:45:07</time>
      </trkpt>
      <trkpt lat="42.9992" lon="-0.41966">
        <ele>479.2</ele>
        <time>2022-06-08 10:45:08</time>
      </trkpt>
      <trkpt lat="42.99914" lon="-0.41968">
        <ele>479.2</ele>
        <time>2022-06-08 10:45:09</time>
      </trkpt>
      <trkpt lat="42.99908" lon="-0.41971">
        <ele>479.4</ele>
        <time>2022-06-08 10:45:10</time>
      </trkpt>
      <trkpt lat="42.99902" lon="-0.41974">
        <ele>479.6</ele>
        <time>2022-06-08 10:45:11</time>
      </trkpt>
      <trkpt lat="42.99896" lon="-0.41977">
        <ele>479.8</ele>
        <time>2022-06-08 10:45:12</time>
      </trkpt>
      <trkpt lat="42.9989" lon="-0.41979">
        <ele>479.8</ele>
        <time>2022-06-08 10:45:13</time>
      </trkpt>
      <trkpt lat="42.99884" lon="-0.41982">
        <ele>479.8</ele>
        <time>2022-06-08 10:45:14</time>
      </trkpt>
      <trkpt lat="42.99878" lon="-0.41984">
        <ele>480</ele>
        <time>2022-06-08 10:45:15</time>
      </trkpt>
      <trkpt lat="42.99872" lon="-0.41987">
        <ele>480</ele>
        <time>2022-06-08 10:45:16</time>
      </trkpt>
      <trkpt lat="42.99867" lon="-0.41989">
        <ele>480</ele>
        <time>2022-06-08 10:45:17</time>
      </trkpt>
      <trkpt lat="42.99861" lon="-0.41992">
        <ele>480</ele>
        <time>2022-06-08 10:45:18</time>
      </trkpt>
      <trkpt lat="42.99855" lon="-0.41994">
        <ele>480</ele>
        <time>2022-06-08 10:45:19</time>
      </trkpt>
      <trkpt lat="42.99849" lon="-0.41997">
        <ele>480</ele>
        <time>2022-06-08 10:45:20</time>
      </trkpt>
      <trkpt lat="42.99843" lon="-0.41999">
        <ele>480.2</ele>
        <time>2022-06-08 10:45:21</time>
      </trkpt>
      <trkpt lat="42.99837" lon="-0.42002">
        <ele>480.4</ele>
        <time>2022-06-08 10:45:22</time>
      </trkpt>
      <trkpt lat="42.99831" lon="-0.42004">
        <ele>480.6</ele>
        <time>2022-06-08 10:45:23</time>
      </trkpt>
      <trkpt lat="42.99826" lon="-0.42006">
        <ele>480.6</ele>
        <time>2022-06-08 10:45:24</time>
      </trkpt>
      <trkpt lat="42.99821" lon="-0.42009">
        <ele>480.6</ele>
        <time>2022-06-08 10:45:25</time>
      </trkpt>
      <trkpt lat="42.99815" lon="-0.42011">
        <ele>480.6</ele>
        <time>2022-06-08 10:45:26</time>
      </trkpt>
      <trkpt lat="42.9981" lon="-0.42013">
        <ele>480.6</ele>
        <time>2022-06-08 10:45:27</time>
      </trkpt>
      <trkpt lat="42.99804" lon="-0.42016">
        <ele>480.6</ele>
        <time>2022-06-08 10:45:28</time>
      </trkpt>
      <trkpt lat="42.99798" lon="-0.42019">
        <ele>480.6</ele>
        <time>2022-06-08 10:45:29</time>
      </trkpt>
      <trkpt lat="42.99793" lon="-0.42021">
        <ele>480.6</ele>
        <time>2022-06-08 10:45:30</time>
      </trkpt>
      <trkpt lat="42.99787" lon="-0.42024">
        <ele>480.6</ele>
        <time>2022-06-08 10:45:31</time>
      </trkpt>
      <trkpt lat="42.99781" lon="-0.42026">
        <ele>480.6</ele>
        <time>2022-06-08 10:45:32</time>
      </trkpt>
      <trkpt lat="42.99776" lon="-0.42029">
        <ele>480.8</ele>
        <time>2022-06-08 10:45:33</time>
      </trkpt>
      <trkpt lat="42.9977" lon="-0.42031">
        <ele>480.8</ele>
        <time>2022-06-08 10:45:34</time>
      </trkpt>
      <trkpt lat="42.99764" lon="-0.42033">
        <ele>480.8</ele>
        <time>2022-06-08 10:45:35</time>
      </trkpt>
      <trkpt lat="42.99758" lon="-0.42036">
        <ele>480.8</ele>
        <time>2022-06-08 10:45:36</time>
      </trkpt>
      <trkpt lat="42.99753" lon="-0.42038">
        <ele>481.2</ele>
        <time>2022-06-08 10:45:37</time>
      </trkpt>
      <trkpt lat="42.99747" lon="-0.42041">
        <ele>481.2</ele>
        <time>2022-06-08 10:45:38</time>
      </trkpt>
      <trkpt lat="42.99741" lon="-0.42043">
        <ele>481.2</ele>
        <time>2022-06-08 10:45:39</time>
      </trkpt>
      <trkpt lat="42.99735" lon="-0.42046">
        <ele>481.4</ele>
        <time>2022-06-08 10:45:40</time>
      </trkpt>
      <trkpt lat="42.99729" lon="-0.42048">
        <ele>481.4</ele>
        <time>2022-06-08 10:45:41</time>
      </trkpt>
      <trkpt lat="42.99723" lon="-0.4205">
        <ele>481.4</ele>
        <time>2022-06-08 10:45:42</time>
      </trkpt>
      <trkpt lat="42.99717" lon="-0.42052">
        <ele>481.4</ele>
        <time>2022-06-08 10:45:43</time>
      </trkpt>
      <trkpt lat="42.99711" lon="-0.42053">
        <ele>481.4</ele>
        <time>2022-06-08 10:45:44</time>
      </trkpt>
      <trkpt lat="42.99705" lon="-0.42054">
        <ele>481.6</ele>
        <time>2022-06-08 10:45:45</time>
      </trkpt>
      <trkpt lat="42.99699" lon="-0.42055">
        <ele>481.8</ele>
        <time>2022-06-08 10:45:46</time>
      </trkpt>
      <trkpt lat="42.99693" lon="-0.42056">
        <ele>482</ele>
        <time>2022-06-08 10:45:47</time>
      </trkpt>
      <trkpt lat="42.99687" lon="-0.42056">
        <ele>482</ele>
        <time>2022-06-08 10:45:48</time>
      </trkpt>
      <trkpt lat="42.99681" lon="-0.42057">
        <ele>482</ele>
        <time>2022-06-08 10:45:49</time>
      </trkpt>
      <trkpt lat="42.99674" lon="-0.42058">
        <ele>482</ele>
        <time>2022-06-08 10:45:50</time>
      </trkpt>
      <trkpt lat="42.99668" lon="-0.42058">
        <ele>482.2</ele>
        <time>2022-06-08 10:45:51</time>
      </trkpt>
      <trkpt lat="42.99662" lon="-0.42058">
        <ele>482.2</ele>
        <time>2022-06-08 10:45:52</time>
      </trkpt>
      <trkpt lat="42.99656" lon="-0.42058">
        <ele>482.4</ele>
        <time>2022-06-08 10:45:53</time>
      </trkpt>
      <trkpt lat="42.9965" lon="-0.42058">
        <ele>482.4</ele>
        <time>2022-06-08 10:45:54</time>
      </trkpt>
      <trkpt lat="42.99644" lon="-0.42058">
        <ele>482.4</ele>
        <time>2022-06-08 10:45:55</time>
      </trkpt>
      <trkpt lat="42.99638" lon="-0.42058">
        <ele>482.6</ele>
        <time>2022-06-08 10:45:56</time>
      </trkpt>
      <trkpt lat="42.99632" lon="-0.42058">
        <ele>482.6</ele>
        <time>2022-06-08 10:45:57</time>
      </trkpt>
      <trkpt lat="42.99626" lon="-0.42058">
        <ele>482.8</ele>
        <time>2022-06-08 10:45:58</time>
      </trkpt>
      <trkpt lat="42.9962" lon="-0.42059">
        <ele>483</ele>
        <time>2022-06-08 10:45:59</time>
      </trkpt>
      <trkpt lat="42.99614" lon="-0.42059">
        <ele>483</ele>
        <time>2022-06-08 10:46:00</time>
      </trkpt>
      <trkpt lat="42.99608" lon="-0.42059">
        <ele>483</ele>
        <time>2022-06-08 10:46:01</time>
      </trkpt>
      <trkpt lat="42.99602" lon="-0.42059">
        <ele>483.2</ele>
        <time>2022-06-08 10:46:02</time>
      </trkpt>
      <trkpt lat="42.99597" lon="-0.42059">
        <ele>483.2</ele>
        <time>2022-06-08 10:46:03</time>
      </trkpt>
      <trkpt lat="42.99591" lon="-0.42059">
        <ele>483.4</ele>
        <time>2022-06-08 10:46:04</time>
      </trkpt>
      <trkpt lat="42.99585" lon="-0.42059">
        <ele>483.4</ele>
        <time>2022-06-08 10:46:05</time>
      </trkpt>
      <trkpt lat="42.99578" lon="-0.42058">
        <ele>483.4</ele>
        <time>2022-06-08 10:46:06</time>
      </trkpt>
      <trkpt lat="42.99572" lon="-0.42058">
        <ele>483.6</ele>
        <time>2022-06-08 10:46:07</time>
      </trkpt>
      <trkpt lat="42.99566" lon="-0.42058">
        <ele>483.8</ele>
        <time>2022-06-08 10:46:08</time>
      </trkpt>
      <trkpt lat="42.9956" lon="-0.42058">
        <ele>484</ele>
        <time>2022-06-08 10:46:09</time>
      </trkpt>
      <trkpt lat="42.99554" lon="-0.42057">
        <ele>484</ele>
        <time>2022-06-08 10:46:10</time>
      </trkpt>
      <trkpt lat="42.99548" lon="-0.42057">
        <ele>484.2</ele>
        <time>2022-06-08 10:46:11</time>
      </trkpt>
      <trkpt lat="42.99542" lon="-0.42056">
        <ele>484.2</ele>
        <time>2022-06-08 10:46:12</time>
      </trkpt>
      <trkpt lat="42.99536" lon="-0.42055">
        <ele>484.4</ele>
        <time>2022-06-08 10:46:13</time>
      </trkpt>
      <trkpt lat="42.9953" lon="-0.42053">
        <ele>484.4</ele>
        <time>2022-06-08 10:46:14</time>
      </trkpt>
      <trkpt lat="42.99524" lon="-0.42052">
        <ele>484.4</ele>
        <time>2022-06-08 10:46:15</time>
      </trkpt>
      <trkpt lat="42.99518" lon="-0.42051">
        <ele>484.4</ele>
        <time>2022-06-08 10:46:16</time>
      </trkpt>
      <trkpt lat="42.99512" lon="-0.42049">
        <ele>484.6</ele>
        <time>2022-06-08 10:46:17</time>
      </trkpt>
      <trkpt lat="42.99506" lon="-0.42047">
        <ele>484.6</ele>
        <time>2022-06-08 10:46:18</time>
      </trkpt>
      <trkpt lat="42.99501" lon="-0.42045">
        <ele>484.6</ele>
        <time>2022-06-08 10:46:19</time>
      </trkpt>
      <trkpt lat="42.99496" lon="-0.42042">
        <ele>484.6</ele>
        <time>2022-06-08 10:46:20</time>
      </trkpt>
      <trkpt lat="42.9949" lon="-0.42038">
        <ele>484.8</ele>
        <time>2022-06-08 10:46:21</time>
      </trkpt>
      <trkpt lat="42.99485" lon="-0.42034">
        <ele>484.8</ele>
        <time>2022-06-08 10:46:22</time>
      </trkpt>
      <trkpt lat="42.99481" lon="-0.42029">
        <ele>484.8</ele>
        <time>2022-06-08 10:46:23</time>
      </trkpt>
      <trkpt lat="42.99476" lon="-0.42024">
        <ele>485.2</ele>
        <time>2022-06-08 10:46:24</time>
      </trkpt>
      <trkpt lat="42.99473" lon="-0.42019">
        <ele>485.2</ele>
        <time>2022-06-08 10:46:25</time>
      </trkpt>
      <trkpt lat="42.9947" lon="-0.42014">
        <ele>485.4</ele>
        <time>2022-06-08 10:46:26</time>
      </trkpt>
      <trkpt lat="42.99467" lon="-0.42008">
        <ele>485.4</ele>
        <time>2022-06-08 10:46:27</time>
      </trkpt>
      <trkpt lat="42.99465" lon="-0.42003">
        <ele>485.8</ele>
        <time>2022-06-08 10:46:28</time>
      </trkpt>
      <trkpt lat="42.99463" lon="-0.41998">
        <ele>486</ele>
        <time>2022-06-08 10:46:29</time>
      </trkpt>
      <trkpt lat="42.99461" lon="-0.41994">
        <ele>486.2</ele>
        <time>2022-06-08 10:46:30</time>
      </trkpt>
      <trkpt lat="42.9946" lon="-0.4199">
        <ele>486.4</ele>
        <time>2022-06-08 10:46:31</time>
      </trkpt>
      <trkpt lat="42.99459" lon="-0.41987">
        <ele>486.6</ele>
        <time>2022-06-08 10:46:32</time>
      </trkpt>
      <trkpt lat="42.99457" lon="-0.41984">
        <ele>486.8</ele>
        <time>2022-06-08 10:46:33</time>
      </trkpt>
      <trkpt lat="42.99456" lon="-0.41981">
        <ele>487</ele>
        <time>2022-06-08 10:46:34</time>
      </trkpt>
      <trkpt lat="42.99454" lon="-0.41979">
        <ele>487.2</ele>
        <time>2022-06-08 10:46:35</time>
      </trkpt>
      <trkpt lat="42.99453" lon="-0.41978">
        <ele>487.2</ele>
        <time>2022-06-08 10:46:36</time>
      </trkpt>
      <trkpt lat="42.99453" lon="-0.41976">
        <ele>487.4</ele>
        <time>2022-06-08 10:46:37</time>
      </trkpt>
      <trkpt lat="42.99452" lon="-0.41975">
        <ele>487.4</ele>
        <time>2022-06-08 10:46:38</time>
      </trkpt>
      <trkpt lat="42.99452" lon="-0.41975">
        <ele>487.4</ele>
        <time>2022-06-08 10:46:39</time>
      </trkpt>
      <trkpt lat="42.99452" lon="-0.41975">
        <ele>487.6</ele>
        <time>2022-06-08 10:46:40</time>
      </trkpt>
      <trkpt lat="42.99452" lon="-0.41975">
        <ele>487.6</ele>
        <time>2022-06-08 10:46:41</time>
      </trkpt>
      <trkpt lat="42.99448" lon="-0.41968">
        <ele>487.8</ele>
        <time>2022-06-08 10:47:32</time>
      </trkpt>
      <trkpt lat="42.99447" lon="-0.41966">
        <ele>488</ele>
        <time>2022-06-08 10:47:33</time>
      </trkpt>
      <trkpt lat="42.99446" lon="-0.41964">
        <ele>488</ele>
        <time>2022-06-08 10:47:34</time>
      </trkpt>
      <trkpt lat="42.99445" lon="-0.41962">
        <ele>488</ele>
        <time>2022-06-08 10:47:35</time>
      </trkpt>
      <trkpt lat="42.99443" lon="-0.41961">
        <ele>488.2</ele>
        <time>2022-06-08 10:47:36</time>
      </trkpt>
      <trkpt lat="42.99441" lon="-0.41959">
        <ele>488.2</ele>
        <time>2022-06-08 10:47:37</time>
      </trkpt>
      <trkpt lat="42.99439" lon="-0.41956">
        <ele>488.2</ele>
        <time>2022-06-08 10:47:38</time>
      </trkpt>
      <trkpt lat="42.99437" lon="-0.41954">
        <ele>488.2</ele>
        <time>2022-06-08 10:47:39</time>
      </trkpt>
      <trkpt lat="42.99435" lon="-0.41951">
        <ele>488.2</ele>
        <time>2022-06-08 10:47:40</time>
      </trkpt>
      <trkpt lat="42.99433" lon="-0.41948">
        <ele>488.4</ele>
        <time>2022-06-08 10:47:41</time>
      </trkpt>
      <trkpt lat="42.99431" lon="-0.41947">
        <ele>488.4</ele>
        <time>2022-06-08 10:47:42</time>
      </trkpt>
      <trkpt lat="42.99428" lon="-0.41945">
        <ele>488.6</ele>
        <time>2022-06-08 10:47:43</time>
      </trkpt>
      <trkpt lat="42.99424" lon="-0.41944">
        <ele>488.8</ele>
        <time>2022-06-08 10:47:44</time>
      </trkpt>
      <trkpt lat="42.99421" lon="-0.41942">
        <ele>489</ele>
        <time>2022-06-08 10:47:45</time>
      </trkpt>
      <trkpt lat="42.99417" lon="-0.41941">
        <ele>489</ele>
        <time>2022-06-08 10:47:46</time>
      </trkpt>
      <trkpt lat="42.99413" lon="-0.41941">
        <ele>489.2</ele>
        <time>2022-06-08 10:47:47</time>
      </trkpt>
      <trkpt lat="42.99408" lon="-0.41939">
        <ele>489.2</ele>
        <time>2022-06-08 10:47:48</time>
      </trkpt>
      <trkpt lat="42.99404" lon="-0.41938">
        <ele>489.2</ele>
        <time>2022-06-08 10:47:49</time>
      </trkpt>
      <trkpt lat="42.994" lon="-0.41936">
        <ele>489.4</ele>
        <time>2022-06-08 10:47:50</time>
      </trkpt>
      <trkpt lat="42.99396" lon="-0.41935">
        <ele>489.4</ele>
        <time>2022-06-08 10:47:51</time>
      </trkpt>
      <trkpt lat="42.99391" lon="-0.41933">
        <ele>489.2</ele>
        <time>2022-06-08 10:47:52</time>
      </trkpt>
      <trkpt lat="42.99387" lon="-0.41931">
        <ele>489.2</ele>
        <time>2022-06-08 10:47:53</time>
      </trkpt>
      <trkpt lat="42.99382" lon="-0.41931">
        <ele>489</ele>
        <time>2022-06-08 10:47:54</time>
      </trkpt>
      <trkpt lat="42.99378" lon="-0.41932">
        <ele>488.8</ele>
        <time>2022-06-08 10:47:55</time>
      </trkpt>
      <trkpt lat="42.99374" lon="-0.41936">
        <ele>488.8</ele>
        <time>2022-06-08 10:47:56</time>
      </trkpt>
      <trkpt lat="42.99371" lon="-0.41941">
        <ele>488.8</ele>
        <time>2022-06-08 10:47:57</time>
      </trkpt>
      <trkpt lat="42.9937" lon="-0.41946">
        <ele>488.6</ele>
        <time>2022-06-08 10:47:58</time>
      </trkpt>
      <trkpt lat="42.99369" lon="-0.41952">
        <ele>488.6</ele>
        <time>2022-06-08 10:47:59</time>
      </trkpt>
      <trkpt lat="42.99369" lon="-0.41959">
        <ele>488.6</ele>
        <time>2022-06-08 10:48:00</time>
      </trkpt>
      <trkpt lat="42.99369" lon="-0.41965">
        <ele>488.6</ele>
        <time>2022-06-08 10:48:01</time>
      </trkpt>
      <trkpt lat="42.99368" lon="-0.41972">
        <ele>488.6</ele>
        <time>2022-06-08 10:48:02</time>
      </trkpt>
      <trkpt lat="42.99366" lon="-0.41979">
        <ele>488.6</ele>
        <time>2022-06-08 10:48:03</time>
      </trkpt>
      <trkpt lat="42.99366" lon="-0.41984">
        <ele>488.6</ele>
        <time>2022-06-08 10:48:04</time>
      </trkpt>
      <trkpt lat="42.99365" lon="-0.4199">
        <ele>488.6</ele>
        <time>2022-06-08 10:48:05</time>
      </trkpt>
      <trkpt lat="42.99365" lon="-0.41995">
        <ele>488.8</ele>
        <time>2022-06-08 10:48:06</time>
      </trkpt>
      <trkpt lat="42.99364" lon="-0.42001">
        <ele>488.8</ele>
        <time>2022-06-08 10:48:07</time>
      </trkpt>
      <trkpt lat="42.99364" lon="-0.42007">
        <ele>488.8</ele>
        <time>2022-06-08 10:48:08</time>
      </trkpt>
      <trkpt lat="42.99363" lon="-0.42012">
        <ele>489</ele>
        <time>2022-06-08 10:48:09</time>
      </trkpt>
      <trkpt lat="42.99363" lon="-0.4202">
        <ele>489.4</ele>
        <time>2022-06-08 10:48:10</time>
      </trkpt>
      <trkpt lat="42.99363" lon="-0.42025">
        <ele>489.8</ele>
        <time>2022-06-08 10:48:11</time>
      </trkpt>
      <trkpt lat="42.99363" lon="-0.42031">
        <ele>490</ele>
        <time>2022-06-08 10:48:12</time>
      </trkpt>
      <trkpt lat="42.99363" lon="-0.42038">
        <ele>490</ele>
        <time>2022-06-08 10:48:13</time>
      </trkpt>
      <trkpt lat="42.99363" lon="-0.42045">
        <ele>490</ele>
        <time>2022-06-08 10:48:14</time>
      </trkpt>
      <trkpt lat="42.99364" lon="-0.42051">
        <ele>490.2</ele>
        <time>2022-06-08 10:48:15</time>
      </trkpt>
      <trkpt lat="42.99366" lon="-0.42058">
        <ele>490</ele>
        <time>2022-06-08 10:48:16</time>
      </trkpt>
      <trkpt lat="42.99367" lon="-0.42065">
        <ele>489.6</ele>
        <time>2022-06-08 10:48:17</time>
      </trkpt>
      <trkpt lat="42.9937" lon="-0.42072">
        <ele>489.4</ele>
        <time>2022-06-08 10:48:18</time>
      </trkpt>
      <trkpt lat="42.99372" lon="-0.42079">
        <ele>489</ele>
        <time>2022-06-08 10:48:19</time>
      </trkpt>
      <trkpt lat="42.99374" lon="-0.42086">
        <ele>489</ele>
        <time>2022-06-08 10:48:20</time>
      </trkpt>
      <trkpt lat="42.99377" lon="-0.42093">
        <ele>489.2</ele>
        <time>2022-06-08 10:48:21</time>
      </trkpt>
      <trkpt lat="42.99379" lon="-0.42099">
        <ele>489.2</ele>
        <time>2022-06-08 10:48:22</time>
      </trkpt>
      <trkpt lat="42.99381" lon="-0.42105">
        <ele>489</ele>
        <time>2022-06-08 10:48:23</time>
      </trkpt>
      <trkpt lat="42.99383" lon="-0.42112">
        <ele>488.8</ele>
        <time>2022-06-08 10:48:24</time>
      </trkpt>
      <trkpt lat="42.99385" lon="-0.42118">
        <ele>488.8</ele>
        <time>2022-06-08 10:48:25</time>
      </trkpt>
      <trkpt lat="42.99387" lon="-0.42124">
        <ele>488.6</ele>
        <time>2022-06-08 10:48:26</time>
      </trkpt>
      <trkpt lat="42.99389" lon="-0.4213">
        <ele>488.6</ele>
        <time>2022-06-08 10:48:27</time>
      </trkpt>
      <trkpt lat="42.99391" lon="-0.42136">
        <ele>488.2</ele>
        <time>2022-06-08 10:48:28</time>
      </trkpt>
      <trkpt lat="42.99393" lon="-0.42142">
        <ele>488</ele>
        <time>2022-06-08 10:48:29</time>
      </trkpt>
      <trkpt lat="42.99396" lon="-0.42149">
        <ele>487.6</ele>
        <time>2022-06-08 10:48:30</time>
      </trkpt>
      <trkpt lat="42.99398" lon="-0.42156">
        <ele>487.6</ele>
        <time>2022-06-08 10:48:31</time>
      </trkpt>
      <trkpt lat="42.994" lon="-0.42163">
        <ele>487.4</ele>
        <time>2022-06-08 10:48:32</time>
      </trkpt>
      <trkpt lat="42.99403" lon="-0.4217">
        <ele>487.4</ele>
        <time>2022-06-08 10:48:33</time>
      </trkpt>
      <trkpt lat="42.99405" lon="-0.42176">
        <ele>487.4</ele>
        <time>2022-06-08 10:48:34</time>
      </trkpt>
      <trkpt lat="42.99407" lon="-0.42183">
        <ele>487.4</ele>
        <time>2022-06-08 10:48:35</time>
      </trkpt>
      <trkpt lat="42.99409" lon="-0.42189">
        <ele>487.2</ele>
        <time>2022-06-08 10:48:36</time>
      </trkpt>
      <trkpt lat="42.99411" lon="-0.42195">
        <ele>487.2</ele>
        <time>2022-06-08 10:48:37</time>
      </trkpt>
      <trkpt lat="42.99412" lon="-0.422">
        <ele>487.2</ele>
        <time>2022-06-08 10:48:38</time>
      </trkpt>
      <trkpt lat="42.99414" lon="-0.42203">
        <ele>487.4</ele>
        <time>2022-06-08 10:48:39</time>
      </trkpt>
      <trkpt lat="42.99415" lon="-0.42206">
        <ele>487.6</ele>
        <time>2022-06-08 10:48:40</time>
      </trkpt>
      <trkpt lat="42.99416" lon="-0.42209">
        <ele>487.4</ele>
        <time>2022-06-08 10:48:41</time>
      </trkpt>
      <trkpt lat="42.99417" lon="-0.42211">
        <ele>487.6</ele>
        <time>2022-06-08 10:48:42</time>
      </trkpt>
      <trkpt lat="42.99418" lon="-0.42213">
        <ele>487.8</ele>
        <time>2022-06-08 10:48:43</time>
      </trkpt>
      <trkpt lat="42.99418" lon="-0.42214">
        <ele>487.8</ele>
        <time>2022-06-08 10:48:44</time>
      </trkpt>
      <trkpt lat="42.99418" lon="-0.42215">
        <ele>488</ele>
        <time>2022-06-08 10:48:45</time>
      </trkpt>
      <trkpt lat="42.99419" lon="-0.42216">
        <ele>488</ele>
        <time>2022-06-08 10:48:46</time>
      </trkpt>
      <trkpt lat="42.99419" lon="-0.42216">
        <ele>488</ele>
        <time>2022-06-08 10:48:47</time>
      </trkpt>
      <trkpt lat="42.99419" lon="-0.42216">
        <ele>488</ele>
        <time>2022-06-08 10:48:48</time>
      </trkpt>
      <trkpt lat="42.99417" lon="-0.4222">
        <ele>488</ele>
        <time>2022-06-08 10:49:04</time>
      </trkpt>
      <trkpt lat="42.99415" lon="-0.42222">
        <ele>488</ele>
        <time>2022-06-08 10:49:05</time>
      </trkpt>
      <trkpt lat="42.99412" lon="-0.42224">
        <ele>488</ele>
        <time>2022-06-08 10:49:06</time>
      </trkpt>
      <trkpt lat="42.9941" lon="-0.42225">
        <ele>488</ele>
        <time>2022-06-08 10:49:07</time>
      </trkpt>
      <trkpt lat="42.99407" lon="-0.42226">
        <ele>488</ele>
        <time>2022-06-08 10:49:08</time>
      </trkpt>
      <trkpt lat="42.99403" lon="-0.42228">
        <ele>488</ele>
        <time>2022-06-08 10:49:09</time>
      </trkpt>
      <trkpt lat="42.99399" lon="-0.42229">
        <ele>488.2</ele>
        <time>2022-06-08 10:49:10</time>
      </trkpt>
      <trkpt lat="42.99395" lon="-0.4223">
        <ele>488.2</ele>
        <time>2022-06-08 10:49:11</time>
      </trkpt>
      <trkpt lat="42.99391" lon="-0.42231">
        <ele>488.2</ele>
        <time>2022-06-08 10:49:12</time>
      </trkpt>
      <trkpt lat="42.99387" lon="-0.42232">
        <ele>488.4</ele>
        <time>2022-06-08 10:49:13</time>
      </trkpt>
      <trkpt lat="42.99383" lon="-0.42232">
        <ele>488.4</ele>
        <time>2022-06-08 10:49:14</time>
      </trkpt>
      <trkpt lat="42.99378" lon="-0.42234">
        <ele>488.6</ele>
        <time>2022-06-08 10:49:15</time>
      </trkpt>
      <trkpt lat="42.99374" lon="-0.42235">
        <ele>488.6</ele>
        <time>2022-06-08 10:49:16</time>
      </trkpt>
      <trkpt lat="42.9937" lon="-0.42235">
        <ele>488.8</ele>
        <time>2022-06-08 10:49:17</time>
      </trkpt>
      <trkpt lat="42.99365" lon="-0.42236">
        <ele>488.8</ele>
        <time>2022-06-08 10:49:18</time>
      </trkpt>
      <trkpt lat="42.99361" lon="-0.42236">
        <ele>489</ele>
        <time>2022-06-08 10:49:19</time>
      </trkpt>
      <trkpt lat="42.99357" lon="-0.42236">
        <ele>489.2</ele>
        <time>2022-06-08 10:49:20</time>
      </trkpt>
      <trkpt lat="42.99354" lon="-0.42237">
        <ele>489.4</ele>
        <time>2022-06-08 10:49:21</time>
      </trkpt>
      <trkpt lat="42.99351" lon="-0.42237">
        <ele>489.8</ele>
        <time>2022-06-08 10:49:22</time>
      </trkpt>
      <trkpt lat="42.99347" lon="-0.42237">
        <ele>489.8</ele>
        <time>2022-06-08 10:49:23</time>
      </trkpt>
      <trkpt lat="42.99344" lon="-0.42237">
        <ele>490.2</ele>
        <time>2022-06-08 10:49:24</time>
      </trkpt>
      <trkpt lat="42.99341" lon="-0.42238">
        <ele>490.2</ele>
        <time>2022-06-08 10:49:25</time>
      </trkpt>
      <trkpt lat="42.99339" lon="-0.42238">
        <ele>490.6</ele>
        <time>2022-06-08 10:49:26</time>
      </trkpt>
      <trkpt lat="42.99336" lon="-0.42239">
        <ele>490.8</ele>
        <time>2022-06-08 10:49:27</time>
      </trkpt>
      <trkpt lat="42.99333" lon="-0.42239">
        <ele>491.4</ele>
        <time>2022-06-08 10:49:28</time>
      </trkpt>
      <trkpt lat="42.99329" lon="-0.42239">
        <ele>491.4</ele>
        <time>2022-06-08 10:49:29</time>
      </trkpt>
      <trkpt lat="42.99326" lon="-0.4224">
        <ele>491.6</ele>
        <time>2022-06-08 10:49:30</time>
      </trkpt>
      <trkpt lat="42.99322" lon="-0.4224">
        <ele>491.6</ele>
        <time>2022-06-08 10:49:31</time>
      </trkpt>
      <trkpt lat="42.99319" lon="-0.42241">
        <ele>491.8</ele>
        <time>2022-06-08 10:49:32</time>
      </trkpt>
      <trkpt lat="42.99316" lon="-0.42241">
        <ele>492</ele>
        <time>2022-06-08 10:49:33</time>
      </trkpt>
      <trkpt lat="42.99312" lon="-0.42241">
        <ele>492.2</ele>
        <time>2022-06-08 10:49:34</time>
      </trkpt>
      <trkpt lat="42.99309" lon="-0.42241">
        <ele>492.4</ele>
        <time>2022-06-08 10:49:35</time>
      </trkpt>
      <trkpt lat="42.99306" lon="-0.42241">
        <ele>492.6</ele>
        <time>2022-06-08 10:49:36</time>
      </trkpt>
      <trkpt lat="42.99302" lon="-0.42242">
        <ele>493</ele>
        <time>2022-06-08 10:49:37</time>
      </trkpt>
      <trkpt lat="42.99299" lon="-0.42242">
        <ele>493.2</ele>
        <time>2022-06-08 10:49:38</time>
      </trkpt>
      <trkpt lat="42.99296" lon="-0.42242">
        <ele>493.4</ele>
        <time>2022-06-08 10:49:39</time>
      </trkpt>
      <trkpt lat="42.99293" lon="-0.42243">
        <ele>493.6</ele>
        <time>2022-06-08 10:49:40</time>
      </trkpt>
      <trkpt lat="42.99289" lon="-0.42243">
        <ele>493.8</ele>
        <time>2022-06-08 10:49:41</time>
      </trkpt>
      <trkpt lat="42.99286" lon="-0.42244">
        <ele>494</ele>
        <time>2022-06-08 10:49:42</time>
      </trkpt>
      <trkpt lat="42.99282" lon="-0.42245">
        <ele>494</ele>
        <time>2022-06-08 10:49:43</time>
      </trkpt>
      <trkpt lat="42.99279" lon="-0.42246">
        <ele>494.2</ele>
        <time>2022-06-08 10:49:44</time>
      </trkpt>
      <trkpt lat="42.99276" lon="-0.42247">
        <ele>494.6</ele>
        <time>2022-06-08 10:49:45</time>
      </trkpt>
      <trkpt lat="42.99273" lon="-0.42247">
        <ele>494.8</ele>
        <time>2022-06-08 10:49:46</time>
      </trkpt>
      <trkpt lat="42.99269" lon="-0.42248">
        <ele>495</ele>
        <time>2022-06-08 10:49:47</time>
      </trkpt>
      <trkpt lat="42.99266" lon="-0.42249">
        <ele>495.2</ele>
        <time>2022-06-08 10:49:48</time>
      </trkpt>
      <trkpt lat="42.99262" lon="-0.42249">
        <ele>495.4</ele>
        <time>2022-06-08 10:49:49</time>
      </trkpt>
      <trkpt lat="42.99259" lon="-0.4225">
        <ele>495.6</ele>
        <time>2022-06-08 10:49:50</time>
      </trkpt>
      <trkpt lat="42.99256" lon="-0.42251">
        <ele>495.8</ele>
        <time>2022-06-08 10:49:51</time>
      </trkpt>
      <trkpt lat="42.99253" lon="-0.42252">
        <ele>496</ele>
        <time>2022-06-08 10:49:52</time>
      </trkpt>
      <trkpt lat="42.9925" lon="-0.42252">
        <ele>496</ele>
        <time>2022-06-08 10:49:53</time>
      </trkpt>
      <trkpt lat="42.99247" lon="-0.42252">
        <ele>496.4</ele>
        <time>2022-06-08 10:49:54</time>
      </trkpt>
      <trkpt lat="42.99243" lon="-0.42253">
        <ele>496.4</ele>
        <time>2022-06-08 10:49:55</time>
      </trkpt>
      <trkpt lat="42.9924" lon="-0.42253">
        <ele>496.8</ele>
        <time>2022-06-08 10:49:56</time>
      </trkpt>
      <trkpt lat="42.99236" lon="-0.42254">
        <ele>497</ele>
        <time>2022-06-08 10:49:57</time>
      </trkpt>
      <trkpt lat="42.99233" lon="-0.42254">
        <ele>497.4</ele>
        <time>2022-06-08 10:49:58</time>
      </trkpt>
      <trkpt lat="42.99229" lon="-0.42254">
        <ele>497.4</ele>
        <time>2022-06-08 10:49:59</time>
      </trkpt>
      <trkpt lat="42.99225" lon="-0.42253">
        <ele>497.6</ele>
        <time>2022-06-08 10:50:00</time>
      </trkpt>
      <trkpt lat="42.99222" lon="-0.42252">
        <ele>497.8</ele>
        <time>2022-06-08 10:50:01</time>
      </trkpt>
      <trkpt lat="42.99218" lon="-0.42252">
        <ele>498.2</ele>
        <time>2022-06-08 10:50:02</time>
      </trkpt>
      <trkpt lat="42.99215" lon="-0.42252">
        <ele>498.4</ele>
        <time>2022-06-08 10:50:03</time>
      </trkpt>
      <trkpt lat="42.99212" lon="-0.42252">
        <ele>498.8</ele>
        <time>2022-06-08 10:50:04</time>
      </trkpt>
      <trkpt lat="42.99208" lon="-0.42251">
        <ele>499.2</ele>
        <time>2022-06-08 10:50:05</time>
      </trkpt>
      <trkpt lat="42.99205" lon="-0.4225">
        <ele>499.2</ele>
        <time>2022-06-08 10:50:06</time>
      </trkpt>
      <trkpt lat="42.99201" lon="-0.4225">
        <ele>499.4</ele>
        <time>2022-06-08 10:50:07</time>
      </trkpt>
      <trkpt lat="42.99197" lon="-0.42248">
        <ele>499.6</ele>
        <time>2022-06-08 10:50:08</time>
      </trkpt>
      <trkpt lat="42.99193" lon="-0.42247">
        <ele>499.6</ele>
        <time>2022-06-08 10:50:09</time>
      </trkpt>
      <trkpt lat="42.99188" lon="-0.42246">
        <ele>499.8</ele>
        <time>2022-06-08 10:50:10</time>
      </trkpt>
      <trkpt lat="42.99185" lon="-0.42245">
        <ele>500</ele>
        <time>2022-06-08 10:50:11</time>
      </trkpt>
      <trkpt lat="42.99181" lon="-0.42244">
        <ele>500</ele>
        <time>2022-06-08 10:50:12</time>
      </trkpt>
      <trkpt lat="42.99177" lon="-0.42243">
        <ele>500.2</ele>
        <time>2022-06-08 10:50:13</time>
      </trkpt>
      <trkpt lat="42.99173" lon="-0.42242">
        <ele>500.2</ele>
        <time>2022-06-08 10:50:14</time>
      </trkpt>
      <trkpt lat="42.99169" lon="-0.42241">
        <ele>500.4</ele>
        <time>2022-06-08 10:50:15</time>
      </trkpt>
      <trkpt lat="42.99164" lon="-0.42239">
        <ele>500.4</ele>
        <time>2022-06-08 10:50:16</time>
      </trkpt>
      <trkpt lat="42.9916" lon="-0.42238">
        <ele>500.4</ele>
        <time>2022-06-08 10:50:17</time>
      </trkpt>
      <trkpt lat="42.99156" lon="-0.42237">
        <ele>500.4</ele>
        <time>2022-06-08 10:50:18</time>
      </trkpt>
      <trkpt lat="42.99151" lon="-0.42236">
        <ele>500.6</ele>
        <time>2022-06-08 10:50:19</time>
      </trkpt>
      <trkpt lat="42.99146" lon="-0.42235">
        <ele>500.8</ele>
        <time>2022-06-08 10:50:20</time>
      </trkpt>
      <trkpt lat="42.99142" lon="-0.42234">
        <ele>500.8</ele>
        <time>2022-06-08 10:50:21</time>
      </trkpt>
      <trkpt lat="42.99137" lon="-0.42233">
        <ele>501</ele>
        <time>2022-06-08 10:50:22</time>
      </trkpt>
      <trkpt lat="42.99132" lon="-0.42231">
        <ele>501</ele>
        <time>2022-06-08 10:50:23</time>
      </trkpt>
      <trkpt lat="42.99127" lon="-0.4223">
        <ele>501.2</ele>
        <time>2022-06-08 10:50:24</time>
      </trkpt>
      <trkpt lat="42.99122" lon="-0.42229">
        <ele>501.2</ele>
        <time>2022-06-08 10:50:25</time>
      </trkpt>
      <trkpt lat="42.99117" lon="-0.42228">
        <ele>501.2</ele>
        <time>2022-06-08 10:50:26</time>
      </trkpt>
      <trkpt lat="42.99112" lon="-0.42227">
        <ele>501.2</ele>
        <time>2022-06-08 10:50:27</time>
      </trkpt>
      <trkpt lat="42.99107" lon="-0.42226">
        <ele>501.2</ele>
        <time>2022-06-08 10:50:28</time>
      </trkpt>
      <trkpt lat="42.99101" lon="-0.42225">
        <ele>501.2</ele>
        <time>2022-06-08 10:50:29</time>
      </trkpt>
      <trkpt lat="42.99096" lon="-0.42225">
        <ele>501.2</ele>
        <time>2022-06-08 10:50:30</time>
      </trkpt>
      <trkpt lat="42.9909" lon="-0.42224">
        <ele>501.2</ele>
        <time>2022-06-08 10:50:31</time>
      </trkpt>
      <trkpt lat="42.99085" lon="-0.42223">
        <ele>501.2</ele>
        <time>2022-06-08 10:50:32</time>
      </trkpt>
      <trkpt lat="42.9908" lon="-0.42222">
        <ele>501.4</ele>
        <time>2022-06-08 10:50:33</time>
      </trkpt>
      <trkpt lat="42.99074" lon="-0.42221">
        <ele>501.4</ele>
        <time>2022-06-08 10:50:34</time>
      </trkpt>
      <trkpt lat="42.99068" lon="-0.4222">
        <ele>501.4</ele>
        <time>2022-06-08 10:50:35</time>
      </trkpt>
      <trkpt lat="42.99062" lon="-0.4222">
        <ele>501.4</ele>
        <time>2022-06-08 10:50:36</time>
      </trkpt>
      <trkpt lat="42.99056" lon="-0.42221">
        <ele>501.4</ele>
        <time>2022-06-08 10:50:37</time>
      </trkpt>
      <trkpt lat="42.99051" lon="-0.42223">
        <ele>501.4</ele>
        <time>2022-06-08 10:50:38</time>
      </trkpt>
      <trkpt lat="42.99045" lon="-0.42226">
        <ele>501.4</ele>
        <time>2022-06-08 10:50:39</time>
      </trkpt>
      <trkpt lat="42.99039" lon="-0.4223">
        <ele>501.4</ele>
        <time>2022-06-08 10:50:40</time>
      </trkpt>
      <trkpt lat="42.99034" lon="-0.42234">
        <ele>501.6</ele>
        <time>2022-06-08 10:50:41</time>
      </trkpt>
      <trkpt lat="42.99029" lon="-0.42238">
        <ele>501.6</ele>
        <time>2022-06-08 10:50:42</time>
      </trkpt>
      <trkpt lat="42.99023" lon="-0.42242">
        <ele>501.6</ele>
        <time>2022-06-08 10:50:43</time>
      </trkpt>
      <trkpt lat="42.99018" lon="-0.42245">
        <ele>501.6</ele>
        <time>2022-06-08 10:50:44</time>
      </trkpt>
      <trkpt lat="42.99012" lon="-0.42249">
        <ele>501.6</ele>
        <time>2022-06-08 10:50:45</time>
      </trkpt>
      <trkpt lat="42.99007" lon="-0.42253">
        <ele>501.8</ele>
        <time>2022-06-08 10:50:46</time>
      </trkpt>
      <trkpt lat="42.99002" lon="-0.42257">
        <ele>501.8</ele>
        <time>2022-06-08 10:50:47</time>
      </trkpt>
      <trkpt lat="42.98996" lon="-0.4226">
        <ele>501.8</ele>
        <time>2022-06-08 10:50:48</time>
      </trkpt>
      <trkpt lat="42.98991" lon="-0.42263">
        <ele>501.8</ele>
        <time>2022-06-08 10:50:49</time>
      </trkpt>
      <trkpt lat="42.98985" lon="-0.42265">
        <ele>502</ele>
        <time>2022-06-08 10:50:50</time>
      </trkpt>
      <trkpt lat="42.98979" lon="-0.42266">
        <ele>502</ele>
        <time>2022-06-08 10:50:51</time>
      </trkpt>
      <trkpt lat="42.98973" lon="-0.42267">
        <ele>502</ele>
        <time>2022-06-08 10:50:52</time>
      </trkpt>
      <trkpt lat="42.98968" lon="-0.42266">
        <ele>502.2</ele>
        <time>2022-06-08 10:50:53</time>
      </trkpt>
      <trkpt lat="42.98962" lon="-0.42266">
        <ele>502.2</ele>
        <time>2022-06-08 10:50:54</time>
      </trkpt>
      <trkpt lat="42.98956" lon="-0.42265">
        <ele>502.2</ele>
        <time>2022-06-08 10:50:55</time>
      </trkpt>
      <trkpt lat="42.98951" lon="-0.42265">
        <ele>502.4</ele>
        <time>2022-06-08 10:50:56</time>
      </trkpt>
      <trkpt lat="42.98944" lon="-0.42263">
        <ele>502.4</ele>
        <time>2022-06-08 10:50:57</time>
      </trkpt>
      <trkpt lat="42.98938" lon="-0.42262">
        <ele>502.6</ele>
        <time>2022-06-08 10:50:58</time>
      </trkpt>
      <trkpt lat="42.98932" lon="-0.42261">
        <ele>502.8</ele>
        <time>2022-06-08 10:50:59</time>
      </trkpt>
      <trkpt lat="42.98926" lon="-0.4226">
        <ele>502.8</ele>
        <time>2022-06-08 10:51:00</time>
      </trkpt>
      <trkpt lat="42.9892" lon="-0.42259">
        <ele>503</ele>
        <time>2022-06-08 10:51:01</time>
      </trkpt>
      <trkpt lat="42.98914" lon="-0.42258">
        <ele>503</ele>
        <time>2022-06-08 10:51:02</time>
      </trkpt>
      <trkpt lat="42.98908" lon="-0.42258">
        <ele>503.4</ele>
        <time>2022-06-08 10:51:03</time>
      </trkpt>
      <trkpt lat="42.98902" lon="-0.42256">
        <ele>503.4</ele>
        <time>2022-06-08 10:51:04</time>
      </trkpt>
      <trkpt lat="42.98896" lon="-0.42255">
        <ele>503.4</ele>
        <time>2022-06-08 10:51:05</time>
      </trkpt>
      <trkpt lat="42.98889" lon="-0.42253">
        <ele>503.4</ele>
        <time>2022-06-08 10:51:06</time>
      </trkpt>
      <trkpt lat="42.98883" lon="-0.42252">
        <ele>503.4</ele>
        <time>2022-06-08 10:51:07</time>
      </trkpt>
      <trkpt lat="42.98876" lon="-0.4225">
        <ele>503.4</ele>
        <time>2022-06-08 10:51:08</time>
      </trkpt>
      <trkpt lat="42.9887" lon="-0.42249">
        <ele>503.6</ele>
        <time>2022-06-08 10:51:09</time>
      </trkpt>
      <trkpt lat="42.98865" lon="-0.42248">
        <ele>503.6</ele>
        <time>2022-06-08 10:51:10</time>
      </trkpt>
      <trkpt lat="42.98858" lon="-0.42247">
        <ele>503.8</ele>
        <time>2022-06-08 10:51:11</time>
      </trkpt>
      <trkpt lat="42.98852" lon="-0.42245">
        <ele>503.8</ele>
        <time>2022-06-08 10:51:12</time>
      </trkpt>
      <trkpt lat="42.98846" lon="-0.42244">
        <ele>503.8</ele>
        <time>2022-06-08 10:51:13</time>
      </trkpt>
      <trkpt lat="42.9884" lon="-0.42243">
        <ele>503.6</ele>
        <time>2022-06-08 10:51:14</time>
      </trkpt>
      <trkpt lat="42.98835" lon="-0.42243">
        <ele>503.6</ele>
        <time>2022-06-08 10:51:15</time>
      </trkpt>
      <trkpt lat="42.98829" lon="-0.42246">
        <ele>503.4</ele>
        <time>2022-06-08 10:51:16</time>
      </trkpt>
      <trkpt lat="42.98825" lon="-0.4225">
        <ele>503.4</ele>
        <time>2022-06-08 10:51:17</time>
      </trkpt>
      <trkpt lat="42.98822" lon="-0.42256">
        <ele>503.6</ele>
        <time>2022-06-08 10:51:18</time>
      </trkpt>
      <trkpt lat="42.9882" lon="-0.42262">
        <ele>503.6</ele>
        <time>2022-06-08 10:51:19</time>
      </trkpt>
      <trkpt lat="42.98819" lon="-0.42269">
        <ele>503.8</ele>
        <time>2022-06-08 10:51:20</time>
      </trkpt>
      <trkpt lat="42.98819" lon="-0.42276">
        <ele>503.8</ele>
        <time>2022-06-08 10:51:21</time>
      </trkpt>
      <trkpt lat="42.98818" lon="-0.42283">
        <ele>504</ele>
        <time>2022-06-08 10:51:22</time>
      </trkpt>
      <trkpt lat="42.98818" lon="-0.42289">
        <ele>504</ele>
        <time>2022-06-08 10:51:23</time>
      </trkpt>
      <trkpt lat="42.98818" lon="-0.42295">
        <ele>504.2</ele>
        <time>2022-06-08 10:51:24</time>
      </trkpt>
      <trkpt lat="42.98818" lon="-0.42301">
        <ele>504.4</ele>
        <time>2022-06-08 10:51:25</time>
      </trkpt>
      <trkpt lat="42.98818" lon="-0.42307">
        <ele>504.8</ele>
        <time>2022-06-08 10:51:26</time>
      </trkpt>
      <trkpt lat="42.98818" lon="-0.42313">
        <ele>505</ele>
        <time>2022-06-08 10:51:27</time>
      </trkpt>
      <trkpt lat="42.98818" lon="-0.42318">
        <ele>505.4</ele>
        <time>2022-06-08 10:51:28</time>
      </trkpt>
      <trkpt lat="42.98818" lon="-0.42323">
        <ele>505.6</ele>
        <time>2022-06-08 10:51:29</time>
      </trkpt>
      <trkpt lat="42.98818" lon="-0.42328">
        <ele>506.2</ele>
        <time>2022-06-08 10:51:30</time>
      </trkpt>
      <trkpt lat="42.98818" lon="-0.42333">
        <ele>506.4</ele>
        <time>2022-06-08 10:51:31</time>
      </trkpt>
      <trkpt lat="42.98818" lon="-0.42337">
        <ele>507</ele>
        <time>2022-06-08 10:51:32</time>
      </trkpt>
      <trkpt lat="42.98818" lon="-0.42342">
        <ele>507.4</ele>
        <time>2022-06-08 10:51:33</time>
      </trkpt>
      <trkpt lat="42.98817" lon="-0.42347">
        <ele>507.6</ele>
        <time>2022-06-08 10:51:34</time>
      </trkpt>
      <trkpt lat="42.98817" lon="-0.42352">
        <ele>508</ele>
        <time>2022-06-08 10:51:35</time>
      </trkpt>
      <trkpt lat="42.98817" lon="-0.42356">
        <ele>508.2</ele>
        <time>2022-06-08 10:51:36</time>
      </trkpt>
      <trkpt lat="42.98817" lon="-0.42361">
        <ele>508.4</ele>
        <time>2022-06-08 10:51:37</time>
      </trkpt>
      <trkpt lat="42.98817" lon="-0.42366">
        <ele>508.4</ele>
        <time>2022-06-08 10:51:38</time>
      </trkpt>
      <trkpt lat="42.98817" lon="-0.42371">
        <ele>508.8</ele>
        <time>2022-06-08 10:51:39</time>
      </trkpt>
      <trkpt lat="42.98817" lon="-0.42376">
        <ele>509</ele>
        <time>2022-06-08 10:51:40</time>
      </trkpt>
      <trkpt lat="42.98817" lon="-0.4238">
        <ele>509</ele>
        <time>2022-06-08 10:51:41</time>
      </trkpt>
      <trkpt lat="42.98817" lon="-0.42385">
        <ele>509.2</ele>
        <time>2022-06-08 10:51:42</time>
      </trkpt>
      <trkpt lat="42.98816" lon="-0.4239">
        <ele>509.4</ele>
        <time>2022-06-08 10:51:43</time>
      </trkpt>
      <trkpt lat="42.98816" lon="-0.42395">
        <ele>509.4</ele>
        <time>2022-06-08 10:51:44</time>
      </trkpt>
      <trkpt lat="42.98816" lon="-0.424">
        <ele>509.6</ele>
        <time>2022-06-08 10:51:45</time>
      </trkpt>
      <trkpt lat="42.98816" lon="-0.42405">
        <ele>510.4</ele>
        <time>2022-06-08 10:51:46</time>
      </trkpt>
      <trkpt lat="42.98816" lon="-0.4241">
        <ele>510.4</ele>
        <time>2022-06-08 10:51:47</time>
      </trkpt>
      <trkpt lat="42.98816" lon="-0.42415">
        <ele>510.8</ele>
        <time>2022-06-08 10:51:48</time>
      </trkpt>
      <trkpt lat="42.98815" lon="-0.42419">
        <ele>511</ele>
        <time>2022-06-08 10:51:49</time>
      </trkpt>
      <trkpt lat="42.98815" lon="-0.42424">
        <ele>511.2</ele>
        <time>2022-06-08 10:51:50</time>
      </trkpt>
      <trkpt lat="42.98815" lon="-0.42429">
        <ele>511.4</ele>
        <time>2022-06-08 10:51:51</time>
      </trkpt>
      <trkpt lat="42.98815" lon="-0.42434">
        <ele>511.6</ele>
        <time>2022-06-08 10:51:52</time>
      </trkpt>
      <trkpt lat="42.98816" lon="-0.42439">
        <ele>511.8</ele>
        <time>2022-06-08 10:51:53</time>
      </trkpt>
      <trkpt lat="42.98816" lon="-0.42444">
        <ele>511.8</ele>
        <time>2022-06-08 10:51:54</time>
      </trkpt>
      <trkpt lat="42.98815" lon="-0.42449">
        <ele>512</ele>
        <time>2022-06-08 10:51:55</time>
      </trkpt>
      <trkpt lat="42.98815" lon="-0.42454">
        <ele>512.4</ele>
        <time>2022-06-08 10:51:56</time>
      </trkpt>
      <trkpt lat="42.98816" lon="-0.42458">
        <ele>512.4</ele>
        <time>2022-06-08 10:51:57</time>
      </trkpt>
      <trkpt lat="42.98816" lon="-0.42463">
        <ele>512.8</ele>
        <time>2022-06-08 10:51:58</time>
      </trkpt>
      <trkpt lat="42.98816" lon="-0.42467">
        <ele>513.2</ele>
        <time>2022-06-08 10:51:59</time>
      </trkpt>
      <trkpt lat="42.98816" lon="-0.42472">
        <ele>513.4</ele>
        <time>2022-06-08 10:52:00</time>
      </trkpt>
      <trkpt lat="42.98816" lon="-0.42477">
        <ele>513.8</ele>
        <time>2022-06-08 10:52:01</time>
      </trkpt>
      <trkpt lat="42.98815" lon="-0.42482">
        <ele>513.8</ele>
        <time>2022-06-08 10:52:02</time>
      </trkpt>
      <trkpt lat="42.98816" lon="-0.42486">
        <ele>514.2</ele>
        <time>2022-06-08 10:52:03</time>
      </trkpt>
      <trkpt lat="42.98816" lon="-0.42491">
        <ele>514.2</ele>
        <time>2022-06-08 10:52:04</time>
      </trkpt>
      <trkpt lat="42.98816" lon="-0.42496">
        <ele>514.6</ele>
        <time>2022-06-08 10:52:05</time>
      </trkpt>
      <trkpt lat="42.98816" lon="-0.425">
        <ele>514.6</ele>
        <time>2022-06-08 10:52:06</time>
      </trkpt>
      <trkpt lat="42.98815" lon="-0.42505">
        <ele>514.8</ele>
        <time>2022-06-08 10:52:07</time>
      </trkpt>
      <trkpt lat="42.98815" lon="-0.4251">
        <ele>515</ele>
        <time>2022-06-08 10:52:08</time>
      </trkpt>
      <trkpt lat="42.98815" lon="-0.42514">
        <ele>515.2</ele>
        <time>2022-06-08 10:52:09</time>
      </trkpt>
      <trkpt lat="42.98815" lon="-0.42519">
        <ele>515.4</ele>
        <time>2022-06-08 10:52:10</time>
      </trkpt>
      <trkpt lat="42.98815" lon="-0.42523">
        <ele>515.6</ele>
        <time>2022-06-08 10:52:11</time>
      </trkpt>
      <trkpt lat="42.98815" lon="-0.42528">
        <ele>515.6</ele>
        <time>2022-06-08 10:52:12</time>
      </trkpt>
      <trkpt lat="42.98814" lon="-0.42533">
        <ele>516</ele>
        <time>2022-06-08 10:52:13</time>
      </trkpt>
      <trkpt lat="42.98814" lon="-0.42538">
        <ele>516.2</ele>
        <time>2022-06-08 10:52:14</time>
      </trkpt>
      <trkpt lat="42.98814" lon="-0.42543">
        <ele>516.6</ele>
        <time>2022-06-08 10:52:15</time>
      </trkpt>
      <trkpt lat="42.98813" lon="-0.42548">
        <ele>516.8</ele>
        <time>2022-06-08 10:52:16</time>
      </trkpt>
      <trkpt lat="42.98813" lon="-0.42553">
        <ele>516.8</ele>
        <time>2022-06-08 10:52:17</time>
      </trkpt>
      <trkpt lat="42.98813" lon="-0.42557">
        <ele>517</ele>
        <time>2022-06-08 10:52:18</time>
      </trkpt>
      <trkpt lat="42.98813" lon="-0.42562">
        <ele>517</ele>
        <time>2022-06-08 10:52:19</time>
      </trkpt>
      <trkpt lat="42.98814" lon="-0.42567">
        <ele>517.4</ele>
        <time>2022-06-08 10:52:20</time>
      </trkpt>
      <trkpt lat="42.98814" lon="-0.42571">
        <ele>517.6</ele>
        <time>2022-06-08 10:52:21</time>
      </trkpt>
      <trkpt lat="42.98814" lon="-0.42576">
        <ele>517.8</ele>
        <time>2022-06-08 10:52:22</time>
      </trkpt>
      <trkpt lat="42.98814" lon="-0.42581">
        <ele>518</ele>
        <time>2022-06-08 10:52:23</time>
      </trkpt>
      <trkpt lat="42.98814" lon="-0.42586">
        <ele>518.4</ele>
        <time>2022-06-08 10:52:24</time>
      </trkpt>
      <trkpt lat="42.98814" lon="-0.42591">
        <ele>518.6</ele>
        <time>2022-06-08 10:52:25</time>
      </trkpt>
      <trkpt lat="42.98813" lon="-0.42596">
        <ele>518.8</ele>
        <time>2022-06-08 10:52:26</time>
      </trkpt>
      <trkpt lat="42.98813" lon="-0.42601">
        <ele>518.8</ele>
        <time>2022-06-08 10:52:27</time>
      </trkpt>
      <trkpt lat="42.98813" lon="-0.42606">
        <ele>519.2</ele>
        <time>2022-06-08 10:52:28</time>
      </trkpt>
      <trkpt lat="42.98813" lon="-0.42611">
        <ele>519.4</ele>
        <time>2022-06-08 10:52:29</time>
      </trkpt>
      <trkpt lat="42.98813" lon="-0.42616">
        <ele>520</ele>
        <time>2022-06-08 10:52:30</time>
      </trkpt>
      <trkpt lat="42.98813" lon="-0.4262">
        <ele>520</ele>
        <time>2022-06-08 10:52:31</time>
      </trkpt>
      <trkpt lat="42.98814" lon="-0.42624">
        <ele>520.2</ele>
        <time>2022-06-08 10:52:32</time>
      </trkpt>
      <trkpt lat="42.98815" lon="-0.42628">
        <ele>520.4</ele>
        <time>2022-06-08 10:52:33</time>
      </trkpt>
      <trkpt lat="42.98816" lon="-0.42633">
        <ele>520.4</ele>
        <time>2022-06-08 10:52:34</time>
      </trkpt>
      <trkpt lat="42.98815" lon="-0.42637">
        <ele>520.8</ele>
        <time>2022-06-08 10:52:35</time>
      </trkpt>
      <trkpt lat="42.98814" lon="-0.4264">
        <ele>521</ele>
        <time>2022-06-08 10:52:36</time>
      </trkpt>
      <trkpt lat="42.98812" lon="-0.42643">
        <ele>521.2</ele>
        <time>2022-06-08 10:52:37</time>
      </trkpt>
      <trkpt lat="42.98809" lon="-0.42644">
        <ele>521.4</ele>
        <time>2022-06-08 10:52:38</time>
      </trkpt>
      <trkpt lat="42.98806" lon="-0.42645">
        <ele>521.6</ele>
        <time>2022-06-08 10:52:39</time>
      </trkpt>
      <trkpt lat="42.98803" lon="-0.42646">
        <ele>521.8</ele>
        <time>2022-06-08 10:52:40</time>
      </trkpt>
      <trkpt lat="42.98799" lon="-0.42649">
        <ele>521.8</ele>
        <time>2022-06-08 10:52:41</time>
      </trkpt>
      <trkpt lat="42.98796" lon="-0.42651">
        <ele>521.8</ele>
        <time>2022-06-08 10:52:42</time>
      </trkpt>
      <trkpt lat="42.98793" lon="-0.42654">
        <ele>522</ele>
        <time>2022-06-08 10:52:43</time>
      </trkpt>
      <trkpt lat="42.98789" lon="-0.42656">
        <ele>522</ele>
        <time>2022-06-08 10:52:44</time>
      </trkpt>
      <trkpt lat="42.98785" lon="-0.42659">
        <ele>522</ele>
        <time>2022-06-08 10:52:45</time>
      </trkpt>
      <trkpt lat="42.98782" lon="-0.42663">
        <ele>522.4</ele>
        <time>2022-06-08 10:52:46</time>
      </trkpt>
      <trkpt lat="42.98778" lon="-0.42666">
        <ele>522</ele>
        <time>2022-06-08 10:52:47</time>
      </trkpt>
      <trkpt lat="42.98776" lon="-0.42668">
        <ele>522.2</ele>
        <time>2022-06-08 10:52:48</time>
      </trkpt>
      <trkpt lat="42.98771" lon="-0.42672">
        <ele>522.2</ele>
        <time>2022-06-08 10:52:49</time>
      </trkpt>
      <trkpt lat="42.98768" lon="-0.42674">
        <ele>522.2</ele>
        <time>2022-06-08 10:52:50</time>
      </trkpt>
      <trkpt lat="42.98764" lon="-0.42677">
        <ele>522.6</ele>
        <time>2022-06-08 10:52:51</time>
      </trkpt>
      <trkpt lat="42.9876" lon="-0.4268">
        <ele>522.8</ele>
        <time>2022-06-08 10:52:52</time>
      </trkpt>
      <trkpt lat="42.98757" lon="-0.42682">
        <ele>522.8</ele>
        <time>2022-06-08 10:52:53</time>
      </trkpt>
      <trkpt lat="42.98754" lon="-0.42685">
        <ele>523.2</ele>
        <time>2022-06-08 10:52:54</time>
      </trkpt>
      <trkpt lat="42.98751" lon="-0.42687">
        <ele>523.4</ele>
        <time>2022-06-08 10:52:55</time>
      </trkpt>
      <trkpt lat="42.98748" lon="-0.42689">
        <ele>523.4</ele>
        <time>2022-06-08 10:52:56</time>
      </trkpt>
      <trkpt lat="42.98745" lon="-0.42692">
        <ele>523.6</ele>
        <time>2022-06-08 10:52:57</time>
      </trkpt>
      <trkpt lat="42.98742" lon="-0.42694">
        <ele>523.6</ele>
        <time>2022-06-08 10:52:58</time>
      </trkpt>
      <trkpt lat="42.9874" lon="-0.42696">
        <ele>523.6</ele>
        <time>2022-06-08 10:52:59</time>
      </trkpt>
      <trkpt lat="42.98737" lon="-0.42698">
        <ele>524</ele>
        <time>2022-06-08 10:53:00</time>
      </trkpt>
      <trkpt lat="42.98734" lon="-0.427">
        <ele>524.4</ele>
        <time>2022-06-08 10:53:01</time>
      </trkpt>
      <trkpt lat="42.98731" lon="-0.42702">
        <ele>525</ele>
        <time>2022-06-08 10:53:02</time>
      </trkpt>
      <trkpt lat="42.98728" lon="-0.42705">
        <ele>525.4</ele>
        <time>2022-06-08 10:53:03</time>
      </trkpt>
      <trkpt lat="42.98724" lon="-0.42707">
        <ele>525.6</ele>
        <time>2022-06-08 10:53:04</time>
      </trkpt>
      <trkpt lat="42.98721" lon="-0.4271">
        <ele>525.8</ele>
        <time>2022-06-08 10:53:05</time>
      </trkpt>
      <trkpt lat="42.98718" lon="-0.42713">
        <ele>526</ele>
        <time>2022-06-08 10:53:06</time>
      </trkpt>
      <trkpt lat="42.98715" lon="-0.42716">
        <ele>526</ele>
        <time>2022-06-08 10:53:07</time>
      </trkpt>
      <trkpt lat="42.98712" lon="-0.42718">
        <ele>526.2</ele>
        <time>2022-06-08 10:53:08</time>
      </trkpt>
      <trkpt lat="42.98709" lon="-0.42721">
        <ele>526.4</ele>
        <time>2022-06-08 10:53:09</time>
      </trkpt>
      <trkpt lat="42.98704" lon="-0.42724">
        <ele>526.6</ele>
        <time>2022-06-08 10:53:10</time>
      </trkpt>
      <trkpt lat="42.98702" lon="-0.42728">
        <ele>526.8</ele>
        <time>2022-06-08 10:53:11</time>
      </trkpt>
      <trkpt lat="42.98699" lon="-0.42731">
        <ele>527</ele>
        <time>2022-06-08 10:53:12</time>
      </trkpt>
      <trkpt lat="42.98697" lon="-0.42735">
        <ele>527.2</ele>
        <time>2022-06-08 10:53:13</time>
      </trkpt>
      <trkpt lat="42.98695" lon="-0.42739">
        <ele>527.2</ele>
        <time>2022-06-08 10:53:14</time>
      </trkpt>
      <trkpt lat="42.98693" lon="-0.42744">
        <ele>527.4</ele>
        <time>2022-06-08 10:53:15</time>
      </trkpt>
      <trkpt lat="42.98692" lon="-0.42749">
        <ele>527.6</ele>
        <time>2022-06-08 10:53:16</time>
      </trkpt>
      <trkpt lat="42.98691" lon="-0.42754">
        <ele>527.8</ele>
        <time>2022-06-08 10:53:17</time>
      </trkpt>
      <trkpt lat="42.98689" lon="-0.42759">
        <ele>528</ele>
        <time>2022-06-08 10:53:18</time>
      </trkpt>
      <trkpt lat="42.98688" lon="-0.42763">
        <ele>528</ele>
        <time>2022-06-08 10:53:19</time>
      </trkpt>
      <trkpt lat="42.98687" lon="-0.42768">
        <ele>528.2</ele>
        <time>2022-06-08 10:53:20</time>
      </trkpt>
      <trkpt lat="42.98686" lon="-0.42773">
        <ele>528.2</ele>
        <time>2022-06-08 10:53:21</time>
      </trkpt>
      <trkpt lat="42.98684" lon="-0.42778">
        <ele>528.4</ele>
        <time>2022-06-08 10:53:22</time>
      </trkpt>
      <trkpt lat="42.98681" lon="-0.42781">
        <ele>528.6</ele>
        <time>2022-06-08 10:53:23</time>
      </trkpt>
      <trkpt lat="42.98678" lon="-0.42783">
        <ele>529</ele>
        <time>2022-06-08 10:53:24</time>
      </trkpt>
      <trkpt lat="42.98675" lon="-0.42784">
        <ele>529</ele>
        <time>2022-06-08 10:53:25</time>
      </trkpt>
      <trkpt lat="42.98671" lon="-0.42785">
        <ele>529.4</ele>
        <time>2022-06-08 10:53:26</time>
      </trkpt>
      <trkpt lat="42.98667" lon="-0.42787">
        <ele>529.4</ele>
        <time>2022-06-08 10:53:27</time>
      </trkpt>
      <trkpt lat="42.98663" lon="-0.42789">
        <ele>529.4</ele>
        <time>2022-06-08 10:53:28</time>
      </trkpt>
      <trkpt lat="42.98658" lon="-0.42791">
        <ele>529.6</ele>
        <time>2022-06-08 10:53:29</time>
      </trkpt>
      <trkpt lat="42.98653" lon="-0.42793">
        <ele>529.6</ele>
        <time>2022-06-08 10:53:30</time>
      </trkpt>
      <trkpt lat="42.98648" lon="-0.42795">
        <ele>529.6</ele>
        <time>2022-06-08 10:53:31</time>
      </trkpt>
      <trkpt lat="42.98642" lon="-0.42797">
        <ele>529.6</ele>
        <time>2022-06-08 10:53:32</time>
      </trkpt>
      <trkpt lat="42.98637" lon="-0.42799">
        <ele>529.4</ele>
        <time>2022-06-08 10:53:33</time>
      </trkpt>
      <trkpt lat="42.98631" lon="-0.42801">
        <ele>529.4</ele>
        <time>2022-06-08 10:53:34</time>
      </trkpt>
      <trkpt lat="42.98625" lon="-0.42803">
        <ele>529.2</ele>
        <time>2022-06-08 10:53:35</time>
      </trkpt>
      <trkpt lat="42.98618" lon="-0.42805">
        <ele>529</ele>
        <time>2022-06-08 10:53:36</time>
      </trkpt>
      <trkpt lat="42.98611" lon="-0.42807">
        <ele>528.6</ele>
        <time>2022-06-08 10:53:37</time>
      </trkpt>
      <trkpt lat="42.98605" lon="-0.42809">
        <ele>528.2</ele>
        <time>2022-06-08 10:53:38</time>
      </trkpt>
      <trkpt lat="42.98598" lon="-0.42811">
        <ele>527.4</ele>
        <time>2022-06-08 10:53:39</time>
      </trkpt>
      <trkpt lat="42.98591" lon="-0.42813">
        <ele>527.2</ele>
        <time>2022-06-08 10:53:40</time>
      </trkpt>
      <trkpt lat="42.98584" lon="-0.42815">
        <ele>526.8</ele>
        <time>2022-06-08 10:53:41</time>
      </trkpt>
      <trkpt lat="42.98578" lon="-0.42816">
        <ele>526.8</ele>
        <time>2022-06-08 10:53:42</time>
      </trkpt>
      <trkpt lat="42.98575" lon="-0.42813">
        <ele>526.4</ele>
        <time>2022-06-08 10:53:43</time>
      </trkpt>
      <trkpt lat="42.98571" lon="-0.42806">
        <ele>526.4</ele>
        <time>2022-06-08 10:53:44</time>
      </trkpt>
      <trkpt lat="42.9857" lon="-0.42799">
        <ele>526.4</ele>
        <time>2022-06-08 10:53:45</time>
      </trkpt>
      <trkpt lat="42.98568" lon="-0.42792">
        <ele>526</ele>
        <time>2022-06-08 10:53:46</time>
      </trkpt>
      <trkpt lat="42.98567" lon="-0.42785">
        <ele>525.8</ele>
        <time>2022-06-08 10:53:47</time>
      </trkpt>
      <trkpt lat="42.98565" lon="-0.42776">
        <ele>525.4</ele>
        <time>2022-06-08 10:53:48</time>
      </trkpt>
      <trkpt lat="42.98564" lon="-0.42767">
        <ele>525.6</ele>
        <time>2022-06-08 10:53:49</time>
      </trkpt>
      <trkpt lat="42.98562" lon="-0.4276">
        <ele>525.2</ele>
        <time>2022-06-08 10:53:50</time>
      </trkpt>
      <trkpt lat="42.98561" lon="-0.42753">
        <ele>524.8</ele>
        <time>2022-06-08 10:53:51</time>
      </trkpt>
      <trkpt lat="42.9856" lon="-0.42746">
        <ele>524.4</ele>
        <time>2022-06-08 10:53:52</time>
      </trkpt>
      <trkpt lat="42.98558" lon="-0.42739">
        <ele>524.2</ele>
        <time>2022-06-08 10:53:53</time>
      </trkpt>
      <trkpt lat="42.98555" lon="-0.42735">
        <ele>524</ele>
        <time>2022-06-08 10:53:54</time>
      </trkpt>
      <trkpt lat="42.98551" lon="-0.42732">
        <ele>524</ele>
        <time>2022-06-08 10:53:55</time>
      </trkpt>
      <trkpt lat="42.98547" lon="-0.42731">
        <ele>524</ele>
        <time>2022-06-08 10:53:56</time>
      </trkpt>
      <trkpt lat="42.98543" lon="-0.42731">
        <ele>524</ele>
        <time>2022-06-08 10:53:57</time>
      </trkpt>
      <trkpt lat="42.98538" lon="-0.42734">
        <ele>523.8</ele>
        <time>2022-06-08 10:53:58</time>
      </trkpt>
      <trkpt lat="42.98532" lon="-0.42737">
        <ele>523.8</ele>
        <time>2022-06-08 10:53:59</time>
      </trkpt>
      <trkpt lat="42.98527" lon="-0.42739">
        <ele>523.8</ele>
        <time>2022-06-08 10:54:00</time>
      </trkpt>
      <trkpt lat="42.98523" lon="-0.42741">
        <ele>523.8</ele>
        <time>2022-06-08 10:54:01</time>
      </trkpt>
      <trkpt lat="42.98518" lon="-0.42742">
        <ele>523.8</ele>
        <time>2022-06-08 10:54:02</time>
      </trkpt>
      <trkpt lat="42.98514" lon="-0.42744">
        <ele>523.6</ele>
        <time>2022-06-08 10:54:03</time>
      </trkpt>
      <trkpt lat="42.9851" lon="-0.42746">
        <ele>523.4</ele>
        <time>2022-06-08 10:54:04</time>
      </trkpt>
      <trkpt lat="42.98505" lon="-0.42748">
        <ele>523.4</ele>
        <time>2022-06-08 10:54:05</time>
      </trkpt>
      <trkpt lat="42.98501" lon="-0.4275">
        <ele>523.2</ele>
        <time>2022-06-08 10:54:06</time>
      </trkpt>
      <trkpt lat="42.98496" lon="-0.42752">
        <ele>523.2</ele>
        <time>2022-06-08 10:54:07</time>
      </trkpt>
      <trkpt lat="42.98491" lon="-0.42754">
        <ele>523</ele>
        <time>2022-06-08 10:54:08</time>
      </trkpt>
      <trkpt lat="42.98486" lon="-0.42756">
        <ele>523</ele>
        <time>2022-06-08 10:54:09</time>
      </trkpt>
      <trkpt lat="42.98481" lon="-0.42758">
        <ele>523</ele>
        <time>2022-06-08 10:54:10</time>
      </trkpt>
      <trkpt lat="42.98475" lon="-0.4276">
        <ele>523</ele>
        <time>2022-06-08 10:54:11</time>
      </trkpt>
      <trkpt lat="42.9847" lon="-0.42762">
        <ele>522.8</ele>
        <time>2022-06-08 10:54:12</time>
      </trkpt>
      <trkpt lat="42.98464" lon="-0.42764">
        <ele>522.8</ele>
        <time>2022-06-08 10:54:13</time>
      </trkpt>
      <trkpt lat="42.98458" lon="-0.42767">
        <ele>522.6</ele>
        <time>2022-06-08 10:54:14</time>
      </trkpt>
      <trkpt lat="42.98453" lon="-0.42769">
        <ele>522.4</ele>
        <time>2022-06-08 10:54:15</time>
      </trkpt>
      <trkpt lat="42.98447" lon="-0.42772">
        <ele>522.2</ele>
        <time>2022-06-08 10:54:16</time>
      </trkpt>
      <trkpt lat="42.98442" lon="-0.42774">
        <ele>522</ele>
        <time>2022-06-08 10:54:17</time>
      </trkpt>
      <trkpt lat="42.98436" lon="-0.42777">
        <ele>522</ele>
        <time>2022-06-08 10:54:18</time>
      </trkpt>
      <trkpt lat="42.9843" lon="-0.42779">
        <ele>521.8</ele>
        <time>2022-06-08 10:54:19</time>
      </trkpt>
      <trkpt lat="42.98425" lon="-0.42781">
        <ele>521.8</ele>
        <time>2022-06-08 10:54:20</time>
      </trkpt>
      <trkpt lat="42.98419" lon="-0.42783">
        <ele>521.8</ele>
        <time>2022-06-08 10:54:21</time>
      </trkpt>
      <trkpt lat="42.98415" lon="-0.42785">
        <ele>521.8</ele>
        <time>2022-06-08 10:54:22</time>
      </trkpt>
      <trkpt lat="42.98408" lon="-0.42788">
        <ele>521.8</ele>
        <time>2022-06-08 10:54:23</time>
      </trkpt>
      <trkpt lat="42.98402" lon="-0.42791">
        <ele>521.8</ele>
        <time>2022-06-08 10:54:24</time>
      </trkpt>
      <trkpt lat="42.98396" lon="-0.42793">
        <ele>521.8</ele>
        <time>2022-06-08 10:54:25</time>
      </trkpt>
      <trkpt lat="42.9839" lon="-0.42795">
        <ele>521.8</ele>
        <time>2022-06-08 10:54:26</time>
      </trkpt>
      <trkpt lat="42.98384" lon="-0.42797">
        <ele>521.8</ele>
        <time>2022-06-08 10:54:27</time>
      </trkpt>
      <trkpt lat="42.98377" lon="-0.42798">
        <ele>521.8</ele>
        <time>2022-06-08 10:54:28</time>
      </trkpt>
      <trkpt lat="42.98371" lon="-0.42798">
        <ele>521.8</ele>
        <time>2022-06-08 10:54:29</time>
      </trkpt>
      <trkpt lat="42.98365" lon="-0.42798">
        <ele>521.8</ele>
        <time>2022-06-08 10:54:30</time>
      </trkpt>
      <trkpt lat="42.98358" lon="-0.42797">
        <ele>521.8</ele>
        <time>2022-06-08 10:54:31</time>
      </trkpt>
      <trkpt lat="42.98352" lon="-0.42794">
        <ele>521.8</ele>
        <time>2022-06-08 10:54:32</time>
      </trkpt>
      <trkpt lat="42.98346" lon="-0.4279">
        <ele>521.6</ele>
        <time>2022-06-08 10:54:33</time>
      </trkpt>
      <trkpt lat="42.98341" lon="-0.42785">
        <ele>521.4</ele>
        <time>2022-06-08 10:54:34</time>
      </trkpt>
      <trkpt lat="42.98335" lon="-0.42779">
        <ele>521</ele>
        <time>2022-06-08 10:54:35</time>
      </trkpt>
      <trkpt lat="42.9833" lon="-0.42773">
        <ele>521</ele>
        <time>2022-06-08 10:54:36</time>
      </trkpt>
      <trkpt lat="42.98325" lon="-0.42766">
        <ele>520.2</ele>
        <time>2022-06-08 10:54:37</time>
      </trkpt>
      <trkpt lat="42.98319" lon="-0.42759">
        <ele>519.8</ele>
        <time>2022-06-08 10:54:38</time>
      </trkpt>
      <trkpt lat="42.98313" lon="-0.42751">
        <ele>519.2</ele>
        <time>2022-06-08 10:54:39</time>
      </trkpt>
      <trkpt lat="42.98307" lon="-0.42744">
        <ele>519</ele>
        <time>2022-06-08 10:54:40</time>
      </trkpt>
      <trkpt lat="42.98301" lon="-0.42737">
        <ele>518.8</ele>
        <time>2022-06-08 10:54:41</time>
      </trkpt>
      <trkpt lat="42.98295" lon="-0.4273">
        <ele>518.6</ele>
        <time>2022-06-08 10:54:42</time>
      </trkpt>
      <trkpt lat="42.98289" lon="-0.42723">
        <ele>518.4</ele>
        <time>2022-06-08 10:54:43</time>
      </trkpt>
      <trkpt lat="42.98282" lon="-0.42715">
        <ele>517.6</ele>
        <time>2022-06-08 10:54:44</time>
      </trkpt>
      <trkpt lat="42.98276" lon="-0.42708">
        <ele>517.2</ele>
        <time>2022-06-08 10:54:45</time>
      </trkpt>
      <trkpt lat="42.9827" lon="-0.42699">
        <ele>516.4</ele>
        <time>2022-06-08 10:54:46</time>
      </trkpt>
      <trkpt lat="42.98265" lon="-0.4269">
        <ele>516.2</ele>
        <time>2022-06-08 10:54:47</time>
      </trkpt>
      <trkpt lat="42.9826" lon="-0.42681">
        <ele>515.8</ele>
        <time>2022-06-08 10:54:48</time>
      </trkpt>
      <trkpt lat="42.98255" lon="-0.42671">
        <ele>515.8</ele>
        <time>2022-06-08 10:54:49</time>
      </trkpt>
      <trkpt lat="42.98251" lon="-0.42661">
        <ele>515.4</ele>
        <time>2022-06-08 10:54:50</time>
      </trkpt>
      <trkpt lat="42.98247" lon="-0.42651">
        <ele>515.2</ele>
        <time>2022-06-08 10:54:51</time>
      </trkpt>
      <trkpt lat="42.98242" lon="-0.42641">
        <ele>514.8</ele>
        <time>2022-06-08 10:54:52</time>
      </trkpt>
      <trkpt lat="42.98238" lon="-0.42631">
        <ele>514.6</ele>
        <time>2022-06-08 10:54:53</time>
      </trkpt>
      <trkpt lat="42.98234" lon="-0.42622">
        <ele>514.4</ele>
        <time>2022-06-08 10:54:54</time>
      </trkpt>
      <trkpt lat="42.98229" lon="-0.42612">
        <ele>514</ele>
        <time>2022-06-08 10:54:55</time>
      </trkpt>
      <trkpt lat="42.98225" lon="-0.42602">
        <ele>513.6</ele>
        <time>2022-06-08 10:54:56</time>
      </trkpt>
      <trkpt lat="42.98221" lon="-0.42593">
        <ele>513.6</ele>
        <time>2022-06-08 10:54:57</time>
      </trkpt>
      <trkpt lat="42.98218" lon="-0.42583">
        <ele>513.4</ele>
        <time>2022-06-08 10:54:58</time>
      </trkpt>
      <trkpt lat="42.98214" lon="-0.42573">
        <ele>513.2</ele>
        <time>2022-06-08 10:54:59</time>
      </trkpt>
      <trkpt lat="42.98211" lon="-0.42564">
        <ele>513.2</ele>
        <time>2022-06-08 10:55:00</time>
      </trkpt>
      <trkpt lat="42.98208" lon="-0.42555">
        <ele>513</ele>
        <time>2022-06-08 10:55:01</time>
      </trkpt>
      <trkpt lat="42.98205" lon="-0.42545">
        <ele>512.8</ele>
        <time>2022-06-08 10:55:02</time>
      </trkpt>
      <trkpt lat="42.98204" lon="-0.42535">
        <ele>512.6</ele>
        <time>2022-06-08 10:55:03</time>
      </trkpt>
      <trkpt lat="42.98202" lon="-0.42524">
        <ele>512.6</ele>
        <time>2022-06-08 10:55:04</time>
      </trkpt>
      <trkpt lat="42.98201" lon="-0.42513">
        <ele>512.2</ele>
        <time>2022-06-08 10:55:05</time>
      </trkpt>
      <trkpt lat="42.98199" lon="-0.42503">
        <ele>512</ele>
        <time>2022-06-08 10:55:06</time>
      </trkpt>
      <trkpt lat="42.98198" lon="-0.42492">
        <ele>511.8</ele>
        <time>2022-06-08 10:55:07</time>
      </trkpt>
      <trkpt lat="42.98197" lon="-0.42481">
        <ele>511.6</ele>
        <time>2022-06-08 10:55:08</time>
      </trkpt>
      <trkpt lat="42.98196" lon="-0.4247">
        <ele>511.4</ele>
        <time>2022-06-08 10:55:09</time>
      </trkpt>
      <trkpt lat="42.98194" lon="-0.4246">
        <ele>511.2</ele>
        <time>2022-06-08 10:55:10</time>
      </trkpt>
      <trkpt lat="42.98192" lon="-0.4245">
        <ele>511</ele>
        <time>2022-06-08 10:55:11</time>
      </trkpt>
      <trkpt lat="42.98191" lon="-0.4244">
        <ele>510.8</ele>
        <time>2022-06-08 10:55:12</time>
      </trkpt>
      <trkpt lat="42.9819" lon="-0.42429">
        <ele>510.6</ele>
        <time>2022-06-08 10:55:13</time>
      </trkpt>
      <trkpt lat="42.98188" lon="-0.42419">
        <ele>510.4</ele>
        <time>2022-06-08 10:55:14</time>
      </trkpt>
      <trkpt lat="42.98186" lon="-0.42409">
        <ele>510.2</ele>
        <time>2022-06-08 10:55:15</time>
      </trkpt>
      <trkpt lat="42.98185" lon="-0.42399">
        <ele>510</ele>
        <time>2022-06-08 10:55:16</time>
      </trkpt>
      <trkpt lat="42.98184" lon="-0.42388">
        <ele>509.8</ele>
        <time>2022-06-08 10:55:17</time>
      </trkpt>
      <trkpt lat="42.98183" lon="-0.42378">
        <ele>509.8</ele>
        <time>2022-06-08 10:55:18</time>
      </trkpt>
      <trkpt lat="42.98182" lon="-0.42368">
        <ele>509.6</ele>
        <time>2022-06-08 10:55:19</time>
      </trkpt>
      <trkpt lat="42.98181" lon="-0.42357">
        <ele>509.4</ele>
        <time>2022-06-08 10:55:20</time>
      </trkpt>
      <trkpt lat="42.9818" lon="-0.42346">
        <ele>509.2</ele>
        <time>2022-06-08 10:55:21</time>
      </trkpt>
      <trkpt lat="42.98179" lon="-0.42335">
        <ele>509</ele>
        <time>2022-06-08 10:55:22</time>
      </trkpt>
      <trkpt lat="42.98178" lon="-0.42324">
        <ele>508.8</ele>
        <time>2022-06-08 10:55:23</time>
      </trkpt>
      <trkpt lat="42.98177" lon="-0.42312">
        <ele>508.6</ele>
        <time>2022-06-08 10:55:24</time>
      </trkpt>
      <trkpt lat="42.98175" lon="-0.423">
        <ele>508.6</ele>
        <time>2022-06-08 10:55:25</time>
      </trkpt>
      <trkpt lat="42.98172" lon="-0.42289">
        <ele>508.4</ele>
        <time>2022-06-08 10:55:26</time>
      </trkpt>
      <trkpt lat="42.9817" lon="-0.42277">
        <ele>508.4</ele>
        <time>2022-06-08 10:55:27</time>
      </trkpt>
      <trkpt lat="42.98167" lon="-0.42265">
        <ele>508.2</ele>
        <time>2022-06-08 10:55:28</time>
      </trkpt>
      <trkpt lat="42.98165" lon="-0.42254">
        <ele>508</ele>
        <time>2022-06-08 10:55:29</time>
      </trkpt>
      <trkpt lat="42.98162" lon="-0.42244">
        <ele>507.8</ele>
        <time>2022-06-08 10:55:30</time>
      </trkpt>
      <trkpt lat="42.9816" lon="-0.42233">
        <ele>507.8</ele>
        <time>2022-06-08 10:55:31</time>
      </trkpt>
      <trkpt lat="42.98158" lon="-0.42223">
        <ele>507.8</ele>
        <time>2022-06-08 10:55:32</time>
      </trkpt>
      <trkpt lat="42.98156" lon="-0.42213">
        <ele>507.6</ele>
        <time>2022-06-08 10:55:33</time>
      </trkpt>
      <trkpt lat="42.98153" lon="-0.42202">
        <ele>507.4</ele>
        <time>2022-06-08 10:55:34</time>
      </trkpt>
      <trkpt lat="42.98151" lon="-0.42192">
        <ele>507.4</ele>
        <time>2022-06-08 10:55:35</time>
      </trkpt>
      <trkpt lat="42.98148" lon="-0.42182">
        <ele>507.2</ele>
        <time>2022-06-08 10:55:36</time>
      </trkpt>
      <trkpt lat="42.98146" lon="-0.42172">
        <ele>507.2</ele>
        <time>2022-06-08 10:55:37</time>
      </trkpt>
      <trkpt lat="42.98144" lon="-0.42163">
        <ele>507.2</ele>
        <time>2022-06-08 10:55:38</time>
      </trkpt>
      <trkpt lat="42.98141" lon="-0.42153">
        <ele>507.2</ele>
        <time>2022-06-08 10:55:39</time>
      </trkpt>
      <trkpt lat="42.98139" lon="-0.42143">
        <ele>507.2</ele>
        <time>2022-06-08 10:55:40</time>
      </trkpt>
      <trkpt lat="42.98137" lon="-0.42134">
        <ele>507</ele>
        <time>2022-06-08 10:55:41</time>
      </trkpt>
      <trkpt lat="42.98134" lon="-0.42124">
        <ele>507</ele>
        <time>2022-06-08 10:55:42</time>
      </trkpt>
      <trkpt lat="42.98131" lon="-0.42115">
        <ele>507</ele>
        <time>2022-06-08 10:55:43</time>
      </trkpt>
      <trkpt lat="42.98127" lon="-0.42107">
        <ele>507</ele>
        <time>2022-06-08 10:55:44</time>
      </trkpt>
      <trkpt lat="42.98122" lon="-0.421">
        <ele>507</ele>
        <time>2022-06-08 10:55:45</time>
      </trkpt>
      <trkpt lat="42.98117" lon="-0.42094">
        <ele>507</ele>
        <time>2022-06-08 10:55:46</time>
      </trkpt>
      <trkpt lat="42.98112" lon="-0.42089">
        <ele>507</ele>
        <time>2022-06-08 10:55:47</time>
      </trkpt>
      <trkpt lat="42.98105" lon="-0.42085">
        <ele>507</ele>
        <time>2022-06-08 10:55:48</time>
      </trkpt>
      <trkpt lat="42.98099" lon="-0.42083">
        <ele>507</ele>
        <time>2022-06-08 10:55:49</time>
      </trkpt>
      <trkpt lat="42.98092" lon="-0.42081">
        <ele>507</ele>
        <time>2022-06-08 10:55:50</time>
      </trkpt>
      <trkpt lat="42.98086" lon="-0.4208">
        <ele>507.2</ele>
        <time>2022-06-08 10:55:51</time>
      </trkpt>
      <trkpt lat="42.98079" lon="-0.4208">
        <ele>507.2</ele>
        <time>2022-06-08 10:55:52</time>
      </trkpt>
      <trkpt lat="42.98072" lon="-0.42079">
        <ele>507.2</ele>
        <time>2022-06-08 10:55:53</time>
      </trkpt>
      <trkpt lat="42.98066" lon="-0.42078">
        <ele>507.2</ele>
        <time>2022-06-08 10:55:54</time>
      </trkpt>
      <trkpt lat="42.9806" lon="-0.42078">
        <ele>507.4</ele>
        <time>2022-06-08 10:55:55</time>
      </trkpt>
      <trkpt lat="42.98053" lon="-0.42077">
        <ele>507.4</ele>
        <time>2022-06-08 10:55:56</time>
      </trkpt>
      <trkpt lat="42.98047" lon="-0.42076">
        <ele>507.6</ele>
        <time>2022-06-08 10:55:57</time>
      </trkpt>
      <trkpt lat="42.98041" lon="-0.42075">
        <ele>507.6</ele>
        <time>2022-06-08 10:55:58</time>
      </trkpt>
      <trkpt lat="42.98036" lon="-0.42074">
        <ele>507.8</ele>
        <time>2022-06-08 10:55:59</time>
      </trkpt>
      <trkpt lat="42.9803" lon="-0.42073">
        <ele>508</ele>
        <time>2022-06-08 10:56:00</time>
      </trkpt>
      <trkpt lat="42.98024" lon="-0.42072">
        <ele>508.2</ele>
        <time>2022-06-08 10:56:01</time>
      </trkpt>
      <trkpt lat="42.98018" lon="-0.42072">
        <ele>508.4</ele>
        <time>2022-06-08 10:56:02</time>
      </trkpt>
      <trkpt lat="42.98013" lon="-0.42071">
        <ele>508.8</ele>
        <time>2022-06-08 10:56:03</time>
      </trkpt>
      <trkpt lat="42.98007" lon="-0.4207">
        <ele>509</ele>
        <time>2022-06-08 10:56:04</time>
      </trkpt>
      <trkpt lat="42.98001" lon="-0.42069">
        <ele>509.2</ele>
        <time>2022-06-08 10:56:05</time>
      </trkpt>
      <trkpt lat="42.97996" lon="-0.42068">
        <ele>509.4</ele>
        <time>2022-06-08 10:56:06</time>
      </trkpt>
      <trkpt lat="42.9799" lon="-0.42067">
        <ele>509.6</ele>
        <time>2022-06-08 10:56:07</time>
      </trkpt>
      <trkpt lat="42.97984" lon="-0.42066">
        <ele>509.6</ele>
        <time>2022-06-08 10:56:08</time>
      </trkpt>
      <trkpt lat="42.97978" lon="-0.42065">
        <ele>510</ele>
        <time>2022-06-08 10:56:09</time>
      </trkpt>
      <trkpt lat="42.97972" lon="-0.42064">
        <ele>510</ele>
        <time>2022-06-08 10:56:10</time>
      </trkpt>
      <trkpt lat="42.97966" lon="-0.42063">
        <ele>510.2</ele>
        <time>2022-06-08 10:56:11</time>
      </trkpt>
      <trkpt lat="42.9796" lon="-0.42062">
        <ele>510.2</ele>
        <time>2022-06-08 10:56:12</time>
      </trkpt>
      <trkpt lat="42.97954" lon="-0.42061">
        <ele>510.2</ele>
        <time>2022-06-08 10:56:13</time>
      </trkpt>
      <trkpt lat="42.97949" lon="-0.4206">
        <ele>510.4</ele>
        <time>2022-06-08 10:56:14</time>
      </trkpt>
      <trkpt lat="42.97943" lon="-0.42057">
        <ele>510.4</ele>
        <time>2022-06-08 10:56:15</time>
      </trkpt>
      <trkpt lat="42.97938" lon="-0.42054">
        <ele>510.6</ele>
        <time>2022-06-08 10:56:16</time>
      </trkpt>
      <trkpt lat="42.97933" lon="-0.4205">
        <ele>510.6</ele>
        <time>2022-06-08 10:56:17</time>
      </trkpt>
      <trkpt lat="42.97928" lon="-0.42046">
        <ele>510.6</ele>
        <time>2022-06-08 10:56:18</time>
      </trkpt>
      <trkpt lat="42.97924" lon="-0.42041">
        <ele>510.8</ele>
        <time>2022-06-08 10:56:19</time>
      </trkpt>
      <trkpt lat="42.9792" lon="-0.42035">
        <ele>510.8</ele>
        <time>2022-06-08 10:56:20</time>
      </trkpt>
      <trkpt lat="42.97916" lon="-0.42029">
        <ele>511</ele>
        <time>2022-06-08 10:56:21</time>
      </trkpt>
      <trkpt lat="42.97913" lon="-0.42023">
        <ele>511</ele>
        <time>2022-06-08 10:56:22</time>
      </trkpt>
      <trkpt lat="42.97911" lon="-0.42017">
        <ele>511</ele>
        <time>2022-06-08 10:56:23</time>
      </trkpt>
      <trkpt lat="42.97908" lon="-0.42011">
        <ele>511</ele>
        <time>2022-06-08 10:56:24</time>
      </trkpt>
      <trkpt lat="42.97906" lon="-0.42005">
        <ele>511</ele>
        <time>2022-06-08 10:56:25</time>
      </trkpt>
      <trkpt lat="42.97904" lon="-0.41998">
        <ele>511.4</ele>
        <time>2022-06-08 10:56:26</time>
      </trkpt>
      <trkpt lat="42.97902" lon="-0.41991">
        <ele>511.6</ele>
        <time>2022-06-08 10:56:27</time>
      </trkpt>
      <trkpt lat="42.979" lon="-0.41984">
        <ele>511.8</ele>
        <time>2022-06-08 10:56:28</time>
      </trkpt>
      <trkpt lat="42.97898" lon="-0.41976">
        <ele>511.8</ele>
        <time>2022-06-08 10:56:29</time>
      </trkpt>
      <trkpt lat="42.97897" lon="-0.4197">
        <ele>512</ele>
        <time>2022-06-08 10:56:30</time>
      </trkpt>
      <trkpt lat="42.97896" lon="-0.41963">
        <ele>512</ele>
        <time>2022-06-08 10:56:31</time>
      </trkpt>
      <trkpt lat="42.97895" lon="-0.41956">
        <ele>512.2</ele>
        <time>2022-06-08 10:56:32</time>
      </trkpt>
      <trkpt lat="42.97894" lon="-0.4195">
        <ele>512.4</ele>
        <time>2022-06-08 10:56:33</time>
      </trkpt>
      <trkpt lat="42.97893" lon="-0.41943">
        <ele>512.4</ele>
        <time>2022-06-08 10:56:34</time>
      </trkpt>
      <trkpt lat="42.97893" lon="-0.41937">
        <ele>513.2</ele>
        <time>2022-06-08 10:56:35</time>
      </trkpt>
      <trkpt lat="42.97892" lon="-0.41931">
        <ele>513.4</ele>
        <time>2022-06-08 10:56:36</time>
      </trkpt>
      <trkpt lat="42.97891" lon="-0.41924">
        <ele>514.2</ele>
        <time>2022-06-08 10:56:37</time>
      </trkpt>
      <trkpt lat="42.97891" lon="-0.41918">
        <ele>514.6</ele>
        <time>2022-06-08 10:56:38</time>
      </trkpt>
      <trkpt lat="42.9789" lon="-0.41912">
        <ele>515</ele>
        <time>2022-06-08 10:56:39</time>
      </trkpt>
      <trkpt lat="42.97889" lon="-0.41907">
        <ele>515.2</ele>
        <time>2022-06-08 10:56:40</time>
      </trkpt>
      <trkpt lat="42.97888" lon="-0.41901">
        <ele>515.2</ele>
        <time>2022-06-08 10:56:41</time>
      </trkpt>
      <trkpt lat="42.97886" lon="-0.41897">
        <ele>515.2</ele>
        <time>2022-06-08 10:56:42</time>
      </trkpt>
      <trkpt lat="42.97883" lon="-0.41893">
        <ele>515.2</ele>
        <time>2022-06-08 10:56:43</time>
      </trkpt>
      <trkpt lat="42.9788" lon="-0.4189">
        <ele>515.2</ele>
        <time>2022-06-08 10:56:44</time>
      </trkpt>
      <trkpt lat="42.97877" lon="-0.41887">
        <ele>515.4</ele>
        <time>2022-06-08 10:56:45</time>
      </trkpt>
      <trkpt lat="42.97874" lon="-0.41884">
        <ele>515.6</ele>
        <time>2022-06-08 10:56:46</time>
      </trkpt>
      <trkpt lat="42.9787" lon="-0.41883">
        <ele>515.6</ele>
        <time>2022-06-08 10:56:47</time>
      </trkpt>
      <trkpt lat="42.97867" lon="-0.41882">
        <ele>515.8</ele>
        <time>2022-06-08 10:56:48</time>
      </trkpt>
      <trkpt lat="42.97864" lon="-0.41881">
        <ele>516</ele>
        <time>2022-06-08 10:56:49</time>
      </trkpt>
      <trkpt lat="42.97861" lon="-0.41881">
        <ele>516.2</ele>
        <time>2022-06-08 10:56:50</time>
      </trkpt>
      <trkpt lat="42.97858" lon="-0.41882">
        <ele>516.4</ele>
        <time>2022-06-08 10:56:51</time>
      </trkpt>
      <trkpt lat="42.97855" lon="-0.41883">
        <ele>516.8</ele>
        <time>2022-06-08 10:56:52</time>
      </trkpt>
      <trkpt lat="42.97852" lon="-0.41885">
        <ele>517</ele>
        <time>2022-06-08 10:56:53</time>
      </trkpt>
      <trkpt lat="42.97849" lon="-0.41888">
        <ele>517.4</ele>
        <time>2022-06-08 10:56:54</time>
      </trkpt>
      <trkpt lat="42.97847" lon="-0.41891">
        <ele>517.8</ele>
        <time>2022-06-08 10:56:55</time>
      </trkpt>
      <trkpt lat="42.97844" lon="-0.41894">
        <ele>518</ele>
        <time>2022-06-08 10:56:56</time>
      </trkpt>
      <trkpt lat="42.97842" lon="-0.41897">
        <ele>518.6</ele>
        <time>2022-06-08 10:56:57</time>
      </trkpt>
      <trkpt lat="42.9784" lon="-0.41901">
        <ele>518.6</ele>
        <time>2022-06-08 10:56:58</time>
      </trkpt>
      <trkpt lat="42.97839" lon="-0.41904">
        <ele>519</ele>
        <time>2022-06-08 10:56:59</time>
      </trkpt>
      <trkpt lat="42.97837" lon="-0.41907">
        <ele>519</ele>
        <time>2022-06-08 10:57:00</time>
      </trkpt>
      <trkpt lat="42.97836" lon="-0.41911">
        <ele>519.4</ele>
        <time>2022-06-08 10:57:01</time>
      </trkpt>
      <trkpt lat="42.97835" lon="-0.41914">
        <ele>519.6</ele>
        <time>2022-06-08 10:57:02</time>
      </trkpt>
      <trkpt lat="42.97834" lon="-0.41918">
        <ele>520</ele>
        <time>2022-06-08 10:57:03</time>
      </trkpt>
      <trkpt lat="42.97834" lon="-0.41923">
        <ele>520.2</ele>
        <time>2022-06-08 10:57:04</time>
      </trkpt>
      <trkpt lat="42.97833" lon="-0.41928">
        <ele>520.4</ele>
        <time>2022-06-08 10:57:05</time>
      </trkpt>
      <trkpt lat="42.97832" lon="-0.41933">
        <ele>520.4</ele>
        <time>2022-06-08 10:57:06</time>
      </trkpt>
      <trkpt lat="42.97832" lon="-0.41938">
        <ele>520.6</ele>
        <time>2022-06-08 10:57:07</time>
      </trkpt>
      <trkpt lat="42.97831" lon="-0.41943">
        <ele>520.6</ele>
        <time>2022-06-08 10:57:08</time>
      </trkpt>
      <trkpt lat="42.9783" lon="-0.41948">
        <ele>520.8</ele>
        <time>2022-06-08 10:57:09</time>
      </trkpt>
      <trkpt lat="42.9783" lon="-0.41953">
        <ele>521</ele>
        <time>2022-06-08 10:57:10</time>
      </trkpt>
      <trkpt lat="42.97829" lon="-0.41958">
        <ele>521.2</ele>
        <time>2022-06-08 10:57:11</time>
      </trkpt>
      <trkpt lat="42.97828" lon="-0.41962">
        <ele>521.4</ele>
        <time>2022-06-08 10:57:12</time>
      </trkpt>
      <trkpt lat="42.97827" lon="-0.41967">
        <ele>521.6</ele>
        <time>2022-06-08 10:57:13</time>
      </trkpt>
      <trkpt lat="42.97826" lon="-0.41972">
        <ele>521.8</ele>
        <time>2022-06-08 10:57:14</time>
      </trkpt>
      <trkpt lat="42.97825" lon="-0.41977">
        <ele>522</ele>
        <time>2022-06-08 10:57:15</time>
      </trkpt>
      <trkpt lat="42.97824" lon="-0.41981">
        <ele>522.2</ele>
        <time>2022-06-08 10:57:16</time>
      </trkpt>
      <trkpt lat="42.97823" lon="-0.41986">
        <ele>522.4</ele>
        <time>2022-06-08 10:57:17</time>
      </trkpt>
      <trkpt lat="42.97822" lon="-0.41991">
        <ele>522.6</ele>
        <time>2022-06-08 10:57:18</time>
      </trkpt>
      <trkpt lat="42.97821" lon="-0.41996">
        <ele>522.8</ele>
        <time>2022-06-08 10:57:19</time>
      </trkpt>
      <trkpt lat="42.9782" lon="-0.42">
        <ele>523</ele>
        <time>2022-06-08 10:57:20</time>
      </trkpt>
      <trkpt lat="42.97818" lon="-0.42005">
        <ele>523</ele>
        <time>2022-06-08 10:57:21</time>
      </trkpt>
      <trkpt lat="42.97816" lon="-0.42009">
        <ele>523.2</ele>
        <time>2022-06-08 10:57:22</time>
      </trkpt>
      <trkpt lat="42.97814" lon="-0.42013">
        <ele>523.4</ele>
        <time>2022-06-08 10:57:23</time>
      </trkpt>
      <trkpt lat="42.97813" lon="-0.42017">
        <ele>523.8</ele>
        <time>2022-06-08 10:57:24</time>
      </trkpt>
      <trkpt lat="42.97812" lon="-0.42022">
        <ele>524</ele>
        <time>2022-06-08 10:57:25</time>
      </trkpt>
      <trkpt lat="42.9781" lon="-0.42026">
        <ele>524.2</ele>
        <time>2022-06-08 10:57:26</time>
      </trkpt>
      <trkpt lat="42.97809" lon="-0.4203">
        <ele>524.2</ele>
        <time>2022-06-08 10:57:27</time>
      </trkpt>
      <trkpt lat="42.97808" lon="-0.42034">
        <ele>524.4</ele>
        <time>2022-06-08 10:57:28</time>
      </trkpt>
      <trkpt lat="42.97807" lon="-0.42037">
        <ele>524.8</ele>
        <time>2022-06-08 10:57:29</time>
      </trkpt>
      <trkpt lat="42.97805" lon="-0.42042">
        <ele>525</ele>
        <time>2022-06-08 10:57:30</time>
      </trkpt>
      <trkpt lat="42.97804" lon="-0.42046">
        <ele>525.2</ele>
        <time>2022-06-08 10:57:31</time>
      </trkpt>
      <trkpt lat="42.97804" lon="-0.4205">
        <ele>525.4</ele>
        <time>2022-06-08 10:57:32</time>
      </trkpt>
      <trkpt lat="42.97805" lon="-0.42056">
        <ele>525.6</ele>
        <time>2022-06-08 10:57:33</time>
      </trkpt>
      <trkpt lat="42.97804" lon="-0.4206">
        <ele>525.6</ele>
        <time>2022-06-08 10:57:34</time>
      </trkpt>
      <trkpt lat="42.97803" lon="-0.42064">
        <ele>525.8</ele>
        <time>2022-06-08 10:57:35</time>
      </trkpt>
      <trkpt lat="42.97801" lon="-0.42067">
        <ele>526</ele>
        <time>2022-06-08 10:57:36</time>
      </trkpt>
      <trkpt lat="42.97799" lon="-0.42069">
        <ele>526.4</ele>
        <time>2022-06-08 10:57:37</time>
      </trkpt>
      <trkpt lat="42.97796" lon="-0.4207">
        <ele>526.6</ele>
        <time>2022-06-08 10:57:38</time>
      </trkpt>
      <trkpt lat="42.97793" lon="-0.42071">
        <ele>526.8</ele>
        <time>2022-06-08 10:57:39</time>
      </trkpt>
      <trkpt lat="42.9779" lon="-0.42071">
        <ele>527</ele>
        <time>2022-06-08 10:57:40</time>
      </trkpt>
      <trkpt lat="42.97787" lon="-0.42071">
        <ele>527.2</ele>
        <time>2022-06-08 10:57:41</time>
      </trkpt>
      <trkpt lat="42.97784" lon="-0.42071">
        <ele>527.4</ele>
        <time>2022-06-08 10:57:42</time>
      </trkpt>
      <trkpt lat="42.97781" lon="-0.4207">
        <ele>527.4</ele>
        <time>2022-06-08 10:57:43</time>
      </trkpt>
      <trkpt lat="42.97779" lon="-0.42069">
        <ele>527.4</ele>
        <time>2022-06-08 10:57:44</time>
      </trkpt>
      <trkpt lat="42.97778" lon="-0.42068">
        <ele>527.6</ele>
        <time>2022-06-08 10:57:45</time>
      </trkpt>
      <trkpt lat="42.97776" lon="-0.42066">
        <ele>527.6</ele>
        <time>2022-06-08 10:57:46</time>
      </trkpt>
      <trkpt lat="42.97774" lon="-0.42064">
        <ele>527.4</ele>
        <time>2022-06-08 10:57:47</time>
      </trkpt>
      <trkpt lat="42.97773" lon="-0.4206">
        <ele>527.8</ele>
        <time>2022-06-08 10:57:48</time>
      </trkpt>
      <trkpt lat="42.97772" lon="-0.42055">
        <ele>527.8</ele>
        <time>2022-06-08 10:57:49</time>
      </trkpt>
      <trkpt lat="42.97771" lon="-0.4205">
        <ele>528</ele>
        <time>2022-06-08 10:57:50</time>
      </trkpt>
      <trkpt lat="42.9777" lon="-0.42045">
        <ele>528.2</ele>
        <time>2022-06-08 10:57:51</time>
      </trkpt>
      <trkpt lat="42.9777" lon="-0.42039">
        <ele>528.4</ele>
        <time>2022-06-08 10:57:52</time>
      </trkpt>
      <trkpt lat="42.97771" lon="-0.42036">
        <ele>528.4</ele>
        <time>2022-06-08 10:57:53</time>
      </trkpt>
      <trkpt lat="42.97772" lon="-0.42032">
        <ele>528.6</ele>
        <time>2022-06-08 10:57:54</time>
      </trkpt>
      <trkpt lat="42.97774" lon="-0.42027">
        <ele>528.6</ele>
        <time>2022-06-08 10:57:55</time>
      </trkpt>
      <trkpt lat="42.97775" lon="-0.42023">
        <ele>528.8</ele>
        <time>2022-06-08 10:57:56</time>
      </trkpt>
      <trkpt lat="42.97776" lon="-0.42018">
        <ele>529</ele>
        <time>2022-06-08 10:57:57</time>
      </trkpt>
      <trkpt lat="42.97777" lon="-0.42012">
        <ele>529</ele>
        <time>2022-06-08 10:57:58</time>
      </trkpt>
      <trkpt lat="42.97778" lon="-0.42008">
        <ele>529.2</ele>
        <time>2022-06-08 10:57:59</time>
      </trkpt>
      <trkpt lat="42.97779" lon="-0.42003">
        <ele>529.2</ele>
        <time>2022-06-08 10:58:00</time>
      </trkpt>
      <trkpt lat="42.9778" lon="-0.42">
        <ele>529.2</ele>
        <time>2022-06-08 10:58:01</time>
      </trkpt>
      <trkpt lat="42.97782" lon="-0.41996">
        <ele>529.2</ele>
        <time>2022-06-08 10:58:02</time>
      </trkpt>
      <trkpt lat="42.97783" lon="-0.41992">
        <ele>529.4</ele>
        <time>2022-06-08 10:58:03</time>
      </trkpt>
      <trkpt lat="42.97785" lon="-0.41988">
        <ele>529.4</ele>
        <time>2022-06-08 10:58:04</time>
      </trkpt>
      <trkpt lat="42.97787" lon="-0.41984">
        <ele>529.8</ele>
        <time>2022-06-08 10:58:05</time>
      </trkpt>
      <trkpt lat="42.97789" lon="-0.4198">
        <ele>529.8</ele>
        <time>2022-06-08 10:58:06</time>
      </trkpt>
      <trkpt lat="42.9779" lon="-0.41976">
        <ele>530</ele>
        <time>2022-06-08 10:58:07</time>
      </trkpt>
      <trkpt lat="42.97791" lon="-0.41974">
        <ele>530</ele>
        <time>2022-06-08 10:58:08</time>
      </trkpt>
      <trkpt lat="42.97791" lon="-0.4197">
        <ele>530.2</ele>
        <time>2022-06-08 10:58:09</time>
      </trkpt>
      <trkpt lat="42.97792" lon="-0.41966">
        <ele>530.4</ele>
        <time>2022-06-08 10:58:10</time>
      </trkpt>
      <trkpt lat="42.97793" lon="-0.41962">
        <ele>530.4</ele>
        <time>2022-06-08 10:58:11</time>
      </trkpt>
      <trkpt lat="42.97793" lon="-0.41958">
        <ele>530.8</ele>
        <time>2022-06-08 10:58:12</time>
      </trkpt>
      <trkpt lat="42.97794" lon="-0.41954">
        <ele>530.8</ele>
        <time>2022-06-08 10:58:13</time>
      </trkpt>
      <trkpt lat="42.97794" lon="-0.4195">
        <ele>531</ele>
        <time>2022-06-08 10:58:14</time>
      </trkpt>
      <trkpt lat="42.97794" lon="-0.41945">
        <ele>531</ele>
        <time>2022-06-08 10:58:15</time>
      </trkpt>
      <trkpt lat="42.97794" lon="-0.41941">
        <ele>531.2</ele>
        <time>2022-06-08 10:58:16</time>
      </trkpt>
      <trkpt lat="42.97795" lon="-0.41936">
        <ele>531.4</ele>
        <time>2022-06-08 10:58:17</time>
      </trkpt>
      <trkpt lat="42.97795" lon="-0.41932">
        <ele>531.4</ele>
        <time>2022-06-08 10:58:18</time>
      </trkpt>
      <trkpt lat="42.97795" lon="-0.41927">
        <ele>531.6</ele>
        <time>2022-06-08 10:58:19</time>
      </trkpt>
      <trkpt lat="42.97795" lon="-0.41923">
        <ele>531.8</ele>
        <time>2022-06-08 10:58:20</time>
      </trkpt>
      <trkpt lat="42.97796" lon="-0.41919">
        <ele>531.8</ele>
        <time>2022-06-08 10:58:21</time>
      </trkpt>
      <trkpt lat="42.97796" lon="-0.41914">
        <ele>532.2</ele>
        <time>2022-06-08 10:58:22</time>
      </trkpt>
      <trkpt lat="42.97796" lon="-0.4191">
        <ele>532.4</ele>
        <time>2022-06-08 10:58:23</time>
      </trkpt>
      <trkpt lat="42.97797" lon="-0.41906">
        <ele>532.6</ele>
        <time>2022-06-08 10:58:24</time>
      </trkpt>
      <trkpt lat="42.97797" lon="-0.41902">
        <ele>532.8</ele>
        <time>2022-06-08 10:58:25</time>
      </trkpt>
      <trkpt lat="42.97798" lon="-0.41899">
        <ele>533</ele>
        <time>2022-06-08 10:58:26</time>
      </trkpt>
      <trkpt lat="42.97799" lon="-0.41896">
        <ele>533.2</ele>
        <time>2022-06-08 10:58:27</time>
      </trkpt>
      <trkpt lat="42.97799" lon="-0.41893">
        <ele>533.4</ele>
        <time>2022-06-08 10:58:28</time>
      </trkpt>
      <trkpt lat="42.978" lon="-0.4189">
        <ele>533.6</ele>
        <time>2022-06-08 10:58:29</time>
      </trkpt>
      <trkpt lat="42.978" lon="-0.41887">
        <ele>533.8</ele>
        <time>2022-06-08 10:58:30</time>
      </trkpt>
      <trkpt lat="42.97801" lon="-0.41883">
        <ele>534</ele>
        <time>2022-06-08 10:58:31</time>
      </trkpt>
      <trkpt lat="42.97802" lon="-0.41879">
        <ele>534</ele>
        <time>2022-06-08 10:58:32</time>
      </trkpt>
      <trkpt lat="42.97803" lon="-0.41874">
        <ele>534.2</ele>
        <time>2022-06-08 10:58:33</time>
      </trkpt>
      <trkpt lat="42.97806" lon="-0.41869">
        <ele>534.2</ele>
        <time>2022-06-08 10:58:34</time>
      </trkpt>
      <trkpt lat="42.97808" lon="-0.41865">
        <ele>534.4</ele>
        <time>2022-06-08 10:58:35</time>
      </trkpt>
      <trkpt lat="42.9781" lon="-0.41861">
        <ele>534.6</ele>
        <time>2022-06-08 10:58:36</time>
      </trkpt>
      <trkpt lat="42.97812" lon="-0.41857">
        <ele>534.6</ele>
        <time>2022-06-08 10:58:37</time>
      </trkpt>
      <trkpt lat="42.97814" lon="-0.41853">
        <ele>534.8</ele>
        <time>2022-06-08 10:58:38</time>
      </trkpt>
      <trkpt lat="42.97818" lon="-0.4185">
        <ele>535</ele>
        <time>2022-06-08 10:58:39</time>
      </trkpt>
      <trkpt lat="42.97821" lon="-0.41846">
        <ele>535.6</ele>
        <time>2022-06-08 10:58:40</time>
      </trkpt>
      <trkpt lat="42.97825" lon="-0.41842">
        <ele>535.8</ele>
        <time>2022-06-08 10:58:41</time>
      </trkpt>
      <trkpt lat="42.97828" lon="-0.41838">
        <ele>536</ele>
        <time>2022-06-08 10:58:42</time>
      </trkpt>
      <trkpt lat="42.97829" lon="-0.41834">
        <ele>536.2</ele>
        <time>2022-06-08 10:58:43</time>
      </trkpt>
      <trkpt lat="42.9783" lon="-0.4183">
        <ele>536.2</ele>
        <time>2022-06-08 10:58:44</time>
      </trkpt>
      <trkpt lat="42.97831" lon="-0.41826">
        <ele>536.2</ele>
        <time>2022-06-08 10:58:45</time>
      </trkpt>
      <trkpt lat="42.97832" lon="-0.41822">
        <ele>536.4</ele>
        <time>2022-06-08 10:58:46</time>
      </trkpt>
      <trkpt lat="42.97834" lon="-0.41818">
        <ele>536.6</ele>
        <time>2022-06-08 10:58:47</time>
      </trkpt>
      <trkpt lat="42.97836" lon="-0.41815">
        <ele>536.6</ele>
        <time>2022-06-08 10:58:48</time>
      </trkpt>
      <trkpt lat="42.97837" lon="-0.41812">
        <ele>536.8</ele>
        <time>2022-06-08 10:58:49</time>
      </trkpt>
      <trkpt lat="42.97839" lon="-0.41808">
        <ele>537</ele>
        <time>2022-06-08 10:58:50</time>
      </trkpt>
      <trkpt lat="42.9784" lon="-0.41804">
        <ele>537.2</ele>
        <time>2022-06-08 10:58:51</time>
      </trkpt>
      <trkpt lat="42.97844" lon="-0.41799">
        <ele>537.2</ele>
        <time>2022-06-08 10:58:52</time>
      </trkpt>
      <trkpt lat="42.97845" lon="-0.41795">
        <ele>537.6</ele>
        <time>2022-06-08 10:58:53</time>
      </trkpt>
      <trkpt lat="42.97844" lon="-0.41792">
        <ele>537.6</ele>
        <time>2022-06-08 10:58:54</time>
      </trkpt>
      <trkpt lat="42.97844" lon="-0.41787">
        <ele>538</ele>
        <time>2022-06-08 10:58:55</time>
      </trkpt>
      <trkpt lat="42.97846" lon="-0.41784">
        <ele>538</ele>
        <time>2022-06-08 10:58:56</time>
      </trkpt>
      <trkpt lat="42.97849" lon="-0.4178">
        <ele>538.4</ele>
        <time>2022-06-08 10:58:57</time>
      </trkpt>
      <trkpt lat="42.9785" lon="-0.41775">
        <ele>538.4</ele>
        <time>2022-06-08 10:58:58</time>
      </trkpt>
      <trkpt lat="42.97851" lon="-0.41771">
        <ele>538.6</ele>
        <time>2022-06-08 10:58:59</time>
      </trkpt>
      <trkpt lat="42.97852" lon="-0.41767">
        <ele>538.6</ele>
        <time>2022-06-08 10:59:00</time>
      </trkpt>
      <trkpt lat="42.97852" lon="-0.41762">
        <ele>538.8</ele>
        <time>2022-06-08 10:59:01</time>
      </trkpt>
      <trkpt lat="42.97853" lon="-0.41758">
        <ele>539</ele>
        <time>2022-06-08 10:59:02</time>
      </trkpt>
      <trkpt lat="42.97853" lon="-0.41753">
        <ele>539.4</ele>
        <time>2022-06-08 10:59:03</time>
      </trkpt>
      <trkpt lat="42.97854" lon="-0.41749">
        <ele>539.4</ele>
        <time>2022-06-08 10:59:04</time>
      </trkpt>
      <trkpt lat="42.97855" lon="-0.41744">
        <ele>539.8</ele>
        <time>2022-06-08 10:59:05</time>
      </trkpt>
      <trkpt lat="42.97855" lon="-0.4174">
        <ele>539.8</ele>
        <time>2022-06-08 10:59:06</time>
      </trkpt>
      <trkpt lat="42.97856" lon="-0.41735">
        <ele>540.2</ele>
        <time>2022-06-08 10:59:07</time>
      </trkpt>
      <trkpt lat="42.97858" lon="-0.41731">
        <ele>540.4</ele>
        <time>2022-06-08 10:59:08</time>
      </trkpt>
      <trkpt lat="42.97859" lon="-0.41726">
        <ele>540.4</ele>
        <time>2022-06-08 10:59:09</time>
      </trkpt>
      <trkpt lat="42.9786" lon="-0.41723">
        <ele>540.8</ele>
        <time>2022-06-08 10:59:10</time>
      </trkpt>
      <trkpt lat="42.97862" lon="-0.41719">
        <ele>540.8</ele>
        <time>2022-06-08 10:59:11</time>
      </trkpt>
      <trkpt lat="42.97863" lon="-0.41715">
        <ele>541</ele>
        <time>2022-06-08 10:59:12</time>
      </trkpt>
      <trkpt lat="42.97865" lon="-0.41712">
        <ele>541.2</ele>
        <time>2022-06-08 10:59:13</time>
      </trkpt>
      <trkpt lat="42.97866" lon="-0.41708">
        <ele>541.4</ele>
        <time>2022-06-08 10:59:14</time>
      </trkpt>
      <trkpt lat="42.97868" lon="-0.41705">
        <ele>541.4</ele>
        <time>2022-06-08 10:59:15</time>
      </trkpt>
      <trkpt lat="42.97871" lon="-0.41701">
        <ele>541.8</ele>
        <time>2022-06-08 10:59:16</time>
      </trkpt>
      <trkpt lat="42.97873" lon="-0.41698">
        <ele>542</ele>
        <time>2022-06-08 10:59:17</time>
      </trkpt>
      <trkpt lat="42.97875" lon="-0.41694">
        <ele>542.2</ele>
        <time>2022-06-08 10:59:18</time>
      </trkpt>
      <trkpt lat="42.97877" lon="-0.4169">
        <ele>542.2</ele>
        <time>2022-06-08 10:59:19</time>
      </trkpt>
      <trkpt lat="42.97879" lon="-0.41687">
        <ele>542.4</ele>
        <time>2022-06-08 10:59:20</time>
      </trkpt>
      <trkpt lat="42.97881" lon="-0.41684">
        <ele>542.4</ele>
        <time>2022-06-08 10:59:21</time>
      </trkpt>
      <trkpt lat="42.97883" lon="-0.41682">
        <ele>542.6</ele>
        <time>2022-06-08 10:59:22</time>
      </trkpt>
      <trkpt lat="42.97886" lon="-0.41679">
        <ele>542.6</ele>
        <time>2022-06-08 10:59:23</time>
      </trkpt>
      <trkpt lat="42.97889" lon="-0.41676">
        <ele>542.8</ele>
        <time>2022-06-08 10:59:24</time>
      </trkpt>
      <trkpt lat="42.97892" lon="-0.41672">
        <ele>543</ele>
        <time>2022-06-08 10:59:25</time>
      </trkpt>
      <trkpt lat="42.97895" lon="-0.41669">
        <ele>543</ele>
        <time>2022-06-08 10:59:26</time>
      </trkpt>
      <trkpt lat="42.97898" lon="-0.41666">
        <ele>543.4</ele>
        <time>2022-06-08 10:59:27</time>
      </trkpt>
      <trkpt lat="42.97901" lon="-0.41663">
        <ele>543.4</ele>
        <time>2022-06-08 10:59:28</time>
      </trkpt>
      <trkpt lat="42.97904" lon="-0.4166">
        <ele>543.8</ele>
        <time>2022-06-08 10:59:29</time>
      </trkpt>
      <trkpt lat="42.97908" lon="-0.41657">
        <ele>544</ele>
        <time>2022-06-08 10:59:30</time>
      </trkpt>
      <trkpt lat="42.97912" lon="-0.41654">
        <ele>544.4</ele>
        <time>2022-06-08 10:59:31</time>
      </trkpt>
      <trkpt lat="42.97915" lon="-0.41651">
        <ele>544.4</ele>
        <time>2022-06-08 10:59:32</time>
      </trkpt>
      <trkpt lat="42.97919" lon="-0.41648">
        <ele>544.6</ele>
        <time>2022-06-08 10:59:33</time>
      </trkpt>
      <trkpt lat="42.97922" lon="-0.41644">
        <ele>544.8</ele>
        <time>2022-06-08 10:59:34</time>
      </trkpt>
      <trkpt lat="42.97924" lon="-0.41642">
        <ele>545</ele>
        <time>2022-06-08 10:59:35</time>
      </trkpt>
      <trkpt lat="42.97927" lon="-0.4164">
        <ele>545.4</ele>
        <time>2022-06-08 10:59:36</time>
      </trkpt>
      <trkpt lat="42.9793" lon="-0.41637">
        <ele>545.6</ele>
        <time>2022-06-08 10:59:37</time>
      </trkpt>
      <trkpt lat="42.97933" lon="-0.41633">
        <ele>545.8</ele>
        <time>2022-06-08 10:59:38</time>
      </trkpt>
      <trkpt lat="42.97936" lon="-0.41631">
        <ele>545.8</ele>
        <time>2022-06-08 10:59:39</time>
      </trkpt>
      <trkpt lat="42.97939" lon="-0.41628">
        <ele>546.2</ele>
        <time>2022-06-08 10:59:40</time>
      </trkpt>
      <trkpt lat="42.97942" lon="-0.41625">
        <ele>546.2</ele>
        <time>2022-06-08 10:59:41</time>
      </trkpt>
      <trkpt lat="42.97945" lon="-0.41622">
        <ele>546.4</ele>
        <time>2022-06-08 10:59:42</time>
      </trkpt>
      <trkpt lat="42.97948" lon="-0.41618">
        <ele>546.6</ele>
        <time>2022-06-08 10:59:43</time>
      </trkpt>
      <trkpt lat="42.9795" lon="-0.41615">
        <ele>546.8</ele>
        <time>2022-06-08 10:59:44</time>
      </trkpt>
      <trkpt lat="42.97951" lon="-0.41612">
        <ele>547</ele>
        <time>2022-06-08 10:59:45</time>
      </trkpt>
      <trkpt lat="42.97953" lon="-0.41609">
        <ele>547.2</ele>
        <time>2022-06-08 10:59:46</time>
      </trkpt>
      <trkpt lat="42.97955" lon="-0.41607">
        <ele>547.2</ele>
        <time>2022-06-08 10:59:47</time>
      </trkpt>
      <trkpt lat="42.97956" lon="-0.41604">
        <ele>547.4</ele>
        <time>2022-06-08 10:59:48</time>
      </trkpt>
      <trkpt lat="42.97958" lon="-0.416">
        <ele>547.6</ele>
        <time>2022-06-08 10:59:49</time>
      </trkpt>
      <trkpt lat="42.9796" lon="-0.41596">
        <ele>547.8</ele>
        <time>2022-06-08 10:59:50</time>
      </trkpt>
      <trkpt lat="42.97961" lon="-0.41593">
        <ele>548</ele>
        <time>2022-06-08 10:59:51</time>
      </trkpt>
      <trkpt lat="42.97963" lon="-0.41589">
        <ele>548.2</ele>
        <time>2022-06-08 10:59:52</time>
      </trkpt>
      <trkpt lat="42.97964" lon="-0.41585">
        <ele>548.4</ele>
        <time>2022-06-08 10:59:53</time>
      </trkpt>
      <trkpt lat="42.97966" lon="-0.41581">
        <ele>548.6</ele>
        <time>2022-06-08 10:59:54</time>
      </trkpt>
      <trkpt lat="42.97967" lon="-0.41578">
        <ele>549</ele>
        <time>2022-06-08 10:59:55</time>
      </trkpt>
      <trkpt lat="42.97969" lon="-0.41574">
        <ele>549</ele>
        <time>2022-06-08 10:59:56</time>
      </trkpt>
      <trkpt lat="42.9797" lon="-0.4157">
        <ele>549.2</ele>
        <time>2022-06-08 10:59:57</time>
      </trkpt>
      <trkpt lat="42.97972" lon="-0.41566">
        <ele>549.2</ele>
        <time>2022-06-08 10:59:58</time>
      </trkpt>
      <trkpt lat="42.97973" lon="-0.41563">
        <ele>549.4</ele>
        <time>2022-06-08 10:59:59</time>
      </trkpt>
      <trkpt lat="42.97975" lon="-0.41559">
        <ele>549.4</ele>
        <time>2022-06-08 11:00:00</time>
      </trkpt>
      <trkpt lat="42.97977" lon="-0.41555">
        <ele>549.8</ele>
        <time>2022-06-08 11:00:01</time>
      </trkpt>
      <trkpt lat="42.97979" lon="-0.41551">
        <ele>550</ele>
        <time>2022-06-08 11:00:02</time>
      </trkpt>
      <trkpt lat="42.9798" lon="-0.41547">
        <ele>550.2</ele>
        <time>2022-06-08 11:00:03</time>
      </trkpt>
      <trkpt lat="42.97982" lon="-0.41543">
        <ele>550.4</ele>
        <time>2022-06-08 11:00:04</time>
      </trkpt>
      <trkpt lat="42.97984" lon="-0.41539">
        <ele>550.6</ele>
        <time>2022-06-08 11:00:05</time>
      </trkpt>
      <trkpt lat="42.97986" lon="-0.41536">
        <ele>551</ele>
        <time>2022-06-08 11:00:06</time>
      </trkpt>
      <trkpt lat="42.97988" lon="-0.41533">
        <ele>551.2</ele>
        <time>2022-06-08 11:00:07</time>
      </trkpt>
      <trkpt lat="42.9799" lon="-0.41529">
        <ele>551.4</ele>
        <time>2022-06-08 11:00:08</time>
      </trkpt>
      <trkpt lat="42.97992" lon="-0.41525">
        <ele>551.6</ele>
        <time>2022-06-08 11:00:09</time>
      </trkpt>
      <trkpt lat="42.97994" lon="-0.41521">
        <ele>551.8</ele>
        <time>2022-06-08 11:00:10</time>
      </trkpt>
      <trkpt lat="42.97997" lon="-0.41518">
        <ele>551.8</ele>
        <time>2022-06-08 11:00:11</time>
      </trkpt>
      <trkpt lat="42.97999" lon="-0.41514">
        <ele>552</ele>
        <time>2022-06-08 11:00:12</time>
      </trkpt>
      <trkpt lat="42.98002" lon="-0.41511">
        <ele>552</ele>
        <time>2022-06-08 11:00:13</time>
      </trkpt>
      <trkpt lat="42.98004" lon="-0.41507">
        <ele>552.2</ele>
        <time>2022-06-08 11:00:14</time>
      </trkpt>
      <trkpt lat="42.98006" lon="-0.41503">
        <ele>552.4</ele>
        <time>2022-06-08 11:00:15</time>
      </trkpt>
      <trkpt lat="42.98008" lon="-0.41499">
        <ele>552.6</ele>
        <time>2022-06-08 11:00:16</time>
      </trkpt>
      <trkpt lat="42.98009" lon="-0.41495">
        <ele>552.6</ele>
        <time>2022-06-08 11:00:17</time>
      </trkpt>
      <trkpt lat="42.9801" lon="-0.41491">
        <ele>552.8</ele>
        <time>2022-06-08 11:00:18</time>
      </trkpt>
      <trkpt lat="42.98011" lon="-0.41487">
        <ele>552.8</ele>
        <time>2022-06-08 11:00:19</time>
      </trkpt>
      <trkpt lat="42.98011" lon="-0.41483">
        <ele>553</ele>
        <time>2022-06-08 11:00:20</time>
      </trkpt>
      <trkpt lat="42.98009" lon="-0.41478">
        <ele>553.2</ele>
        <time>2022-06-08 11:00:21</time>
      </trkpt>
      <trkpt lat="42.98008" lon="-0.41474">
        <ele>553.4</ele>
        <time>2022-06-08 11:00:22</time>
      </trkpt>
      <trkpt lat="42.98006" lon="-0.41471">
        <ele>553.6</ele>
        <time>2022-06-08 11:00:23</time>
      </trkpt>
      <trkpt lat="42.98003" lon="-0.41469">
        <ele>553.8</ele>
        <time>2022-06-08 11:00:24</time>
      </trkpt>
      <trkpt lat="42.97999" lon="-0.41467">
        <ele>554</ele>
        <time>2022-06-08 11:00:25</time>
      </trkpt>
      <trkpt lat="42.97996" lon="-0.41466">
        <ele>554</ele>
        <time>2022-06-08 11:00:26</time>
      </trkpt>
      <trkpt lat="42.97992" lon="-0.41465">
        <ele>554.2</ele>
        <time>2022-06-08 11:00:27</time>
      </trkpt>
      <trkpt lat="42.97989" lon="-0.41465">
        <ele>554.2</ele>
        <time>2022-06-08 11:00:28</time>
      </trkpt>
      <trkpt lat="42.97986" lon="-0.41466">
        <ele>554.6</ele>
        <time>2022-06-08 11:00:29</time>
      </trkpt>
      <trkpt lat="42.97983" lon="-0.41467">
        <ele>554.6</ele>
        <time>2022-06-08 11:00:30</time>
      </trkpt>
      <trkpt lat="42.9798" lon="-0.41468">
        <ele>554.8</ele>
        <time>2022-06-08 11:00:31</time>
      </trkpt>
      <trkpt lat="42.97977" lon="-0.41471">
        <ele>554.8</ele>
        <time>2022-06-08 11:00:32</time>
      </trkpt>
      <trkpt lat="42.97975" lon="-0.41474">
        <ele>555</ele>
        <time>2022-06-08 11:00:33</time>
      </trkpt>
      <trkpt lat="42.97974" lon="-0.41477">
        <ele>555</ele>
        <time>2022-06-08 11:00:34</time>
      </trkpt>
      <trkpt lat="42.97972" lon="-0.41479">
        <ele>555.2</ele>
        <time>2022-06-08 11:00:35</time>
      </trkpt>
      <trkpt lat="42.9797" lon="-0.41483">
        <ele>555.4</ele>
        <time>2022-06-08 11:00:36</time>
      </trkpt>
      <trkpt lat="42.97969" lon="-0.41487">
        <ele>555.6</ele>
        <time>2022-06-08 11:00:37</time>
      </trkpt>
      <trkpt lat="42.97967" lon="-0.41491">
        <ele>555.8</ele>
        <time>2022-06-08 11:00:38</time>
      </trkpt>
      <trkpt lat="42.97966" lon="-0.41495">
        <ele>556</ele>
        <time>2022-06-08 11:00:39</time>
      </trkpt>
      <trkpt lat="42.97964" lon="-0.415">
        <ele>556</ele>
        <time>2022-06-08 11:00:40</time>
      </trkpt>
      <trkpt lat="42.97963" lon="-0.41504">
        <ele>556.2</ele>
        <time>2022-06-08 11:00:41</time>
      </trkpt>
      <trkpt lat="42.97962" lon="-0.4151">
        <ele>556.4</ele>
        <time>2022-06-08 11:00:42</time>
      </trkpt>
      <trkpt lat="42.9796" lon="-0.41515">
        <ele>556.4</ele>
        <time>2022-06-08 11:00:43</time>
      </trkpt>
      <trkpt lat="42.97959" lon="-0.4152">
        <ele>556.6</ele>
        <time>2022-06-08 11:00:44</time>
      </trkpt>
      <trkpt lat="42.97958" lon="-0.41524">
        <ele>556.6</ele>
        <time>2022-06-08 11:00:45</time>
      </trkpt>
      <trkpt lat="42.97957" lon="-0.41529">
        <ele>556.8</ele>
        <time>2022-06-08 11:00:46</time>
      </trkpt>
      <trkpt lat="42.97955" lon="-0.41533">
        <ele>557</ele>
        <time>2022-06-08 11:00:47</time>
      </trkpt>
      <trkpt lat="42.97954" lon="-0.41537">
        <ele>557.4</ele>
        <time>2022-06-08 11:00:48</time>
      </trkpt>
      <trkpt lat="42.97952" lon="-0.41542">
        <ele>557.6</ele>
        <time>2022-06-08 11:00:49</time>
      </trkpt>
      <trkpt lat="42.97951" lon="-0.41546">
        <ele>557.6</ele>
        <time>2022-06-08 11:00:50</time>
      </trkpt>
      <trkpt lat="42.97949" lon="-0.41551">
        <ele>557.8</ele>
        <time>2022-06-08 11:00:51</time>
      </trkpt>
      <trkpt lat="42.97948" lon="-0.41556">
        <ele>557.8</ele>
        <time>2022-06-08 11:00:52</time>
      </trkpt>
      <trkpt lat="42.97946" lon="-0.4156">
        <ele>558</ele>
        <time>2022-06-08 11:00:53</time>
      </trkpt>
      <trkpt lat="42.97943" lon="-0.41564">
        <ele>558</ele>
        <time>2022-06-08 11:00:54</time>
      </trkpt>
      <trkpt lat="42.97941" lon="-0.41568">
        <ele>558.4</ele>
        <time>2022-06-08 11:00:55</time>
      </trkpt>
      <trkpt lat="42.97939" lon="-0.41572">
        <ele>558.4</ele>
        <time>2022-06-08 11:00:56</time>
      </trkpt>
      <trkpt lat="42.97936" lon="-0.41576">
        <ele>558.8</ele>
        <time>2022-06-08 11:00:57</time>
      </trkpt>
      <trkpt lat="42.97934" lon="-0.4158">
        <ele>559</ele>
        <time>2022-06-08 11:00:58</time>
      </trkpt>
      <trkpt lat="42.97931" lon="-0.41584">
        <ele>559.2</ele>
        <time>2022-06-08 11:00:59</time>
      </trkpt>
      <trkpt lat="42.97928" lon="-0.41587">
        <ele>559.6</ele>
        <time>2022-06-08 11:01:00</time>
      </trkpt>
      <trkpt lat="42.97926" lon="-0.4159">
        <ele>559.6</ele>
        <time>2022-06-08 11:01:01</time>
      </trkpt>
      <trkpt lat="42.97923" lon="-0.41593">
        <ele>559.6</ele>
        <time>2022-06-08 11:01:02</time>
      </trkpt>
      <trkpt lat="42.9792" lon="-0.41597">
        <ele>559.8</ele>
        <time>2022-06-08 11:01:03</time>
      </trkpt>
      <trkpt lat="42.97917" lon="-0.41601">
        <ele>560.2</ele>
        <time>2022-06-08 11:01:04</time>
      </trkpt>
      <trkpt lat="42.97914" lon="-0.41603">
        <ele>560.2</ele>
        <time>2022-06-08 11:01:05</time>
      </trkpt>
      <trkpt lat="42.9791" lon="-0.41606">
        <ele>560.2</ele>
        <time>2022-06-08 11:01:06</time>
      </trkpt>
      <trkpt lat="42.97907" lon="-0.41609">
        <ele>560.4</ele>
        <time>2022-06-08 11:01:07</time>
      </trkpt>
      <trkpt lat="42.97904" lon="-0.41611">
        <ele>560.8</ele>
        <time>2022-06-08 11:01:08</time>
      </trkpt>
      <trkpt lat="42.97902" lon="-0.41613">
        <ele>561</ele>
        <time>2022-06-08 11:01:09</time>
      </trkpt>
      <trkpt lat="42.97899" lon="-0.41614">
        <ele>561.2</ele>
        <time>2022-06-08 11:01:10</time>
      </trkpt>
      <trkpt lat="42.97897" lon="-0.41614">
        <ele>561.4</ele>
        <time>2022-06-08 11:01:11</time>
      </trkpt>
      <trkpt lat="42.97895" lon="-0.41615">
        <ele>561.8</ele>
        <time>2022-06-08 11:01:12</time>
      </trkpt>
      <trkpt lat="42.97891" lon="-0.41617">
        <ele>562</ele>
        <time>2022-06-08 11:01:13</time>
      </trkpt>
      <trkpt lat="42.97887" lon="-0.4162">
        <ele>562.2</ele>
        <time>2022-06-08 11:01:14</time>
      </trkpt>
      <trkpt lat="42.97882" lon="-0.41623">
        <ele>562.2</ele>
        <time>2022-06-08 11:01:15</time>
      </trkpt>
      <trkpt lat="42.97878" lon="-0.41625">
        <ele>562.4</ele>
        <time>2022-06-08 11:01:16</time>
      </trkpt>
      <trkpt lat="42.97873" lon="-0.41627">
        <ele>562.8</ele>
        <time>2022-06-08 11:01:17</time>
      </trkpt>
      <trkpt lat="42.9787" lon="-0.4163">
        <ele>562.8</ele>
        <time>2022-06-08 11:01:18</time>
      </trkpt>
      <trkpt lat="42.97866" lon="-0.41634">
        <ele>563.4</ele>
        <time>2022-06-08 11:01:19</time>
      </trkpt>
      <trkpt lat="42.97862" lon="-0.41637">
        <ele>563.4</ele>
        <time>2022-06-08 11:01:20</time>
      </trkpt>
      <trkpt lat="42.97859" lon="-0.4164">
        <ele>563.6</ele>
        <time>2022-06-08 11:01:21</time>
      </trkpt>
      <trkpt lat="42.97855" lon="-0.41644">
        <ele>563.8</ele>
        <time>2022-06-08 11:01:22</time>
      </trkpt>
      <trkpt lat="42.97852" lon="-0.41647">
        <ele>564.2</ele>
        <time>2022-06-08 11:01:23</time>
      </trkpt>
      <trkpt lat="42.97848" lon="-0.4165">
        <ele>564.4</ele>
        <time>2022-06-08 11:01:24</time>
      </trkpt>
      <trkpt lat="42.97845" lon="-0.41652">
        <ele>564.8</ele>
        <time>2022-06-08 11:01:25</time>
      </trkpt>
      <trkpt lat="42.97841" lon="-0.41656">
        <ele>564.8</ele>
        <time>2022-06-08 11:01:26</time>
      </trkpt>
      <trkpt lat="42.97838" lon="-0.41661">
        <ele>565</ele>
        <time>2022-06-08 11:01:27</time>
      </trkpt>
      <trkpt lat="42.97835" lon="-0.41665">
        <ele>565.4</ele>
        <time>2022-06-08 11:01:28</time>
      </trkpt>
      <trkpt lat="42.97832" lon="-0.41668">
        <ele>565.4</ele>
        <time>2022-06-08 11:01:29</time>
      </trkpt>
      <trkpt lat="42.97829" lon="-0.41672">
        <ele>565.6</ele>
        <time>2022-06-08 11:01:30</time>
      </trkpt>
      <trkpt lat="42.97826" lon="-0.41676">
        <ele>566</ele>
        <time>2022-06-08 11:01:31</time>
      </trkpt>
      <trkpt lat="42.97823" lon="-0.41679">
        <ele>566</ele>
        <time>2022-06-08 11:01:32</time>
      </trkpt>
      <trkpt lat="42.9782" lon="-0.41685">
        <ele>566.6</ele>
        <time>2022-06-08 11:01:33</time>
      </trkpt>
      <trkpt lat="42.97817" lon="-0.4169">
        <ele>566.8</ele>
        <time>2022-06-08 11:01:34</time>
      </trkpt>
      <trkpt lat="42.97814" lon="-0.41695">
        <ele>567</ele>
        <time>2022-06-08 11:01:35</time>
      </trkpt>
      <trkpt lat="42.97812" lon="-0.417">
        <ele>567.4</ele>
        <time>2022-06-08 11:01:36</time>
      </trkpt>
      <trkpt lat="42.9781" lon="-0.41705">
        <ele>567.4</ele>
        <time>2022-06-08 11:01:37</time>
      </trkpt>
      <trkpt lat="42.97807" lon="-0.41711">
        <ele>568</ele>
        <time>2022-06-08 11:01:38</time>
      </trkpt>
      <trkpt lat="42.97805" lon="-0.41716">
        <ele>568.2</ele>
        <time>2022-06-08 11:01:39</time>
      </trkpt>
      <trkpt lat="42.97802" lon="-0.41719">
        <ele>568.6</ele>
        <time>2022-06-08 11:01:40</time>
      </trkpt>
      <trkpt lat="42.978" lon="-0.41722">
        <ele>568.6</ele>
        <time>2022-06-08 11:01:41</time>
      </trkpt>
      <trkpt lat="42.97797" lon="-0.41727">
        <ele>568.8</ele>
        <time>2022-06-08 11:01:42</time>
      </trkpt>
      <trkpt lat="42.97795" lon="-0.41731">
        <ele>569.2</ele>
        <time>2022-06-08 11:01:43</time>
      </trkpt>
      <trkpt lat="42.97793" lon="-0.41735">
        <ele>569.2</ele>
        <time>2022-06-08 11:01:44</time>
      </trkpt>
      <trkpt lat="42.9779" lon="-0.4174">
        <ele>569.2</ele>
        <time>2022-06-08 11:01:45</time>
      </trkpt>
      <trkpt lat="42.97788" lon="-0.41743">
        <ele>569.6</ele>
        <time>2022-06-08 11:01:46</time>
      </trkpt>
      <trkpt lat="42.97785" lon="-0.41747">
        <ele>569.6</ele>
        <time>2022-06-08 11:01:47</time>
      </trkpt>
      <trkpt lat="42.97782" lon="-0.4175">
        <ele>570</ele>
        <time>2022-06-08 11:01:48</time>
      </trkpt>
      <trkpt lat="42.97779" lon="-0.41753">
        <ele>570.6</ele>
        <time>2022-06-08 11:01:49</time>
      </trkpt>
      <trkpt lat="42.97777" lon="-0.41757">
        <ele>570.6</ele>
        <time>2022-06-08 11:01:50</time>
      </trkpt>
      <trkpt lat="42.97774" lon="-0.4176">
        <ele>570.8</ele>
        <time>2022-06-08 11:01:51</time>
      </trkpt>
      <trkpt lat="42.97771" lon="-0.41763">
        <ele>570.8</ele>
        <time>2022-06-08 11:01:52</time>
      </trkpt>
      <trkpt lat="42.97768" lon="-0.41767">
        <ele>571.2</ele>
        <time>2022-06-08 11:01:53</time>
      </trkpt>
      <trkpt lat="42.97765" lon="-0.41771">
        <ele>571.2</ele>
        <time>2022-06-08 11:01:54</time>
      </trkpt>
      <trkpt lat="42.97762" lon="-0.41774">
        <ele>571.2</ele>
        <time>2022-06-08 11:01:55</time>
      </trkpt>
      <trkpt lat="42.97759" lon="-0.41778">
        <ele>571.4</ele>
        <time>2022-06-08 11:01:56</time>
      </trkpt>
      <trkpt lat="42.97756" lon="-0.41781">
        <ele>571.8</ele>
        <time>2022-06-08 11:01:57</time>
      </trkpt>
      <trkpt lat="42.97753" lon="-0.41785">
        <ele>571.8</ele>
        <time>2022-06-08 11:01:58</time>
      </trkpt>
      <trkpt lat="42.97751" lon="-0.41787">
        <ele>572</ele>
        <time>2022-06-08 11:01:59</time>
      </trkpt>
      <trkpt lat="42.97749" lon="-0.4179">
        <ele>572</ele>
        <time>2022-06-08 11:02:00</time>
      </trkpt>
      <trkpt lat="42.97746" lon="-0.41793">
        <ele>572.2</ele>
        <time>2022-06-08 11:02:01</time>
      </trkpt>
      <trkpt lat="42.97743" lon="-0.41796">
        <ele>572.4</ele>
        <time>2022-06-08 11:02:02</time>
      </trkpt>
      <trkpt lat="42.97741" lon="-0.41799">
        <ele>572.6</ele>
        <time>2022-06-08 11:02:03</time>
      </trkpt>
      <trkpt lat="42.97739" lon="-0.41802">
        <ele>572.8</ele>
        <time>2022-06-08 11:02:04</time>
      </trkpt>
      <trkpt lat="42.97737" lon="-0.41804">
        <ele>573.2</ele>
        <time>2022-06-08 11:02:05</time>
      </trkpt>
      <trkpt lat="42.97736" lon="-0.41806">
        <ele>573.8</ele>
        <time>2022-06-08 11:02:06</time>
      </trkpt>
      <trkpt lat="42.97734" lon="-0.41809">
        <ele>574</ele>
        <time>2022-06-08 11:02:07</time>
      </trkpt>
      <trkpt lat="42.97731" lon="-0.41812">
        <ele>574.4</ele>
        <time>2022-06-08 11:02:08</time>
      </trkpt>
      <trkpt lat="42.97729" lon="-0.41815">
        <ele>574.6</ele>
        <time>2022-06-08 11:02:09</time>
      </trkpt>
      <trkpt lat="42.97727" lon="-0.41818">
        <ele>574.8</ele>
        <time>2022-06-08 11:02:10</time>
      </trkpt>
      <trkpt lat="42.97724" lon="-0.41822">
        <ele>574.8</ele>
        <time>2022-06-08 11:02:11</time>
      </trkpt>
      <trkpt lat="42.97722" lon="-0.41825">
        <ele>575.2</ele>
        <time>2022-06-08 11:02:12</time>
      </trkpt>
      <trkpt lat="42.97721" lon="-0.41828">
        <ele>575.4</ele>
        <time>2022-06-08 11:02:13</time>
      </trkpt>
      <trkpt lat="42.97718" lon="-0.4183">
        <ele>575.8</ele>
        <time>2022-06-08 11:02:14</time>
      </trkpt>
      <trkpt lat="42.97715" lon="-0.41833">
        <ele>575.8</ele>
        <time>2022-06-08 11:02:15</time>
      </trkpt>
      <trkpt lat="42.97713" lon="-0.41836">
        <ele>576</ele>
        <time>2022-06-08 11:02:16</time>
      </trkpt>
      <trkpt lat="42.97711" lon="-0.4184">
        <ele>576.4</ele>
        <time>2022-06-08 11:02:17</time>
      </trkpt>
      <trkpt lat="42.97707" lon="-0.41844">
        <ele>576.4</ele>
        <time>2022-06-08 11:02:18</time>
      </trkpt>
      <trkpt lat="42.97703" lon="-0.41849">
        <ele>576.6</ele>
        <time>2022-06-08 11:02:19</time>
      </trkpt>
      <trkpt lat="42.977" lon="-0.41853">
        <ele>577</ele>
        <time>2022-06-08 11:02:20</time>
      </trkpt>
      <trkpt lat="42.97696" lon="-0.41858">
        <ele>577</ele>
        <time>2022-06-08 11:02:21</time>
      </trkpt>
      <trkpt lat="42.97692" lon="-0.41864">
        <ele>577.2</ele>
        <time>2022-06-08 11:02:22</time>
      </trkpt>
      <trkpt lat="42.97689" lon="-0.41869">
        <ele>577.6</ele>
        <time>2022-06-08 11:02:23</time>
      </trkpt>
      <trkpt lat="42.97687" lon="-0.41874">
        <ele>577.6</ele>
        <time>2022-06-08 11:02:24</time>
      </trkpt>
      <trkpt lat="42.97684" lon="-0.41879">
        <ele>577.6</ele>
        <time>2022-06-08 11:02:25</time>
      </trkpt>
      <trkpt lat="42.9768" lon="-0.41884">
        <ele>577.6</ele>
        <time>2022-06-08 11:02:26</time>
      </trkpt>
      <trkpt lat="42.97678" lon="-0.41889">
        <ele>577.8</ele>
        <time>2022-06-08 11:02:27</time>
      </trkpt>
      <trkpt lat="42.97675" lon="-0.41893">
        <ele>578</ele>
        <time>2022-06-08 11:02:28</time>
      </trkpt>
      <trkpt lat="42.97673" lon="-0.41898">
        <ele>578.4</ele>
        <time>2022-06-08 11:02:29</time>
      </trkpt>
      <trkpt lat="42.97671" lon="-0.41902">
        <ele>578.4</ele>
        <time>2022-06-08 11:02:30</time>
      </trkpt>
      <trkpt lat="42.9767" lon="-0.41906">
        <ele>579</ele>
        <time>2022-06-08 11:02:31</time>
      </trkpt>
      <trkpt lat="42.97669" lon="-0.41911">
        <ele>579.2</ele>
        <time>2022-06-08 11:02:32</time>
      </trkpt>
      <trkpt lat="42.97665" lon="-0.41917">
        <ele>579.6</ele>
        <time>2022-06-08 11:02:33</time>
      </trkpt>
      <trkpt lat="42.97662" lon="-0.41923">
        <ele>580</ele>
        <time>2022-06-08 11:02:34</time>
      </trkpt>
      <trkpt lat="42.97659" lon="-0.41928">
        <ele>580</ele>
        <time>2022-06-08 11:02:35</time>
      </trkpt>
      <trkpt lat="42.97656" lon="-0.41933">
        <ele>580.2</ele>
        <time>2022-06-08 11:02:36</time>
      </trkpt>
      <trkpt lat="42.97654" lon="-0.41937">
        <ele>580.2</ele>
        <time>2022-06-08 11:02:37</time>
      </trkpt>
      <trkpt lat="42.97652" lon="-0.41942">
        <ele>580.2</ele>
        <time>2022-06-08 11:02:38</time>
      </trkpt>
      <trkpt lat="42.9765" lon="-0.41945">
        <ele>580.4</ele>
        <time>2022-06-08 11:02:39</time>
      </trkpt>
      <trkpt lat="42.97648" lon="-0.41948">
        <ele>580.6</ele>
        <time>2022-06-08 11:02:40</time>
      </trkpt>
      <trkpt lat="42.97647" lon="-0.41952">
        <ele>581</ele>
        <time>2022-06-08 11:02:41</time>
      </trkpt>
      <trkpt lat="42.97646" lon="-0.41954">
        <ele>581.6</ele>
        <time>2022-06-08 11:02:42</time>
      </trkpt>
      <trkpt lat="42.97644" lon="-0.41959">
        <ele>581.6</ele>
        <time>2022-06-08 11:02:43</time>
      </trkpt>
      <trkpt lat="42.97642" lon="-0.41963">
        <ele>582.2</ele>
        <time>2022-06-08 11:02:44</time>
      </trkpt>
      <trkpt lat="42.9764" lon="-0.41967">
        <ele>582.4</ele>
        <time>2022-06-08 11:02:45</time>
      </trkpt>
      <trkpt lat="42.97638" lon="-0.41972">
        <ele>582.4</ele>
        <time>2022-06-08 11:02:46</time>
      </trkpt>
      <trkpt lat="42.97636" lon="-0.41977">
        <ele>582.8</ele>
        <time>2022-06-08 11:02:47</time>
      </trkpt>
      <trkpt lat="42.97634" lon="-0.41982">
        <ele>582.8</ele>
        <time>2022-06-08 11:02:48</time>
      </trkpt>
      <trkpt lat="42.97632" lon="-0.41987">
        <ele>582.8</ele>
        <time>2022-06-08 11:02:49</time>
      </trkpt>
      <trkpt lat="42.9763" lon="-0.41993">
        <ele>583</ele>
        <time>2022-06-08 11:02:50</time>
      </trkpt>
      <trkpt lat="42.97628" lon="-0.41997">
        <ele>583.2</ele>
        <time>2022-06-08 11:02:51</time>
      </trkpt>
      <trkpt lat="42.97627" lon="-0.42002">
        <ele>583.6</ele>
        <time>2022-06-08 11:02:52</time>
      </trkpt>
      <trkpt lat="42.97626" lon="-0.42006">
        <ele>583.6</ele>
        <time>2022-06-08 11:02:53</time>
      </trkpt>
      <trkpt lat="42.97624" lon="-0.42013">
        <ele>583.6</ele>
        <time>2022-06-08 11:02:54</time>
      </trkpt>
      <trkpt lat="42.97622" lon="-0.42019">
        <ele>583.8</ele>
        <time>2022-06-08 11:02:55</time>
      </trkpt>
      <trkpt lat="42.9762" lon="-0.42025">
        <ele>584.2</ele>
        <time>2022-06-08 11:02:56</time>
      </trkpt>
      <trkpt lat="42.97619" lon="-0.42029">
        <ele>584.2</ele>
        <time>2022-06-08 11:02:57</time>
      </trkpt>
      <trkpt lat="42.97617" lon="-0.42036">
        <ele>584.2</ele>
        <time>2022-06-08 11:02:58</time>
      </trkpt>
      <trkpt lat="42.97616" lon="-0.42042">
        <ele>584.4</ele>
        <time>2022-06-08 11:02:59</time>
      </trkpt>
      <trkpt lat="42.97614" lon="-0.42047">
        <ele>584.4</ele>
        <time>2022-06-08 11:03:00</time>
      </trkpt>
      <trkpt lat="42.97613" lon="-0.42052">
        <ele>585</ele>
        <time>2022-06-08 11:03:01</time>
      </trkpt>
      <trkpt lat="42.97611" lon="-0.42057">
        <ele>585.2</ele>
        <time>2022-06-08 11:03:02</time>
      </trkpt>
      <trkpt lat="42.97608" lon="-0.42064">
        <ele>585.2</ele>
        <time>2022-06-08 11:03:03</time>
      </trkpt>
      <trkpt lat="42.97606" lon="-0.42068">
        <ele>585.4</ele>
        <time>2022-06-08 11:03:04</time>
      </trkpt>
      <trkpt lat="42.97603" lon="-0.42073">
        <ele>585.4</ele>
        <time>2022-06-08 11:03:05</time>
      </trkpt>
      <trkpt lat="42.976" lon="-0.42077">
        <ele>585.6</ele>
        <time>2022-06-08 11:03:06</time>
      </trkpt>
      <trkpt lat="42.97598" lon="-0.4208">
        <ele>585.6</ele>
        <time>2022-06-08 11:03:07</time>
      </trkpt>
      <trkpt lat="42.97595" lon="-0.42083">
        <ele>586</ele>
        <time>2022-06-08 11:03:08</time>
      </trkpt>
      <trkpt lat="42.97591" lon="-0.42086">
        <ele>586.4</ele>
        <time>2022-06-08 11:03:09</time>
      </trkpt>
      <trkpt lat="42.97588" lon="-0.42087">
        <ele>586.8</ele>
        <time>2022-06-08 11:03:10</time>
      </trkpt>
      <trkpt lat="42.97583" lon="-0.42088">
        <ele>587</ele>
        <time>2022-06-08 11:03:11</time>
      </trkpt>
      <trkpt lat="42.9758" lon="-0.42087">
        <ele>587.4</ele>
        <time>2022-06-08 11:03:12</time>
      </trkpt>
      <trkpt lat="42.97575" lon="-0.42086">
        <ele>587.4</ele>
        <time>2022-06-08 11:03:13</time>
      </trkpt>
      <trkpt lat="42.97572" lon="-0.42083">
        <ele>587.8</ele>
        <time>2022-06-08 11:03:14</time>
      </trkpt>
      <trkpt lat="42.97568" lon="-0.42079">
        <ele>587.8</ele>
        <time>2022-06-08 11:03:15</time>
      </trkpt>
      <trkpt lat="42.97566" lon="-0.42074">
        <ele>588</ele>
        <time>2022-06-08 11:03:16</time>
      </trkpt>
      <trkpt lat="42.97564" lon="-0.42071">
        <ele>588</ele>
        <time>2022-06-08 11:03:17</time>
      </trkpt>
      <trkpt lat="42.97563" lon="-0.42064">
        <ele>588.2</ele>
        <time>2022-06-08 11:03:18</time>
      </trkpt>
      <trkpt lat="42.97563" lon="-0.42058">
        <ele>588.4</ele>
        <time>2022-06-08 11:03:19</time>
      </trkpt>
      <trkpt lat="42.97563" lon="-0.42052">
        <ele>588.4</ele>
        <time>2022-06-08 11:03:20</time>
      </trkpt>
      <trkpt lat="42.97564" lon="-0.42047">
        <ele>588.8</ele>
        <time>2022-06-08 11:03:21</time>
      </trkpt>
      <trkpt lat="42.97565" lon="-0.42041">
        <ele>588.8</ele>
        <time>2022-06-08 11:03:22</time>
      </trkpt>
      <trkpt lat="42.97567" lon="-0.42036">
        <ele>589</ele>
        <time>2022-06-08 11:03:23</time>
      </trkpt>
      <trkpt lat="42.9757" lon="-0.42031">
        <ele>589.2</ele>
        <time>2022-06-08 11:03:24</time>
      </trkpt>
      <trkpt lat="42.97574" lon="-0.42027">
        <ele>589.4</ele>
        <time>2022-06-08 11:03:25</time>
      </trkpt>
      <trkpt lat="42.97576" lon="-0.42023">
        <ele>589.6</ele>
        <time>2022-06-08 11:03:26</time>
      </trkpt>
      <trkpt lat="42.97578" lon="-0.4202">
        <ele>589.6</ele>
        <time>2022-06-08 11:03:27</time>
      </trkpt>
      <trkpt lat="42.97581" lon="-0.42016">
        <ele>589.8</ele>
        <time>2022-06-08 11:03:28</time>
      </trkpt>
      <trkpt lat="42.97588" lon="-0.42008">
        <ele>589.8</ele>
        <time>2022-06-08 11:03:29</time>
      </trkpt>
      <trkpt lat="42.97591" lon="-0.42003">
        <ele>590.2</ele>
        <time>2022-06-08 11:03:30</time>
      </trkpt>
      <trkpt lat="42.97591" lon="-0.42003">
        <ele>590.2</ele>
        <time>2022-06-08 11:03:31</time>
      </trkpt>
      <trkpt lat="42.97594" lon="-0.41998">
        <ele>590.2</ele>
        <time>2022-06-08 11:03:32</time>
      </trkpt>
      <trkpt lat="42.97601" lon="-0.41989">
        <ele>590.4</ele>
        <time>2022-06-08 11:03:33</time>
      </trkpt>
      <trkpt lat="42.97604" lon="-0.41985">
        <ele>590.6</ele>
        <time>2022-06-08 11:03:34</time>
      </trkpt>
      <trkpt lat="42.97607" lon="-0.4198">
        <ele>590.6</ele>
        <time>2022-06-08 11:03:35</time>
      </trkpt>
      <trkpt lat="42.9761" lon="-0.41974">
        <ele>591</ele>
        <time>2022-06-08 11:03:36</time>
      </trkpt>
      <trkpt lat="42.97612" lon="-0.41968">
        <ele>591</ele>
        <time>2022-06-08 11:03:37</time>
      </trkpt>
      <trkpt lat="42.97614" lon="-0.41962">
        <ele>591.4</ele>
        <time>2022-06-08 11:03:38</time>
      </trkpt>
      <trkpt lat="42.97616" lon="-0.41956">
        <ele>591.4</ele>
        <time>2022-06-08 11:03:39</time>
      </trkpt>
      <trkpt lat="42.97618" lon="-0.4195">
        <ele>591.8</ele>
        <time>2022-06-08 11:03:40</time>
      </trkpt>
      <trkpt lat="42.9762" lon="-0.41944">
        <ele>591.8</ele>
        <time>2022-06-08 11:03:41</time>
      </trkpt>
      <trkpt lat="42.97621" lon="-0.41938">
        <ele>592</ele>
        <time>2022-06-08 11:03:42</time>
      </trkpt>
      <trkpt lat="42.97623" lon="-0.41932">
        <ele>592.2</ele>
        <time>2022-06-08 11:03:43</time>
      </trkpt>
      <trkpt lat="42.97624" lon="-0.41927">
        <ele>592.6</ele>
        <time>2022-06-08 11:03:44</time>
      </trkpt>
      <trkpt lat="42.97626" lon="-0.41922">
        <ele>592.8</ele>
        <time>2022-06-08 11:03:45</time>
      </trkpt>
      <trkpt lat="42.97628" lon="-0.41916">
        <ele>593</ele>
        <time>2022-06-08 11:03:46</time>
      </trkpt>
      <trkpt lat="42.9763" lon="-0.41911">
        <ele>593.4</ele>
        <time>2022-06-08 11:03:47</time>
      </trkpt>
      <trkpt lat="42.97632" lon="-0.41905">
        <ele>593.6</ele>
        <time>2022-06-08 11:03:48</time>
      </trkpt>
      <trkpt lat="42.97634" lon="-0.419">
        <ele>593.8</ele>
        <time>2022-06-08 11:03:49</time>
      </trkpt>
      <trkpt lat="42.97636" lon="-0.41894">
        <ele>594</ele>
        <time>2022-06-08 11:03:50</time>
      </trkpt>
      <trkpt lat="42.97636" lon="-0.41888">
        <ele>594.4</ele>
        <time>2022-06-08 11:03:51</time>
      </trkpt>
      <trkpt lat="42.97638" lon="-0.41882">
        <ele>594.6</ele>
        <time>2022-06-08 11:03:52</time>
      </trkpt>
      <trkpt lat="42.9764" lon="-0.41877">
        <ele>595</ele>
        <time>2022-06-08 11:03:53</time>
      </trkpt>
      <trkpt lat="42.97642" lon="-0.41872">
        <ele>595.2</ele>
        <time>2022-06-08 11:03:54</time>
      </trkpt>
      <trkpt lat="42.97643" lon="-0.41867">
        <ele>595.4</ele>
        <time>2022-06-08 11:03:55</time>
      </trkpt>
      <trkpt lat="42.97643" lon="-0.41867">
        <ele>595.4</ele>
        <time>2022-06-08 11:03:56</time>
      </trkpt>
      <trkpt lat="42.97647" lon="-0.41856">
        <ele>595.6</ele>
        <time>2022-06-08 11:03:57</time>
      </trkpt>
      <trkpt lat="42.9765" lon="-0.41852">
        <ele>595.8</ele>
        <time>2022-06-08 11:03:58</time>
      </trkpt>
      <trkpt lat="42.97652" lon="-0.41849">
        <ele>596.2</ele>
        <time>2022-06-08 11:03:59</time>
      </trkpt>
      <trkpt lat="42.97655" lon="-0.41844">
        <ele>596.6</ele>
        <time>2022-06-08 11:04:00</time>
      </trkpt>
      <trkpt lat="42.97655" lon="-0.41839">
        <ele>596.6</ele>
        <time>2022-06-08 11:04:01</time>
      </trkpt>
      <trkpt lat="42.97656" lon="-0.41834">
        <ele>597</ele>
        <time>2022-06-08 11:04:02</time>
      </trkpt>
      <trkpt lat="42.97659" lon="-0.4183">
        <ele>597</ele>
        <time>2022-06-08 11:04:03</time>
      </trkpt>
      <trkpt lat="42.97661" lon="-0.41825">
        <ele>597</ele>
        <time>2022-06-08 11:04:04</time>
      </trkpt>
      <trkpt lat="42.97661" lon="-0.41825">
        <ele>597.2</ele>
        <time>2022-06-08 11:04:05</time>
      </trkpt>
      <trkpt lat="42.97663" lon="-0.41821">
        <ele>597.4</ele>
        <time>2022-06-08 11:04:06</time>
      </trkpt>
      <trkpt lat="42.97667" lon="-0.41811">
        <ele>597.4</ele>
        <time>2022-06-08 11:04:07</time>
      </trkpt>
      <trkpt lat="42.97669" lon="-0.41807">
        <ele>597.8</ele>
        <time>2022-06-08 11:04:08</time>
      </trkpt>
      <trkpt lat="42.97672" lon="-0.41802">
        <ele>598</ele>
        <time>2022-06-08 11:04:09</time>
      </trkpt>
      <trkpt lat="42.97675" lon="-0.41798">
        <ele>598.4</ele>
        <time>2022-06-08 11:04:10</time>
      </trkpt>
      <trkpt lat="42.97678" lon="-0.41794">
        <ele>598.4</ele>
        <time>2022-06-08 11:04:11</time>
      </trkpt>
      <trkpt lat="42.97681" lon="-0.41789">
        <ele>598.6</ele>
        <time>2022-06-08 11:04:12</time>
      </trkpt>
      <trkpt lat="42.97683" lon="-0.41785">
        <ele>598.8</ele>
        <time>2022-06-08 11:04:13</time>
      </trkpt>
      <trkpt lat="42.97687" lon="-0.4178">
        <ele>599</ele>
        <time>2022-06-08 11:04:14</time>
      </trkpt>
      <trkpt lat="42.97689" lon="-0.41776">
        <ele>599.4</ele>
        <time>2022-06-08 11:04:15</time>
      </trkpt>
      <trkpt lat="42.97692" lon="-0.41771">
        <ele>599.4</ele>
        <time>2022-06-08 11:04:16</time>
      </trkpt>
      <trkpt lat="42.97695" lon="-0.41767">
        <ele>599.6</ele>
        <time>2022-06-08 11:04:17</time>
      </trkpt>
      <trkpt lat="42.97697" lon="-0.41763">
        <ele>599.8</ele>
        <time>2022-06-08 11:04:18</time>
      </trkpt>
      <trkpt lat="42.97697" lon="-0.41763">
        <ele>600.2</ele>
        <time>2022-06-08 11:04:19</time>
      </trkpt>
      <trkpt lat="42.97703" lon="-0.41755">
        <ele>600.4</ele>
        <time>2022-06-08 11:04:20</time>
      </trkpt>
      <trkpt lat="42.97705" lon="-0.41751">
        <ele>600.6</ele>
        <time>2022-06-08 11:04:21</time>
      </trkpt>
      <trkpt lat="42.97708" lon="-0.41746">
        <ele>600.8</ele>
        <time>2022-06-08 11:04:22</time>
      </trkpt>
      <trkpt lat="42.97711" lon="-0.41742">
        <ele>601</ele>
        <time>2022-06-08 11:04:23</time>
      </trkpt>
      <trkpt lat="42.97713" lon="-0.41738">
        <ele>601.2</ele>
        <time>2022-06-08 11:04:24</time>
      </trkpt>
      <trkpt lat="42.97716" lon="-0.41734">
        <ele>601.4</ele>
        <time>2022-06-08 11:04:25</time>
      </trkpt>
      <trkpt lat="42.97718" lon="-0.4173">
        <ele>601.6</ele>
        <time>2022-06-08 11:04:26</time>
      </trkpt>
      <trkpt lat="42.97721" lon="-0.41726">
        <ele>601.8</ele>
        <time>2022-06-08 11:04:27</time>
      </trkpt>
      <trkpt lat="42.97724" lon="-0.41722">
        <ele>602</ele>
        <time>2022-06-08 11:04:28</time>
      </trkpt>
      <trkpt lat="42.97724" lon="-0.41722">
        <ele>602.2</ele>
        <time>2022-06-08 11:04:29</time>
      </trkpt>
      <trkpt lat="42.97728" lon="-0.41714">
        <ele>602.6</ele>
        <time>2022-06-08 11:04:30</time>
      </trkpt>
      <trkpt lat="42.97731" lon="-0.4171">
        <ele>602.8</ele>
        <time>2022-06-08 11:04:31</time>
      </trkpt>
      <trkpt lat="42.97733" lon="-0.41706">
        <ele>603</ele>
        <time>2022-06-08 11:04:32</time>
      </trkpt>
      <trkpt lat="42.97734" lon="-0.41701">
        <ele>603.2</ele>
        <time>2022-06-08 11:04:33</time>
      </trkpt>
      <trkpt lat="42.97734" lon="-0.41701">
        <ele>603.6</ele>
        <time>2022-06-08 11:04:34</time>
      </trkpt>
      <trkpt lat="42.97737" lon="-0.41692">
        <ele>603.8</ele>
        <time>2022-06-08 11:04:35</time>
      </trkpt>
      <trkpt lat="42.97738" lon="-0.41687">
        <ele>604.2</ele>
        <time>2022-06-08 11:04:36</time>
      </trkpt>
      <trkpt lat="42.9774" lon="-0.41683">
        <ele>604.2</ele>
        <time>2022-06-08 11:04:37</time>
      </trkpt>
      <trkpt lat="42.97741" lon="-0.41678">
        <ele>604.6</ele>
        <time>2022-06-08 11:04:38</time>
      </trkpt>
      <trkpt lat="42.97742" lon="-0.41674">
        <ele>604.8</ele>
        <time>2022-06-08 11:04:39</time>
      </trkpt>
      <trkpt lat="42.97743" lon="-0.41668">
        <ele>605</ele>
        <time>2022-06-08 11:04:40</time>
      </trkpt>
      <trkpt lat="42.97743" lon="-0.41664">
        <ele>605.2</ele>
        <time>2022-06-08 11:04:41</time>
      </trkpt>
      <trkpt lat="42.97744" lon="-0.41658">
        <ele>605.6</ele>
        <time>2022-06-08 11:04:42</time>
      </trkpt>
      <trkpt lat="42.97745" lon="-0.41653">
        <ele>605.8</ele>
        <time>2022-06-08 11:04:43</time>
      </trkpt>
      <trkpt lat="42.97745" lon="-0.41647">
        <ele>605.8</ele>
        <time>2022-06-08 11:04:44</time>
      </trkpt>
      <trkpt lat="42.97746" lon="-0.41642">
        <ele>606.2</ele>
        <time>2022-06-08 11:04:45</time>
      </trkpt>
      <trkpt lat="42.97747" lon="-0.41636">
        <ele>606.2</ele>
        <time>2022-06-08 11:04:46</time>
      </trkpt>
      <trkpt lat="42.97747" lon="-0.4163">
        <ele>606.6</ele>
        <time>2022-06-08 11:04:47</time>
      </trkpt>
      <trkpt lat="42.97747" lon="-0.41625">
        <ele>606.8</ele>
        <time>2022-06-08 11:04:48</time>
      </trkpt>
      <trkpt lat="42.97747" lon="-0.41625">
        <ele>607.2</ele>
        <time>2022-06-08 11:04:49</time>
      </trkpt>
      <trkpt lat="42.97746" lon="-0.41615">
        <ele>607.2</ele>
        <time>2022-06-08 11:04:50</time>
      </trkpt>
      <trkpt lat="42.97746" lon="-0.4161">
        <ele>607.4</ele>
        <time>2022-06-08 11:04:51</time>
      </trkpt>
      <trkpt lat="42.97746" lon="-0.41604">
        <ele>607.6</ele>
        <time>2022-06-08 11:04:52</time>
      </trkpt>
      <trkpt lat="42.97745" lon="-0.416">
        <ele>607.8</ele>
        <time>2022-06-08 11:04:53</time>
      </trkpt>
      <trkpt lat="42.97745" lon="-0.416">
        <ele>608</ele>
        <time>2022-06-08 11:04:54</time>
      </trkpt>
      <trkpt lat="42.97745" lon="-0.4159">
        <ele>608.2</ele>
        <time>2022-06-08 11:04:55</time>
      </trkpt>
      <trkpt lat="42.97745" lon="-0.41585">
        <ele>608.4</ele>
        <time>2022-06-08 11:04:56</time>
      </trkpt>
      <trkpt lat="42.97745" lon="-0.41579">
        <ele>608.8</ele>
        <time>2022-06-08 11:04:57</time>
      </trkpt>
      <trkpt lat="42.97745" lon="-0.41574">
        <ele>609.2</ele>
        <time>2022-06-08 11:04:58</time>
      </trkpt>
      <trkpt lat="42.97745" lon="-0.41569">
        <ele>609.4</ele>
        <time>2022-06-08 11:04:59</time>
      </trkpt>
      <trkpt lat="42.97745" lon="-0.41564">
        <ele>609.8</ele>
        <time>2022-06-08 11:05:00</time>
      </trkpt>
      <trkpt lat="42.97744" lon="-0.41559">
        <ele>610</ele>
        <time>2022-06-08 11:05:01</time>
      </trkpt>
      <trkpt lat="42.97744" lon="-0.41559">
        <ele>610.2</ele>
        <time>2022-06-08 11:05:02</time>
      </trkpt>
      <trkpt lat="42.97742" lon="-0.41547">
        <ele>610.4</ele>
        <time>2022-06-08 11:05:03</time>
      </trkpt>
      <trkpt lat="42.97741" lon="-0.41542">
        <ele>610.6</ele>
        <time>2022-06-08 11:05:04</time>
      </trkpt>
      <trkpt lat="42.9774" lon="-0.41537">
        <ele>610.6</ele>
        <time>2022-06-08 11:05:05</time>
      </trkpt>
      <trkpt lat="42.9774" lon="-0.41532">
        <ele>611</ele>
        <time>2022-06-08 11:05:06</time>
      </trkpt>
      <trkpt lat="42.9774" lon="-0.41527">
        <ele>611.2</ele>
        <time>2022-06-08 11:05:07</time>
      </trkpt>
      <trkpt lat="42.97741" lon="-0.41522">
        <ele>611.6</ele>
        <time>2022-06-08 11:05:08</time>
      </trkpt>
      <trkpt lat="42.97742" lon="-0.41517">
        <ele>611.6</ele>
        <time>2022-06-08 11:05:09</time>
      </trkpt>
      <trkpt lat="42.97743" lon="-0.41513">
        <ele>612</ele>
        <time>2022-06-08 11:05:10</time>
      </trkpt>
      <trkpt lat="42.97744" lon="-0.41508">
        <ele>612.2</ele>
        <time>2022-06-08 11:05:11</time>
      </trkpt>
      <trkpt lat="42.97745" lon="-0.41504">
        <ele>612.4</ele>
        <time>2022-06-08 11:05:12</time>
      </trkpt>
      <trkpt lat="42.97745" lon="-0.41498">
        <ele>612.6</ele>
        <time>2022-06-08 11:05:13</time>
      </trkpt>
      <trkpt lat="42.97746" lon="-0.41492">
        <ele>612.6</ele>
        <time>2022-06-08 11:05:14</time>
      </trkpt>
      <trkpt lat="42.97747" lon="-0.41486">
        <ele>613</ele>
        <time>2022-06-08 11:05:15</time>
      </trkpt>
      <trkpt lat="42.97746" lon="-0.4148">
        <ele>613.2</ele>
        <time>2022-06-08 11:05:16</time>
      </trkpt>
      <trkpt lat="42.97746" lon="-0.41474">
        <ele>613.6</ele>
        <time>2022-06-08 11:05:17</time>
      </trkpt>
      <trkpt lat="42.97746" lon="-0.41474">
        <ele>613.8</ele>
        <time>2022-06-08 11:05:18</time>
      </trkpt>
      <trkpt lat="42.97748" lon="-0.41462">
        <ele>614.2</ele>
        <time>2022-06-08 11:05:19</time>
      </trkpt>
      <trkpt lat="42.9775" lon="-0.41456">
        <ele>614</ele>
        <time>2022-06-08 11:05:20</time>
      </trkpt>
      <trkpt lat="42.97752" lon="-0.4145">
        <ele>614.4</ele>
        <time>2022-06-08 11:05:21</time>
      </trkpt>
      <trkpt lat="42.97753" lon="-0.41445">
        <ele>614.6</ele>
        <time>2022-06-08 11:05:22</time>
      </trkpt>
      <trkpt lat="42.97753" lon="-0.41445">
        <ele>614.8</ele>
        <time>2022-06-08 11:05:23</time>
      </trkpt>
      <trkpt lat="42.97756" lon="-0.41434">
        <ele>615</ele>
        <time>2022-06-08 11:05:24</time>
      </trkpt>
      <trkpt lat="42.97758" lon="-0.41429">
        <ele>615</ele>
        <time>2022-06-08 11:05:25</time>
      </trkpt>
      <trkpt lat="42.9776" lon="-0.41423">
        <ele>615.2</ele>
        <time>2022-06-08 11:05:26</time>
      </trkpt>
      <trkpt lat="42.97763" lon="-0.41417">
        <ele>615.6</ele>
        <time>2022-06-08 11:05:27</time>
      </trkpt>
      <trkpt lat="42.97763" lon="-0.41417">
        <ele>615.8</ele>
        <time>2022-06-08 11:05:28</time>
      </trkpt>
      <trkpt lat="42.97767" lon="-0.41407">
        <ele>615.8</ele>
        <time>2022-06-08 11:05:29</time>
      </trkpt>
      <trkpt lat="42.97769" lon="-0.41401">
        <ele>616</ele>
        <time>2022-06-08 11:05:30</time>
      </trkpt>
      <trkpt lat="42.97768" lon="-0.41396">
        <ele>616</ele>
        <time>2022-06-08 11:05:31</time>
      </trkpt>
      <trkpt lat="42.97769" lon="-0.4139">
        <ele>616.2</ele>
        <time>2022-06-08 11:05:32</time>
      </trkpt>
      <trkpt lat="42.97772" lon="-0.41384">
        <ele>616.4</ele>
        <time>2022-06-08 11:05:33</time>
      </trkpt>
      <trkpt lat="42.97775" lon="-0.41378">
        <ele>616.6</ele>
        <time>2022-06-08 11:05:34</time>
      </trkpt>
      <trkpt lat="42.97776" lon="-0.41372">
        <ele>616.8</ele>
        <time>2022-06-08 11:05:35</time>
      </trkpt>
      <trkpt lat="42.97778" lon="-0.41367">
        <ele>617</ele>
        <time>2022-06-08 11:05:36</time>
      </trkpt>
      <trkpt lat="42.97779" lon="-0.41361">
        <ele>617</ele>
        <time>2022-06-08 11:05:37</time>
      </trkpt>
      <trkpt lat="42.97778" lon="-0.41356">
        <ele>617.4</ele>
        <time>2022-06-08 11:05:38</time>
      </trkpt>
      <trkpt lat="42.97779" lon="-0.4135">
        <ele>617.4</ele>
        <time>2022-06-08 11:05:39</time>
      </trkpt>
      <trkpt lat="42.97781" lon="-0.41345">
        <ele>617.8</ele>
        <time>2022-06-08 11:05:40</time>
      </trkpt>
      <trkpt lat="42.97784" lon="-0.41339">
        <ele>618</ele>
        <time>2022-06-08 11:05:41</time>
      </trkpt>
      <trkpt lat="42.97783" lon="-0.41333">
        <ele>618.2</ele>
        <time>2022-06-08 11:05:42</time>
      </trkpt>
      <trkpt lat="42.97783" lon="-0.41327">
        <ele>618.4</ele>
        <time>2022-06-08 11:05:43</time>
      </trkpt>
      <trkpt lat="42.97783" lon="-0.41322">
        <ele>618.6</ele>
        <time>2022-06-08 11:05:44</time>
      </trkpt>
      <trkpt lat="42.97783" lon="-0.41316">
        <ele>618.8</ele>
        <time>2022-06-08 11:05:45</time>
      </trkpt>
      <trkpt lat="42.97784" lon="-0.4131">
        <ele>619</ele>
        <time>2022-06-08 11:05:46</time>
      </trkpt>
      <trkpt lat="42.97784" lon="-0.41305">
        <ele>619.2</ele>
        <time>2022-06-08 11:05:47</time>
      </trkpt>
      <trkpt lat="42.97785" lon="-0.41299">
        <ele>619.4</ele>
        <time>2022-06-08 11:05:48</time>
      </trkpt>
      <trkpt lat="42.97785" lon="-0.41294">
        <ele>619.8</ele>
        <time>2022-06-08 11:05:49</time>
      </trkpt>
      <trkpt lat="42.97786" lon="-0.41289">
        <ele>620.2</ele>
        <time>2022-06-08 11:05:50</time>
      </trkpt>
      <trkpt lat="42.97787" lon="-0.41283">
        <ele>620.4</ele>
        <time>2022-06-08 11:05:51</time>
      </trkpt>
      <trkpt lat="42.97788" lon="-0.41278">
        <ele>620.6</ele>
        <time>2022-06-08 11:05:52</time>
      </trkpt>
      <trkpt lat="42.9779" lon="-0.41273">
        <ele>621</ele>
        <time>2022-06-08 11:05:53</time>
      </trkpt>
      <trkpt lat="42.9779" lon="-0.41273">
        <ele>621</ele>
        <time>2022-06-08 11:05:54</time>
      </trkpt>
      <trkpt lat="42.97792" lon="-0.41263">
        <ele>621.4</ele>
        <time>2022-06-08 11:05:55</time>
      </trkpt>
      <trkpt lat="42.97793" lon="-0.41257">
        <ele>621.6</ele>
        <time>2022-06-08 11:05:56</time>
      </trkpt>
      <trkpt lat="42.97795" lon="-0.41252">
        <ele>621.8</ele>
        <time>2022-06-08 11:05:57</time>
      </trkpt>
      <trkpt lat="42.97797" lon="-0.41248">
        <ele>622</ele>
        <time>2022-06-08 11:05:58</time>
      </trkpt>
      <trkpt lat="42.97799" lon="-0.41243">
        <ele>622</ele>
        <time>2022-06-08 11:05:59</time>
      </trkpt>
      <trkpt lat="42.97801" lon="-0.41238">
        <ele>622.4</ele>
        <time>2022-06-08 11:06:00</time>
      </trkpt>
      <trkpt lat="42.97803" lon="-0.41233">
        <ele>622.6</ele>
        <time>2022-06-08 11:06:01</time>
      </trkpt>
      <trkpt lat="42.97805" lon="-0.41228">
        <ele>623</ele>
        <time>2022-06-08 11:06:02</time>
      </trkpt>
      <trkpt lat="42.97807" lon="-0.41222">
        <ele>623</ele>
        <time>2022-06-08 11:06:03</time>
      </trkpt>
      <trkpt lat="42.97809" lon="-0.41217">
        <ele>623.4</ele>
        <time>2022-06-08 11:06:04</time>
      </trkpt>
      <trkpt lat="42.97811" lon="-0.41212">
        <ele>623.4</ele>
        <time>2022-06-08 11:06:05</time>
      </trkpt>
      <trkpt lat="42.97812" lon="-0.41208">
        <ele>623.6</ele>
        <time>2022-06-08 11:06:06</time>
      </trkpt>
      <trkpt lat="42.97812" lon="-0.41208">
        <ele>623.8</ele>
        <time>2022-06-08 11:06:07</time>
      </trkpt>
      <trkpt lat="42.97814" lon="-0.41198">
        <ele>624</ele>
        <time>2022-06-08 11:06:08</time>
      </trkpt>
      <trkpt lat="42.97815" lon="-0.41193">
        <ele>624</ele>
        <time>2022-06-08 11:06:09</time>
      </trkpt>
      <trkpt lat="42.97816" lon="-0.41188">
        <ele>624.2</ele>
        <time>2022-06-08 11:06:10</time>
      </trkpt>
      <trkpt lat="42.97817" lon="-0.41183">
        <ele>624.8</ele>
        <time>2022-06-08 11:06:11</time>
      </trkpt>
      <trkpt lat="42.97818" lon="-0.41178">
        <ele>625.2</ele>
        <time>2022-06-08 11:06:12</time>
      </trkpt>
      <trkpt lat="42.97818" lon="-0.41172">
        <ele>625.6</ele>
        <time>2022-06-08 11:06:13</time>
      </trkpt>
      <trkpt lat="42.97818" lon="-0.41167">
        <ele>625.6</ele>
        <time>2022-06-08 11:06:14</time>
      </trkpt>
      <trkpt lat="42.97819" lon="-0.41161">
        <ele>626.2</ele>
        <time>2022-06-08 11:06:15</time>
      </trkpt>
      <trkpt lat="42.9782" lon="-0.41155">
        <ele>626.2</ele>
        <time>2022-06-08 11:06:16</time>
      </trkpt>
      <trkpt lat="42.9782" lon="-0.4115">
        <ele>626.6</ele>
        <time>2022-06-08 11:06:17</time>
      </trkpt>
      <trkpt lat="42.97821" lon="-0.41144">
        <ele>626.8</ele>
        <time>2022-06-08 11:06:18</time>
      </trkpt>
      <trkpt lat="42.97822" lon="-0.41139">
        <ele>627.2</ele>
        <time>2022-06-08 11:06:19</time>
      </trkpt>
      <trkpt lat="42.97822" lon="-0.41133">
        <ele>627.2</ele>
        <time>2022-06-08 11:06:20</time>
      </trkpt>
      <trkpt lat="42.97823" lon="-0.41127">
        <ele>627.6</ele>
        <time>2022-06-08 11:06:21</time>
      </trkpt>
      <trkpt lat="42.97824" lon="-0.41122">
        <ele>627.6</ele>
        <time>2022-06-08 11:06:22</time>
      </trkpt>
      <trkpt lat="42.97824" lon="-0.41122">
        <ele>627.8</ele>
        <time>2022-06-08 11:06:23</time>
      </trkpt>
      <trkpt lat="42.97826" lon="-0.41111">
        <ele>628</ele>
        <time>2022-06-08 11:06:24</time>
      </trkpt>
      <trkpt lat="42.97827" lon="-0.41106">
        <ele>628.2</ele>
        <time>2022-06-08 11:06:25</time>
      </trkpt>
      <trkpt lat="42.97828" lon="-0.41101">
        <ele>628.6</ele>
        <time>2022-06-08 11:06:26</time>
      </trkpt>
      <trkpt lat="42.97829" lon="-0.41097">
        <ele>628.8</ele>
        <time>2022-06-08 11:06:27</time>
      </trkpt>
      <trkpt lat="42.9783" lon="-0.41092">
        <ele>629</ele>
        <time>2022-06-08 11:06:28</time>
      </trkpt>
      <trkpt lat="42.97831" lon="-0.41088">
        <ele>629.2</ele>
        <time>2022-06-08 11:06:29</time>
      </trkpt>
      <trkpt lat="42.97832" lon="-0.41083">
        <ele>629.6</ele>
        <time>2022-06-08 11:06:30</time>
      </trkpt>
      <trkpt lat="42.97834" lon="-0.41077">
        <ele>629.6</ele>
        <time>2022-06-08 11:06:31</time>
      </trkpt>
      <trkpt lat="42.97835" lon="-0.41072">
        <ele>629.8</ele>
        <time>2022-06-08 11:06:32</time>
      </trkpt>
      <trkpt lat="42.97835" lon="-0.41066">
        <ele>629.8</ele>
        <time>2022-06-08 11:06:33</time>
      </trkpt>
      <trkpt lat="42.97836" lon="-0.4106">
        <ele>630.2</ele>
        <time>2022-06-08 11:06:34</time>
      </trkpt>
      <trkpt lat="42.97837" lon="-0.41055">
        <ele>630.2</ele>
        <time>2022-06-08 11:06:35</time>
      </trkpt>
      <trkpt lat="42.97837" lon="-0.41055">
        <ele>630.6</ele>
        <time>2022-06-08 11:06:36</time>
      </trkpt>
      <trkpt lat="42.97836" lon="-0.41043">
        <ele>630.8</ele>
        <time>2022-06-08 11:06:37</time>
      </trkpt>
      <trkpt lat="42.97835" lon="-0.41037">
        <ele>631</ele>
        <time>2022-06-08 11:06:38</time>
      </trkpt>
      <trkpt lat="42.97834" lon="-0.41031">
        <ele>631</ele>
        <time>2022-06-08 11:06:39</time>
      </trkpt>
      <trkpt lat="42.97833" lon="-0.41025">
        <ele>631.4</ele>
        <time>2022-06-08 11:06:40</time>
      </trkpt>
      <trkpt lat="42.97832" lon="-0.4102">
        <ele>631.6</ele>
        <time>2022-06-08 11:06:41</time>
      </trkpt>
      <trkpt lat="42.97831" lon="-0.41015">
        <ele>631.8</ele>
        <time>2022-06-08 11:06:42</time>
      </trkpt>
      <trkpt lat="42.9783" lon="-0.4101">
        <ele>632</ele>
        <time>2022-06-08 11:06:43</time>
      </trkpt>
      <trkpt lat="42.9783" lon="-0.4101">
        <ele>632.2</ele>
        <time>2022-06-08 11:06:44</time>
      </trkpt>
      <trkpt lat="42.97826" lon="-0.41">
        <ele>632.8</ele>
        <time>2022-06-08 11:06:45</time>
      </trkpt>
      <trkpt lat="42.97824" lon="-0.40995">
        <ele>632.8</ele>
        <time>2022-06-08 11:06:46</time>
      </trkpt>
      <trkpt lat="42.97821" lon="-0.4099">
        <ele>633</ele>
        <time>2022-06-08 11:06:47</time>
      </trkpt>
      <trkpt lat="42.97819" lon="-0.40986">
        <ele>633</ele>
        <time>2022-06-08 11:06:48</time>
      </trkpt>
      <trkpt lat="42.97817" lon="-0.40982">
        <ele>633.4</ele>
        <time>2022-06-08 11:06:49</time>
      </trkpt>
      <trkpt lat="42.97814" lon="-0.40978">
        <ele>633.6</ele>
        <time>2022-06-08 11:06:50</time>
      </trkpt>
      <trkpt lat="42.97812" lon="-0.40974">
        <ele>633.8</ele>
        <time>2022-06-08 11:06:51</time>
      </trkpt>
      <trkpt lat="42.97809" lon="-0.40969">
        <ele>633.8</ele>
        <time>2022-06-08 11:06:52</time>
      </trkpt>
      <trkpt lat="42.97807" lon="-0.40964">
        <ele>634.2</ele>
        <time>2022-06-08 11:06:53</time>
      </trkpt>
      <trkpt lat="42.97804" lon="-0.40959">
        <ele>635</ele>
        <time>2022-06-08 11:06:54</time>
      </trkpt>
      <trkpt lat="42.97802" lon="-0.40954">
        <ele>635.2</ele>
        <time>2022-06-08 11:06:55</time>
      </trkpt>
      <trkpt lat="42.97801" lon="-0.40949">
        <ele>635.6</ele>
        <time>2022-06-08 11:06:56</time>
      </trkpt>
      <trkpt lat="42.97799" lon="-0.40943">
        <ele>635.6</ele>
        <time>2022-06-08 11:06:57</time>
      </trkpt>
      <trkpt lat="42.97799" lon="-0.40937">
        <ele>635.8</ele>
        <time>2022-06-08 11:06:58</time>
      </trkpt>
      <trkpt lat="42.97797" lon="-0.40931">
        <ele>636</ele>
        <time>2022-06-08 11:06:59</time>
      </trkpt>
      <trkpt lat="42.97796" lon="-0.40926">
        <ele>636.2</ele>
        <time>2022-06-08 11:07:00</time>
      </trkpt>
      <trkpt lat="42.97796" lon="-0.4092">
        <ele>636.4</ele>
        <time>2022-06-08 11:07:01</time>
      </trkpt>
      <trkpt lat="42.97796" lon="-0.40914">
        <ele>636.8</ele>
        <time>2022-06-08 11:07:02</time>
      </trkpt>
      <trkpt lat="42.97795" lon="-0.40908">
        <ele>637</ele>
        <time>2022-06-08 11:07:03</time>
      </trkpt>
      <trkpt lat="42.97795" lon="-0.40903">
        <ele>637.2</ele>
        <time>2022-06-08 11:07:04</time>
      </trkpt>
      <trkpt lat="42.97795" lon="-0.40903">
        <ele>637.4</ele>
        <time>2022-06-08 11:07:05</time>
      </trkpt>
      <trkpt lat="42.97794" lon="-0.40892">
        <ele>637.6</ele>
        <time>2022-06-08 11:07:06</time>
      </trkpt>
      <trkpt lat="42.97794" lon="-0.40886">
        <ele>637.6</ele>
        <time>2022-06-08 11:07:07</time>
      </trkpt>
      <trkpt lat="42.97795" lon="-0.4088">
        <ele>637.8</ele>
        <time>2022-06-08 11:07:08</time>
      </trkpt>
      <trkpt lat="42.97795" lon="-0.40875">
        <ele>638.2</ele>
        <time>2022-06-08 11:07:09</time>
      </trkpt>
      <trkpt lat="42.97796" lon="-0.4087">
        <ele>638.4</ele>
        <time>2022-06-08 11:07:10</time>
      </trkpt>
      <trkpt lat="42.97796" lon="-0.40865">
        <ele>638.6</ele>
        <time>2022-06-08 11:07:11</time>
      </trkpt>
      <trkpt lat="42.97796" lon="-0.40859">
        <ele>639</ele>
        <time>2022-06-08 11:07:12</time>
      </trkpt>
      <trkpt lat="42.97795" lon="-0.40853">
        <ele>639.2</ele>
        <time>2022-06-08 11:07:13</time>
      </trkpt>
      <trkpt lat="42.97795" lon="-0.40847">
        <ele>639.8</ele>
        <time>2022-06-08 11:07:14</time>
      </trkpt>
      <trkpt lat="42.97795" lon="-0.40841">
        <ele>640</ele>
        <time>2022-06-08 11:07:15</time>
      </trkpt>
      <trkpt lat="42.97794" lon="-0.40835">
        <ele>640</ele>
        <time>2022-06-08 11:07:16</time>
      </trkpt>
      <trkpt lat="42.97794" lon="-0.4083">
        <ele>640.4</ele>
        <time>2022-06-08 11:07:17</time>
      </trkpt>
      <trkpt lat="42.97794" lon="-0.40823">
        <ele>640.6</ele>
        <time>2022-06-08 11:07:18</time>
      </trkpt>
      <trkpt lat="42.97793" lon="-0.40818">
        <ele>640.8</ele>
        <time>2022-06-08 11:07:19</time>
      </trkpt>
      <trkpt lat="42.97792" lon="-0.40811">
        <ele>641</ele>
        <time>2022-06-08 11:07:20</time>
      </trkpt>
      <trkpt lat="42.97791" lon="-0.40805">
        <ele>641.2</ele>
        <time>2022-06-08 11:07:21</time>
      </trkpt>
      <trkpt lat="42.97789" lon="-0.40798">
        <ele>641.4</ele>
        <time>2022-06-08 11:07:22</time>
      </trkpt>
      <trkpt lat="42.97787" lon="-0.40792">
        <ele>641.8</ele>
        <time>2022-06-08 11:07:23</time>
      </trkpt>
      <trkpt lat="42.97787" lon="-0.40792">
        <ele>642</ele>
        <time>2022-06-08 11:07:24</time>
      </trkpt>
      <trkpt lat="42.97782" lon="-0.4078">
        <ele>642.2</ele>
        <time>2022-06-08 11:07:25</time>
      </trkpt>
      <trkpt lat="42.9778" lon="-0.40775">
        <ele>642.2</ele>
        <time>2022-06-08 11:07:26</time>
      </trkpt>
      <trkpt lat="42.97777" lon="-0.40769">
        <ele>642.4</ele>
        <time>2022-06-08 11:07:27</time>
      </trkpt>
      <trkpt lat="42.97774" lon="-0.40764">
        <ele>642.4</ele>
        <time>2022-06-08 11:07:28</time>
      </trkpt>
      <trkpt lat="42.97774" lon="-0.40764">
        <ele>642.6</ele>
        <time>2022-06-08 11:07:29</time>
      </trkpt>
      <trkpt lat="42.97767" lon="-0.40755">
        <ele>642.8</ele>
        <time>2022-06-08 11:07:30</time>
      </trkpt>
      <trkpt lat="42.97764" lon="-0.40751">
        <ele>642.8</ele>
        <time>2022-06-08 11:07:31</time>
      </trkpt>
      <trkpt lat="42.9776" lon="-0.40747">
        <ele>643</ele>
        <time>2022-06-08 11:07:32</time>
      </trkpt>
      <trkpt lat="42.97756" lon="-0.40743">
        <ele>643</ele>
        <time>2022-06-08 11:07:33</time>
      </trkpt>
      <trkpt lat="42.97752" lon="-0.4074">
        <ele>643.2</ele>
        <time>2022-06-08 11:07:34</time>
      </trkpt>
      <trkpt lat="42.97747" lon="-0.40737">
        <ele>643.6</ele>
        <time>2022-06-08 11:07:35</time>
      </trkpt>
      <trkpt lat="42.97743" lon="-0.40733">
        <ele>643.8</ele>
        <time>2022-06-08 11:07:36</time>
      </trkpt>
      <trkpt lat="42.97739" lon="-0.4073">
        <ele>644</ele>
        <time>2022-06-08 11:07:37</time>
      </trkpt>
      <trkpt lat="42.97735" lon="-0.40727">
        <ele>644.4</ele>
        <time>2022-06-08 11:07:38</time>
      </trkpt>
      <trkpt lat="42.9773" lon="-0.40725">
        <ele>644.6</ele>
        <time>2022-06-08 11:07:39</time>
      </trkpt>
      <trkpt lat="42.97726" lon="-0.40722">
        <ele>644.6</ele>
        <time>2022-06-08 11:07:40</time>
      </trkpt>
      <trkpt lat="42.97722" lon="-0.40719">
        <ele>644.8</ele>
        <time>2022-06-08 11:07:41</time>
      </trkpt>
      <trkpt lat="42.97717" lon="-0.40716">
        <ele>644.8</ele>
        <time>2022-06-08 11:07:42</time>
      </trkpt>
      <trkpt lat="42.97714" lon="-0.40715">
        <ele>645.2</ele>
        <time>2022-06-08 11:07:43</time>
      </trkpt>
      <trkpt lat="42.97709" lon="-0.40711">
        <ele>645.4</ele>
        <time>2022-06-08 11:07:44</time>
      </trkpt>
      <trkpt lat="42.97705" lon="-0.40707">
        <ele>645.8</ele>
        <time>2022-06-08 11:07:45</time>
      </trkpt>
      <trkpt lat="42.97701" lon="-0.40703">
        <ele>645.8</ele>
        <time>2022-06-08 11:07:46</time>
      </trkpt>
      <trkpt lat="42.97701" lon="-0.40703">
        <ele>646</ele>
        <time>2022-06-08 11:07:47</time>
      </trkpt>
      <trkpt lat="42.97695" lon="-0.40694">
        <ele>646.2</ele>
        <time>2022-06-08 11:07:48</time>
      </trkpt>
      <trkpt lat="42.97693" lon="-0.40689">
        <ele>646.4</ele>
        <time>2022-06-08 11:07:49</time>
      </trkpt>
      <trkpt lat="42.9769" lon="-0.40683">
        <ele>646.6</ele>
        <time>2022-06-08 11:07:50</time>
      </trkpt>
      <trkpt lat="42.97688" lon="-0.40677">
        <ele>646.8</ele>
        <time>2022-06-08 11:07:51</time>
      </trkpt>
      <trkpt lat="42.97686" lon="-0.40672">
        <ele>647.2</ele>
        <time>2022-06-08 11:07:52</time>
      </trkpt>
      <trkpt lat="42.97684" lon="-0.40666">
        <ele>647.6</ele>
        <time>2022-06-08 11:07:53</time>
      </trkpt>
      <trkpt lat="42.97683" lon="-0.40662">
        <ele>647.6</ele>
        <time>2022-06-08 11:07:54</time>
      </trkpt>
      <trkpt lat="42.97683" lon="-0.40657">
        <ele>648</ele>
        <time>2022-06-08 11:07:55</time>
      </trkpt>
      <trkpt lat="42.97681" lon="-0.40651">
        <ele>648.4</ele>
        <time>2022-06-08 11:07:56</time>
      </trkpt>
      <trkpt lat="42.9768" lon="-0.40646">
        <ele>648.6</ele>
        <time>2022-06-08 11:07:57</time>
      </trkpt>
      <trkpt lat="42.9768" lon="-0.4064">
        <ele>649</ele>
        <time>2022-06-08 11:07:58</time>
      </trkpt>
      <trkpt lat="42.97679" lon="-0.40634">
        <ele>649</ele>
        <time>2022-06-08 11:07:59</time>
      </trkpt>
      <trkpt lat="42.97678" lon="-0.40629">
        <ele>649.4</ele>
        <time>2022-06-08 11:08:00</time>
      </trkpt>
      <trkpt lat="42.97676" lon="-0.40623">
        <ele>649.6</ele>
        <time>2022-06-08 11:08:01</time>
      </trkpt>
      <trkpt lat="42.97675" lon="-0.40617">
        <ele>650</ele>
        <time>2022-06-08 11:08:02</time>
      </trkpt>
      <trkpt lat="42.97674" lon="-0.40612">
        <ele>650</ele>
        <time>2022-06-08 11:08:03</time>
      </trkpt>
      <trkpt lat="42.97672" lon="-0.40606">
        <ele>650.2</ele>
        <time>2022-06-08 11:08:04</time>
      </trkpt>
      <trkpt lat="42.9767" lon="-0.406">
        <ele>650.4</ele>
        <time>2022-06-08 11:08:05</time>
      </trkpt>
      <trkpt lat="42.97669" lon="-0.40595">
        <ele>650.8</ele>
        <time>2022-06-08 11:08:06</time>
      </trkpt>
      <trkpt lat="42.97667" lon="-0.4059">
        <ele>650.8</ele>
        <time>2022-06-08 11:08:07</time>
      </trkpt>
      <trkpt lat="42.97667" lon="-0.4059">
        <ele>651.2</ele>
        <time>2022-06-08 11:08:08</time>
      </trkpt>
      <trkpt lat="42.97662" lon="-0.4058">
        <ele>651.4</ele>
        <time>2022-06-08 11:08:09</time>
      </trkpt>
      <trkpt lat="42.97659" lon="-0.40575">
        <ele>651.6</ele>
        <time>2022-06-08 11:08:10</time>
      </trkpt>
      <trkpt lat="42.97656" lon="-0.40571">
        <ele>651.8</ele>
        <time>2022-06-08 11:08:11</time>
      </trkpt>
      <trkpt lat="42.97654" lon="-0.40567">
        <ele>652</ele>
        <time>2022-06-08 11:08:12</time>
      </trkpt>
      <trkpt lat="42.9765" lon="-0.40562">
        <ele>652.2</ele>
        <time>2022-06-08 11:08:13</time>
      </trkpt>
      <trkpt lat="42.97647" lon="-0.40558">
        <ele>652.4</ele>
        <time>2022-06-08 11:08:14</time>
      </trkpt>
      <trkpt lat="42.97643" lon="-0.40554">
        <ele>652.8</ele>
        <time>2022-06-08 11:08:15</time>
      </trkpt>
      <trkpt lat="42.9764" lon="-0.4055">
        <ele>652.8</ele>
        <time>2022-06-08 11:08:16</time>
      </trkpt>
      <trkpt lat="42.97636" lon="-0.40547">
        <ele>653.2</ele>
        <time>2022-06-08 11:08:17</time>
      </trkpt>
      <trkpt lat="42.97633" lon="-0.40544">
        <ele>653.2</ele>
        <time>2022-06-08 11:08:18</time>
      </trkpt>
      <trkpt lat="42.97629" lon="-0.40541">
        <ele>653.4</ele>
        <time>2022-06-08 11:08:19</time>
      </trkpt>
      <trkpt lat="42.97625" lon="-0.40538">
        <ele>653.6</ele>
        <time>2022-06-08 11:08:20</time>
      </trkpt>
      <trkpt lat="42.97621" lon="-0.40535">
        <ele>653.6</ele>
        <time>2022-06-08 11:08:21</time>
      </trkpt>
      <trkpt lat="42.97617" lon="-0.40533">
        <ele>654</ele>
        <time>2022-06-08 11:08:22</time>
      </trkpt>
      <trkpt lat="42.97613" lon="-0.40531">
        <ele>654</ele>
        <time>2022-06-08 11:08:23</time>
      </trkpt>
      <trkpt lat="42.9761" lon="-0.40528">
        <ele>654.4</ele>
        <time>2022-06-08 11:08:24</time>
      </trkpt>
      <trkpt lat="42.97607" lon="-0.40527">
        <ele>655</ele>
        <time>2022-06-08 11:08:25</time>
      </trkpt>
      <trkpt lat="42.97603" lon="-0.40525">
        <ele>655.4</ele>
        <time>2022-06-08 11:08:26</time>
      </trkpt>
      <trkpt lat="42.976" lon="-0.40524">
        <ele>655.4</ele>
        <time>2022-06-08 11:08:27</time>
      </trkpt>
      <trkpt lat="42.97597" lon="-0.40523">
        <ele>655.8</ele>
        <time>2022-06-08 11:08:28</time>
      </trkpt>
      <trkpt lat="42.97594" lon="-0.40521">
        <ele>656</ele>
        <time>2022-06-08 11:08:29</time>
      </trkpt>
      <trkpt lat="42.97591" lon="-0.40519">
        <ele>656.4</ele>
        <time>2022-06-08 11:08:30</time>
      </trkpt>
      <trkpt lat="42.97587" lon="-0.40517">
        <ele>656.6</ele>
        <time>2022-06-08 11:08:31</time>
      </trkpt>
      <trkpt lat="42.97583" lon="-0.40513">
        <ele>657</ele>
        <time>2022-06-08 11:08:32</time>
      </trkpt>
      <trkpt lat="42.97579" lon="-0.4051">
        <ele>657</ele>
        <time>2022-06-08 11:08:33</time>
      </trkpt>
      <trkpt lat="42.97579" lon="-0.4051">
        <ele>657.4</ele>
        <time>2022-06-08 11:08:34</time>
      </trkpt>
      <trkpt lat="42.97572" lon="-0.40503">
        <ele>657.4</ele>
        <time>2022-06-08 11:08:35</time>
      </trkpt>
      <trkpt lat="42.97568" lon="-0.40501">
        <ele>657.6</ele>
        <time>2022-06-08 11:08:36</time>
      </trkpt>
      <trkpt lat="42.97568" lon="-0.40501">
        <ele>657.8</ele>
        <time>2022-06-08 11:08:37</time>
      </trkpt>
      <trkpt lat="42.97562" lon="-0.40495">
        <ele>658</ele>
        <time>2022-06-08 11:08:38</time>
      </trkpt>
      <trkpt lat="42.97559" lon="-0.40492">
        <ele>658.2</ele>
        <time>2022-06-08 11:08:39</time>
      </trkpt>
      <trkpt lat="42.97556" lon="-0.40488">
        <ele>658.2</ele>
        <time>2022-06-08 11:08:40</time>
      </trkpt>
      <trkpt lat="42.97553" lon="-0.40485">
        <ele>658.6</ele>
        <time>2022-06-08 11:08:41</time>
      </trkpt>
      <trkpt lat="42.9755" lon="-0.40482">
        <ele>658.8</ele>
        <time>2022-06-08 11:08:42</time>
      </trkpt>
      <trkpt lat="42.97547" lon="-0.40477">
        <ele>658.8</ele>
        <time>2022-06-08 11:08:43</time>
      </trkpt>
      <trkpt lat="42.97544" lon="-0.40474">
        <ele>658.8</ele>
        <time>2022-06-08 11:08:44</time>
      </trkpt>
      <trkpt lat="42.97541" lon="-0.40471">
        <ele>659.4</ele>
        <time>2022-06-08 11:08:45</time>
      </trkpt>
      <trkpt lat="42.97538" lon="-0.40467">
        <ele>659.6</ele>
        <time>2022-06-08 11:08:46</time>
      </trkpt>
      <trkpt lat="42.97535" lon="-0.40463">
        <ele>660.2</ele>
        <time>2022-06-08 11:08:47</time>
      </trkpt>
      <trkpt lat="42.97532" lon="-0.40459">
        <ele>660.4</ele>
        <time>2022-06-08 11:08:48</time>
      </trkpt>
      <trkpt lat="42.97532" lon="-0.40459">
        <ele>660.8</ele>
        <time>2022-06-08 11:08:49</time>
      </trkpt>
      <trkpt lat="42.97525" lon="-0.40452">
        <ele>661</ele>
        <time>2022-06-08 11:08:50</time>
      </trkpt>
      <trkpt lat="42.97522" lon="-0.40448">
        <ele>661</ele>
        <time>2022-06-08 11:08:51</time>
      </trkpt>
      <trkpt lat="42.97519" lon="-0.40444">
        <ele>661.2</ele>
        <time>2022-06-08 11:08:52</time>
      </trkpt>
      <trkpt lat="42.97519" lon="-0.40444">
        <ele>661.4</ele>
        <time>2022-06-08 11:08:53</time>
      </trkpt>
      <trkpt lat="42.97513" lon="-0.40436">
        <ele>661.6</ele>
        <time>2022-06-08 11:08:54</time>
      </trkpt>
      <trkpt lat="42.97511" lon="-0.40431">
        <ele>661.8</ele>
        <time>2022-06-08 11:08:55</time>
      </trkpt>
      <trkpt lat="42.97507" lon="-0.40427">
        <ele>662</ele>
        <time>2022-06-08 11:08:56</time>
      </trkpt>
      <trkpt lat="42.97504" lon="-0.40423">
        <ele>662</ele>
        <time>2022-06-08 11:08:57</time>
      </trkpt>
      <trkpt lat="42.97501" lon="-0.40419">
        <ele>662.2</ele>
        <time>2022-06-08 11:08:58</time>
      </trkpt>
      <trkpt lat="42.97499" lon="-0.40415">
        <ele>662.2</ele>
        <time>2022-06-08 11:08:59</time>
      </trkpt>
      <trkpt lat="42.97497" lon="-0.4041">
        <ele>662.6</ele>
        <time>2022-06-08 11:09:00</time>
      </trkpt>
      <trkpt lat="42.97497" lon="-0.4041">
        <ele>662.8</ele>
        <time>2022-06-08 11:09:01</time>
      </trkpt>
      <trkpt lat="42.97494" lon="-0.40401">
        <ele>663</ele>
        <time>2022-06-08 11:09:02</time>
      </trkpt>
      <trkpt lat="42.97492" lon="-0.40395">
        <ele>663.2</ele>
        <time>2022-06-08 11:09:03</time>
      </trkpt>
      <trkpt lat="42.97491" lon="-0.4039">
        <ele>663.4</ele>
        <time>2022-06-08 11:09:04</time>
      </trkpt>
      <trkpt lat="42.97491" lon="-0.40384">
        <ele>663.6</ele>
        <time>2022-06-08 11:09:05</time>
      </trkpt>
      <trkpt lat="42.9749" lon="-0.40378">
        <ele>664.2</ele>
        <time>2022-06-08 11:09:06</time>
      </trkpt>
      <trkpt lat="42.97489" lon="-0.40373">
        <ele>664.4</ele>
        <time>2022-06-08 11:09:07</time>
      </trkpt>
      <trkpt lat="42.97488" lon="-0.40368">
        <ele>664.6</ele>
        <time>2022-06-08 11:09:08</time>
      </trkpt>
      <trkpt lat="42.97487" lon="-0.40362">
        <ele>664.8</ele>
        <time>2022-06-08 11:09:09</time>
      </trkpt>
      <trkpt lat="42.97485" lon="-0.40357">
        <ele>665</ele>
        <time>2022-06-08 11:09:10</time>
      </trkpt>
      <trkpt lat="42.97484" lon="-0.40352">
        <ele>665.2</ele>
        <time>2022-06-08 11:09:11</time>
      </trkpt>
      <trkpt lat="42.97484" lon="-0.40352">
        <ele>665.2</ele>
        <time>2022-06-08 11:09:12</time>
      </trkpt>
      <trkpt lat="42.97482" lon="-0.40341">
        <ele>665.6</ele>
        <time>2022-06-08 11:09:13</time>
      </trkpt>
      <trkpt lat="42.9748" lon="-0.40336">
        <ele>665.8</ele>
        <time>2022-06-08 11:09:14</time>
      </trkpt>
      <trkpt lat="42.97478" lon="-0.40332">
        <ele>666.2</ele>
        <time>2022-06-08 11:09:15</time>
      </trkpt>
      <trkpt lat="42.97476" lon="-0.40327">
        <ele>666.4</ele>
        <time>2022-06-08 11:09:16</time>
      </trkpt>
      <trkpt lat="42.97474" lon="-0.40323">
        <ele>666.8</ele>
        <time>2022-06-08 11:09:17</time>
      </trkpt>
      <trkpt lat="42.97473" lon="-0.40318">
        <ele>666.8</ele>
        <time>2022-06-08 11:09:18</time>
      </trkpt>
      <trkpt lat="42.97472" lon="-0.40313">
        <ele>667.2</ele>
        <time>2022-06-08 11:09:19</time>
      </trkpt>
      <trkpt lat="42.9747" lon="-0.40308">
        <ele>667.4</ele>
        <time>2022-06-08 11:09:20</time>
      </trkpt>
      <trkpt lat="42.97469" lon="-0.40303">
        <ele>667.8</ele>
        <time>2022-06-08 11:09:21</time>
      </trkpt>
      <trkpt lat="42.97468" lon="-0.40298">
        <ele>668</ele>
        <time>2022-06-08 11:09:22</time>
      </trkpt>
      <trkpt lat="42.97468" lon="-0.40292">
        <ele>668.2</ele>
        <time>2022-06-08 11:09:23</time>
      </trkpt>
      <trkpt lat="42.97467" lon="-0.40287">
        <ele>668.4</ele>
        <time>2022-06-08 11:09:24</time>
      </trkpt>
      <trkpt lat="42.97466" lon="-0.40281">
        <ele>668.8</ele>
        <time>2022-06-08 11:09:25</time>
      </trkpt>
      <trkpt lat="42.97466" lon="-0.40276">
        <ele>669.2</ele>
        <time>2022-06-08 11:09:26</time>
      </trkpt>
      <trkpt lat="42.97465" lon="-0.4027">
        <ele>669.2</ele>
        <time>2022-06-08 11:09:27</time>
      </trkpt>
      <trkpt lat="42.97465" lon="-0.4027">
        <ele>669.4</ele>
        <time>2022-06-08 11:09:28</time>
      </trkpt>
      <trkpt lat="42.97465" lon="-0.40259">
        <ele>669.4</ele>
        <time>2022-06-08 11:09:29</time>
      </trkpt>
      <trkpt lat="42.97465" lon="-0.40253">
        <ele>669.8</ele>
        <time>2022-06-08 11:09:30</time>
      </trkpt>
      <trkpt lat="42.97465" lon="-0.40248">
        <ele>670</ele>
        <time>2022-06-08 11:09:31</time>
      </trkpt>
      <trkpt lat="42.97465" lon="-0.40242">
        <ele>670.2</ele>
        <time>2022-06-08 11:09:32</time>
      </trkpt>
      <trkpt lat="42.97465" lon="-0.40236">
        <ele>670.4</ele>
        <time>2022-06-08 11:09:33</time>
      </trkpt>
      <trkpt lat="42.97465" lon="-0.40231">
        <ele>670.6</ele>
        <time>2022-06-08 11:09:34</time>
      </trkpt>
      <trkpt lat="42.97465" lon="-0.40225">
        <ele>670.8</ele>
        <time>2022-06-08 11:09:35</time>
      </trkpt>
      <trkpt lat="42.97465" lon="-0.40219">
        <ele>671</ele>
        <time>2022-06-08 11:09:36</time>
      </trkpt>
      <trkpt lat="42.97464" lon="-0.40214">
        <ele>671.2</ele>
        <time>2022-06-08 11:09:37</time>
      </trkpt>
      <trkpt lat="42.97463" lon="-0.40208">
        <ele>671.4</ele>
        <time>2022-06-08 11:09:38</time>
      </trkpt>
      <trkpt lat="42.97463" lon="-0.40203">
        <ele>671.6</ele>
        <time>2022-06-08 11:09:39</time>
      </trkpt>
      <trkpt lat="42.97462" lon="-0.40198">
        <ele>671.8</ele>
        <time>2022-06-08 11:09:40</time>
      </trkpt>
      <trkpt lat="42.97461" lon="-0.40193">
        <ele>672</ele>
        <time>2022-06-08 11:09:41</time>
      </trkpt>
      <trkpt lat="42.9746" lon="-0.40188">
        <ele>672.4</ele>
        <time>2022-06-08 11:09:42</time>
      </trkpt>
      <trkpt lat="42.97459" lon="-0.40183">
        <ele>672.6</ele>
        <time>2022-06-08 11:09:43</time>
      </trkpt>
      <trkpt lat="42.97458" lon="-0.40178">
        <ele>672.8</ele>
        <time>2022-06-08 11:09:44</time>
      </trkpt>
      <trkpt lat="42.97457" lon="-0.40173">
        <ele>673</ele>
        <time>2022-06-08 11:09:45</time>
      </trkpt>
      <trkpt lat="42.97456" lon="-0.40168">
        <ele>673</ele>
        <time>2022-06-08 11:09:46</time>
      </trkpt>
      <trkpt lat="42.97456" lon="-0.40163">
        <ele>673.2</ele>
        <time>2022-06-08 11:09:47</time>
      </trkpt>
      <trkpt lat="42.97455" lon="-0.40157">
        <ele>673.6</ele>
        <time>2022-06-08 11:09:48</time>
      </trkpt>
      <trkpt lat="42.97454" lon="-0.40152">
        <ele>674</ele>
        <time>2022-06-08 11:09:49</time>
      </trkpt>
      <trkpt lat="42.97453" lon="-0.40146">
        <ele>674.2</ele>
        <time>2022-06-08 11:09:50</time>
      </trkpt>
      <trkpt lat="42.97452" lon="-0.40142">
        <ele>674.4</ele>
        <time>2022-06-08 11:09:51</time>
      </trkpt>
      <trkpt lat="42.97452" lon="-0.40142">
        <ele>674.6</ele>
        <time>2022-06-08 11:09:52</time>
      </trkpt>
      <trkpt lat="42.97449" lon="-0.40132">
        <ele>675</ele>
        <time>2022-06-08 11:09:53</time>
      </trkpt>
      <trkpt lat="42.97449" lon="-0.40127">
        <ele>675.2</ele>
        <time>2022-06-08 11:09:54</time>
      </trkpt>
      <trkpt lat="42.97448" lon="-0.40122">
        <ele>675.4</ele>
        <time>2022-06-08 11:09:55</time>
      </trkpt>
      <trkpt lat="42.97447" lon="-0.40117">
        <ele>675.6</ele>
        <time>2022-06-08 11:09:56</time>
      </trkpt>
      <trkpt lat="42.97446" lon="-0.40111">
        <ele>676</ele>
        <time>2022-06-08 11:09:57</time>
      </trkpt>
      <trkpt lat="42.97445" lon="-0.40107">
        <ele>676.4</ele>
        <time>2022-06-08 11:09:58</time>
      </trkpt>
      <trkpt lat="42.97443" lon="-0.40103">
        <ele>676.6</ele>
        <time>2022-06-08 11:09:59</time>
      </trkpt>
      <trkpt lat="42.97441" lon="-0.40098">
        <ele>677.2</ele>
        <time>2022-06-08 11:10:00</time>
      </trkpt>
      <trkpt lat="42.9744" lon="-0.40094">
        <ele>677.4</ele>
        <time>2022-06-08 11:10:01</time>
      </trkpt>
      <trkpt lat="42.9744" lon="-0.40089">
        <ele>677.6</ele>
        <time>2022-06-08 11:10:02</time>
      </trkpt>
      <trkpt lat="42.97441" lon="-0.40085">
        <ele>677.8</ele>
        <time>2022-06-08 11:10:03</time>
      </trkpt>
      <trkpt lat="42.97442" lon="-0.4008">
        <ele>678</ele>
        <time>2022-06-08 11:10:04</time>
      </trkpt>
      <trkpt lat="42.97442" lon="-0.40074">
        <ele>678.2</ele>
        <time>2022-06-08 11:10:05</time>
      </trkpt>
      <trkpt lat="42.97442" lon="-0.40068">
        <ele>678.2</ele>
        <time>2022-06-08 11:10:06</time>
      </trkpt>
      <trkpt lat="42.97441" lon="-0.40062">
        <ele>678.4</ele>
        <time>2022-06-08 11:10:07</time>
      </trkpt>
      <trkpt lat="42.97441" lon="-0.40057">
        <ele>678.6</ele>
        <time>2022-06-08 11:10:08</time>
      </trkpt>
      <trkpt lat="42.97442" lon="-0.40052">
        <ele>678.8</ele>
        <time>2022-06-08 11:10:09</time>
      </trkpt>
      <trkpt lat="42.97442" lon="-0.40048">
        <ele>679</ele>
        <time>2022-06-08 11:10:10</time>
      </trkpt>
      <trkpt lat="42.97443" lon="-0.40042">
        <ele>679</ele>
        <time>2022-06-08 11:10:11</time>
      </trkpt>
      <trkpt lat="42.97444" lon="-0.40037">
        <ele>679.2</ele>
        <time>2022-06-08 11:10:12</time>
      </trkpt>
      <trkpt lat="42.97444" lon="-0.40037">
        <ele>679.6</ele>
        <time>2022-06-08 11:10:13</time>
      </trkpt>
      <trkpt lat="42.97445" lon="-0.40022">
        <ele>679.8</ele>
        <time>2022-06-08 11:10:14</time>
      </trkpt>
      <trkpt lat="42.97445" lon="-0.40016">
        <ele>680.2</ele>
        <time>2022-06-08 11:10:15</time>
      </trkpt>
      <trkpt lat="42.97446" lon="-0.40009">
        <ele>680.2</ele>
        <time>2022-06-08 11:10:16</time>
      </trkpt>
      <trkpt lat="42.97448" lon="-0.40002">
        <ele>680.4</ele>
        <time>2022-06-08 11:10:17</time>
      </trkpt>
      <trkpt lat="42.9745" lon="-0.39995">
        <ele>680.6</ele>
        <time>2022-06-08 11:10:18</time>
      </trkpt>
      <trkpt lat="42.9745" lon="-0.39989">
        <ele>681</ele>
        <time>2022-06-08 11:10:19</time>
      </trkpt>
      <trkpt lat="42.97449" lon="-0.39982">
        <ele>681.2</ele>
        <time>2022-06-08 11:10:20</time>
      </trkpt>
      <trkpt lat="42.97449" lon="-0.39977">
        <ele>681.6</ele>
        <time>2022-06-08 11:10:21</time>
      </trkpt>
      <trkpt lat="42.97449" lon="-0.39971">
        <ele>681.8</ele>
        <time>2022-06-08 11:10:22</time>
      </trkpt>
      <trkpt lat="42.97451" lon="-0.39964">
        <ele>682</ele>
        <time>2022-06-08 11:10:23</time>
      </trkpt>
      <trkpt lat="42.9745" lon="-0.39958">
        <ele>682.2</ele>
        <time>2022-06-08 11:10:24</time>
      </trkpt>
      <trkpt lat="42.97451" lon="-0.39951">
        <ele>682.4</ele>
        <time>2022-06-08 11:10:25</time>
      </trkpt>
      <trkpt lat="42.9745" lon="-0.39948">
        <ele>682.8</ele>
        <time>2022-06-08 11:10:26</time>
      </trkpt>
      <trkpt lat="42.9745" lon="-0.39943">
        <ele>683</ele>
        <time>2022-06-08 11:10:27</time>
      </trkpt>
      <trkpt lat="42.97448" lon="-0.39937">
        <ele>683.2</ele>
        <time>2022-06-08 11:10:28</time>
      </trkpt>
      <trkpt lat="42.97449" lon="-0.3993">
        <ele>683.2</ele>
        <time>2022-06-08 11:10:29</time>
      </trkpt>
      <trkpt lat="42.97449" lon="-0.39924">
        <ele>683.6</ele>
        <time>2022-06-08 11:10:30</time>
      </trkpt>
      <trkpt lat="42.97448" lon="-0.39919">
        <ele>683.8</ele>
        <time>2022-06-08 11:10:31</time>
      </trkpt>
      <trkpt lat="42.97446" lon="-0.39914">
        <ele>684</ele>
        <time>2022-06-08 11:10:32</time>
      </trkpt>
      <trkpt lat="42.97445" lon="-0.39908">
        <ele>684.2</ele>
        <time>2022-06-08 11:10:33</time>
      </trkpt>
      <trkpt lat="42.97443" lon="-0.39904">
        <ele>684.4</ele>
        <time>2022-06-08 11:10:34</time>
      </trkpt>
      <trkpt lat="42.97441" lon="-0.39899">
        <ele>684.8</ele>
        <time>2022-06-08 11:10:35</time>
      </trkpt>
      <trkpt lat="42.9744" lon="-0.39894">
        <ele>685.2</ele>
        <time>2022-06-08 11:10:36</time>
      </trkpt>
      <trkpt lat="42.97439" lon="-0.39889">
        <ele>685.4</ele>
        <time>2022-06-08 11:10:37</time>
      </trkpt>
      <trkpt lat="42.97439" lon="-0.39883">
        <ele>685.6</ele>
        <time>2022-06-08 11:10:38</time>
      </trkpt>
      <trkpt lat="42.97438" lon="-0.39878">
        <ele>685.8</ele>
        <time>2022-06-08 11:10:39</time>
      </trkpt>
      <trkpt lat="42.97438" lon="-0.39872">
        <ele>685.8</ele>
        <time>2022-06-08 11:10:40</time>
      </trkpt>
      <trkpt lat="42.97437" lon="-0.39867">
        <ele>686.4</ele>
        <time>2022-06-08 11:10:41</time>
      </trkpt>
      <trkpt lat="42.97436" lon="-0.39862">
        <ele>686.6</ele>
        <time>2022-06-08 11:10:42</time>
      </trkpt>
      <trkpt lat="42.97436" lon="-0.39857">
        <ele>686.8</ele>
        <time>2022-06-08 11:10:43</time>
      </trkpt>
      <trkpt lat="42.97435" lon="-0.39852">
        <ele>687</ele>
        <time>2022-06-08 11:10:44</time>
      </trkpt>
      <trkpt lat="42.97435" lon="-0.39846">
        <ele>687.2</ele>
        <time>2022-06-08 11:10:45</time>
      </trkpt>
      <trkpt lat="42.97434" lon="-0.3984">
        <ele>687.4</ele>
        <time>2022-06-08 11:10:46</time>
      </trkpt>
      <trkpt lat="42.97433" lon="-0.39835">
        <ele>687.6</ele>
        <time>2022-06-08 11:10:47</time>
      </trkpt>
      <trkpt lat="42.97432" lon="-0.3983">
        <ele>687.8</ele>
        <time>2022-06-08 11:10:48</time>
      </trkpt>
      <trkpt lat="42.97431" lon="-0.39824">
        <ele>688.2</ele>
        <time>2022-06-08 11:10:49</time>
      </trkpt>
      <trkpt lat="42.97431" lon="-0.39818">
        <ele>688.2</ele>
        <time>2022-06-08 11:10:50</time>
      </trkpt>
      <trkpt lat="42.97429" lon="-0.39813">
        <ele>688.4</ele>
        <time>2022-06-08 11:10:51</time>
      </trkpt>
      <trkpt lat="42.97427" lon="-0.39807">
        <ele>688.6</ele>
        <time>2022-06-08 11:10:52</time>
      </trkpt>
      <trkpt lat="42.97426" lon="-0.39802">
        <ele>688.8</ele>
        <time>2022-06-08 11:10:53</time>
      </trkpt>
      <trkpt lat="42.97424" lon="-0.39797">
        <ele>689</ele>
        <time>2022-06-08 11:10:54</time>
      </trkpt>
      <trkpt lat="42.97421" lon="-0.39793">
        <ele>689.2</ele>
        <time>2022-06-08 11:10:55</time>
      </trkpt>
      <trkpt lat="42.97419" lon="-0.39788">
        <ele>689.6</ele>
        <time>2022-06-08 11:10:56</time>
      </trkpt>
      <trkpt lat="42.97416" lon="-0.39784">
        <ele>689.8</ele>
        <time>2022-06-08 11:10:57</time>
      </trkpt>
      <trkpt lat="42.97416" lon="-0.39784">
        <ele>690</ele>
        <time>2022-06-08 11:10:58</time>
      </trkpt>
      <trkpt lat="42.9741" lon="-0.39777">
        <ele>690.2</ele>
        <time>2022-06-08 11:10:59</time>
      </trkpt>
      <trkpt lat="42.97407" lon="-0.39774">
        <ele>690.4</ele>
        <time>2022-06-08 11:11:00</time>
      </trkpt>
      <trkpt lat="42.97404" lon="-0.39771">
        <ele>690.6</ele>
        <time>2022-06-08 11:11:01</time>
      </trkpt>
      <trkpt lat="42.97401" lon="-0.39768">
        <ele>691</ele>
        <time>2022-06-08 11:11:02</time>
      </trkpt>
      <trkpt lat="42.97398" lon="-0.39764">
        <ele>691</ele>
        <time>2022-06-08 11:11:03</time>
      </trkpt>
      <trkpt lat="42.97395" lon="-0.39759">
        <ele>691.4</ele>
        <time>2022-06-08 11:11:04</time>
      </trkpt>
      <trkpt lat="42.97393" lon="-0.39755">
        <ele>691.6</ele>
        <time>2022-06-08 11:11:05</time>
      </trkpt>
      <trkpt lat="42.9739" lon="-0.3975">
        <ele>691.8</ele>
        <time>2022-06-08 11:11:06</time>
      </trkpt>
      <trkpt lat="42.97388" lon="-0.39746">
        <ele>691.8</ele>
        <time>2022-06-08 11:11:07</time>
      </trkpt>
      <trkpt lat="42.97386" lon="-0.39742">
        <ele>691.8</ele>
        <time>2022-06-08 11:11:08</time>
      </trkpt>
      <trkpt lat="42.97385" lon="-0.39736">
        <ele>692</ele>
        <time>2022-06-08 11:11:09</time>
      </trkpt>
      <trkpt lat="42.97385" lon="-0.39732">
        <ele>692</ele>
        <time>2022-06-08 11:11:10</time>
      </trkpt>
      <trkpt lat="42.97385" lon="-0.39727">
        <ele>692.4</ele>
        <time>2022-06-08 11:11:11</time>
      </trkpt>
      <trkpt lat="42.97385" lon="-0.39721">
        <ele>692.6</ele>
        <time>2022-06-08 11:11:12</time>
      </trkpt>
      <trkpt lat="42.97385" lon="-0.39716">
        <ele>692.8</ele>
        <time>2022-06-08 11:11:13</time>
      </trkpt>
      <trkpt lat="42.97386" lon="-0.39711">
        <ele>693</ele>
        <time>2022-06-08 11:11:14</time>
      </trkpt>
      <trkpt lat="42.97386" lon="-0.39706">
        <ele>693.2</ele>
        <time>2022-06-08 11:11:15</time>
      </trkpt>
      <trkpt lat="42.97387" lon="-0.39701">
        <ele>693.4</ele>
        <time>2022-06-08 11:11:16</time>
      </trkpt>
      <trkpt lat="42.97387" lon="-0.39701">
        <ele>693.8</ele>
        <time>2022-06-08 11:11:17</time>
      </trkpt>
      <trkpt lat="42.9739" lon="-0.39691">
        <ele>694</ele>
        <time>2022-06-08 11:11:18</time>
      </trkpt>
      <trkpt lat="42.97392" lon="-0.39687">
        <ele>694.2</ele>
        <time>2022-06-08 11:11:19</time>
      </trkpt>
      <trkpt lat="42.97394" lon="-0.39681">
        <ele>694.4</ele>
        <time>2022-06-08 11:11:20</time>
      </trkpt>
      <trkpt lat="42.97396" lon="-0.39676">
        <ele>694.6</ele>
        <time>2022-06-08 11:11:21</time>
      </trkpt>
      <trkpt lat="42.97398" lon="-0.39671">
        <ele>694.6</ele>
        <time>2022-06-08 11:11:22</time>
      </trkpt>
      <trkpt lat="42.97399" lon="-0.39666">
        <ele>695</ele>
        <time>2022-06-08 11:11:23</time>
      </trkpt>
      <trkpt lat="42.97401" lon="-0.3966">
        <ele>695.2</ele>
        <time>2022-06-08 11:11:24</time>
      </trkpt>
      <trkpt lat="42.97402" lon="-0.39655">
        <ele>695.6</ele>
        <time>2022-06-08 11:11:25</time>
      </trkpt>
      <trkpt lat="42.97402" lon="-0.39649">
        <ele>695.8</ele>
        <time>2022-06-08 11:11:26</time>
      </trkpt>
      <trkpt lat="42.97402" lon="-0.39643">
        <ele>696</ele>
        <time>2022-06-08 11:11:27</time>
      </trkpt>
      <trkpt lat="42.97402" lon="-0.39637">
        <ele>696.2</ele>
        <time>2022-06-08 11:11:28</time>
      </trkpt>
      <trkpt lat="42.97402" lon="-0.39632">
        <ele>696.4</ele>
        <time>2022-06-08 11:11:29</time>
      </trkpt>
      <trkpt lat="42.97403" lon="-0.39626">
        <ele>696.6</ele>
        <time>2022-06-08 11:11:30</time>
      </trkpt>
      <trkpt lat="42.97403" lon="-0.39621">
        <ele>696.8</ele>
        <time>2022-06-08 11:11:31</time>
      </trkpt>
      <trkpt lat="42.97403" lon="-0.39615">
        <ele>697</ele>
        <time>2022-06-08 11:11:32</time>
      </trkpt>
      <trkpt lat="42.97403" lon="-0.3961">
        <ele>697.2</ele>
        <time>2022-06-08 11:11:33</time>
      </trkpt>
      <trkpt lat="42.97404" lon="-0.39604">
        <ele>697.4</ele>
        <time>2022-06-08 11:11:34</time>
      </trkpt>
      <trkpt lat="42.97406" lon="-0.39599">
        <ele>697.4</ele>
        <time>2022-06-08 11:11:35</time>
      </trkpt>
      <trkpt lat="42.97408" lon="-0.39594">
        <ele>697.8</ele>
        <time>2022-06-08 11:11:36</time>
      </trkpt>
      <trkpt lat="42.97409" lon="-0.39589">
        <ele>698</ele>
        <time>2022-06-08 11:11:37</time>
      </trkpt>
      <trkpt lat="42.97411" lon="-0.39584">
        <ele>698.2</ele>
        <time>2022-06-08 11:11:38</time>
      </trkpt>
      <trkpt lat="42.97413" lon="-0.39579">
        <ele>698.6</ele>
        <time>2022-06-08 11:11:39</time>
      </trkpt>
      <trkpt lat="42.97414" lon="-0.39574">
        <ele>698.8</ele>
        <time>2022-06-08 11:11:40</time>
      </trkpt>
      <trkpt lat="42.97416" lon="-0.39569">
        <ele>698.8</ele>
        <time>2022-06-08 11:11:41</time>
      </trkpt>
      <trkpt lat="42.97417" lon="-0.39564">
        <ele>699</ele>
        <time>2022-06-08 11:11:42</time>
      </trkpt>
      <trkpt lat="42.97417" lon="-0.39559">
        <ele>699.4</ele>
        <time>2022-06-08 11:11:43</time>
      </trkpt>
      <trkpt lat="42.97416" lon="-0.39553">
        <ele>699.4</ele>
        <time>2022-06-08 11:11:44</time>
      </trkpt>
      <trkpt lat="42.97415" lon="-0.39547">
        <ele>699.6</ele>
        <time>2022-06-08 11:11:45</time>
      </trkpt>
      <trkpt lat="42.97414" lon="-0.39542">
        <ele>699.6</ele>
        <time>2022-06-08 11:11:46</time>
      </trkpt>
      <trkpt lat="42.97413" lon="-0.39537">
        <ele>700.2</ele>
        <time>2022-06-08 11:11:47</time>
      </trkpt>
      <trkpt lat="42.97412" lon="-0.39532">
        <ele>700.2</ele>
        <time>2022-06-08 11:11:48</time>
      </trkpt>
      <trkpt lat="42.97411" lon="-0.39527">
        <ele>700.6</ele>
        <time>2022-06-08 11:11:49</time>
      </trkpt>
      <trkpt lat="42.97409" lon="-0.39521">
        <ele>700.6</ele>
        <time>2022-06-08 11:11:50</time>
      </trkpt>
      <trkpt lat="42.97407" lon="-0.39516">
        <ele>700.6</ele>
        <time>2022-06-08 11:11:51</time>
      </trkpt>
      <trkpt lat="42.97405" lon="-0.39511">
        <ele>700.8</ele>
        <time>2022-06-08 11:11:52</time>
      </trkpt>
      <trkpt lat="42.97404" lon="-0.39506">
        <ele>701</ele>
        <time>2022-06-08 11:11:53</time>
      </trkpt>
      <trkpt lat="42.97403" lon="-0.39501">
        <ele>701</ele>
        <time>2022-06-08 11:11:54</time>
      </trkpt>
      <trkpt lat="42.97402" lon="-0.39495">
        <ele>701.2</ele>
        <time>2022-06-08 11:11:55</time>
      </trkpt>
      <trkpt lat="42.97401" lon="-0.3949">
        <ele>701.6</ele>
        <time>2022-06-08 11:11:56</time>
      </trkpt>
      <trkpt lat="42.97401" lon="-0.39484">
        <ele>702</ele>
        <time>2022-06-08 11:11:57</time>
      </trkpt>
      <trkpt lat="42.974" lon="-0.3948">
        <ele>702.4</ele>
        <time>2022-06-08 11:11:58</time>
      </trkpt>
      <trkpt lat="42.974" lon="-0.39473">
        <ele>702.4</ele>
        <time>2022-06-08 11:11:59</time>
      </trkpt>
      <trkpt lat="42.974" lon="-0.39467">
        <ele>702.6</ele>
        <time>2022-06-08 11:12:00</time>
      </trkpt>
      <trkpt lat="42.974" lon="-0.39461">
        <ele>702.8</ele>
        <time>2022-06-08 11:12:01</time>
      </trkpt>
      <trkpt lat="42.97399" lon="-0.39455">
        <ele>703</ele>
        <time>2022-06-08 11:12:02</time>
      </trkpt>
      <trkpt lat="42.97399" lon="-0.3945">
        <ele>703.4</ele>
        <time>2022-06-08 11:12:03</time>
      </trkpt>
      <trkpt lat="42.97398" lon="-0.39444">
        <ele>703.6</ele>
        <time>2022-06-08 11:12:04</time>
      </trkpt>
      <trkpt lat="42.97398" lon="-0.39439">
        <ele>703.8</ele>
        <time>2022-06-08 11:12:05</time>
      </trkpt>
      <trkpt lat="42.97399" lon="-0.39433">
        <ele>704</ele>
        <time>2022-06-08 11:12:06</time>
      </trkpt>
      <trkpt lat="42.974" lon="-0.39426">
        <ele>704.2</ele>
        <time>2022-06-08 11:12:07</time>
      </trkpt>
      <trkpt lat="42.974" lon="-0.39422">
        <ele>704.4</ele>
        <time>2022-06-08 11:12:08</time>
      </trkpt>
      <trkpt lat="42.97399" lon="-0.39415">
        <ele>704.6</ele>
        <time>2022-06-08 11:12:09</time>
      </trkpt>
      <trkpt lat="42.97397" lon="-0.3941">
        <ele>704.8</ele>
        <time>2022-06-08 11:12:10</time>
      </trkpt>
      <trkpt lat="42.97396" lon="-0.39405">
        <ele>705</ele>
        <time>2022-06-08 11:12:11</time>
      </trkpt>
      <trkpt lat="42.97394" lon="-0.394">
        <ele>705.4</ele>
        <time>2022-06-08 11:12:12</time>
      </trkpt>
      <trkpt lat="42.97392" lon="-0.39396">
        <ele>705.6</ele>
        <time>2022-06-08 11:12:13</time>
      </trkpt>
      <trkpt lat="42.9739" lon="-0.39391">
        <ele>705.8</ele>
        <time>2022-06-08 11:12:14</time>
      </trkpt>
      <trkpt lat="42.97387" lon="-0.39387">
        <ele>706</ele>
        <time>2022-06-08 11:12:15</time>
      </trkpt>
      <trkpt lat="42.97384" lon="-0.39383">
        <ele>706.2</ele>
        <time>2022-06-08 11:12:16</time>
      </trkpt>
      <trkpt lat="42.9738" lon="-0.3938">
        <ele>706.6</ele>
        <time>2022-06-08 11:12:17</time>
      </trkpt>
      <trkpt lat="42.97376" lon="-0.39378">
        <ele>706.6</ele>
        <time>2022-06-08 11:12:18</time>
      </trkpt>
      <trkpt lat="42.97372" lon="-0.39377">
        <ele>706.8</ele>
        <time>2022-06-08 11:12:19</time>
      </trkpt>
      <trkpt lat="42.97368" lon="-0.39375">
        <ele>707</ele>
        <time>2022-06-08 11:12:20</time>
      </trkpt>
      <trkpt lat="42.97364" lon="-0.39374">
        <ele>707.2</ele>
        <time>2022-06-08 11:12:21</time>
      </trkpt>
      <trkpt lat="42.97361" lon="-0.39372">
        <ele>707.4</ele>
        <time>2022-06-08 11:12:22</time>
      </trkpt>
      <trkpt lat="42.97357" lon="-0.39371">
        <ele>707.6</ele>
        <time>2022-06-08 11:12:23</time>
      </trkpt>
      <trkpt lat="42.97353" lon="-0.39369">
        <ele>707.6</ele>
        <time>2022-06-08 11:12:24</time>
      </trkpt>
      <trkpt lat="42.9735" lon="-0.39368">
        <ele>707.8</ele>
        <time>2022-06-08 11:12:25</time>
      </trkpt>
      <trkpt lat="42.97347" lon="-0.39365">
        <ele>707.8</ele>
        <time>2022-06-08 11:12:26</time>
      </trkpt>
      <trkpt lat="42.97344" lon="-0.39363">
        <ele>708.4</ele>
        <time>2022-06-08 11:12:27</time>
      </trkpt>
      <trkpt lat="42.97341" lon="-0.39361">
        <ele>708.8</ele>
        <time>2022-06-08 11:12:28</time>
      </trkpt>
      <trkpt lat="42.97338" lon="-0.39359">
        <ele>709.2</ele>
        <time>2022-06-08 11:12:29</time>
      </trkpt>
      <trkpt lat="42.97335" lon="-0.39357">
        <ele>709.6</ele>
        <time>2022-06-08 11:12:30</time>
      </trkpt>
      <trkpt lat="42.97332" lon="-0.39356">
        <ele>709.8</ele>
        <time>2022-06-08 11:12:31</time>
      </trkpt>
      <trkpt lat="42.97329" lon="-0.39354">
        <ele>710.4</ele>
        <time>2022-06-08 11:12:32</time>
      </trkpt>
      <trkpt lat="42.97326" lon="-0.39352">
        <ele>710.6</ele>
        <time>2022-06-08 11:12:33</time>
      </trkpt>
      <trkpt lat="42.97323" lon="-0.3935">
        <ele>711</ele>
        <time>2022-06-08 11:12:34</time>
      </trkpt>
      <trkpt lat="42.9732" lon="-0.39348">
        <ele>711.2</ele>
        <time>2022-06-08 11:12:35</time>
      </trkpt>
      <trkpt lat="42.97318" lon="-0.39346">
        <ele>711.6</ele>
        <time>2022-06-08 11:12:36</time>
      </trkpt>
      <trkpt lat="42.97314" lon="-0.39345">
        <ele>711.8</ele>
        <time>2022-06-08 11:12:37</time>
      </trkpt>
      <trkpt lat="42.97312" lon="-0.39342">
        <ele>711.8</ele>
        <time>2022-06-08 11:12:38</time>
      </trkpt>
      <trkpt lat="42.97309" lon="-0.39341">
        <ele>712</ele>
        <time>2022-06-08 11:12:39</time>
      </trkpt>
      <trkpt lat="42.97305" lon="-0.39339">
        <ele>712.6</ele>
        <time>2022-06-08 11:12:40</time>
      </trkpt>
      <trkpt lat="42.97302" lon="-0.39338">
        <ele>712.8</ele>
        <time>2022-06-08 11:12:41</time>
      </trkpt>
      <trkpt lat="42.973" lon="-0.39335">
        <ele>713</ele>
        <time>2022-06-08 11:12:42</time>
      </trkpt>
      <trkpt lat="42.97298" lon="-0.39333">
        <ele>713.2</ele>
        <time>2022-06-08 11:12:43</time>
      </trkpt>
      <trkpt lat="42.97296" lon="-0.3933">
        <ele>713.4</ele>
        <time>2022-06-08 11:12:44</time>
      </trkpt>
      <trkpt lat="42.97293" lon="-0.39327">
        <ele>713.6</ele>
        <time>2022-06-08 11:12:45</time>
      </trkpt>
      <trkpt lat="42.97291" lon="-0.39325">
        <ele>713.6</ele>
        <time>2022-06-08 11:12:46</time>
      </trkpt>
      <trkpt lat="42.9729" lon="-0.39323">
        <ele>713.8</ele>
        <time>2022-06-08 11:12:47</time>
      </trkpt>
      <trkpt lat="42.97288" lon="-0.39322">
        <ele>714</ele>
        <time>2022-06-08 11:12:48</time>
      </trkpt>
      <trkpt lat="42.97285" lon="-0.39319">
        <ele>714.4</ele>
        <time>2022-06-08 11:12:49</time>
      </trkpt>
      <trkpt lat="42.97284" lon="-0.39317">
        <ele>714.6</ele>
        <time>2022-06-08 11:12:50</time>
      </trkpt>
      <trkpt lat="42.97282" lon="-0.39315">
        <ele>715</ele>
        <time>2022-06-08 11:12:51</time>
      </trkpt>
      <trkpt lat="42.97281" lon="-0.39314">
        <ele>715.2</ele>
        <time>2022-06-08 11:12:52</time>
      </trkpt>
      <trkpt lat="42.9728" lon="-0.39313">
        <ele>715.4</ele>
        <time>2022-06-08 11:12:53</time>
      </trkpt>
      <trkpt lat="42.97279" lon="-0.39311">
        <ele>715.6</ele>
        <time>2022-06-08 11:12:54</time>
      </trkpt>
      <trkpt lat="42.97277" lon="-0.3931">
        <ele>716</ele>
        <time>2022-06-08 11:12:55</time>
      </trkpt>
      <trkpt lat="42.97275" lon="-0.39308">
        <ele>716.4</ele>
        <time>2022-06-08 11:12:56</time>
      </trkpt>
      <trkpt lat="42.97273" lon="-0.39306">
        <ele>716.4</ele>
        <time>2022-06-08 11:12:57</time>
      </trkpt>
      <trkpt lat="42.97272" lon="-0.39304">
        <ele>716.8</ele>
        <time>2022-06-08 11:12:58</time>
      </trkpt>
      <trkpt lat="42.9727" lon="-0.39302">
        <ele>717</ele>
        <time>2022-06-08 11:12:59</time>
      </trkpt>
      <trkpt lat="42.97268" lon="-0.39301">
        <ele>717</ele>
        <time>2022-06-08 11:13:00</time>
      </trkpt>
      <trkpt lat="42.97267" lon="-0.39298">
        <ele>717.6</ele>
        <time>2022-06-08 11:13:01</time>
      </trkpt>
      <trkpt lat="42.97266" lon="-0.39296">
        <ele>717.6</ele>
        <time>2022-06-08 11:13:02</time>
      </trkpt>
      <trkpt lat="42.97265" lon="-0.39294">
        <ele>717.8</ele>
        <time>2022-06-08 11:13:03</time>
      </trkpt>
      <trkpt lat="42.97263" lon="-0.39292">
        <ele>718</ele>
        <time>2022-06-08 11:13:04</time>
      </trkpt>
      <trkpt lat="42.97262" lon="-0.3929">
        <ele>718.2</ele>
        <time>2022-06-08 11:13:05</time>
      </trkpt>
      <trkpt lat="42.9726" lon="-0.39288">
        <ele>718.4</ele>
        <time>2022-06-08 11:13:06</time>
      </trkpt>
      <trkpt lat="42.97258" lon="-0.39286">
        <ele>718.6</ele>
        <time>2022-06-08 11:13:07</time>
      </trkpt>
      <trkpt lat="42.97256" lon="-0.39284">
        <ele>719</ele>
        <time>2022-06-08 11:13:08</time>
      </trkpt>
      <trkpt lat="42.97255" lon="-0.39282">
        <ele>719.2</ele>
        <time>2022-06-08 11:13:09</time>
      </trkpt>
      <trkpt lat="42.97253" lon="-0.3928">
        <ele>719.6</ele>
        <time>2022-06-08 11:13:10</time>
      </trkpt>
      <trkpt lat="42.97251" lon="-0.39278">
        <ele>719.8</ele>
        <time>2022-06-08 11:13:11</time>
      </trkpt>
      <trkpt lat="42.97249" lon="-0.39276">
        <ele>720.4</ele>
        <time>2022-06-08 11:13:12</time>
      </trkpt>
      <trkpt lat="42.97248" lon="-0.39274">
        <ele>720.6</ele>
        <time>2022-06-08 11:13:13</time>
      </trkpt>
      <trkpt lat="42.97246" lon="-0.39271">
        <ele>720.8</ele>
        <time>2022-06-08 11:13:14</time>
      </trkpt>
      <trkpt lat="42.97244" lon="-0.39269">
        <ele>721</ele>
        <time>2022-06-08 11:13:15</time>
      </trkpt>
      <trkpt lat="42.97242" lon="-0.39266">
        <ele>721</ele>
        <time>2022-06-08 11:13:16</time>
      </trkpt>
      <trkpt lat="42.9724" lon="-0.39263">
        <ele>721.2</ele>
        <time>2022-06-08 11:13:17</time>
      </trkpt>
      <trkpt lat="42.97238" lon="-0.3926">
        <ele>721.2</ele>
        <time>2022-06-08 11:13:18</time>
      </trkpt>
      <trkpt lat="42.97236" lon="-0.39257">
        <ele>721.4</ele>
        <time>2022-06-08 11:13:19</time>
      </trkpt>
      <trkpt lat="42.97234" lon="-0.39254">
        <ele>721.4</ele>
        <time>2022-06-08 11:13:20</time>
      </trkpt>
      <trkpt lat="42.97232" lon="-0.39251">
        <ele>721.6</ele>
        <time>2022-06-08 11:13:21</time>
      </trkpt>
      <trkpt lat="42.97229" lon="-0.39248">
        <ele>721.6</ele>
        <time>2022-06-08 11:13:22</time>
      </trkpt>
      <trkpt lat="42.97227" lon="-0.39244">
        <ele>722</ele>
        <time>2022-06-08 11:13:23</time>
      </trkpt>
      <trkpt lat="42.97225" lon="-0.39241">
        <ele>722.4</ele>
        <time>2022-06-08 11:13:24</time>
      </trkpt>
      <trkpt lat="42.97223" lon="-0.39239">
        <ele>723</ele>
        <time>2022-06-08 11:13:25</time>
      </trkpt>
      <trkpt lat="42.97221" lon="-0.39235">
        <ele>723.2</ele>
        <time>2022-06-08 11:13:26</time>
      </trkpt>
      <trkpt lat="42.97219" lon="-0.39232">
        <ele>723.6</ele>
        <time>2022-06-08 11:13:27</time>
      </trkpt>
      <trkpt lat="42.97217" lon="-0.39229">
        <ele>723.8</ele>
        <time>2022-06-08 11:13:28</time>
      </trkpt>
      <trkpt lat="42.97215" lon="-0.39226">
        <ele>724</ele>
        <time>2022-06-08 11:13:29</time>
      </trkpt>
      <trkpt lat="42.97212" lon="-0.39223">
        <ele>724.2</ele>
        <time>2022-06-08 11:13:30</time>
      </trkpt>
      <trkpt lat="42.9721" lon="-0.39221">
        <ele>724.4</ele>
        <time>2022-06-08 11:13:31</time>
      </trkpt>
      <trkpt lat="42.97208" lon="-0.39218">
        <ele>725</ele>
        <time>2022-06-08 11:13:32</time>
      </trkpt>
      <trkpt lat="42.97207" lon="-0.39214">
        <ele>725.2</ele>
        <time>2022-06-08 11:13:33</time>
      </trkpt>
      <trkpt lat="42.97205" lon="-0.39211">
        <ele>725.6</ele>
        <time>2022-06-08 11:13:34</time>
      </trkpt>
      <trkpt lat="42.97204" lon="-0.39208">
        <ele>725.8</ele>
        <time>2022-06-08 11:13:35</time>
      </trkpt>
      <trkpt lat="42.97202" lon="-0.39204">
        <ele>726.4</ele>
        <time>2022-06-08 11:13:36</time>
      </trkpt>
      <trkpt lat="42.972" lon="-0.39201">
        <ele>726.6</ele>
        <time>2022-06-08 11:13:37</time>
      </trkpt>
      <trkpt lat="42.97199" lon="-0.39198">
        <ele>727</ele>
        <time>2022-06-08 11:13:38</time>
      </trkpt>
      <trkpt lat="42.97198" lon="-0.39195">
        <ele>727.2</ele>
        <time>2022-06-08 11:13:39</time>
      </trkpt>
      <trkpt lat="42.97197" lon="-0.39191">
        <ele>727.6</ele>
        <time>2022-06-08 11:13:40</time>
      </trkpt>
      <trkpt lat="42.97197" lon="-0.39187">
        <ele>727.8</ele>
        <time>2022-06-08 11:13:41</time>
      </trkpt>
      <trkpt lat="42.97196" lon="-0.39183">
        <ele>728</ele>
        <time>2022-06-08 11:13:42</time>
      </trkpt>
      <trkpt lat="42.97196" lon="-0.39179">
        <ele>728.2</ele>
        <time>2022-06-08 11:13:43</time>
      </trkpt>
      <trkpt lat="42.97196" lon="-0.39175">
        <ele>728.8</ele>
        <time>2022-06-08 11:13:44</time>
      </trkpt>
      <trkpt lat="42.97196" lon="-0.39173">
        <ele>729.4</ele>
        <time>2022-06-08 11:13:45</time>
      </trkpt>
      <trkpt lat="42.97195" lon="-0.39169">
        <ele>729.6</ele>
        <time>2022-06-08 11:13:46</time>
      </trkpt>
      <trkpt lat="42.97195" lon="-0.39166">
        <ele>729.8</ele>
        <time>2022-06-08 11:13:47</time>
      </trkpt>
      <trkpt lat="42.97197" lon="-0.3916">
        <ele>729.8</ele>
        <time>2022-06-08 11:13:48</time>
      </trkpt>
      <trkpt lat="42.97199" lon="-0.39156">
        <ele>729.8</ele>
        <time>2022-06-08 11:13:49</time>
      </trkpt>
      <trkpt lat="42.97199" lon="-0.39151">
        <ele>730</ele>
        <time>2022-06-08 11:13:50</time>
      </trkpt>
      <trkpt lat="42.97199" lon="-0.39146">
        <ele>730.4</ele>
        <time>2022-06-08 11:13:51</time>
      </trkpt>
      <trkpt lat="42.97201" lon="-0.39142">
        <ele>730.4</ele>
        <time>2022-06-08 11:13:52</time>
      </trkpt>
      <trkpt lat="42.97203" lon="-0.39136">
        <ele>730.6</ele>
        <time>2022-06-08 11:13:53</time>
      </trkpt>
      <trkpt lat="42.97204" lon="-0.3913">
        <ele>730.6</ele>
        <time>2022-06-08 11:13:54</time>
      </trkpt>
      <trkpt lat="42.97206" lon="-0.39125">
        <ele>731</ele>
        <time>2022-06-08 11:13:55</time>
      </trkpt>
      <trkpt lat="42.97208" lon="-0.39121">
        <ele>731</ele>
        <time>2022-06-08 11:13:56</time>
      </trkpt>
      <trkpt lat="42.97209" lon="-0.39116">
        <ele>731.2</ele>
        <time>2022-06-08 11:13:57</time>
      </trkpt>
      <trkpt lat="42.97208" lon="-0.39114">
        <ele>731.4</ele>
        <time>2022-06-08 11:13:58</time>
      </trkpt>
      <trkpt lat="42.97204" lon="-0.39113">
        <ele>731.6</ele>
        <time>2022-06-08 11:13:59</time>
      </trkpt>
      <trkpt lat="42.97202" lon="-0.39111">
        <ele>731.8</ele>
        <time>2022-06-08 11:14:00</time>
      </trkpt>
      <trkpt lat="42.97198" lon="-0.3911">
        <ele>732</ele>
        <time>2022-06-08 11:14:01</time>
      </trkpt>
      <trkpt lat="42.97196" lon="-0.39108">
        <ele>732.4</ele>
        <time>2022-06-08 11:14:02</time>
      </trkpt>
      <trkpt lat="42.97195" lon="-0.39108">
        <ele>732.6</ele>
        <time>2022-06-08 11:14:03</time>
      </trkpt>
      <trkpt lat="42.97193" lon="-0.39107">
        <ele>733</ele>
        <time>2022-06-08 11:14:04</time>
      </trkpt>
      <trkpt lat="42.97192" lon="-0.39106">
        <ele>733</ele>
        <time>2022-06-08 11:14:05</time>
      </trkpt>
      <trkpt lat="42.97191" lon="-0.39106">
        <ele>733.4</ele>
        <time>2022-06-08 11:14:06</time>
      </trkpt>
      <trkpt lat="42.97191" lon="-0.39106">
        <ele>733.6</ele>
        <time>2022-06-08 11:14:07</time>
      </trkpt>
      <trkpt lat="42.97192" lon="-0.39106">
        <ele>733.8</ele>
        <time>2022-06-08 11:14:08</time>
      </trkpt>
      <trkpt lat="42.97192" lon="-0.39106">
        <ele>734</ele>
        <time>2022-06-08 11:14:09</time>
      </trkpt>
      <trkpt lat="42.97192" lon="-0.39106">
        <ele>734</ele>
        <time>2022-06-08 11:14:10</time>
      </trkpt>
      <trkpt lat="42.97193" lon="-0.39106">
        <ele>734</ele>
        <time>2022-06-08 11:14:11</time>
      </trkpt>
      <trkpt lat="42.97194" lon="-0.39106">
        <ele>734.2</ele>
        <time>2022-06-08 11:14:12</time>
      </trkpt>
      <trkpt lat="42.97196" lon="-0.39108">
        <ele>734.2</ele>
        <time>2022-06-08 11:14:13</time>
      </trkpt>
      <trkpt lat="42.97199" lon="-0.3911">
        <ele>734.2</ele>
        <time>2022-06-08 11:14:14</time>
      </trkpt>
      <trkpt lat="42.97201" lon="-0.39112">
        <ele>734.2</ele>
        <time>2022-06-08 11:14:15</time>
      </trkpt>
      <trkpt lat="42.97204" lon="-0.39115">
        <ele>734.2</ele>
        <time>2022-06-08 11:14:16</time>
      </trkpt>
      <trkpt lat="42.97207" lon="-0.39119">
        <ele>734</ele>
        <time>2022-06-08 11:14:17</time>
      </trkpt>
      <trkpt lat="42.97211" lon="-0.39122">
        <ele>734</ele>
        <time>2022-06-08 11:14:18</time>
      </trkpt>
      <trkpt lat="42.97215" lon="-0.39126">
        <ele>733.8</ele>
        <time>2022-06-08 11:14:19</time>
      </trkpt>
      <trkpt lat="42.97215" lon="-0.39126">
        <ele>733.8</ele>
        <time>2022-06-08 11:14:20</time>
      </trkpt>
      <trkpt lat="42.97223" lon="-0.39137">
        <ele>733.6</ele>
        <time>2022-06-08 11:14:21</time>
      </trkpt>
      <trkpt lat="42.97227" lon="-0.39144">
        <ele>733.4</ele>
        <time>2022-06-08 11:14:22</time>
      </trkpt>
      <trkpt lat="42.97231" lon="-0.3915">
        <ele>732.6</ele>
        <time>2022-06-08 11:14:23</time>
      </trkpt>
      <trkpt lat="42.97235" lon="-0.39156">
        <ele>732.4</ele>
        <time>2022-06-08 11:14:24</time>
      </trkpt>
      <trkpt lat="42.97239" lon="-0.39163">
        <ele>732</ele>
        <time>2022-06-08 11:14:25</time>
      </trkpt>
      <trkpt lat="42.97244" lon="-0.3917">
        <ele>731.8</ele>
        <time>2022-06-08 11:14:26</time>
      </trkpt>
      <trkpt lat="42.97248" lon="-0.39178">
        <ele>730.8</ele>
        <time>2022-06-08 11:14:27</time>
      </trkpt>
      <trkpt lat="42.97252" lon="-0.39184">
        <ele>729.8</ele>
        <time>2022-06-08 11:14:28</time>
      </trkpt>
      <trkpt lat="42.97256" lon="-0.3919">
        <ele>728.6</ele>
        <time>2022-06-08 11:14:29</time>
      </trkpt>
      <trkpt lat="42.9726" lon="-0.39195">
        <ele>728</ele>
        <time>2022-06-08 11:14:30</time>
      </trkpt>
      <trkpt lat="42.97264" lon="-0.392">
        <ele>727.4</ele>
        <time>2022-06-08 11:14:31</time>
      </trkpt>
      <trkpt lat="42.97267" lon="-0.39203">
        <ele>726.8</ele>
        <time>2022-06-08 11:14:32</time>
      </trkpt>
      <trkpt lat="42.97271" lon="-0.39202">
        <ele>726.2</ele>
        <time>2022-06-08 11:14:33</time>
      </trkpt>
      <trkpt lat="42.97275" lon="-0.39198">
        <ele>725.2</ele>
        <time>2022-06-08 11:14:34</time>
      </trkpt>
      <trkpt lat="42.97278" lon="-0.39195">
        <ele>725</ele>
        <time>2022-06-08 11:14:35</time>
      </trkpt>
      <trkpt lat="42.97281" lon="-0.3919">
        <ele>724.8</ele>
        <time>2022-06-08 11:14:36</time>
      </trkpt>
      <trkpt lat="42.97284" lon="-0.39186">
        <ele>724.8</ele>
        <time>2022-06-08 11:14:37</time>
      </trkpt>
      <trkpt lat="42.97286" lon="-0.39183">
        <ele>724.6</ele>
        <time>2022-06-08 11:14:38</time>
      </trkpt>
      <trkpt lat="42.9729" lon="-0.3918">
        <ele>724.6</ele>
        <time>2022-06-08 11:14:39</time>
      </trkpt>
      <trkpt lat="42.97293" lon="-0.39177">
        <ele>724.6</ele>
        <time>2022-06-08 11:14:40</time>
      </trkpt>
      <trkpt lat="42.97296" lon="-0.39174">
        <ele>724.6</ele>
        <time>2022-06-08 11:14:41</time>
      </trkpt>
      <trkpt lat="42.97299" lon="-0.39173">
        <ele>724.8</ele>
        <time>2022-06-08 11:14:42</time>
      </trkpt>
      <trkpt lat="42.97302" lon="-0.39171">
        <ele>724.8</ele>
        <time>2022-06-08 11:14:43</time>
      </trkpt>
      <trkpt lat="42.97304" lon="-0.39168">
        <ele>725.2</ele>
        <time>2022-06-08 11:14:44</time>
      </trkpt>
      <trkpt lat="42.97308" lon="-0.39164">
        <ele>725.4</ele>
        <time>2022-06-08 11:14:45</time>
      </trkpt>
      <trkpt lat="42.97309" lon="-0.39159">
        <ele>725.6</ele>
        <time>2022-06-08 11:14:46</time>
      </trkpt>
      <trkpt lat="42.97312" lon="-0.39157">
        <ele>726</ele>
        <time>2022-06-08 11:14:47</time>
      </trkpt>
      <trkpt lat="42.97315" lon="-0.39154">
        <ele>726</ele>
        <time>2022-06-08 11:14:48</time>
      </trkpt>
      <trkpt lat="42.97318" lon="-0.39149">
        <ele>726.4</ele>
        <time>2022-06-08 11:14:49</time>
      </trkpt>
      <trkpt lat="42.9732" lon="-0.39145">
        <ele>726.6</ele>
        <time>2022-06-08 11:14:50</time>
      </trkpt>
      <trkpt lat="42.97322" lon="-0.39141">
        <ele>727.2</ele>
        <time>2022-06-08 11:14:51</time>
      </trkpt>
      <trkpt lat="42.97323" lon="-0.39138">
        <ele>727.4</ele>
        <time>2022-06-08 11:14:52</time>
      </trkpt>
      <trkpt lat="42.97323" lon="-0.39134">
        <ele>727.8</ele>
        <time>2022-06-08 11:14:53</time>
      </trkpt>
      <trkpt lat="42.97324" lon="-0.3913">
        <ele>728</ele>
        <time>2022-06-08 11:14:54</time>
      </trkpt>
      <trkpt lat="42.97324" lon="-0.39125">
        <ele>728.2</ele>
        <time>2022-06-08 11:14:55</time>
      </trkpt>
      <trkpt lat="42.97325" lon="-0.3912">
        <ele>728.4</ele>
        <time>2022-06-08 11:14:56</time>
      </trkpt>
      <trkpt lat="42.97324" lon="-0.39117">
        <ele>728.4</ele>
        <time>2022-06-08 11:14:57</time>
      </trkpt>
      <trkpt lat="42.97323" lon="-0.39113">
        <ele>728.6</ele>
        <time>2022-06-08 11:14:58</time>
      </trkpt>
      <trkpt lat="42.97321" lon="-0.3911">
        <ele>728.8</ele>
        <time>2022-06-08 11:14:59</time>
      </trkpt>
      <trkpt lat="42.97319" lon="-0.39107">
        <ele>729</ele>
        <time>2022-06-08 11:15:00</time>
      </trkpt>
      <trkpt lat="42.97318" lon="-0.39103">
        <ele>729.4</ele>
        <time>2022-06-08 11:15:01</time>
      </trkpt>
      <trkpt lat="42.97316" lon="-0.391">
        <ele>729.8</ele>
        <time>2022-06-08 11:15:02</time>
      </trkpt>
      <trkpt lat="42.97314" lon="-0.39097">
        <ele>730</ele>
        <time>2022-06-08 11:15:03</time>
      </trkpt>
      <trkpt lat="42.97313" lon="-0.39093">
        <ele>730.2</ele>
        <time>2022-06-08 11:15:04</time>
      </trkpt>
      <trkpt lat="42.97312" lon="-0.3909">
        <ele>730.4</ele>
        <time>2022-06-08 11:15:05</time>
      </trkpt>
      <trkpt lat="42.9731" lon="-0.39086">
        <ele>730.8</ele>
        <time>2022-06-08 11:15:06</time>
      </trkpt>
      <trkpt lat="42.97308" lon="-0.39082">
        <ele>730.8</ele>
        <time>2022-06-08 11:15:07</time>
      </trkpt>
      <trkpt lat="42.97307" lon="-0.39079">
        <ele>731.2</ele>
        <time>2022-06-08 11:15:08</time>
      </trkpt>
      <trkpt lat="42.97305" lon="-0.39075">
        <ele>731.4</ele>
        <time>2022-06-08 11:15:09</time>
      </trkpt>
      <trkpt lat="42.97304" lon="-0.39072">
        <ele>731.6</ele>
        <time>2022-06-08 11:15:10</time>
      </trkpt>
      <trkpt lat="42.97302" lon="-0.39068">
        <ele>731.8</ele>
        <time>2022-06-08 11:15:11</time>
      </trkpt>
      <trkpt lat="42.973" lon="-0.39065">
        <ele>732</ele>
        <time>2022-06-08 11:15:12</time>
      </trkpt>
      <trkpt lat="42.97298" lon="-0.39061">
        <ele>732.2</ele>
        <time>2022-06-08 11:15:13</time>
      </trkpt>
      <trkpt lat="42.97297" lon="-0.39058">
        <ele>732.6</ele>
        <time>2022-06-08 11:15:14</time>
      </trkpt>
      <trkpt lat="42.97295" lon="-0.39054">
        <ele>732.8</ele>
        <time>2022-06-08 11:15:15</time>
      </trkpt>
      <trkpt lat="42.97294" lon="-0.3905">
        <ele>733.2</ele>
        <time>2022-06-08 11:15:16</time>
      </trkpt>
      <trkpt lat="42.97292" lon="-0.39046">
        <ele>733.6</ele>
        <time>2022-06-08 11:15:17</time>
      </trkpt>
      <trkpt lat="42.9729" lon="-0.39042">
        <ele>733.8</ele>
        <time>2022-06-08 11:15:18</time>
      </trkpt>
      <trkpt lat="42.97289" lon="-0.39038">
        <ele>734.2</ele>
        <time>2022-06-08 11:15:19</time>
      </trkpt>
      <trkpt lat="42.97287" lon="-0.39035">
        <ele>734.4</ele>
        <time>2022-06-08 11:15:20</time>
      </trkpt>
      <trkpt lat="42.97286" lon="-0.39031">
        <ele>734.6</ele>
        <time>2022-06-08 11:15:21</time>
      </trkpt>
      <trkpt lat="42.97285" lon="-0.39027">
        <ele>734.8</ele>
        <time>2022-06-08 11:15:22</time>
      </trkpt>
      <trkpt lat="42.97284" lon="-0.39023">
        <ele>735</ele>
        <time>2022-06-08 11:15:23</time>
      </trkpt>
      <trkpt lat="42.97283" lon="-0.3902">
        <ele>735.2</ele>
        <time>2022-06-08 11:15:24</time>
      </trkpt>
      <trkpt lat="42.97282" lon="-0.39016">
        <ele>735.6</ele>
        <time>2022-06-08 11:15:25</time>
      </trkpt>
      <trkpt lat="42.97281" lon="-0.39012">
        <ele>735.6</ele>
        <time>2022-06-08 11:15:26</time>
      </trkpt>
      <trkpt lat="42.97279" lon="-0.39007">
        <ele>736</ele>
        <time>2022-06-08 11:15:27</time>
      </trkpt>
      <trkpt lat="42.97278" lon="-0.39004">
        <ele>736.2</ele>
        <time>2022-06-08 11:15:28</time>
      </trkpt>
      <trkpt lat="42.97277" lon="-0.38999">
        <ele>736.4</ele>
        <time>2022-06-08 11:15:29</time>
      </trkpt>
      <trkpt lat="42.97275" lon="-0.38995">
        <ele>736.6</ele>
        <time>2022-06-08 11:15:30</time>
      </trkpt>
      <trkpt lat="42.97274" lon="-0.38991">
        <ele>736.8</ele>
        <time>2022-06-08 11:15:31</time>
      </trkpt>
      <trkpt lat="42.97272" lon="-0.38988">
        <ele>737.4</ele>
        <time>2022-06-08 11:15:32</time>
      </trkpt>
      <trkpt lat="42.97271" lon="-0.38984">
        <ele>737.4</ele>
        <time>2022-06-08 11:15:33</time>
      </trkpt>
      <trkpt lat="42.9727" lon="-0.3898">
        <ele>737.8</ele>
        <time>2022-06-08 11:15:34</time>
      </trkpt>
      <trkpt lat="42.97269" lon="-0.38976">
        <ele>738</ele>
        <time>2022-06-08 11:15:35</time>
      </trkpt>
      <trkpt lat="42.97268" lon="-0.38972">
        <ele>738.2</ele>
        <time>2022-06-08 11:15:36</time>
      </trkpt>
      <trkpt lat="42.97267" lon="-0.38968">
        <ele>738.2</ele>
        <time>2022-06-08 11:15:37</time>
      </trkpt>
      <trkpt lat="42.97265" lon="-0.38964">
        <ele>738.6</ele>
        <time>2022-06-08 11:15:38</time>
      </trkpt>
      <trkpt lat="42.97264" lon="-0.3896">
        <ele>738.8</ele>
        <time>2022-06-08 11:15:39</time>
      </trkpt>
      <trkpt lat="42.97263" lon="-0.38956">
        <ele>739</ele>
        <time>2022-06-08 11:15:40</time>
      </trkpt>
      <trkpt lat="42.97262" lon="-0.38952">
        <ele>739.2</ele>
        <time>2022-06-08 11:15:41</time>
      </trkpt>
      <trkpt lat="42.97261" lon="-0.38947">
        <ele>739.6</ele>
        <time>2022-06-08 11:15:42</time>
      </trkpt>
      <trkpt lat="42.9726" lon="-0.38944">
        <ele>739.8</ele>
        <time>2022-06-08 11:15:43</time>
      </trkpt>
      <trkpt lat="42.97258" lon="-0.38939">
        <ele>740.2</ele>
        <time>2022-06-08 11:15:44</time>
      </trkpt>
      <trkpt lat="42.97257" lon="-0.38936">
        <ele>740.4</ele>
        <time>2022-06-08 11:15:45</time>
      </trkpt>
      <trkpt lat="42.97256" lon="-0.38932">
        <ele>740.6</ele>
        <time>2022-06-08 11:15:46</time>
      </trkpt>
      <trkpt lat="42.97255" lon="-0.38928">
        <ele>741</ele>
        <time>2022-06-08 11:15:47</time>
      </trkpt>
      <trkpt lat="42.97254" lon="-0.38924">
        <ele>741</ele>
        <time>2022-06-08 11:15:48</time>
      </trkpt>
      <trkpt lat="42.97252" lon="-0.3892">
        <ele>741.2</ele>
        <time>2022-06-08 11:15:49</time>
      </trkpt>
      <trkpt lat="42.97252" lon="-0.38916">
        <ele>741.4</ele>
        <time>2022-06-08 11:15:50</time>
      </trkpt>
      <trkpt lat="42.9725" lon="-0.38912">
        <ele>741.6</ele>
        <time>2022-06-08 11:15:51</time>
      </trkpt>
      <trkpt lat="42.97249" lon="-0.38909">
        <ele>741.8</ele>
        <time>2022-06-08 11:15:52</time>
      </trkpt>
      <trkpt lat="42.97247" lon="-0.38905">
        <ele>742.2</ele>
        <time>2022-06-08 11:15:53</time>
      </trkpt>
      <trkpt lat="42.97246" lon="-0.38901">
        <ele>742.4</ele>
        <time>2022-06-08 11:15:54</time>
      </trkpt>
      <trkpt lat="42.97244" lon="-0.38897">
        <ele>742.6</ele>
        <time>2022-06-08 11:15:55</time>
      </trkpt>
      <trkpt lat="42.97243" lon="-0.38894">
        <ele>743</ele>
        <time>2022-06-08 11:15:56</time>
      </trkpt>
      <trkpt lat="42.97241" lon="-0.38891">
        <ele>743.6</ele>
        <time>2022-06-08 11:15:57</time>
      </trkpt>
      <trkpt lat="42.97239" lon="-0.38887">
        <ele>743.8</ele>
        <time>2022-06-08 11:15:58</time>
      </trkpt>
      <trkpt lat="42.97237" lon="-0.38884">
        <ele>744</ele>
        <time>2022-06-08 11:15:59</time>
      </trkpt>
      <trkpt lat="42.97236" lon="-0.3888">
        <ele>744.2</ele>
        <time>2022-06-08 11:16:00</time>
      </trkpt>
      <trkpt lat="42.97234" lon="-0.38876">
        <ele>744.4</ele>
        <time>2022-06-08 11:16:01</time>
      </trkpt>
      <trkpt lat="42.97233" lon="-0.38873">
        <ele>745</ele>
        <time>2022-06-08 11:16:02</time>
      </trkpt>
      <trkpt lat="42.97231" lon="-0.38869">
        <ele>745</ele>
        <time>2022-06-08 11:16:03</time>
      </trkpt>
      <trkpt lat="42.97229" lon="-0.38865">
        <ele>745.4</ele>
        <time>2022-06-08 11:16:04</time>
      </trkpt>
      <trkpt lat="42.97227" lon="-0.38861">
        <ele>745.4</ele>
        <time>2022-06-08 11:16:05</time>
      </trkpt>
      <trkpt lat="42.97226" lon="-0.38858">
        <ele>746</ele>
        <time>2022-06-08 11:16:06</time>
      </trkpt>
      <trkpt lat="42.97226" lon="-0.38855">
        <ele>746.2</ele>
        <time>2022-06-08 11:16:07</time>
      </trkpt>
      <trkpt lat="42.97224" lon="-0.38851">
        <ele>746.4</ele>
        <time>2022-06-08 11:16:08</time>
      </trkpt>
      <trkpt lat="42.97223" lon="-0.38848">
        <ele>746.6</ele>
        <time>2022-06-08 11:16:09</time>
      </trkpt>
      <trkpt lat="42.97222" lon="-0.38844">
        <ele>747</ele>
        <time>2022-06-08 11:16:10</time>
      </trkpt>
      <trkpt lat="42.97221" lon="-0.38839">
        <ele>747</ele>
        <time>2022-06-08 11:16:11</time>
      </trkpt>
      <trkpt lat="42.97219" lon="-0.38836">
        <ele>747.6</ele>
        <time>2022-06-08 11:16:12</time>
      </trkpt>
      <trkpt lat="42.97218" lon="-0.38831">
        <ele>747.6</ele>
        <time>2022-06-08 11:16:13</time>
      </trkpt>
      <trkpt lat="42.97216" lon="-0.38827">
        <ele>747.8</ele>
        <time>2022-06-08 11:16:14</time>
      </trkpt>
      <trkpt lat="42.97215" lon="-0.38823">
        <ele>748</ele>
        <time>2022-06-08 11:16:15</time>
      </trkpt>
      <trkpt lat="42.97215" lon="-0.38819">
        <ele>748.6</ele>
        <time>2022-06-08 11:16:16</time>
      </trkpt>
      <trkpt lat="42.97213" lon="-0.38815">
        <ele>748.8</ele>
        <time>2022-06-08 11:16:17</time>
      </trkpt>
      <trkpt lat="42.97212" lon="-0.3881">
        <ele>749</ele>
        <time>2022-06-08 11:16:18</time>
      </trkpt>
      <trkpt lat="42.97211" lon="-0.38806">
        <ele>749.4</ele>
        <time>2022-06-08 11:16:19</time>
      </trkpt>
      <trkpt lat="42.97211" lon="-0.388">
        <ele>749.6</ele>
        <time>2022-06-08 11:16:20</time>
      </trkpt>
      <trkpt lat="42.97212" lon="-0.38797">
        <ele>749.8</ele>
        <time>2022-06-08 11:16:21</time>
      </trkpt>
      <trkpt lat="42.97212" lon="-0.38792">
        <ele>750</ele>
        <time>2022-06-08 11:16:22</time>
      </trkpt>
      <trkpt lat="42.97212" lon="-0.38788">
        <ele>750.2</ele>
        <time>2022-06-08 11:16:23</time>
      </trkpt>
      <trkpt lat="42.97211" lon="-0.38784">
        <ele>750.4</ele>
        <time>2022-06-08 11:16:24</time>
      </trkpt>
      <trkpt lat="42.97211" lon="-0.38779">
        <ele>750.8</ele>
        <time>2022-06-08 11:16:25</time>
      </trkpt>
      <trkpt lat="42.97211" lon="-0.38775">
        <ele>751</ele>
        <time>2022-06-08 11:16:26</time>
      </trkpt>
      <trkpt lat="42.9721" lon="-0.38771">
        <ele>751.2</ele>
        <time>2022-06-08 11:16:27</time>
      </trkpt>
      <trkpt lat="42.97209" lon="-0.38767">
        <ele>751.4</ele>
        <time>2022-06-08 11:16:28</time>
      </trkpt>
      <trkpt lat="42.97207" lon="-0.38762">
        <ele>751.6</ele>
        <time>2022-06-08 11:16:29</time>
      </trkpt>
      <trkpt lat="42.97206" lon="-0.38757">
        <ele>751.8</ele>
        <time>2022-06-08 11:16:30</time>
      </trkpt>
      <trkpt lat="42.97205" lon="-0.38752">
        <ele>752</ele>
        <time>2022-06-08 11:16:31</time>
      </trkpt>
      <trkpt lat="42.97205" lon="-0.38747">
        <ele>752.4</ele>
        <time>2022-06-08 11:16:32</time>
      </trkpt>
      <trkpt lat="42.97202" lon="-0.38741">
        <ele>752.6</ele>
        <time>2022-06-08 11:16:33</time>
      </trkpt>
      <trkpt lat="42.972" lon="-0.38738">
        <ele>753</ele>
        <time>2022-06-08 11:16:34</time>
      </trkpt>
      <trkpt lat="42.97199" lon="-0.38734">
        <ele>753.2</ele>
        <time>2022-06-08 11:16:35</time>
      </trkpt>
      <trkpt lat="42.97198" lon="-0.3873">
        <ele>753.6</ele>
        <time>2022-06-08 11:16:36</time>
      </trkpt>
      <trkpt lat="42.97199" lon="-0.38725">
        <ele>753.8</ele>
        <time>2022-06-08 11:16:37</time>
      </trkpt>
      <trkpt lat="42.97198" lon="-0.3872">
        <ele>753.8</ele>
        <time>2022-06-08 11:16:38</time>
      </trkpt>
      <trkpt lat="42.97197" lon="-0.38716">
        <ele>754</ele>
        <time>2022-06-08 11:16:39</time>
      </trkpt>
      <trkpt lat="42.97196" lon="-0.38711">
        <ele>754.4</ele>
        <time>2022-06-08 11:16:40</time>
      </trkpt>
      <trkpt lat="42.97195" lon="-0.38708">
        <ele>754.6</ele>
        <time>2022-06-08 11:16:41</time>
      </trkpt>
      <trkpt lat="42.97195" lon="-0.38703">
        <ele>754.8</ele>
        <time>2022-06-08 11:16:42</time>
      </trkpt>
      <trkpt lat="42.97195" lon="-0.387">
        <ele>755</ele>
        <time>2022-06-08 11:16:43</time>
      </trkpt>
      <trkpt lat="42.97194" lon="-0.38695">
        <ele>755.4</ele>
        <time>2022-06-08 11:16:44</time>
      </trkpt>
      <trkpt lat="42.97191" lon="-0.3869">
        <ele>755.4</ele>
        <time>2022-06-08 11:16:45</time>
      </trkpt>
      <trkpt lat="42.9719" lon="-0.38685">
        <ele>755.8</ele>
        <time>2022-06-08 11:16:46</time>
      </trkpt>
      <trkpt lat="42.9719" lon="-0.38682">
        <ele>756</ele>
        <time>2022-06-08 11:16:47</time>
      </trkpt>
      <trkpt lat="42.97189" lon="-0.38677">
        <ele>756.2</ele>
        <time>2022-06-08 11:16:48</time>
      </trkpt>
      <trkpt lat="42.97188" lon="-0.38673">
        <ele>756.6</ele>
        <time>2022-06-08 11:16:49</time>
      </trkpt>
      <trkpt lat="42.97186" lon="-0.38669">
        <ele>756.6</ele>
        <time>2022-06-08 11:16:50</time>
      </trkpt>
      <trkpt lat="42.97185" lon="-0.38665">
        <ele>756.8</ele>
        <time>2022-06-08 11:16:51</time>
      </trkpt>
      <trkpt lat="42.97184" lon="-0.38662">
        <ele>757</ele>
        <time>2022-06-08 11:16:52</time>
      </trkpt>
      <trkpt lat="42.97182" lon="-0.38658">
        <ele>757.4</ele>
        <time>2022-06-08 11:16:53</time>
      </trkpt>
      <trkpt lat="42.97181" lon="-0.38654">
        <ele>757.4</ele>
        <time>2022-06-08 11:16:54</time>
      </trkpt>
      <trkpt lat="42.9718" lon="-0.3865">
        <ele>757.8</ele>
        <time>2022-06-08 11:16:55</time>
      </trkpt>
      <trkpt lat="42.97178" lon="-0.38647">
        <ele>757.8</ele>
        <time>2022-06-08 11:16:56</time>
      </trkpt>
      <trkpt lat="42.97177" lon="-0.38643">
        <ele>758.4</ele>
        <time>2022-06-08 11:16:57</time>
      </trkpt>
      <trkpt lat="42.97177" lon="-0.3864">
        <ele>758.4</ele>
        <time>2022-06-08 11:16:58</time>
      </trkpt>
      <trkpt lat="42.97176" lon="-0.38636">
        <ele>758.8</ele>
        <time>2022-06-08 11:16:59</time>
      </trkpt>
      <trkpt lat="42.97174" lon="-0.38632">
        <ele>759</ele>
        <time>2022-06-08 11:17:00</time>
      </trkpt>
      <trkpt lat="42.97174" lon="-0.38628">
        <ele>759.4</ele>
        <time>2022-06-08 11:17:01</time>
      </trkpt>
      <trkpt lat="42.97174" lon="-0.38624">
        <ele>759.8</ele>
        <time>2022-06-08 11:17:02</time>
      </trkpt>
      <trkpt lat="42.97174" lon="-0.38619">
        <ele>760.2</ele>
        <time>2022-06-08 11:17:03</time>
      </trkpt>
      <trkpt lat="42.97175" lon="-0.38614">
        <ele>760.6</ele>
        <time>2022-06-08 11:17:04</time>
      </trkpt>
      <trkpt lat="42.97176" lon="-0.3861">
        <ele>760.8</ele>
        <time>2022-06-08 11:17:05</time>
      </trkpt>
      <trkpt lat="42.97177" lon="-0.38605">
        <ele>761</ele>
        <time>2022-06-08 11:17:06</time>
      </trkpt>
      <trkpt lat="42.97178" lon="-0.38601">
        <ele>761.2</ele>
        <time>2022-06-08 11:17:07</time>
      </trkpt>
      <trkpt lat="42.97179" lon="-0.38596">
        <ele>761.6</ele>
        <time>2022-06-08 11:17:08</time>
      </trkpt>
      <trkpt lat="42.9718" lon="-0.38592">
        <ele>761.8</ele>
        <time>2022-06-08 11:17:09</time>
      </trkpt>
      <trkpt lat="42.97182" lon="-0.38587">
        <ele>762</ele>
        <time>2022-06-08 11:17:10</time>
      </trkpt>
      <trkpt lat="42.97183" lon="-0.38583">
        <ele>762</ele>
        <time>2022-06-08 11:17:11</time>
      </trkpt>
      <trkpt lat="42.97184" lon="-0.38578">
        <ele>762.2</ele>
        <time>2022-06-08 11:17:12</time>
      </trkpt>
      <trkpt lat="42.97185" lon="-0.38574">
        <ele>762.2</ele>
        <time>2022-06-08 11:17:13</time>
      </trkpt>
      <trkpt lat="42.97186" lon="-0.3857">
        <ele>762.4</ele>
        <time>2022-06-08 11:17:14</time>
      </trkpt>
      <trkpt lat="42.97188" lon="-0.38566">
        <ele>762.6</ele>
        <time>2022-06-08 11:17:15</time>
      </trkpt>
      <trkpt lat="42.97189" lon="-0.38562">
        <ele>762.8</ele>
        <time>2022-06-08 11:17:16</time>
      </trkpt>
      <trkpt lat="42.97191" lon="-0.38558">
        <ele>763</ele>
        <time>2022-06-08 11:17:17</time>
      </trkpt>
      <trkpt lat="42.97192" lon="-0.38553">
        <ele>763.4</ele>
        <time>2022-06-08 11:17:18</time>
      </trkpt>
      <trkpt lat="42.97193" lon="-0.38549">
        <ele>763.8</ele>
        <time>2022-06-08 11:17:19</time>
      </trkpt>
      <trkpt lat="42.97194" lon="-0.38544">
        <ele>764.2</ele>
        <time>2022-06-08 11:17:20</time>
      </trkpt>
      <trkpt lat="42.97195" lon="-0.3854">
        <ele>764.4</ele>
        <time>2022-06-08 11:17:21</time>
      </trkpt>
      <trkpt lat="42.97195" lon="-0.38536">
        <ele>764.8</ele>
        <time>2022-06-08 11:17:22</time>
      </trkpt>
      <trkpt lat="42.97195" lon="-0.38531">
        <ele>765.2</ele>
        <time>2022-06-08 11:17:23</time>
      </trkpt>
      <trkpt lat="42.97196" lon="-0.38527">
        <ele>765.4</ele>
        <time>2022-06-08 11:17:24</time>
      </trkpt>
      <trkpt lat="42.97196" lon="-0.38522">
        <ele>765.6</ele>
        <time>2022-06-08 11:17:25</time>
      </trkpt>
      <trkpt lat="42.97196" lon="-0.38518">
        <ele>765.8</ele>
        <time>2022-06-08 11:17:26</time>
      </trkpt>
      <trkpt lat="42.97196" lon="-0.38513">
        <ele>766</ele>
        <time>2022-06-08 11:17:27</time>
      </trkpt>
      <trkpt lat="42.97195" lon="-0.38509">
        <ele>766.2</ele>
        <time>2022-06-08 11:17:28</time>
      </trkpt>
      <trkpt lat="42.97194" lon="-0.38505">
        <ele>766.6</ele>
        <time>2022-06-08 11:17:29</time>
      </trkpt>
      <trkpt lat="42.97194" lon="-0.38501">
        <ele>766.6</ele>
        <time>2022-06-08 11:17:30</time>
      </trkpt>
      <trkpt lat="42.97193" lon="-0.38496">
        <ele>767</ele>
        <time>2022-06-08 11:17:31</time>
      </trkpt>
      <trkpt lat="42.97192" lon="-0.38492">
        <ele>767.2</ele>
        <time>2022-06-08 11:17:32</time>
      </trkpt>
      <trkpt lat="42.97191" lon="-0.38487">
        <ele>767.4</ele>
        <time>2022-06-08 11:17:33</time>
      </trkpt>
      <trkpt lat="42.9719" lon="-0.38483">
        <ele>768</ele>
        <time>2022-06-08 11:17:34</time>
      </trkpt>
      <trkpt lat="42.97188" lon="-0.3848">
        <ele>768.2</ele>
        <time>2022-06-08 11:17:35</time>
      </trkpt>
      <trkpt lat="42.97186" lon="-0.38476">
        <ele>768.4</ele>
        <time>2022-06-08 11:17:36</time>
      </trkpt>
      <trkpt lat="42.97185" lon="-0.38472">
        <ele>768.4</ele>
        <time>2022-06-08 11:17:37</time>
      </trkpt>
      <trkpt lat="42.97184" lon="-0.38468">
        <ele>768.8</ele>
        <time>2022-06-08 11:17:38</time>
      </trkpt>
      <trkpt lat="42.97183" lon="-0.38464">
        <ele>769</ele>
        <time>2022-06-08 11:17:39</time>
      </trkpt>
      <trkpt lat="42.97181" lon="-0.3846">
        <ele>769.4</ele>
        <time>2022-06-08 11:17:40</time>
      </trkpt>
      <trkpt lat="42.97179" lon="-0.38455">
        <ele>769.4</ele>
        <time>2022-06-08 11:17:41</time>
      </trkpt>
      <trkpt lat="42.97178" lon="-0.38451">
        <ele>769.8</ele>
        <time>2022-06-08 11:17:42</time>
      </trkpt>
      <trkpt lat="42.97176" lon="-0.38448">
        <ele>770</ele>
        <time>2022-06-08 11:17:43</time>
      </trkpt>
      <trkpt lat="42.97174" lon="-0.38444">
        <ele>770.4</ele>
        <time>2022-06-08 11:17:44</time>
      </trkpt>
      <trkpt lat="42.97172" lon="-0.38441">
        <ele>770.4</ele>
        <time>2022-06-08 11:17:45</time>
      </trkpt>
      <trkpt lat="42.9717" lon="-0.38437">
        <ele>770.8</ele>
        <time>2022-06-08 11:17:46</time>
      </trkpt>
      <trkpt lat="42.97168" lon="-0.38433">
        <ele>771.2</ele>
        <time>2022-06-08 11:17:47</time>
      </trkpt>
      <trkpt lat="42.97167" lon="-0.3843">
        <ele>771.4</ele>
        <time>2022-06-08 11:17:48</time>
      </trkpt>
      <trkpt lat="42.97165" lon="-0.38426">
        <ele>771.6</ele>
        <time>2022-06-08 11:17:49</time>
      </trkpt>
      <trkpt lat="42.97163" lon="-0.38422">
        <ele>771.8</ele>
        <time>2022-06-08 11:17:50</time>
      </trkpt>
      <trkpt lat="42.97161" lon="-0.38419">
        <ele>772.4</ele>
        <time>2022-06-08 11:17:51</time>
      </trkpt>
      <trkpt lat="42.97159" lon="-0.38415">
        <ele>772.6</ele>
        <time>2022-06-08 11:17:52</time>
      </trkpt>
      <trkpt lat="42.97157" lon="-0.38411">
        <ele>773.2</ele>
        <time>2022-06-08 11:17:53</time>
      </trkpt>
      <trkpt lat="42.97155" lon="-0.38408">
        <ele>773.2</ele>
        <time>2022-06-08 11:17:54</time>
      </trkpt>
      <trkpt lat="42.97154" lon="-0.38404">
        <ele>773.6</ele>
        <time>2022-06-08 11:17:55</time>
      </trkpt>
      <trkpt lat="42.97152" lon="-0.384">
        <ele>774</ele>
        <time>2022-06-08 11:17:56</time>
      </trkpt>
      <trkpt lat="42.97151" lon="-0.38397">
        <ele>774.2</ele>
        <time>2022-06-08 11:17:57</time>
      </trkpt>
      <trkpt lat="42.9715" lon="-0.38393">
        <ele>774.4</ele>
        <time>2022-06-08 11:17:58</time>
      </trkpt>
      <trkpt lat="42.97148" lon="-0.38389">
        <ele>774.6</ele>
        <time>2022-06-08 11:17:59</time>
      </trkpt>
      <trkpt lat="42.97147" lon="-0.38385">
        <ele>774.8</ele>
        <time>2022-06-08 11:18:00</time>
      </trkpt>
      <trkpt lat="42.97146" lon="-0.38381">
        <ele>775</ele>
        <time>2022-06-08 11:18:01</time>
      </trkpt>
      <trkpt lat="42.97144" lon="-0.38377">
        <ele>775.4</ele>
        <time>2022-06-08 11:18:02</time>
      </trkpt>
      <trkpt lat="42.97143" lon="-0.38373">
        <ele>775.8</ele>
        <time>2022-06-08 11:18:03</time>
      </trkpt>
      <trkpt lat="42.97142" lon="-0.38369">
        <ele>776</ele>
        <time>2022-06-08 11:18:04</time>
      </trkpt>
      <trkpt lat="42.9714" lon="-0.38365">
        <ele>776.2</ele>
        <time>2022-06-08 11:18:05</time>
      </trkpt>
      <trkpt lat="42.97139" lon="-0.38361">
        <ele>776.4</ele>
        <time>2022-06-08 11:18:06</time>
      </trkpt>
      <trkpt lat="42.97137" lon="-0.38357">
        <ele>776.6</ele>
        <time>2022-06-08 11:18:07</time>
      </trkpt>
      <trkpt lat="42.97136" lon="-0.38353">
        <ele>777</ele>
        <time>2022-06-08 11:18:08</time>
      </trkpt>
      <trkpt lat="42.97134" lon="-0.38349">
        <ele>777</ele>
        <time>2022-06-08 11:18:09</time>
      </trkpt>
      <trkpt lat="42.97133" lon="-0.38346">
        <ele>777.4</ele>
        <time>2022-06-08 11:18:10</time>
      </trkpt>
      <trkpt lat="42.97132" lon="-0.38342">
        <ele>777.6</ele>
        <time>2022-06-08 11:18:11</time>
      </trkpt>
      <trkpt lat="42.9713" lon="-0.38338">
        <ele>777.8</ele>
        <time>2022-06-08 11:18:12</time>
      </trkpt>
      <trkpt lat="42.97128" lon="-0.38334">
        <ele>778</ele>
        <time>2022-06-08 11:18:13</time>
      </trkpt>
      <trkpt lat="42.97127" lon="-0.3833">
        <ele>778.2</ele>
        <time>2022-06-08 11:18:14</time>
      </trkpt>
      <trkpt lat="42.97125" lon="-0.38326">
        <ele>778.4</ele>
        <time>2022-06-08 11:18:15</time>
      </trkpt>
      <trkpt lat="42.97123" lon="-0.38323">
        <ele>778.8</ele>
        <time>2022-06-08 11:18:16</time>
      </trkpt>
      <trkpt lat="42.97122" lon="-0.38319">
        <ele>778.8</ele>
        <time>2022-06-08 11:18:17</time>
      </trkpt>
      <trkpt lat="42.97121" lon="-0.38315">
        <ele>779.2</ele>
        <time>2022-06-08 11:18:18</time>
      </trkpt>
      <trkpt lat="42.9712" lon="-0.38311">
        <ele>779.6</ele>
        <time>2022-06-08 11:18:19</time>
      </trkpt>
      <trkpt lat="42.97119" lon="-0.38307">
        <ele>780</ele>
        <time>2022-06-08 11:18:20</time>
      </trkpt>
      <trkpt lat="42.97117" lon="-0.38304">
        <ele>780.4</ele>
        <time>2022-06-08 11:18:21</time>
      </trkpt>
      <trkpt lat="42.97116" lon="-0.383">
        <ele>780.4</ele>
        <time>2022-06-08 11:18:22</time>
      </trkpt>
      <trkpt lat="42.97115" lon="-0.38296">
        <ele>780.8</ele>
        <time>2022-06-08 11:18:23</time>
      </trkpt>
      <trkpt lat="42.97114" lon="-0.38292">
        <ele>780.8</ele>
        <time>2022-06-08 11:18:24</time>
      </trkpt>
      <trkpt lat="42.97112" lon="-0.38288">
        <ele>781</ele>
        <time>2022-06-08 11:18:25</time>
      </trkpt>
      <trkpt lat="42.97111" lon="-0.38285">
        <ele>781.2</ele>
        <time>2022-06-08 11:18:26</time>
      </trkpt>
      <trkpt lat="42.97108" lon="-0.38281">
        <ele>781.8</ele>
        <time>2022-06-08 11:18:27</time>
      </trkpt>
      <trkpt lat="42.97105" lon="-0.38278">
        <ele>782</ele>
        <time>2022-06-08 11:18:28</time>
      </trkpt>
      <trkpt lat="42.97103" lon="-0.38275">
        <ele>782</ele>
        <time>2022-06-08 11:18:29</time>
      </trkpt>
      <trkpt lat="42.971" lon="-0.38273">
        <ele>782.2</ele>
        <time>2022-06-08 11:18:30</time>
      </trkpt>
      <trkpt lat="42.97097" lon="-0.3827">
        <ele>782.6</ele>
        <time>2022-06-08 11:18:31</time>
      </trkpt>
      <trkpt lat="42.97094" lon="-0.38267">
        <ele>782.6</ele>
        <time>2022-06-08 11:18:32</time>
      </trkpt>
      <trkpt lat="42.97091" lon="-0.38265">
        <ele>783</ele>
        <time>2022-06-08 11:18:33</time>
      </trkpt>
      <trkpt lat="42.97088" lon="-0.38263">
        <ele>783.4</ele>
        <time>2022-06-08 11:18:34</time>
      </trkpt>
      <trkpt lat="42.97085" lon="-0.38262">
        <ele>783.4</ele>
        <time>2022-06-08 11:18:35</time>
      </trkpt>
      <trkpt lat="42.97082" lon="-0.38261">
        <ele>783.8</ele>
        <time>2022-06-08 11:18:36</time>
      </trkpt>
      <trkpt lat="42.97079" lon="-0.38259">
        <ele>784</ele>
        <time>2022-06-08 11:18:37</time>
      </trkpt>
      <trkpt lat="42.97076" lon="-0.38258">
        <ele>784.2</ele>
        <time>2022-06-08 11:18:38</time>
      </trkpt>
      <trkpt lat="42.97073" lon="-0.38255">
        <ele>784.4</ele>
        <time>2022-06-08 11:18:39</time>
      </trkpt>
      <trkpt lat="42.9707" lon="-0.38253">
        <ele>784.6</ele>
        <time>2022-06-08 11:18:40</time>
      </trkpt>
      <trkpt lat="42.97067" lon="-0.38251">
        <ele>784.8</ele>
        <time>2022-06-08 11:18:41</time>
      </trkpt>
      <trkpt lat="42.97064" lon="-0.38249">
        <ele>785</ele>
        <time>2022-06-08 11:18:42</time>
      </trkpt>
      <trkpt lat="42.9706" lon="-0.38247">
        <ele>785.4</ele>
        <time>2022-06-08 11:18:43</time>
      </trkpt>
      <trkpt lat="42.97057" lon="-0.38245">
        <ele>785.8</ele>
        <time>2022-06-08 11:18:44</time>
      </trkpt>
      <trkpt lat="42.97054" lon="-0.38243">
        <ele>786</ele>
        <time>2022-06-08 11:18:45</time>
      </trkpt>
      <trkpt lat="42.97051" lon="-0.3824">
        <ele>786.4</ele>
        <time>2022-06-08 11:18:46</time>
      </trkpt>
      <trkpt lat="42.97048" lon="-0.38237">
        <ele>786.6</ele>
        <time>2022-06-08 11:18:47</time>
      </trkpt>
      <trkpt lat="42.97046" lon="-0.38235">
        <ele>787</ele>
        <time>2022-06-08 11:18:48</time>
      </trkpt>
      <trkpt lat="42.97043" lon="-0.38232">
        <ele>787.2</ele>
        <time>2022-06-08 11:18:49</time>
      </trkpt>
      <trkpt lat="42.97042" lon="-0.38229">
        <ele>787.4</ele>
        <time>2022-06-08 11:18:50</time>
      </trkpt>
      <trkpt lat="42.9704" lon="-0.38226">
        <ele>787.6</ele>
        <time>2022-06-08 11:18:51</time>
      </trkpt>
      <trkpt lat="42.97037" lon="-0.38221">
        <ele>788</ele>
        <time>2022-06-08 11:18:52</time>
      </trkpt>
      <trkpt lat="42.97035" lon="-0.38218">
        <ele>788.4</ele>
        <time>2022-06-08 11:18:53</time>
      </trkpt>
      <trkpt lat="42.97034" lon="-0.38214">
        <ele>788.6</ele>
        <time>2022-06-08 11:18:54</time>
      </trkpt>
      <trkpt lat="42.97033" lon="-0.38209">
        <ele>789</ele>
        <time>2022-06-08 11:18:55</time>
      </trkpt>
      <trkpt lat="42.9703" lon="-0.38207">
        <ele>789.2</ele>
        <time>2022-06-08 11:18:56</time>
      </trkpt>
      <trkpt lat="42.97029" lon="-0.38203">
        <ele>789.6</ele>
        <time>2022-06-08 11:18:57</time>
      </trkpt>
      <trkpt lat="42.97028" lon="-0.38199">
        <ele>789.8</ele>
        <time>2022-06-08 11:18:58</time>
      </trkpt>
      <trkpt lat="42.97027" lon="-0.38195">
        <ele>790</ele>
        <time>2022-06-08 11:18:59</time>
      </trkpt>
      <trkpt lat="42.97026" lon="-0.38191">
        <ele>790.2</ele>
        <time>2022-06-08 11:19:00</time>
      </trkpt>
      <trkpt lat="42.97026" lon="-0.38188">
        <ele>790.2</ele>
        <time>2022-06-08 11:19:01</time>
      </trkpt>
      <trkpt lat="42.97025" lon="-0.38184">
        <ele>790.4</ele>
        <time>2022-06-08 11:19:02</time>
      </trkpt>
      <trkpt lat="42.97025" lon="-0.3818">
        <ele>790.6</ele>
        <time>2022-06-08 11:19:03</time>
      </trkpt>
      <trkpt lat="42.97024" lon="-0.38176">
        <ele>790.8</ele>
        <time>2022-06-08 11:19:04</time>
      </trkpt>
      <trkpt lat="42.97023" lon="-0.38172">
        <ele>791</ele>
        <time>2022-06-08 11:19:05</time>
      </trkpt>
      <trkpt lat="42.97022" lon="-0.38169">
        <ele>791.4</ele>
        <time>2022-06-08 11:19:06</time>
      </trkpt>
      <trkpt lat="42.97021" lon="-0.38165">
        <ele>791.6</ele>
        <time>2022-06-08 11:19:07</time>
      </trkpt>
      <trkpt lat="42.9702" lon="-0.38161">
        <ele>792</ele>
        <time>2022-06-08 11:19:08</time>
      </trkpt>
      <trkpt lat="42.97018" lon="-0.38157">
        <ele>792.2</ele>
        <time>2022-06-08 11:19:09</time>
      </trkpt>
      <trkpt lat="42.97017" lon="-0.38153">
        <ele>792.4</ele>
        <time>2022-06-08 11:19:10</time>
      </trkpt>
      <trkpt lat="42.97016" lon="-0.38149">
        <ele>792.4</ele>
        <time>2022-06-08 11:19:11</time>
      </trkpt>
      <trkpt lat="42.97015" lon="-0.38145">
        <ele>792.8</ele>
        <time>2022-06-08 11:19:12</time>
      </trkpt>
      <trkpt lat="42.97014" lon="-0.3814">
        <ele>793</ele>
        <time>2022-06-08 11:19:13</time>
      </trkpt>
      <trkpt lat="42.97013" lon="-0.38136">
        <ele>793.4</ele>
        <time>2022-06-08 11:19:14</time>
      </trkpt>
      <trkpt lat="42.97012" lon="-0.38132">
        <ele>793.6</ele>
        <time>2022-06-08 11:19:15</time>
      </trkpt>
      <trkpt lat="42.97011" lon="-0.38127">
        <ele>793.8</ele>
        <time>2022-06-08 11:19:16</time>
      </trkpt>
      <trkpt lat="42.97011" lon="-0.38123">
        <ele>794</ele>
        <time>2022-06-08 11:19:17</time>
      </trkpt>
      <trkpt lat="42.9701" lon="-0.38119">
        <ele>794.6</ele>
        <time>2022-06-08 11:19:18</time>
      </trkpt>
      <trkpt lat="42.97009" lon="-0.38115">
        <ele>794.8</ele>
        <time>2022-06-08 11:19:19</time>
      </trkpt>
      <trkpt lat="42.97008" lon="-0.38111">
        <ele>795</ele>
        <time>2022-06-08 11:19:20</time>
      </trkpt>
      <trkpt lat="42.97007" lon="-0.38107">
        <ele>795.2</ele>
        <time>2022-06-08 11:19:21</time>
      </trkpt>
      <trkpt lat="42.97005" lon="-0.38104">
        <ele>795.2</ele>
        <time>2022-06-08 11:19:22</time>
      </trkpt>
      <trkpt lat="42.97004" lon="-0.381">
        <ele>795.8</ele>
        <time>2022-06-08 11:19:23</time>
      </trkpt>
      <trkpt lat="42.97002" lon="-0.38096">
        <ele>796</ele>
        <time>2022-06-08 11:19:24</time>
      </trkpt>
      <trkpt lat="42.97" lon="-0.38092">
        <ele>796.2</ele>
        <time>2022-06-08 11:19:25</time>
      </trkpt>
      <trkpt lat="42.96998" lon="-0.38088">
        <ele>796.4</ele>
        <time>2022-06-08 11:19:26</time>
      </trkpt>
      <trkpt lat="42.96996" lon="-0.38085">
        <ele>796.8</ele>
        <time>2022-06-08 11:19:27</time>
      </trkpt>
      <trkpt lat="42.96994" lon="-0.38082">
        <ele>796.8</ele>
        <time>2022-06-08 11:19:28</time>
      </trkpt>
      <trkpt lat="42.96991" lon="-0.38078">
        <ele>797</ele>
        <time>2022-06-08 11:19:29</time>
      </trkpt>
      <trkpt lat="42.96989" lon="-0.38075">
        <ele>797.2</ele>
        <time>2022-06-08 11:19:30</time>
      </trkpt>
      <trkpt lat="42.96987" lon="-0.38071">
        <ele>797.4</ele>
        <time>2022-06-08 11:19:31</time>
      </trkpt>
      <trkpt lat="42.96984" lon="-0.38068">
        <ele>797.6</ele>
        <time>2022-06-08 11:19:32</time>
      </trkpt>
      <trkpt lat="42.96982" lon="-0.38066">
        <ele>798</ele>
        <time>2022-06-08 11:19:33</time>
      </trkpt>
      <trkpt lat="42.96979" lon="-0.38064">
        <ele>798.2</ele>
        <time>2022-06-08 11:19:34</time>
      </trkpt>
      <trkpt lat="42.96977" lon="-0.38064">
        <ele>798.6</ele>
        <time>2022-06-08 11:19:35</time>
      </trkpt>
      <trkpt lat="42.96974" lon="-0.38066">
        <ele>799</ele>
        <time>2022-06-08 11:19:36</time>
      </trkpt>
      <trkpt lat="42.96973" lon="-0.38069">
        <ele>799.2</ele>
        <time>2022-06-08 11:19:37</time>
      </trkpt>
      <trkpt lat="42.96971" lon="-0.38073">
        <ele>799.4</ele>
        <time>2022-06-08 11:19:38</time>
      </trkpt>
      <trkpt lat="42.9697" lon="-0.38076">
        <ele>799.6</ele>
        <time>2022-06-08 11:19:39</time>
      </trkpt>
      <trkpt lat="42.9697" lon="-0.3808">
        <ele>800</ele>
        <time>2022-06-08 11:19:40</time>
      </trkpt>
      <trkpt lat="42.96971" lon="-0.38085">
        <ele>800.4</ele>
        <time>2022-06-08 11:19:41</time>
      </trkpt>
      <trkpt lat="42.96972" lon="-0.3809">
        <ele>800.8</ele>
        <time>2022-06-08 11:19:42</time>
      </trkpt>
      <trkpt lat="42.96973" lon="-0.38095">
        <ele>801</ele>
        <time>2022-06-08 11:19:43</time>
      </trkpt>
      <trkpt lat="42.96974" lon="-0.38099">
        <ele>801.2</ele>
        <time>2022-06-08 11:19:44</time>
      </trkpt>
      <trkpt lat="42.96976" lon="-0.38104">
        <ele>801.4</ele>
        <time>2022-06-08 11:19:45</time>
      </trkpt>
      <trkpt lat="42.96977" lon="-0.38108">
        <ele>801.6</ele>
        <time>2022-06-08 11:19:46</time>
      </trkpt>
      <trkpt lat="42.96978" lon="-0.38112">
        <ele>801.8</ele>
        <time>2022-06-08 11:19:47</time>
      </trkpt>
      <trkpt lat="42.9698" lon="-0.38116">
        <ele>802.2</ele>
        <time>2022-06-08 11:19:48</time>
      </trkpt>
      <trkpt lat="42.96982" lon="-0.3812">
        <ele>802.4</ele>
        <time>2022-06-08 11:19:49</time>
      </trkpt>
      <trkpt lat="42.96984" lon="-0.38124">
        <ele>802.6</ele>
        <time>2022-06-08 11:19:50</time>
      </trkpt>
      <trkpt lat="42.96986" lon="-0.38127">
        <ele>802.6</ele>
        <time>2022-06-08 11:19:51</time>
      </trkpt>
      <trkpt lat="42.96988" lon="-0.38131">
        <ele>802.8</ele>
        <time>2022-06-08 11:19:52</time>
      </trkpt>
      <trkpt lat="42.9699" lon="-0.38135">
        <ele>802.8</ele>
        <time>2022-06-08 11:19:53</time>
      </trkpt>
      <trkpt lat="42.96992" lon="-0.38138">
        <ele>803</ele>
        <time>2022-06-08 11:19:54</time>
      </trkpt>
      <trkpt lat="42.96995" lon="-0.38142">
        <ele>803.2</ele>
        <time>2022-06-08 11:19:55</time>
      </trkpt>
      <trkpt lat="42.96996" lon="-0.38146">
        <ele>803.4</ele>
        <time>2022-06-08 11:19:56</time>
      </trkpt>
      <trkpt lat="42.96998" lon="-0.3815">
        <ele>803.6</ele>
        <time>2022-06-08 11:19:57</time>
      </trkpt>
      <trkpt lat="42.96999" lon="-0.38154">
        <ele>803.8</ele>
        <time>2022-06-08 11:19:58</time>
      </trkpt>
      <trkpt lat="42.97" lon="-0.38158">
        <ele>804.2</ele>
        <time>2022-06-08 11:19:59</time>
      </trkpt>
      <trkpt lat="42.97001" lon="-0.38163">
        <ele>804.2</ele>
        <time>2022-06-08 11:20:00</time>
      </trkpt>
      <trkpt lat="42.97" lon="-0.38168">
        <ele>804.6</ele>
        <time>2022-06-08 11:20:01</time>
      </trkpt>
      <trkpt lat="42.97" lon="-0.38173">
        <ele>804.8</ele>
        <time>2022-06-08 11:20:02</time>
      </trkpt>
      <trkpt lat="42.97" lon="-0.38178">
        <ele>805</ele>
        <time>2022-06-08 11:20:03</time>
      </trkpt>
      <trkpt lat="42.97" lon="-0.38183">
        <ele>805.2</ele>
        <time>2022-06-08 11:20:04</time>
      </trkpt>
      <trkpt lat="42.96999" lon="-0.38188">
        <ele>805.4</ele>
        <time>2022-06-08 11:20:05</time>
      </trkpt>
      <trkpt lat="42.96999" lon="-0.38192">
        <ele>805.4</ele>
        <time>2022-06-08 11:20:06</time>
      </trkpt>
      <trkpt lat="42.96999" lon="-0.38197">
        <ele>805.8</ele>
        <time>2022-06-08 11:20:07</time>
      </trkpt>
      <trkpt lat="42.96999" lon="-0.38202">
        <ele>806.2</ele>
        <time>2022-06-08 11:20:08</time>
      </trkpt>
      <trkpt lat="42.96999" lon="-0.38206">
        <ele>806.2</ele>
        <time>2022-06-08 11:20:09</time>
      </trkpt>
      <trkpt lat="42.96999" lon="-0.3821">
        <ele>806.4</ele>
        <time>2022-06-08 11:20:10</time>
      </trkpt>
      <trkpt lat="42.96999" lon="-0.38213">
        <ele>806.6</ele>
        <time>2022-06-08 11:20:11</time>
      </trkpt>
      <trkpt lat="42.96999" lon="-0.38217">
        <ele>807</ele>
        <time>2022-06-08 11:20:12</time>
      </trkpt>
      <trkpt lat="42.97" lon="-0.38221">
        <ele>807.2</ele>
        <time>2022-06-08 11:20:13</time>
      </trkpt>
      <trkpt lat="42.97" lon="-0.38225">
        <ele>807.4</ele>
        <time>2022-06-08 11:20:14</time>
      </trkpt>
      <trkpt lat="42.97" lon="-0.38229">
        <ele>807.6</ele>
        <time>2022-06-08 11:20:15</time>
      </trkpt>
      <trkpt lat="42.97001" lon="-0.38232">
        <ele>807.8</ele>
        <time>2022-06-08 11:20:16</time>
      </trkpt>
      <trkpt lat="42.97001" lon="-0.38236">
        <ele>808</ele>
        <time>2022-06-08 11:20:17</time>
      </trkpt>
      <trkpt lat="42.97001" lon="-0.3824">
        <ele>808.2</ele>
        <time>2022-06-08 11:20:18</time>
      </trkpt>
      <trkpt lat="42.97" lon="-0.38243">
        <ele>808.4</ele>
        <time>2022-06-08 11:20:19</time>
      </trkpt>
      <trkpt lat="42.96999" lon="-0.38247">
        <ele>808.6</ele>
        <time>2022-06-08 11:20:20</time>
      </trkpt>
      <trkpt lat="42.96996" lon="-0.38249">
        <ele>809</ele>
        <time>2022-06-08 11:20:21</time>
      </trkpt>
      <trkpt lat="42.96993" lon="-0.3825">
        <ele>809.2</ele>
        <time>2022-06-08 11:20:22</time>
      </trkpt>
      <trkpt lat="42.9699" lon="-0.38251">
        <ele>809.4</ele>
        <time>2022-06-08 11:20:23</time>
      </trkpt>
      <trkpt lat="42.96987" lon="-0.38249">
        <ele>809.6</ele>
        <time>2022-06-08 11:20:24</time>
      </trkpt>
      <trkpt lat="42.96984" lon="-0.38246">
        <ele>810</ele>
        <time>2022-06-08 11:20:25</time>
      </trkpt>
      <trkpt lat="42.96983" lon="-0.38242">
        <ele>810.2</ele>
        <time>2022-06-08 11:20:26</time>
      </trkpt>
      <trkpt lat="42.96981" lon="-0.38238">
        <ele>810.4</ele>
        <time>2022-06-08 11:20:27</time>
      </trkpt>
      <trkpt lat="42.9698" lon="-0.38233">
        <ele>810.4</ele>
        <time>2022-06-08 11:20:28</time>
      </trkpt>
      <trkpt lat="42.96979" lon="-0.38228">
        <ele>810.8</ele>
        <time>2022-06-08 11:20:29</time>
      </trkpt>
      <trkpt lat="42.96978" lon="-0.38223">
        <ele>811</ele>
        <time>2022-06-08 11:20:30</time>
      </trkpt>
      <trkpt lat="42.96978" lon="-0.38217">
        <ele>811.2</ele>
        <time>2022-06-08 11:20:31</time>
      </trkpt>
      <trkpt lat="42.96978" lon="-0.38211">
        <ele>811.2</ele>
        <time>2022-06-08 11:20:32</time>
      </trkpt>
      <trkpt lat="42.96978" lon="-0.38205">
        <ele>811.6</ele>
        <time>2022-06-08 11:20:33</time>
      </trkpt>
      <trkpt lat="42.96978" lon="-0.382">
        <ele>811.8</ele>
        <time>2022-06-08 11:20:34</time>
      </trkpt>
      <trkpt lat="42.96978" lon="-0.38194">
        <ele>812</ele>
        <time>2022-06-08 11:20:35</time>
      </trkpt>
      <trkpt lat="42.96978" lon="-0.38189">
        <ele>812</ele>
        <time>2022-06-08 11:20:36</time>
      </trkpt>
      <trkpt lat="42.96978" lon="-0.38185">
        <ele>812.2</ele>
        <time>2022-06-08 11:20:37</time>
      </trkpt>
      <trkpt lat="42.96978" lon="-0.38179">
        <ele>812.4</ele>
        <time>2022-06-08 11:20:38</time>
      </trkpt>
      <trkpt lat="42.96977" lon="-0.38173">
        <ele>812.4</ele>
        <time>2022-06-08 11:20:39</time>
      </trkpt>
      <trkpt lat="42.96977" lon="-0.38169">
        <ele>812.6</ele>
        <time>2022-06-08 11:20:40</time>
      </trkpt>
      <trkpt lat="42.96974" lon="-0.38163">
        <ele>812.8</ele>
        <time>2022-06-08 11:20:41</time>
      </trkpt>
      <trkpt lat="42.96972" lon="-0.38158">
        <ele>813</ele>
        <time>2022-06-08 11:20:42</time>
      </trkpt>
      <trkpt lat="42.96969" lon="-0.38154">
        <ele>813</ele>
        <time>2022-06-08 11:20:43</time>
      </trkpt>
      <trkpt lat="42.96966" lon="-0.38151">
        <ele>813.2</ele>
        <time>2022-06-08 11:20:44</time>
      </trkpt>
      <trkpt lat="42.96962" lon="-0.38148">
        <ele>813.2</ele>
        <time>2022-06-08 11:20:45</time>
      </trkpt>
      <trkpt lat="42.96959" lon="-0.38145">
        <ele>813.4</ele>
        <time>2022-06-08 11:20:46</time>
      </trkpt>
      <trkpt lat="42.96955" lon="-0.38141">
        <ele>813.6</ele>
        <time>2022-06-08 11:20:47</time>
      </trkpt>
      <trkpt lat="42.96952" lon="-0.38137">
        <ele>813.8</ele>
        <time>2022-06-08 11:20:48</time>
      </trkpt>
      <trkpt lat="42.96949" lon="-0.38132">
        <ele>814</ele>
        <time>2022-06-08 11:20:49</time>
      </trkpt>
      <trkpt lat="42.96946" lon="-0.38128">
        <ele>814.2</ele>
        <time>2022-06-08 11:20:50</time>
      </trkpt>
      <trkpt lat="42.96944" lon="-0.38124">
        <ele>814.2</ele>
        <time>2022-06-08 11:20:51</time>
      </trkpt>
      <trkpt lat="42.96943" lon="-0.38119">
        <ele>814.4</ele>
        <time>2022-06-08 11:20:52</time>
      </trkpt>
      <trkpt lat="42.96941" lon="-0.38114">
        <ele>814.6</ele>
        <time>2022-06-08 11:20:53</time>
      </trkpt>
      <trkpt lat="42.9694" lon="-0.38109">
        <ele>814.8</ele>
        <time>2022-06-08 11:20:54</time>
      </trkpt>
      <trkpt lat="42.96937" lon="-0.38104">
        <ele>815</ele>
        <time>2022-06-08 11:20:55</time>
      </trkpt>
      <trkpt lat="42.96935" lon="-0.38101">
        <ele>815.2</ele>
        <time>2022-06-08 11:20:56</time>
      </trkpt>
      <trkpt lat="42.96932" lon="-0.38097">
        <ele>815.4</ele>
        <time>2022-06-08 11:20:57</time>
      </trkpt>
      <trkpt lat="42.96928" lon="-0.38095">
        <ele>815.4</ele>
        <time>2022-06-08 11:20:58</time>
      </trkpt>
      <trkpt lat="42.96925" lon="-0.38094">
        <ele>815.6</ele>
        <time>2022-06-08 11:20:59</time>
      </trkpt>
      <trkpt lat="42.96921" lon="-0.38093">
        <ele>815.6</ele>
        <time>2022-06-08 11:21:00</time>
      </trkpt>
      <trkpt lat="42.96917" lon="-0.38093">
        <ele>815.8</ele>
        <time>2022-06-08 11:21:01</time>
      </trkpt>
      <trkpt lat="42.96913" lon="-0.38094">
        <ele>816</ele>
        <time>2022-06-08 11:21:02</time>
      </trkpt>
      <trkpt lat="42.96909" lon="-0.38094">
        <ele>816.2</ele>
        <time>2022-06-08 11:21:03</time>
      </trkpt>
      <trkpt lat="42.96906" lon="-0.38096">
        <ele>816.4</ele>
        <time>2022-06-08 11:21:04</time>
      </trkpt>
      <trkpt lat="42.96902" lon="-0.38096">
        <ele>816.4</ele>
        <time>2022-06-08 11:21:05</time>
      </trkpt>
      <trkpt lat="42.96898" lon="-0.38096">
        <ele>816.6</ele>
        <time>2022-06-08 11:21:06</time>
      </trkpt>
      <trkpt lat="42.96893" lon="-0.38096">
        <ele>817</ele>
        <time>2022-06-08 11:21:07</time>
      </trkpt>
      <trkpt lat="42.96889" lon="-0.38094">
        <ele>817.4</ele>
        <time>2022-06-08 11:21:08</time>
      </trkpt>
      <trkpt lat="42.96885" lon="-0.38092">
        <ele>817.6</ele>
        <time>2022-06-08 11:21:09</time>
      </trkpt>
      <trkpt lat="42.96882" lon="-0.38089">
        <ele>818</ele>
        <time>2022-06-08 11:21:10</time>
      </trkpt>
      <trkpt lat="42.96878" lon="-0.38086">
        <ele>818</ele>
        <time>2022-06-08 11:21:11</time>
      </trkpt>
      <trkpt lat="42.96875" lon="-0.38082">
        <ele>818.4</ele>
        <time>2022-06-08 11:21:12</time>
      </trkpt>
      <trkpt lat="42.96872" lon="-0.38078">
        <ele>818.4</ele>
        <time>2022-06-08 11:21:13</time>
      </trkpt>
      <trkpt lat="42.96869" lon="-0.38074">
        <ele>818.6</ele>
        <time>2022-06-08 11:21:14</time>
      </trkpt>
      <trkpt lat="42.96867" lon="-0.3807">
        <ele>818.8</ele>
        <time>2022-06-08 11:21:15</time>
      </trkpt>
      <trkpt lat="42.96865" lon="-0.38065">
        <ele>819.2</ele>
        <time>2022-06-08 11:21:16</time>
      </trkpt>
      <trkpt lat="42.96864" lon="-0.3806">
        <ele>819.4</ele>
        <time>2022-06-08 11:21:17</time>
      </trkpt>
      <trkpt lat="42.96863" lon="-0.38054">
        <ele>819.8</ele>
        <time>2022-06-08 11:21:18</time>
      </trkpt>
      <trkpt lat="42.96864" lon="-0.38048">
        <ele>820</ele>
        <time>2022-06-08 11:21:19</time>
      </trkpt>
      <trkpt lat="42.96864" lon="-0.38043">
        <ele>820.2</ele>
        <time>2022-06-08 11:21:20</time>
      </trkpt>
      <trkpt lat="42.96865" lon="-0.38038">
        <ele>820.2</ele>
        <time>2022-06-08 11:21:21</time>
      </trkpt>
      <trkpt lat="42.96866" lon="-0.38033">
        <ele>820.6</ele>
        <time>2022-06-08 11:21:22</time>
      </trkpt>
      <trkpt lat="42.96869" lon="-0.38029">
        <ele>820.6</ele>
        <time>2022-06-08 11:21:23</time>
      </trkpt>
      <trkpt lat="42.96872" lon="-0.38024">
        <ele>820.8</ele>
        <time>2022-06-08 11:21:24</time>
      </trkpt>
      <trkpt lat="42.96875" lon="-0.38019">
        <ele>821.2</ele>
        <time>2022-06-08 11:21:25</time>
      </trkpt>
      <trkpt lat="42.96878" lon="-0.38014">
        <ele>821.2</ele>
        <time>2022-06-08 11:21:26</time>
      </trkpt>
      <trkpt lat="42.9688" lon="-0.38009">
        <ele>821.2</ele>
        <time>2022-06-08 11:21:27</time>
      </trkpt>
      <trkpt lat="42.96882" lon="-0.38003">
        <ele>821.2</ele>
        <time>2022-06-08 11:21:28</time>
      </trkpt>
      <trkpt lat="42.96883" lon="-0.37997">
        <ele>821.4</ele>
        <time>2022-06-08 11:21:29</time>
      </trkpt>
      <trkpt lat="42.96883" lon="-0.3799">
        <ele>821.4</ele>
        <time>2022-06-08 11:21:30</time>
      </trkpt>
      <trkpt lat="42.96883" lon="-0.37984">
        <ele>821.8</ele>
        <time>2022-06-08 11:21:31</time>
      </trkpt>
      <trkpt lat="42.96882" lon="-0.37978">
        <ele>821.8</ele>
        <time>2022-06-08 11:21:32</time>
      </trkpt>
      <trkpt lat="42.9688" lon="-0.37973">
        <ele>822.2</ele>
        <time>2022-06-08 11:21:33</time>
      </trkpt>
      <trkpt lat="42.96877" lon="-0.37968">
        <ele>822.2</ele>
        <time>2022-06-08 11:21:34</time>
      </trkpt>
      <trkpt lat="42.96874" lon="-0.37963">
        <ele>822.2</ele>
        <time>2022-06-08 11:21:35</time>
      </trkpt>
      <trkpt lat="42.96871" lon="-0.37958">
        <ele>822.4</ele>
        <time>2022-06-08 11:21:36</time>
      </trkpt>
      <trkpt lat="42.96868" lon="-0.37954">
        <ele>822.6</ele>
        <time>2022-06-08 11:21:37</time>
      </trkpt>
      <trkpt lat="42.96865" lon="-0.37951">
        <ele>822.6</ele>
        <time>2022-06-08 11:21:38</time>
      </trkpt>
      <trkpt lat="42.96861" lon="-0.37949">
        <ele>822.8</ele>
        <time>2022-06-08 11:21:39</time>
      </trkpt>
      <trkpt lat="42.96857" lon="-0.37948">
        <ele>822.8</ele>
        <time>2022-06-08 11:21:40</time>
      </trkpt>
      <trkpt lat="42.96852" lon="-0.37947">
        <ele>823</ele>
        <time>2022-06-08 11:21:41</time>
      </trkpt>
      <trkpt lat="42.9685" lon="-0.37947">
        <ele>823.2</ele>
        <time>2022-06-08 11:21:42</time>
      </trkpt>
      <trkpt lat="42.96847" lon="-0.37946">
        <ele>823.2</ele>
        <time>2022-06-08 11:21:43</time>
      </trkpt>
      <trkpt lat="42.96844" lon="-0.37945">
        <ele>823.4</ele>
        <time>2022-06-08 11:21:44</time>
      </trkpt>
      <trkpt lat="42.9684" lon="-0.37944">
        <ele>823.6</ele>
        <time>2022-06-08 11:21:45</time>
      </trkpt>
      <trkpt lat="42.96836" lon="-0.37942">
        <ele>823.8</ele>
        <time>2022-06-08 11:21:46</time>
      </trkpt>
      <trkpt lat="42.96832" lon="-0.37938">
        <ele>824</ele>
        <time>2022-06-08 11:21:47</time>
      </trkpt>
      <trkpt lat="42.96828" lon="-0.37934">
        <ele>824.4</ele>
        <time>2022-06-08 11:21:48</time>
      </trkpt>
      <trkpt lat="42.96825" lon="-0.37928">
        <ele>824.4</ele>
        <time>2022-06-08 11:21:49</time>
      </trkpt>
      <trkpt lat="42.96822" lon="-0.37923">
        <ele>824.6</ele>
        <time>2022-06-08 11:21:50</time>
      </trkpt>
      <trkpt lat="42.96821" lon="-0.37916">
        <ele>824.6</ele>
        <time>2022-06-08 11:21:51</time>
      </trkpt>
      <trkpt lat="42.9682" lon="-0.3791">
        <ele>824.8</ele>
        <time>2022-06-08 11:21:52</time>
      </trkpt>
      <trkpt lat="42.96819" lon="-0.37903">
        <ele>824.8</ele>
        <time>2022-06-08 11:21:53</time>
      </trkpt>
      <trkpt lat="42.96819" lon="-0.37896">
        <ele>824.8</ele>
        <time>2022-06-08 11:21:54</time>
      </trkpt>
      <trkpt lat="42.96819" lon="-0.37889">
        <ele>824.8</ele>
        <time>2022-06-08 11:21:55</time>
      </trkpt>
      <trkpt lat="42.9682" lon="-0.37882">
        <ele>825</ele>
        <time>2022-06-08 11:21:56</time>
      </trkpt>
      <trkpt lat="42.9682" lon="-0.37875">
        <ele>825.4</ele>
        <time>2022-06-08 11:21:57</time>
      </trkpt>
      <trkpt lat="42.9682" lon="-0.37869">
        <ele>825.6</ele>
        <time>2022-06-08 11:21:58</time>
      </trkpt>
      <trkpt lat="42.96819" lon="-0.37862">
        <ele>825.8</ele>
        <time>2022-06-08 11:21:59</time>
      </trkpt>
      <trkpt lat="42.96817" lon="-0.37856">
        <ele>826</ele>
        <time>2022-06-08 11:22:00</time>
      </trkpt>
      <trkpt lat="42.96815" lon="-0.3785">
        <ele>826.2</ele>
        <time>2022-06-08 11:22:01</time>
      </trkpt>
      <trkpt lat="42.96813" lon="-0.37844">
        <ele>826.4</ele>
        <time>2022-06-08 11:22:02</time>
      </trkpt>
      <trkpt lat="42.96811" lon="-0.3784">
        <ele>826.6</ele>
        <time>2022-06-08 11:22:03</time>
      </trkpt>
      <trkpt lat="42.96809" lon="-0.37834">
        <ele>826.8</ele>
        <time>2022-06-08 11:22:04</time>
      </trkpt>
      <trkpt lat="42.96806" lon="-0.37828">
        <ele>826.8</ele>
        <time>2022-06-08 11:22:05</time>
      </trkpt>
      <trkpt lat="42.96804" lon="-0.37823">
        <ele>827</ele>
        <time>2022-06-08 11:22:06</time>
      </trkpt>
      <trkpt lat="42.96802" lon="-0.37817">
        <ele>827.2</ele>
        <time>2022-06-08 11:22:07</time>
      </trkpt>
      <trkpt lat="42.968" lon="-0.37811">
        <ele>827</ele>
        <time>2022-06-08 11:22:08</time>
      </trkpt>
      <trkpt lat="42.96799" lon="-0.37805">
        <ele>827.4</ele>
        <time>2022-06-08 11:22:09</time>
      </trkpt>
      <trkpt lat="42.96798" lon="-0.37799">
        <ele>827.6</ele>
        <time>2022-06-08 11:22:10</time>
      </trkpt>
      <trkpt lat="42.96797" lon="-0.37792">
        <ele>827.8</ele>
        <time>2022-06-08 11:22:11</time>
      </trkpt>
      <trkpt lat="42.96797" lon="-0.37786">
        <ele>827.8</ele>
        <time>2022-06-08 11:22:12</time>
      </trkpt>
      <trkpt lat="42.96797" lon="-0.37779">
        <ele>828</ele>
        <time>2022-06-08 11:22:13</time>
      </trkpt>
      <trkpt lat="42.96797" lon="-0.37773">
        <ele>828.2</ele>
        <time>2022-06-08 11:22:14</time>
      </trkpt>
      <trkpt lat="42.96797" lon="-0.37767">
        <ele>828.4</ele>
        <time>2022-06-08 11:22:15</time>
      </trkpt>
      <trkpt lat="42.96796" lon="-0.3776">
        <ele>828.6</ele>
        <time>2022-06-08 11:22:16</time>
      </trkpt>
      <trkpt lat="42.96795" lon="-0.37754">
        <ele>828.6</ele>
        <time>2022-06-08 11:22:17</time>
      </trkpt>
      <trkpt lat="42.96793" lon="-0.37748">
        <ele>829</ele>
        <time>2022-06-08 11:22:18</time>
      </trkpt>
      <trkpt lat="42.96791" lon="-0.37742">
        <ele>829.2</ele>
        <time>2022-06-08 11:22:19</time>
      </trkpt>
      <trkpt lat="42.96789" lon="-0.37737">
        <ele>829.4</ele>
        <time>2022-06-08 11:22:20</time>
      </trkpt>
      <trkpt lat="42.96786" lon="-0.37731">
        <ele>829.4</ele>
        <time>2022-06-08 11:22:21</time>
      </trkpt>
      <trkpt lat="42.96783" lon="-0.37727">
        <ele>829.6</ele>
        <time>2022-06-08 11:22:22</time>
      </trkpt>
      <trkpt lat="42.9678" lon="-0.37723">
        <ele>829.6</ele>
        <time>2022-06-08 11:22:23</time>
      </trkpt>
      <trkpt lat="42.96777" lon="-0.37719">
        <ele>829.8</ele>
        <time>2022-06-08 11:22:24</time>
      </trkpt>
      <trkpt lat="42.96773" lon="-0.37715">
        <ele>829.8</ele>
        <time>2022-06-08 11:22:25</time>
      </trkpt>
      <trkpt lat="42.9677" lon="-0.37712">
        <ele>830</ele>
        <time>2022-06-08 11:22:26</time>
      </trkpt>
      <trkpt lat="42.96766" lon="-0.37707">
        <ele>830.2</ele>
        <time>2022-06-08 11:22:27</time>
      </trkpt>
      <trkpt lat="42.96763" lon="-0.37703">
        <ele>830.6</ele>
        <time>2022-06-08 11:22:28</time>
      </trkpt>
      <trkpt lat="42.96761" lon="-0.37698">
        <ele>830.8</ele>
        <time>2022-06-08 11:22:29</time>
      </trkpt>
      <trkpt lat="42.96759" lon="-0.37692">
        <ele>831</ele>
        <time>2022-06-08 11:22:30</time>
      </trkpt>
      <trkpt lat="42.96757" lon="-0.37687">
        <ele>831.4</ele>
        <time>2022-06-08 11:22:31</time>
      </trkpt>
      <trkpt lat="42.96755" lon="-0.3768">
        <ele>831.6</ele>
        <time>2022-06-08 11:22:32</time>
      </trkpt>
      <trkpt lat="42.96754" lon="-0.37674">
        <ele>832</ele>
        <time>2022-06-08 11:22:33</time>
      </trkpt>
      <trkpt lat="42.96753" lon="-0.37668">
        <ele>832.2</ele>
        <time>2022-06-08 11:22:34</time>
      </trkpt>
      <trkpt lat="42.96753" lon="-0.37662">
        <ele>832.4</ele>
        <time>2022-06-08 11:22:35</time>
      </trkpt>
      <trkpt lat="42.96754" lon="-0.37655">
        <ele>832.4</ele>
        <time>2022-06-08 11:22:36</time>
      </trkpt>
      <trkpt lat="42.96755" lon="-0.37648">
        <ele>832.8</ele>
        <time>2022-06-08 11:22:37</time>
      </trkpt>
      <trkpt lat="42.96757" lon="-0.37642">
        <ele>833</ele>
        <time>2022-06-08 11:22:38</time>
      </trkpt>
      <trkpt lat="42.96761" lon="-0.37636">
        <ele>832.8</ele>
        <time>2022-06-08 11:22:39</time>
      </trkpt>
      <trkpt lat="42.96765" lon="-0.37632">
        <ele>832.8</ele>
        <time>2022-06-08 11:22:40</time>
      </trkpt>
      <trkpt lat="42.96768" lon="-0.37628">
        <ele>832.8</ele>
        <time>2022-06-08 11:22:41</time>
      </trkpt>
      <trkpt lat="42.96772" lon="-0.37624">
        <ele>832.8</ele>
        <time>2022-06-08 11:22:42</time>
      </trkpt>
      <trkpt lat="42.96777" lon="-0.3762">
        <ele>833</ele>
        <time>2022-06-08 11:22:43</time>
      </trkpt>
      <trkpt lat="42.96781" lon="-0.37617">
        <ele>833</ele>
        <time>2022-06-08 11:22:44</time>
      </trkpt>
      <trkpt lat="42.96785" lon="-0.37613">
        <ele>833</ele>
        <time>2022-06-08 11:22:45</time>
      </trkpt>
      <trkpt lat="42.96788" lon="-0.37609">
        <ele>833</ele>
        <time>2022-06-08 11:22:46</time>
      </trkpt>
      <trkpt lat="42.96791" lon="-0.37605">
        <ele>833.2</ele>
        <time>2022-06-08 11:22:47</time>
      </trkpt>
      <trkpt lat="42.96794" lon="-0.37601">
        <ele>833.4</ele>
        <time>2022-06-08 11:22:48</time>
      </trkpt>
      <trkpt lat="42.96795" lon="-0.37597">
        <ele>833.6</ele>
        <time>2022-06-08 11:22:49</time>
      </trkpt>
      <trkpt lat="42.96797" lon="-0.37593">
        <ele>833.6</ele>
        <time>2022-06-08 11:22:50</time>
      </trkpt>
      <trkpt lat="42.96797" lon="-0.37589">
        <ele>834</ele>
        <time>2022-06-08 11:22:51</time>
      </trkpt>
      <trkpt lat="42.96798" lon="-0.37585">
        <ele>834.4</ele>
        <time>2022-06-08 11:22:52</time>
      </trkpt>
      <trkpt lat="42.96797" lon="-0.37582">
        <ele>834.6</ele>
        <time>2022-06-08 11:22:53</time>
      </trkpt>
      <trkpt lat="42.96796" lon="-0.37579">
        <ele>835</ele>
        <time>2022-06-08 11:22:54</time>
      </trkpt>
      <trkpt lat="42.96795" lon="-0.37576">
        <ele>835.4</ele>
        <time>2022-06-08 11:22:55</time>
      </trkpt>
      <trkpt lat="42.96794" lon="-0.37574">
        <ele>835.8</ele>
        <time>2022-06-08 11:22:56</time>
      </trkpt>
      <trkpt lat="42.96792" lon="-0.37571">
        <ele>836.2</ele>
        <time>2022-06-08 11:22:57</time>
      </trkpt>
      <trkpt lat="42.9679" lon="-0.37569">
        <ele>836.4</ele>
        <time>2022-06-08 11:22:58</time>
      </trkpt>
      <trkpt lat="42.96788" lon="-0.37567">
        <ele>836.6</ele>
        <time>2022-06-08 11:22:59</time>
      </trkpt>
      <trkpt lat="42.96786" lon="-0.37564">
        <ele>837.2</ele>
        <time>2022-06-08 11:23:00</time>
      </trkpt>
      <trkpt lat="42.96784" lon="-0.37562">
        <ele>837.6</ele>
        <time>2022-06-08 11:23:01</time>
      </trkpt>
      <trkpt lat="42.96781" lon="-0.37559">
        <ele>838</ele>
        <time>2022-06-08 11:23:02</time>
      </trkpt>
      <trkpt lat="42.96779" lon="-0.37556">
        <ele>838.4</ele>
        <time>2022-06-08 11:23:03</time>
      </trkpt>
      <trkpt lat="42.96776" lon="-0.37554">
        <ele>838.6</ele>
        <time>2022-06-08 11:23:04</time>
      </trkpt>
      <trkpt lat="42.96774" lon="-0.37552">
        <ele>839</ele>
        <time>2022-06-08 11:23:05</time>
      </trkpt>
      <trkpt lat="42.96771" lon="-0.37549">
        <ele>839.2</ele>
        <time>2022-06-08 11:23:06</time>
      </trkpt>
      <trkpt lat="42.96769" lon="-0.37546">
        <ele>839.4</ele>
        <time>2022-06-08 11:23:07</time>
      </trkpt>
      <trkpt lat="42.96768" lon="-0.37544">
        <ele>839.6</ele>
        <time>2022-06-08 11:23:08</time>
      </trkpt>
      <trkpt lat="42.96766" lon="-0.3754">
        <ele>840.2</ele>
        <time>2022-06-08 11:23:09</time>
      </trkpt>
      <trkpt lat="42.96765" lon="-0.37537">
        <ele>840.4</ele>
        <time>2022-06-08 11:23:10</time>
      </trkpt>
      <trkpt lat="42.96763" lon="-0.37533">
        <ele>840.8</ele>
        <time>2022-06-08 11:23:11</time>
      </trkpt>
      <trkpt lat="42.96762" lon="-0.37529">
        <ele>841</ele>
        <time>2022-06-08 11:23:12</time>
      </trkpt>
      <trkpt lat="42.96761" lon="-0.37526">
        <ele>841.4</ele>
        <time>2022-06-08 11:23:13</time>
      </trkpt>
      <trkpt lat="42.9676" lon="-0.37524">
        <ele>841.8</ele>
        <time>2022-06-08 11:23:14</time>
      </trkpt>
      <trkpt lat="42.96759" lon="-0.37521">
        <ele>842.2</ele>
        <time>2022-06-08 11:23:15</time>
      </trkpt>
      <trkpt lat="42.96759" lon="-0.37517">
        <ele>842.8</ele>
        <time>2022-06-08 11:23:16</time>
      </trkpt>
      <trkpt lat="42.96758" lon="-0.37514">
        <ele>843</ele>
        <time>2022-06-08 11:23:17</time>
      </trkpt>
      <trkpt lat="42.96758" lon="-0.37511">
        <ele>843.2</ele>
        <time>2022-06-08 11:23:18</time>
      </trkpt>
      <trkpt lat="42.96758" lon="-0.37508">
        <ele>843.4</ele>
        <time>2022-06-08 11:23:19</time>
      </trkpt>
      <trkpt lat="42.96758" lon="-0.37506">
        <ele>844</ele>
        <time>2022-06-08 11:23:20</time>
      </trkpt>
      <trkpt lat="42.96757" lon="-0.37503">
        <ele>844.2</ele>
        <time>2022-06-08 11:23:21</time>
      </trkpt>
      <trkpt lat="42.96757" lon="-0.375">
        <ele>844.4</ele>
        <time>2022-06-08 11:23:22</time>
      </trkpt>
      <trkpt lat="42.96756" lon="-0.37497">
        <ele>844.6</ele>
        <time>2022-06-08 11:23:23</time>
      </trkpt>
      <trkpt lat="42.96756" lon="-0.37494">
        <ele>845</ele>
        <time>2022-06-08 11:23:24</time>
      </trkpt>
      <trkpt lat="42.96756" lon="-0.37491">
        <ele>845.2</ele>
        <time>2022-06-08 11:23:25</time>
      </trkpt>
      <trkpt lat="42.96755" lon="-0.37487">
        <ele>845.8</ele>
        <time>2022-06-08 11:23:26</time>
      </trkpt>
      <trkpt lat="42.96755" lon="-0.37483">
        <ele>846</ele>
        <time>2022-06-08 11:23:27</time>
      </trkpt>
      <trkpt lat="42.96754" lon="-0.3748">
        <ele>846.4</ele>
        <time>2022-06-08 11:23:28</time>
      </trkpt>
      <trkpt lat="42.96754" lon="-0.37477">
        <ele>846.6</ele>
        <time>2022-06-08 11:23:29</time>
      </trkpt>
      <trkpt lat="42.96754" lon="-0.37474">
        <ele>847.2</ele>
        <time>2022-06-08 11:23:30</time>
      </trkpt>
      <trkpt lat="42.96754" lon="-0.37471">
        <ele>847.4</ele>
        <time>2022-06-08 11:23:31</time>
      </trkpt>
      <trkpt lat="42.96753" lon="-0.37468">
        <ele>848</ele>
        <time>2022-06-08 11:23:32</time>
      </trkpt>
      <trkpt lat="42.96753" lon="-0.37466">
        <ele>848.4</ele>
        <time>2022-06-08 11:23:33</time>
      </trkpt>
      <trkpt lat="42.96751" lon="-0.37462">
        <ele>848.6</ele>
        <time>2022-06-08 11:23:34</time>
      </trkpt>
      <trkpt lat="42.96751" lon="-0.37459">
        <ele>849</ele>
        <time>2022-06-08 11:23:35</time>
      </trkpt>
      <trkpt lat="42.9675" lon="-0.37456">
        <ele>849.4</ele>
        <time>2022-06-08 11:23:36</time>
      </trkpt>
      <trkpt lat="42.96749" lon="-0.37453">
        <ele>849.6</ele>
        <time>2022-06-08 11:23:37</time>
      </trkpt>
      <trkpt lat="42.96749" lon="-0.3745">
        <ele>849.8</ele>
        <time>2022-06-08 11:23:38</time>
      </trkpt>
      <trkpt lat="42.96748" lon="-0.37447">
        <ele>850</ele>
        <time>2022-06-08 11:23:39</time>
      </trkpt>
      <trkpt lat="42.96748" lon="-0.37444">
        <ele>850.2</ele>
        <time>2022-06-08 11:23:40</time>
      </trkpt>
      <trkpt lat="42.96747" lon="-0.37441">
        <ele>850.8</ele>
        <time>2022-06-08 11:23:41</time>
      </trkpt>
      <trkpt lat="42.96747" lon="-0.37439">
        <ele>851</ele>
        <time>2022-06-08 11:23:42</time>
      </trkpt>
      <trkpt lat="42.96747" lon="-0.37436">
        <ele>851.2</ele>
        <time>2022-06-08 11:23:43</time>
      </trkpt>
      <trkpt lat="42.96746" lon="-0.37432">
        <ele>851.4</ele>
        <time>2022-06-08 11:23:44</time>
      </trkpt>
      <trkpt lat="42.96746" lon="-0.37429">
        <ele>851.8</ele>
        <time>2022-06-08 11:23:45</time>
      </trkpt>
      <trkpt lat="42.96746" lon="-0.37426">
        <ele>852</ele>
        <time>2022-06-08 11:23:46</time>
      </trkpt>
      <trkpt lat="42.96746" lon="-0.37423">
        <ele>852.4</ele>
        <time>2022-06-08 11:23:47</time>
      </trkpt>
      <trkpt lat="42.96745" lon="-0.3742">
        <ele>852.6</ele>
        <time>2022-06-08 11:23:48</time>
      </trkpt>
      <trkpt lat="42.96745" lon="-0.37417">
        <ele>852.6</ele>
        <time>2022-06-08 11:23:49</time>
      </trkpt>
      <trkpt lat="42.96746" lon="-0.37414">
        <ele>852.8</ele>
        <time>2022-06-08 11:23:50</time>
      </trkpt>
      <trkpt lat="42.96746" lon="-0.3741">
        <ele>853</ele>
        <time>2022-06-08 11:23:51</time>
      </trkpt>
      <trkpt lat="42.96746" lon="-0.37408">
        <ele>853.4</ele>
        <time>2022-06-08 11:23:52</time>
      </trkpt>
      <trkpt lat="42.96746" lon="-0.37405">
        <ele>853.6</ele>
        <time>2022-06-08 11:23:53</time>
      </trkpt>
      <trkpt lat="42.96747" lon="-0.37401">
        <ele>854</ele>
        <time>2022-06-08 11:23:54</time>
      </trkpt>
      <trkpt lat="42.96747" lon="-0.37397">
        <ele>854</ele>
        <time>2022-06-08 11:23:55</time>
      </trkpt>
      <trkpt lat="42.96748" lon="-0.37394">
        <ele>854.4</ele>
        <time>2022-06-08 11:23:56</time>
      </trkpt>
      <trkpt lat="42.96748" lon="-0.3739">
        <ele>854.6</ele>
        <time>2022-06-08 11:23:57</time>
      </trkpt>
      <trkpt lat="42.96748" lon="-0.37386">
        <ele>855.2</ele>
        <time>2022-06-08 11:23:58</time>
      </trkpt>
      <trkpt lat="42.96748" lon="-0.37383">
        <ele>855.2</ele>
        <time>2022-06-08 11:23:59</time>
      </trkpt>
      <trkpt lat="42.96748" lon="-0.37379">
        <ele>855.6</ele>
        <time>2022-06-08 11:24:00</time>
      </trkpt>
      <trkpt lat="42.96748" lon="-0.37376">
        <ele>855.6</ele>
        <time>2022-06-08 11:24:01</time>
      </trkpt>
      <trkpt lat="42.96749" lon="-0.37371">
        <ele>856</ele>
        <time>2022-06-08 11:24:02</time>
      </trkpt>
      <trkpt lat="42.96749" lon="-0.37367">
        <ele>856.2</ele>
        <time>2022-06-08 11:24:03</time>
      </trkpt>
      <trkpt lat="42.96749" lon="-0.37363">
        <ele>856.2</ele>
        <time>2022-06-08 11:24:04</time>
      </trkpt>
      <trkpt lat="42.96749" lon="-0.37359">
        <ele>856.4</ele>
        <time>2022-06-08 11:24:05</time>
      </trkpt>
      <trkpt lat="42.96749" lon="-0.37355">
        <ele>856.4</ele>
        <time>2022-06-08 11:24:06</time>
      </trkpt>
      <trkpt lat="42.96749" lon="-0.37352">
        <ele>856.6</ele>
        <time>2022-06-08 11:24:07</time>
      </trkpt>
      <trkpt lat="42.96749" lon="-0.37348">
        <ele>856.8</ele>
        <time>2022-06-08 11:24:08</time>
      </trkpt>
      <trkpt lat="42.96748" lon="-0.37344">
        <ele>857.2</ele>
        <time>2022-06-08 11:24:09</time>
      </trkpt>
      <trkpt lat="42.96748" lon="-0.3734">
        <ele>857.4</ele>
        <time>2022-06-08 11:24:10</time>
      </trkpt>
      <trkpt lat="42.96748" lon="-0.37335">
        <ele>857.6</ele>
        <time>2022-06-08 11:24:11</time>
      </trkpt>
      <trkpt lat="42.96747" lon="-0.37331">
        <ele>857.8</ele>
        <time>2022-06-08 11:24:12</time>
      </trkpt>
      <trkpt lat="42.96747" lon="-0.37327">
        <ele>858</ele>
        <time>2022-06-08 11:24:13</time>
      </trkpt>
      <trkpt lat="42.96746" lon="-0.37322">
        <ele>857.8</ele>
        <time>2022-06-08 11:24:14</time>
      </trkpt>
      <trkpt lat="42.96746" lon="-0.37317">
        <ele>858</ele>
        <time>2022-06-08 11:24:15</time>
      </trkpt>
      <trkpt lat="42.96745" lon="-0.37313">
        <ele>858.2</ele>
        <time>2022-06-08 11:24:16</time>
      </trkpt>
      <trkpt lat="42.96745" lon="-0.3731">
        <ele>858.4</ele>
        <time>2022-06-08 11:24:17</time>
      </trkpt>
      <trkpt lat="42.96744" lon="-0.37304">
        <ele>858.4</ele>
        <time>2022-06-08 11:24:18</time>
      </trkpt>
      <trkpt lat="42.96744" lon="-0.373">
        <ele>858.8</ele>
        <time>2022-06-08 11:24:19</time>
      </trkpt>
      <trkpt lat="42.96743" lon="-0.37296">
        <ele>859</ele>
        <time>2022-06-08 11:24:20</time>
      </trkpt>
      <trkpt lat="42.96743" lon="-0.37291">
        <ele>859.2</ele>
        <time>2022-06-08 11:24:21</time>
      </trkpt>
      <trkpt lat="42.96742" lon="-0.37286">
        <ele>859.4</ele>
        <time>2022-06-08 11:24:22</time>
      </trkpt>
      <trkpt lat="42.96741" lon="-0.37281">
        <ele>859.6</ele>
        <time>2022-06-08 11:24:23</time>
      </trkpt>
      <trkpt lat="42.96741" lon="-0.37276">
        <ele>859.8</ele>
        <time>2022-06-08 11:24:24</time>
      </trkpt>
      <trkpt lat="42.9674" lon="-0.37271">
        <ele>859.8</ele>
        <time>2022-06-08 11:24:25</time>
      </trkpt>
      <trkpt lat="42.96739" lon="-0.37266">
        <ele>860</ele>
        <time>2022-06-08 11:24:26</time>
      </trkpt>
      <trkpt lat="42.96739" lon="-0.37261">
        <ele>860</ele>
        <time>2022-06-08 11:24:27</time>
      </trkpt>
      <trkpt lat="42.96739" lon="-0.37257">
        <ele>860.4</ele>
        <time>2022-06-08 11:24:28</time>
      </trkpt>
      <trkpt lat="42.96738" lon="-0.37251">
        <ele>860.4</ele>
        <time>2022-06-08 11:24:29</time>
      </trkpt>
      <trkpt lat="42.96738" lon="-0.37247">
        <ele>860.8</ele>
        <time>2022-06-08 11:24:30</time>
      </trkpt>
      <trkpt lat="42.96737" lon="-0.37242">
        <ele>860.8</ele>
        <time>2022-06-08 11:24:31</time>
      </trkpt>
      <trkpt lat="42.96737" lon="-0.37236">
        <ele>860.8</ele>
        <time>2022-06-08 11:24:32</time>
      </trkpt>
      <trkpt lat="42.96736" lon="-0.37231">
        <ele>861</ele>
        <time>2022-06-08 11:24:33</time>
      </trkpt>
      <trkpt lat="42.96736" lon="-0.37226">
        <ele>861</ele>
        <time>2022-06-08 11:24:34</time>
      </trkpt>
      <trkpt lat="42.96735" lon="-0.37221">
        <ele>861.4</ele>
        <time>2022-06-08 11:24:35</time>
      </trkpt>
      <trkpt lat="42.96735" lon="-0.37217">
        <ele>861.6</ele>
        <time>2022-06-08 11:24:36</time>
      </trkpt>
      <trkpt lat="42.96734" lon="-0.37212">
        <ele>862</ele>
        <time>2022-06-08 11:24:37</time>
      </trkpt>
      <trkpt lat="42.96734" lon="-0.37207">
        <ele>862</ele>
        <time>2022-06-08 11:24:38</time>
      </trkpt>
      <trkpt lat="42.96735" lon="-0.37203">
        <ele>862.4</ele>
        <time>2022-06-08 11:24:39</time>
      </trkpt>
      <trkpt lat="42.96735" lon="-0.37199">
        <ele>862.4</ele>
        <time>2022-06-08 11:24:40</time>
      </trkpt>
      <trkpt lat="42.96736" lon="-0.37194">
        <ele>862.8</ele>
        <time>2022-06-08 11:24:41</time>
      </trkpt>
      <trkpt lat="42.96737" lon="-0.37189">
        <ele>862.8</ele>
        <time>2022-06-08 11:24:42</time>
      </trkpt>
      <trkpt lat="42.96738" lon="-0.37185">
        <ele>863.2</ele>
        <time>2022-06-08 11:24:43</time>
      </trkpt>
      <trkpt lat="42.9674" lon="-0.37181">
        <ele>863.4</ele>
        <time>2022-06-08 11:24:44</time>
      </trkpt>
      <trkpt lat="42.96742" lon="-0.37178">
        <ele>863.8</ele>
        <time>2022-06-08 11:24:45</time>
      </trkpt>
      <trkpt lat="42.96743" lon="-0.37176">
        <ele>864</ele>
        <time>2022-06-08 11:24:46</time>
      </trkpt>
      <trkpt lat="42.96746" lon="-0.37172">
        <ele>864.2</ele>
        <time>2022-06-08 11:24:47</time>
      </trkpt>
      <trkpt lat="42.96749" lon="-0.3717">
        <ele>864.2</ele>
        <time>2022-06-08 11:24:48</time>
      </trkpt>
      <trkpt lat="42.96752" lon="-0.37168">
        <ele>864.6</ele>
        <time>2022-06-08 11:24:49</time>
      </trkpt>
      <trkpt lat="42.96755" lon="-0.37167">
        <ele>864.8</ele>
        <time>2022-06-08 11:24:50</time>
      </trkpt>
      <trkpt lat="42.96758" lon="-0.37165">
        <ele>865</ele>
        <time>2022-06-08 11:24:51</time>
      </trkpt>
      <trkpt lat="42.96761" lon="-0.37164">
        <ele>865.4</ele>
        <time>2022-06-08 11:24:52</time>
      </trkpt>
      <trkpt lat="42.96765" lon="-0.37164">
        <ele>865.6</ele>
        <time>2022-06-08 11:24:53</time>
      </trkpt>
      <trkpt lat="42.96768" lon="-0.37164">
        <ele>866</ele>
        <time>2022-06-08 11:24:54</time>
      </trkpt>
      <trkpt lat="42.96771" lon="-0.37164">
        <ele>866.2</ele>
        <time>2022-06-08 11:24:55</time>
      </trkpt>
      <trkpt lat="42.96774" lon="-0.37165">
        <ele>866.6</ele>
        <time>2022-06-08 11:24:56</time>
      </trkpt>
      <trkpt lat="42.96777" lon="-0.37166">
        <ele>866.8</ele>
        <time>2022-06-08 11:24:57</time>
      </trkpt>
      <trkpt lat="42.9678" lon="-0.37168">
        <ele>867.2</ele>
        <time>2022-06-08 11:24:58</time>
      </trkpt>
      <trkpt lat="42.96783" lon="-0.3717">
        <ele>867.6</ele>
        <time>2022-06-08 11:24:59</time>
      </trkpt>
      <trkpt lat="42.96785" lon="-0.37172">
        <ele>867.8</ele>
        <time>2022-06-08 11:25:00</time>
      </trkpt>
      <trkpt lat="42.96788" lon="-0.37175">
        <ele>868</ele>
        <time>2022-06-08 11:25:01</time>
      </trkpt>
      <trkpt lat="42.9679" lon="-0.37178">
        <ele>868.6</ele>
        <time>2022-06-08 11:25:02</time>
      </trkpt>
      <trkpt lat="42.96791" lon="-0.37181">
        <ele>868.6</ele>
        <time>2022-06-08 11:25:03</time>
      </trkpt>
      <trkpt lat="42.96793" lon="-0.37184">
        <ele>869</ele>
        <time>2022-06-08 11:25:04</time>
      </trkpt>
      <trkpt lat="42.96795" lon="-0.37188">
        <ele>869.2</ele>
        <time>2022-06-08 11:25:05</time>
      </trkpt>
      <trkpt lat="42.96796" lon="-0.37191">
        <ele>869.4</ele>
        <time>2022-06-08 11:25:06</time>
      </trkpt>
      <trkpt lat="42.96798" lon="-0.37195">
        <ele>869.8</ele>
        <time>2022-06-08 11:25:07</time>
      </trkpt>
      <trkpt lat="42.96799" lon="-0.37199">
        <ele>870</ele>
        <time>2022-06-08 11:25:08</time>
      </trkpt>
      <trkpt lat="42.96801" lon="-0.37202">
        <ele>870.2</ele>
        <time>2022-06-08 11:25:09</time>
      </trkpt>
      <trkpt lat="42.96802" lon="-0.37205">
        <ele>870.4</ele>
        <time>2022-06-08 11:25:10</time>
      </trkpt>
      <trkpt lat="42.96804" lon="-0.37209">
        <ele>871</ele>
        <time>2022-06-08 11:25:11</time>
      </trkpt>
      <trkpt lat="42.96806" lon="-0.37212">
        <ele>871.2</ele>
        <time>2022-06-08 11:25:12</time>
      </trkpt>
      <trkpt lat="42.96808" lon="-0.37216">
        <ele>871.6</ele>
        <time>2022-06-08 11:25:13</time>
      </trkpt>
      <trkpt lat="42.9681" lon="-0.37219">
        <ele>871.6</ele>
        <time>2022-06-08 11:25:14</time>
      </trkpt>
      <trkpt lat="42.96811" lon="-0.37222">
        <ele>872</ele>
        <time>2022-06-08 11:25:15</time>
      </trkpt>
      <trkpt lat="42.96813" lon="-0.37226">
        <ele>872</ele>
        <time>2022-06-08 11:25:16</time>
      </trkpt>
      <trkpt lat="42.96815" lon="-0.37229">
        <ele>872.2</ele>
        <time>2022-06-08 11:25:17</time>
      </trkpt>
      <trkpt lat="42.96817" lon="-0.37232">
        <ele>872.4</ele>
        <time>2022-06-08 11:25:18</time>
      </trkpt>
      <trkpt lat="42.96819" lon="-0.37235">
        <ele>872.8</ele>
        <time>2022-06-08 11:25:19</time>
      </trkpt>
      <trkpt lat="42.96822" lon="-0.37238">
        <ele>873</ele>
        <time>2022-06-08 11:25:20</time>
      </trkpt>
      <trkpt lat="42.96824" lon="-0.37241">
        <ele>873.2</ele>
        <time>2022-06-08 11:25:21</time>
      </trkpt>
      <trkpt lat="42.96826" lon="-0.37243">
        <ele>873.6</ele>
        <time>2022-06-08 11:25:22</time>
      </trkpt>
      <trkpt lat="42.96828" lon="-0.37246">
        <ele>873.8</ele>
        <time>2022-06-08 11:25:23</time>
      </trkpt>
      <trkpt lat="42.9683" lon="-0.37248">
        <ele>874</ele>
        <time>2022-06-08 11:25:24</time>
      </trkpt>
      <trkpt lat="42.96832" lon="-0.3725">
        <ele>874.4</ele>
        <time>2022-06-08 11:25:25</time>
      </trkpt>
      <trkpt lat="42.96835" lon="-0.37252">
        <ele>874.8</ele>
        <time>2022-06-08 11:25:26</time>
      </trkpt>
      <trkpt lat="42.96837" lon="-0.37254">
        <ele>874.8</ele>
        <time>2022-06-08 11:25:27</time>
      </trkpt>
      <trkpt lat="42.96839" lon="-0.37256">
        <ele>875.2</ele>
        <time>2022-06-08 11:25:28</time>
      </trkpt>
      <trkpt lat="42.96841" lon="-0.37257">
        <ele>875.4</ele>
        <time>2022-06-08 11:25:29</time>
      </trkpt>
      <trkpt lat="42.96844" lon="-0.37259">
        <ele>875.8</ele>
        <time>2022-06-08 11:25:30</time>
      </trkpt>
      <trkpt lat="42.96847" lon="-0.3726">
        <ele>875.8</ele>
        <time>2022-06-08 11:25:31</time>
      </trkpt>
      <trkpt lat="42.96849" lon="-0.37261">
        <ele>876.2</ele>
        <time>2022-06-08 11:25:32</time>
      </trkpt>
      <trkpt lat="42.96852" lon="-0.37261">
        <ele>876.4</ele>
        <time>2022-06-08 11:25:33</time>
      </trkpt>
      <trkpt lat="42.96854" lon="-0.37261">
        <ele>876.8</ele>
        <time>2022-06-08 11:25:34</time>
      </trkpt>
      <trkpt lat="42.96857" lon="-0.37261">
        <ele>877</ele>
        <time>2022-06-08 11:25:35</time>
      </trkpt>
      <trkpt lat="42.96859" lon="-0.37262">
        <ele>877.4</ele>
        <time>2022-06-08 11:25:36</time>
      </trkpt>
      <trkpt lat="42.96862" lon="-0.37262">
        <ele>877.8</ele>
        <time>2022-06-08 11:25:37</time>
      </trkpt>
      <trkpt lat="42.96865" lon="-0.37261">
        <ele>878</ele>
        <time>2022-06-08 11:25:38</time>
      </trkpt>
      <trkpt lat="42.96868" lon="-0.3726">
        <ele>878.2</ele>
        <time>2022-06-08 11:25:39</time>
      </trkpt>
      <trkpt lat="42.9687" lon="-0.37259">
        <ele>878.4</ele>
        <time>2022-06-08 11:25:40</time>
      </trkpt>
      <trkpt lat="42.96873" lon="-0.37259">
        <ele>878.8</ele>
        <time>2022-06-08 11:25:41</time>
      </trkpt>
      <trkpt lat="42.96876" lon="-0.37258">
        <ele>879</ele>
        <time>2022-06-08 11:25:42</time>
      </trkpt>
      <trkpt lat="42.96878" lon="-0.37257">
        <ele>879.2</ele>
        <time>2022-06-08 11:25:43</time>
      </trkpt>
      <trkpt lat="42.96881" lon="-0.37256">
        <ele>879.2</ele>
        <time>2022-06-08 11:25:44</time>
      </trkpt>
      <trkpt lat="42.96883" lon="-0.37255">
        <ele>879.6</ele>
        <time>2022-06-08 11:25:45</time>
      </trkpt>
      <trkpt lat="42.96885" lon="-0.37253">
        <ele>879.8</ele>
        <time>2022-06-08 11:25:46</time>
      </trkpt>
      <trkpt lat="42.96886" lon="-0.37252">
        <ele>880.2</ele>
        <time>2022-06-08 11:25:47</time>
      </trkpt>
      <trkpt lat="42.96889" lon="-0.3725">
        <ele>880.4</ele>
        <time>2022-06-08 11:25:48</time>
      </trkpt>
      <trkpt lat="42.96891" lon="-0.37249">
        <ele>880.8</ele>
        <time>2022-06-08 11:25:49</time>
      </trkpt>
      <trkpt lat="42.96893" lon="-0.37247">
        <ele>880.8</ele>
        <time>2022-06-08 11:25:50</time>
      </trkpt>
      <trkpt lat="42.96895" lon="-0.37244">
        <ele>881</ele>
        <time>2022-06-08 11:25:51</time>
      </trkpt>
      <trkpt lat="42.96896" lon="-0.37241">
        <ele>881.2</ele>
        <time>2022-06-08 11:25:52</time>
      </trkpt>
      <trkpt lat="42.96898" lon="-0.37238">
        <ele>881.4</ele>
        <time>2022-06-08 11:25:53</time>
      </trkpt>
      <trkpt lat="42.96899" lon="-0.37235">
        <ele>881.8</ele>
        <time>2022-06-08 11:25:54</time>
      </trkpt>
      <trkpt lat="42.969" lon="-0.37232">
        <ele>881.8</ele>
        <time>2022-06-08 11:25:55</time>
      </trkpt>
      <trkpt lat="42.96901" lon="-0.37229">
        <ele>882.2</ele>
        <time>2022-06-08 11:25:56</time>
      </trkpt>
      <trkpt lat="42.96902" lon="-0.37226">
        <ele>882.2</ele>
        <time>2022-06-08 11:25:57</time>
      </trkpt>
      <trkpt lat="42.96903" lon="-0.37223">
        <ele>882.6</ele>
        <time>2022-06-08 11:25:58</time>
      </trkpt>
      <trkpt lat="42.96903" lon="-0.37219">
        <ele>882.8</ele>
        <time>2022-06-08 11:25:59</time>
      </trkpt>
      <trkpt lat="42.96903" lon="-0.37216">
        <ele>883</ele>
        <time>2022-06-08 11:26:00</time>
      </trkpt>
      <trkpt lat="42.96904" lon="-0.37212">
        <ele>883.2</ele>
        <time>2022-06-08 11:26:01</time>
      </trkpt>
      <trkpt lat="42.96903" lon="-0.37209">
        <ele>883.6</ele>
        <time>2022-06-08 11:26:02</time>
      </trkpt>
      <trkpt lat="42.96903" lon="-0.37205">
        <ele>883.8</ele>
        <time>2022-06-08 11:26:03</time>
      </trkpt>
      <trkpt lat="42.96902" lon="-0.37202">
        <ele>884.2</ele>
        <time>2022-06-08 11:26:04</time>
      </trkpt>
      <trkpt lat="42.96901" lon="-0.37198">
        <ele>884.4</ele>
        <time>2022-06-08 11:26:05</time>
      </trkpt>
      <trkpt lat="42.96901" lon="-0.37195">
        <ele>884.8</ele>
        <time>2022-06-08 11:26:06</time>
      </trkpt>
      <trkpt lat="42.969" lon="-0.37192">
        <ele>885.2</ele>
        <time>2022-06-08 11:26:07</time>
      </trkpt>
      <trkpt lat="42.96899" lon="-0.37189">
        <ele>885.4</ele>
        <time>2022-06-08 11:26:08</time>
      </trkpt>
      <trkpt lat="42.96898" lon="-0.37186">
        <ele>885.8</ele>
        <time>2022-06-08 11:26:09</time>
      </trkpt>
      <trkpt lat="42.96897" lon="-0.37183">
        <ele>886</ele>
        <time>2022-06-08 11:26:10</time>
      </trkpt>
      <trkpt lat="42.96896" lon="-0.3718">
        <ele>886.4</ele>
        <time>2022-06-08 11:26:11</time>
      </trkpt>
      <trkpt lat="42.96895" lon="-0.37177">
        <ele>886.6</ele>
        <time>2022-06-08 11:26:12</time>
      </trkpt>
      <trkpt lat="42.96893" lon="-0.37174">
        <ele>887</ele>
        <time>2022-06-08 11:26:13</time>
      </trkpt>
      <trkpt lat="42.96892" lon="-0.37171">
        <ele>887.2</ele>
        <time>2022-06-08 11:26:14</time>
      </trkpt>
      <trkpt lat="42.9689" lon="-0.37168">
        <ele>887.4</ele>
        <time>2022-06-08 11:26:15</time>
      </trkpt>
      <trkpt lat="42.96889" lon="-0.37165">
        <ele>887.6</ele>
        <time>2022-06-08 11:26:16</time>
      </trkpt>
      <trkpt lat="42.96888" lon="-0.37162">
        <ele>888</ele>
        <time>2022-06-08 11:26:17</time>
      </trkpt>
      <trkpt lat="42.96886" lon="-0.37158">
        <ele>888</ele>
        <time>2022-06-08 11:26:18</time>
      </trkpt>
      <trkpt lat="42.96885" lon="-0.37155">
        <ele>888.4</ele>
        <time>2022-06-08 11:26:19</time>
      </trkpt>
      <trkpt lat="42.96884" lon="-0.37152">
        <ele>888.6</ele>
        <time>2022-06-08 11:26:20</time>
      </trkpt>
      <trkpt lat="42.96884" lon="-0.37148">
        <ele>888.8</ele>
        <time>2022-06-08 11:26:21</time>
      </trkpt>
      <trkpt lat="42.96883" lon="-0.37145">
        <ele>889</ele>
        <time>2022-06-08 11:26:22</time>
      </trkpt>
      <trkpt lat="42.96883" lon="-0.37141">
        <ele>889.2</ele>
        <time>2022-06-08 11:26:23</time>
      </trkpt>
      <trkpt lat="42.96883" lon="-0.37137">
        <ele>889.6</ele>
        <time>2022-06-08 11:26:24</time>
      </trkpt>
      <trkpt lat="42.96883" lon="-0.37133">
        <ele>890</ele>
        <time>2022-06-08 11:26:25</time>
      </trkpt>
      <trkpt lat="42.96883" lon="-0.37129">
        <ele>890.4</ele>
        <time>2022-06-08 11:26:26</time>
      </trkpt>
      <trkpt lat="42.96884" lon="-0.37126">
        <ele>890.4</ele>
        <time>2022-06-08 11:26:27</time>
      </trkpt>
      <trkpt lat="42.96884" lon="-0.37122">
        <ele>890.6</ele>
        <time>2022-06-08 11:26:28</time>
      </trkpt>
      <trkpt lat="42.96885" lon="-0.37118">
        <ele>890.8</ele>
        <time>2022-06-08 11:26:29</time>
      </trkpt>
      <trkpt lat="42.96886" lon="-0.37114">
        <ele>891</ele>
        <time>2022-06-08 11:26:30</time>
      </trkpt>
      <trkpt lat="42.96886" lon="-0.3711">
        <ele>891.2</ele>
        <time>2022-06-08 11:26:31</time>
      </trkpt>
      <trkpt lat="42.96887" lon="-0.37107">
        <ele>891.6</ele>
        <time>2022-06-08 11:26:32</time>
      </trkpt>
      <trkpt lat="42.96888" lon="-0.37103">
        <ele>891.8</ele>
        <time>2022-06-08 11:26:33</time>
      </trkpt>
      <trkpt lat="42.96888" lon="-0.371">
        <ele>892</ele>
        <time>2022-06-08 11:26:34</time>
      </trkpt>
      <trkpt lat="42.96889" lon="-0.37096">
        <ele>892.2</ele>
        <time>2022-06-08 11:26:35</time>
      </trkpt>
      <trkpt lat="42.96889" lon="-0.37092">
        <ele>892.6</ele>
        <time>2022-06-08 11:26:36</time>
      </trkpt>
      <trkpt lat="42.96889" lon="-0.37088">
        <ele>892.8</ele>
        <time>2022-06-08 11:26:37</time>
      </trkpt>
      <trkpt lat="42.96889" lon="-0.37084">
        <ele>893.2</ele>
        <time>2022-06-08 11:26:38</time>
      </trkpt>
      <trkpt lat="42.96889" lon="-0.3708">
        <ele>893.2</ele>
        <time>2022-06-08 11:26:39</time>
      </trkpt>
      <trkpt lat="42.96888" lon="-0.37077">
        <ele>893.4</ele>
        <time>2022-06-08 11:26:40</time>
      </trkpt>
      <trkpt lat="42.96887" lon="-0.37073">
        <ele>893.8</ele>
        <time>2022-06-08 11:26:41</time>
      </trkpt>
      <trkpt lat="42.96887" lon="-0.3707">
        <ele>894</ele>
        <time>2022-06-08 11:26:42</time>
      </trkpt>
      <trkpt lat="42.96886" lon="-0.37067">
        <ele>894.2</ele>
        <time>2022-06-08 11:26:43</time>
      </trkpt>
      <trkpt lat="42.96885" lon="-0.37064">
        <ele>894.4</ele>
        <time>2022-06-08 11:26:44</time>
      </trkpt>
      <trkpt lat="42.96884" lon="-0.3706">
        <ele>894.6</ele>
        <time>2022-06-08 11:26:45</time>
      </trkpt>
      <trkpt lat="42.96882" lon="-0.37057">
        <ele>894.8</ele>
        <time>2022-06-08 11:26:46</time>
      </trkpt>
      <trkpt lat="42.96881" lon="-0.37054">
        <ele>895.2</ele>
        <time>2022-06-08 11:26:47</time>
      </trkpt>
      <trkpt lat="42.9688" lon="-0.37051">
        <ele>895.4</ele>
        <time>2022-06-08 11:26:48</time>
      </trkpt>
      <trkpt lat="42.96878" lon="-0.37048">
        <ele>895.8</ele>
        <time>2022-06-08 11:26:49</time>
      </trkpt>
      <trkpt lat="42.96877" lon="-0.37044">
        <ele>896</ele>
        <time>2022-06-08 11:26:50</time>
      </trkpt>
      <trkpt lat="42.96876" lon="-0.37041">
        <ele>896.2</ele>
        <time>2022-06-08 11:26:51</time>
      </trkpt>
      <trkpt lat="42.96874" lon="-0.37038">
        <ele>896.4</ele>
        <time>2022-06-08 11:26:52</time>
      </trkpt>
      <trkpt lat="42.96873" lon="-0.37035">
        <ele>896.6</ele>
        <time>2022-06-08 11:26:53</time>
      </trkpt>
      <trkpt lat="42.96872" lon="-0.37032">
        <ele>896.8</ele>
        <time>2022-06-08 11:26:54</time>
      </trkpt>
      <trkpt lat="42.9687" lon="-0.37028">
        <ele>897</ele>
        <time>2022-06-08 11:26:55</time>
      </trkpt>
      <trkpt lat="42.96869" lon="-0.37025">
        <ele>897.2</ele>
        <time>2022-06-08 11:26:56</time>
      </trkpt>
      <trkpt lat="42.96867" lon="-0.37022">
        <ele>897.6</ele>
        <time>2022-06-08 11:26:57</time>
      </trkpt>
      <trkpt lat="42.96865" lon="-0.3702">
        <ele>898</ele>
        <time>2022-06-08 11:26:58</time>
      </trkpt>
      <trkpt lat="42.96863" lon="-0.37017">
        <ele>898.2</ele>
        <time>2022-06-08 11:26:59</time>
      </trkpt>
      <trkpt lat="42.96862" lon="-0.37013">
        <ele>898.4</ele>
        <time>2022-06-08 11:27:00</time>
      </trkpt>
      <trkpt lat="42.9686" lon="-0.3701">
        <ele>898.6</ele>
        <time>2022-06-08 11:27:01</time>
      </trkpt>
      <trkpt lat="42.96858" lon="-0.37007">
        <ele>899.2</ele>
        <time>2022-06-08 11:27:02</time>
      </trkpt>
      <trkpt lat="42.96857" lon="-0.37004">
        <ele>899.4</ele>
        <time>2022-06-08 11:27:03</time>
      </trkpt>
      <trkpt lat="42.96855" lon="-0.37002">
        <ele>899.6</ele>
        <time>2022-06-08 11:27:04</time>
      </trkpt>
      <trkpt lat="42.96853" lon="-0.36999">
        <ele>899.8</ele>
        <time>2022-06-08 11:27:05</time>
      </trkpt>
      <trkpt lat="42.96851" lon="-0.36996">
        <ele>900.2</ele>
        <time>2022-06-08 11:27:06</time>
      </trkpt>
      <trkpt lat="42.96849" lon="-0.36993">
        <ele>900.2</ele>
        <time>2022-06-08 11:27:07</time>
      </trkpt>
      <trkpt lat="42.96848" lon="-0.3699">
        <ele>900.6</ele>
        <time>2022-06-08 11:27:08</time>
      </trkpt>
      <trkpt lat="42.96846" lon="-0.36987">
        <ele>900.6</ele>
        <time>2022-06-08 11:27:09</time>
      </trkpt>
      <trkpt lat="42.96844" lon="-0.36985">
        <ele>901</ele>
        <time>2022-06-08 11:27:10</time>
      </trkpt>
      <trkpt lat="42.96842" lon="-0.36982">
        <ele>901.2</ele>
        <time>2022-06-08 11:27:11</time>
      </trkpt>
      <trkpt lat="42.96841" lon="-0.36979">
        <ele>901.6</ele>
        <time>2022-06-08 11:27:12</time>
      </trkpt>
      <trkpt lat="42.96839" lon="-0.36976">
        <ele>902</ele>
        <time>2022-06-08 11:27:13</time>
      </trkpt>
      <trkpt lat="42.96837" lon="-0.36974">
        <ele>902.2</ele>
        <time>2022-06-08 11:27:14</time>
      </trkpt>
      <trkpt lat="42.96835" lon="-0.36971">
        <ele>902.4</ele>
        <time>2022-06-08 11:27:15</time>
      </trkpt>
      <trkpt lat="42.96834" lon="-0.36968">
        <ele>902.6</ele>
        <time>2022-06-08 11:27:16</time>
      </trkpt>
      <trkpt lat="42.96832" lon="-0.36965">
        <ele>902.8</ele>
        <time>2022-06-08 11:27:17</time>
      </trkpt>
      <trkpt lat="42.96831" lon="-0.36962">
        <ele>903</ele>
        <time>2022-06-08 11:27:18</time>
      </trkpt>
      <trkpt lat="42.9683" lon="-0.36958">
        <ele>903.2</ele>
        <time>2022-06-08 11:27:19</time>
      </trkpt>
      <trkpt lat="42.96829" lon="-0.36955">
        <ele>903.4</ele>
        <time>2022-06-08 11:27:20</time>
      </trkpt>
      <trkpt lat="42.96828" lon="-0.36952">
        <ele>904</ele>
        <time>2022-06-08 11:27:21</time>
      </trkpt>
      <trkpt lat="42.96827" lon="-0.36948">
        <ele>904.2</ele>
        <time>2022-06-08 11:27:22</time>
      </trkpt>
      <trkpt lat="42.96826" lon="-0.36945">
        <ele>904.6</ele>
        <time>2022-06-08 11:27:23</time>
      </trkpt>
      <trkpt lat="42.96824" lon="-0.36941">
        <ele>904.6</ele>
        <time>2022-06-08 11:27:24</time>
      </trkpt>
      <trkpt lat="42.96823" lon="-0.36938">
        <ele>905</ele>
        <time>2022-06-08 11:27:25</time>
      </trkpt>
      <trkpt lat="42.96822" lon="-0.36935">
        <ele>905.2</ele>
        <time>2022-06-08 11:27:26</time>
      </trkpt>
      <trkpt lat="42.96821" lon="-0.36931">
        <ele>905.4</ele>
        <time>2022-06-08 11:27:27</time>
      </trkpt>
      <trkpt lat="42.9682" lon="-0.36927">
        <ele>906</ele>
        <time>2022-06-08 11:27:28</time>
      </trkpt>
      <trkpt lat="42.96819" lon="-0.36924">
        <ele>906</ele>
        <time>2022-06-08 11:27:29</time>
      </trkpt>
      <trkpt lat="42.96817" lon="-0.3692">
        <ele>906.4</ele>
        <time>2022-06-08 11:27:30</time>
      </trkpt>
      <trkpt lat="42.96816" lon="-0.36917">
        <ele>906.4</ele>
        <time>2022-06-08 11:27:31</time>
      </trkpt>
      <trkpt lat="42.96815" lon="-0.36913">
        <ele>906.6</ele>
        <time>2022-06-08 11:27:32</time>
      </trkpt>
      <trkpt lat="42.96814" lon="-0.3691">
        <ele>906.8</ele>
        <time>2022-06-08 11:27:33</time>
      </trkpt>
      <trkpt lat="42.96812" lon="-0.36907">
        <ele>907</ele>
        <time>2022-06-08 11:27:34</time>
      </trkpt>
      <trkpt lat="42.96811" lon="-0.36904">
        <ele>907.4</ele>
        <time>2022-06-08 11:27:35</time>
      </trkpt>
      <trkpt lat="42.9681" lon="-0.36901">
        <ele>907.8</ele>
        <time>2022-06-08 11:27:36</time>
      </trkpt>
      <trkpt lat="42.96809" lon="-0.36897">
        <ele>908</ele>
        <time>2022-06-08 11:27:37</time>
      </trkpt>
      <trkpt lat="42.96808" lon="-0.36894">
        <ele>908.2</ele>
        <time>2022-06-08 11:27:38</time>
      </trkpt>
      <trkpt lat="42.96807" lon="-0.36891">
        <ele>908.2</ele>
        <time>2022-06-08 11:27:39</time>
      </trkpt>
      <trkpt lat="42.96806" lon="-0.36888">
        <ele>908.4</ele>
        <time>2022-06-08 11:27:40</time>
      </trkpt>
      <trkpt lat="42.96805" lon="-0.36884">
        <ele>908.8</ele>
        <time>2022-06-08 11:27:41</time>
      </trkpt>
      <trkpt lat="42.96804" lon="-0.36881">
        <ele>909.4</ele>
        <time>2022-06-08 11:27:42</time>
      </trkpt>
      <trkpt lat="42.96802" lon="-0.36878">
        <ele>909.6</ele>
        <time>2022-06-08 11:27:43</time>
      </trkpt>
      <trkpt lat="42.96801" lon="-0.36874">
        <ele>910</ele>
        <time>2022-06-08 11:27:44</time>
      </trkpt>
      <trkpt lat="42.968" lon="-0.36871">
        <ele>910.4</ele>
        <time>2022-06-08 11:27:45</time>
      </trkpt>
      <trkpt lat="42.96798" lon="-0.36867">
        <ele>910.6</ele>
        <time>2022-06-08 11:27:46</time>
      </trkpt>
      <trkpt lat="42.96797" lon="-0.36864">
        <ele>910.8</ele>
        <time>2022-06-08 11:27:47</time>
      </trkpt>
      <trkpt lat="42.96795" lon="-0.36861">
        <ele>911</ele>
        <time>2022-06-08 11:27:48</time>
      </trkpt>
      <trkpt lat="42.96794" lon="-0.36857">
        <ele>911.2</ele>
        <time>2022-06-08 11:27:49</time>
      </trkpt>
      <trkpt lat="42.96793" lon="-0.36854">
        <ele>911.4</ele>
        <time>2022-06-08 11:27:50</time>
      </trkpt>
      <trkpt lat="42.96792" lon="-0.36851">
        <ele>911.8</ele>
        <time>2022-06-08 11:27:51</time>
      </trkpt>
      <trkpt lat="42.9679" lon="-0.36848">
        <ele>911.8</ele>
        <time>2022-06-08 11:27:52</time>
      </trkpt>
      <trkpt lat="42.96789" lon="-0.36844">
        <ele>912</ele>
        <time>2022-06-08 11:27:53</time>
      </trkpt>
      <trkpt lat="42.96787" lon="-0.36841">
        <ele>912.2</ele>
        <time>2022-06-08 11:27:54</time>
      </trkpt>
      <trkpt lat="42.96786" lon="-0.36838">
        <ele>912.6</ele>
        <time>2022-06-08 11:27:55</time>
      </trkpt>
      <trkpt lat="42.96785" lon="-0.36834">
        <ele>912.8</ele>
        <time>2022-06-08 11:27:56</time>
      </trkpt>
      <trkpt lat="42.96784" lon="-0.36831">
        <ele>913</ele>
        <time>2022-06-08 11:27:57</time>
      </trkpt>
      <trkpt lat="42.96783" lon="-0.36827">
        <ele>913.2</ele>
        <time>2022-06-08 11:27:58</time>
      </trkpt>
      <trkpt lat="42.96782" lon="-0.36824">
        <ele>913.6</ele>
        <time>2022-06-08 11:27:59</time>
      </trkpt>
      <trkpt lat="42.96781" lon="-0.36821">
        <ele>914</ele>
        <time>2022-06-08 11:28:00</time>
      </trkpt>
      <trkpt lat="42.9678" lon="-0.36817">
        <ele>914.2</ele>
        <time>2022-06-08 11:28:01</time>
      </trkpt>
      <trkpt lat="42.96779" lon="-0.36813">
        <ele>914.6</ele>
        <time>2022-06-08 11:28:02</time>
      </trkpt>
      <trkpt lat="42.96778" lon="-0.3681">
        <ele>914.8</ele>
        <time>2022-06-08 11:28:03</time>
      </trkpt>
      <trkpt lat="42.96777" lon="-0.36806">
        <ele>915</ele>
        <time>2022-06-08 11:28:04</time>
      </trkpt>
      <trkpt lat="42.96776" lon="-0.36803">
        <ele>915.2</ele>
        <time>2022-06-08 11:28:05</time>
      </trkpt>
      <trkpt lat="42.96774" lon="-0.36799">
        <ele>915.6</ele>
        <time>2022-06-08 11:28:06</time>
      </trkpt>
      <trkpt lat="42.96774" lon="-0.36796">
        <ele>915.6</ele>
        <time>2022-06-08 11:28:07</time>
      </trkpt>
      <trkpt lat="42.96773" lon="-0.36792">
        <ele>916.2</ele>
        <time>2022-06-08 11:28:08</time>
      </trkpt>
      <trkpt lat="42.96772" lon="-0.36788">
        <ele>916.4</ele>
        <time>2022-06-08 11:28:09</time>
      </trkpt>
      <trkpt lat="42.96772" lon="-0.36784">
        <ele>916.6</ele>
        <time>2022-06-08 11:28:10</time>
      </trkpt>
      <trkpt lat="42.96771" lon="-0.36781">
        <ele>916.6</ele>
        <time>2022-06-08 11:28:11</time>
      </trkpt>
      <trkpt lat="42.9677" lon="-0.36777">
        <ele>917</ele>
        <time>2022-06-08 11:28:12</time>
      </trkpt>
      <trkpt lat="42.9677" lon="-0.36774">
        <ele>917.2</ele>
        <time>2022-06-08 11:28:13</time>
      </trkpt>
      <trkpt lat="42.96769" lon="-0.3677">
        <ele>917.4</ele>
        <time>2022-06-08 11:28:14</time>
      </trkpt>
      <trkpt lat="42.96769" lon="-0.36767">
        <ele>917.6</ele>
        <time>2022-06-08 11:28:15</time>
      </trkpt>
      <trkpt lat="42.96769" lon="-0.36762">
        <ele>917.8</ele>
        <time>2022-06-08 11:28:16</time>
      </trkpt>
      <trkpt lat="42.96768" lon="-0.36759">
        <ele>918.4</ele>
        <time>2022-06-08 11:28:17</time>
      </trkpt>
      <trkpt lat="42.96768" lon="-0.36755">
        <ele>918.6</ele>
        <time>2022-06-08 11:28:18</time>
      </trkpt>
      <trkpt lat="42.96768" lon="-0.36751">
        <ele>918.8</ele>
        <time>2022-06-08 11:28:19</time>
      </trkpt>
      <trkpt lat="42.96767" lon="-0.36748">
        <ele>919</ele>
        <time>2022-06-08 11:28:20</time>
      </trkpt>
      <trkpt lat="42.96767" lon="-0.36744">
        <ele>919.2</ele>
        <time>2022-06-08 11:28:21</time>
      </trkpt>
      <trkpt lat="42.96767" lon="-0.36741">
        <ele>919.6</ele>
        <time>2022-06-08 11:28:22</time>
      </trkpt>
      <trkpt lat="42.96767" lon="-0.36737">
        <ele>920</ele>
        <time>2022-06-08 11:28:23</time>
      </trkpt>
      <trkpt lat="42.96767" lon="-0.36733">
        <ele>920.2</ele>
        <time>2022-06-08 11:28:24</time>
      </trkpt>
      <trkpt lat="42.96767" lon="-0.36729">
        <ele>920.6</ele>
        <time>2022-06-08 11:28:25</time>
      </trkpt>
      <trkpt lat="42.96766" lon="-0.36726">
        <ele>920.8</ele>
        <time>2022-06-08 11:28:26</time>
      </trkpt>
      <trkpt lat="42.96766" lon="-0.36722">
        <ele>921.2</ele>
        <time>2022-06-08 11:28:27</time>
      </trkpt>
      <trkpt lat="42.96765" lon="-0.36718">
        <ele>921.4</ele>
        <time>2022-06-08 11:28:28</time>
      </trkpt>
      <trkpt lat="42.96765" lon="-0.36714">
        <ele>921.6</ele>
        <time>2022-06-08 11:28:29</time>
      </trkpt>
      <trkpt lat="42.96764" lon="-0.3671">
        <ele>921.8</ele>
        <time>2022-06-08 11:28:30</time>
      </trkpt>
      <trkpt lat="42.96764" lon="-0.36707">
        <ele>922</ele>
        <time>2022-06-08 11:28:31</time>
      </trkpt>
      <trkpt lat="42.96763" lon="-0.36703">
        <ele>922.4</ele>
        <time>2022-06-08 11:28:32</time>
      </trkpt>
      <trkpt lat="42.96763" lon="-0.36699">
        <ele>922.6</ele>
        <time>2022-06-08 11:28:33</time>
      </trkpt>
      <trkpt lat="42.96762" lon="-0.36695">
        <ele>922.8</ele>
        <time>2022-06-08 11:28:34</time>
      </trkpt>
      <trkpt lat="42.96762" lon="-0.36692">
        <ele>923</ele>
        <time>2022-06-08 11:28:35</time>
      </trkpt>
      <trkpt lat="42.96761" lon="-0.36689">
        <ele>923.2</ele>
        <time>2022-06-08 11:28:36</time>
      </trkpt>
      <trkpt lat="42.9676" lon="-0.36685">
        <ele>923.4</ele>
        <time>2022-06-08 11:28:37</time>
      </trkpt>
      <trkpt lat="42.96759" lon="-0.36682">
        <ele>923.8</ele>
        <time>2022-06-08 11:28:38</time>
      </trkpt>
      <trkpt lat="42.96758" lon="-0.36679">
        <ele>924</ele>
        <time>2022-06-08 11:28:39</time>
      </trkpt>
      <trkpt lat="42.96758" lon="-0.36675">
        <ele>924.2</ele>
        <time>2022-06-08 11:28:40</time>
      </trkpt>
      <trkpt lat="42.96757" lon="-0.36672">
        <ele>924.2</ele>
        <time>2022-06-08 11:28:41</time>
      </trkpt>
      <trkpt lat="42.96756" lon="-0.36668">
        <ele>924.6</ele>
        <time>2022-06-08 11:28:42</time>
      </trkpt>
      <trkpt lat="42.96755" lon="-0.36665">
        <ele>924.8</ele>
        <time>2022-06-08 11:28:43</time>
      </trkpt>
      <trkpt lat="42.96754" lon="-0.36661">
        <ele>925</ele>
        <time>2022-06-08 11:28:44</time>
      </trkpt>
      <trkpt lat="42.96754" lon="-0.36658">
        <ele>925.2</ele>
        <time>2022-06-08 11:28:45</time>
      </trkpt>
      <trkpt lat="42.96753" lon="-0.36654">
        <ele>925.6</ele>
        <time>2022-06-08 11:28:46</time>
      </trkpt>
      <trkpt lat="42.96752" lon="-0.3665">
        <ele>926</ele>
        <time>2022-06-08 11:28:47</time>
      </trkpt>
      <trkpt lat="42.96752" lon="-0.36647">
        <ele>926</ele>
        <time>2022-06-08 11:28:48</time>
      </trkpt>
      <trkpt lat="42.96751" lon="-0.36643">
        <ele>926.4</ele>
        <time>2022-06-08 11:28:49</time>
      </trkpt>
      <trkpt lat="42.9675" lon="-0.36639">
        <ele>926.4</ele>
        <time>2022-06-08 11:28:50</time>
      </trkpt>
      <trkpt lat="42.96749" lon="-0.36635">
        <ele>926.8</ele>
        <time>2022-06-08 11:28:51</time>
      </trkpt>
      <trkpt lat="42.96749" lon="-0.36632">
        <ele>927</ele>
        <time>2022-06-08 11:28:52</time>
      </trkpt>
      <trkpt lat="42.96748" lon="-0.36628">
        <ele>927.4</ele>
        <time>2022-06-08 11:28:53</time>
      </trkpt>
      <trkpt lat="42.96747" lon="-0.36625">
        <ele>927.4</ele>
        <time>2022-06-08 11:28:54</time>
      </trkpt>
      <trkpt lat="42.96746" lon="-0.36621">
        <ele>927.8</ele>
        <time>2022-06-08 11:28:55</time>
      </trkpt>
      <trkpt lat="42.96745" lon="-0.36618">
        <ele>928</ele>
        <time>2022-06-08 11:28:56</time>
      </trkpt>
      <trkpt lat="42.96745" lon="-0.36614">
        <ele>928.2</ele>
        <time>2022-06-08 11:28:57</time>
      </trkpt>
      <trkpt lat="42.96744" lon="-0.36611">
        <ele>928.4</ele>
        <time>2022-06-08 11:28:58</time>
      </trkpt>
      <trkpt lat="42.96742" lon="-0.36608">
        <ele>928.8</ele>
        <time>2022-06-08 11:28:59</time>
      </trkpt>
      <trkpt lat="42.96742" lon="-0.36604">
        <ele>928.8</ele>
        <time>2022-06-08 11:29:00</time>
      </trkpt>
      <trkpt lat="42.96741" lon="-0.36602">
        <ele>929</ele>
        <time>2022-06-08 11:29:01</time>
      </trkpt>
      <trkpt lat="42.96739" lon="-0.36599">
        <ele>929.2</ele>
        <time>2022-06-08 11:29:02</time>
      </trkpt>
      <trkpt lat="42.96738" lon="-0.36596">
        <ele>929.6</ele>
        <time>2022-06-08 11:29:03</time>
      </trkpt>
      <trkpt lat="42.96737" lon="-0.36593">
        <ele>930</ele>
        <time>2022-06-08 11:29:04</time>
      </trkpt>
      <trkpt lat="42.96736" lon="-0.3659">
        <ele>930.2</ele>
        <time>2022-06-08 11:29:05</time>
      </trkpt>
      <trkpt lat="42.96735" lon="-0.36587">
        <ele>930.4</ele>
        <time>2022-06-08 11:29:06</time>
      </trkpt>
      <trkpt lat="42.96734" lon="-0.36583">
        <ele>930.6</ele>
        <time>2022-06-08 11:29:07</time>
      </trkpt>
      <trkpt lat="42.96733" lon="-0.3658">
        <ele>931</ele>
        <time>2022-06-08 11:29:08</time>
      </trkpt>
      <trkpt lat="42.96732" lon="-0.36577">
        <ele>931</ele>
        <time>2022-06-08 11:29:09</time>
      </trkpt>
      <trkpt lat="42.9673" lon="-0.36573">
        <ele>931.4</ele>
        <time>2022-06-08 11:29:10</time>
      </trkpt>
      <trkpt lat="42.96729" lon="-0.36569">
        <ele>931.6</ele>
        <time>2022-06-08 11:29:11</time>
      </trkpt>
      <trkpt lat="42.96728" lon="-0.36566">
        <ele>931.8</ele>
        <time>2022-06-08 11:29:12</time>
      </trkpt>
      <trkpt lat="42.96727" lon="-0.36562">
        <ele>932</ele>
        <time>2022-06-08 11:29:13</time>
      </trkpt>
      <trkpt lat="42.96726" lon="-0.36559">
        <ele>932.4</ele>
        <time>2022-06-08 11:29:14</time>
      </trkpt>
      <trkpt lat="42.96725" lon="-0.36556">
        <ele>932.6</ele>
        <time>2022-06-08 11:29:15</time>
      </trkpt>
      <trkpt lat="42.96724" lon="-0.36552">
        <ele>933</ele>
        <time>2022-06-08 11:29:16</time>
      </trkpt>
      <trkpt lat="42.96723" lon="-0.36548">
        <ele>933.2</ele>
        <time>2022-06-08 11:29:17</time>
      </trkpt>
      <trkpt lat="42.96723" lon="-0.36545">
        <ele>933.6</ele>
        <time>2022-06-08 11:29:18</time>
      </trkpt>
      <trkpt lat="42.96722" lon="-0.36542">
        <ele>934</ele>
        <time>2022-06-08 11:29:19</time>
      </trkpt>
      <trkpt lat="42.96722" lon="-0.36538">
        <ele>934.2</ele>
        <time>2022-06-08 11:29:20</time>
      </trkpt>
      <trkpt lat="42.96721" lon="-0.36535">
        <ele>934.6</ele>
        <time>2022-06-08 11:29:21</time>
      </trkpt>
      <trkpt lat="42.96721" lon="-0.36531">
        <ele>934.8</ele>
        <time>2022-06-08 11:29:22</time>
      </trkpt>
      <trkpt lat="42.96721" lon="-0.36527">
        <ele>935</ele>
        <time>2022-06-08 11:29:23</time>
      </trkpt>
      <trkpt lat="42.96721" lon="-0.36524">
        <ele>935.2</ele>
        <time>2022-06-08 11:29:24</time>
      </trkpt>
      <trkpt lat="42.9672" lon="-0.3652">
        <ele>935.4</ele>
        <time>2022-06-08 11:29:25</time>
      </trkpt>
      <trkpt lat="42.9672" lon="-0.36517">
        <ele>935.6</ele>
        <time>2022-06-08 11:29:26</time>
      </trkpt>
      <trkpt lat="42.9672" lon="-0.36513">
        <ele>935.8</ele>
        <time>2022-06-08 11:29:27</time>
      </trkpt>
      <trkpt lat="42.9672" lon="-0.36509">
        <ele>936</ele>
        <time>2022-06-08 11:29:28</time>
      </trkpt>
      <trkpt lat="42.9672" lon="-0.36506">
        <ele>936.4</ele>
        <time>2022-06-08 11:29:29</time>
      </trkpt>
      <trkpt lat="42.96719" lon="-0.36502">
        <ele>936.4</ele>
        <time>2022-06-08 11:29:30</time>
      </trkpt>
      <trkpt lat="42.96719" lon="-0.36498">
        <ele>936.8</ele>
        <time>2022-06-08 11:29:31</time>
      </trkpt>
      <trkpt lat="42.96718" lon="-0.36495">
        <ele>937</ele>
        <time>2022-06-08 11:29:32</time>
      </trkpt>
      <trkpt lat="42.96717" lon="-0.36491">
        <ele>937.4</ele>
        <time>2022-06-08 11:29:33</time>
      </trkpt>
      <trkpt lat="42.96717" lon="-0.36487">
        <ele>937.6</ele>
        <time>2022-06-08 11:29:34</time>
      </trkpt>
      <trkpt lat="42.96716" lon="-0.36483">
        <ele>938</ele>
        <time>2022-06-08 11:29:35</time>
      </trkpt>
      <trkpt lat="42.96716" lon="-0.3648">
        <ele>938.2</ele>
        <time>2022-06-08 11:29:36</time>
      </trkpt>
      <trkpt lat="42.96715" lon="-0.36476">
        <ele>938.4</ele>
        <time>2022-06-08 11:29:37</time>
      </trkpt>
      <trkpt lat="42.96715" lon="-0.36472">
        <ele>938.6</ele>
        <time>2022-06-08 11:29:38</time>
      </trkpt>
      <trkpt lat="42.96714" lon="-0.36469">
        <ele>938.8</ele>
        <time>2022-06-08 11:29:39</time>
      </trkpt>
      <trkpt lat="42.96713" lon="-0.36466">
        <ele>939.2</ele>
        <time>2022-06-08 11:29:40</time>
      </trkpt>
      <trkpt lat="42.96712" lon="-0.36462">
        <ele>939.4</ele>
        <time>2022-06-08 11:29:41</time>
      </trkpt>
      <trkpt lat="42.96711" lon="-0.36459">
        <ele>939.8</ele>
        <time>2022-06-08 11:29:42</time>
      </trkpt>
      <trkpt lat="42.9671" lon="-0.36455">
        <ele>939.8</ele>
        <time>2022-06-08 11:29:43</time>
      </trkpt>
      <trkpt lat="42.96709" lon="-0.36452">
        <ele>940.2</ele>
        <time>2022-06-08 11:29:44</time>
      </trkpt>
      <trkpt lat="42.96708" lon="-0.36448">
        <ele>940.2</ele>
        <time>2022-06-08 11:29:45</time>
      </trkpt>
      <trkpt lat="42.96707" lon="-0.36445">
        <ele>940.8</ele>
        <time>2022-06-08 11:29:46</time>
      </trkpt>
      <trkpt lat="42.96706" lon="-0.36441">
        <ele>940.8</ele>
        <time>2022-06-08 11:29:47</time>
      </trkpt>
      <trkpt lat="42.96705" lon="-0.36438">
        <ele>941</ele>
        <time>2022-06-08 11:29:48</time>
      </trkpt>
      <trkpt lat="42.96704" lon="-0.36435">
        <ele>941.4</ele>
        <time>2022-06-08 11:29:49</time>
      </trkpt>
      <trkpt lat="42.96703" lon="-0.36432">
        <ele>941.6</ele>
        <time>2022-06-08 11:29:50</time>
      </trkpt>
      <trkpt lat="42.96701" lon="-0.36429">
        <ele>942</ele>
        <time>2022-06-08 11:29:51</time>
      </trkpt>
      <trkpt lat="42.967" lon="-0.36426">
        <ele>942.2</ele>
        <time>2022-06-08 11:29:52</time>
      </trkpt>
      <trkpt lat="42.96699" lon="-0.36422">
        <ele>942.4</ele>
        <time>2022-06-08 11:29:53</time>
      </trkpt>
      <trkpt lat="42.96698" lon="-0.36419">
        <ele>942.6</ele>
        <time>2022-06-08 11:29:54</time>
      </trkpt>
      <trkpt lat="42.96697" lon="-0.36415">
        <ele>942.8</ele>
        <time>2022-06-08 11:29:55</time>
      </trkpt>
      <trkpt lat="42.96697" lon="-0.36412">
        <ele>943</ele>
        <time>2022-06-08 11:29:56</time>
      </trkpt>
      <trkpt lat="42.96696" lon="-0.36408">
        <ele>943.4</ele>
        <time>2022-06-08 11:29:57</time>
      </trkpt>
      <trkpt lat="42.96696" lon="-0.36405">
        <ele>943.6</ele>
        <time>2022-06-08 11:29:58</time>
      </trkpt>
      <trkpt lat="42.96695" lon="-0.36401">
        <ele>944</ele>
        <time>2022-06-08 11:29:59</time>
      </trkpt>
      <trkpt lat="42.96695" lon="-0.36397">
        <ele>944.2</ele>
        <time>2022-06-08 11:30:00</time>
      </trkpt>
      <trkpt lat="42.96694" lon="-0.36394">
        <ele>944.6</ele>
        <time>2022-06-08 11:30:01</time>
      </trkpt>
      <trkpt lat="42.96694" lon="-0.3639">
        <ele>944.8</ele>
        <time>2022-06-08 11:30:02</time>
      </trkpt>
      <trkpt lat="42.96694" lon="-0.36387">
        <ele>945</ele>
        <time>2022-06-08 11:30:03</time>
      </trkpt>
      <trkpt lat="42.96693" lon="-0.36383">
        <ele>945</ele>
        <time>2022-06-08 11:30:04</time>
      </trkpt>
      <trkpt lat="42.96693" lon="-0.36379">
        <ele>945.4</ele>
        <time>2022-06-08 11:30:05</time>
      </trkpt>
      <trkpt lat="42.96693" lon="-0.36376">
        <ele>945.4</ele>
        <time>2022-06-08 11:30:06</time>
      </trkpt>
      <trkpt lat="42.96693" lon="-0.36372">
        <ele>945.8</ele>
        <time>2022-06-08 11:30:07</time>
      </trkpt>
      <trkpt lat="42.96693" lon="-0.36369">
        <ele>946</ele>
        <time>2022-06-08 11:30:08</time>
      </trkpt>
      <trkpt lat="42.96693" lon="-0.36365">
        <ele>946.2</ele>
        <time>2022-06-08 11:30:09</time>
      </trkpt>
      <trkpt lat="42.96692" lon="-0.36362">
        <ele>946.4</ele>
        <time>2022-06-08 11:30:10</time>
      </trkpt>
      <trkpt lat="42.96692" lon="-0.36358">
        <ele>946.6</ele>
        <time>2022-06-08 11:30:11</time>
      </trkpt>
      <trkpt lat="42.96691" lon="-0.36355">
        <ele>947</ele>
        <time>2022-06-08 11:30:12</time>
      </trkpt>
      <trkpt lat="42.96691" lon="-0.36351">
        <ele>947</ele>
        <time>2022-06-08 11:30:13</time>
      </trkpt>
      <trkpt lat="42.9669" lon="-0.36348">
        <ele>947.4</ele>
        <time>2022-06-08 11:30:14</time>
      </trkpt>
      <trkpt lat="42.96689" lon="-0.36344">
        <ele>947.4</ele>
        <time>2022-06-08 11:30:15</time>
      </trkpt>
      <trkpt lat="42.96688" lon="-0.3634">
        <ele>947.8</ele>
        <time>2022-06-08 11:30:16</time>
      </trkpt>
      <trkpt lat="42.96688" lon="-0.36336">
        <ele>948</ele>
        <time>2022-06-08 11:30:17</time>
      </trkpt>
      <trkpt lat="42.96688" lon="-0.36333">
        <ele>948.4</ele>
        <time>2022-06-08 11:30:18</time>
      </trkpt>
      <trkpt lat="42.96687" lon="-0.36329">
        <ele>948.4</ele>
        <time>2022-06-08 11:30:19</time>
      </trkpt>
      <trkpt lat="42.96687" lon="-0.36325">
        <ele>948.8</ele>
        <time>2022-06-08 11:30:20</time>
      </trkpt>
      <trkpt lat="42.96687" lon="-0.36322">
        <ele>949</ele>
        <time>2022-06-08 11:30:21</time>
      </trkpt>
      <trkpt lat="42.96686" lon="-0.36318">
        <ele>949.4</ele>
        <time>2022-06-08 11:30:22</time>
      </trkpt>
      <trkpt lat="42.96686" lon="-0.36315">
        <ele>949.6</ele>
        <time>2022-06-08 11:30:23</time>
      </trkpt>
      <trkpt lat="42.96685" lon="-0.36311">
        <ele>949.8</ele>
        <time>2022-06-08 11:30:24</time>
      </trkpt>
      <trkpt lat="42.96684" lon="-0.36308">
        <ele>950.2</ele>
        <time>2022-06-08 11:30:25</time>
      </trkpt>
      <trkpt lat="42.96684" lon="-0.36305">
        <ele>950.4</ele>
        <time>2022-06-08 11:30:26</time>
      </trkpt>
      <trkpt lat="42.96683" lon="-0.36301">
        <ele>950.8</ele>
        <time>2022-06-08 11:30:27</time>
      </trkpt>
      <trkpt lat="42.96682" lon="-0.36297">
        <ele>950.8</ele>
        <time>2022-06-08 11:30:28</time>
      </trkpt>
      <trkpt lat="42.96681" lon="-0.36294">
        <ele>951</ele>
        <time>2022-06-08 11:30:29</time>
      </trkpt>
      <trkpt lat="42.96681" lon="-0.3629">
        <ele>951.2</ele>
        <time>2022-06-08 11:30:30</time>
      </trkpt>
      <trkpt lat="42.9668" lon="-0.36286">
        <ele>951.4</ele>
        <time>2022-06-08 11:30:31</time>
      </trkpt>
      <trkpt lat="42.96678" lon="-0.36283">
        <ele>951.4</ele>
        <time>2022-06-08 11:30:32</time>
      </trkpt>
      <trkpt lat="42.96677" lon="-0.3628">
        <ele>951.8</ele>
        <time>2022-06-08 11:30:33</time>
      </trkpt>
      <trkpt lat="42.96676" lon="-0.36276">
        <ele>952</ele>
        <time>2022-06-08 11:30:34</time>
      </trkpt>
      <trkpt lat="42.96675" lon="-0.36273">
        <ele>952.4</ele>
        <time>2022-06-08 11:30:35</time>
      </trkpt>
      <trkpt lat="42.96675" lon="-0.36269">
        <ele>952.6</ele>
        <time>2022-06-08 11:30:36</time>
      </trkpt>
      <trkpt lat="42.96674" lon="-0.36266">
        <ele>952.8</ele>
        <time>2022-06-08 11:30:37</time>
      </trkpt>
      <trkpt lat="42.96673" lon="-0.36263">
        <ele>952.8</ele>
        <time>2022-06-08 11:30:38</time>
      </trkpt>
      <trkpt lat="42.96672" lon="-0.36259">
        <ele>953.2</ele>
        <time>2022-06-08 11:30:39</time>
      </trkpt>
      <trkpt lat="42.96671" lon="-0.36256">
        <ele>953.4</ele>
        <time>2022-06-08 11:30:40</time>
      </trkpt>
      <trkpt lat="42.9667" lon="-0.36252">
        <ele>953.6</ele>
        <time>2022-06-08 11:30:41</time>
      </trkpt>
      <trkpt lat="42.96669" lon="-0.36249">
        <ele>954</ele>
        <time>2022-06-08 11:30:42</time>
      </trkpt>
      <trkpt lat="42.96669" lon="-0.36245">
        <ele>954.2</ele>
        <time>2022-06-08 11:30:43</time>
      </trkpt>
      <trkpt lat="42.96668" lon="-0.36242">
        <ele>954.4</ele>
        <time>2022-06-08 11:30:44</time>
      </trkpt>
      <trkpt lat="42.96667" lon="-0.36239">
        <ele>954.6</ele>
        <time>2022-06-08 11:30:45</time>
      </trkpt>
      <trkpt lat="42.96666" lon="-0.36235">
        <ele>955</ele>
        <time>2022-06-08 11:30:46</time>
      </trkpt>
      <trkpt lat="42.96665" lon="-0.36232">
        <ele>955</ele>
        <time>2022-06-08 11:30:47</time>
      </trkpt>
      <trkpt lat="42.96664" lon="-0.36228">
        <ele>955.4</ele>
        <time>2022-06-08 11:30:48</time>
      </trkpt>
      <trkpt lat="42.96663" lon="-0.36225">
        <ele>955.6</ele>
        <time>2022-06-08 11:30:49</time>
      </trkpt>
      <trkpt lat="42.96662" lon="-0.36221">
        <ele>956</ele>
        <time>2022-06-08 11:30:50</time>
      </trkpt>
      <trkpt lat="42.96662" lon="-0.36218">
        <ele>956.2</ele>
        <time>2022-06-08 11:30:51</time>
      </trkpt>
      <trkpt lat="42.96661" lon="-0.36214">
        <ele>956.4</ele>
        <time>2022-06-08 11:30:52</time>
      </trkpt>
      <trkpt lat="42.9666" lon="-0.3621">
        <ele>956.6</ele>
        <time>2022-06-08 11:30:53</time>
      </trkpt>
      <trkpt lat="42.96659" lon="-0.36207">
        <ele>957.2</ele>
        <time>2022-06-08 11:30:54</time>
      </trkpt>
      <trkpt lat="42.96658" lon="-0.36203">
        <ele>957.4</ele>
        <time>2022-06-08 11:30:55</time>
      </trkpt>
      <trkpt lat="42.96657" lon="-0.362">
        <ele>957.6</ele>
        <time>2022-06-08 11:30:56</time>
      </trkpt>
      <trkpt lat="42.96657" lon="-0.36196">
        <ele>957.8</ele>
        <time>2022-06-08 11:30:57</time>
      </trkpt>
      <trkpt lat="42.96656" lon="-0.36193">
        <ele>958.2</ele>
        <time>2022-06-08 11:30:58</time>
      </trkpt>
      <trkpt lat="42.96655" lon="-0.36189">
        <ele>958.6</ele>
        <time>2022-06-08 11:30:59</time>
      </trkpt>
      <trkpt lat="42.96654" lon="-0.36186">
        <ele>958.8</ele>
        <time>2022-06-08 11:31:00</time>
      </trkpt>
      <trkpt lat="42.96653" lon="-0.36182">
        <ele>959</ele>
        <time>2022-06-08 11:31:01</time>
      </trkpt>
      <trkpt lat="42.96652" lon="-0.36179">
        <ele>959.2</ele>
        <time>2022-06-08 11:31:02</time>
      </trkpt>
      <trkpt lat="42.96651" lon="-0.36176">
        <ele>959.4</ele>
        <time>2022-06-08 11:31:03</time>
      </trkpt>
      <trkpt lat="42.9665" lon="-0.36172">
        <ele>959.6</ele>
        <time>2022-06-08 11:31:04</time>
      </trkpt>
      <trkpt lat="42.96649" lon="-0.36169">
        <ele>960</ele>
        <time>2022-06-08 11:31:05</time>
      </trkpt>
      <trkpt lat="42.96648" lon="-0.36165">
        <ele>960</ele>
        <time>2022-06-08 11:31:06</time>
      </trkpt>
      <trkpt lat="42.96648" lon="-0.36161">
        <ele>960.4</ele>
        <time>2022-06-08 11:31:07</time>
      </trkpt>
      <trkpt lat="42.96647" lon="-0.36157">
        <ele>960.6</ele>
        <time>2022-06-08 11:31:08</time>
      </trkpt>
      <trkpt lat="42.96646" lon="-0.36154">
        <ele>960.8</ele>
        <time>2022-06-08 11:31:09</time>
      </trkpt>
      <trkpt lat="42.96646" lon="-0.3615">
        <ele>961</ele>
        <time>2022-06-08 11:31:10</time>
      </trkpt>
      <trkpt lat="42.96645" lon="-0.36147">
        <ele>961.4</ele>
        <time>2022-06-08 11:31:11</time>
      </trkpt>
      <trkpt lat="42.96644" lon="-0.36143">
        <ele>961.6</ele>
        <time>2022-06-08 11:31:12</time>
      </trkpt>
      <trkpt lat="42.96643" lon="-0.36139">
        <ele>961.6</ele>
        <time>2022-06-08 11:31:13</time>
      </trkpt>
      <trkpt lat="42.96643" lon="-0.36135">
        <ele>962</ele>
        <time>2022-06-08 11:31:14</time>
      </trkpt>
      <trkpt lat="42.96642" lon="-0.36131">
        <ele>962.2</ele>
        <time>2022-06-08 11:31:15</time>
      </trkpt>
      <trkpt lat="42.96642" lon="-0.36127">
        <ele>962.8</ele>
        <time>2022-06-08 11:31:16</time>
      </trkpt>
      <trkpt lat="42.96642" lon="-0.36124">
        <ele>963</ele>
        <time>2022-06-08 11:31:17</time>
      </trkpt>
      <trkpt lat="42.96641" lon="-0.3612">
        <ele>963.4</ele>
        <time>2022-06-08 11:31:18</time>
      </trkpt>
      <trkpt lat="42.96641" lon="-0.36116">
        <ele>963.4</ele>
        <time>2022-06-08 11:31:19</time>
      </trkpt>
      <trkpt lat="42.96641" lon="-0.36112">
        <ele>963.6</ele>
        <time>2022-06-08 11:31:20</time>
      </trkpt>
      <trkpt lat="42.96641" lon="-0.36109">
        <ele>963.8</ele>
        <time>2022-06-08 11:31:21</time>
      </trkpt>
      <trkpt lat="42.96641" lon="-0.36105">
        <ele>964.2</ele>
        <time>2022-06-08 11:31:22</time>
      </trkpt>
      <trkpt lat="42.96641" lon="-0.36102">
        <ele>964.4</ele>
        <time>2022-06-08 11:31:23</time>
      </trkpt>
      <trkpt lat="42.96641" lon="-0.36098">
        <ele>964.8</ele>
        <time>2022-06-08 11:31:24</time>
      </trkpt>
      <trkpt lat="42.96641" lon="-0.36095">
        <ele>965</ele>
        <time>2022-06-08 11:31:25</time>
      </trkpt>
      <trkpt lat="42.96641" lon="-0.36091">
        <ele>965.4</ele>
        <time>2022-06-08 11:31:26</time>
      </trkpt>
      <trkpt lat="42.96641" lon="-0.36087">
        <ele>965.6</ele>
        <time>2022-06-08 11:31:27</time>
      </trkpt>
      <trkpt lat="42.96641" lon="-0.36083">
        <ele>965.8</ele>
        <time>2022-06-08 11:31:28</time>
      </trkpt>
      <trkpt lat="42.96641" lon="-0.36079">
        <ele>965.8</ele>
        <time>2022-06-08 11:31:29</time>
      </trkpt>
      <trkpt lat="42.9664" lon="-0.36075">
        <ele>966</ele>
        <time>2022-06-08 11:31:30</time>
      </trkpt>
      <trkpt lat="42.9664" lon="-0.36071">
        <ele>966.4</ele>
        <time>2022-06-08 11:31:31</time>
      </trkpt>
      <trkpt lat="42.9664" lon="-0.36068">
        <ele>966.6</ele>
        <time>2022-06-08 11:31:32</time>
      </trkpt>
      <trkpt lat="42.9664" lon="-0.36064">
        <ele>967.2</ele>
        <time>2022-06-08 11:31:33</time>
      </trkpt>
      <trkpt lat="42.96639" lon="-0.3606">
        <ele>967.2</ele>
        <time>2022-06-08 11:31:34</time>
      </trkpt>
      <trkpt lat="42.96639" lon="-0.36057">
        <ele>967.6</ele>
        <time>2022-06-08 11:31:35</time>
      </trkpt>
      <trkpt lat="42.96638" lon="-0.36053">
        <ele>967.8</ele>
        <time>2022-06-08 11:31:36</time>
      </trkpt>
      <trkpt lat="42.96637" lon="-0.36049">
        <ele>968.2</ele>
        <time>2022-06-08 11:31:37</time>
      </trkpt>
      <trkpt lat="42.96637" lon="-0.36045">
        <ele>968.4</ele>
        <time>2022-06-08 11:31:38</time>
      </trkpt>
      <trkpt lat="42.96636" lon="-0.36042">
        <ele>968.8</ele>
        <time>2022-06-08 11:31:39</time>
      </trkpt>
      <trkpt lat="42.96635" lon="-0.36039">
        <ele>968.8</ele>
        <time>2022-06-08 11:31:40</time>
      </trkpt>
      <trkpt lat="42.96634" lon="-0.36035">
        <ele>969</ele>
        <time>2022-06-08 11:31:41</time>
      </trkpt>
      <trkpt lat="42.96633" lon="-0.36032">
        <ele>969.2</ele>
        <time>2022-06-08 11:31:42</time>
      </trkpt>
      <trkpt lat="42.96632" lon="-0.36029">
        <ele>969.6</ele>
        <time>2022-06-08 11:31:43</time>
      </trkpt>
      <trkpt lat="42.96631" lon="-0.36025">
        <ele>969.6</ele>
        <time>2022-06-08 11:31:44</time>
      </trkpt>
      <trkpt lat="42.96631" lon="-0.36022">
        <ele>970</ele>
        <time>2022-06-08 11:31:45</time>
      </trkpt>
      <trkpt lat="42.9663" lon="-0.36018">
        <ele>970.4</ele>
        <time>2022-06-08 11:31:46</time>
      </trkpt>
      <trkpt lat="42.96629" lon="-0.36014">
        <ele>970.6</ele>
        <time>2022-06-08 11:31:47</time>
      </trkpt>
      <trkpt lat="42.96629" lon="-0.3601">
        <ele>971</ele>
        <time>2022-06-08 11:31:48</time>
      </trkpt>
      <trkpt lat="42.96628" lon="-0.36007">
        <ele>971.2</ele>
        <time>2022-06-08 11:31:49</time>
      </trkpt>
      <trkpt lat="42.96628" lon="-0.36003">
        <ele>971.4</ele>
        <time>2022-06-08 11:31:50</time>
      </trkpt>
      <trkpt lat="42.96628" lon="-0.35999">
        <ele>971.6</ele>
        <time>2022-06-08 11:31:51</time>
      </trkpt>
      <trkpt lat="42.96627" lon="-0.35995">
        <ele>971.8</ele>
        <time>2022-06-08 11:31:52</time>
      </trkpt>
      <trkpt lat="42.96627" lon="-0.35992">
        <ele>972</ele>
        <time>2022-06-08 11:31:53</time>
      </trkpt>
      <trkpt lat="42.96627" lon="-0.35989">
        <ele>972.4</ele>
        <time>2022-06-08 11:31:54</time>
      </trkpt>
      <trkpt lat="42.96626" lon="-0.35985">
        <ele>972.4</ele>
        <time>2022-06-08 11:31:55</time>
      </trkpt>
      <trkpt lat="42.96626" lon="-0.35981">
        <ele>972.6</ele>
        <time>2022-06-08 11:31:56</time>
      </trkpt>
      <trkpt lat="42.96626" lon="-0.35977">
        <ele>972.8</ele>
        <time>2022-06-08 11:31:57</time>
      </trkpt>
      <trkpt lat="42.96626" lon="-0.35973">
        <ele>973.2</ele>
        <time>2022-06-08 11:31:58</time>
      </trkpt>
      <trkpt lat="42.96626" lon="-0.3597">
        <ele>973.2</ele>
        <time>2022-06-08 11:31:59</time>
      </trkpt>
      <trkpt lat="42.96626" lon="-0.35966">
        <ele>973.8</ele>
        <time>2022-06-08 11:32:00</time>
      </trkpt>
      <trkpt lat="42.96625" lon="-0.35963">
        <ele>974</ele>
        <time>2022-06-08 11:32:01</time>
      </trkpt>
      <trkpt lat="42.96625" lon="-0.35959">
        <ele>974.2</ele>
        <time>2022-06-08 11:32:02</time>
      </trkpt>
      <trkpt lat="42.96625" lon="-0.35956">
        <ele>974.6</ele>
        <time>2022-06-08 11:32:03</time>
      </trkpt>
      <trkpt lat="42.96626" lon="-0.35953">
        <ele>974.6</ele>
        <time>2022-06-08 11:32:04</time>
      </trkpt>
      <trkpt lat="42.96626" lon="-0.35949">
        <ele>975</ele>
        <time>2022-06-08 11:32:05</time>
      </trkpt>
      <trkpt lat="42.96626" lon="-0.35946">
        <ele>975.2</ele>
        <time>2022-06-08 11:32:06</time>
      </trkpt>
      <trkpt lat="42.96626" lon="-0.35943">
        <ele>975.6</ele>
        <time>2022-06-08 11:32:07</time>
      </trkpt>
      <trkpt lat="42.96626" lon="-0.35939">
        <ele>975.8</ele>
        <time>2022-06-08 11:32:08</time>
      </trkpt>
      <trkpt lat="42.96626" lon="-0.35935">
        <ele>976.2</ele>
        <time>2022-06-08 11:32:09</time>
      </trkpt>
      <trkpt lat="42.96626" lon="-0.35932">
        <ele>976.2</ele>
        <time>2022-06-08 11:32:10</time>
      </trkpt>
      <trkpt lat="42.96626" lon="-0.35928">
        <ele>976.6</ele>
        <time>2022-06-08 11:32:11</time>
      </trkpt>
      <trkpt lat="42.96626" lon="-0.35925">
        <ele>976.8</ele>
        <time>2022-06-08 11:32:12</time>
      </trkpt>
      <trkpt lat="42.96625" lon="-0.35921">
        <ele>977.2</ele>
        <time>2022-06-08 11:32:13</time>
      </trkpt>
      <trkpt lat="42.96625" lon="-0.35917">
        <ele>977.2</ele>
        <time>2022-06-08 11:32:14</time>
      </trkpt>
      <trkpt lat="42.96624" lon="-0.35913">
        <ele>977.6</ele>
        <time>2022-06-08 11:32:15</time>
      </trkpt>
      <trkpt lat="42.96624" lon="-0.3591">
        <ele>977.6</ele>
        <time>2022-06-08 11:32:16</time>
      </trkpt>
      <trkpt lat="42.96624" lon="-0.35906">
        <ele>978</ele>
        <time>2022-06-08 11:32:17</time>
      </trkpt>
      <trkpt lat="42.96624" lon="-0.35902">
        <ele>978.4</ele>
        <time>2022-06-08 11:32:18</time>
      </trkpt>
      <trkpt lat="42.96624" lon="-0.35898">
        <ele>978.4</ele>
        <time>2022-06-08 11:32:19</time>
      </trkpt>
      <trkpt lat="42.96623" lon="-0.35895">
        <ele>978.8</ele>
        <time>2022-06-08 11:32:20</time>
      </trkpt>
      <trkpt lat="42.96623" lon="-0.35892">
        <ele>978.8</ele>
        <time>2022-06-08 11:32:21</time>
      </trkpt>
      <trkpt lat="42.96622" lon="-0.35888">
        <ele>979.2</ele>
        <time>2022-06-08 11:32:22</time>
      </trkpt>
      <trkpt lat="42.96622" lon="-0.35884">
        <ele>979.4</ele>
        <time>2022-06-08 11:32:23</time>
      </trkpt>
      <trkpt lat="42.96622" lon="-0.35881">
        <ele>979.6</ele>
        <time>2022-06-08 11:32:24</time>
      </trkpt>
      <trkpt lat="42.96622" lon="-0.35877">
        <ele>979.8</ele>
        <time>2022-06-08 11:32:25</time>
      </trkpt>
      <trkpt lat="42.96621" lon="-0.35873">
        <ele>980.2</ele>
        <time>2022-06-08 11:32:26</time>
      </trkpt>
      <trkpt lat="42.96621" lon="-0.35869">
        <ele>980.2</ele>
        <time>2022-06-08 11:32:27</time>
      </trkpt>
      <trkpt lat="42.96621" lon="-0.35866">
        <ele>980.6</ele>
        <time>2022-06-08 11:32:28</time>
      </trkpt>
      <trkpt lat="42.96621" lon="-0.35864">
        <ele>980.6</ele>
        <time>2022-06-08 11:32:29</time>
      </trkpt>
      <trkpt lat="42.96622" lon="-0.35863">
        <ele>981</ele>
        <time>2022-06-08 11:32:30</time>
      </trkpt>
      <trkpt lat="42.96622" lon="-0.35861">
        <ele>981.2</ele>
        <time>2022-06-08 11:32:31</time>
      </trkpt>
      <trkpt lat="42.96623" lon="-0.3586">
        <ele>981.6</ele>
        <time>2022-06-08 11:32:32</time>
      </trkpt>
      <trkpt lat="42.96625" lon="-0.3586">
        <ele>982</ele>
        <time>2022-06-08 11:32:33</time>
      </trkpt>
      <trkpt lat="42.96626" lon="-0.35859">
        <ele>982.2</ele>
        <time>2022-06-08 11:32:34</time>
      </trkpt>
      <trkpt lat="42.96627" lon="-0.35857">
        <ele>982.6</ele>
        <time>2022-06-08 11:32:35</time>
      </trkpt>
      <trkpt lat="42.96628" lon="-0.35855">
        <ele>982.8</ele>
        <time>2022-06-08 11:32:36</time>
      </trkpt>
      <trkpt lat="42.9663" lon="-0.35854">
        <ele>983</ele>
        <time>2022-06-08 11:32:37</time>
      </trkpt>
      <trkpt lat="42.96631" lon="-0.35853">
        <ele>983.2</ele>
        <time>2022-06-08 11:32:38</time>
      </trkpt>
      <trkpt lat="42.96632" lon="-0.35853">
        <ele>983.6</ele>
        <time>2022-06-08 11:32:39</time>
      </trkpt>
      <trkpt lat="42.96633" lon="-0.35852">
        <ele>983.8</ele>
        <time>2022-06-08 11:32:40</time>
      </trkpt>
      <trkpt lat="42.96633" lon="-0.3585">
        <ele>984.2</ele>
        <time>2022-06-08 11:32:41</time>
      </trkpt>
      <trkpt lat="42.96634" lon="-0.35847">
        <ele>984.4</ele>
        <time>2022-06-08 11:32:42</time>
      </trkpt>
      <trkpt lat="42.96634" lon="-0.35846">
        <ele>984.6</ele>
        <time>2022-06-08 11:32:43</time>
      </trkpt>
      <trkpt lat="42.96634" lon="-0.35846">
        <ele>984.8</ele>
        <time>2022-06-08 11:32:44</time>
      </trkpt>
      <trkpt lat="42.96634" lon="-0.35845">
        <ele>985</ele>
        <time>2022-06-08 11:32:45</time>
      </trkpt>
      <trkpt lat="42.96635" lon="-0.35845">
        <ele>985.2</ele>
        <time>2022-06-08 11:32:46</time>
      </trkpt>
      <trkpt lat="42.96635" lon="-0.35842">
        <ele>985.6</ele>
        <time>2022-06-08 11:32:47</time>
      </trkpt>
      <trkpt lat="42.96635" lon="-0.35837">
        <ele>985.6</ele>
        <time>2022-06-08 11:32:48</time>
      </trkpt>
      <trkpt lat="42.96636" lon="-0.35837">
        <ele>986</ele>
        <time>2022-06-08 11:32:49</time>
      </trkpt>
      <trkpt lat="42.96636" lon="-0.35836">
        <ele>986.2</ele>
        <time>2022-06-08 11:32:50</time>
      </trkpt>
      <trkpt lat="42.96637" lon="-0.35834">
        <ele>986.4</ele>
        <time>2022-06-08 11:32:51</time>
      </trkpt>
      <trkpt lat="42.96637" lon="-0.35833">
        <ele>987</ele>
        <time>2022-06-08 11:32:52</time>
      </trkpt>
      <trkpt lat="42.96637" lon="-0.35831">
        <ele>987</ele>
        <time>2022-06-08 11:32:53</time>
      </trkpt>
      <trkpt lat="42.96637" lon="-0.35826">
        <ele>987.2</ele>
        <time>2022-06-08 11:32:54</time>
      </trkpt>
      <trkpt lat="42.96638" lon="-0.35825">
        <ele>987.4</ele>
        <time>2022-06-08 11:32:55</time>
      </trkpt>
      <trkpt lat="42.96635" lon="-0.35814">
        <ele>987.8</ele>
        <time>2022-06-08 11:32:56</time>
      </trkpt>
      <trkpt lat="42.96632" lon="-0.35801">
        <ele>987.8</ele>
        <time>2022-06-08 11:32:57</time>
      </trkpt>
      <trkpt lat="42.96629" lon="-0.35792">
        <ele>988.4</ele>
        <time>2022-06-08 11:32:58</time>
      </trkpt>
      <trkpt lat="42.96626" lon="-0.35784">
        <ele>988.4</ele>
        <time>2022-06-08 11:32:59</time>
      </trkpt>
      <trkpt lat="42.96623" lon="-0.35778">
        <ele>988.6</ele>
        <time>2022-06-08 11:33:00</time>
      </trkpt>
      <trkpt lat="42.9662" lon="-0.35772">
        <ele>988.6</ele>
        <time>2022-06-08 11:33:01</time>
      </trkpt>
      <trkpt lat="42.96617" lon="-0.35765">
        <ele>988.8</ele>
        <time>2022-06-08 11:33:02</time>
      </trkpt>
      <trkpt lat="42.96614" lon="-0.35759">
        <ele>989</ele>
        <time>2022-06-08 11:33:03</time>
      </trkpt>
      <trkpt lat="42.96612" lon="-0.35753">
        <ele>989.4</ele>
        <time>2022-06-08 11:33:04</time>
      </trkpt>
      <trkpt lat="42.96609" lon="-0.35749">
        <ele>989.4</ele>
        <time>2022-06-08 11:33:05</time>
      </trkpt>
      <trkpt lat="42.96607" lon="-0.35744">
        <ele>989.8</ele>
        <time>2022-06-08 11:33:06</time>
      </trkpt>
      <trkpt lat="42.96604" lon="-0.35739">
        <ele>990.2</ele>
        <time>2022-06-08 11:33:07</time>
      </trkpt>
      <trkpt lat="42.96602" lon="-0.35734">
        <ele>990.4</ele>
        <time>2022-06-08 11:33:08</time>
      </trkpt>
      <trkpt lat="42.966" lon="-0.35728">
        <ele>990.8</ele>
        <time>2022-06-08 11:33:09</time>
      </trkpt>
      <trkpt lat="42.96598" lon="-0.3572">
        <ele>990.8</ele>
        <time>2022-06-08 11:33:10</time>
      </trkpt>
      <trkpt lat="42.96597" lon="-0.35716">
        <ele>991</ele>
        <time>2022-06-08 11:33:11</time>
      </trkpt>
      <trkpt lat="42.96595" lon="-0.35713">
        <ele>991.2</ele>
        <time>2022-06-08 11:33:12</time>
      </trkpt>
      <trkpt lat="42.96594" lon="-0.35709">
        <ele>991.8</ele>
        <time>2022-06-08 11:33:13</time>
      </trkpt>
      <trkpt lat="42.96593" lon="-0.35704">
        <ele>992</ele>
        <time>2022-06-08 11:33:14</time>
      </trkpt>
      <trkpt lat="42.96592" lon="-0.35701">
        <ele>992.2</ele>
        <time>2022-06-08 11:33:15</time>
      </trkpt>
      <trkpt lat="42.96591" lon="-0.35696">
        <ele>992.4</ele>
        <time>2022-06-08 11:33:16</time>
      </trkpt>
      <trkpt lat="42.96593" lon="-0.35693">
        <ele>992.8</ele>
        <time>2022-06-08 11:33:17</time>
      </trkpt>
      <trkpt lat="42.96589" lon="-0.35693">
        <ele>992.8</ele>
        <time>2022-06-08 11:33:18</time>
      </trkpt>
      <trkpt lat="42.96584" lon="-0.35691">
        <ele>993.2</ele>
        <time>2022-06-08 11:33:19</time>
      </trkpt>
      <trkpt lat="42.9658" lon="-0.35687">
        <ele>993.4</ele>
        <time>2022-06-08 11:33:20</time>
      </trkpt>
      <trkpt lat="42.96578" lon="-0.35679">
        <ele>993.6</ele>
        <time>2022-06-08 11:33:21</time>
      </trkpt>
      <trkpt lat="42.96578" lon="-0.35675">
        <ele>993.8</ele>
        <time>2022-06-08 11:33:22</time>
      </trkpt>
      <trkpt lat="42.96579" lon="-0.35671">
        <ele>994</ele>
        <time>2022-06-08 11:33:23</time>
      </trkpt>
      <trkpt lat="42.9658" lon="-0.35665">
        <ele>994.2</ele>
        <time>2022-06-08 11:33:24</time>
      </trkpt>
      <trkpt lat="42.9658" lon="-0.35665">
        <ele>994.2</ele>
        <time>2022-06-08 11:33:25</time>
      </trkpt>
      <trkpt lat="42.9658" lon="-0.35665">
        <ele>994.8</ele>
        <time>2022-06-08 11:33:26</time>
      </trkpt>
      <trkpt lat="42.9658" lon="-0.35663">
        <ele>995</ele>
        <time>2022-06-08 11:33:27</time>
      </trkpt>
      <trkpt lat="42.9658" lon="-0.35662">
        <ele>995.2</ele>
        <time>2022-06-08 11:33:28</time>
      </trkpt>
      <trkpt lat="42.9658" lon="-0.35661">
        <ele>995.4</ele>
        <time>2022-06-08 11:33:29</time>
      </trkpt>
      <trkpt lat="42.9658" lon="-0.3566">
        <ele>995.8</ele>
        <time>2022-06-08 11:33:30</time>
      </trkpt>
      <trkpt lat="42.96581" lon="-0.3566">
        <ele>995.8</ele>
        <time>2022-06-08 11:33:31</time>
      </trkpt>
      <trkpt lat="42.9658" lon="-0.35658">
        <ele>996.2</ele>
        <time>2022-06-08 11:33:32</time>
      </trkpt>
      <trkpt lat="42.96578" lon="-0.35652">
        <ele>996.4</ele>
        <time>2022-06-08 11:33:33</time>
      </trkpt>
      <trkpt lat="42.96577" lon="-0.35645">
        <ele>997</ele>
        <time>2022-06-08 11:33:34</time>
      </trkpt>
      <trkpt lat="42.96576" lon="-0.35642">
        <ele>997</ele>
        <time>2022-06-08 11:33:35</time>
      </trkpt>
      <trkpt lat="42.96575" lon="-0.35637">
        <ele>997.4</ele>
        <time>2022-06-08 11:33:36</time>
      </trkpt>
      <trkpt lat="42.96573" lon="-0.35633">
        <ele>997.4</ele>
        <time>2022-06-08 11:33:37</time>
      </trkpt>
      <trkpt lat="42.96572" lon="-0.35629">
        <ele>997.8</ele>
        <time>2022-06-08 11:33:38</time>
      </trkpt>
      <trkpt lat="42.96572" lon="-0.35628">
        <ele>998</ele>
        <time>2022-06-08 11:33:39</time>
      </trkpt>
      <trkpt lat="42.96573" lon="-0.35625">
        <ele>998.2</ele>
        <time>2022-06-08 11:33:40</time>
      </trkpt>
      <trkpt lat="42.96571" lon="-0.35622">
        <ele>998.6</ele>
        <time>2022-06-08 11:33:41</time>
      </trkpt>
      <trkpt lat="42.96568" lon="-0.35618">
        <ele>998.8</ele>
        <time>2022-06-08 11:33:42</time>
      </trkpt>
      <trkpt lat="42.96566" lon="-0.35615">
        <ele>999.2</ele>
        <time>2022-06-08 11:33:43</time>
      </trkpt>
      <trkpt lat="42.96563" lon="-0.35612">
        <ele>999.6</ele>
        <time>2022-06-08 11:33:44</time>
      </trkpt>
      <trkpt lat="42.96561" lon="-0.35608">
        <ele>999.8</ele>
        <time>2022-06-08 11:33:45</time>
      </trkpt>
      <trkpt lat="42.96559" lon="-0.35605">
        <ele>1000</ele>
        <time>2022-06-08 11:33:46</time>
      </trkpt>
      <trkpt lat="42.96556" lon="-0.35603">
        <ele>1000</ele>
        <time>2022-06-08 11:33:47</time>
      </trkpt>
      <trkpt lat="42.96554" lon="-0.35601">
        <ele>1000.2</ele>
        <time>2022-06-08 11:33:48</time>
      </trkpt>
      <trkpt lat="42.96551" lon="-0.35598">
        <ele>1000.2</ele>
        <time>2022-06-08 11:33:49</time>
      </trkpt>
      <trkpt lat="42.96548" lon="-0.35595">
        <ele>1000.6</ele>
        <time>2022-06-08 11:33:50</time>
      </trkpt>
      <trkpt lat="42.96545" lon="-0.35592">
        <ele>1001</ele>
        <time>2022-06-08 11:33:51</time>
      </trkpt>
      <trkpt lat="42.96542" lon="-0.3559">
        <ele>1001.2</ele>
        <time>2022-06-08 11:33:52</time>
      </trkpt>
      <trkpt lat="42.9654" lon="-0.35587">
        <ele>1001.4</ele>
        <time>2022-06-08 11:33:53</time>
      </trkpt>
      <trkpt lat="42.96538" lon="-0.35585">
        <ele>1001.8</ele>
        <time>2022-06-08 11:33:54</time>
      </trkpt>
      <trkpt lat="42.96536" lon="-0.35582">
        <ele>1001.8</ele>
        <time>2022-06-08 11:33:55</time>
      </trkpt>
      <trkpt lat="42.96534" lon="-0.3558">
        <ele>1002.4</ele>
        <time>2022-06-08 11:33:56</time>
      </trkpt>
      <trkpt lat="42.96532" lon="-0.35578">
        <ele>1002.6</ele>
        <time>2022-06-08 11:33:57</time>
      </trkpt>
      <trkpt lat="42.9653" lon="-0.35575">
        <ele>1002.8</ele>
        <time>2022-06-08 11:33:58</time>
      </trkpt>
      <trkpt lat="42.96527" lon="-0.35571">
        <ele>1003</ele>
        <time>2022-06-08 11:33:59</time>
      </trkpt>
      <trkpt lat="42.96524" lon="-0.35568">
        <ele>1003.4</ele>
        <time>2022-06-08 11:34:00</time>
      </trkpt>
      <trkpt lat="42.96521" lon="-0.35566">
        <ele>1003.6</ele>
        <time>2022-06-08 11:34:01</time>
      </trkpt>
      <trkpt lat="42.96519" lon="-0.35564">
        <ele>1004</ele>
        <time>2022-06-08 11:34:02</time>
      </trkpt>
      <trkpt lat="42.96517" lon="-0.3556">
        <ele>1004</ele>
        <time>2022-06-08 11:34:03</time>
      </trkpt>
      <trkpt lat="42.96515" lon="-0.35558">
        <ele>1004.2</ele>
        <time>2022-06-08 11:34:04</time>
      </trkpt>
      <trkpt lat="42.96513" lon="-0.35555">
        <ele>1004.4</ele>
        <time>2022-06-08 11:34:05</time>
      </trkpt>
      <trkpt lat="42.96511" lon="-0.35552">
        <ele>1004.6</ele>
        <time>2022-06-08 11:34:06</time>
      </trkpt>
      <trkpt lat="42.96509" lon="-0.3555">
        <ele>1004.8</ele>
        <time>2022-06-08 11:34:07</time>
      </trkpt>
      <trkpt lat="42.96508" lon="-0.35547">
        <ele>1005.2</ele>
        <time>2022-06-08 11:34:08</time>
      </trkpt>
      <trkpt lat="42.96506" lon="-0.35544">
        <ele>1005.2</ele>
        <time>2022-06-08 11:34:09</time>
      </trkpt>
      <trkpt lat="42.96504" lon="-0.35542">
        <ele>1005.8</ele>
        <time>2022-06-08 11:34:10</time>
      </trkpt>
      <trkpt lat="42.96502" lon="-0.3554">
        <ele>1006.2</ele>
        <time>2022-06-08 11:34:11</time>
      </trkpt>
      <trkpt lat="42.965" lon="-0.35538">
        <ele>1006.4</ele>
        <time>2022-06-08 11:34:12</time>
      </trkpt>
      <trkpt lat="42.96498" lon="-0.35535">
        <ele>1006.6</ele>
        <time>2022-06-08 11:34:13</time>
      </trkpt>
      <trkpt lat="42.96495" lon="-0.35532">
        <ele>1006.8</ele>
        <time>2022-06-08 11:34:14</time>
      </trkpt>
      <trkpt lat="42.96493" lon="-0.3553">
        <ele>1007.2</ele>
        <time>2022-06-08 11:34:15</time>
      </trkpt>
      <trkpt lat="42.96491" lon="-0.35528">
        <ele>1007.4</ele>
        <time>2022-06-08 11:34:16</time>
      </trkpt>
      <trkpt lat="42.96489" lon="-0.35526">
        <ele>1007.8</ele>
        <time>2022-06-08 11:34:17</time>
      </trkpt>
      <trkpt lat="42.96487" lon="-0.35524">
        <ele>1008</ele>
        <time>2022-06-08 11:34:18</time>
      </trkpt>
      <trkpt lat="42.96485" lon="-0.35522">
        <ele>1008.2</ele>
        <time>2022-06-08 11:34:19</time>
      </trkpt>
      <trkpt lat="42.96483" lon="-0.3552">
        <ele>1008.6</ele>
        <time>2022-06-08 11:34:20</time>
      </trkpt>
      <trkpt lat="42.96481" lon="-0.35518">
        <ele>1009</ele>
        <time>2022-06-08 11:34:21</time>
      </trkpt>
      <trkpt lat="42.96479" lon="-0.35516">
        <ele>1009</ele>
        <time>2022-06-08 11:34:22</time>
      </trkpt>
      <trkpt lat="42.96476" lon="-0.35514">
        <ele>1009.4</ele>
        <time>2022-06-08 11:34:23</time>
      </trkpt>
      <trkpt lat="42.96475" lon="-0.35512">
        <ele>1009.4</ele>
        <time>2022-06-08 11:34:24</time>
      </trkpt>
      <trkpt lat="42.96474" lon="-0.35509">
        <ele>1009.8</ele>
        <time>2022-06-08 11:34:25</time>
      </trkpt>
      <trkpt lat="42.96472" lon="-0.35507">
        <ele>1010</ele>
        <time>2022-06-08 11:34:26</time>
      </trkpt>
      <trkpt lat="42.96471" lon="-0.35504">
        <ele>1010.2</ele>
        <time>2022-06-08 11:34:27</time>
      </trkpt>
      <trkpt lat="42.96469" lon="-0.35502">
        <ele>1010.6</ele>
        <time>2022-06-08 11:34:28</time>
      </trkpt>
      <trkpt lat="42.96467" lon="-0.35499">
        <ele>1010.8</ele>
        <time>2022-06-08 11:34:29</time>
      </trkpt>
      <trkpt lat="42.96465" lon="-0.35496">
        <ele>1011.2</ele>
        <time>2022-06-08 11:34:30</time>
      </trkpt>
      <trkpt lat="42.96463" lon="-0.35493">
        <ele>1011.4</ele>
        <time>2022-06-08 11:34:31</time>
      </trkpt>
      <trkpt lat="42.96461" lon="-0.35491">
        <ele>1011.8</ele>
        <time>2022-06-08 11:34:32</time>
      </trkpt>
      <trkpt lat="42.96459" lon="-0.35488">
        <ele>1011.8</ele>
        <time>2022-06-08 11:34:33</time>
      </trkpt>
      <trkpt lat="42.96458" lon="-0.35486">
        <ele>1012</ele>
        <time>2022-06-08 11:34:34</time>
      </trkpt>
      <trkpt lat="42.96456" lon="-0.35483">
        <ele>1012.4</ele>
        <time>2022-06-08 11:34:35</time>
      </trkpt>
      <trkpt lat="42.96454" lon="-0.3548">
        <ele>1012.6</ele>
        <time>2022-06-08 11:34:36</time>
      </trkpt>
      <trkpt lat="42.96451" lon="-0.35477">
        <ele>1012.8</ele>
        <time>2022-06-08 11:34:37</time>
      </trkpt>
      <trkpt lat="42.96449" lon="-0.35475">
        <ele>1013</ele>
        <time>2022-06-08 11:34:38</time>
      </trkpt>
      <trkpt lat="42.96447" lon="-0.35472">
        <ele>1013.2</ele>
        <time>2022-06-08 11:34:39</time>
      </trkpt>
      <trkpt lat="42.96446" lon="-0.35469">
        <ele>1013.8</ele>
        <time>2022-06-08 11:34:40</time>
      </trkpt>
      <trkpt lat="42.96444" lon="-0.35466">
        <ele>1014</ele>
        <time>2022-06-08 11:34:41</time>
      </trkpt>
      <trkpt lat="42.96442" lon="-0.35464">
        <ele>1014.4</ele>
        <time>2022-06-08 11:34:42</time>
      </trkpt>
      <trkpt lat="42.9644" lon="-0.35461">
        <ele>1014.8</ele>
        <time>2022-06-08 11:34:43</time>
      </trkpt>
      <trkpt lat="42.96439" lon="-0.35458">
        <ele>1015</ele>
        <time>2022-06-08 11:34:44</time>
      </trkpt>
      <trkpt lat="42.96437" lon="-0.35455">
        <ele>1015.2</ele>
        <time>2022-06-08 11:34:45</time>
      </trkpt>
      <trkpt lat="42.96435" lon="-0.35452">
        <ele>1015.2</ele>
        <time>2022-06-08 11:34:46</time>
      </trkpt>
      <trkpt lat="42.96433" lon="-0.35449">
        <ele>1015.6</ele>
        <time>2022-06-08 11:34:47</time>
      </trkpt>
      <trkpt lat="42.96431" lon="-0.35446">
        <ele>1016.2</ele>
        <time>2022-06-08 11:34:48</time>
      </trkpt>
      <trkpt lat="42.96429" lon="-0.35443">
        <ele>1016.6</ele>
        <time>2022-06-08 11:34:49</time>
      </trkpt>
      <trkpt lat="42.96428" lon="-0.35441">
        <ele>1016.6</ele>
        <time>2022-06-08 11:34:50</time>
      </trkpt>
      <trkpt lat="42.96426" lon="-0.35438">
        <ele>1016.8</ele>
        <time>2022-06-08 11:34:51</time>
      </trkpt>
      <trkpt lat="42.96424" lon="-0.35435">
        <ele>1017</ele>
        <time>2022-06-08 11:34:52</time>
      </trkpt>
      <trkpt lat="42.96422" lon="-0.35432">
        <ele>1017</ele>
        <time>2022-06-08 11:34:53</time>
      </trkpt>
      <trkpt lat="42.9642" lon="-0.3543">
        <ele>1017.2</ele>
        <time>2022-06-08 11:34:54</time>
      </trkpt>
      <trkpt lat="42.96419" lon="-0.35427">
        <ele>1017.6</ele>
        <time>2022-06-08 11:34:55</time>
      </trkpt>
      <trkpt lat="42.96417" lon="-0.35424">
        <ele>1017.6</ele>
        <time>2022-06-08 11:34:56</time>
      </trkpt>
      <trkpt lat="42.96415" lon="-0.35421">
        <ele>1018</ele>
        <time>2022-06-08 11:34:57</time>
      </trkpt>
      <trkpt lat="42.96414" lon="-0.35418">
        <ele>1018.2</ele>
        <time>2022-06-08 11:34:58</time>
      </trkpt>
      <trkpt lat="42.96412" lon="-0.35414">
        <ele>1018.4</ele>
        <time>2022-06-08 11:34:59</time>
      </trkpt>
      <trkpt lat="42.96411" lon="-0.35412">
        <ele>1018.8</ele>
        <time>2022-06-08 11:35:00</time>
      </trkpt>
      <trkpt lat="42.9641" lon="-0.35408">
        <ele>1019</ele>
        <time>2022-06-08 11:35:01</time>
      </trkpt>
      <trkpt lat="42.96409" lon="-0.35405">
        <ele>1019.4</ele>
        <time>2022-06-08 11:35:02</time>
      </trkpt>
      <trkpt lat="42.96409" lon="-0.35402">
        <ele>1019.6</ele>
        <time>2022-06-08 11:35:03</time>
      </trkpt>
      <trkpt lat="42.96408" lon="-0.35398">
        <ele>1019.8</ele>
        <time>2022-06-08 11:35:04</time>
      </trkpt>
      <trkpt lat="42.96407" lon="-0.35395">
        <ele>1020</ele>
        <time>2022-06-08 11:35:05</time>
      </trkpt>
      <trkpt lat="42.96405" lon="-0.35391">
        <ele>1020.4</ele>
        <time>2022-06-08 11:35:06</time>
      </trkpt>
      <trkpt lat="42.96404" lon="-0.35388">
        <ele>1020.8</ele>
        <time>2022-06-08 11:35:07</time>
      </trkpt>
      <trkpt lat="42.96403" lon="-0.35384">
        <ele>1021</ele>
        <time>2022-06-08 11:35:08</time>
      </trkpt>
      <trkpt lat="42.96402" lon="-0.35381">
        <ele>1021.2</ele>
        <time>2022-06-08 11:35:09</time>
      </trkpt>
      <trkpt lat="42.96401" lon="-0.35377">
        <ele>1021.6</ele>
        <time>2022-06-08 11:35:10</time>
      </trkpt>
      <trkpt lat="42.964" lon="-0.35374">
        <ele>1021.8</ele>
        <time>2022-06-08 11:35:11</time>
      </trkpt>
      <trkpt lat="42.96398" lon="-0.35371">
        <ele>1022</ele>
        <time>2022-06-08 11:35:12</time>
      </trkpt>
      <trkpt lat="42.96397" lon="-0.35368">
        <ele>1022.2</ele>
        <time>2022-06-08 11:35:13</time>
      </trkpt>
      <trkpt lat="42.96396" lon="-0.35364">
        <ele>1022.4</ele>
        <time>2022-06-08 11:35:14</time>
      </trkpt>
      <trkpt lat="42.96394" lon="-0.35361">
        <ele>1022.6</ele>
        <time>2022-06-08 11:35:15</time>
      </trkpt>
      <trkpt lat="42.96393" lon="-0.35358">
        <ele>1022.8</ele>
        <time>2022-06-08 11:35:16</time>
      </trkpt>
      <trkpt lat="42.96391" lon="-0.35355">
        <ele>1023.2</ele>
        <time>2022-06-08 11:35:17</time>
      </trkpt>
      <trkpt lat="42.9639" lon="-0.35353">
        <ele>1023.4</ele>
        <time>2022-06-08 11:35:18</time>
      </trkpt>
      <trkpt lat="42.96388" lon="-0.3535">
        <ele>1023.8</ele>
        <time>2022-06-08 11:35:19</time>
      </trkpt>
      <trkpt lat="42.96387" lon="-0.35348">
        <ele>1024</ele>
        <time>2022-06-08 11:35:20</time>
      </trkpt>
      <trkpt lat="42.96385" lon="-0.35345">
        <ele>1024.4</ele>
        <time>2022-06-08 11:35:21</time>
      </trkpt>
      <trkpt lat="42.96384" lon="-0.35343">
        <ele>1024.6</ele>
        <time>2022-06-08 11:35:22</time>
      </trkpt>
      <trkpt lat="42.96383" lon="-0.3534">
        <ele>1025</ele>
        <time>2022-06-08 11:35:23</time>
      </trkpt>
      <trkpt lat="42.96381" lon="-0.35338">
        <ele>1025.2</ele>
        <time>2022-06-08 11:35:24</time>
      </trkpt>
      <trkpt lat="42.96378" lon="-0.35336">
        <ele>1025.4</ele>
        <time>2022-06-08 11:35:25</time>
      </trkpt>
      <trkpt lat="42.96376" lon="-0.35334">
        <ele>1025.6</ele>
        <time>2022-06-08 11:35:26</time>
      </trkpt>
      <trkpt lat="42.96374" lon="-0.35331">
        <ele>1026.2</ele>
        <time>2022-06-08 11:35:27</time>
      </trkpt>
      <trkpt lat="42.96372" lon="-0.35329">
        <ele>1026.4</ele>
        <time>2022-06-08 11:35:28</time>
      </trkpt>
      <trkpt lat="42.9637" lon="-0.35327">
        <ele>1026.8</ele>
        <time>2022-06-08 11:35:29</time>
      </trkpt>
      <trkpt lat="42.96369" lon="-0.35325">
        <ele>1026.8</ele>
        <time>2022-06-08 11:35:30</time>
      </trkpt>
      <trkpt lat="42.96367" lon="-0.35322">
        <ele>1027</ele>
        <time>2022-06-08 11:35:31</time>
      </trkpt>
      <trkpt lat="42.96366" lon="-0.3532">
        <ele>1027.2</ele>
        <time>2022-06-08 11:35:32</time>
      </trkpt>
      <trkpt lat="42.96364" lon="-0.35316">
        <ele>1027.6</ele>
        <time>2022-06-08 11:35:33</time>
      </trkpt>
      <trkpt lat="42.96363" lon="-0.35314">
        <ele>1028</ele>
        <time>2022-06-08 11:35:34</time>
      </trkpt>
      <trkpt lat="42.96361" lon="-0.35312">
        <ele>1028.2</ele>
        <time>2022-06-08 11:35:35</time>
      </trkpt>
      <trkpt lat="42.9636" lon="-0.35309">
        <ele>1028.6</ele>
        <time>2022-06-08 11:35:36</time>
      </trkpt>
      <trkpt lat="42.96359" lon="-0.35306">
        <ele>1028.8</ele>
        <time>2022-06-08 11:35:37</time>
      </trkpt>
      <trkpt lat="42.96358" lon="-0.35303">
        <ele>1029.2</ele>
        <time>2022-06-08 11:35:38</time>
      </trkpt>
      <trkpt lat="42.96356" lon="-0.353">
        <ele>1029.4</ele>
        <time>2022-06-08 11:35:39</time>
      </trkpt>
      <trkpt lat="42.96355" lon="-0.35297">
        <ele>1029.8</ele>
        <time>2022-06-08 11:35:40</time>
      </trkpt>
      <trkpt lat="42.96354" lon="-0.35294">
        <ele>1030</ele>
        <time>2022-06-08 11:35:41</time>
      </trkpt>
      <trkpt lat="42.96353" lon="-0.3529">
        <ele>1030.4</ele>
        <time>2022-06-08 11:35:42</time>
      </trkpt>
      <trkpt lat="42.96352" lon="-0.35287">
        <ele>1030.6</ele>
        <time>2022-06-08 11:35:43</time>
      </trkpt>
      <trkpt lat="42.96351" lon="-0.35284">
        <ele>1030.8</ele>
        <time>2022-06-08 11:35:44</time>
      </trkpt>
      <trkpt lat="42.9635" lon="-0.3528">
        <ele>1030.8</ele>
        <time>2022-06-08 11:35:45</time>
      </trkpt>
      <trkpt lat="42.96349" lon="-0.35277">
        <ele>1031</ele>
        <time>2022-06-08 11:35:46</time>
      </trkpt>
      <trkpt lat="42.96348" lon="-0.35274">
        <ele>1031.2</ele>
        <time>2022-06-08 11:35:47</time>
      </trkpt>
      <trkpt lat="42.96347" lon="-0.3527">
        <ele>1031.6</ele>
        <time>2022-06-08 11:35:48</time>
      </trkpt>
      <trkpt lat="42.96346" lon="-0.35267">
        <ele>1031.8</ele>
        <time>2022-06-08 11:35:49</time>
      </trkpt>
      <trkpt lat="42.96345" lon="-0.35263">
        <ele>1032</ele>
        <time>2022-06-08 11:35:50</time>
      </trkpt>
      <trkpt lat="42.96345" lon="-0.3526">
        <ele>1032.2</ele>
        <time>2022-06-08 11:35:51</time>
      </trkpt>
      <trkpt lat="42.96344" lon="-0.35256">
        <ele>1032.4</ele>
        <time>2022-06-08 11:35:52</time>
      </trkpt>
      <trkpt lat="42.96344" lon="-0.35253">
        <ele>1032.8</ele>
        <time>2022-06-08 11:35:53</time>
      </trkpt>
      <trkpt lat="42.96343" lon="-0.3525">
        <ele>1033</ele>
        <time>2022-06-08 11:35:54</time>
      </trkpt>
      <trkpt lat="42.96342" lon="-0.35247">
        <ele>1033.2</ele>
        <time>2022-06-08 11:35:55</time>
      </trkpt>
      <trkpt lat="42.96341" lon="-0.35244">
        <ele>1033.6</ele>
        <time>2022-06-08 11:35:56</time>
      </trkpt>
      <trkpt lat="42.96341" lon="-0.35241">
        <ele>1034</ele>
        <time>2022-06-08 11:35:57</time>
      </trkpt>
      <trkpt lat="42.96341" lon="-0.35237">
        <ele>1034.2</ele>
        <time>2022-06-08 11:35:58</time>
      </trkpt>
      <trkpt lat="42.9634" lon="-0.35234">
        <ele>1034.6</ele>
        <time>2022-06-08 11:35:59</time>
      </trkpt>
      <trkpt lat="42.9634" lon="-0.3523">
        <ele>1034.6</ele>
        <time>2022-06-08 11:36:00</time>
      </trkpt>
      <trkpt lat="42.9634" lon="-0.35227">
        <ele>1035</ele>
        <time>2022-06-08 11:36:01</time>
      </trkpt>
      <trkpt lat="42.9634" lon="-0.35223">
        <ele>1035.2</ele>
        <time>2022-06-08 11:36:02</time>
      </trkpt>
      <trkpt lat="42.9634" lon="-0.3522">
        <ele>1035.6</ele>
        <time>2022-06-08 11:36:03</time>
      </trkpt>
      <trkpt lat="42.9634" lon="-0.35217">
        <ele>1036</ele>
        <time>2022-06-08 11:36:04</time>
      </trkpt>
      <trkpt lat="42.9634" lon="-0.35213">
        <ele>1036.4</ele>
        <time>2022-06-08 11:36:05</time>
      </trkpt>
      <trkpt lat="42.9634" lon="-0.3521">
        <ele>1036.6</ele>
        <time>2022-06-08 11:36:06</time>
      </trkpt>
      <trkpt lat="42.96339" lon="-0.35206">
        <ele>1036.6</ele>
        <time>2022-06-08 11:36:07</time>
      </trkpt>
      <trkpt lat="42.96339" lon="-0.35202">
        <ele>1037</ele>
        <time>2022-06-08 11:36:08</time>
      </trkpt>
      <trkpt lat="42.96338" lon="-0.35198">
        <ele>1037</ele>
        <time>2022-06-08 11:36:09</time>
      </trkpt>
      <trkpt lat="42.96338" lon="-0.35194">
        <ele>1037.4</ele>
        <time>2022-06-08 11:36:10</time>
      </trkpt>
      <trkpt lat="42.96338" lon="-0.35191">
        <ele>1037.4</ele>
        <time>2022-06-08 11:36:11</time>
      </trkpt>
      <trkpt lat="42.96339" lon="-0.35187">
        <ele>1037.8</ele>
        <time>2022-06-08 11:36:12</time>
      </trkpt>
      <trkpt lat="42.96339" lon="-0.35183">
        <ele>1038</ele>
        <time>2022-06-08 11:36:13</time>
      </trkpt>
      <trkpt lat="42.96339" lon="-0.3518">
        <ele>1038.2</ele>
        <time>2022-06-08 11:36:14</time>
      </trkpt>
      <trkpt lat="42.96338" lon="-0.35176">
        <ele>1038.4</ele>
        <time>2022-06-08 11:36:15</time>
      </trkpt>
      <trkpt lat="42.96338" lon="-0.35172">
        <ele>1038.8</ele>
        <time>2022-06-08 11:36:16</time>
      </trkpt>
      <trkpt lat="42.96337" lon="-0.35168">
        <ele>1039</ele>
        <time>2022-06-08 11:36:17</time>
      </trkpt>
      <trkpt lat="42.96336" lon="-0.35165">
        <ele>1039.4</ele>
        <time>2022-06-08 11:36:18</time>
      </trkpt>
      <trkpt lat="42.96335" lon="-0.35161">
        <ele>1039.4</ele>
        <time>2022-06-08 11:36:19</time>
      </trkpt>
      <trkpt lat="42.96334" lon="-0.35157">
        <ele>1039.8</ele>
        <time>2022-06-08 11:36:20</time>
      </trkpt>
      <trkpt lat="42.96334" lon="-0.35154">
        <ele>1039.8</ele>
        <time>2022-06-08 11:36:21</time>
      </trkpt>
      <trkpt lat="42.96334" lon="-0.3515">
        <ele>1040.2</ele>
        <time>2022-06-08 11:36:22</time>
      </trkpt>
      <trkpt lat="42.96334" lon="-0.35146">
        <ele>1040.6</ele>
        <time>2022-06-08 11:36:23</time>
      </trkpt>
      <trkpt lat="42.96335" lon="-0.35142">
        <ele>1040.8</ele>
        <time>2022-06-08 11:36:24</time>
      </trkpt>
      <trkpt lat="42.96335" lon="-0.35139">
        <ele>1041</ele>
        <time>2022-06-08 11:36:25</time>
      </trkpt>
      <trkpt lat="42.96336" lon="-0.35136">
        <ele>1041</ele>
        <time>2022-06-08 11:36:26</time>
      </trkpt>
      <trkpt lat="42.96337" lon="-0.35132">
        <ele>1041.4</ele>
        <time>2022-06-08 11:36:27</time>
      </trkpt>
      <trkpt lat="42.96338" lon="-0.35128">
        <ele>1041.6</ele>
        <time>2022-06-08 11:36:28</time>
      </trkpt>
      <trkpt lat="42.9634" lon="-0.35125">
        <ele>1042</ele>
        <time>2022-06-08 11:36:29</time>
      </trkpt>
      <trkpt lat="42.96341" lon="-0.35121">
        <ele>1042</ele>
        <time>2022-06-08 11:36:30</time>
      </trkpt>
      <trkpt lat="42.96342" lon="-0.35118">
        <ele>1042.4</ele>
        <time>2022-06-08 11:36:31</time>
      </trkpt>
      <trkpt lat="42.96344" lon="-0.35114">
        <ele>1042.4</ele>
        <time>2022-06-08 11:36:32</time>
      </trkpt>
      <trkpt lat="42.96345" lon="-0.35111">
        <ele>1042.6</ele>
        <time>2022-06-08 11:36:33</time>
      </trkpt>
      <trkpt lat="42.96347" lon="-0.35108">
        <ele>1042.8</ele>
        <time>2022-06-08 11:36:34</time>
      </trkpt>
      <trkpt lat="42.96349" lon="-0.35104">
        <ele>1043.2</ele>
        <time>2022-06-08 11:36:35</time>
      </trkpt>
      <trkpt lat="42.9635" lon="-0.35102">
        <ele>1043.4</ele>
        <time>2022-06-08 11:36:36</time>
      </trkpt>
      <trkpt lat="42.96351" lon="-0.35099">
        <ele>1043.8</ele>
        <time>2022-06-08 11:36:37</time>
      </trkpt>
      <trkpt lat="42.96353" lon="-0.35097">
        <ele>1044</ele>
        <time>2022-06-08 11:36:38</time>
      </trkpt>
      <trkpt lat="42.96354" lon="-0.35094">
        <ele>1044.4</ele>
        <time>2022-06-08 11:36:39</time>
      </trkpt>
      <trkpt lat="42.96356" lon="-0.35092">
        <ele>1044.6</ele>
        <time>2022-06-08 11:36:40</time>
      </trkpt>
      <trkpt lat="42.96357" lon="-0.35089">
        <ele>1044.6</ele>
        <time>2022-06-08 11:36:41</time>
      </trkpt>
      <trkpt lat="42.96359" lon="-0.35087">
        <ele>1044.8</ele>
        <time>2022-06-08 11:36:42</time>
      </trkpt>
      <trkpt lat="42.9636" lon="-0.35084">
        <ele>1045</ele>
        <time>2022-06-08 11:36:43</time>
      </trkpt>
      <trkpt lat="42.96362" lon="-0.35081">
        <ele>1045.6</ele>
        <time>2022-06-08 11:36:44</time>
      </trkpt>
      <trkpt lat="42.96364" lon="-0.35078">
        <ele>1045.8</ele>
        <time>2022-06-08 11:36:45</time>
      </trkpt>
      <trkpt lat="42.96365" lon="-0.35075">
        <ele>1046.2</ele>
        <time>2022-06-08 11:36:46</time>
      </trkpt>
      <trkpt lat="42.96367" lon="-0.35073">
        <ele>1046.2</ele>
        <time>2022-06-08 11:36:47</time>
      </trkpt>
      <trkpt lat="42.96369" lon="-0.3507">
        <ele>1046.4</ele>
        <time>2022-06-08 11:36:48</time>
      </trkpt>
      <trkpt lat="42.9637" lon="-0.35066">
        <ele>1046.6</ele>
        <time>2022-06-08 11:36:49</time>
      </trkpt>
      <trkpt lat="42.96371" lon="-0.35062">
        <ele>1047</ele>
        <time>2022-06-08 11:36:50</time>
      </trkpt>
      <trkpt lat="42.96372" lon="-0.35059">
        <ele>1047</ele>
        <time>2022-06-08 11:36:51</time>
      </trkpt>
      <trkpt lat="42.96373" lon="-0.35055">
        <ele>1047.2</ele>
        <time>2022-06-08 11:36:52</time>
      </trkpt>
      <trkpt lat="42.96374" lon="-0.35051">
        <ele>1047.4</ele>
        <time>2022-06-08 11:36:53</time>
      </trkpt>
      <trkpt lat="42.96375" lon="-0.35047">
        <ele>1047.8</ele>
        <time>2022-06-08 11:36:54</time>
      </trkpt>
      <trkpt lat="42.96375" lon="-0.35043">
        <ele>1048</ele>
        <time>2022-06-08 11:36:55</time>
      </trkpt>
      <trkpt lat="42.96376" lon="-0.3504">
        <ele>1048.4</ele>
        <time>2022-06-08 11:36:56</time>
      </trkpt>
      <trkpt lat="42.96376" lon="-0.35036">
        <ele>1049</ele>
        <time>2022-06-08 11:36:57</time>
      </trkpt>
      <trkpt lat="42.96376" lon="-0.35032">
        <ele>1049.2</ele>
        <time>2022-06-08 11:36:58</time>
      </trkpt>
      <trkpt lat="42.96376" lon="-0.35028">
        <ele>1049.6</ele>
        <time>2022-06-08 11:36:59</time>
      </trkpt>
      <trkpt lat="42.96376" lon="-0.35025">
        <ele>1049.8</ele>
        <time>2022-06-08 11:37:00</time>
      </trkpt>
      <trkpt lat="42.96377" lon="-0.35021">
        <ele>1050.6</ele>
        <time>2022-06-08 11:37:01</time>
      </trkpt>
      <trkpt lat="42.96378" lon="-0.35017">
        <ele>1050.8</ele>
        <time>2022-06-08 11:37:02</time>
      </trkpt>
      <trkpt lat="42.96378" lon="-0.35013">
        <ele>1051</ele>
        <time>2022-06-08 11:37:03</time>
      </trkpt>
      <trkpt lat="42.96379" lon="-0.35009">
        <ele>1051.2</ele>
        <time>2022-06-08 11:37:04</time>
      </trkpt>
      <trkpt lat="42.9638" lon="-0.35006">
        <ele>1051.6</ele>
        <time>2022-06-08 11:37:05</time>
      </trkpt>
      <trkpt lat="42.9638" lon="-0.35002">
        <ele>1051.8</ele>
        <time>2022-06-08 11:37:06</time>
      </trkpt>
      <trkpt lat="42.96381" lon="-0.34998">
        <ele>1051.8</ele>
        <time>2022-06-08 11:37:07</time>
      </trkpt>
      <trkpt lat="42.96381" lon="-0.34995">
        <ele>1052</ele>
        <time>2022-06-08 11:37:08</time>
      </trkpt>
      <trkpt lat="42.96381" lon="-0.34991">
        <ele>1052.4</ele>
        <time>2022-06-08 11:37:09</time>
      </trkpt>
      <trkpt lat="42.96381" lon="-0.34988">
        <ele>1052.6</ele>
        <time>2022-06-08 11:37:10</time>
      </trkpt>
      <trkpt lat="42.96382" lon="-0.34984">
        <ele>1053</ele>
        <time>2022-06-08 11:37:11</time>
      </trkpt>
      <trkpt lat="42.96382" lon="-0.34981">
        <ele>1053</ele>
        <time>2022-06-08 11:37:12</time>
      </trkpt>
      <trkpt lat="42.96383" lon="-0.34977">
        <ele>1053.2</ele>
        <time>2022-06-08 11:37:13</time>
      </trkpt>
      <trkpt lat="42.96383" lon="-0.34974">
        <ele>1053.6</ele>
        <time>2022-06-08 11:37:14</time>
      </trkpt>
      <trkpt lat="42.96383" lon="-0.3497">
        <ele>1053.8</ele>
        <time>2022-06-08 11:37:15</time>
      </trkpt>
      <trkpt lat="42.96384" lon="-0.34967">
        <ele>1054.2</ele>
        <time>2022-06-08 11:37:16</time>
      </trkpt>
      <trkpt lat="42.96385" lon="-0.34963">
        <ele>1054.4</ele>
        <time>2022-06-08 11:37:17</time>
      </trkpt>
      <trkpt lat="42.96385" lon="-0.34959">
        <ele>1054.8</ele>
        <time>2022-06-08 11:37:18</time>
      </trkpt>
      <trkpt lat="42.96386" lon="-0.34955">
        <ele>1055</ele>
        <time>2022-06-08 11:37:19</time>
      </trkpt>
      <trkpt lat="42.96386" lon="-0.34952">
        <ele>1055.4</ele>
        <time>2022-06-08 11:37:20</time>
      </trkpt>
      <trkpt lat="42.96387" lon="-0.34948">
        <ele>1055.4</ele>
        <time>2022-06-08 11:37:21</time>
      </trkpt>
      <trkpt lat="42.96387" lon="-0.34944">
        <ele>1055.6</ele>
        <time>2022-06-08 11:37:22</time>
      </trkpt>
      <trkpt lat="42.96387" lon="-0.34941">
        <ele>1056</ele>
        <time>2022-06-08 11:37:23</time>
      </trkpt>
      <trkpt lat="42.96388" lon="-0.34937">
        <ele>1056.4</ele>
        <time>2022-06-08 11:37:24</time>
      </trkpt>
      <trkpt lat="42.96388" lon="-0.34934">
        <ele>1056.6</ele>
        <time>2022-06-08 11:37:25</time>
      </trkpt>
      <trkpt lat="42.96389" lon="-0.3493">
        <ele>1056.8</ele>
        <time>2022-06-08 11:37:26</time>
      </trkpt>
      <trkpt lat="42.9639" lon="-0.34926">
        <ele>1056.8</ele>
        <time>2022-06-08 11:37:27</time>
      </trkpt>
      <trkpt lat="42.96392" lon="-0.34923">
        <ele>1057.2</ele>
        <time>2022-06-08 11:37:28</time>
      </trkpt>
      <trkpt lat="42.96393" lon="-0.34919">
        <ele>1057.4</ele>
        <time>2022-06-08 11:37:29</time>
      </trkpt>
      <trkpt lat="42.96395" lon="-0.34916">
        <ele>1057.8</ele>
        <time>2022-06-08 11:37:30</time>
      </trkpt>
      <trkpt lat="42.96397" lon="-0.34913">
        <ele>1058</ele>
        <time>2022-06-08 11:37:31</time>
      </trkpt>
      <trkpt lat="42.96398" lon="-0.3491">
        <ele>1058.4</ele>
        <time>2022-06-08 11:37:32</time>
      </trkpt>
      <trkpt lat="42.964" lon="-0.34907">
        <ele>1058.8</ele>
        <time>2022-06-08 11:37:33</time>
      </trkpt>
      <trkpt lat="42.96402" lon="-0.34904">
        <ele>1059</ele>
        <time>2022-06-08 11:37:34</time>
      </trkpt>
      <trkpt lat="42.96404" lon="-0.34902">
        <ele>1059.4</ele>
        <time>2022-06-08 11:37:35</time>
      </trkpt>
      <trkpt lat="42.96407" lon="-0.34899">
        <ele>1059.6</ele>
        <time>2022-06-08 11:37:36</time>
      </trkpt>
      <trkpt lat="42.96409" lon="-0.34897">
        <ele>1060</ele>
        <time>2022-06-08 11:37:37</time>
      </trkpt>
      <trkpt lat="42.96411" lon="-0.34894">
        <ele>1060.2</ele>
        <time>2022-06-08 11:37:38</time>
      </trkpt>
      <trkpt lat="42.96413" lon="-0.34892">
        <ele>1060.4</ele>
        <time>2022-06-08 11:37:39</time>
      </trkpt>
      <trkpt lat="42.96415" lon="-0.34889">
        <ele>1060.4</ele>
        <time>2022-06-08 11:37:40</time>
      </trkpt>
      <trkpt lat="42.96417" lon="-0.34887">
        <ele>1061</ele>
        <time>2022-06-08 11:37:41</time>
      </trkpt>
      <trkpt lat="42.96418" lon="-0.34884">
        <ele>1061</ele>
        <time>2022-06-08 11:37:42</time>
      </trkpt>
      <trkpt lat="42.9642" lon="-0.34881">
        <ele>1061.4</ele>
        <time>2022-06-08 11:37:43</time>
      </trkpt>
      <trkpt lat="42.96421" lon="-0.34879">
        <ele>1061.6</ele>
        <time>2022-06-08 11:37:44</time>
      </trkpt>
      <trkpt lat="42.96422" lon="-0.34876">
        <ele>1062</ele>
        <time>2022-06-08 11:37:45</time>
      </trkpt>
      <trkpt lat="42.96423" lon="-0.34873">
        <ele>1062.2</ele>
        <time>2022-06-08 11:37:46</time>
      </trkpt>
      <trkpt lat="42.96424" lon="-0.3487">
        <ele>1062.2</ele>
        <time>2022-06-08 11:37:47</time>
      </trkpt>
      <trkpt lat="42.96425" lon="-0.34867">
        <ele>1062.6</ele>
        <time>2022-06-08 11:37:48</time>
      </trkpt>
      <trkpt lat="42.96426" lon="-0.34863">
        <ele>1062.6</ele>
        <time>2022-06-08 11:37:49</time>
      </trkpt>
      <trkpt lat="42.96426" lon="-0.3486">
        <ele>1063</ele>
        <time>2022-06-08 11:37:50</time>
      </trkpt>
      <trkpt lat="42.96426" lon="-0.34856">
        <ele>1063.2</ele>
        <time>2022-06-08 11:37:51</time>
      </trkpt>
      <trkpt lat="42.96426" lon="-0.34853">
        <ele>1063.6</ele>
        <time>2022-06-08 11:37:52</time>
      </trkpt>
      <trkpt lat="42.96426" lon="-0.34849">
        <ele>1063.8</ele>
        <time>2022-06-08 11:37:53</time>
      </trkpt>
      <trkpt lat="42.96426" lon="-0.34846">
        <ele>1064.4</ele>
        <time>2022-06-08 11:37:54</time>
      </trkpt>
      <trkpt lat="42.96426" lon="-0.34843">
        <ele>1064.8</ele>
        <time>2022-06-08 11:37:55</time>
      </trkpt>
      <trkpt lat="42.96426" lon="-0.34839">
        <ele>1065.2</ele>
        <time>2022-06-08 11:37:56</time>
      </trkpt>
      <trkpt lat="42.96427" lon="-0.34836">
        <ele>1065.2</ele>
        <time>2022-06-08 11:37:57</time>
      </trkpt>
      <trkpt lat="42.96427" lon="-0.34832">
        <ele>1065.6</ele>
        <time>2022-06-08 11:37:58</time>
      </trkpt>
      <trkpt lat="42.96427" lon="-0.34828">
        <ele>1065.8</ele>
        <time>2022-06-08 11:37:59</time>
      </trkpt>
      <trkpt lat="42.96426" lon="-0.34824">
        <ele>1066</ele>
        <time>2022-06-08 11:38:00</time>
      </trkpt>
      <trkpt lat="42.96426" lon="-0.3482">
        <ele>1066.4</ele>
        <time>2022-06-08 11:38:01</time>
      </trkpt>
      <trkpt lat="42.96425" lon="-0.34816">
        <ele>1066.6</ele>
        <time>2022-06-08 11:38:02</time>
      </trkpt>
      <trkpt lat="42.96425" lon="-0.34812">
        <ele>1067</ele>
        <time>2022-06-08 11:38:03</time>
      </trkpt>
      <trkpt lat="42.96424" lon="-0.34808">
        <ele>1067.2</ele>
        <time>2022-06-08 11:38:04</time>
      </trkpt>
      <trkpt lat="42.96423" lon="-0.34804">
        <ele>1067.6</ele>
        <time>2022-06-08 11:38:05</time>
      </trkpt>
      <trkpt lat="42.96422" lon="-0.34799">
        <ele>1067.8</ele>
        <time>2022-06-08 11:38:06</time>
      </trkpt>
      <trkpt lat="42.96421" lon="-0.34795">
        <ele>1068</ele>
        <time>2022-06-08 11:38:07</time>
      </trkpt>
      <trkpt lat="42.96419" lon="-0.34791">
        <ele>1068</ele>
        <time>2022-06-08 11:38:08</time>
      </trkpt>
      <trkpt lat="42.96418" lon="-0.34787">
        <ele>1068.2</ele>
        <time>2022-06-08 11:38:09</time>
      </trkpt>
      <trkpt lat="42.96416" lon="-0.34783">
        <ele>1068.4</ele>
        <time>2022-06-08 11:38:10</time>
      </trkpt>
      <trkpt lat="42.96414" lon="-0.34779">
        <ele>1068.8</ele>
        <time>2022-06-08 11:38:11</time>
      </trkpt>
      <trkpt lat="42.96412" lon="-0.34774">
        <ele>1068.8</ele>
        <time>2022-06-08 11:38:12</time>
      </trkpt>
      <trkpt lat="42.96409" lon="-0.34771">
        <ele>1069</ele>
        <time>2022-06-08 11:38:13</time>
      </trkpt>
      <trkpt lat="42.96407" lon="-0.34766">
        <ele>1069</ele>
        <time>2022-06-08 11:38:14</time>
      </trkpt>
      <trkpt lat="42.96405" lon="-0.34762">
        <ele>1069.2</ele>
        <time>2022-06-08 11:38:15</time>
      </trkpt>
      <trkpt lat="42.96404" lon="-0.34757">
        <ele>1069.2</ele>
        <time>2022-06-08 11:38:16</time>
      </trkpt>
      <trkpt lat="42.96403" lon="-0.34753">
        <ele>1069.4</ele>
        <time>2022-06-08 11:38:17</time>
      </trkpt>
      <trkpt lat="42.96402" lon="-0.34748">
        <ele>1069.6</ele>
        <time>2022-06-08 11:38:18</time>
      </trkpt>
      <trkpt lat="42.96402" lon="-0.34743">
        <ele>1069.6</ele>
        <time>2022-06-08 11:38:19</time>
      </trkpt>
      <trkpt lat="42.96401" lon="-0.34738">
        <ele>1069.8</ele>
        <time>2022-06-08 11:38:20</time>
      </trkpt>
      <trkpt lat="42.96401" lon="-0.34733">
        <ele>1069.8</ele>
        <time>2022-06-08 11:38:21</time>
      </trkpt>
      <trkpt lat="42.96402" lon="-0.34728">
        <ele>1070</ele>
        <time>2022-06-08 11:38:22</time>
      </trkpt>
      <trkpt lat="42.96402" lon="-0.34723">
        <ele>1070</ele>
        <time>2022-06-08 11:38:23</time>
      </trkpt>
      <trkpt lat="42.96402" lon="-0.34717">
        <ele>1070.4</ele>
        <time>2022-06-08 11:38:24</time>
      </trkpt>
      <trkpt lat="42.96403" lon="-0.34711">
        <ele>1070.4</ele>
        <time>2022-06-08 11:38:25</time>
      </trkpt>
      <trkpt lat="42.96403" lon="-0.34705">
        <ele>1070.6</ele>
        <time>2022-06-08 11:38:26</time>
      </trkpt>
      <trkpt lat="42.96403" lon="-0.34699">
        <ele>1070.6</ele>
        <time>2022-06-08 11:38:27</time>
      </trkpt>
      <trkpt lat="42.96403" lon="-0.34693">
        <ele>1070.8</ele>
        <time>2022-06-08 11:38:28</time>
      </trkpt>
      <trkpt lat="42.96403" lon="-0.34687">
        <ele>1070.8</ele>
        <time>2022-06-08 11:38:29</time>
      </trkpt>
      <trkpt lat="42.96403" lon="-0.34682">
        <ele>1071</ele>
        <time>2022-06-08 11:38:30</time>
      </trkpt>
      <trkpt lat="42.96404" lon="-0.34676">
        <ele>1071</ele>
        <time>2022-06-08 11:38:31</time>
      </trkpt>
      <trkpt lat="42.96404" lon="-0.3467">
        <ele>1071.4</ele>
        <time>2022-06-08 11:38:32</time>
      </trkpt>
      <trkpt lat="42.96403" lon="-0.34665">
        <ele>1071.4</ele>
        <time>2022-06-08 11:38:33</time>
      </trkpt>
      <trkpt lat="42.96403" lon="-0.34659">
        <ele>1071.4</ele>
        <time>2022-06-08 11:38:34</time>
      </trkpt>
      <trkpt lat="42.96404" lon="-0.34653">
        <ele>1071.6</ele>
        <time>2022-06-08 11:38:35</time>
      </trkpt>
      <trkpt lat="42.96404" lon="-0.34646">
        <ele>1071.6</ele>
        <time>2022-06-08 11:38:36</time>
      </trkpt>
      <trkpt lat="42.96404" lon="-0.3464">
        <ele>1071.8</ele>
        <time>2022-06-08 11:38:37</time>
      </trkpt>
      <trkpt lat="42.96402" lon="-0.34633">
        <ele>1071.8</ele>
        <time>2022-06-08 11:38:38</time>
      </trkpt>
      <trkpt lat="42.96399" lon="-0.34628">
        <ele>1072</ele>
        <time>2022-06-08 11:38:39</time>
      </trkpt>
      <trkpt lat="42.96395" lon="-0.34623">
        <ele>1072</ele>
        <time>2022-06-08 11:38:40</time>
      </trkpt>
      <trkpt lat="42.9639" lon="-0.34621">
        <ele>1072.2</ele>
        <time>2022-06-08 11:38:41</time>
      </trkpt>
      <trkpt lat="42.96384" lon="-0.3462">
        <ele>1072.2</ele>
        <time>2022-06-08 11:38:42</time>
      </trkpt>
      <trkpt lat="42.96379" lon="-0.34621">
        <ele>1072.2</ele>
        <time>2022-06-08 11:38:43</time>
      </trkpt>
      <trkpt lat="42.96376" lon="-0.34624">
        <ele>1072.4</ele>
        <time>2022-06-08 11:38:44</time>
      </trkpt>
      <trkpt lat="42.96373" lon="-0.34628">
        <ele>1072.4</ele>
        <time>2022-06-08 11:38:45</time>
      </trkpt>
      <trkpt lat="42.96371" lon="-0.34632">
        <ele>1072.4</ele>
        <time>2022-06-08 11:38:46</time>
      </trkpt>
      <trkpt lat="42.9637" lon="-0.34637">
        <ele>1072.6</ele>
        <time>2022-06-08 11:38:47</time>
      </trkpt>
      <trkpt lat="42.96369" lon="-0.34642">
        <ele>1072.6</ele>
        <time>2022-06-08 11:38:48</time>
      </trkpt>
      <trkpt lat="42.96368" lon="-0.34647">
        <ele>1073</ele>
        <time>2022-06-08 11:38:49</time>
      </trkpt>
      <trkpt lat="42.96368" lon="-0.34651">
        <ele>1073</ele>
        <time>2022-06-08 11:38:50</time>
      </trkpt>
      <trkpt lat="42.96367" lon="-0.34655">
        <ele>1073.2</ele>
        <time>2022-06-08 11:38:51</time>
      </trkpt>
      <trkpt lat="42.96367" lon="-0.34659">
        <ele>1073.6</ele>
        <time>2022-06-08 11:38:52</time>
      </trkpt>
      <trkpt lat="42.96366" lon="-0.34663">
        <ele>1073.8</ele>
        <time>2022-06-08 11:38:53</time>
      </trkpt>
      <trkpt lat="42.96366" lon="-0.34667">
        <ele>1074</ele>
        <time>2022-06-08 11:38:54</time>
      </trkpt>
      <trkpt lat="42.96365" lon="-0.34672">
        <ele>1074.2</ele>
        <time>2022-06-08 11:38:55</time>
      </trkpt>
      <trkpt lat="42.96365" lon="-0.34677">
        <ele>1074.6</ele>
        <time>2022-06-08 11:38:56</time>
      </trkpt>
      <trkpt lat="42.96365" lon="-0.34681">
        <ele>1074.8</ele>
        <time>2022-06-08 11:38:57</time>
      </trkpt>
      <trkpt lat="42.96365" lon="-0.34685">
        <ele>1075.2</ele>
        <time>2022-06-08 11:38:58</time>
      </trkpt>
      <trkpt lat="42.96364" lon="-0.34688">
        <ele>1075.4</ele>
        <time>2022-06-08 11:38:59</time>
      </trkpt>
      <trkpt lat="42.96363" lon="-0.34691">
        <ele>1075.6</ele>
        <time>2022-06-08 11:39:00</time>
      </trkpt>
      <trkpt lat="42.96361" lon="-0.34694">
        <ele>1075.8</ele>
        <time>2022-06-08 11:39:01</time>
      </trkpt>
      <trkpt lat="42.96357" lon="-0.34697">
        <ele>1076</ele>
        <time>2022-06-08 11:39:02</time>
      </trkpt>
      <trkpt lat="42.96355" lon="-0.34701">
        <ele>1076.4</ele>
        <time>2022-06-08 11:39:03</time>
      </trkpt>
      <trkpt lat="42.96352" lon="-0.34704">
        <ele>1076.8</ele>
        <time>2022-06-08 11:39:04</time>
      </trkpt>
      <trkpt lat="42.96349" lon="-0.34708">
        <ele>1077.2</ele>
        <time>2022-06-08 11:39:05</time>
      </trkpt>
      <trkpt lat="42.96347" lon="-0.34711">
        <ele>1077.4</ele>
        <time>2022-06-08 11:39:06</time>
      </trkpt>
      <trkpt lat="42.96345" lon="-0.34713">
        <ele>1077.4</ele>
        <time>2022-06-08 11:39:07</time>
      </trkpt>
      <trkpt lat="42.96342" lon="-0.34715">
        <ele>1077.8</ele>
        <time>2022-06-08 11:39:08</time>
      </trkpt>
      <trkpt lat="42.96339" lon="-0.34718">
        <ele>1078</ele>
        <time>2022-06-08 11:39:09</time>
      </trkpt>
      <trkpt lat="42.96335" lon="-0.3472">
        <ele>1078.2</ele>
        <time>2022-06-08 11:39:10</time>
      </trkpt>
      <trkpt lat="42.96333" lon="-0.34723">
        <ele>1078.6</ele>
        <time>2022-06-08 11:39:11</time>
      </trkpt>
      <trkpt lat="42.96332" lon="-0.34725">
        <ele>1078.6</ele>
        <time>2022-06-08 11:39:12</time>
      </trkpt>
      <trkpt lat="42.9633" lon="-0.34727">
        <ele>1079.2</ele>
        <time>2022-06-08 11:39:13</time>
      </trkpt>
      <trkpt lat="42.96327" lon="-0.34729">
        <ele>1079.4</ele>
        <time>2022-06-08 11:39:14</time>
      </trkpt>
      <trkpt lat="42.96324" lon="-0.34732">
        <ele>1079.6</ele>
        <time>2022-06-08 11:39:15</time>
      </trkpt>
      <trkpt lat="42.96321" lon="-0.34735">
        <ele>1079.8</ele>
        <time>2022-06-08 11:39:16</time>
      </trkpt>
      <trkpt lat="42.96317" lon="-0.34736">
        <ele>1080.2</ele>
        <time>2022-06-08 11:39:17</time>
      </trkpt>
      <trkpt lat="42.96314" lon="-0.34738">
        <ele>1080.4</ele>
        <time>2022-06-08 11:39:18</time>
      </trkpt>
      <trkpt lat="42.96312" lon="-0.34741">
        <ele>1080.8</ele>
        <time>2022-06-08 11:39:19</time>
      </trkpt>
      <trkpt lat="42.9631" lon="-0.34744">
        <ele>1080.8</ele>
        <time>2022-06-08 11:39:20</time>
      </trkpt>
      <trkpt lat="42.96308" lon="-0.34747">
        <ele>1081.2</ele>
        <time>2022-06-08 11:39:21</time>
      </trkpt>
      <trkpt lat="42.96305" lon="-0.3475">
        <ele>1081.4</ele>
        <time>2022-06-08 11:39:22</time>
      </trkpt>
      <trkpt lat="42.96302" lon="-0.34754">
        <ele>1081.8</ele>
        <time>2022-06-08 11:39:23</time>
      </trkpt>
      <trkpt lat="42.963" lon="-0.34757">
        <ele>1082</ele>
        <time>2022-06-08 11:39:24</time>
      </trkpt>
      <trkpt lat="42.96298" lon="-0.34759">
        <ele>1082.4</ele>
        <time>2022-06-08 11:39:25</time>
      </trkpt>
      <trkpt lat="42.96296" lon="-0.34761">
        <ele>1082.4</ele>
        <time>2022-06-08 11:39:26</time>
      </trkpt>
      <trkpt lat="42.96293" lon="-0.34763">
        <ele>1083</ele>
        <time>2022-06-08 11:39:27</time>
      </trkpt>
      <trkpt lat="42.96291" lon="-0.34764">
        <ele>1083.2</ele>
        <time>2022-06-08 11:39:28</time>
      </trkpt>
      <trkpt lat="42.96289" lon="-0.34764">
        <ele>1083.4</ele>
        <time>2022-06-08 11:39:29</time>
      </trkpt>
      <trkpt lat="42.96286" lon="-0.34767">
        <ele>1083.8</ele>
        <time>2022-06-08 11:39:30</time>
      </trkpt>
      <trkpt lat="42.96284" lon="-0.3477">
        <ele>1084</ele>
        <time>2022-06-08 11:39:31</time>
      </trkpt>
      <trkpt lat="42.96283" lon="-0.34772">
        <ele>1084.2</ele>
        <time>2022-06-08 11:39:32</time>
      </trkpt>
      <trkpt lat="42.96281" lon="-0.34773">
        <ele>1084.4</ele>
        <time>2022-06-08 11:39:33</time>
      </trkpt>
      <trkpt lat="42.96281" lon="-0.34775">
        <ele>1084.8</ele>
        <time>2022-06-08 11:39:34</time>
      </trkpt>
      <trkpt lat="42.96281" lon="-0.34776">
        <ele>1084.8</ele>
        <time>2022-06-08 11:39:35</time>
      </trkpt>
      <trkpt lat="42.96281" lon="-0.34776">
        <ele>1085.4</ele>
        <time>2022-06-08 11:39:36</time>
      </trkpt>
      <trkpt lat="42.9628" lon="-0.34779">
        <ele>1085.6</ele>
        <time>2022-06-08 11:39:37</time>
      </trkpt>
      <trkpt lat="42.9628" lon="-0.34782">
        <ele>1086</ele>
        <time>2022-06-08 11:39:38</time>
      </trkpt>
      <trkpt lat="42.96279" lon="-0.34785">
        <ele>1086</ele>
        <time>2022-06-08 11:39:39</time>
      </trkpt>
      <trkpt lat="42.96276" lon="-0.34789">
        <ele>1086.2</ele>
        <time>2022-06-08 11:39:40</time>
      </trkpt>
      <trkpt lat="42.96274" lon="-0.34793">
        <ele>1086.4</ele>
        <time>2022-06-08 11:39:41</time>
      </trkpt>
      <trkpt lat="42.96273" lon="-0.34796">
        <ele>1086.8</ele>
        <time>2022-06-08 11:39:42</time>
      </trkpt>
      <trkpt lat="42.96272" lon="-0.34799">
        <ele>1087</ele>
        <time>2022-06-08 11:39:43</time>
      </trkpt>
      <trkpt lat="42.96271" lon="-0.34801">
        <ele>1087.2</ele>
        <time>2022-06-08 11:39:44</time>
      </trkpt>
      <trkpt lat="42.9627" lon="-0.34804">
        <ele>1087.4</ele>
        <time>2022-06-08 11:39:45</time>
      </trkpt>
      <trkpt lat="42.96269" lon="-0.34808">
        <ele>1087.4</ele>
        <time>2022-06-08 11:39:46</time>
      </trkpt>
      <trkpt lat="42.96268" lon="-0.34811">
        <ele>1087.8</ele>
        <time>2022-06-08 11:39:47</time>
      </trkpt>
      <trkpt lat="42.96268" lon="-0.34813">
        <ele>1087.8</ele>
        <time>2022-06-08 11:39:48</time>
      </trkpt>
      <trkpt lat="42.96267" lon="-0.34816">
        <ele>1088</ele>
        <time>2022-06-08 11:39:49</time>
      </trkpt>
      <trkpt lat="42.96266" lon="-0.3482">
        <ele>1088.2</ele>
        <time>2022-06-08 11:39:50</time>
      </trkpt>
      <trkpt lat="42.96264" lon="-0.34825">
        <ele>1088.4</ele>
        <time>2022-06-08 11:39:51</time>
      </trkpt>
      <trkpt lat="42.96263" lon="-0.34829">
        <ele>1088.6</ele>
        <time>2022-06-08 11:39:52</time>
      </trkpt>
      <trkpt lat="42.96262" lon="-0.34833">
        <ele>1089</ele>
        <time>2022-06-08 11:39:53</time>
      </trkpt>
      <trkpt lat="42.96261" lon="-0.34837">
        <ele>1089.2</ele>
        <time>2022-06-08 11:39:54</time>
      </trkpt>
      <trkpt lat="42.96261" lon="-0.34841">
        <ele>1089.6</ele>
        <time>2022-06-08 11:39:55</time>
      </trkpt>
      <trkpt lat="42.9626" lon="-0.34844">
        <ele>1089.6</ele>
        <time>2022-06-08 11:39:56</time>
      </trkpt>
      <trkpt lat="42.9626" lon="-0.34847">
        <ele>1089.8</ele>
        <time>2022-06-08 11:39:57</time>
      </trkpt>
      <trkpt lat="42.96259" lon="-0.34851">
        <ele>1089.8</ele>
        <time>2022-06-08 11:39:58</time>
      </trkpt>
      <trkpt lat="42.96258" lon="-0.34856">
        <ele>1090</ele>
        <time>2022-06-08 11:39:59</time>
      </trkpt>
      <trkpt lat="42.96258" lon="-0.34862">
        <ele>1090.2</ele>
        <time>2022-06-08 11:40:00</time>
      </trkpt>
      <trkpt lat="42.96257" lon="-0.34867">
        <ele>1090.6</ele>
        <time>2022-06-08 11:40:01</time>
      </trkpt>
      <trkpt lat="42.96255" lon="-0.34872">
        <ele>1090.8</ele>
        <time>2022-06-08 11:40:02</time>
      </trkpt>
      <trkpt lat="42.96252" lon="-0.34877">
        <ele>1091</ele>
        <time>2022-06-08 11:40:03</time>
      </trkpt>
      <trkpt lat="42.9625" lon="-0.34882">
        <ele>1091.4</ele>
        <time>2022-06-08 11:40:04</time>
      </trkpt>
      <trkpt lat="42.96246" lon="-0.34888">
        <ele>1091.6</ele>
        <time>2022-06-08 11:40:05</time>
      </trkpt>
      <trkpt lat="42.96243" lon="-0.34894">
        <ele>1091.8</ele>
        <time>2022-06-08 11:40:06</time>
      </trkpt>
      <trkpt lat="42.9624" lon="-0.34899">
        <ele>1092</ele>
        <time>2022-06-08 11:40:07</time>
      </trkpt>
      <trkpt lat="42.9624" lon="-0.34903">
        <ele>1092.2</ele>
        <time>2022-06-08 11:40:08</time>
      </trkpt>
      <trkpt lat="42.9624" lon="-0.34908">
        <ele>1092.4</ele>
        <time>2022-06-08 11:40:09</time>
      </trkpt>
      <trkpt lat="42.9624" lon="-0.34909">
        <ele>1092.8</ele>
        <time>2022-06-08 11:40:10</time>
      </trkpt>
      <trkpt lat="42.9624" lon="-0.34909">
        <ele>1093</ele>
        <time>2022-06-08 11:40:11</time>
      </trkpt>
      <trkpt lat="42.9624" lon="-0.34913">
        <ele>1093.2</ele>
        <time>2022-06-08 11:40:12</time>
      </trkpt>
      <trkpt lat="42.96241" lon="-0.34916">
        <ele>1093.4</ele>
        <time>2022-06-08 11:40:13</time>
      </trkpt>
      <trkpt lat="42.96241" lon="-0.3492">
        <ele>1093.6</ele>
        <time>2022-06-08 11:40:14</time>
      </trkpt>
      <trkpt lat="42.9624" lon="-0.34924">
        <ele>1093.8</ele>
        <time>2022-06-08 11:40:15</time>
      </trkpt>
      <trkpt lat="42.9624" lon="-0.34929">
        <ele>1094</ele>
        <time>2022-06-08 11:40:16</time>
      </trkpt>
      <trkpt lat="42.9624" lon="-0.34934">
        <ele>1094.2</ele>
        <time>2022-06-08 11:40:17</time>
      </trkpt>
      <trkpt lat="42.9624" lon="-0.34938">
        <ele>1094.2</ele>
        <time>2022-06-08 11:40:18</time>
      </trkpt>
      <trkpt lat="42.9624" lon="-0.34943">
        <ele>1094.2</ele>
        <time>2022-06-08 11:40:19</time>
      </trkpt>
      <trkpt lat="42.96239" lon="-0.34947">
        <ele>1094.6</ele>
        <time>2022-06-08 11:40:20</time>
      </trkpt>
      <trkpt lat="42.96237" lon="-0.3495">
        <ele>1094.6</ele>
        <time>2022-06-08 11:40:21</time>
      </trkpt>
      <trkpt lat="42.96234" lon="-0.34952">
        <ele>1095</ele>
        <time>2022-06-08 11:40:22</time>
      </trkpt>
      <trkpt lat="42.96232" lon="-0.34953">
        <ele>1095.4</ele>
        <time>2022-06-08 11:40:23</time>
      </trkpt>
      <trkpt lat="42.9623" lon="-0.34952">
        <ele>1095.6</ele>
        <time>2022-06-08 11:40:24</time>
      </trkpt>
      <trkpt lat="42.96228" lon="-0.3495">
        <ele>1095.8</ele>
        <time>2022-06-08 11:40:25</time>
      </trkpt>
      <trkpt lat="42.96227" lon="-0.34948">
        <ele>1096</ele>
        <time>2022-06-08 11:40:26</time>
      </trkpt>
      <trkpt lat="42.96225" lon="-0.34944">
        <ele>1096.2</ele>
        <time>2022-06-08 11:40:27</time>
      </trkpt>
      <trkpt lat="42.96224" lon="-0.34941">
        <ele>1096.4</ele>
        <time>2022-06-08 11:40:28</time>
      </trkpt>
      <trkpt lat="42.96224" lon="-0.34938">
        <ele>1096.8</ele>
        <time>2022-06-08 11:40:29</time>
      </trkpt>
      <trkpt lat="42.96224" lon="-0.34933">
        <ele>1097</ele>
        <time>2022-06-08 11:40:30</time>
      </trkpt>
      <trkpt lat="42.96224" lon="-0.34929">
        <ele>1097</ele>
        <time>2022-06-08 11:40:31</time>
      </trkpt>
      <trkpt lat="42.96225" lon="-0.34925">
        <ele>1097</ele>
        <time>2022-06-08 11:40:32</time>
      </trkpt>
      <trkpt lat="42.96226" lon="-0.34921">
        <ele>1097.2</ele>
        <time>2022-06-08 11:40:33</time>
      </trkpt>
      <trkpt lat="42.96227" lon="-0.34916">
        <ele>1097.4</ele>
        <time>2022-06-08 11:40:34</time>
      </trkpt>
      <trkpt lat="42.96228" lon="-0.34912">
        <ele>1097.6</ele>
        <time>2022-06-08 11:40:35</time>
      </trkpt>
      <trkpt lat="42.96228" lon="-0.34908">
        <ele>1098</ele>
        <time>2022-06-08 11:40:36</time>
      </trkpt>
      <trkpt lat="42.96227" lon="-0.34905">
        <ele>1098.2</ele>
        <time>2022-06-08 11:40:37</time>
      </trkpt>
      <trkpt lat="42.96225" lon="-0.34902">
        <ele>1098.2</ele>
        <time>2022-06-08 11:40:38</time>
      </trkpt>
      <trkpt lat="42.96226" lon="-0.34898">
        <ele>1098.2</ele>
        <time>2022-06-08 11:40:39</time>
      </trkpt>
      <trkpt lat="42.96227" lon="-0.34894">
        <ele>1098.4</ele>
        <time>2022-06-08 11:40:40</time>
      </trkpt>
      <trkpt lat="42.96228" lon="-0.34891">
        <ele>1098.8</ele>
        <time>2022-06-08 11:40:41</time>
      </trkpt>
      <trkpt lat="42.96228" lon="-0.34888">
        <ele>1099.2</ele>
        <time>2022-06-08 11:40:42</time>
      </trkpt>
      <trkpt lat="42.96228" lon="-0.34884">
        <ele>1099.4</ele>
        <time>2022-06-08 11:40:43</time>
      </trkpt>
      <trkpt lat="42.96229" lon="-0.34879">
        <ele>1099.6</ele>
        <time>2022-06-08 11:40:44</time>
      </trkpt>
      <trkpt lat="42.96229" lon="-0.34876">
        <ele>1099.8</ele>
        <time>2022-06-08 11:40:45</time>
      </trkpt>
      <trkpt lat="42.9623" lon="-0.34873">
        <ele>1100.2</ele>
        <time>2022-06-08 11:40:46</time>
      </trkpt>
      <trkpt lat="42.96233" lon="-0.3487">
        <ele>1100.4</ele>
        <time>2022-06-08 11:40:47</time>
      </trkpt>
      <trkpt lat="42.96234" lon="-0.34867">
        <ele>1100.8</ele>
        <time>2022-06-08 11:40:48</time>
      </trkpt>
      <trkpt lat="42.96234" lon="-0.34864">
        <ele>1100.8</ele>
        <time>2022-06-08 11:40:49</time>
      </trkpt>
      <trkpt lat="42.96234" lon="-0.3486">
        <ele>1101.2</ele>
        <time>2022-06-08 11:40:50</time>
      </trkpt>
      <trkpt lat="42.96234" lon="-0.34857">
        <ele>1101.4</ele>
        <time>2022-06-08 11:40:51</time>
      </trkpt>
      <trkpt lat="42.96233" lon="-0.34854">
        <ele>1101.8</ele>
        <time>2022-06-08 11:40:52</time>
      </trkpt>
      <trkpt lat="42.96233" lon="-0.34851">
        <ele>1102</ele>
        <time>2022-06-08 11:40:53</time>
      </trkpt>
      <trkpt lat="42.96235" lon="-0.34846">
        <ele>1102.2</ele>
        <time>2022-06-08 11:40:54</time>
      </trkpt>
      <trkpt lat="42.96235" lon="-0.34842">
        <ele>1102.6</ele>
        <time>2022-06-08 11:40:55</time>
      </trkpt>
      <trkpt lat="42.96234" lon="-0.34838">
        <ele>1102.8</ele>
        <time>2022-06-08 11:40:56</time>
      </trkpt>
      <trkpt lat="42.96233" lon="-0.34834">
        <ele>1103</ele>
        <time>2022-06-08 11:40:57</time>
      </trkpt>
      <trkpt lat="42.96231" lon="-0.3483">
        <ele>1103.2</ele>
        <time>2022-06-08 11:40:58</time>
      </trkpt>
      <trkpt lat="42.96231" lon="-0.34826">
        <ele>1103.8</ele>
        <time>2022-06-08 11:40:59</time>
      </trkpt>
      <trkpt lat="42.96234" lon="-0.34822">
        <ele>1104</ele>
        <time>2022-06-08 11:41:00</time>
      </trkpt>
      <trkpt lat="42.96238" lon="-0.34817">
        <ele>1104.2</ele>
        <time>2022-06-08 11:41:01</time>
      </trkpt>
      <trkpt lat="42.96239" lon="-0.34813">
        <ele>1104.4</ele>
        <time>2022-06-08 11:41:02</time>
      </trkpt>
      <trkpt lat="42.96238" lon="-0.34809">
        <ele>1104.8</ele>
        <time>2022-06-08 11:41:03</time>
      </trkpt>
      <trkpt lat="42.96239" lon="-0.34806">
        <ele>1104.8</ele>
        <time>2022-06-08 11:41:04</time>
      </trkpt>
      <trkpt lat="42.9624" lon="-0.34803">
        <ele>1105.2</ele>
        <time>2022-06-08 11:41:05</time>
      </trkpt>
      <trkpt lat="42.96241" lon="-0.34801">
        <ele>1105.4</ele>
        <time>2022-06-08 11:41:06</time>
      </trkpt>
      <trkpt lat="42.96241" lon="-0.34798">
        <ele>1105.8</ele>
        <time>2022-06-08 11:41:07</time>
      </trkpt>
      <trkpt lat="42.96242" lon="-0.34795">
        <ele>1106</ele>
        <time>2022-06-08 11:41:08</time>
      </trkpt>
      <trkpt lat="42.96244" lon="-0.34792">
        <ele>1106.2</ele>
        <time>2022-06-08 11:41:09</time>
      </trkpt>
      <trkpt lat="42.96243" lon="-0.34787">
        <ele>1106.6</ele>
        <time>2022-06-08 11:41:10</time>
      </trkpt>
      <trkpt lat="42.96243" lon="-0.34784">
        <ele>1106.8</ele>
        <time>2022-06-08 11:41:11</time>
      </trkpt>
      <trkpt lat="42.96243" lon="-0.3478">
        <ele>1107</ele>
        <time>2022-06-08 11:41:12</time>
      </trkpt>
      <trkpt lat="42.96245" lon="-0.34776">
        <ele>1107</ele>
        <time>2022-06-08 11:41:13</time>
      </trkpt>
      <trkpt lat="42.96246" lon="-0.34773">
        <ele>1107.4</ele>
        <time>2022-06-08 11:41:14</time>
      </trkpt>
      <trkpt lat="42.96247" lon="-0.3477">
        <ele>1107.8</ele>
        <time>2022-06-08 11:41:15</time>
      </trkpt>
      <trkpt lat="42.96249" lon="-0.34766">
        <ele>1108</ele>
        <time>2022-06-08 11:41:16</time>
      </trkpt>
      <trkpt lat="42.9625" lon="-0.34763">
        <ele>1108.2</ele>
        <time>2022-06-08 11:41:17</time>
      </trkpt>
      <trkpt lat="42.96251" lon="-0.34759">
        <ele>1108.8</ele>
        <time>2022-06-08 11:41:18</time>
      </trkpt>
      <trkpt lat="42.96253" lon="-0.34756">
        <ele>1108.8</ele>
        <time>2022-06-08 11:41:19</time>
      </trkpt>
      <trkpt lat="42.96254" lon="-0.34752">
        <ele>1109.2</ele>
        <time>2022-06-08 11:41:20</time>
      </trkpt>
      <trkpt lat="42.96256" lon="-0.34748">
        <ele>1109.4</ele>
        <time>2022-06-08 11:41:21</time>
      </trkpt>
      <trkpt lat="42.96257" lon="-0.34745">
        <ele>1109.8</ele>
        <time>2022-06-08 11:41:22</time>
      </trkpt>
      <trkpt lat="42.96257" lon="-0.34742">
        <ele>1110</ele>
        <time>2022-06-08 11:41:23</time>
      </trkpt>
      <trkpt lat="42.96257" lon="-0.34738">
        <ele>1110.2</ele>
        <time>2022-06-08 11:41:24</time>
      </trkpt>
      <trkpt lat="42.96258" lon="-0.34734">
        <ele>1110.6</ele>
        <time>2022-06-08 11:41:25</time>
      </trkpt>
      <trkpt lat="42.96259" lon="-0.34731">
        <ele>1110.8</ele>
        <time>2022-06-08 11:41:26</time>
      </trkpt>
      <trkpt lat="42.96258" lon="-0.34728">
        <ele>1111.2</ele>
        <time>2022-06-08 11:41:27</time>
      </trkpt>
      <trkpt lat="42.96256" lon="-0.34725">
        <ele>1111.4</ele>
        <time>2022-06-08 11:41:28</time>
      </trkpt>
      <trkpt lat="42.96256" lon="-0.34721">
        <ele>1111.6</ele>
        <time>2022-06-08 11:41:29</time>
      </trkpt>
      <trkpt lat="42.96258" lon="-0.34717">
        <ele>1111.4</ele>
        <time>2022-06-08 11:41:30</time>
      </trkpt>
      <trkpt lat="42.96259" lon="-0.34715">
        <ele>1111.8</ele>
        <time>2022-06-08 11:41:31</time>
      </trkpt>
      <trkpt lat="42.96259" lon="-0.34713">
        <ele>1112</ele>
        <time>2022-06-08 11:41:32</time>
      </trkpt>
      <trkpt lat="42.9626" lon="-0.34711">
        <ele>1112.6</ele>
        <time>2022-06-08 11:41:33</time>
      </trkpt>
      <trkpt lat="42.96261" lon="-0.34707">
        <ele>1112.8</ele>
        <time>2022-06-08 11:41:34</time>
      </trkpt>
      <trkpt lat="42.96261" lon="-0.34702">
        <ele>1113</ele>
        <time>2022-06-08 11:41:35</time>
      </trkpt>
      <trkpt lat="42.96261" lon="-0.34699">
        <ele>1113.2</ele>
        <time>2022-06-08 11:41:36</time>
      </trkpt>
      <trkpt lat="42.96262" lon="-0.34696">
        <ele>1113.6</ele>
        <time>2022-06-08 11:41:37</time>
      </trkpt>
      <trkpt lat="42.96263" lon="-0.34691">
        <ele>1113.8</ele>
        <time>2022-06-08 11:41:38</time>
      </trkpt>
      <trkpt lat="42.96259" lon="-0.34685">
        <ele>1114</ele>
        <time>2022-06-08 11:41:39</time>
      </trkpt>
      <trkpt lat="42.96258" lon="-0.3468">
        <ele>1114.4</ele>
        <time>2022-06-08 11:41:40</time>
      </trkpt>
      <trkpt lat="42.96263" lon="-0.34673">
        <ele>1114.8</ele>
        <time>2022-06-08 11:41:41</time>
      </trkpt>
      <trkpt lat="42.96262" lon="-0.34671">
        <ele>1115</ele>
        <time>2022-06-08 11:41:42</time>
      </trkpt>
      <trkpt lat="42.9626" lon="-0.34668">
        <ele>1115</ele>
        <time>2022-06-08 11:41:43</time>
      </trkpt>
      <trkpt lat="42.96257" lon="-0.34666">
        <ele>1115.4</ele>
        <time>2022-06-08 11:41:44</time>
      </trkpt>
      <trkpt lat="42.96257" lon="-0.34664">
        <ele>1115.6</ele>
        <time>2022-06-08 11:41:45</time>
      </trkpt>
      <trkpt lat="42.96256" lon="-0.3466">
        <ele>1116</ele>
        <time>2022-06-08 11:41:46</time>
      </trkpt>
      <trkpt lat="42.96256" lon="-0.34654">
        <ele>1116</ele>
        <time>2022-06-08 11:41:47</time>
      </trkpt>
      <trkpt lat="42.96256" lon="-0.3465">
        <ele>1116.4</ele>
        <time>2022-06-08 11:41:48</time>
      </trkpt>
      <trkpt lat="42.96258" lon="-0.34646">
        <ele>1116.6</ele>
        <time>2022-06-08 11:41:49</time>
      </trkpt>
      <trkpt lat="42.96256" lon="-0.34643">
        <ele>1117</ele>
        <time>2022-06-08 11:41:50</time>
      </trkpt>
      <trkpt lat="42.96255" lon="-0.3464">
        <ele>1117.2</ele>
        <time>2022-06-08 11:41:51</time>
      </trkpt>
      <trkpt lat="42.96255" lon="-0.34638">
        <ele>1117.6</ele>
        <time>2022-06-08 11:41:52</time>
      </trkpt>
      <trkpt lat="42.96255" lon="-0.34635">
        <ele>1117.6</ele>
        <time>2022-06-08 11:41:53</time>
      </trkpt>
      <trkpt lat="42.96256" lon="-0.34632">
        <ele>1117.8</ele>
        <time>2022-06-08 11:41:54</time>
      </trkpt>
      <trkpt lat="42.96256" lon="-0.34629">
        <ele>1118</ele>
        <time>2022-06-08 11:41:55</time>
      </trkpt>
      <trkpt lat="42.96254" lon="-0.34627">
        <ele>1118.4</ele>
        <time>2022-06-08 11:41:56</time>
      </trkpt>
      <trkpt lat="42.96256" lon="-0.34623">
        <ele>1118.6</ele>
        <time>2022-06-08 11:41:57</time>
      </trkpt>
      <trkpt lat="42.96256" lon="-0.3462">
        <ele>1118.8</ele>
        <time>2022-06-08 11:41:58</time>
      </trkpt>
      <trkpt lat="42.96256" lon="-0.34617">
        <ele>1119.2</ele>
        <time>2022-06-08 11:41:59</time>
      </trkpt>
      <trkpt lat="42.96256" lon="-0.34613">
        <ele>1119.4</ele>
        <time>2022-06-08 11:42:00</time>
      </trkpt>
      <trkpt lat="42.96255" lon="-0.3461">
        <ele>1119.6</ele>
        <time>2022-06-08 11:42:01</time>
      </trkpt>
      <trkpt lat="42.96254" lon="-0.34607">
        <ele>1119.8</ele>
        <time>2022-06-08 11:42:02</time>
      </trkpt>
      <trkpt lat="42.96255" lon="-0.34604">
        <ele>1120</ele>
        <time>2022-06-08 11:42:03</time>
      </trkpt>
      <trkpt lat="42.96255" lon="-0.34601">
        <ele>1120.2</ele>
        <time>2022-06-08 11:42:04</time>
      </trkpt>
      <trkpt lat="42.96254" lon="-0.34597">
        <ele>1120.6</ele>
        <time>2022-06-08 11:42:05</time>
      </trkpt>
      <trkpt lat="42.96255" lon="-0.34594">
        <ele>1120.8</ele>
        <time>2022-06-08 11:42:06</time>
      </trkpt>
      <trkpt lat="42.96255" lon="-0.34591">
        <ele>1121.2</ele>
        <time>2022-06-08 11:42:07</time>
      </trkpt>
      <trkpt lat="42.96256" lon="-0.34588">
        <ele>1121.2</ele>
        <time>2022-06-08 11:42:08</time>
      </trkpt>
      <trkpt lat="42.96258" lon="-0.34585">
        <ele>1121.6</ele>
        <time>2022-06-08 11:42:09</time>
      </trkpt>
      <trkpt lat="42.96258" lon="-0.34582">
        <ele>1121.6</ele>
        <time>2022-06-08 11:42:10</time>
      </trkpt>
      <trkpt lat="42.96259" lon="-0.34579">
        <ele>1121.8</ele>
        <time>2022-06-08 11:42:11</time>
      </trkpt>
      <trkpt lat="42.96259" lon="-0.34577">
        <ele>1122.2</ele>
        <time>2022-06-08 11:42:12</time>
      </trkpt>
      <trkpt lat="42.96259" lon="-0.34575">
        <ele>1122.4</ele>
        <time>2022-06-08 11:42:13</time>
      </trkpt>
      <trkpt lat="42.96259" lon="-0.34572">
        <ele>1122.6</ele>
        <time>2022-06-08 11:42:14</time>
      </trkpt>
      <trkpt lat="42.9626" lon="-0.34569">
        <ele>1122.8</ele>
        <time>2022-06-08 11:42:15</time>
      </trkpt>
      <trkpt lat="42.96262" lon="-0.34567">
        <ele>1123</ele>
        <time>2022-06-08 11:42:16</time>
      </trkpt>
      <trkpt lat="42.96264" lon="-0.34565">
        <ele>1123.2</ele>
        <time>2022-06-08 11:42:17</time>
      </trkpt>
      <trkpt lat="42.96266" lon="-0.34563">
        <ele>1123.4</ele>
        <time>2022-06-08 11:42:18</time>
      </trkpt>
      <trkpt lat="42.96268" lon="-0.34562">
        <ele>1123.6</ele>
        <time>2022-06-08 11:42:19</time>
      </trkpt>
      <trkpt lat="42.9627" lon="-0.34561">
        <ele>1124</ele>
        <time>2022-06-08 11:42:20</time>
      </trkpt>
      <trkpt lat="42.96273" lon="-0.3456">
        <ele>1124</ele>
        <time>2022-06-08 11:42:21</time>
      </trkpt>
      <trkpt lat="42.96275" lon="-0.3456">
        <ele>1124</ele>
        <time>2022-06-08 11:42:22</time>
      </trkpt>
      <trkpt lat="42.96277" lon="-0.3456">
        <ele>1124.4</ele>
        <time>2022-06-08 11:42:23</time>
      </trkpt>
      <trkpt lat="42.96279" lon="-0.34561">
        <ele>1124.6</ele>
        <time>2022-06-08 11:42:24</time>
      </trkpt>
      <trkpt lat="42.96281" lon="-0.34562">
        <ele>1124.8</ele>
        <time>2022-06-08 11:42:25</time>
      </trkpt>
      <trkpt lat="42.96283" lon="-0.34563">
        <ele>1125.2</ele>
        <time>2022-06-08 11:42:26</time>
      </trkpt>
      <trkpt lat="42.96285" lon="-0.34564">
        <ele>1125.2</ele>
        <time>2022-06-08 11:42:27</time>
      </trkpt>
      <trkpt lat="42.96287" lon="-0.34564">
        <ele>1125.4</ele>
        <time>2022-06-08 11:42:28</time>
      </trkpt>
      <trkpt lat="42.9629" lon="-0.34563">
        <ele>1125.6</ele>
        <time>2022-06-08 11:42:29</time>
      </trkpt>
      <trkpt lat="42.96292" lon="-0.34561">
        <ele>1125.8</ele>
        <time>2022-06-08 11:42:30</time>
      </trkpt>
      <trkpt lat="42.96294" lon="-0.34559">
        <ele>1126.2</ele>
        <time>2022-06-08 11:42:31</time>
      </trkpt>
      <trkpt lat="42.96296" lon="-0.34556">
        <ele>1126.4</ele>
        <time>2022-06-08 11:42:32</time>
      </trkpt>
      <trkpt lat="42.96298" lon="-0.34553">
        <ele>1126.6</ele>
        <time>2022-06-08 11:42:33</time>
      </trkpt>
      <trkpt lat="42.96299" lon="-0.3455">
        <ele>1126.6</ele>
        <time>2022-06-08 11:42:34</time>
      </trkpt>
      <trkpt lat="42.963" lon="-0.34546">
        <ele>1127</ele>
        <time>2022-06-08 11:42:35</time>
      </trkpt>
      <trkpt lat="42.96301" lon="-0.34542">
        <ele>1127</ele>
        <time>2022-06-08 11:42:36</time>
      </trkpt>
      <trkpt lat="42.96301" lon="-0.34539">
        <ele>1127.6</ele>
        <time>2022-06-08 11:42:37</time>
      </trkpt>
      <trkpt lat="42.96302" lon="-0.34535">
        <ele>1127.6</ele>
        <time>2022-06-08 11:42:38</time>
      </trkpt>
      <trkpt lat="42.96302" lon="-0.34531">
        <ele>1128</ele>
        <time>2022-06-08 11:42:39</time>
      </trkpt>
      <trkpt lat="42.96302" lon="-0.34527">
        <ele>1128.2</ele>
        <time>2022-06-08 11:42:40</time>
      </trkpt>
      <trkpt lat="42.96302" lon="-0.34523">
        <ele>1128.4</ele>
        <time>2022-06-08 11:42:41</time>
      </trkpt>
      <trkpt lat="42.96302" lon="-0.34521">
        <ele>1128.6</ele>
        <time>2022-06-08 11:42:42</time>
      </trkpt>
      <trkpt lat="42.96303" lon="-0.34519">
        <ele>1128.8</ele>
        <time>2022-06-08 11:42:43</time>
      </trkpt>
      <trkpt lat="42.96303" lon="-0.34516">
        <ele>1129</ele>
        <time>2022-06-08 11:42:44</time>
      </trkpt>
      <trkpt lat="42.96303" lon="-0.34512">
        <ele>1129.4</ele>
        <time>2022-06-08 11:42:45</time>
      </trkpt>
      <trkpt lat="42.96306" lon="-0.34505">
        <ele>1129.6</ele>
        <time>2022-06-08 11:42:46</time>
      </trkpt>
      <trkpt lat="42.96307" lon="-0.34501">
        <ele>1129.8</ele>
        <time>2022-06-08 11:42:47</time>
      </trkpt>
      <trkpt lat="42.96307" lon="-0.34497">
        <ele>1130.2</ele>
        <time>2022-06-08 11:42:48</time>
      </trkpt>
      <trkpt lat="42.96308" lon="-0.34493">
        <ele>1130.4</ele>
        <time>2022-06-08 11:42:49</time>
      </trkpt>
      <trkpt lat="42.96308" lon="-0.34487">
        <ele>1130.8</ele>
        <time>2022-06-08 11:42:50</time>
      </trkpt>
      <trkpt lat="42.96309" lon="-0.34482">
        <ele>1131</ele>
        <time>2022-06-08 11:42:51</time>
      </trkpt>
      <trkpt lat="42.96309" lon="-0.3448">
        <ele>1131.4</ele>
        <time>2022-06-08 11:42:52</time>
      </trkpt>
      <trkpt lat="42.9631" lon="-0.34477">
        <ele>1131.6</ele>
        <time>2022-06-08 11:42:53</time>
      </trkpt>
      <trkpt lat="42.96312" lon="-0.34473">
        <ele>1132.2</ele>
        <time>2022-06-08 11:42:54</time>
      </trkpt>
      <trkpt lat="42.9631" lon="-0.34469">
        <ele>1132.4</ele>
        <time>2022-06-08 11:42:55</time>
      </trkpt>
      <trkpt lat="42.96311" lon="-0.34467">
        <ele>1132.8</ele>
        <time>2022-06-08 11:42:56</time>
      </trkpt>
      <trkpt lat="42.96311" lon="-0.34463">
        <ele>1132.8</ele>
        <time>2022-06-08 11:42:57</time>
      </trkpt>
      <trkpt lat="42.96311" lon="-0.3446">
        <ele>1133</ele>
        <time>2022-06-08 11:42:58</time>
      </trkpt>
      <trkpt lat="42.96309" lon="-0.34457">
        <ele>1133.2</ele>
        <time>2022-06-08 11:42:59</time>
      </trkpt>
      <trkpt lat="42.96308" lon="-0.34453">
        <ele>1133.6</ele>
        <time>2022-06-08 11:43:00</time>
      </trkpt>
      <trkpt lat="42.96308" lon="-0.34449">
        <ele>1133.8</ele>
        <time>2022-06-08 11:43:01</time>
      </trkpt>
      <trkpt lat="42.96307" lon="-0.34446">
        <ele>1134.2</ele>
        <time>2022-06-08 11:43:02</time>
      </trkpt>
      <trkpt lat="42.96307" lon="-0.34443">
        <ele>1134.4</ele>
        <time>2022-06-08 11:43:03</time>
      </trkpt>
      <trkpt lat="42.96307" lon="-0.34439">
        <ele>1134.8</ele>
        <time>2022-06-08 11:43:04</time>
      </trkpt>
      <trkpt lat="42.96307" lon="-0.34436">
        <ele>1134.8</ele>
        <time>2022-06-08 11:43:05</time>
      </trkpt>
      <trkpt lat="42.96307" lon="-0.34433">
        <ele>1135</ele>
        <time>2022-06-08 11:43:06</time>
      </trkpt>
      <trkpt lat="42.96307" lon="-0.34429">
        <ele>1135.4</ele>
        <time>2022-06-08 11:43:07</time>
      </trkpt>
      <trkpt lat="42.96308" lon="-0.34427">
        <ele>1135.6</ele>
        <time>2022-06-08 11:43:08</time>
      </trkpt>
      <trkpt lat="42.96308" lon="-0.34423">
        <ele>1135.6</ele>
        <time>2022-06-08 11:43:09</time>
      </trkpt>
      <trkpt lat="42.96309" lon="-0.3442">
        <ele>1135.8</ele>
        <time>2022-06-08 11:43:10</time>
      </trkpt>
      <trkpt lat="42.9631" lon="-0.34417">
        <ele>1136.2</ele>
        <time>2022-06-08 11:43:11</time>
      </trkpt>
      <trkpt lat="42.96311" lon="-0.34413">
        <ele>1136.2</ele>
        <time>2022-06-08 11:43:12</time>
      </trkpt>
      <trkpt lat="42.96312" lon="-0.3441">
        <ele>1136.8</ele>
        <time>2022-06-08 11:43:13</time>
      </trkpt>
      <trkpt lat="42.96312" lon="-0.34406">
        <ele>1137</ele>
        <time>2022-06-08 11:43:14</time>
      </trkpt>
      <trkpt lat="42.96313" lon="-0.34403">
        <ele>1137.4</ele>
        <time>2022-06-08 11:43:15</time>
      </trkpt>
      <trkpt lat="42.96314" lon="-0.34399">
        <ele>1137.6</ele>
        <time>2022-06-08 11:43:16</time>
      </trkpt>
      <trkpt lat="42.96315" lon="-0.34396">
        <ele>1137.8</ele>
        <time>2022-06-08 11:43:17</time>
      </trkpt>
      <trkpt lat="42.96316" lon="-0.34393">
        <ele>1138</ele>
        <time>2022-06-08 11:43:18</time>
      </trkpt>
      <trkpt lat="42.96318" lon="-0.3439">
        <ele>1138.2</ele>
        <time>2022-06-08 11:43:19</time>
      </trkpt>
      <trkpt lat="42.96319" lon="-0.34387">
        <ele>1138.4</ele>
        <time>2022-06-08 11:43:20</time>
      </trkpt>
      <trkpt lat="42.9632" lon="-0.34383">
        <ele>1138.6</ele>
        <time>2022-06-08 11:43:21</time>
      </trkpt>
      <trkpt lat="42.9632" lon="-0.34379">
        <ele>1139</ele>
        <time>2022-06-08 11:43:22</time>
      </trkpt>
      <trkpt lat="42.96321" lon="-0.34376">
        <ele>1139</ele>
        <time>2022-06-08 11:43:23</time>
      </trkpt>
      <trkpt lat="42.96321" lon="-0.34372">
        <ele>1139.4</ele>
        <time>2022-06-08 11:43:24</time>
      </trkpt>
      <trkpt lat="42.9632" lon="-0.34369">
        <ele>1139.8</ele>
        <time>2022-06-08 11:43:25</time>
      </trkpt>
      <trkpt lat="42.9632" lon="-0.34365">
        <ele>1140</ele>
        <time>2022-06-08 11:43:26</time>
      </trkpt>
      <trkpt lat="42.96319" lon="-0.34361">
        <ele>1140.2</ele>
        <time>2022-06-08 11:43:27</time>
      </trkpt>
      <trkpt lat="42.96318" lon="-0.34357">
        <ele>1140.4</ele>
        <time>2022-06-08 11:43:28</time>
      </trkpt>
      <trkpt lat="42.96318" lon="-0.34354">
        <ele>1140.6</ele>
        <time>2022-06-08 11:43:29</time>
      </trkpt>
      <trkpt lat="42.96317" lon="-0.3435">
        <ele>1140.8</ele>
        <time>2022-06-08 11:43:30</time>
      </trkpt>
      <trkpt lat="42.96318" lon="-0.34346">
        <ele>1141</ele>
        <time>2022-06-08 11:43:31</time>
      </trkpt>
      <trkpt lat="42.96319" lon="-0.34342">
        <ele>1141.4</ele>
        <time>2022-06-08 11:43:32</time>
      </trkpt>
      <trkpt lat="42.96321" lon="-0.34338">
        <ele>1141.6</ele>
        <time>2022-06-08 11:43:33</time>
      </trkpt>
      <trkpt lat="42.96322" lon="-0.34335">
        <ele>1141.8</ele>
        <time>2022-06-08 11:43:34</time>
      </trkpt>
      <trkpt lat="42.96323" lon="-0.34331">
        <ele>1142</ele>
        <time>2022-06-08 11:43:35</time>
      </trkpt>
      <trkpt lat="42.96324" lon="-0.34327">
        <ele>1142.4</ele>
        <time>2022-06-08 11:43:36</time>
      </trkpt>
      <trkpt lat="42.96325" lon="-0.34324">
        <ele>1142.8</ele>
        <time>2022-06-08 11:43:37</time>
      </trkpt>
      <trkpt lat="42.96324" lon="-0.3432">
        <ele>1142.8</ele>
        <time>2022-06-08 11:43:38</time>
      </trkpt>
      <trkpt lat="42.96324" lon="-0.34316">
        <ele>1143</ele>
        <time>2022-06-08 11:43:39</time>
      </trkpt>
      <trkpt lat="42.96325" lon="-0.34313">
        <ele>1143.2</ele>
        <time>2022-06-08 11:43:40</time>
      </trkpt>
      <trkpt lat="42.96326" lon="-0.34309">
        <ele>1143.6</ele>
        <time>2022-06-08 11:43:41</time>
      </trkpt>
      <trkpt lat="42.96326" lon="-0.34306">
        <ele>1143.6</ele>
        <time>2022-06-08 11:43:42</time>
      </trkpt>
      <trkpt lat="42.96326" lon="-0.34303">
        <ele>1144</ele>
        <time>2022-06-08 11:43:43</time>
      </trkpt>
      <trkpt lat="42.96327" lon="-0.34299">
        <ele>1144</ele>
        <time>2022-06-08 11:43:44</time>
      </trkpt>
      <trkpt lat="42.96328" lon="-0.34295">
        <ele>1144.6</ele>
        <time>2022-06-08 11:43:45</time>
      </trkpt>
      <trkpt lat="42.96328" lon="-0.34291">
        <ele>1144.8</ele>
        <time>2022-06-08 11:43:46</time>
      </trkpt>
      <trkpt lat="42.96329" lon="-0.34287">
        <ele>1145</ele>
        <time>2022-06-08 11:43:47</time>
      </trkpt>
      <trkpt lat="42.9633" lon="-0.34284">
        <ele>1145.2</ele>
        <time>2022-06-08 11:43:48</time>
      </trkpt>
      <trkpt lat="42.96331" lon="-0.34281">
        <ele>1145.6</ele>
        <time>2022-06-08 11:43:49</time>
      </trkpt>
      <trkpt lat="42.96332" lon="-0.34278">
        <ele>1145.8</ele>
        <time>2022-06-08 11:43:50</time>
      </trkpt>
      <trkpt lat="42.96332" lon="-0.34275">
        <ele>1146</ele>
        <time>2022-06-08 11:43:51</time>
      </trkpt>
      <trkpt lat="42.96332" lon="-0.34272">
        <ele>1146.2</ele>
        <time>2022-06-08 11:43:52</time>
      </trkpt>
      <trkpt lat="42.96332" lon="-0.34269">
        <ele>1146.4</ele>
        <time>2022-06-08 11:43:53</time>
      </trkpt>
      <trkpt lat="42.96332" lon="-0.34266">
        <ele>1146.6</ele>
        <time>2022-06-08 11:43:54</time>
      </trkpt>
      <trkpt lat="42.96333" lon="-0.34264">
        <ele>1146.8</ele>
        <time>2022-06-08 11:43:55</time>
      </trkpt>
      <trkpt lat="42.96332" lon="-0.34261">
        <ele>1147</ele>
        <time>2022-06-08 11:43:56</time>
      </trkpt>
      <trkpt lat="42.96332" lon="-0.34258">
        <ele>1147.2</ele>
        <time>2022-06-08 11:43:57</time>
      </trkpt>
      <trkpt lat="42.96331" lon="-0.34254">
        <ele>1147.6</ele>
        <time>2022-06-08 11:43:58</time>
      </trkpt>
      <trkpt lat="42.9633" lon="-0.34251">
        <ele>1147.8</ele>
        <time>2022-06-08 11:43:59</time>
      </trkpt>
      <trkpt lat="42.9633" lon="-0.34248">
        <ele>1148</ele>
        <time>2022-06-08 11:44:00</time>
      </trkpt>
      <trkpt lat="42.9633" lon="-0.34244">
        <ele>1148.4</ele>
        <time>2022-06-08 11:44:01</time>
      </trkpt>
      <trkpt lat="42.96329" lon="-0.3424">
        <ele>1148.6</ele>
        <time>2022-06-08 11:44:02</time>
      </trkpt>
      <trkpt lat="42.96328" lon="-0.34236">
        <ele>1148.8</ele>
        <time>2022-06-08 11:44:03</time>
      </trkpt>
      <trkpt lat="42.96328" lon="-0.34232">
        <ele>1149.2</ele>
        <time>2022-06-08 11:44:04</time>
      </trkpt>
      <trkpt lat="42.96327" lon="-0.34229">
        <ele>1149.2</ele>
        <time>2022-06-08 11:44:05</time>
      </trkpt>
      <trkpt lat="42.96326" lon="-0.34224">
        <ele>1149.4</ele>
        <time>2022-06-08 11:44:06</time>
      </trkpt>
      <trkpt lat="42.96326" lon="-0.34221">
        <ele>1149.4</ele>
        <time>2022-06-08 11:44:07</time>
      </trkpt>
      <trkpt lat="42.96326" lon="-0.34217">
        <ele>1149.6</ele>
        <time>2022-06-08 11:44:08</time>
      </trkpt>
      <trkpt lat="42.96325" lon="-0.34213">
        <ele>1149.8</ele>
        <time>2022-06-08 11:44:09</time>
      </trkpt>
      <trkpt lat="42.96324" lon="-0.34209">
        <ele>1150.2</ele>
        <time>2022-06-08 11:44:10</time>
      </trkpt>
      <trkpt lat="42.96323" lon="-0.34205">
        <ele>1150.6</ele>
        <time>2022-06-08 11:44:11</time>
      </trkpt>
      <trkpt lat="42.96323" lon="-0.34201">
        <ele>1150.8</ele>
        <time>2022-06-08 11:44:12</time>
      </trkpt>
      <trkpt lat="42.96323" lon="-0.34196">
        <ele>1151</ele>
        <time>2022-06-08 11:44:13</time>
      </trkpt>
      <trkpt lat="42.96323" lon="-0.34192">
        <ele>1151</ele>
        <time>2022-06-08 11:44:14</time>
      </trkpt>
      <trkpt lat="42.96323" lon="-0.34187">
        <ele>1151.2</ele>
        <time>2022-06-08 11:44:15</time>
      </trkpt>
      <trkpt lat="42.96324" lon="-0.34182">
        <ele>1151.4</ele>
        <time>2022-06-08 11:44:16</time>
      </trkpt>
      <trkpt lat="42.96324" lon="-0.34177">
        <ele>1151.4</ele>
        <time>2022-06-08 11:44:17</time>
      </trkpt>
      <trkpt lat="42.96321" lon="-0.34173">
        <ele>1151.4</ele>
        <time>2022-06-08 11:44:18</time>
      </trkpt>
      <trkpt lat="42.9632" lon="-0.34169">
        <ele>1151.6</ele>
        <time>2022-06-08 11:44:19</time>
      </trkpt>
      <trkpt lat="42.96317" lon="-0.34164">
        <ele>1151.4</ele>
        <time>2022-06-08 11:44:20</time>
      </trkpt>
      <trkpt lat="42.96315" lon="-0.34159">
        <ele>1151.6</ele>
        <time>2022-06-08 11:44:21</time>
      </trkpt>
      <trkpt lat="42.96311" lon="-0.34153">
        <ele>1151.8</ele>
        <time>2022-06-08 11:44:22</time>
      </trkpt>
      <trkpt lat="42.96308" lon="-0.34148">
        <ele>1151.8</ele>
        <time>2022-06-08 11:44:23</time>
      </trkpt>
      <trkpt lat="42.96305" lon="-0.34142">
        <ele>1151.8</ele>
        <time>2022-06-08 11:44:24</time>
      </trkpt>
      <trkpt lat="42.96304" lon="-0.34137">
        <ele>1151.8</ele>
        <time>2022-06-08 11:44:25</time>
      </trkpt>
      <trkpt lat="42.96302" lon="-0.34131">
        <ele>1152</ele>
        <time>2022-06-08 11:44:26</time>
      </trkpt>
      <trkpt lat="42.96301" lon="-0.34126">
        <ele>1152</ele>
        <time>2022-06-08 11:44:27</time>
      </trkpt>
      <trkpt lat="42.96299" lon="-0.34121">
        <ele>1152</ele>
        <time>2022-06-08 11:44:28</time>
      </trkpt>
      <trkpt lat="42.96296" lon="-0.34117">
        <ele>1152.2</ele>
        <time>2022-06-08 11:44:29</time>
      </trkpt>
      <trkpt lat="42.96293" lon="-0.34112">
        <ele>1152.4</ele>
        <time>2022-06-08 11:44:30</time>
      </trkpt>
      <trkpt lat="42.96289" lon="-0.34108">
        <ele>1152.4</ele>
        <time>2022-06-08 11:44:31</time>
      </trkpt>
      <trkpt lat="42.96285" lon="-0.34105">
        <ele>1152.6</ele>
        <time>2022-06-08 11:44:32</time>
      </trkpt>
      <trkpt lat="42.96282" lon="-0.34102">
        <ele>1152.6</ele>
        <time>2022-06-08 11:44:33</time>
      </trkpt>
      <trkpt lat="42.96278" lon="-0.34098">
        <ele>1152.6</ele>
        <time>2022-06-08 11:44:34</time>
      </trkpt>
      <trkpt lat="42.96274" lon="-0.34094">
        <ele>1152.6</ele>
        <time>2022-06-08 11:44:35</time>
      </trkpt>
      <trkpt lat="42.96269" lon="-0.3409">
        <ele>1152.6</ele>
        <time>2022-06-08 11:44:36</time>
      </trkpt>
      <trkpt lat="42.96266" lon="-0.34086">
        <ele>1152.4</ele>
        <time>2022-06-08 11:44:37</time>
      </trkpt>
      <trkpt lat="42.96265" lon="-0.34081">
        <ele>1152.4</ele>
        <time>2022-06-08 11:44:38</time>
      </trkpt>
      <trkpt lat="42.96262" lon="-0.34075">
        <ele>1152.4</ele>
        <time>2022-06-08 11:44:39</time>
      </trkpt>
      <trkpt lat="42.96259" lon="-0.34071">
        <ele>1152.8</ele>
        <time>2022-06-08 11:44:40</time>
      </trkpt>
      <trkpt lat="42.96257" lon="-0.34067">
        <ele>1152.8</ele>
        <time>2022-06-08 11:44:41</time>
      </trkpt>
      <trkpt lat="42.96254" lon="-0.34061">
        <ele>1152.8</ele>
        <time>2022-06-08 11:44:42</time>
      </trkpt>
      <trkpt lat="42.96252" lon="-0.34057">
        <ele>1153</ele>
        <time>2022-06-08 11:44:43</time>
      </trkpt>
      <trkpt lat="42.9625" lon="-0.34051">
        <ele>1153.2</ele>
        <time>2022-06-08 11:44:44</time>
      </trkpt>
      <trkpt lat="42.96248" lon="-0.34046">
        <ele>1153.4</ele>
        <time>2022-06-08 11:44:45</time>
      </trkpt>
      <trkpt lat="42.96245" lon="-0.3404">
        <ele>1153.6</ele>
        <time>2022-06-08 11:44:46</time>
      </trkpt>
      <trkpt lat="42.96243" lon="-0.34034">
        <ele>1153.6</ele>
        <time>2022-06-08 11:44:47</time>
      </trkpt>
      <trkpt lat="42.96241" lon="-0.34029">
        <ele>1153.8</ele>
        <time>2022-06-08 11:44:48</time>
      </trkpt>
      <trkpt lat="42.96239" lon="-0.34024">
        <ele>1153.8</ele>
        <time>2022-06-08 11:44:49</time>
      </trkpt>
      <trkpt lat="42.96237" lon="-0.34019">
        <ele>1153.8</ele>
        <time>2022-06-08 11:44:50</time>
      </trkpt>
      <trkpt lat="42.96234" lon="-0.34014">
        <ele>1154</ele>
        <time>2022-06-08 11:44:51</time>
      </trkpt>
      <trkpt lat="42.96232" lon="-0.34008">
        <ele>1154</ele>
        <time>2022-06-08 11:44:52</time>
      </trkpt>
      <trkpt lat="42.9623" lon="-0.34002">
        <ele>1154.2</ele>
        <time>2022-06-08 11:44:53</time>
      </trkpt>
      <trkpt lat="42.96228" lon="-0.33997">
        <ele>1154.2</ele>
        <time>2022-06-08 11:44:54</time>
      </trkpt>
      <trkpt lat="42.96225" lon="-0.33991">
        <ele>1154.4</ele>
        <time>2022-06-08 11:44:55</time>
      </trkpt>
      <trkpt lat="42.96223" lon="-0.33985">
        <ele>1154.4</ele>
        <time>2022-06-08 11:44:56</time>
      </trkpt>
      <trkpt lat="42.96222" lon="-0.3398">
        <ele>1154.6</ele>
        <time>2022-06-08 11:44:57</time>
      </trkpt>
      <trkpt lat="42.96221" lon="-0.33975">
        <ele>1154.8</ele>
        <time>2022-06-08 11:44:58</time>
      </trkpt>
      <trkpt lat="42.9622" lon="-0.33969">
        <ele>1155</ele>
        <time>2022-06-08 11:44:59</time>
      </trkpt>
      <trkpt lat="42.9622" lon="-0.33964">
        <ele>1155</ele>
        <time>2022-06-08 11:45:00</time>
      </trkpt>
      <trkpt lat="42.9622" lon="-0.33959">
        <ele>1155.6</ele>
        <time>2022-06-08 11:45:01</time>
      </trkpt>
      <trkpt lat="42.9622" lon="-0.33954">
        <ele>1156</ele>
        <time>2022-06-08 11:45:02</time>
      </trkpt>
      <trkpt lat="42.96219" lon="-0.33949">
        <ele>1156</ele>
        <time>2022-06-08 11:45:03</time>
      </trkpt>
      <trkpt lat="42.96219" lon="-0.33942">
        <ele>1156.2</ele>
        <time>2022-06-08 11:45:04</time>
      </trkpt>
      <trkpt lat="42.96218" lon="-0.33938">
        <ele>1156.4</ele>
        <time>2022-06-08 11:45:05</time>
      </trkpt>
      <trkpt lat="42.96218" lon="-0.33933">
        <ele>1156.8</ele>
        <time>2022-06-08 11:45:06</time>
      </trkpt>
      <trkpt lat="42.96218" lon="-0.33928">
        <ele>1157</ele>
        <time>2022-06-08 11:45:07</time>
      </trkpt>
      <trkpt lat="42.96218" lon="-0.33924">
        <ele>1157.4</ele>
        <time>2022-06-08 11:45:08</time>
      </trkpt>
      <trkpt lat="42.96218" lon="-0.33919">
        <ele>1157.6</ele>
        <time>2022-06-08 11:45:09</time>
      </trkpt>
      <trkpt lat="42.96218" lon="-0.33914">
        <ele>1158</ele>
        <time>2022-06-08 11:45:10</time>
      </trkpt>
      <trkpt lat="42.96218" lon="-0.3391">
        <ele>1157.8</ele>
        <time>2022-06-08 11:45:11</time>
      </trkpt>
      <trkpt lat="42.96218" lon="-0.33905">
        <ele>1158.4</ele>
        <time>2022-06-08 11:45:12</time>
      </trkpt>
      <trkpt lat="42.96219" lon="-0.33901">
        <ele>1158.6</ele>
        <time>2022-06-08 11:45:13</time>
      </trkpt>
      <trkpt lat="42.9622" lon="-0.33897">
        <ele>1158.8</ele>
        <time>2022-06-08 11:45:14</time>
      </trkpt>
      <trkpt lat="42.96223" lon="-0.33893">
        <ele>1158.8</ele>
        <time>2022-06-08 11:45:15</time>
      </trkpt>
      <trkpt lat="42.96224" lon="-0.3389">
        <ele>1159.4</ele>
        <time>2022-06-08 11:45:16</time>
      </trkpt>
      <trkpt lat="42.96226" lon="-0.33887">
        <ele>1159.6</ele>
        <time>2022-06-08 11:45:17</time>
      </trkpt>
      <trkpt lat="42.96227" lon="-0.33884">
        <ele>1159.6</ele>
        <time>2022-06-08 11:45:18</time>
      </trkpt>
      <trkpt lat="42.96228" lon="-0.33882">
        <ele>1160.2</ele>
        <time>2022-06-08 11:45:19</time>
      </trkpt>
      <trkpt lat="42.96229" lon="-0.3388">
        <ele>1160.4</ele>
        <time>2022-06-08 11:45:20</time>
      </trkpt>
      <trkpt lat="42.96231" lon="-0.3388">
        <ele>1160.8</ele>
        <time>2022-06-08 11:45:21</time>
      </trkpt>
      <trkpt lat="42.96234" lon="-0.3388">
        <ele>1161</ele>
        <time>2022-06-08 11:45:22</time>
      </trkpt>
      <trkpt lat="42.96236" lon="-0.3388">
        <ele>1161</ele>
        <time>2022-06-08 11:45:23</time>
      </trkpt>
      <trkpt lat="42.96239" lon="-0.33882">
        <ele>1161.4</ele>
        <time>2022-06-08 11:45:24</time>
      </trkpt>
      <trkpt lat="42.96239" lon="-0.33882">
        <ele>1161.8</ele>
        <time>2022-06-08 11:45:25</time>
      </trkpt>
      <trkpt lat="42.96241" lon="-0.33883">
        <ele>1162.2</ele>
        <time>2022-06-08 11:45:26</time>
      </trkpt>
      <trkpt lat="42.96244" lon="-0.33885">
        <ele>1162.6</ele>
        <time>2022-06-08 11:45:27</time>
      </trkpt>
      <trkpt lat="42.96247" lon="-0.33887">
        <ele>1162.8</ele>
        <time>2022-06-08 11:45:28</time>
      </trkpt>
      <trkpt lat="42.96249" lon="-0.33889">
        <ele>1163.4</ele>
        <time>2022-06-08 11:45:29</time>
      </trkpt>
      <trkpt lat="42.96252" lon="-0.33892">
        <ele>1163.6</ele>
        <time>2022-06-08 11:45:30</time>
      </trkpt>
      <trkpt lat="42.96255" lon="-0.33895">
        <ele>1164</ele>
        <time>2022-06-08 11:45:31</time>
      </trkpt>
      <trkpt lat="42.96258" lon="-0.33897">
        <ele>1164.2</ele>
        <time>2022-06-08 11:45:32</time>
      </trkpt>
      <trkpt lat="42.9626" lon="-0.33899">
        <ele>1164.6</ele>
        <time>2022-06-08 11:45:33</time>
      </trkpt>
      <trkpt lat="42.96262" lon="-0.33901">
        <ele>1164.8</ele>
        <time>2022-06-08 11:45:34</time>
      </trkpt>
      <trkpt lat="42.96264" lon="-0.33903">
        <ele>1165</ele>
        <time>2022-06-08 11:45:35</time>
      </trkpt>
      <trkpt lat="42.96267" lon="-0.33906">
        <ele>1165.2</ele>
        <time>2022-06-08 11:45:36</time>
      </trkpt>
      <trkpt lat="42.96269" lon="-0.33908">
        <ele>1165.6</ele>
        <time>2022-06-08 11:45:37</time>
      </trkpt>
      <trkpt lat="42.96272" lon="-0.3391">
        <ele>1166</ele>
        <time>2022-06-08 11:45:38</time>
      </trkpt>
      <trkpt lat="42.96274" lon="-0.33912">
        <ele>1166.2</ele>
        <time>2022-06-08 11:45:39</time>
      </trkpt>
      <trkpt lat="42.96277" lon="-0.33914">
        <ele>1166.6</ele>
        <time>2022-06-08 11:45:40</time>
      </trkpt>
      <trkpt lat="42.9628" lon="-0.33916">
        <ele>1166.8</ele>
        <time>2022-06-08 11:45:41</time>
      </trkpt>
      <trkpt lat="42.96282" lon="-0.33918">
        <ele>1166.8</ele>
        <time>2022-06-08 11:45:42</time>
      </trkpt>
      <trkpt lat="42.96285" lon="-0.33921">
        <ele>1167.2</ele>
        <time>2022-06-08 11:45:43</time>
      </trkpt>
      <trkpt lat="42.96288" lon="-0.33922">
        <ele>1167.4</ele>
        <time>2022-06-08 11:45:44</time>
      </trkpt>
      <trkpt lat="42.96291" lon="-0.33924">
        <ele>1167.4</ele>
        <time>2022-06-08 11:45:45</time>
      </trkpt>
      <trkpt lat="42.96293" lon="-0.33925">
        <ele>1167.8</ele>
        <time>2022-06-08 11:45:46</time>
      </trkpt>
      <trkpt lat="42.96296" lon="-0.33926">
        <ele>1168</ele>
        <time>2022-06-08 11:45:47</time>
      </trkpt>
      <trkpt lat="42.96298" lon="-0.33927">
        <ele>1168.2</ele>
        <time>2022-06-08 11:45:48</time>
      </trkpt>
      <trkpt lat="42.96301" lon="-0.33928">
        <ele>1168.4</ele>
        <time>2022-06-08 11:45:49</time>
      </trkpt>
      <trkpt lat="42.96303" lon="-0.33928">
        <ele>1168.6</ele>
        <time>2022-06-08 11:45:50</time>
      </trkpt>
      <trkpt lat="42.96306" lon="-0.33928">
        <ele>1169</ele>
        <time>2022-06-08 11:45:51</time>
      </trkpt>
      <trkpt lat="42.96309" lon="-0.33929">
        <ele>1169</ele>
        <time>2022-06-08 11:45:52</time>
      </trkpt>
      <trkpt lat="42.96312" lon="-0.3393">
        <ele>1169.2</ele>
        <time>2022-06-08 11:45:53</time>
      </trkpt>
      <trkpt lat="42.96315" lon="-0.33931">
        <ele>1169.4</ele>
        <time>2022-06-08 11:45:54</time>
      </trkpt>
      <trkpt lat="42.96318" lon="-0.33931">
        <ele>1169.6</ele>
        <time>2022-06-08 11:45:55</time>
      </trkpt>
      <trkpt lat="42.96321" lon="-0.33932">
        <ele>1169.6</ele>
        <time>2022-06-08 11:45:56</time>
      </trkpt>
      <trkpt lat="42.96324" lon="-0.33932">
        <ele>1169.8</ele>
        <time>2022-06-08 11:45:57</time>
      </trkpt>
      <trkpt lat="42.96327" lon="-0.33932">
        <ele>1170</ele>
        <time>2022-06-08 11:45:58</time>
      </trkpt>
      <trkpt lat="42.9633" lon="-0.33931">
        <ele>1170.4</ele>
        <time>2022-06-08 11:45:59</time>
      </trkpt>
      <trkpt lat="42.96332" lon="-0.33931">
        <ele>1170.6</ele>
        <time>2022-06-08 11:46:00</time>
      </trkpt>
      <trkpt lat="42.96335" lon="-0.33931">
        <ele>1170.8</ele>
        <time>2022-06-08 11:46:01</time>
      </trkpt>
      <trkpt lat="42.96338" lon="-0.33931">
        <ele>1171</ele>
        <time>2022-06-08 11:46:02</time>
      </trkpt>
      <trkpt lat="42.96341" lon="-0.33931">
        <ele>1171.4</ele>
        <time>2022-06-08 11:46:03</time>
      </trkpt>
      <trkpt lat="42.96343" lon="-0.33931">
        <ele>1171.6</ele>
        <time>2022-06-08 11:46:04</time>
      </trkpt>
      <trkpt lat="42.96346" lon="-0.3393">
        <ele>1172</ele>
        <time>2022-06-08 11:46:05</time>
      </trkpt>
      <trkpt lat="42.96349" lon="-0.3393">
        <ele>1172</ele>
        <time>2022-06-08 11:46:06</time>
      </trkpt>
      <trkpt lat="42.96351" lon="-0.3393">
        <ele>1172.2</ele>
        <time>2022-06-08 11:46:07</time>
      </trkpt>
      <trkpt lat="42.96354" lon="-0.3393">
        <ele>1172.6</ele>
        <time>2022-06-08 11:46:08</time>
      </trkpt>
      <trkpt lat="42.96357" lon="-0.33929">
        <ele>1172.8</ele>
        <time>2022-06-08 11:46:09</time>
      </trkpt>
      <trkpt lat="42.9636" lon="-0.33929">
        <ele>1173.2</ele>
        <time>2022-06-08 11:46:10</time>
      </trkpt>
      <trkpt lat="42.96362" lon="-0.33929">
        <ele>1173.4</ele>
        <time>2022-06-08 11:46:11</time>
      </trkpt>
      <trkpt lat="42.96365" lon="-0.33929">
        <ele>1173.6</ele>
        <time>2022-06-08 11:46:12</time>
      </trkpt>
      <trkpt lat="42.96368" lon="-0.33929">
        <ele>1173.8</ele>
        <time>2022-06-08 11:46:13</time>
      </trkpt>
      <trkpt lat="42.96371" lon="-0.3393">
        <ele>1174.4</ele>
        <time>2022-06-08 11:46:14</time>
      </trkpt>
      <trkpt lat="42.96373" lon="-0.3393">
        <ele>1174.6</ele>
        <time>2022-06-08 11:46:15</time>
      </trkpt>
      <trkpt lat="42.96376" lon="-0.33931">
        <ele>1175.2</ele>
        <time>2022-06-08 11:46:16</time>
      </trkpt>
      <trkpt lat="42.96379" lon="-0.33931">
        <ele>1175.4</ele>
        <time>2022-06-08 11:46:17</time>
      </trkpt>
      <trkpt lat="42.96381" lon="-0.33932">
        <ele>1175.8</ele>
        <time>2022-06-08 11:46:18</time>
      </trkpt>
      <trkpt lat="42.96384" lon="-0.33933">
        <ele>1175.8</ele>
        <time>2022-06-08 11:46:19</time>
      </trkpt>
      <trkpt lat="42.96386" lon="-0.33935">
        <ele>1176</ele>
        <time>2022-06-08 11:46:20</time>
      </trkpt>
      <trkpt lat="42.96388" lon="-0.33937">
        <ele>1176</ele>
        <time>2022-06-08 11:46:21</time>
      </trkpt>
      <trkpt lat="42.9639" lon="-0.33939">
        <ele>1176.2</ele>
        <time>2022-06-08 11:46:22</time>
      </trkpt>
      <trkpt lat="42.96392" lon="-0.33941">
        <ele>1176.4</ele>
        <time>2022-06-08 11:46:23</time>
      </trkpt>
      <trkpt lat="42.96394" lon="-0.33943">
        <ele>1176.6</ele>
        <time>2022-06-08 11:46:24</time>
      </trkpt>
      <trkpt lat="42.96396" lon="-0.33945">
        <ele>1176.8</ele>
        <time>2022-06-08 11:46:25</time>
      </trkpt>
      <trkpt lat="42.96398" lon="-0.33948">
        <ele>1177</ele>
        <time>2022-06-08 11:46:26</time>
      </trkpt>
      <trkpt lat="42.964" lon="-0.3395">
        <ele>1177.2</ele>
        <time>2022-06-08 11:46:27</time>
      </trkpt>
      <trkpt lat="42.96401" lon="-0.33953">
        <ele>1177.4</ele>
        <time>2022-06-08 11:46:28</time>
      </trkpt>
      <trkpt lat="42.96402" lon="-0.33956">
        <ele>1177.8</ele>
        <time>2022-06-08 11:46:29</time>
      </trkpt>
      <trkpt lat="42.96403" lon="-0.3396">
        <ele>1178</ele>
        <time>2022-06-08 11:46:30</time>
      </trkpt>
      <trkpt lat="42.96404" lon="-0.33963">
        <ele>1178.4</ele>
        <time>2022-06-08 11:46:31</time>
      </trkpt>
      <trkpt lat="42.96405" lon="-0.33967">
        <ele>1178.8</ele>
        <time>2022-06-08 11:46:32</time>
      </trkpt>
      <trkpt lat="42.96405" lon="-0.3397">
        <ele>1179.2</ele>
        <time>2022-06-08 11:46:33</time>
      </trkpt>
      <trkpt lat="42.96406" lon="-0.33973">
        <ele>1179.2</ele>
        <time>2022-06-08 11:46:34</time>
      </trkpt>
      <trkpt lat="42.96406" lon="-0.33976">
        <ele>1179.8</ele>
        <time>2022-06-08 11:46:35</time>
      </trkpt>
      <trkpt lat="42.96406" lon="-0.33979">
        <ele>1180</ele>
        <time>2022-06-08 11:46:36</time>
      </trkpt>
      <trkpt lat="42.96406" lon="-0.33982">
        <ele>1180.2</ele>
        <time>2022-06-08 11:46:37</time>
      </trkpt>
      <trkpt lat="42.96406" lon="-0.33986">
        <ele>1180.4</ele>
        <time>2022-06-08 11:46:38</time>
      </trkpt>
      <trkpt lat="42.96405" lon="-0.33989">
        <ele>1180.8</ele>
        <time>2022-06-08 11:46:39</time>
      </trkpt>
      <trkpt lat="42.96405" lon="-0.33991">
        <ele>1181</ele>
        <time>2022-06-08 11:46:40</time>
      </trkpt>
      <trkpt lat="42.96405" lon="-0.33994">
        <ele>1181.4</ele>
        <time>2022-06-08 11:46:41</time>
      </trkpt>
      <trkpt lat="42.96404" lon="-0.33997">
        <ele>1181.6</ele>
        <time>2022-06-08 11:46:42</time>
      </trkpt>
      <trkpt lat="42.96404" lon="-0.34">
        <ele>1181.8</ele>
        <time>2022-06-08 11:46:43</time>
      </trkpt>
      <trkpt lat="42.96405" lon="-0.34002">
        <ele>1181.8</ele>
        <time>2022-06-08 11:46:44</time>
      </trkpt>
      <trkpt lat="42.96405" lon="-0.34005">
        <ele>1181.8</ele>
        <time>2022-06-08 11:46:45</time>
      </trkpt>
      <trkpt lat="42.96404" lon="-0.34007">
        <ele>1182.2</ele>
        <time>2022-06-08 11:46:46</time>
      </trkpt>
      <trkpt lat="42.96403" lon="-0.3401">
        <ele>1182.4</ele>
        <time>2022-06-08 11:46:47</time>
      </trkpt>
      <trkpt lat="42.96402" lon="-0.34014">
        <ele>1182.6</ele>
        <time>2022-06-08 11:46:48</time>
      </trkpt>
      <trkpt lat="42.96401" lon="-0.34017">
        <ele>1182.8</ele>
        <time>2022-06-08 11:46:49</time>
      </trkpt>
      <trkpt lat="42.964" lon="-0.34021">
        <ele>1183.4</ele>
        <time>2022-06-08 11:46:50</time>
      </trkpt>
      <trkpt lat="42.964" lon="-0.34025">
        <ele>1183.4</ele>
        <time>2022-06-08 11:46:51</time>
      </trkpt>
      <trkpt lat="42.96399" lon="-0.3403">
        <ele>1184</ele>
        <time>2022-06-08 11:46:52</time>
      </trkpt>
      <trkpt lat="42.964" lon="-0.34034">
        <ele>1184.2</ele>
        <time>2022-06-08 11:46:53</time>
      </trkpt>
      <trkpt lat="42.96401" lon="-0.34037">
        <ele>1184.6</ele>
        <time>2022-06-08 11:46:54</time>
      </trkpt>
      <trkpt lat="42.96402" lon="-0.34044">
        <ele>1184.6</ele>
        <time>2022-06-08 11:46:55</time>
      </trkpt>
      <trkpt lat="42.96403" lon="-0.34048">
        <ele>1185</ele>
        <time>2022-06-08 11:46:56</time>
      </trkpt>
      <trkpt lat="42.96403" lon="-0.34051">
        <ele>1185.2</ele>
        <time>2022-06-08 11:46:57</time>
      </trkpt>
      <trkpt lat="42.96404" lon="-0.34054">
        <ele>1185.4</ele>
        <time>2022-06-08 11:46:58</time>
      </trkpt>
      <trkpt lat="42.96405" lon="-0.34057">
        <ele>1185.8</ele>
        <time>2022-06-08 11:46:59</time>
      </trkpt>
      <trkpt lat="42.96407" lon="-0.34063">
        <ele>1186</ele>
        <time>2022-06-08 11:47:00</time>
      </trkpt>
      <trkpt lat="42.96407" lon="-0.34067">
        <ele>1186.4</ele>
        <time>2022-06-08 11:47:01</time>
      </trkpt>
      <trkpt lat="42.96408" lon="-0.34072">
        <ele>1186.6</ele>
        <time>2022-06-08 11:47:02</time>
      </trkpt>
      <trkpt lat="42.96408" lon="-0.34074">
        <ele>1186.8</ele>
        <time>2022-06-08 11:47:03</time>
      </trkpt>
      <trkpt lat="42.96407" lon="-0.34075">
        <ele>1187</ele>
        <time>2022-06-08 11:47:04</time>
      </trkpt>
      <trkpt lat="42.96407" lon="-0.34079">
        <ele>1187.4</ele>
        <time>2022-06-08 11:47:05</time>
      </trkpt>
      <trkpt lat="42.96407" lon="-0.34085">
        <ele>1187.6</ele>
        <time>2022-06-08 11:47:06</time>
      </trkpt>
      <trkpt lat="42.96407" lon="-0.3409">
        <ele>1187.6</ele>
        <time>2022-06-08 11:47:07</time>
      </trkpt>
      <trkpt lat="42.96407" lon="-0.34093">
        <ele>1187.8</ele>
        <time>2022-06-08 11:47:08</time>
      </trkpt>
      <trkpt lat="42.96408" lon="-0.34096">
        <ele>1188</ele>
        <time>2022-06-08 11:47:09</time>
      </trkpt>
      <trkpt lat="42.9641" lon="-0.34099">
        <ele>1188.2</ele>
        <time>2022-06-08 11:47:10</time>
      </trkpt>
      <trkpt lat="42.9641" lon="-0.34101">
        <ele>1188.4</ele>
        <time>2022-06-08 11:47:11</time>
      </trkpt>
      <trkpt lat="42.96411" lon="-0.34103">
        <ele>1188.6</ele>
        <time>2022-06-08 11:47:12</time>
      </trkpt>
      <trkpt lat="42.96412" lon="-0.34107">
        <ele>1188.8</ele>
        <time>2022-06-08 11:47:13</time>
      </trkpt>
      <trkpt lat="42.96413" lon="-0.3411">
        <ele>1189</ele>
        <time>2022-06-08 11:47:14</time>
      </trkpt>
      <trkpt lat="42.96414" lon="-0.34113">
        <ele>1189.2</ele>
        <time>2022-06-08 11:47:15</time>
      </trkpt>
      <trkpt lat="42.96414" lon="-0.34117">
        <ele>1189.6</ele>
        <time>2022-06-08 11:47:16</time>
      </trkpt>
      <trkpt lat="42.96413" lon="-0.34121">
        <ele>1190</ele>
        <time>2022-06-08 11:47:17</time>
      </trkpt>
      <trkpt lat="42.96413" lon="-0.34124">
        <ele>1190.4</ele>
        <time>2022-06-08 11:47:18</time>
      </trkpt>
      <trkpt lat="42.96413" lon="-0.34128">
        <ele>1190.6</ele>
        <time>2022-06-08 11:47:19</time>
      </trkpt>
      <trkpt lat="42.96414" lon="-0.34132">
        <ele>1190.8</ele>
        <time>2022-06-08 11:47:20</time>
      </trkpt>
      <trkpt lat="42.96414" lon="-0.34134">
        <ele>1191</ele>
        <time>2022-06-08 11:47:21</time>
      </trkpt>
      <trkpt lat="42.96416" lon="-0.34137">
        <ele>1191.4</ele>
        <time>2022-06-08 11:47:22</time>
      </trkpt>
      <trkpt lat="42.96418" lon="-0.34141">
        <ele>1191.6</ele>
        <time>2022-06-08 11:47:23</time>
      </trkpt>
      <trkpt lat="42.96422" lon="-0.34146">
        <ele>1192</ele>
        <time>2022-06-08 11:47:24</time>
      </trkpt>
      <trkpt lat="42.96423" lon="-0.34152">
        <ele>1192</ele>
        <time>2022-06-08 11:47:25</time>
      </trkpt>
      <trkpt lat="42.96425" lon="-0.34156">
        <ele>1192.4</ele>
        <time>2022-06-08 11:47:26</time>
      </trkpt>
      <trkpt lat="42.96427" lon="-0.34161">
        <ele>1192.6</ele>
        <time>2022-06-08 11:47:27</time>
      </trkpt>
      <trkpt lat="42.96428" lon="-0.34165">
        <ele>1192.8</ele>
        <time>2022-06-08 11:47:28</time>
      </trkpt>
      <trkpt lat="42.96431" lon="-0.34169">
        <ele>1193</ele>
        <time>2022-06-08 11:47:29</time>
      </trkpt>
      <trkpt lat="42.96433" lon="-0.34173">
        <ele>1193.4</ele>
        <time>2022-06-08 11:47:30</time>
      </trkpt>
      <trkpt lat="42.96435" lon="-0.34176">
        <ele>1193.4</ele>
        <time>2022-06-08 11:47:31</time>
      </trkpt>
      <trkpt lat="42.96436" lon="-0.34179">
        <ele>1194</ele>
        <time>2022-06-08 11:47:32</time>
      </trkpt>
      <trkpt lat="42.96437" lon="-0.34181">
        <ele>1194.2</ele>
        <time>2022-06-08 11:47:33</time>
      </trkpt>
      <trkpt lat="42.96435" lon="-0.34183">
        <ele>1194.4</ele>
        <time>2022-06-08 11:47:34</time>
      </trkpt>
      <trkpt lat="42.96434" lon="-0.34187">
        <ele>1194.8</ele>
        <time>2022-06-08 11:47:35</time>
      </trkpt>
      <trkpt lat="42.96435" lon="-0.3419">
        <ele>1195</ele>
        <time>2022-06-08 11:47:36</time>
      </trkpt>
      <trkpt lat="42.96436" lon="-0.34193">
        <ele>1195.4</ele>
        <time>2022-06-08 11:47:37</time>
      </trkpt>
      <trkpt lat="42.96437" lon="-0.34197">
        <ele>1195.6</ele>
        <time>2022-06-08 11:47:38</time>
      </trkpt>
      <trkpt lat="42.96438" lon="-0.342">
        <ele>1195.6</ele>
        <time>2022-06-08 11:47:39</time>
      </trkpt>
      <trkpt lat="42.96439" lon="-0.34203">
        <ele>1195.8</ele>
        <time>2022-06-08 11:47:40</time>
      </trkpt>
      <trkpt lat="42.9644" lon="-0.34206">
        <ele>1196</ele>
        <time>2022-06-08 11:47:41</time>
      </trkpt>
      <trkpt lat="42.96441" lon="-0.3421">
        <ele>1196.2</ele>
        <time>2022-06-08 11:47:42</time>
      </trkpt>
      <trkpt lat="42.96442" lon="-0.34213">
        <ele>1197</ele>
        <time>2022-06-08 11:47:43</time>
      </trkpt>
      <trkpt lat="42.96443" lon="-0.34216">
        <ele>1197</ele>
        <time>2022-06-08 11:47:44</time>
      </trkpt>
      <trkpt lat="42.96444" lon="-0.3422">
        <ele>1197.6</ele>
        <time>2022-06-08 11:47:45</time>
      </trkpt>
      <trkpt lat="42.96445" lon="-0.34222">
        <ele>1197.6</ele>
        <time>2022-06-08 11:47:46</time>
      </trkpt>
      <trkpt lat="42.96446" lon="-0.34225">
        <ele>1198</ele>
        <time>2022-06-08 11:47:47</time>
      </trkpt>
      <trkpt lat="42.96447" lon="-0.34229">
        <ele>1198</ele>
        <time>2022-06-08 11:47:48</time>
      </trkpt>
      <trkpt lat="42.96448" lon="-0.34232">
        <ele>1198.4</ele>
        <time>2022-06-08 11:47:49</time>
      </trkpt>
      <trkpt lat="42.9645" lon="-0.34236">
        <ele>1198.6</ele>
        <time>2022-06-08 11:47:50</time>
      </trkpt>
      <trkpt lat="42.96451" lon="-0.3424">
        <ele>1198.8</ele>
        <time>2022-06-08 11:47:51</time>
      </trkpt>
      <trkpt lat="42.96451" lon="-0.34244">
        <ele>1199</ele>
        <time>2022-06-08 11:47:52</time>
      </trkpt>
      <trkpt lat="42.96452" lon="-0.34247">
        <ele>1199</ele>
        <time>2022-06-08 11:47:53</time>
      </trkpt>
      <trkpt lat="42.96453" lon="-0.34251">
        <ele>1199.4</ele>
        <time>2022-06-08 11:47:54</time>
      </trkpt>
      <trkpt lat="42.96453" lon="-0.34254">
        <ele>1199.8</ele>
        <time>2022-06-08 11:47:55</time>
      </trkpt>
      <trkpt lat="42.96454" lon="-0.34258">
        <ele>1200.2</ele>
        <time>2022-06-08 11:47:56</time>
      </trkpt>
      <trkpt lat="42.96455" lon="-0.34262">
        <ele>1200.2</ele>
        <time>2022-06-08 11:47:57</time>
      </trkpt>
      <trkpt lat="42.96456" lon="-0.34265">
        <ele>1200.6</ele>
        <time>2022-06-08 11:47:58</time>
      </trkpt>
      <trkpt lat="42.96457" lon="-0.34269">
        <ele>1200.8</ele>
        <time>2022-06-08 11:47:59</time>
      </trkpt>
      <trkpt lat="42.96459" lon="-0.34272">
        <ele>1201.2</ele>
        <time>2022-06-08 11:48:00</time>
      </trkpt>
      <trkpt lat="42.9646" lon="-0.34275">
        <ele>1201.2</ele>
        <time>2022-06-08 11:48:01</time>
      </trkpt>
      <trkpt lat="42.96461" lon="-0.34279">
        <ele>1201.6</ele>
        <time>2022-06-08 11:48:02</time>
      </trkpt>
      <trkpt lat="42.96462" lon="-0.34282">
        <ele>1201.6</ele>
        <time>2022-06-08 11:48:03</time>
      </trkpt>
      <trkpt lat="42.96463" lon="-0.34286">
        <ele>1202</ele>
        <time>2022-06-08 11:48:04</time>
      </trkpt>
      <trkpt lat="42.96464" lon="-0.34289">
        <ele>1202</ele>
        <time>2022-06-08 11:48:05</time>
      </trkpt>
      <trkpt lat="42.96465" lon="-0.34293">
        <ele>1202.4</ele>
        <time>2022-06-08 11:48:06</time>
      </trkpt>
      <trkpt lat="42.96466" lon="-0.34297">
        <ele>1202.8</ele>
        <time>2022-06-08 11:48:07</time>
      </trkpt>
      <trkpt lat="42.96467" lon="-0.34301">
        <ele>1202.8</ele>
        <time>2022-06-08 11:48:08</time>
      </trkpt>
      <trkpt lat="42.96468" lon="-0.34304">
        <ele>1203.2</ele>
        <time>2022-06-08 11:48:09</time>
      </trkpt>
      <trkpt lat="42.96469" lon="-0.34308">
        <ele>1203.4</ele>
        <time>2022-06-08 11:48:10</time>
      </trkpt>
      <trkpt lat="42.9647" lon="-0.34312">
        <ele>1203.6</ele>
        <time>2022-06-08 11:48:11</time>
      </trkpt>
      <trkpt lat="42.96471" lon="-0.34316">
        <ele>1203.8</ele>
        <time>2022-06-08 11:48:12</time>
      </trkpt>
      <trkpt lat="42.96472" lon="-0.3432">
        <ele>1204</ele>
        <time>2022-06-08 11:48:13</time>
      </trkpt>
      <trkpt lat="42.96474" lon="-0.34323">
        <ele>1204.2</ele>
        <time>2022-06-08 11:48:14</time>
      </trkpt>
      <trkpt lat="42.96475" lon="-0.34326">
        <ele>1204.4</ele>
        <time>2022-06-08 11:48:15</time>
      </trkpt>
      <trkpt lat="42.96477" lon="-0.34329">
        <ele>1204.6</ele>
        <time>2022-06-08 11:48:16</time>
      </trkpt>
      <trkpt lat="42.9648" lon="-0.34331">
        <ele>1205</ele>
        <time>2022-06-08 11:48:17</time>
      </trkpt>
      <trkpt lat="42.96482" lon="-0.34333">
        <ele>1205</ele>
        <time>2022-06-08 11:48:18</time>
      </trkpt>
      <trkpt lat="42.96485" lon="-0.34335">
        <ele>1205.4</ele>
        <time>2022-06-08 11:48:19</time>
      </trkpt>
      <trkpt lat="42.96487" lon="-0.34335">
        <ele>1205.6</ele>
        <time>2022-06-08 11:48:20</time>
      </trkpt>
      <trkpt lat="42.9649" lon="-0.34336">
        <ele>1205.8</ele>
        <time>2022-06-08 11:48:21</time>
      </trkpt>
      <trkpt lat="42.96492" lon="-0.34336">
        <ele>1206</ele>
        <time>2022-06-08 11:48:22</time>
      </trkpt>
      <trkpt lat="42.96494" lon="-0.34335">
        <ele>1206.4</ele>
        <time>2022-06-08 11:48:23</time>
      </trkpt>
      <trkpt lat="42.96496" lon="-0.34333">
        <ele>1207</ele>
        <time>2022-06-08 11:48:24</time>
      </trkpt>
      <trkpt lat="42.96498" lon="-0.34331">
        <ele>1207.2</ele>
        <time>2022-06-08 11:48:25</time>
      </trkpt>
      <trkpt lat="42.965" lon="-0.34328">
        <ele>1207.6</ele>
        <time>2022-06-08 11:48:26</time>
      </trkpt>
      <trkpt lat="42.96501" lon="-0.34325">
        <ele>1207.6</ele>
        <time>2022-06-08 11:48:27</time>
      </trkpt>
      <trkpt lat="42.96503" lon="-0.34322">
        <ele>1208</ele>
        <time>2022-06-08 11:48:28</time>
      </trkpt>
      <trkpt lat="42.96504" lon="-0.34318">
        <ele>1208.2</ele>
        <time>2022-06-08 11:48:29</time>
      </trkpt>
      <trkpt lat="42.96504" lon="-0.34315">
        <ele>1208.4</ele>
        <time>2022-06-08 11:48:30</time>
      </trkpt>
      <trkpt lat="42.96505" lon="-0.34312">
        <ele>1208.6</ele>
        <time>2022-06-08 11:48:31</time>
      </trkpt>
      <trkpt lat="42.96506" lon="-0.34308">
        <ele>1209</ele>
        <time>2022-06-08 11:48:32</time>
      </trkpt>
      <trkpt lat="42.96506" lon="-0.34305">
        <ele>1209.2</ele>
        <time>2022-06-08 11:48:33</time>
      </trkpt>
      <trkpt lat="42.96506" lon="-0.34301">
        <ele>1209.6</ele>
        <time>2022-06-08 11:48:34</time>
      </trkpt>
      <trkpt lat="42.96507" lon="-0.34298">
        <ele>1209.8</ele>
        <time>2022-06-08 11:48:35</time>
      </trkpt>
      <trkpt lat="42.96507" lon="-0.34294">
        <ele>1210</ele>
        <time>2022-06-08 11:48:36</time>
      </trkpt>
      <trkpt lat="42.96507" lon="-0.34291">
        <ele>1210.4</ele>
        <time>2022-06-08 11:48:37</time>
      </trkpt>
      <trkpt lat="42.96507" lon="-0.34287">
        <ele>1210.8</ele>
        <time>2022-06-08 11:48:38</time>
      </trkpt>
      <trkpt lat="42.96507" lon="-0.34284">
        <ele>1211</ele>
        <time>2022-06-08 11:48:39</time>
      </trkpt>
      <trkpt lat="42.96507" lon="-0.3428">
        <ele>1211.4</ele>
        <time>2022-06-08 11:48:40</time>
      </trkpt>
      <trkpt lat="42.96508" lon="-0.34276">
        <ele>1211.8</ele>
        <time>2022-06-08 11:48:41</time>
      </trkpt>
      <trkpt lat="42.96508" lon="-0.34273">
        <ele>1212</ele>
        <time>2022-06-08 11:48:42</time>
      </trkpt>
      <trkpt lat="42.96508" lon="-0.3427">
        <ele>1212.2</ele>
        <time>2022-06-08 11:48:43</time>
      </trkpt>
      <trkpt lat="42.96508" lon="-0.34266">
        <ele>1212.4</ele>
        <time>2022-06-08 11:48:44</time>
      </trkpt>
      <trkpt lat="42.96508" lon="-0.34263">
        <ele>1212.6</ele>
        <time>2022-06-08 11:48:45</time>
      </trkpt>
      <trkpt lat="42.96508" lon="-0.34259">
        <ele>1212.8</ele>
        <time>2022-06-08 11:48:46</time>
      </trkpt>
      <trkpt lat="42.96508" lon="-0.34255">
        <ele>1213.2</ele>
        <time>2022-06-08 11:48:47</time>
      </trkpt>
      <trkpt lat="42.96508" lon="-0.34252">
        <ele>1213.4</ele>
        <time>2022-06-08 11:48:48</time>
      </trkpt>
      <trkpt lat="42.96508" lon="-0.34248">
        <ele>1213.6</ele>
        <time>2022-06-08 11:48:49</time>
      </trkpt>
      <trkpt lat="42.96507" lon="-0.34245">
        <ele>1213.8</ele>
        <time>2022-06-08 11:48:50</time>
      </trkpt>
      <trkpt lat="42.96507" lon="-0.34241">
        <ele>1214</ele>
        <time>2022-06-08 11:48:51</time>
      </trkpt>
      <trkpt lat="42.96507" lon="-0.34238">
        <ele>1214.2</ele>
        <time>2022-06-08 11:48:52</time>
      </trkpt>
      <trkpt lat="42.96506" lon="-0.34234">
        <ele>1214.4</ele>
        <time>2022-06-08 11:48:53</time>
      </trkpt>
      <trkpt lat="42.96506" lon="-0.34231">
        <ele>1214.6</ele>
        <time>2022-06-08 11:48:54</time>
      </trkpt>
      <trkpt lat="42.96506" lon="-0.34227">
        <ele>1214.8</ele>
        <time>2022-06-08 11:48:55</time>
      </trkpt>
      <trkpt lat="42.96506" lon="-0.34223">
        <ele>1215</ele>
        <time>2022-06-08 11:48:56</time>
      </trkpt>
      <trkpt lat="42.96505" lon="-0.34219">
        <ele>1215.2</ele>
        <time>2022-06-08 11:48:57</time>
      </trkpt>
      <trkpt lat="42.96505" lon="-0.34216">
        <ele>1215.8</ele>
        <time>2022-06-08 11:48:58</time>
      </trkpt>
      <trkpt lat="42.96505" lon="-0.34212">
        <ele>1216</ele>
        <time>2022-06-08 11:48:59</time>
      </trkpt>
      <trkpt lat="42.96504" lon="-0.34209">
        <ele>1216.4</ele>
        <time>2022-06-08 11:49:00</time>
      </trkpt>
      <trkpt lat="42.96504" lon="-0.34205">
        <ele>1216.4</ele>
        <time>2022-06-08 11:49:01</time>
      </trkpt>
      <trkpt lat="42.96504" lon="-0.34201">
        <ele>1217</ele>
        <time>2022-06-08 11:49:02</time>
      </trkpt>
      <trkpt lat="42.96504" lon="-0.34198">
        <ele>1217</ele>
        <time>2022-06-08 11:49:03</time>
      </trkpt>
      <trkpt lat="42.96503" lon="-0.34195">
        <ele>1217.4</ele>
        <time>2022-06-08 11:49:04</time>
      </trkpt>
      <trkpt lat="42.96503" lon="-0.34191">
        <ele>1217.6</ele>
        <time>2022-06-08 11:49:05</time>
      </trkpt>
      <trkpt lat="42.96502" lon="-0.34187">
        <ele>1218</ele>
        <time>2022-06-08 11:49:06</time>
      </trkpt>
      <trkpt lat="42.96502" lon="-0.34183">
        <ele>1218</ele>
        <time>2022-06-08 11:49:07</time>
      </trkpt>
      <trkpt lat="42.96502" lon="-0.34179">
        <ele>1218.2</ele>
        <time>2022-06-08 11:49:08</time>
      </trkpt>
      <trkpt lat="42.96501" lon="-0.34176">
        <ele>1218.4</ele>
        <time>2022-06-08 11:49:09</time>
      </trkpt>
      <trkpt lat="42.96501" lon="-0.34172">
        <ele>1218.6</ele>
        <time>2022-06-08 11:49:10</time>
      </trkpt>
      <trkpt lat="42.96501" lon="-0.34168">
        <ele>1218.8</ele>
        <time>2022-06-08 11:49:11</time>
      </trkpt>
      <trkpt lat="42.965" lon="-0.34166">
        <ele>1219.2</ele>
        <time>2022-06-08 11:49:12</time>
      </trkpt>
      <trkpt lat="42.965" lon="-0.34162">
        <ele>1219.4</ele>
        <time>2022-06-08 11:49:13</time>
      </trkpt>
      <trkpt lat="42.96499" lon="-0.34159">
        <ele>1219.8</ele>
        <time>2022-06-08 11:49:14</time>
      </trkpt>
      <trkpt lat="42.96499" lon="-0.34155">
        <ele>1220</ele>
        <time>2022-06-08 11:49:15</time>
      </trkpt>
      <trkpt lat="42.96499" lon="-0.34152">
        <ele>1220</ele>
        <time>2022-06-08 11:49:16</time>
      </trkpt>
      <trkpt lat="42.96499" lon="-0.34148">
        <ele>1220.4</ele>
        <time>2022-06-08 11:49:17</time>
      </trkpt>
      <trkpt lat="42.96499" lon="-0.34145">
        <ele>1220.6</ele>
        <time>2022-06-08 11:49:18</time>
      </trkpt>
      <trkpt lat="42.96499" lon="-0.34141">
        <ele>1221</ele>
        <time>2022-06-08 11:49:19</time>
      </trkpt>
      <trkpt lat="42.96499" lon="-0.34137">
        <ele>1221.2</ele>
        <time>2022-06-08 11:49:20</time>
      </trkpt>
      <trkpt lat="42.96499" lon="-0.34133">
        <ele>1221.6</ele>
        <time>2022-06-08 11:49:21</time>
      </trkpt>
      <trkpt lat="42.96498" lon="-0.34129">
        <ele>1221.8</ele>
        <time>2022-06-08 11:49:22</time>
      </trkpt>
      <trkpt lat="42.96498" lon="-0.34126">
        <ele>1221.8</ele>
        <time>2022-06-08 11:49:23</time>
      </trkpt>
      <trkpt lat="42.96498" lon="-0.34122">
        <ele>1222</ele>
        <time>2022-06-08 11:49:24</time>
      </trkpt>
      <trkpt lat="42.96498" lon="-0.34119">
        <ele>1222.2</ele>
        <time>2022-06-08 11:49:25</time>
      </trkpt>
      <trkpt lat="42.96497" lon="-0.34115">
        <ele>1222.4</ele>
        <time>2022-06-08 11:49:26</time>
      </trkpt>
      <trkpt lat="42.96497" lon="-0.34112">
        <ele>1222.8</ele>
        <time>2022-06-08 11:49:27</time>
      </trkpt>
      <trkpt lat="42.96497" lon="-0.34108">
        <ele>1223</ele>
        <time>2022-06-08 11:49:28</time>
      </trkpt>
      <trkpt lat="42.96497" lon="-0.34104">
        <ele>1223.2</ele>
        <time>2022-06-08 11:49:29</time>
      </trkpt>
      <trkpt lat="42.96497" lon="-0.341">
        <ele>1223.4</ele>
        <time>2022-06-08 11:49:30</time>
      </trkpt>
      <trkpt lat="42.96496" lon="-0.34096">
        <ele>1223.8</ele>
        <time>2022-06-08 11:49:31</time>
      </trkpt>
      <trkpt lat="42.96496" lon="-0.34092">
        <ele>1224.2</ele>
        <time>2022-06-08 11:49:32</time>
      </trkpt>
      <trkpt lat="42.96496" lon="-0.34089">
        <ele>1224.6</ele>
        <time>2022-06-08 11:49:33</time>
      </trkpt>
      <trkpt lat="42.96495" lon="-0.34085">
        <ele>1224.8</ele>
        <time>2022-06-08 11:49:34</time>
      </trkpt>
      <trkpt lat="42.96494" lon="-0.34081">
        <ele>1225</ele>
        <time>2022-06-08 11:49:35</time>
      </trkpt>
      <trkpt lat="42.96494" lon="-0.34078">
        <ele>1225.2</ele>
        <time>2022-06-08 11:49:36</time>
      </trkpt>
      <trkpt lat="42.96493" lon="-0.34074">
        <ele>1225.2</ele>
        <time>2022-06-08 11:49:37</time>
      </trkpt>
      <trkpt lat="42.96492" lon="-0.3407">
        <ele>1225.6</ele>
        <time>2022-06-08 11:49:38</time>
      </trkpt>
      <trkpt lat="42.96491" lon="-0.34066">
        <ele>1225.8</ele>
        <time>2022-06-08 11:49:39</time>
      </trkpt>
      <trkpt lat="42.9649" lon="-0.34063">
        <ele>1226.2</ele>
        <time>2022-06-08 11:49:40</time>
      </trkpt>
      <trkpt lat="42.96489" lon="-0.34059">
        <ele>1226.4</ele>
        <time>2022-06-08 11:49:41</time>
      </trkpt>
      <trkpt lat="42.96488" lon="-0.34055">
        <ele>1226.6</ele>
        <time>2022-06-08 11:49:42</time>
      </trkpt>
      <trkpt lat="42.96487" lon="-0.34052">
        <ele>1226.8</ele>
        <time>2022-06-08 11:49:43</time>
      </trkpt>
      <trkpt lat="42.96486" lon="-0.34049">
        <ele>1227.2</ele>
        <time>2022-06-08 11:49:44</time>
      </trkpt>
      <trkpt lat="42.96485" lon="-0.34046">
        <ele>1227.4</ele>
        <time>2022-06-08 11:49:45</time>
      </trkpt>
      <trkpt lat="42.96485" lon="-0.34043">
        <ele>1227.6</ele>
        <time>2022-06-08 11:49:46</time>
      </trkpt>
      <trkpt lat="42.96484" lon="-0.34039">
        <ele>1227.8</ele>
        <time>2022-06-08 11:49:47</time>
      </trkpt>
      <trkpt lat="42.96483" lon="-0.34036">
        <ele>1228.2</ele>
        <time>2022-06-08 11:49:48</time>
      </trkpt>
      <trkpt lat="42.96482" lon="-0.34032">
        <ele>1228.4</ele>
        <time>2022-06-08 11:49:49</time>
      </trkpt>
      <trkpt lat="42.96482" lon="-0.34029">
        <ele>1228.6</ele>
        <time>2022-06-08 11:49:50</time>
      </trkpt>
      <trkpt lat="42.96481" lon="-0.34026">
        <ele>1228.8</ele>
        <time>2022-06-08 11:49:51</time>
      </trkpt>
      <trkpt lat="42.9648" lon="-0.34023">
        <ele>1229.2</ele>
        <time>2022-06-08 11:49:52</time>
      </trkpt>
      <trkpt lat="42.96479" lon="-0.34019">
        <ele>1229.4</ele>
        <time>2022-06-08 11:49:53</time>
      </trkpt>
      <trkpt lat="42.96479" lon="-0.34015">
        <ele>1229.8</ele>
        <time>2022-06-08 11:49:54</time>
      </trkpt>
      <trkpt lat="42.96478" lon="-0.34012">
        <ele>1230</ele>
        <time>2022-06-08 11:49:55</time>
      </trkpt>
      <trkpt lat="42.96477" lon="-0.34008">
        <ele>1230.2</ele>
        <time>2022-06-08 11:49:56</time>
      </trkpt>
      <trkpt lat="42.96476" lon="-0.34005">
        <ele>1230.8</ele>
        <time>2022-06-08 11:49:57</time>
      </trkpt>
      <trkpt lat="42.96475" lon="-0.34001">
        <ele>1230.6</ele>
        <time>2022-06-08 11:49:58</time>
      </trkpt>
      <trkpt lat="42.96475" lon="-0.33998">
        <ele>1231</ele>
        <time>2022-06-08 11:49:59</time>
      </trkpt>
      <trkpt lat="42.96475" lon="-0.33994">
        <ele>1231</ele>
        <time>2022-06-08 11:50:00</time>
      </trkpt>
      <trkpt lat="42.96474" lon="-0.3399">
        <ele>1231.4</ele>
        <time>2022-06-08 11:50:01</time>
      </trkpt>
      <trkpt lat="42.96474" lon="-0.33987">
        <ele>1231.6</ele>
        <time>2022-06-08 11:50:02</time>
      </trkpt>
      <trkpt lat="42.96474" lon="-0.33982">
        <ele>1232</ele>
        <time>2022-06-08 11:50:03</time>
      </trkpt>
      <trkpt lat="42.96474" lon="-0.33979">
        <ele>1232.4</ele>
        <time>2022-06-08 11:50:04</time>
      </trkpt>
      <trkpt lat="42.96474" lon="-0.33975">
        <ele>1232.4</ele>
        <time>2022-06-08 11:50:05</time>
      </trkpt>
      <trkpt lat="42.96473" lon="-0.33972">
        <ele>1232.6</ele>
        <time>2022-06-08 11:50:06</time>
      </trkpt>
      <trkpt lat="42.96473" lon="-0.33968">
        <ele>1232.8</ele>
        <time>2022-06-08 11:50:07</time>
      </trkpt>
      <trkpt lat="42.96473" lon="-0.33964">
        <ele>1233</ele>
        <time>2022-06-08 11:50:08</time>
      </trkpt>
      <trkpt lat="42.96473" lon="-0.33961">
        <ele>1233.2</ele>
        <time>2022-06-08 11:50:09</time>
      </trkpt>
      <trkpt lat="42.96473" lon="-0.33957">
        <ele>1233.4</ele>
        <time>2022-06-08 11:50:10</time>
      </trkpt>
      <trkpt lat="42.96473" lon="-0.33954">
        <ele>1233.6</ele>
        <time>2022-06-08 11:50:11</time>
      </trkpt>
      <trkpt lat="42.96472" lon="-0.3395">
        <ele>1234.2</ele>
        <time>2022-06-08 11:50:12</time>
      </trkpt>
      <trkpt lat="42.96471" lon="-0.33947">
        <ele>1234.2</ele>
        <time>2022-06-08 11:50:13</time>
      </trkpt>
      <trkpt lat="42.96469" lon="-0.33944">
        <ele>1234.6</ele>
        <time>2022-06-08 11:50:14</time>
      </trkpt>
      <trkpt lat="42.96469" lon="-0.33941">
        <ele>1234.8</ele>
        <time>2022-06-08 11:50:15</time>
      </trkpt>
      <trkpt lat="42.96468" lon="-0.33937">
        <ele>1235</ele>
        <time>2022-06-08 11:50:16</time>
      </trkpt>
      <trkpt lat="42.96468" lon="-0.33934">
        <ele>1235.2</ele>
        <time>2022-06-08 11:50:17</time>
      </trkpt>
      <trkpt lat="42.96467" lon="-0.3393">
        <ele>1235.2</ele>
        <time>2022-06-08 11:50:18</time>
      </trkpt>
      <trkpt lat="42.96466" lon="-0.33927">
        <ele>1235.4</ele>
        <time>2022-06-08 11:50:19</time>
      </trkpt>
      <trkpt lat="42.96465" lon="-0.33924">
        <ele>1236</ele>
        <time>2022-06-08 11:50:20</time>
      </trkpt>
      <trkpt lat="42.96464" lon="-0.33921">
        <ele>1236.4</ele>
        <time>2022-06-08 11:50:21</time>
      </trkpt>
      <trkpt lat="42.96463" lon="-0.33918">
        <ele>1236.4</ele>
        <time>2022-06-08 11:50:22</time>
      </trkpt>
      <trkpt lat="42.96463" lon="-0.33914">
        <ele>1236.8</ele>
        <time>2022-06-08 11:50:23</time>
      </trkpt>
      <trkpt lat="42.96462" lon="-0.33911">
        <ele>1237</ele>
        <time>2022-06-08 11:50:24</time>
      </trkpt>
      <trkpt lat="42.96462" lon="-0.33907">
        <ele>1237.4</ele>
        <time>2022-06-08 11:50:25</time>
      </trkpt>
      <trkpt lat="42.96461" lon="-0.33904">
        <ele>1237.6</ele>
        <time>2022-06-08 11:50:26</time>
      </trkpt>
      <trkpt lat="42.96461" lon="-0.339">
        <ele>1238</ele>
        <time>2022-06-08 11:50:27</time>
      </trkpt>
      <trkpt lat="42.96462" lon="-0.33896">
        <ele>1238.2</ele>
        <time>2022-06-08 11:50:28</time>
      </trkpt>
      <trkpt lat="42.96462" lon="-0.33892">
        <ele>1238.6</ele>
        <time>2022-06-08 11:50:29</time>
      </trkpt>
      <trkpt lat="42.96462" lon="-0.33889">
        <ele>1238.8</ele>
        <time>2022-06-08 11:50:30</time>
      </trkpt>
      <trkpt lat="42.96463" lon="-0.33885">
        <ele>1239.2</ele>
        <time>2022-06-08 11:50:31</time>
      </trkpt>
      <trkpt lat="42.96463" lon="-0.33881">
        <ele>1239.4</ele>
        <time>2022-06-08 11:50:32</time>
      </trkpt>
      <trkpt lat="42.96464" lon="-0.33878">
        <ele>1240</ele>
        <time>2022-06-08 11:50:33</time>
      </trkpt>
      <trkpt lat="42.96464" lon="-0.33875">
        <ele>1239.8</ele>
        <time>2022-06-08 11:50:34</time>
      </trkpt>
      <trkpt lat="42.96465" lon="-0.33871">
        <ele>1240.2</ele>
        <time>2022-06-08 11:50:35</time>
      </trkpt>
      <trkpt lat="42.96465" lon="-0.33867">
        <ele>1240.6</ele>
        <time>2022-06-08 11:50:36</time>
      </trkpt>
      <trkpt lat="42.96465" lon="-0.33864">
        <ele>1241</ele>
        <time>2022-06-08 11:50:37</time>
      </trkpt>
      <trkpt lat="42.96466" lon="-0.3386">
        <ele>1241.4</ele>
        <time>2022-06-08 11:50:38</time>
      </trkpt>
      <trkpt lat="42.96466" lon="-0.33856">
        <ele>1241.6</ele>
        <time>2022-06-08 11:50:39</time>
      </trkpt>
      <trkpt lat="42.96466" lon="-0.33852">
        <ele>1242</ele>
        <time>2022-06-08 11:50:40</time>
      </trkpt>
      <trkpt lat="42.96465" lon="-0.33848">
        <ele>1242.2</ele>
        <time>2022-06-08 11:50:41</time>
      </trkpt>
      <trkpt lat="42.96465" lon="-0.33845">
        <ele>1242.4</ele>
        <time>2022-06-08 11:50:42</time>
      </trkpt>
      <trkpt lat="42.96464" lon="-0.33841">
        <ele>1242.4</ele>
        <time>2022-06-08 11:50:43</time>
      </trkpt>
      <trkpt lat="42.96464" lon="-0.33838">
        <ele>1242.6</ele>
        <time>2022-06-08 11:50:44</time>
      </trkpt>
      <trkpt lat="42.96463" lon="-0.33834">
        <ele>1242.8</ele>
        <time>2022-06-08 11:50:45</time>
      </trkpt>
      <trkpt lat="42.96463" lon="-0.33831">
        <ele>1243.2</ele>
        <time>2022-06-08 11:50:46</time>
      </trkpt>
      <trkpt lat="42.96462" lon="-0.33828">
        <ele>1243.4</ele>
        <time>2022-06-08 11:50:47</time>
      </trkpt>
      <trkpt lat="42.96461" lon="-0.33825">
        <ele>1243.4</ele>
        <time>2022-06-08 11:50:48</time>
      </trkpt>
      <trkpt lat="42.96459" lon="-0.33821">
        <ele>1243.6</ele>
        <time>2022-06-08 11:50:49</time>
      </trkpt>
      <trkpt lat="42.96459" lon="-0.33818">
        <ele>1243.8</ele>
        <time>2022-06-08 11:50:50</time>
      </trkpt>
      <trkpt lat="42.96458" lon="-0.33814">
        <ele>1244.2</ele>
        <time>2022-06-08 11:50:51</time>
      </trkpt>
      <trkpt lat="42.96457" lon="-0.33811">
        <ele>1244.6</ele>
        <time>2022-06-08 11:50:52</time>
      </trkpt>
      <trkpt lat="42.96456" lon="-0.33808">
        <ele>1244.8</ele>
        <time>2022-06-08 11:50:53</time>
      </trkpt>
      <trkpt lat="42.96455" lon="-0.33804">
        <ele>1245.2</ele>
        <time>2022-06-08 11:50:54</time>
      </trkpt>
      <trkpt lat="42.96454" lon="-0.33801">
        <ele>1245.6</ele>
        <time>2022-06-08 11:50:55</time>
      </trkpt>
      <trkpt lat="42.96454" lon="-0.33798">
        <ele>1245.6</ele>
        <time>2022-06-08 11:50:56</time>
      </trkpt>
      <trkpt lat="42.96453" lon="-0.33795">
        <ele>1245.8</ele>
        <time>2022-06-08 11:50:57</time>
      </trkpt>
      <trkpt lat="42.96452" lon="-0.33791">
        <ele>1246</ele>
        <time>2022-06-08 11:50:58</time>
      </trkpt>
      <trkpt lat="42.96452" lon="-0.33788">
        <ele>1246.4</ele>
        <time>2022-06-08 11:50:59</time>
      </trkpt>
      <trkpt lat="42.96451" lon="-0.33785">
        <ele>1246.6</ele>
        <time>2022-06-08 11:51:00</time>
      </trkpt>
      <trkpt lat="42.96451" lon="-0.33782">
        <ele>1247</ele>
        <time>2022-06-08 11:51:01</time>
      </trkpt>
      <trkpt lat="42.96451" lon="-0.33779">
        <ele>1247.2</ele>
        <time>2022-06-08 11:51:02</time>
      </trkpt>
      <trkpt lat="42.96451" lon="-0.33776">
        <ele>1247.8</ele>
        <time>2022-06-08 11:51:03</time>
      </trkpt>
      <trkpt lat="42.96451" lon="-0.33772">
        <ele>1247.8</ele>
        <time>2022-06-08 11:51:04</time>
      </trkpt>
      <trkpt lat="42.96451" lon="-0.33769">
        <ele>1248.2</ele>
        <time>2022-06-08 11:51:05</time>
      </trkpt>
      <trkpt lat="42.96451" lon="-0.33766">
        <ele>1248.2</ele>
        <time>2022-06-08 11:51:06</time>
      </trkpt>
      <trkpt lat="42.9645" lon="-0.33762">
        <ele>1248.6</ele>
        <time>2022-06-08 11:51:07</time>
      </trkpt>
      <trkpt lat="42.9645" lon="-0.33759">
        <ele>1249</ele>
        <time>2022-06-08 11:51:08</time>
      </trkpt>
      <trkpt lat="42.9645" lon="-0.33755">
        <ele>1249.2</ele>
        <time>2022-06-08 11:51:09</time>
      </trkpt>
      <trkpt lat="42.96451" lon="-0.33751">
        <ele>1249.8</ele>
        <time>2022-06-08 11:51:10</time>
      </trkpt>
      <trkpt lat="42.96451" lon="-0.33748">
        <ele>1250</ele>
        <time>2022-06-08 11:51:11</time>
      </trkpt>
      <trkpt lat="42.96451" lon="-0.33745">
        <ele>1250.2</ele>
        <time>2022-06-08 11:51:12</time>
      </trkpt>
      <trkpt lat="42.96451" lon="-0.33742">
        <ele>1250.4</ele>
        <time>2022-06-08 11:51:13</time>
      </trkpt>
      <trkpt lat="42.96451" lon="-0.33739">
        <ele>1250.6</ele>
        <time>2022-06-08 11:51:14</time>
      </trkpt>
      <trkpt lat="42.96451" lon="-0.33736">
        <ele>1250.8</ele>
        <time>2022-06-08 11:51:15</time>
      </trkpt>
      <trkpt lat="42.96451" lon="-0.33733">
        <ele>1251.2</ele>
        <time>2022-06-08 11:51:16</time>
      </trkpt>
      <trkpt lat="42.96451" lon="-0.33731">
        <ele>1251.4</ele>
        <time>2022-06-08 11:51:17</time>
      </trkpt>
      <trkpt lat="42.96451" lon="-0.33728">
        <ele>1251.6</ele>
        <time>2022-06-08 11:51:18</time>
      </trkpt>
      <trkpt lat="42.96451" lon="-0.33725">
        <ele>1251.8</ele>
        <time>2022-06-08 11:51:19</time>
      </trkpt>
      <trkpt lat="42.96451" lon="-0.33722">
        <ele>1252</ele>
        <time>2022-06-08 11:51:20</time>
      </trkpt>
      <trkpt lat="42.96451" lon="-0.33718">
        <ele>1252.2</ele>
        <time>2022-06-08 11:51:21</time>
      </trkpt>
      <trkpt lat="42.96451" lon="-0.33716">
        <ele>1252.8</ele>
        <time>2022-06-08 11:51:22</time>
      </trkpt>
      <trkpt lat="42.96452" lon="-0.33714">
        <ele>1252.8</ele>
        <time>2022-06-08 11:51:23</time>
      </trkpt>
      <trkpt lat="42.96452" lon="-0.33712">
        <ele>1253</ele>
        <time>2022-06-08 11:51:24</time>
      </trkpt>
      <trkpt lat="42.96451" lon="-0.3371">
        <ele>1253.2</ele>
        <time>2022-06-08 11:51:25</time>
      </trkpt>
      <trkpt lat="42.96451" lon="-0.33708">
        <ele>1253.6</ele>
        <time>2022-06-08 11:51:26</time>
      </trkpt>
      <trkpt lat="42.96451" lon="-0.33706">
        <ele>1254</ele>
        <time>2022-06-08 11:51:27</time>
      </trkpt>
      <trkpt lat="42.96451" lon="-0.33704">
        <ele>1254</ele>
        <time>2022-06-08 11:51:28</time>
      </trkpt>
      <trkpt lat="42.9645" lon="-0.33701">
        <ele>1254.4</ele>
        <time>2022-06-08 11:51:29</time>
      </trkpt>
      <trkpt lat="42.96449" lon="-0.33697">
        <ele>1254.6</ele>
        <time>2022-06-08 11:51:30</time>
      </trkpt>
      <trkpt lat="42.96447" lon="-0.33694">
        <ele>1254.8</ele>
        <time>2022-06-08 11:51:31</time>
      </trkpt>
      <trkpt lat="42.96445" lon="-0.33691">
        <ele>1254.8</ele>
        <time>2022-06-08 11:51:32</time>
      </trkpt>
      <trkpt lat="42.96444" lon="-0.33687">
        <ele>1255</ele>
        <time>2022-06-08 11:51:33</time>
      </trkpt>
      <trkpt lat="42.96442" lon="-0.33683">
        <ele>1255.2</ele>
        <time>2022-06-08 11:51:34</time>
      </trkpt>
      <trkpt lat="42.96441" lon="-0.33679">
        <ele>1255.6</ele>
        <time>2022-06-08 11:51:35</time>
      </trkpt>
      <trkpt lat="42.96439" lon="-0.33675">
        <ele>1255.8</ele>
        <time>2022-06-08 11:51:36</time>
      </trkpt>
      <trkpt lat="42.96438" lon="-0.3367">
        <ele>1256</ele>
        <time>2022-06-08 11:51:37</time>
      </trkpt>
      <trkpt lat="42.96438" lon="-0.33667">
        <ele>1256.2</ele>
        <time>2022-06-08 11:51:38</time>
      </trkpt>
      <trkpt lat="42.96438" lon="-0.33664">
        <ele>1256.4</ele>
        <time>2022-06-08 11:51:39</time>
      </trkpt>
      <trkpt lat="42.96437" lon="-0.33659">
        <ele>1256.6</ele>
        <time>2022-06-08 11:51:40</time>
      </trkpt>
      <trkpt lat="42.96437" lon="-0.33656">
        <ele>1256.8</ele>
        <time>2022-06-08 11:51:41</time>
      </trkpt>
      <trkpt lat="42.96436" lon="-0.33652">
        <ele>1257</ele>
        <time>2022-06-08 11:51:42</time>
      </trkpt>
      <trkpt lat="42.96436" lon="-0.33649">
        <ele>1257.4</ele>
        <time>2022-06-08 11:51:43</time>
      </trkpt>
      <trkpt lat="42.96436" lon="-0.33645">
        <ele>1257.8</ele>
        <time>2022-06-08 11:51:44</time>
      </trkpt>
      <trkpt lat="42.96436" lon="-0.33642">
        <ele>1257.8</ele>
        <time>2022-06-08 11:51:45</time>
      </trkpt>
      <trkpt lat="42.96435" lon="-0.33638">
        <ele>1258.2</ele>
        <time>2022-06-08 11:51:46</time>
      </trkpt>
      <trkpt lat="42.96434" lon="-0.33635">
        <ele>1258.2</ele>
        <time>2022-06-08 11:51:47</time>
      </trkpt>
      <trkpt lat="42.96434" lon="-0.33632">
        <ele>1258.6</ele>
        <time>2022-06-08 11:51:48</time>
      </trkpt>
      <trkpt lat="42.96433" lon="-0.33628">
        <ele>1258.8</ele>
        <time>2022-06-08 11:51:49</time>
      </trkpt>
      <trkpt lat="42.96433" lon="-0.33625">
        <ele>1259.2</ele>
        <time>2022-06-08 11:51:50</time>
      </trkpt>
      <trkpt lat="42.96432" lon="-0.33622">
        <ele>1259.4</ele>
        <time>2022-06-08 11:51:51</time>
      </trkpt>
      <trkpt lat="42.96432" lon="-0.33619">
        <ele>1259.6</ele>
        <time>2022-06-08 11:51:52</time>
      </trkpt>
      <trkpt lat="42.96432" lon="-0.33615">
        <ele>1259.8</ele>
        <time>2022-06-08 11:51:53</time>
      </trkpt>
      <trkpt lat="42.96432" lon="-0.33612">
        <ele>1260</ele>
        <time>2022-06-08 11:51:54</time>
      </trkpt>
      <trkpt lat="42.96432" lon="-0.33609">
        <ele>1260.2</ele>
        <time>2022-06-08 11:51:55</time>
      </trkpt>
      <trkpt lat="42.96431" lon="-0.33606">
        <ele>1260.4</ele>
        <time>2022-06-08 11:51:56</time>
      </trkpt>
      <trkpt lat="42.96431" lon="-0.33603">
        <ele>1260.4</ele>
        <time>2022-06-08 11:51:57</time>
      </trkpt>
      <trkpt lat="42.96431" lon="-0.336">
        <ele>1260.8</ele>
        <time>2022-06-08 11:51:58</time>
      </trkpt>
      <trkpt lat="42.9643" lon="-0.33596">
        <ele>1260.8</ele>
        <time>2022-06-08 11:51:59</time>
      </trkpt>
      <trkpt lat="42.96429" lon="-0.33593">
        <ele>1261</ele>
        <time>2022-06-08 11:52:00</time>
      </trkpt>
      <trkpt lat="42.96429" lon="-0.33589">
        <ele>1261.2</ele>
        <time>2022-06-08 11:52:01</time>
      </trkpt>
      <trkpt lat="42.96428" lon="-0.33586">
        <ele>1261.2</ele>
        <time>2022-06-08 11:52:02</time>
      </trkpt>
      <trkpt lat="42.96428" lon="-0.33583">
        <ele>1261.8</ele>
        <time>2022-06-08 11:52:03</time>
      </trkpt>
      <trkpt lat="42.96427" lon="-0.3358">
        <ele>1262</ele>
        <time>2022-06-08 11:52:04</time>
      </trkpt>
      <trkpt lat="42.96427" lon="-0.33577">
        <ele>1262.2</ele>
        <time>2022-06-08 11:52:05</time>
      </trkpt>
      <trkpt lat="42.96427" lon="-0.33574">
        <ele>1262.4</ele>
        <time>2022-06-08 11:52:06</time>
      </trkpt>
      <trkpt lat="42.96426" lon="-0.33571">
        <ele>1262.4</ele>
        <time>2022-06-08 11:52:07</time>
      </trkpt>
      <trkpt lat="42.96426" lon="-0.33568">
        <ele>1262.6</ele>
        <time>2022-06-08 11:52:08</time>
      </trkpt>
      <trkpt lat="42.96425" lon="-0.33565">
        <ele>1263</ele>
        <time>2022-06-08 11:52:09</time>
      </trkpt>
      <trkpt lat="42.96424" lon="-0.33562">
        <ele>1263.2</ele>
        <time>2022-06-08 11:52:10</time>
      </trkpt>
      <trkpt lat="42.96423" lon="-0.33559">
        <ele>1264</ele>
        <time>2022-06-08 11:52:11</time>
      </trkpt>
      <trkpt lat="42.96422" lon="-0.33555">
        <ele>1264.2</ele>
        <time>2022-06-08 11:52:12</time>
      </trkpt>
      <trkpt lat="42.9642" lon="-0.33553">
        <ele>1264.8</ele>
        <time>2022-06-08 11:52:13</time>
      </trkpt>
      <trkpt lat="42.96419" lon="-0.3355">
        <ele>1265</ele>
        <time>2022-06-08 11:52:14</time>
      </trkpt>
      <trkpt lat="42.96418" lon="-0.33547">
        <ele>1265.2</ele>
        <time>2022-06-08 11:52:15</time>
      </trkpt>
      <trkpt lat="42.96417" lon="-0.33544">
        <ele>1265.4</ele>
        <time>2022-06-08 11:52:16</time>
      </trkpt>
      <trkpt lat="42.96416" lon="-0.33541">
        <ele>1265.6</ele>
        <time>2022-06-08 11:52:17</time>
      </trkpt>
      <trkpt lat="42.96415" lon="-0.33537">
        <ele>1265.8</ele>
        <time>2022-06-08 11:52:18</time>
      </trkpt>
      <trkpt lat="42.96413" lon="-0.33535">
        <ele>1266</ele>
        <time>2022-06-08 11:52:19</time>
      </trkpt>
      <trkpt lat="42.96412" lon="-0.33533">
        <ele>1266.4</ele>
        <time>2022-06-08 11:52:20</time>
      </trkpt>
      <trkpt lat="42.96411" lon="-0.3353">
        <ele>1266.6</ele>
        <time>2022-06-08 11:52:21</time>
      </trkpt>
      <trkpt lat="42.9641" lon="-0.33529">
        <ele>1266.8</ele>
        <time>2022-06-08 11:52:22</time>
      </trkpt>
      <trkpt lat="42.96409" lon="-0.33528">
        <ele>1266.8</ele>
        <time>2022-06-08 11:52:23</time>
      </trkpt>
      <trkpt lat="42.96408" lon="-0.33526">
        <ele>1267.2</ele>
        <time>2022-06-08 11:52:24</time>
      </trkpt>
      <trkpt lat="42.96407" lon="-0.33523">
        <ele>1267.2</ele>
        <time>2022-06-08 11:52:25</time>
      </trkpt>
      <trkpt lat="42.96406" lon="-0.3352">
        <ele>1267.6</ele>
        <time>2022-06-08 11:52:26</time>
      </trkpt>
      <trkpt lat="42.96404" lon="-0.33517">
        <ele>1267.6</ele>
        <time>2022-06-08 11:52:27</time>
      </trkpt>
      <trkpt lat="42.96403" lon="-0.33513">
        <ele>1268</ele>
        <time>2022-06-08 11:52:28</time>
      </trkpt>
      <trkpt lat="42.96401" lon="-0.3351">
        <ele>1268</ele>
        <time>2022-06-08 11:52:29</time>
      </trkpt>
      <trkpt lat="42.964" lon="-0.33507">
        <ele>1268.2</ele>
        <time>2022-06-08 11:52:30</time>
      </trkpt>
      <trkpt lat="42.96398" lon="-0.33505">
        <ele>1268.2</ele>
        <time>2022-06-08 11:52:31</time>
      </trkpt>
      <trkpt lat="42.96397" lon="-0.33503">
        <ele>1268.6</ele>
        <time>2022-06-08 11:52:32</time>
      </trkpt>
      <trkpt lat="42.96396" lon="-0.33502">
        <ele>1269</ele>
        <time>2022-06-08 11:52:33</time>
      </trkpt>
      <trkpt lat="42.96395" lon="-0.335">
        <ele>1269</ele>
        <time>2022-06-08 11:52:34</time>
      </trkpt>
      <trkpt lat="42.96394" lon="-0.33498">
        <ele>1269.4</ele>
        <time>2022-06-08 11:52:35</time>
      </trkpt>
      <trkpt lat="42.96394" lon="-0.33495">
        <ele>1269.6</ele>
        <time>2022-06-08 11:52:36</time>
      </trkpt>
      <trkpt lat="42.96392" lon="-0.33491">
        <ele>1269.8</ele>
        <time>2022-06-08 11:52:37</time>
      </trkpt>
      <trkpt lat="42.96391" lon="-0.33488">
        <ele>1270</ele>
        <time>2022-06-08 11:52:38</time>
      </trkpt>
      <trkpt lat="42.96389" lon="-0.33485">
        <ele>1270.4</ele>
        <time>2022-06-08 11:52:39</time>
      </trkpt>
      <trkpt lat="42.96388" lon="-0.33482">
        <ele>1270.4</ele>
        <time>2022-06-08 11:52:40</time>
      </trkpt>
      <trkpt lat="42.96386" lon="-0.3348">
        <ele>1270.8</ele>
        <time>2022-06-08 11:52:41</time>
      </trkpt>
      <trkpt lat="42.96383" lon="-0.33479">
        <ele>1270.8</ele>
        <time>2022-06-08 11:52:42</time>
      </trkpt>
      <trkpt lat="42.96382" lon="-0.33478">
        <ele>1271.4</ele>
        <time>2022-06-08 11:52:43</time>
      </trkpt>
      <trkpt lat="42.9638" lon="-0.33469">
        <ele>1271.4</ele>
        <time>2022-06-08 11:52:44</time>
      </trkpt>
      <trkpt lat="42.96379" lon="-0.33462">
        <ele>1271.6</ele>
        <time>2022-06-08 11:52:45</time>
      </trkpt>
      <trkpt lat="42.96377" lon="-0.33458">
        <ele>1271.8</ele>
        <time>2022-06-08 11:52:46</time>
      </trkpt>
      <trkpt lat="42.96375" lon="-0.33453">
        <ele>1272</ele>
        <time>2022-06-08 11:52:47</time>
      </trkpt>
      <trkpt lat="42.96373" lon="-0.33449">
        <ele>1272</ele>
        <time>2022-06-08 11:52:48</time>
      </trkpt>
      <trkpt lat="42.96372" lon="-0.33446">
        <ele>1272.2</ele>
        <time>2022-06-08 11:52:49</time>
      </trkpt>
      <trkpt lat="42.96369" lon="-0.33442">
        <ele>1272.6</ele>
        <time>2022-06-08 11:52:50</time>
      </trkpt>
      <trkpt lat="42.96367" lon="-0.33439">
        <ele>1272.8</ele>
        <time>2022-06-08 11:52:51</time>
      </trkpt>
      <trkpt lat="42.96366" lon="-0.33436">
        <ele>1273</ele>
        <time>2022-06-08 11:52:52</time>
      </trkpt>
      <trkpt lat="42.96365" lon="-0.33433">
        <ele>1273.2</ele>
        <time>2022-06-08 11:52:53</time>
      </trkpt>
      <trkpt lat="42.96364" lon="-0.3343">
        <ele>1273.6</ele>
        <time>2022-06-08 11:52:54</time>
      </trkpt>
      <trkpt lat="42.96363" lon="-0.33427">
        <ele>1273.6</ele>
        <time>2022-06-08 11:52:55</time>
      </trkpt>
      <trkpt lat="42.96362" lon="-0.33424">
        <ele>1274</ele>
        <time>2022-06-08 11:52:56</time>
      </trkpt>
      <trkpt lat="42.96361" lon="-0.3342">
        <ele>1274.2</ele>
        <time>2022-06-08 11:52:57</time>
      </trkpt>
      <trkpt lat="42.9636" lon="-0.33417">
        <ele>1274.4</ele>
        <time>2022-06-08 11:52:58</time>
      </trkpt>
      <trkpt lat="42.96359" lon="-0.33415">
        <ele>1274.6</ele>
        <time>2022-06-08 11:52:59</time>
      </trkpt>
      <trkpt lat="42.96358" lon="-0.33411">
        <ele>1275</ele>
        <time>2022-06-08 11:53:00</time>
      </trkpt>
      <trkpt lat="42.96357" lon="-0.33408">
        <ele>1275</ele>
        <time>2022-06-08 11:53:01</time>
      </trkpt>
      <trkpt lat="42.96356" lon="-0.33405">
        <ele>1275.4</ele>
        <time>2022-06-08 11:53:02</time>
      </trkpt>
      <trkpt lat="42.96354" lon="-0.33403">
        <ele>1275.6</ele>
        <time>2022-06-08 11:53:03</time>
      </trkpt>
      <trkpt lat="42.96353" lon="-0.334">
        <ele>1275.8</ele>
        <time>2022-06-08 11:53:04</time>
      </trkpt>
      <trkpt lat="42.96352" lon="-0.33397">
        <ele>1275.8</ele>
        <time>2022-06-08 11:53:05</time>
      </trkpt>
      <trkpt lat="42.9635" lon="-0.33394">
        <ele>1276</ele>
        <time>2022-06-08 11:53:06</time>
      </trkpt>
      <trkpt lat="42.96349" lon="-0.33392">
        <ele>1276.4</ele>
        <time>2022-06-08 11:53:07</time>
      </trkpt>
      <trkpt lat="42.96347" lon="-0.33389">
        <ele>1276.6</ele>
        <time>2022-06-08 11:53:08</time>
      </trkpt>
      <trkpt lat="42.96346" lon="-0.33387">
        <ele>1277</ele>
        <time>2022-06-08 11:53:09</time>
      </trkpt>
      <trkpt lat="42.96344" lon="-0.33384">
        <ele>1277</ele>
        <time>2022-06-08 11:53:10</time>
      </trkpt>
      <trkpt lat="42.96343" lon="-0.33382">
        <ele>1277.4</ele>
        <time>2022-06-08 11:53:11</time>
      </trkpt>
      <trkpt lat="42.96342" lon="-0.33379">
        <ele>1277.8</ele>
        <time>2022-06-08 11:53:12</time>
      </trkpt>
      <trkpt lat="42.9634" lon="-0.33377">
        <ele>1278.2</ele>
        <time>2022-06-08 11:53:13</time>
      </trkpt>
      <trkpt lat="42.96338" lon="-0.33374">
        <ele>1278.4</ele>
        <time>2022-06-08 11:53:14</time>
      </trkpt>
      <trkpt lat="42.96336" lon="-0.33371">
        <ele>1278.8</ele>
        <time>2022-06-08 11:53:15</time>
      </trkpt>
      <trkpt lat="42.96335" lon="-0.33368">
        <ele>1279</ele>
        <time>2022-06-08 11:53:16</time>
      </trkpt>
      <trkpt lat="42.96333" lon="-0.33365">
        <ele>1279.4</ele>
        <time>2022-06-08 11:53:17</time>
      </trkpt>
      <trkpt lat="42.96332" lon="-0.33362">
        <ele>1279.6</ele>
        <time>2022-06-08 11:53:18</time>
      </trkpt>
      <trkpt lat="42.9633" lon="-0.33359">
        <ele>1280</ele>
        <time>2022-06-08 11:53:19</time>
      </trkpt>
      <trkpt lat="42.96328" lon="-0.33356">
        <ele>1280</ele>
        <time>2022-06-08 11:53:20</time>
      </trkpt>
      <trkpt lat="42.96327" lon="-0.33354">
        <ele>1280.4</ele>
        <time>2022-06-08 11:53:21</time>
      </trkpt>
      <trkpt lat="42.96326" lon="-0.33352">
        <ele>1280.8</ele>
        <time>2022-06-08 11:53:22</time>
      </trkpt>
      <trkpt lat="42.96325" lon="-0.3335">
        <ele>1281</ele>
        <time>2022-06-08 11:53:23</time>
      </trkpt>
      <trkpt lat="42.96325" lon="-0.33348">
        <ele>1281.4</ele>
        <time>2022-06-08 11:53:24</time>
      </trkpt>
      <trkpt lat="42.96324" lon="-0.33346">
        <ele>1281.6</ele>
        <time>2022-06-08 11:53:25</time>
      </trkpt>
      <trkpt lat="42.96323" lon="-0.33345">
        <ele>1281.8</ele>
        <time>2022-06-08 11:53:26</time>
      </trkpt>
      <trkpt lat="42.96321" lon="-0.33342">
        <ele>1282</ele>
        <time>2022-06-08 11:53:27</time>
      </trkpt>
      <trkpt lat="42.9632" lon="-0.3334">
        <ele>1282.4</ele>
        <time>2022-06-08 11:53:28</time>
      </trkpt>
      <trkpt lat="42.96318" lon="-0.33338">
        <ele>1282.6</ele>
        <time>2022-06-08 11:53:29</time>
      </trkpt>
      <trkpt lat="42.96316" lon="-0.33335">
        <ele>1282.8</ele>
        <time>2022-06-08 11:53:30</time>
      </trkpt>
      <trkpt lat="42.96314" lon="-0.33333">
        <ele>1283</ele>
        <time>2022-06-08 11:53:31</time>
      </trkpt>
      <trkpt lat="42.96312" lon="-0.3333">
        <ele>1283.2</ele>
        <time>2022-06-08 11:53:32</time>
      </trkpt>
      <trkpt lat="42.9631" lon="-0.33328">
        <ele>1283.4</ele>
        <time>2022-06-08 11:53:33</time>
      </trkpt>
      <trkpt lat="42.96308" lon="-0.33326">
        <ele>1283.6</ele>
        <time>2022-06-08 11:53:34</time>
      </trkpt>
      <trkpt lat="42.96305" lon="-0.33323">
        <ele>1283.8</ele>
        <time>2022-06-08 11:53:35</time>
      </trkpt>
      <trkpt lat="42.96302" lon="-0.3332">
        <ele>1284.2</ele>
        <time>2022-06-08 11:53:36</time>
      </trkpt>
      <trkpt lat="42.96299" lon="-0.33318">
        <ele>1284.2</ele>
        <time>2022-06-08 11:53:37</time>
      </trkpt>
      <trkpt lat="42.96297" lon="-0.33316">
        <ele>1284.6</ele>
        <time>2022-06-08 11:53:38</time>
      </trkpt>
      <trkpt lat="42.96295" lon="-0.33314">
        <ele>1284.8</ele>
        <time>2022-06-08 11:53:39</time>
      </trkpt>
      <trkpt lat="42.96293" lon="-0.33312">
        <ele>1285</ele>
        <time>2022-06-08 11:53:40</time>
      </trkpt>
      <trkpt lat="42.96291" lon="-0.3331">
        <ele>1285.4</ele>
        <time>2022-06-08 11:53:41</time>
      </trkpt>
      <trkpt lat="42.96289" lon="-0.33307">
        <ele>1285.4</ele>
        <time>2022-06-08 11:53:42</time>
      </trkpt>
      <trkpt lat="42.96287" lon="-0.33305">
        <ele>1285.8</ele>
        <time>2022-06-08 11:53:43</time>
      </trkpt>
      <trkpt lat="42.96285" lon="-0.33302">
        <ele>1286</ele>
        <time>2022-06-08 11:53:44</time>
      </trkpt>
      <trkpt lat="42.96284" lon="-0.33299">
        <ele>1286.4</ele>
        <time>2022-06-08 11:53:45</time>
      </trkpt>
      <trkpt lat="42.96282" lon="-0.33297">
        <ele>1286.6</ele>
        <time>2022-06-08 11:53:46</time>
      </trkpt>
      <trkpt lat="42.96279" lon="-0.33295">
        <ele>1287</ele>
        <time>2022-06-08 11:53:47</time>
      </trkpt>
      <trkpt lat="42.96277" lon="-0.33292">
        <ele>1287.2</ele>
        <time>2022-06-08 11:53:48</time>
      </trkpt>
      <trkpt lat="42.96274" lon="-0.3329">
        <ele>1287.4</ele>
        <time>2022-06-08 11:53:49</time>
      </trkpt>
      <trkpt lat="42.96272" lon="-0.33288">
        <ele>1287.8</ele>
        <time>2022-06-08 11:53:50</time>
      </trkpt>
      <trkpt lat="42.9627" lon="-0.33287">
        <ele>1288</ele>
        <time>2022-06-08 11:53:51</time>
      </trkpt>
      <trkpt lat="42.96267" lon="-0.33285">
        <ele>1288.2</ele>
        <time>2022-06-08 11:53:52</time>
      </trkpt>
      <trkpt lat="42.96265" lon="-0.33284">
        <ele>1288.2</ele>
        <time>2022-06-08 11:53:53</time>
      </trkpt>
      <trkpt lat="42.96264" lon="-0.33282">
        <ele>1288.6</ele>
        <time>2022-06-08 11:53:54</time>
      </trkpt>
      <trkpt lat="42.96262" lon="-0.33281">
        <ele>1288.8</ele>
        <time>2022-06-08 11:53:55</time>
      </trkpt>
      <trkpt lat="42.9626" lon="-0.33279">
        <ele>1289.2</ele>
        <time>2022-06-08 11:53:56</time>
      </trkpt>
      <trkpt lat="42.96258" lon="-0.33278">
        <ele>1289.4</ele>
        <time>2022-06-08 11:53:57</time>
      </trkpt>
      <trkpt lat="42.96257" lon="-0.33276">
        <ele>1289.6</ele>
        <time>2022-06-08 11:53:58</time>
      </trkpt>
      <trkpt lat="42.96255" lon="-0.33274">
        <ele>1289.8</ele>
        <time>2022-06-08 11:53:59</time>
      </trkpt>
      <trkpt lat="42.96253" lon="-0.33272">
        <ele>1289.8</ele>
        <time>2022-06-08 11:54:00</time>
      </trkpt>
      <trkpt lat="42.96252" lon="-0.3327">
        <ele>1290</ele>
        <time>2022-06-08 11:54:01</time>
      </trkpt>
      <trkpt lat="42.96249" lon="-0.33268">
        <ele>1290.4</ele>
        <time>2022-06-08 11:54:02</time>
      </trkpt>
      <trkpt lat="42.96247" lon="-0.33267">
        <ele>1290.6</ele>
        <time>2022-06-08 11:54:03</time>
      </trkpt>
      <trkpt lat="42.96244" lon="-0.33267">
        <ele>1291</ele>
        <time>2022-06-08 11:54:04</time>
      </trkpt>
      <trkpt lat="42.96242" lon="-0.33266">
        <ele>1291.2</ele>
        <time>2022-06-08 11:54:05</time>
      </trkpt>
      <trkpt lat="42.9624" lon="-0.33265">
        <ele>1291.4</ele>
        <time>2022-06-08 11:54:06</time>
      </trkpt>
      <trkpt lat="42.96237" lon="-0.33264">
        <ele>1291.6</ele>
        <time>2022-06-08 11:54:07</time>
      </trkpt>
      <trkpt lat="42.96234" lon="-0.33264">
        <ele>1291.8</ele>
        <time>2022-06-08 11:54:08</time>
      </trkpt>
      <trkpt lat="42.96231" lon="-0.33263">
        <ele>1291.8</ele>
        <time>2022-06-08 11:54:09</time>
      </trkpt>
      <trkpt lat="42.96228" lon="-0.33262">
        <ele>1292.2</ele>
        <time>2022-06-08 11:54:10</time>
      </trkpt>
      <trkpt lat="42.96226" lon="-0.33262">
        <ele>1292.6</ele>
        <time>2022-06-08 11:54:11</time>
      </trkpt>
      <trkpt lat="42.96223" lon="-0.33262">
        <ele>1292.6</ele>
        <time>2022-06-08 11:54:12</time>
      </trkpt>
      <trkpt lat="42.9622" lon="-0.33262">
        <ele>1293</ele>
        <time>2022-06-08 11:54:13</time>
      </trkpt>
      <trkpt lat="42.96218" lon="-0.33261">
        <ele>1293.2</ele>
        <time>2022-06-08 11:54:14</time>
      </trkpt>
      <trkpt lat="42.96215" lon="-0.3326">
        <ele>1293.6</ele>
        <time>2022-06-08 11:54:15</time>
      </trkpt>
      <trkpt lat="42.96212" lon="-0.33261">
        <ele>1293.8</ele>
        <time>2022-06-08 11:54:16</time>
      </trkpt>
      <trkpt lat="42.9621" lon="-0.33261">
        <ele>1294</ele>
        <time>2022-06-08 11:54:17</time>
      </trkpt>
      <trkpt lat="42.96207" lon="-0.3326">
        <ele>1294</ele>
        <time>2022-06-08 11:54:18</time>
      </trkpt>
      <trkpt lat="42.96205" lon="-0.33259">
        <ele>1294.4</ele>
        <time>2022-06-08 11:54:19</time>
      </trkpt>
      <trkpt lat="42.96202" lon="-0.33258">
        <ele>1294.6</ele>
        <time>2022-06-08 11:54:20</time>
      </trkpt>
      <trkpt lat="42.96199" lon="-0.33258">
        <ele>1294.8</ele>
        <time>2022-06-08 11:54:21</time>
      </trkpt>
      <trkpt lat="42.96197" lon="-0.33258">
        <ele>1295</ele>
        <time>2022-06-08 11:54:22</time>
      </trkpt>
      <trkpt lat="42.96194" lon="-0.33258">
        <ele>1295.4</ele>
        <time>2022-06-08 11:54:23</time>
      </trkpt>
      <trkpt lat="42.96192" lon="-0.33258">
        <ele>1295.6</ele>
        <time>2022-06-08 11:54:24</time>
      </trkpt>
      <trkpt lat="42.96189" lon="-0.33258">
        <ele>1295.8</ele>
        <time>2022-06-08 11:54:25</time>
      </trkpt>
      <trkpt lat="42.96186" lon="-0.33258">
        <ele>1296</ele>
        <time>2022-06-08 11:54:26</time>
      </trkpt>
      <trkpt lat="42.96184" lon="-0.33257">
        <ele>1296.2</ele>
        <time>2022-06-08 11:54:27</time>
      </trkpt>
      <trkpt lat="42.96181" lon="-0.33257">
        <ele>1296.4</ele>
        <time>2022-06-08 11:54:28</time>
      </trkpt>
      <trkpt lat="42.96179" lon="-0.33257">
        <ele>1296.4</ele>
        <time>2022-06-08 11:54:29</time>
      </trkpt>
      <trkpt lat="42.96177" lon="-0.33257">
        <ele>1296.8</ele>
        <time>2022-06-08 11:54:30</time>
      </trkpt>
      <trkpt lat="42.96174" lon="-0.33257">
        <ele>1297</ele>
        <time>2022-06-08 11:54:31</time>
      </trkpt>
      <trkpt lat="42.96172" lon="-0.33257">
        <ele>1297.4</ele>
        <time>2022-06-08 11:54:32</time>
      </trkpt>
      <trkpt lat="42.9617" lon="-0.33257">
        <ele>1297.8</ele>
        <time>2022-06-08 11:54:33</time>
      </trkpt>
      <trkpt lat="42.96167" lon="-0.33257">
        <ele>1298.2</ele>
        <time>2022-06-08 11:54:34</time>
      </trkpt>
      <trkpt lat="42.96165" lon="-0.33258">
        <ele>1298</ele>
        <time>2022-06-08 11:54:35</time>
      </trkpt>
      <trkpt lat="42.96162" lon="-0.33258">
        <ele>1298.4</ele>
        <time>2022-06-08 11:54:36</time>
      </trkpt>
      <trkpt lat="42.9616" lon="-0.33259">
        <ele>1298.8</ele>
        <time>2022-06-08 11:54:37</time>
      </trkpt>
      <trkpt lat="42.96158" lon="-0.33259">
        <ele>1299.2</ele>
        <time>2022-06-08 11:54:38</time>
      </trkpt>
      <trkpt lat="42.96156" lon="-0.3326">
        <ele>1299.4</ele>
        <time>2022-06-08 11:54:39</time>
      </trkpt>
      <trkpt lat="42.96154" lon="-0.33261">
        <ele>1299.6</ele>
        <time>2022-06-08 11:54:40</time>
      </trkpt>
      <trkpt lat="42.96151" lon="-0.33262">
        <ele>1299.8</ele>
        <time>2022-06-08 11:54:41</time>
      </trkpt>
      <trkpt lat="42.96148" lon="-0.33264">
        <ele>1300.2</ele>
        <time>2022-06-08 11:54:42</time>
      </trkpt>
      <trkpt lat="42.96146" lon="-0.33266">
        <ele>1300.4</ele>
        <time>2022-06-08 11:54:43</time>
      </trkpt>
      <trkpt lat="42.96144" lon="-0.33269">
        <ele>1300.6</ele>
        <time>2022-06-08 11:54:44</time>
      </trkpt>
      <trkpt lat="42.96142" lon="-0.33271">
        <ele>1301.2</ele>
        <time>2022-06-08 11:54:45</time>
      </trkpt>
      <trkpt lat="42.9614" lon="-0.33273">
        <ele>1301.4</ele>
        <time>2022-06-08 11:54:46</time>
      </trkpt>
      <trkpt lat="42.96138" lon="-0.33276">
        <ele>1301.6</ele>
        <time>2022-06-08 11:54:47</time>
      </trkpt>
      <trkpt lat="42.96136" lon="-0.33278">
        <ele>1301.6</ele>
        <time>2022-06-08 11:54:48</time>
      </trkpt>
      <trkpt lat="42.96134" lon="-0.3328">
        <ele>1301.8</ele>
        <time>2022-06-08 11:54:49</time>
      </trkpt>
      <trkpt lat="42.96132" lon="-0.33282">
        <ele>1301.8</ele>
        <time>2022-06-08 11:54:50</time>
      </trkpt>
      <trkpt lat="42.9613" lon="-0.33285">
        <ele>1302.2</ele>
        <time>2022-06-08 11:54:51</time>
      </trkpt>
      <trkpt lat="42.96128" lon="-0.33287">
        <ele>1302.2</ele>
        <time>2022-06-08 11:54:52</time>
      </trkpt>
      <trkpt lat="42.96126" lon="-0.33289">
        <ele>1302.6</ele>
        <time>2022-06-08 11:54:53</time>
      </trkpt>
      <trkpt lat="42.96124" lon="-0.33291">
        <ele>1302.6</ele>
        <time>2022-06-08 11:54:54</time>
      </trkpt>
      <trkpt lat="42.96122" lon="-0.33293">
        <ele>1303</ele>
        <time>2022-06-08 11:54:55</time>
      </trkpt>
      <trkpt lat="42.9612" lon="-0.33295">
        <ele>1303.2</ele>
        <time>2022-06-08 11:54:56</time>
      </trkpt>
      <trkpt lat="42.96118" lon="-0.33297">
        <ele>1303.6</ele>
        <time>2022-06-08 11:54:57</time>
      </trkpt>
      <trkpt lat="42.96116" lon="-0.33298">
        <ele>1303.8</ele>
        <time>2022-06-08 11:54:58</time>
      </trkpt>
      <trkpt lat="42.96114" lon="-0.33299">
        <ele>1304</ele>
        <time>2022-06-08 11:54:59</time>
      </trkpt>
      <trkpt lat="42.96112" lon="-0.33299">
        <ele>1304.6</ele>
        <time>2022-06-08 11:55:00</time>
      </trkpt>
      <trkpt lat="42.96109" lon="-0.333">
        <ele>1304.8</ele>
        <time>2022-06-08 11:55:01</time>
      </trkpt>
      <trkpt lat="42.96107" lon="-0.333">
        <ele>1305</ele>
        <time>2022-06-08 11:55:02</time>
      </trkpt>
      <trkpt lat="42.96104" lon="-0.33299">
        <ele>1305.2</ele>
        <time>2022-06-08 11:55:03</time>
      </trkpt>
      <trkpt lat="42.96102" lon="-0.33299">
        <ele>1305.6</ele>
        <time>2022-06-08 11:55:04</time>
      </trkpt>
      <trkpt lat="42.961" lon="-0.33298">
        <ele>1305.6</ele>
        <time>2022-06-08 11:55:05</time>
      </trkpt>
      <trkpt lat="42.96097" lon="-0.33297">
        <ele>1306</ele>
        <time>2022-06-08 11:55:06</time>
      </trkpt>
      <trkpt lat="42.96095" lon="-0.33296">
        <ele>1306</ele>
        <time>2022-06-08 11:55:07</time>
      </trkpt>
      <trkpt lat="42.96093" lon="-0.33294">
        <ele>1306.4</ele>
        <time>2022-06-08 11:55:08</time>
      </trkpt>
      <trkpt lat="42.9609" lon="-0.33291">
        <ele>1306.4</ele>
        <time>2022-06-08 11:55:09</time>
      </trkpt>
      <trkpt lat="42.96088" lon="-0.33289">
        <ele>1306.8</ele>
        <time>2022-06-08 11:55:10</time>
      </trkpt>
      <trkpt lat="42.96086" lon="-0.33286">
        <ele>1306.8</ele>
        <time>2022-06-08 11:55:11</time>
      </trkpt>
      <trkpt lat="42.96084" lon="-0.33284">
        <ele>1307</ele>
        <time>2022-06-08 11:55:12</time>
      </trkpt>
      <trkpt lat="42.96082" lon="-0.33283">
        <ele>1307.2</ele>
        <time>2022-06-08 11:55:13</time>
      </trkpt>
      <trkpt lat="42.9608" lon="-0.33282">
        <ele>1307.6</ele>
        <time>2022-06-08 11:55:14</time>
      </trkpt>
      <trkpt lat="42.96078" lon="-0.3328">
        <ele>1307.6</ele>
        <time>2022-06-08 11:55:15</time>
      </trkpt>
      <trkpt lat="42.96076" lon="-0.33277">
        <ele>1308</ele>
        <time>2022-06-08 11:55:16</time>
      </trkpt>
      <trkpt lat="42.96074" lon="-0.33275">
        <ele>1308.6</ele>
        <time>2022-06-08 11:55:17</time>
      </trkpt>
      <trkpt lat="42.96072" lon="-0.33274">
        <ele>1308.8</ele>
        <time>2022-06-08 11:55:18</time>
      </trkpt>
      <trkpt lat="42.9607" lon="-0.33273">
        <ele>1309</ele>
        <time>2022-06-08 11:55:19</time>
      </trkpt>
      <trkpt lat="42.96067" lon="-0.33272">
        <ele>1309.2</ele>
        <time>2022-06-08 11:55:20</time>
      </trkpt>
      <trkpt lat="42.96065" lon="-0.33271">
        <ele>1309.4</ele>
        <time>2022-06-08 11:55:21</time>
      </trkpt>
      <trkpt lat="42.96062" lon="-0.33271">
        <ele>1309.6</ele>
        <time>2022-06-08 11:55:22</time>
      </trkpt>
      <trkpt lat="42.96059" lon="-0.33272">
        <ele>1309.8</ele>
        <time>2022-06-08 11:55:23</time>
      </trkpt>
      <trkpt lat="42.96056" lon="-0.33273">
        <ele>1310</ele>
        <time>2022-06-08 11:55:24</time>
      </trkpt>
      <trkpt lat="42.96053" lon="-0.33274">
        <ele>1310.4</ele>
        <time>2022-06-08 11:55:25</time>
      </trkpt>
      <trkpt lat="42.96051" lon="-0.33275">
        <ele>1310.8</ele>
        <time>2022-06-08 11:55:26</time>
      </trkpt>
      <trkpt lat="42.96048" lon="-0.33276">
        <ele>1311</ele>
        <time>2022-06-08 11:55:27</time>
      </trkpt>
      <trkpt lat="42.96046" lon="-0.33275">
        <ele>1311.2</ele>
        <time>2022-06-08 11:55:28</time>
      </trkpt>
      <trkpt lat="42.96044" lon="-0.33277">
        <ele>1311.4</ele>
        <time>2022-06-08 11:55:29</time>
      </trkpt>
      <trkpt lat="42.96042" lon="-0.33278">
        <ele>1311.6</ele>
        <time>2022-06-08 11:55:30</time>
      </trkpt>
      <trkpt lat="42.96039" lon="-0.33279">
        <ele>1312</ele>
        <time>2022-06-08 11:55:31</time>
      </trkpt>
      <trkpt lat="42.96037" lon="-0.33281">
        <ele>1312.2</ele>
        <time>2022-06-08 11:55:32</time>
      </trkpt>
      <trkpt lat="42.96035" lon="-0.33282">
        <ele>1312.4</ele>
        <time>2022-06-08 11:55:33</time>
      </trkpt>
      <trkpt lat="42.96033" lon="-0.33283">
        <ele>1312.6</ele>
        <time>2022-06-08 11:55:34</time>
      </trkpt>
      <trkpt lat="42.96031" lon="-0.33284">
        <ele>1312.8</ele>
        <time>2022-06-08 11:55:35</time>
      </trkpt>
      <trkpt lat="42.96029" lon="-0.33285">
        <ele>1312.8</ele>
        <time>2022-06-08 11:55:36</time>
      </trkpt>
      <trkpt lat="42.96026" lon="-0.33287">
        <ele>1313</ele>
        <time>2022-06-08 11:55:37</time>
      </trkpt>
      <trkpt lat="42.96024" lon="-0.33288">
        <ele>1313.4</ele>
        <time>2022-06-08 11:55:38</time>
      </trkpt>
      <trkpt lat="42.96023" lon="-0.3329">
        <ele>1313.6</ele>
        <time>2022-06-08 11:55:39</time>
      </trkpt>
      <trkpt lat="42.96021" lon="-0.33291">
        <ele>1314</ele>
        <time>2022-06-08 11:55:40</time>
      </trkpt>
      <trkpt lat="42.96019" lon="-0.33292">
        <ele>1314.2</ele>
        <time>2022-06-08 11:55:41</time>
      </trkpt>
      <trkpt lat="42.96016" lon="-0.33294">
        <ele>1314.6</ele>
        <time>2022-06-08 11:55:42</time>
      </trkpt>
      <trkpt lat="42.96015" lon="-0.33295">
        <ele>1314.8</ele>
        <time>2022-06-08 11:55:43</time>
      </trkpt>
      <trkpt lat="42.96013" lon="-0.33296">
        <ele>1315</ele>
        <time>2022-06-08 11:55:44</time>
      </trkpt>
      <trkpt lat="42.96011" lon="-0.33297">
        <ele>1315</ele>
        <time>2022-06-08 11:55:45</time>
      </trkpt>
      <trkpt lat="42.96008" lon="-0.33298">
        <ele>1315.4</ele>
        <time>2022-06-08 11:55:46</time>
      </trkpt>
      <trkpt lat="42.96004" lon="-0.333">
        <ele>1315.6</ele>
        <time>2022-06-08 11:55:47</time>
      </trkpt>
      <trkpt lat="42.96002" lon="-0.333">
        <ele>1315.8</ele>
        <time>2022-06-08 11:55:48</time>
      </trkpt>
      <trkpt lat="42.95999" lon="-0.33301">
        <ele>1316</ele>
        <time>2022-06-08 11:55:49</time>
      </trkpt>
      <trkpt lat="42.95996" lon="-0.33303">
        <ele>1316.4</ele>
        <time>2022-06-08 11:55:50</time>
      </trkpt>
      <trkpt lat="42.95993" lon="-0.33304">
        <ele>1316.6</ele>
        <time>2022-06-08 11:55:51</time>
      </trkpt>
      <trkpt lat="42.9599" lon="-0.33306">
        <ele>1316.8</ele>
        <time>2022-06-08 11:55:52</time>
      </trkpt>
      <trkpt lat="42.95987" lon="-0.33307">
        <ele>1317</ele>
        <time>2022-06-08 11:55:53</time>
      </trkpt>
      <trkpt lat="42.95985" lon="-0.33306">
        <ele>1317</ele>
        <time>2022-06-08 11:55:54</time>
      </trkpt>
      <trkpt lat="42.95981" lon="-0.33307">
        <ele>1317.4</ele>
        <time>2022-06-08 11:55:55</time>
      </trkpt>
      <trkpt lat="42.95979" lon="-0.33308">
        <ele>1317.6</ele>
        <time>2022-06-08 11:55:56</time>
      </trkpt>
      <trkpt lat="42.95976" lon="-0.3331">
        <ele>1317.8</ele>
        <time>2022-06-08 11:55:57</time>
      </trkpt>
      <trkpt lat="42.95974" lon="-0.33311">
        <ele>1318</ele>
        <time>2022-06-08 11:55:58</time>
      </trkpt>
      <trkpt lat="42.95971" lon="-0.33312">
        <ele>1318.2</ele>
        <time>2022-06-08 11:55:59</time>
      </trkpt>
      <trkpt lat="42.95969" lon="-0.33313">
        <ele>1318.4</ele>
        <time>2022-06-08 11:56:00</time>
      </trkpt>
      <trkpt lat="42.95966" lon="-0.33313">
        <ele>1318.8</ele>
        <time>2022-06-08 11:56:01</time>
      </trkpt>
      <trkpt lat="42.95964" lon="-0.33313">
        <ele>1319</ele>
        <time>2022-06-08 11:56:02</time>
      </trkpt>
      <trkpt lat="42.9596" lon="-0.33315">
        <ele>1319.2</ele>
        <time>2022-06-08 11:56:03</time>
      </trkpt>
      <trkpt lat="42.95958" lon="-0.33316">
        <ele>1319.4</ele>
        <time>2022-06-08 11:56:04</time>
      </trkpt>
      <trkpt lat="42.95955" lon="-0.33317">
        <ele>1319.6</ele>
        <time>2022-06-08 11:56:05</time>
      </trkpt>
      <trkpt lat="42.95951" lon="-0.33319">
        <ele>1319.8</ele>
        <time>2022-06-08 11:56:06</time>
      </trkpt>
      <trkpt lat="42.95949" lon="-0.33318">
        <ele>1319.8</ele>
        <time>2022-06-08 11:56:07</time>
      </trkpt>
      <trkpt lat="42.95946" lon="-0.33317">
        <ele>1320</ele>
        <time>2022-06-08 11:56:08</time>
      </trkpt>
      <trkpt lat="42.95943" lon="-0.33317">
        <ele>1320.2</ele>
        <time>2022-06-08 11:56:09</time>
      </trkpt>
      <trkpt lat="42.9594" lon="-0.33317">
        <ele>1320.6</ele>
        <time>2022-06-08 11:56:10</time>
      </trkpt>
      <trkpt lat="42.95937" lon="-0.33316">
        <ele>1320.8</ele>
        <time>2022-06-08 11:56:11</time>
      </trkpt>
      <trkpt lat="42.95934" lon="-0.33315">
        <ele>1321</ele>
        <time>2022-06-08 11:56:12</time>
      </trkpt>
      <trkpt lat="42.95932" lon="-0.33314">
        <ele>1321.4</ele>
        <time>2022-06-08 11:56:13</time>
      </trkpt>
      <trkpt lat="42.9593" lon="-0.33313">
        <ele>1321.6</ele>
        <time>2022-06-08 11:56:14</time>
      </trkpt>
      <trkpt lat="42.95929" lon="-0.33311">
        <ele>1321.8</ele>
        <time>2022-06-08 11:56:15</time>
      </trkpt>
      <trkpt lat="42.95927" lon="-0.33311">
        <ele>1322</ele>
        <time>2022-06-08 11:56:16</time>
      </trkpt>
      <trkpt lat="42.95925" lon="-0.3331">
        <ele>1322.2</ele>
        <time>2022-06-08 11:56:17</time>
      </trkpt>
      <trkpt lat="42.95923" lon="-0.33309">
        <ele>1322.6</ele>
        <time>2022-06-08 11:56:18</time>
      </trkpt>
      <trkpt lat="42.9592" lon="-0.33309">
        <ele>1322.6</ele>
        <time>2022-06-08 11:56:19</time>
      </trkpt>
      <trkpt lat="42.95917" lon="-0.33308">
        <ele>1322.8</ele>
        <time>2022-06-08 11:56:20</time>
      </trkpt>
      <trkpt lat="42.95914" lon="-0.33308">
        <ele>1322.8</ele>
        <time>2022-06-08 11:56:21</time>
      </trkpt>
      <trkpt lat="42.95911" lon="-0.33307">
        <ele>1323</ele>
        <time>2022-06-08 11:56:22</time>
      </trkpt>
      <trkpt lat="42.95908" lon="-0.33306">
        <ele>1323.2</ele>
        <time>2022-06-08 11:56:23</time>
      </trkpt>
      <trkpt lat="42.95905" lon="-0.33305">
        <ele>1323.2</ele>
        <time>2022-06-08 11:56:24</time>
      </trkpt>
      <trkpt lat="42.95902" lon="-0.33305">
        <ele>1323.2</ele>
        <time>2022-06-08 11:56:25</time>
      </trkpt>
      <trkpt lat="42.95899" lon="-0.33305">
        <ele>1323.4</ele>
        <time>2022-06-08 11:56:26</time>
      </trkpt>
      <trkpt lat="42.95896" lon="-0.33306">
        <ele>1323.6</ele>
        <time>2022-06-08 11:56:27</time>
      </trkpt>
      <trkpt lat="42.95893" lon="-0.33306">
        <ele>1323.8</ele>
        <time>2022-06-08 11:56:28</time>
      </trkpt>
      <trkpt lat="42.9589" lon="-0.33307">
        <ele>1323.8</ele>
        <time>2022-06-08 11:56:29</time>
      </trkpt>
      <trkpt lat="42.95887" lon="-0.33307">
        <ele>1323.8</ele>
        <time>2022-06-08 11:56:30</time>
      </trkpt>
      <trkpt lat="42.95884" lon="-0.33308">
        <ele>1323.8</ele>
        <time>2022-06-08 11:56:31</time>
      </trkpt>
      <trkpt lat="42.95881" lon="-0.33308">
        <ele>1323.8</ele>
        <time>2022-06-08 11:56:32</time>
      </trkpt>
      <trkpt lat="42.95877" lon="-0.33308">
        <ele>1323.8</ele>
        <time>2022-06-08 11:56:33</time>
      </trkpt>
      <trkpt lat="42.95874" lon="-0.33309">
        <ele>1323.8</ele>
        <time>2022-06-08 11:56:34</time>
      </trkpt>
      <trkpt lat="42.9587" lon="-0.33309">
        <ele>1323.8</ele>
        <time>2022-06-08 11:56:35</time>
      </trkpt>
      <trkpt lat="42.95867" lon="-0.33309">
        <ele>1323.8</ele>
        <time>2022-06-08 11:56:36</time>
      </trkpt>
      <trkpt lat="42.95863" lon="-0.33308">
        <ele>1324</ele>
        <time>2022-06-08 11:56:37</time>
      </trkpt>
      <trkpt lat="42.95859" lon="-0.33307">
        <ele>1324.2</ele>
        <time>2022-06-08 11:56:38</time>
      </trkpt>
      <trkpt lat="42.95855" lon="-0.33306">
        <ele>1324</ele>
        <time>2022-06-08 11:56:39</time>
      </trkpt>
      <trkpt lat="42.95851" lon="-0.33305">
        <ele>1324.6</ele>
        <time>2022-06-08 11:56:40</time>
      </trkpt>
      <trkpt lat="42.95847" lon="-0.33304">
        <ele>1324.8</ele>
        <time>2022-06-08 11:56:41</time>
      </trkpt>
      <trkpt lat="42.95844" lon="-0.33302">
        <ele>1324.8</ele>
        <time>2022-06-08 11:56:42</time>
      </trkpt>
      <trkpt lat="42.95841" lon="-0.33301">
        <ele>1325</ele>
        <time>2022-06-08 11:56:43</time>
      </trkpt>
      <trkpt lat="42.95838" lon="-0.33299">
        <ele>1325</ele>
        <time>2022-06-08 11:56:44</time>
      </trkpt>
      <trkpt lat="42.95834" lon="-0.33296">
        <ele>1325</ele>
        <time>2022-06-08 11:56:45</time>
      </trkpt>
      <trkpt lat="42.95831" lon="-0.33293">
        <ele>1325.2</ele>
        <time>2022-06-08 11:56:46</time>
      </trkpt>
      <trkpt lat="42.95827" lon="-0.3329">
        <ele>1325.2</ele>
        <time>2022-06-08 11:56:47</time>
      </trkpt>
      <trkpt lat="42.95824" lon="-0.33287">
        <ele>1325.4</ele>
        <time>2022-06-08 11:56:48</time>
      </trkpt>
      <trkpt lat="42.9582" lon="-0.33282">
        <ele>1325.4</ele>
        <time>2022-06-08 11:56:49</time>
      </trkpt>
      <trkpt lat="42.95817" lon="-0.33278">
        <ele>1325.6</ele>
        <time>2022-06-08 11:56:50</time>
      </trkpt>
      <trkpt lat="42.95814" lon="-0.33274">
        <ele>1325.6</ele>
        <time>2022-06-08 11:56:51</time>
      </trkpt>
      <trkpt lat="42.95811" lon="-0.3327">
        <ele>1325.6</ele>
        <time>2022-06-08 11:56:52</time>
      </trkpt>
      <trkpt lat="42.95809" lon="-0.33264">
        <ele>1325.8</ele>
        <time>2022-06-08 11:56:53</time>
      </trkpt>
      <trkpt lat="42.95805" lon="-0.33258">
        <ele>1326</ele>
        <time>2022-06-08 11:56:54</time>
      </trkpt>
      <trkpt lat="42.95805" lon="-0.33251">
        <ele>1326.2</ele>
        <time>2022-06-08 11:56:55</time>
      </trkpt>
      <trkpt lat="42.95806" lon="-0.33245">
        <ele>1326.4</ele>
        <time>2022-06-08 11:56:56</time>
      </trkpt>
      <trkpt lat="42.95808" lon="-0.33242">
        <ele>1326.4</ele>
        <time>2022-06-08 11:56:57</time>
      </trkpt>
      <trkpt lat="42.95812" lon="-0.33239">
        <ele>1326.4</ele>
        <time>2022-06-08 11:56:58</time>
      </trkpt>
      <trkpt lat="42.95816" lon="-0.33237">
        <ele>1326.6</ele>
        <time>2022-06-08 11:56:59</time>
      </trkpt>
      <trkpt lat="42.9582" lon="-0.33233">
        <ele>1326.6</ele>
        <time>2022-06-08 11:57:00</time>
      </trkpt>
      <trkpt lat="42.95824" lon="-0.33232">
        <ele>1326.8</ele>
        <time>2022-06-08 11:57:01</time>
      </trkpt>
      <trkpt lat="42.95827" lon="-0.33231">
        <ele>1327</ele>
        <time>2022-06-08 11:57:02</time>
      </trkpt>
      <trkpt lat="42.9583" lon="-0.33231">
        <ele>1327.2</ele>
        <time>2022-06-08 11:57:03</time>
      </trkpt>
      <trkpt lat="42.95833" lon="-0.33231">
        <ele>1327.4</ele>
        <time>2022-06-08 11:57:04</time>
      </trkpt>
      <trkpt lat="42.95836" lon="-0.33233">
        <ele>1327.4</ele>
        <time>2022-06-08 11:57:05</time>
      </trkpt>
      <trkpt lat="42.95839" lon="-0.33234">
        <ele>1327.8</ele>
        <time>2022-06-08 11:57:06</time>
      </trkpt>
      <trkpt lat="42.95841" lon="-0.33236">
        <ele>1328</ele>
        <time>2022-06-08 11:57:07</time>
      </trkpt>
      <trkpt lat="42.95845" lon="-0.33238">
        <ele>1328.4</ele>
        <time>2022-06-08 11:57:08</time>
      </trkpt>
      <trkpt lat="42.95847" lon="-0.33241">
        <ele>1329</ele>
        <time>2022-06-08 11:57:09</time>
      </trkpt>
      <trkpt lat="42.9585" lon="-0.33243">
        <ele>1329.6</ele>
        <time>2022-06-08 11:57:10</time>
      </trkpt>
      <trkpt lat="42.95853" lon="-0.33245">
        <ele>1329.8</ele>
        <time>2022-06-08 11:57:11</time>
      </trkpt>
      <trkpt lat="42.95855" lon="-0.33248">
        <ele>1330.2</ele>
        <time>2022-06-08 11:57:12</time>
      </trkpt>
      <trkpt lat="42.95858" lon="-0.33249">
        <ele>1330.2</ele>
        <time>2022-06-08 11:57:13</time>
      </trkpt>
      <trkpt lat="42.9586" lon="-0.33251">
        <ele>1330.6</ele>
        <time>2022-06-08 11:57:14</time>
      </trkpt>
      <trkpt lat="42.95862" lon="-0.33254">
        <ele>1330.6</ele>
        <time>2022-06-08 11:57:15</time>
      </trkpt>
      <trkpt lat="42.95864" lon="-0.33256">
        <ele>1330.8</ele>
        <time>2022-06-08 11:57:16</time>
      </trkpt>
      <trkpt lat="42.95866" lon="-0.33258">
        <ele>1331.2</ele>
        <time>2022-06-08 11:57:17</time>
      </trkpt>
      <trkpt lat="42.95869" lon="-0.3326">
        <ele>1331.4</ele>
        <time>2022-06-08 11:57:18</time>
      </trkpt>
      <trkpt lat="42.95871" lon="-0.33262">
        <ele>1331.6</ele>
        <time>2022-06-08 11:57:19</time>
      </trkpt>
      <trkpt lat="42.95874" lon="-0.33262">
        <ele>1332</ele>
        <time>2022-06-08 11:57:20</time>
      </trkpt>
      <trkpt lat="42.95877" lon="-0.33263">
        <ele>1332.2</ele>
        <time>2022-06-08 11:57:21</time>
      </trkpt>
      <trkpt lat="42.9588" lon="-0.33263">
        <ele>1332.8</ele>
        <time>2022-06-08 11:57:22</time>
      </trkpt>
      <trkpt lat="42.95882" lon="-0.33263">
        <ele>1333</ele>
        <time>2022-06-08 11:57:23</time>
      </trkpt>
      <trkpt lat="42.95885" lon="-0.33263">
        <ele>1333.6</ele>
        <time>2022-06-08 11:57:24</time>
      </trkpt>
      <trkpt lat="42.95888" lon="-0.33261">
        <ele>1333.8</ele>
        <time>2022-06-08 11:57:25</time>
      </trkpt>
      <trkpt lat="42.9589" lon="-0.33261">
        <ele>1334.2</ele>
        <time>2022-06-08 11:57:26</time>
      </trkpt>
      <trkpt lat="42.95893" lon="-0.3326">
        <ele>1334.4</ele>
        <time>2022-06-08 11:57:27</time>
      </trkpt>
      <trkpt lat="42.95894" lon="-0.3326">
        <ele>1334.4</ele>
        <time>2022-06-08 11:57:28</time>
      </trkpt>
      <trkpt lat="42.95897" lon="-0.33259">
        <ele>1334.6</ele>
        <time>2022-06-08 11:57:29</time>
      </trkpt>
      <trkpt lat="42.95899" lon="-0.33258">
        <ele>1334.8</ele>
        <time>2022-06-08 11:57:30</time>
      </trkpt>
      <trkpt lat="42.95902" lon="-0.33258">
        <ele>1335.2</ele>
        <time>2022-06-08 11:57:31</time>
      </trkpt>
      <trkpt lat="42.95905" lon="-0.33258">
        <ele>1335.4</ele>
        <time>2022-06-08 11:57:32</time>
      </trkpt>
      <trkpt lat="42.95908" lon="-0.33257">
        <ele>1335.8</ele>
        <time>2022-06-08 11:57:33</time>
      </trkpt>
      <trkpt lat="42.9591" lon="-0.33257">
        <ele>1336</ele>
        <time>2022-06-08 11:57:34</time>
      </trkpt>
      <trkpt lat="42.95913" lon="-0.33257">
        <ele>1336.4</ele>
        <time>2022-06-08 11:57:35</time>
      </trkpt>
      <trkpt lat="42.95915" lon="-0.33257">
        <ele>1336.6</ele>
        <time>2022-06-08 11:57:36</time>
      </trkpt>
      <trkpt lat="42.95918" lon="-0.33257">
        <ele>1336.8</ele>
        <time>2022-06-08 11:57:37</time>
      </trkpt>
      <trkpt lat="42.95921" lon="-0.33257">
        <ele>1336.8</ele>
        <time>2022-06-08 11:57:38</time>
      </trkpt>
      <trkpt lat="42.95923" lon="-0.33256">
        <ele>1337.2</ele>
        <time>2022-06-08 11:57:39</time>
      </trkpt>
      <trkpt lat="42.95926" lon="-0.33255">
        <ele>1337.4</ele>
        <time>2022-06-08 11:57:40</time>
      </trkpt>
      <trkpt lat="42.95928" lon="-0.33254">
        <ele>1337.8</ele>
        <time>2022-06-08 11:57:41</time>
      </trkpt>
      <trkpt lat="42.95931" lon="-0.33254">
        <ele>1338</ele>
        <time>2022-06-08 11:57:42</time>
      </trkpt>
      <trkpt lat="42.95934" lon="-0.33254">
        <ele>1338.2</ele>
        <time>2022-06-08 11:57:43</time>
      </trkpt>
      <trkpt lat="42.95936" lon="-0.33254">
        <ele>1338.6</ele>
        <time>2022-06-08 11:57:44</time>
      </trkpt>
      <trkpt lat="42.95939" lon="-0.33254">
        <ele>1338.6</ele>
        <time>2022-06-08 11:57:45</time>
      </trkpt>
      <trkpt lat="42.95941" lon="-0.33255">
        <ele>1339</ele>
        <time>2022-06-08 11:57:46</time>
      </trkpt>
      <trkpt lat="42.95944" lon="-0.33255">
        <ele>1339.2</ele>
        <time>2022-06-08 11:57:47</time>
      </trkpt>
      <trkpt lat="42.95946" lon="-0.33255">
        <ele>1339.4</ele>
        <time>2022-06-08 11:57:48</time>
      </trkpt>
      <trkpt lat="42.95949" lon="-0.33254">
        <ele>1339.6</ele>
        <time>2022-06-08 11:57:49</time>
      </trkpt>
      <trkpt lat="42.95951" lon="-0.33254">
        <ele>1340</ele>
        <time>2022-06-08 11:57:50</time>
      </trkpt>
      <trkpt lat="42.95954" lon="-0.33254">
        <ele>1340</ele>
        <time>2022-06-08 11:57:51</time>
      </trkpt>
      <trkpt lat="42.95957" lon="-0.33253">
        <ele>1340.6</ele>
        <time>2022-06-08 11:57:52</time>
      </trkpt>
      <trkpt lat="42.95959" lon="-0.33253">
        <ele>1340.8</ele>
        <time>2022-06-08 11:57:53</time>
      </trkpt>
      <trkpt lat="42.95962" lon="-0.33252">
        <ele>1341.2</ele>
        <time>2022-06-08 11:57:54</time>
      </trkpt>
      <trkpt lat="42.95965" lon="-0.3325">
        <ele>1341.4</ele>
        <time>2022-06-08 11:57:55</time>
      </trkpt>
      <trkpt lat="42.95967" lon="-0.33249">
        <ele>1341.6</ele>
        <time>2022-06-08 11:57:56</time>
      </trkpt>
      <trkpt lat="42.95969" lon="-0.33247">
        <ele>1341.8</ele>
        <time>2022-06-08 11:57:57</time>
      </trkpt>
      <trkpt lat="42.95971" lon="-0.33245">
        <ele>1342</ele>
        <time>2022-06-08 11:57:58</time>
      </trkpt>
      <trkpt lat="42.95972" lon="-0.33243">
        <ele>1342.2</ele>
        <time>2022-06-08 11:57:59</time>
      </trkpt>
      <trkpt lat="42.95974" lon="-0.3324">
        <ele>1342.2</ele>
        <time>2022-06-08 11:58:00</time>
      </trkpt>
      <trkpt lat="42.95974" lon="-0.33239">
        <ele>1342.4</ele>
        <time>2022-06-08 11:58:01</time>
      </trkpt>
      <trkpt lat="42.95975" lon="-0.33238">
        <ele>1342.6</ele>
        <time>2022-06-08 11:58:02</time>
      </trkpt>
      <trkpt lat="42.95976" lon="-0.33235">
        <ele>1343</ele>
        <time>2022-06-08 11:58:03</time>
      </trkpt>
      <trkpt lat="42.95978" lon="-0.33231">
        <ele>1343.4</ele>
        <time>2022-06-08 11:58:04</time>
      </trkpt>
      <trkpt lat="42.95979" lon="-0.33229">
        <ele>1343.8</ele>
        <time>2022-06-08 11:58:05</time>
      </trkpt>
      <trkpt lat="42.9598" lon="-0.33226">
        <ele>1344</ele>
        <time>2022-06-08 11:58:06</time>
      </trkpt>
      <trkpt lat="42.95982" lon="-0.33222">
        <ele>1344.2</ele>
        <time>2022-06-08 11:58:07</time>
      </trkpt>
      <trkpt lat="42.95983" lon="-0.33219">
        <ele>1344.4</ele>
        <time>2022-06-08 11:58:08</time>
      </trkpt>
      <trkpt lat="42.95983" lon="-0.33215">
        <ele>1344.4</ele>
        <time>2022-06-08 11:58:09</time>
      </trkpt>
      <trkpt lat="42.95984" lon="-0.3321">
        <ele>1344.6</ele>
        <time>2022-06-08 11:58:10</time>
      </trkpt>
      <trkpt lat="42.95985" lon="-0.33206">
        <ele>1345</ele>
        <time>2022-06-08 11:58:11</time>
      </trkpt>
      <trkpt lat="42.95986" lon="-0.33202">
        <ele>1345</ele>
        <time>2022-06-08 11:58:12</time>
      </trkpt>
      <trkpt lat="42.95987" lon="-0.33199">
        <ele>1345.4</ele>
        <time>2022-06-08 11:58:13</time>
      </trkpt>
      <trkpt lat="42.95988" lon="-0.33196">
        <ele>1345.6</ele>
        <time>2022-06-08 11:58:14</time>
      </trkpt>
      <trkpt lat="42.95989" lon="-0.33193">
        <ele>1346</ele>
        <time>2022-06-08 11:58:15</time>
      </trkpt>
      <trkpt lat="42.9599" lon="-0.3319">
        <ele>1346.4</ele>
        <time>2022-06-08 11:58:16</time>
      </trkpt>
      <trkpt lat="42.95991" lon="-0.33187">
        <ele>1346.4</ele>
        <time>2022-06-08 11:58:17</time>
      </trkpt>
      <trkpt lat="42.95993" lon="-0.33185">
        <ele>1346.8</ele>
        <time>2022-06-08 11:58:18</time>
      </trkpt>
      <trkpt lat="42.95995" lon="-0.33182">
        <ele>1347</ele>
        <time>2022-06-08 11:58:19</time>
      </trkpt>
      <trkpt lat="42.95997" lon="-0.3318">
        <ele>1347.2</ele>
        <time>2022-06-08 11:58:20</time>
      </trkpt>
      <trkpt lat="42.95999" lon="-0.33177">
        <ele>1347.2</ele>
        <time>2022-06-08 11:58:21</time>
      </trkpt>
      <trkpt lat="42.96001" lon="-0.33174">
        <ele>1347.2</ele>
        <time>2022-06-08 11:58:22</time>
      </trkpt>
      <trkpt lat="42.96003" lon="-0.33172">
        <ele>1347.4</ele>
        <time>2022-06-08 11:58:23</time>
      </trkpt>
      <trkpt lat="42.96005" lon="-0.33169">
        <ele>1347.8</ele>
        <time>2022-06-08 11:58:24</time>
      </trkpt>
      <trkpt lat="42.96008" lon="-0.33167">
        <ele>1348</ele>
        <time>2022-06-08 11:58:25</time>
      </trkpt>
      <trkpt lat="42.9601" lon="-0.33165">
        <ele>1348.4</ele>
        <time>2022-06-08 11:58:26</time>
      </trkpt>
      <trkpt lat="42.96012" lon="-0.33162">
        <ele>1348.6</ele>
        <time>2022-06-08 11:58:27</time>
      </trkpt>
      <trkpt lat="42.96014" lon="-0.3316">
        <ele>1349.2</ele>
        <time>2022-06-08 11:58:28</time>
      </trkpt>
      <trkpt lat="42.96016" lon="-0.33157">
        <ele>1349.2</ele>
        <time>2022-06-08 11:58:29</time>
      </trkpt>
      <trkpt lat="42.96018" lon="-0.33154">
        <ele>1349.4</ele>
        <time>2022-06-08 11:58:30</time>
      </trkpt>
      <trkpt lat="42.9602" lon="-0.33152">
        <ele>1349.8</ele>
        <time>2022-06-08 11:58:31</time>
      </trkpt>
      <trkpt lat="42.96021" lon="-0.33149">
        <ele>1350.2</ele>
        <time>2022-06-08 11:58:32</time>
      </trkpt>
      <trkpt lat="42.96023" lon="-0.33147">
        <ele>1350.4</ele>
        <time>2022-06-08 11:58:33</time>
      </trkpt>
      <trkpt lat="42.96025" lon="-0.33145">
        <ele>1350.6</ele>
        <time>2022-06-08 11:58:34</time>
      </trkpt>
      <trkpt lat="42.96027" lon="-0.33142">
        <ele>1351</ele>
        <time>2022-06-08 11:58:35</time>
      </trkpt>
      <trkpt lat="42.9603" lon="-0.3314">
        <ele>1351</ele>
        <time>2022-06-08 11:58:36</time>
      </trkpt>
      <trkpt lat="42.96032" lon="-0.33137">
        <ele>1351.4</ele>
        <time>2022-06-08 11:58:37</time>
      </trkpt>
      <trkpt lat="42.96034" lon="-0.33134">
        <ele>1351.4</ele>
        <time>2022-06-08 11:58:38</time>
      </trkpt>
      <trkpt lat="42.96036" lon="-0.33132">
        <ele>1351.6</ele>
        <time>2022-06-08 11:58:39</time>
      </trkpt>
      <trkpt lat="42.96038" lon="-0.33129">
        <ele>1351.8</ele>
        <time>2022-06-08 11:58:40</time>
      </trkpt>
      <trkpt lat="42.9604" lon="-0.33127">
        <ele>1352</ele>
        <time>2022-06-08 11:58:41</time>
      </trkpt>
      <trkpt lat="42.96043" lon="-0.33124">
        <ele>1352.4</ele>
        <time>2022-06-08 11:58:42</time>
      </trkpt>
      <trkpt lat="42.96045" lon="-0.33122">
        <ele>1352.8</ele>
        <time>2022-06-08 11:58:43</time>
      </trkpt>
      <trkpt lat="42.96048" lon="-0.33119">
        <ele>1352.8</ele>
        <time>2022-06-08 11:58:44</time>
      </trkpt>
      <trkpt lat="42.9605" lon="-0.33118">
        <ele>1353.2</ele>
        <time>2022-06-08 11:58:45</time>
      </trkpt>
      <trkpt lat="42.96053" lon="-0.33117">
        <ele>1353.4</ele>
        <time>2022-06-08 11:58:46</time>
      </trkpt>
      <trkpt lat="42.96056" lon="-0.33116">
        <ele>1353.6</ele>
        <time>2022-06-08 11:58:47</time>
      </trkpt>
      <trkpt lat="42.96058" lon="-0.33116">
        <ele>1354</ele>
        <time>2022-06-08 11:58:48</time>
      </trkpt>
      <trkpt lat="42.96061" lon="-0.33115">
        <ele>1354.2</ele>
        <time>2022-06-08 11:58:49</time>
      </trkpt>
      <trkpt lat="42.96063" lon="-0.33115">
        <ele>1354.4</ele>
        <time>2022-06-08 11:58:50</time>
      </trkpt>
      <trkpt lat="42.96066" lon="-0.33115">
        <ele>1354.6</ele>
        <time>2022-06-08 11:58:51</time>
      </trkpt>
      <trkpt lat="42.96068" lon="-0.33114">
        <ele>1355</ele>
        <time>2022-06-08 11:58:52</time>
      </trkpt>
      <trkpt lat="42.96071" lon="-0.33114">
        <ele>1355.4</ele>
        <time>2022-06-08 11:58:53</time>
      </trkpt>
      <trkpt lat="42.96073" lon="-0.33113">
        <ele>1355.6</ele>
        <time>2022-06-08 11:58:54</time>
      </trkpt>
      <trkpt lat="42.96076" lon="-0.33112">
        <ele>1355.8</ele>
        <time>2022-06-08 11:58:55</time>
      </trkpt>
      <trkpt lat="42.96078" lon="-0.33113">
        <ele>1356.2</ele>
        <time>2022-06-08 11:58:56</time>
      </trkpt>
      <trkpt lat="42.9608" lon="-0.33113">
        <ele>1356.4</ele>
        <time>2022-06-08 11:58:57</time>
      </trkpt>
      <trkpt lat="42.96083" lon="-0.33112">
        <ele>1356.6</ele>
        <time>2022-06-08 11:58:58</time>
      </trkpt>
      <trkpt lat="42.96085" lon="-0.33112">
        <ele>1356.8</ele>
        <time>2022-06-08 11:58:59</time>
      </trkpt>
      <trkpt lat="42.96087" lon="-0.33111">
        <ele>1357.2</ele>
        <time>2022-06-08 11:59:00</time>
      </trkpt>
      <trkpt lat="42.9609" lon="-0.3311">
        <ele>1357.4</ele>
        <time>2022-06-08 11:59:01</time>
      </trkpt>
      <trkpt lat="42.96092" lon="-0.33108">
        <ele>1357.8</ele>
        <time>2022-06-08 11:59:02</time>
      </trkpt>
      <trkpt lat="42.96095" lon="-0.33106">
        <ele>1358</ele>
        <time>2022-06-08 11:59:03</time>
      </trkpt>
      <trkpt lat="42.96098" lon="-0.33105">
        <ele>1358.4</ele>
        <time>2022-06-08 11:59:04</time>
      </trkpt>
      <trkpt lat="42.961" lon="-0.33105">
        <ele>1358.6</ele>
        <time>2022-06-08 11:59:05</time>
      </trkpt>
      <trkpt lat="42.96103" lon="-0.33105">
        <ele>1358.6</ele>
        <time>2022-06-08 11:59:06</time>
      </trkpt>
      <trkpt lat="42.96107" lon="-0.33105">
        <ele>1359</ele>
        <time>2022-06-08 11:59:07</time>
      </trkpt>
      <trkpt lat="42.9611" lon="-0.33106">
        <ele>1359</ele>
        <time>2022-06-08 11:59:08</time>
      </trkpt>
      <trkpt lat="42.96114" lon="-0.33106">
        <ele>1359.2</ele>
        <time>2022-06-08 11:59:09</time>
      </trkpt>
      <trkpt lat="42.96117" lon="-0.33107">
        <ele>1359.4</ele>
        <time>2022-06-08 11:59:10</time>
      </trkpt>
      <trkpt lat="42.96121" lon="-0.33107">
        <ele>1359.8</ele>
        <time>2022-06-08 11:59:11</time>
      </trkpt>
      <trkpt lat="42.96124" lon="-0.33108">
        <ele>1360</ele>
        <time>2022-06-08 11:59:12</time>
      </trkpt>
      <trkpt lat="42.96127" lon="-0.33108">
        <ele>1360.2</ele>
        <time>2022-06-08 11:59:13</time>
      </trkpt>
      <trkpt lat="42.9613" lon="-0.33109">
        <ele>1360.2</ele>
        <time>2022-06-08 11:59:14</time>
      </trkpt>
      <trkpt lat="42.96133" lon="-0.33109">
        <ele>1360.4</ele>
        <time>2022-06-08 11:59:15</time>
      </trkpt>
      <trkpt lat="42.96137" lon="-0.3311">
        <ele>1360.4</ele>
        <time>2022-06-08 11:59:16</time>
      </trkpt>
      <trkpt lat="42.9614" lon="-0.33109">
        <ele>1360.6</ele>
        <time>2022-06-08 11:59:17</time>
      </trkpt>
      <trkpt lat="42.96142" lon="-0.33108">
        <ele>1360.6</ele>
        <time>2022-06-08 11:59:18</time>
      </trkpt>
      <trkpt lat="42.96145" lon="-0.33107">
        <ele>1361</ele>
        <time>2022-06-08 11:59:19</time>
      </trkpt>
      <trkpt lat="42.96148" lon="-0.33106">
        <ele>1361.4</ele>
        <time>2022-06-08 11:59:20</time>
      </trkpt>
      <trkpt lat="42.96151" lon="-0.33105">
        <ele>1361.4</ele>
        <time>2022-06-08 11:59:21</time>
      </trkpt>
      <trkpt lat="42.96153" lon="-0.33104">
        <ele>1361.6</ele>
        <time>2022-06-08 11:59:22</time>
      </trkpt>
      <trkpt lat="42.96156" lon="-0.33103">
        <ele>1361.6</ele>
        <time>2022-06-08 11:59:23</time>
      </trkpt>
      <trkpt lat="42.96159" lon="-0.33102">
        <ele>1362</ele>
        <time>2022-06-08 11:59:24</time>
      </trkpt>
      <trkpt lat="42.96162" lon="-0.331">
        <ele>1362</ele>
        <time>2022-06-08 11:59:25</time>
      </trkpt>
      <trkpt lat="42.96164" lon="-0.33098">
        <ele>1362.4</ele>
        <time>2022-06-08 11:59:26</time>
      </trkpt>
      <trkpt lat="42.96167" lon="-0.33096">
        <ele>1362.6</ele>
        <time>2022-06-08 11:59:27</time>
      </trkpt>
      <trkpt lat="42.96169" lon="-0.33094">
        <ele>1362.8</ele>
        <time>2022-06-08 11:59:28</time>
      </trkpt>
      <trkpt lat="42.96171" lon="-0.33093">
        <ele>1363</ele>
        <time>2022-06-08 11:59:29</time>
      </trkpt>
      <trkpt lat="42.96173" lon="-0.33092">
        <ele>1363.2</ele>
        <time>2022-06-08 11:59:30</time>
      </trkpt>
      <trkpt lat="42.96175" lon="-0.33091">
        <ele>1363.4</ele>
        <time>2022-06-08 11:59:31</time>
      </trkpt>
      <trkpt lat="42.96178" lon="-0.3309">
        <ele>1363.8</ele>
        <time>2022-06-08 11:59:32</time>
      </trkpt>
      <trkpt lat="42.9618" lon="-0.33088">
        <ele>1364</ele>
        <time>2022-06-08 11:59:33</time>
      </trkpt>
      <trkpt lat="42.96182" lon="-0.33086">
        <ele>1364.4</ele>
        <time>2022-06-08 11:59:34</time>
      </trkpt>
      <trkpt lat="42.96184" lon="-0.33085">
        <ele>1364.6</ele>
        <time>2022-06-08 11:59:35</time>
      </trkpt>
      <trkpt lat="42.96186" lon="-0.33083">
        <ele>1365</ele>
        <time>2022-06-08 11:59:36</time>
      </trkpt>
      <trkpt lat="42.96188" lon="-0.33081">
        <ele>1365.4</ele>
        <time>2022-06-08 11:59:37</time>
      </trkpt>
      <trkpt lat="42.9619" lon="-0.33079">
        <ele>1365.8</ele>
        <time>2022-06-08 11:59:38</time>
      </trkpt>
      <trkpt lat="42.96192" lon="-0.33077">
        <ele>1366.2</ele>
        <time>2022-06-08 11:59:39</time>
      </trkpt>
      <trkpt lat="42.96195" lon="-0.33076">
        <ele>1366.4</ele>
        <time>2022-06-08 11:59:40</time>
      </trkpt>
      <trkpt lat="42.96197" lon="-0.33074">
        <ele>1366.8</ele>
        <time>2022-06-08 11:59:41</time>
      </trkpt>
      <trkpt lat="42.96199" lon="-0.33072">
        <ele>1367</ele>
        <time>2022-06-08 11:59:42</time>
      </trkpt>
      <trkpt lat="42.96201" lon="-0.3307">
        <ele>1367.2</ele>
        <time>2022-06-08 11:59:43</time>
      </trkpt>
      <trkpt lat="42.96202" lon="-0.33067">
        <ele>1367.4</ele>
        <time>2022-06-08 11:59:44</time>
      </trkpt>
      <trkpt lat="42.96204" lon="-0.33065">
        <ele>1367.6</ele>
        <time>2022-06-08 11:59:45</time>
      </trkpt>
      <trkpt lat="42.96206" lon="-0.33063">
        <ele>1367.6</ele>
        <time>2022-06-08 11:59:46</time>
      </trkpt>
      <trkpt lat="42.96208" lon="-0.33062">
        <ele>1368</ele>
        <time>2022-06-08 11:59:47</time>
      </trkpt>
      <trkpt lat="42.9621" lon="-0.3306">
        <ele>1368.2</ele>
        <time>2022-06-08 11:59:48</time>
      </trkpt>
      <trkpt lat="42.96212" lon="-0.33059">
        <ele>1368.6</ele>
        <time>2022-06-08 11:59:49</time>
      </trkpt>
      <trkpt lat="42.96213" lon="-0.33057">
        <ele>1368.8</ele>
        <time>2022-06-08 11:59:50</time>
      </trkpt>
      <trkpt lat="42.96215" lon="-0.33056">
        <ele>1369</ele>
        <time>2022-06-08 11:59:51</time>
      </trkpt>
      <trkpt lat="42.96217" lon="-0.33056">
        <ele>1369.6</ele>
        <time>2022-06-08 11:59:52</time>
      </trkpt>
      <trkpt lat="42.9622" lon="-0.33057">
        <ele>1369.8</ele>
        <time>2022-06-08 11:59:53</time>
      </trkpt>
      <trkpt lat="42.96222" lon="-0.33057">
        <ele>1370.2</ele>
        <time>2022-06-08 11:59:54</time>
      </trkpt>
      <trkpt lat="42.96224" lon="-0.33057">
        <ele>1370.4</ele>
        <time>2022-06-08 11:59:55</time>
      </trkpt>
      <trkpt lat="42.96226" lon="-0.33058">
        <ele>1371</ele>
        <time>2022-06-08 11:59:56</time>
      </trkpt>
      <trkpt lat="42.96228" lon="-0.33059">
        <ele>1371.4</ele>
        <time>2022-06-08 11:59:57</time>
      </trkpt>
      <trkpt lat="42.96231" lon="-0.3306">
        <ele>1371.8</ele>
        <time>2022-06-08 11:59:58</time>
      </trkpt>
      <trkpt lat="42.96233" lon="-0.33061">
        <ele>1372</ele>
        <time>2022-06-08 11:59:59</time>
      </trkpt>
      <trkpt lat="42.96236" lon="-0.33062">
        <ele>1372.6</ele>
        <time>2022-06-08 12:00:00</time>
      </trkpt>
      <trkpt lat="42.96238" lon="-0.33062">
        <ele>1372.8</ele>
        <time>2022-06-08 12:00:01</time>
      </trkpt>
      <trkpt lat="42.96241" lon="-0.33057">
        <ele>1373</ele>
        <time>2022-06-08 12:00:02</time>
      </trkpt>
      <trkpt lat="42.96244" lon="-0.33053">
        <ele>1373.2</ele>
        <time>2022-06-08 12:00:03</time>
      </trkpt>
      <trkpt lat="42.96248" lon="-0.3305">
        <ele>1373.6</ele>
        <time>2022-06-08 12:00:04</time>
      </trkpt>
      <trkpt lat="42.9625" lon="-0.33051">
        <ele>1373.8</ele>
        <time>2022-06-08 12:00:05</time>
      </trkpt>
      <trkpt lat="42.96252" lon="-0.33048">
        <ele>1374</ele>
        <time>2022-06-08 12:00:06</time>
      </trkpt>
      <trkpt lat="42.96255" lon="-0.33046">
        <ele>1374.2</ele>
        <time>2022-06-08 12:00:07</time>
      </trkpt>
      <trkpt lat="42.96258" lon="-0.33046">
        <ele>1374.4</ele>
        <time>2022-06-08 12:00:08</time>
      </trkpt>
      <trkpt lat="42.96261" lon="-0.33043">
        <ele>1374.6</ele>
        <time>2022-06-08 12:00:09</time>
      </trkpt>
      <trkpt lat="42.96263" lon="-0.33041">
        <ele>1374.6</ele>
        <time>2022-06-08 12:00:10</time>
      </trkpt>
      <trkpt lat="42.96265" lon="-0.33041">
        <ele>1375</ele>
        <time>2022-06-08 12:00:11</time>
      </trkpt>
      <trkpt lat="42.96267" lon="-0.33041">
        <ele>1375</ele>
        <time>2022-06-08 12:00:12</time>
      </trkpt>
      <trkpt lat="42.96269" lon="-0.3304">
        <ele>1375.4</ele>
        <time>2022-06-08 12:00:13</time>
      </trkpt>
      <trkpt lat="42.96271" lon="-0.3304">
        <ele>1375.6</ele>
        <time>2022-06-08 12:00:14</time>
      </trkpt>
      <trkpt lat="42.96273" lon="-0.3304">
        <ele>1376</ele>
        <time>2022-06-08 12:00:15</time>
      </trkpt>
      <trkpt lat="42.96276" lon="-0.3304">
        <ele>1376.2</ele>
        <time>2022-06-08 12:00:16</time>
      </trkpt>
      <trkpt lat="42.96279" lon="-0.33038">
        <ele>1376.6</ele>
        <time>2022-06-08 12:00:17</time>
      </trkpt>
      <trkpt lat="42.96281" lon="-0.33037">
        <ele>1376.8</ele>
        <time>2022-06-08 12:00:18</time>
      </trkpt>
      <trkpt lat="42.96283" lon="-0.33037">
        <ele>1377</ele>
        <time>2022-06-08 12:00:19</time>
      </trkpt>
      <trkpt lat="42.96286" lon="-0.33036">
        <ele>1377.2</ele>
        <time>2022-06-08 12:00:20</time>
      </trkpt>
      <trkpt lat="42.96288" lon="-0.33036">
        <ele>1377.6</ele>
        <time>2022-06-08 12:00:21</time>
      </trkpt>
      <trkpt lat="42.9629" lon="-0.33037">
        <ele>1377.8</ele>
        <time>2022-06-08 12:00:22</time>
      </trkpt>
      <trkpt lat="42.96292" lon="-0.33037">
        <ele>1378</ele>
        <time>2022-06-08 12:00:23</time>
      </trkpt>
      <trkpt lat="42.96294" lon="-0.33037">
        <ele>1378.4</ele>
        <time>2022-06-08 12:00:24</time>
      </trkpt>
      <trkpt lat="42.96297" lon="-0.33037">
        <ele>1378.6</ele>
        <time>2022-06-08 12:00:25</time>
      </trkpt>
      <trkpt lat="42.96299" lon="-0.33038">
        <ele>1378.8</ele>
        <time>2022-06-08 12:00:26</time>
      </trkpt>
      <trkpt lat="42.96301" lon="-0.33038">
        <ele>1379</ele>
        <time>2022-06-08 12:00:27</time>
      </trkpt>
      <trkpt lat="42.96304" lon="-0.33038">
        <ele>1379.4</ele>
        <time>2022-06-08 12:00:28</time>
      </trkpt>
      <trkpt lat="42.96306" lon="-0.33039">
        <ele>1379.6</ele>
        <time>2022-06-08 12:00:29</time>
      </trkpt>
      <trkpt lat="42.96309" lon="-0.3304">
        <ele>1379.8</ele>
        <time>2022-06-08 12:00:30</time>
      </trkpt>
      <trkpt lat="42.96311" lon="-0.33041">
        <ele>1379.8</ele>
        <time>2022-06-08 12:00:31</time>
      </trkpt>
      <trkpt lat="42.96314" lon="-0.33043">
        <ele>1380.2</ele>
        <time>2022-06-08 12:00:32</time>
      </trkpt>
      <trkpt lat="42.96316" lon="-0.33044">
        <ele>1380.4</ele>
        <time>2022-06-08 12:00:33</time>
      </trkpt>
      <trkpt lat="42.96318" lon="-0.33046">
        <ele>1380.6</ele>
        <time>2022-06-08 12:00:34</time>
      </trkpt>
      <trkpt lat="42.9632" lon="-0.33047">
        <ele>1380.8</ele>
        <time>2022-06-08 12:00:35</time>
      </trkpt>
      <trkpt lat="42.96322" lon="-0.33049">
        <ele>1381.2</ele>
        <time>2022-06-08 12:00:36</time>
      </trkpt>
      <trkpt lat="42.96324" lon="-0.33051">
        <ele>1381.4</ele>
        <time>2022-06-08 12:00:37</time>
      </trkpt>
      <trkpt lat="42.96326" lon="-0.33053">
        <ele>1381.6</ele>
        <time>2022-06-08 12:00:38</time>
      </trkpt>
      <trkpt lat="42.96328" lon="-0.33055">
        <ele>1381.6</ele>
        <time>2022-06-08 12:00:39</time>
      </trkpt>
      <trkpt lat="42.96329" lon="-0.33056">
        <ele>1381.8</ele>
        <time>2022-06-08 12:00:40</time>
      </trkpt>
      <trkpt lat="42.96331" lon="-0.33059">
        <ele>1382.4</ele>
        <time>2022-06-08 12:00:41</time>
      </trkpt>
      <trkpt lat="42.96332" lon="-0.33061">
        <ele>1382.6</ele>
        <time>2022-06-08 12:00:42</time>
      </trkpt>
      <trkpt lat="42.96333" lon="-0.33063">
        <ele>1382.6</ele>
        <time>2022-06-08 12:00:43</time>
      </trkpt>
      <trkpt lat="42.96334" lon="-0.33064">
        <ele>1382.8</ele>
        <time>2022-06-08 12:00:44</time>
      </trkpt>
      <trkpt lat="42.96335" lon="-0.33067">
        <ele>1383</ele>
        <time>2022-06-08 12:00:45</time>
      </trkpt>
      <trkpt lat="42.96336" lon="-0.33069">
        <ele>1383.2</ele>
        <time>2022-06-08 12:00:46</time>
      </trkpt>
      <trkpt lat="42.96337" lon="-0.33071">
        <ele>1383.8</ele>
        <time>2022-06-08 12:00:47</time>
      </trkpt>
      <trkpt lat="42.96338" lon="-0.33073">
        <ele>1384</ele>
        <time>2022-06-08 12:00:48</time>
      </trkpt>
      <trkpt lat="42.96339" lon="-0.33077">
        <ele>1384.4</ele>
        <time>2022-06-08 12:00:49</time>
      </trkpt>
      <trkpt lat="42.9634" lon="-0.33079">
        <ele>1384.4</ele>
        <time>2022-06-08 12:00:50</time>
      </trkpt>
      <trkpt lat="42.96341" lon="-0.33082">
        <ele>1384.8</ele>
        <time>2022-06-08 12:00:51</time>
      </trkpt>
      <trkpt lat="42.96342" lon="-0.33084">
        <ele>1385</ele>
        <time>2022-06-08 12:00:52</time>
      </trkpt>
      <trkpt lat="42.96344" lon="-0.33086">
        <ele>1385.2</ele>
        <time>2022-06-08 12:00:53</time>
      </trkpt>
      <trkpt lat="42.96345" lon="-0.33088">
        <ele>1385.2</ele>
        <time>2022-06-08 12:00:54</time>
      </trkpt>
      <trkpt lat="42.96347" lon="-0.33092">
        <ele>1385.4</ele>
        <time>2022-06-08 12:00:55</time>
      </trkpt>
      <trkpt lat="42.96349" lon="-0.33095">
        <ele>1385.6</ele>
        <time>2022-06-08 12:00:56</time>
      </trkpt>
      <trkpt lat="42.96352" lon="-0.33097">
        <ele>1386</ele>
        <time>2022-06-08 12:00:57</time>
      </trkpt>
      <trkpt lat="42.96354" lon="-0.33099">
        <ele>1386.4</ele>
        <time>2022-06-08 12:00:58</time>
      </trkpt>
      <trkpt lat="42.96355" lon="-0.33103">
        <ele>1386.6</ele>
        <time>2022-06-08 12:00:59</time>
      </trkpt>
      <trkpt lat="42.96357" lon="-0.33108">
        <ele>1386.8</ele>
        <time>2022-06-08 12:01:00</time>
      </trkpt>
      <trkpt lat="42.96359" lon="-0.33114">
        <ele>1387</ele>
        <time>2022-06-08 12:01:01</time>
      </trkpt>
      <trkpt lat="42.96361" lon="-0.33117">
        <ele>1387.4</ele>
        <time>2022-06-08 12:01:02</time>
      </trkpt>
      <trkpt lat="42.96363" lon="-0.33119">
        <ele>1387.4</ele>
        <time>2022-06-08 12:01:03</time>
      </trkpt>
      <trkpt lat="42.96365" lon="-0.33122">
        <ele>1387.8</ele>
        <time>2022-06-08 12:01:04</time>
      </trkpt>
      <trkpt lat="42.96368" lon="-0.33123">
        <ele>1388</ele>
        <time>2022-06-08 12:01:05</time>
      </trkpt>
      <trkpt lat="42.96371" lon="-0.33123">
        <ele>1388.2</ele>
        <time>2022-06-08 12:01:06</time>
      </trkpt>
      <trkpt lat="42.96375" lon="-0.33123">
        <ele>1388.4</ele>
        <time>2022-06-08 12:01:07</time>
      </trkpt>
      <trkpt lat="42.96378" lon="-0.33124">
        <ele>1388.6</ele>
        <time>2022-06-08 12:01:08</time>
      </trkpt>
      <trkpt lat="42.9638" lon="-0.33125">
        <ele>1388.8</ele>
        <time>2022-06-08 12:01:09</time>
      </trkpt>
      <trkpt lat="42.96381" lon="-0.33125">
        <ele>1389</ele>
        <time>2022-06-08 12:01:10</time>
      </trkpt>
      <trkpt lat="42.96383" lon="-0.33127">
        <ele>1389.2</ele>
        <time>2022-06-08 12:01:11</time>
      </trkpt>
      <trkpt lat="42.96385" lon="-0.33129">
        <ele>1389.6</ele>
        <time>2022-06-08 12:01:12</time>
      </trkpt>
      <trkpt lat="42.96387" lon="-0.33129">
        <ele>1389.6</ele>
        <time>2022-06-08 12:01:13</time>
      </trkpt>
      <trkpt lat="42.9639" lon="-0.33129">
        <ele>1390</ele>
        <time>2022-06-08 12:01:14</time>
      </trkpt>
      <trkpt lat="42.96392" lon="-0.3313">
        <ele>1390.4</ele>
        <time>2022-06-08 12:01:15</time>
      </trkpt>
      <trkpt lat="42.96394" lon="-0.33131">
        <ele>1390.6</ele>
        <time>2022-06-08 12:01:16</time>
      </trkpt>
      <trkpt lat="42.96396" lon="-0.33132">
        <ele>1390.8</ele>
        <time>2022-06-08 12:01:17</time>
      </trkpt>
      <trkpt lat="42.96398" lon="-0.33133">
        <ele>1391</ele>
        <time>2022-06-08 12:01:18</time>
      </trkpt>
      <trkpt lat="42.96401" lon="-0.33134">
        <ele>1391.4</ele>
        <time>2022-06-08 12:01:19</time>
      </trkpt>
      <trkpt lat="42.96403" lon="-0.33135">
        <ele>1391.4</ele>
        <time>2022-06-08 12:01:20</time>
      </trkpt>
      <trkpt lat="42.96405" lon="-0.33136">
        <ele>1391.6</ele>
        <time>2022-06-08 12:01:21</time>
      </trkpt>
      <trkpt lat="42.96407" lon="-0.33137">
        <ele>1391.8</ele>
        <time>2022-06-08 12:01:22</time>
      </trkpt>
      <trkpt lat="42.96408" lon="-0.33137">
        <ele>1392.2</ele>
        <time>2022-06-08 12:01:23</time>
      </trkpt>
      <trkpt lat="42.9641" lon="-0.33138">
        <ele>1392.4</ele>
        <time>2022-06-08 12:01:24</time>
      </trkpt>
      <trkpt lat="42.96412" lon="-0.3314">
        <ele>1392.6</ele>
        <time>2022-06-08 12:01:25</time>
      </trkpt>
      <trkpt lat="42.96414" lon="-0.33142">
        <ele>1392.8</ele>
        <time>2022-06-08 12:01:26</time>
      </trkpt>
      <trkpt lat="42.96416" lon="-0.33143">
        <ele>1393</ele>
        <time>2022-06-08 12:01:27</time>
      </trkpt>
      <trkpt lat="42.96418" lon="-0.33144">
        <ele>1393.2</ele>
        <time>2022-06-08 12:01:28</time>
      </trkpt>
      <trkpt lat="42.9642" lon="-0.33145">
        <ele>1393.6</ele>
        <time>2022-06-08 12:01:29</time>
      </trkpt>
      <trkpt lat="42.96422" lon="-0.33146">
        <ele>1393.8</ele>
        <time>2022-06-08 12:01:30</time>
      </trkpt>
      <trkpt lat="42.96425" lon="-0.33148">
        <ele>1394</ele>
        <time>2022-06-08 12:01:31</time>
      </trkpt>
      <trkpt lat="42.96429" lon="-0.33147">
        <ele>1394.2</ele>
        <time>2022-06-08 12:01:32</time>
      </trkpt>
      <trkpt lat="42.96431" lon="-0.33147">
        <ele>1394.4</ele>
        <time>2022-06-08 12:01:33</time>
      </trkpt>
      <trkpt lat="42.96433" lon="-0.33148">
        <ele>1394.8</ele>
        <time>2022-06-08 12:01:34</time>
      </trkpt>
      <trkpt lat="42.96436" lon="-0.3315">
        <ele>1394.8</ele>
        <time>2022-06-08 12:01:35</time>
      </trkpt>
      <trkpt lat="42.96438" lon="-0.33151">
        <ele>1395.4</ele>
        <time>2022-06-08 12:01:36</time>
      </trkpt>
      <trkpt lat="42.96441" lon="-0.33153">
        <ele>1395.6</ele>
        <time>2022-06-08 12:01:37</time>
      </trkpt>
      <trkpt lat="42.96443" lon="-0.33156">
        <ele>1395.8</ele>
        <time>2022-06-08 12:01:38</time>
      </trkpt>
      <trkpt lat="42.96445" lon="-0.33157">
        <ele>1396</ele>
        <time>2022-06-08 12:01:39</time>
      </trkpt>
      <trkpt lat="42.96446" lon="-0.33159">
        <ele>1396.6</ele>
        <time>2022-06-08 12:01:40</time>
      </trkpt>
      <trkpt lat="42.96448" lon="-0.33162">
        <ele>1396.6</ele>
        <time>2022-06-08 12:01:41</time>
      </trkpt>
      <trkpt lat="42.96449" lon="-0.33165">
        <ele>1397</ele>
        <time>2022-06-08 12:01:42</time>
      </trkpt>
      <trkpt lat="42.96451" lon="-0.33168">
        <ele>1397</ele>
        <time>2022-06-08 12:01:43</time>
      </trkpt>
      <trkpt lat="42.96452" lon="-0.33172">
        <ele>1397.4</ele>
        <time>2022-06-08 12:01:44</time>
      </trkpt>
      <trkpt lat="42.96453" lon="-0.33174">
        <ele>1397.4</ele>
        <time>2022-06-08 12:01:45</time>
      </trkpt>
      <trkpt lat="42.96454" lon="-0.33178">
        <ele>1397.8</ele>
        <time>2022-06-08 12:01:46</time>
      </trkpt>
      <trkpt lat="42.96456" lon="-0.3318">
        <ele>1398.2</ele>
        <time>2022-06-08 12:01:47</time>
      </trkpt>
      <trkpt lat="42.96458" lon="-0.33182">
        <ele>1398.4</ele>
        <time>2022-06-08 12:01:48</time>
      </trkpt>
      <trkpt lat="42.9646" lon="-0.33186">
        <ele>1398.6</ele>
        <time>2022-06-08 12:01:49</time>
      </trkpt>
      <trkpt lat="42.96461" lon="-0.33188">
        <ele>1398.8</ele>
        <time>2022-06-08 12:01:50</time>
      </trkpt>
      <trkpt lat="42.96462" lon="-0.33189">
        <ele>1399.2</ele>
        <time>2022-06-08 12:01:51</time>
      </trkpt>
      <trkpt lat="42.96465" lon="-0.3319">
        <ele>1399.4</ele>
        <time>2022-06-08 12:01:52</time>
      </trkpt>
      <trkpt lat="42.96468" lon="-0.33192">
        <ele>1399.6</ele>
        <time>2022-06-08 12:01:53</time>
      </trkpt>
      <trkpt lat="42.96471" lon="-0.33193">
        <ele>1399.8</ele>
        <time>2022-06-08 12:01:54</time>
      </trkpt>
      <trkpt lat="42.96473" lon="-0.33195">
        <ele>1400.4</ele>
        <time>2022-06-08 12:01:55</time>
      </trkpt>
      <trkpt lat="42.96475" lon="-0.33197">
        <ele>1400.6</ele>
        <time>2022-06-08 12:01:56</time>
      </trkpt>
      <trkpt lat="42.96477" lon="-0.33199">
        <ele>1400.8</ele>
        <time>2022-06-08 12:01:57</time>
      </trkpt>
      <trkpt lat="42.96479" lon="-0.33201">
        <ele>1401</ele>
        <time>2022-06-08 12:01:58</time>
      </trkpt>
      <trkpt lat="42.96481" lon="-0.33203">
        <ele>1401.4</ele>
        <time>2022-06-08 12:01:59</time>
      </trkpt>
      <trkpt lat="42.96482" lon="-0.33205">
        <ele>1401.4</ele>
        <time>2022-06-08 12:02:00</time>
      </trkpt>
      <trkpt lat="42.96483" lon="-0.33208">
        <ele>1401.6</ele>
        <time>2022-06-08 12:02:01</time>
      </trkpt>
      <trkpt lat="42.96485" lon="-0.33211">
        <ele>1401.8</ele>
        <time>2022-06-08 12:02:02</time>
      </trkpt>
      <trkpt lat="42.96486" lon="-0.33214">
        <ele>1402</ele>
        <time>2022-06-08 12:02:03</time>
      </trkpt>
      <trkpt lat="42.96488" lon="-0.33216">
        <ele>1402.2</ele>
        <time>2022-06-08 12:02:04</time>
      </trkpt>
      <trkpt lat="42.9649" lon="-0.33218">
        <ele>1402.2</ele>
        <time>2022-06-08 12:02:05</time>
      </trkpt>
      <trkpt lat="42.96492" lon="-0.33221">
        <ele>1402.6</ele>
        <time>2022-06-08 12:02:06</time>
      </trkpt>
      <trkpt lat="42.96493" lon="-0.33222">
        <ele>1402.8</ele>
        <time>2022-06-08 12:02:07</time>
      </trkpt>
      <trkpt lat="42.96495" lon="-0.33224">
        <ele>1403</ele>
        <time>2022-06-08 12:02:08</time>
      </trkpt>
      <trkpt lat="42.96496" lon="-0.33228">
        <ele>1403.2</ele>
        <time>2022-06-08 12:02:09</time>
      </trkpt>
      <trkpt lat="42.96498" lon="-0.3323">
        <ele>1403.4</ele>
        <time>2022-06-08 12:02:10</time>
      </trkpt>
      <trkpt lat="42.96498" lon="-0.33232">
        <ele>1403.8</ele>
        <time>2022-06-08 12:02:11</time>
      </trkpt>
      <trkpt lat="42.96499" lon="-0.33236">
        <ele>1404.2</ele>
        <time>2022-06-08 12:02:12</time>
      </trkpt>
      <trkpt lat="42.965" lon="-0.3324">
        <ele>1404.4</ele>
        <time>2022-06-08 12:02:13</time>
      </trkpt>
      <trkpt lat="42.965" lon="-0.33243">
        <ele>1404.8</ele>
        <time>2022-06-08 12:02:14</time>
      </trkpt>
      <trkpt lat="42.965" lon="-0.33246">
        <ele>1405</ele>
        <time>2022-06-08 12:02:15</time>
      </trkpt>
      <trkpt lat="42.96501" lon="-0.3325">
        <ele>1405.4</ele>
        <time>2022-06-08 12:02:16</time>
      </trkpt>
      <trkpt lat="42.96501" lon="-0.33253">
        <ele>1405.6</ele>
        <time>2022-06-08 12:02:17</time>
      </trkpt>
      <trkpt lat="42.96502" lon="-0.33257">
        <ele>1405.6</ele>
        <time>2022-06-08 12:02:18</time>
      </trkpt>
      <trkpt lat="42.96502" lon="-0.3326">
        <ele>1406</ele>
        <time>2022-06-08 12:02:19</time>
      </trkpt>
      <trkpt lat="42.96503" lon="-0.33264">
        <ele>1406.2</ele>
        <time>2022-06-08 12:02:20</time>
      </trkpt>
      <trkpt lat="42.96503" lon="-0.33267">
        <ele>1406.6</ele>
        <time>2022-06-08 12:02:21</time>
      </trkpt>
      <trkpt lat="42.96504" lon="-0.33271">
        <ele>1406.6</ele>
        <time>2022-06-08 12:02:22</time>
      </trkpt>
      <trkpt lat="42.96505" lon="-0.33274">
        <ele>1407</ele>
        <time>2022-06-08 12:02:23</time>
      </trkpt>
      <trkpt lat="42.96506" lon="-0.33277">
        <ele>1407.2</ele>
        <time>2022-06-08 12:02:24</time>
      </trkpt>
      <trkpt lat="42.96507" lon="-0.33279">
        <ele>1407.6</ele>
        <time>2022-06-08 12:02:25</time>
      </trkpt>
      <trkpt lat="42.96508" lon="-0.33283">
        <ele>1407.8</ele>
        <time>2022-06-08 12:02:26</time>
      </trkpt>
      <trkpt lat="42.96509" lon="-0.33286">
        <ele>1408.2</ele>
        <time>2022-06-08 12:02:27</time>
      </trkpt>
      <trkpt lat="42.9651" lon="-0.33289">
        <ele>1408.4</ele>
        <time>2022-06-08 12:02:28</time>
      </trkpt>
      <trkpt lat="42.9651" lon="-0.33293">
        <ele>1408.6</ele>
        <time>2022-06-08 12:02:29</time>
      </trkpt>
      <trkpt lat="42.9651" lon="-0.33297">
        <ele>1408.8</ele>
        <time>2022-06-08 12:02:30</time>
      </trkpt>
      <trkpt lat="42.9651" lon="-0.333">
        <ele>1409</ele>
        <time>2022-06-08 12:02:31</time>
      </trkpt>
      <trkpt lat="42.9651" lon="-0.33304">
        <ele>1409.2</ele>
        <time>2022-06-08 12:02:32</time>
      </trkpt>
      <trkpt lat="42.96511" lon="-0.33307">
        <ele>1409.4</ele>
        <time>2022-06-08 12:02:33</time>
      </trkpt>
      <trkpt lat="42.96511" lon="-0.33311">
        <ele>1409.4</ele>
        <time>2022-06-08 12:02:34</time>
      </trkpt>
      <trkpt lat="42.96511" lon="-0.33315">
        <ele>1409.8</ele>
        <time>2022-06-08 12:02:35</time>
      </trkpt>
      <trkpt lat="42.96511" lon="-0.33319">
        <ele>1410</ele>
        <time>2022-06-08 12:02:36</time>
      </trkpt>
      <trkpt lat="42.96511" lon="-0.33322">
        <ele>1410</ele>
        <time>2022-06-08 12:02:37</time>
      </trkpt>
      <trkpt lat="42.96512" lon="-0.33326">
        <ele>1410.2</ele>
        <time>2022-06-08 12:02:38</time>
      </trkpt>
      <trkpt lat="42.96512" lon="-0.3333">
        <ele>1410.2</ele>
        <time>2022-06-08 12:02:39</time>
      </trkpt>
      <trkpt lat="42.96513" lon="-0.33333">
        <ele>1410.4</ele>
        <time>2022-06-08 12:02:40</time>
      </trkpt>
      <trkpt lat="42.96513" lon="-0.33336">
        <ele>1410.4</ele>
        <time>2022-06-08 12:02:41</time>
      </trkpt>
      <trkpt lat="42.96514" lon="-0.3334">
        <ele>1410.8</ele>
        <time>2022-06-08 12:02:42</time>
      </trkpt>
      <trkpt lat="42.96515" lon="-0.33343">
        <ele>1411</ele>
        <time>2022-06-08 12:02:43</time>
      </trkpt>
      <trkpt lat="42.96516" lon="-0.33347">
        <ele>1411.6</ele>
        <time>2022-06-08 12:02:44</time>
      </trkpt>
      <trkpt lat="42.96517" lon="-0.33349">
        <ele>1411.8</ele>
        <time>2022-06-08 12:02:45</time>
      </trkpt>
      <trkpt lat="42.96518" lon="-0.33352">
        <ele>1412.4</ele>
        <time>2022-06-08 12:02:46</time>
      </trkpt>
      <trkpt lat="42.96519" lon="-0.33356">
        <ele>1412.6</ele>
        <time>2022-06-08 12:02:47</time>
      </trkpt>
      <trkpt lat="42.9652" lon="-0.33358">
        <ele>1413</ele>
        <time>2022-06-08 12:02:48</time>
      </trkpt>
      <trkpt lat="42.96521" lon="-0.33361">
        <ele>1413</ele>
        <time>2022-06-08 12:02:49</time>
      </trkpt>
      <trkpt lat="42.96522" lon="-0.33364">
        <ele>1413.6</ele>
        <time>2022-06-08 12:02:50</time>
      </trkpt>
      <trkpt lat="42.96522" lon="-0.33367">
        <ele>1413.8</ele>
        <time>2022-06-08 12:02:51</time>
      </trkpt>
      <trkpt lat="42.96523" lon="-0.3337">
        <ele>1414.2</ele>
        <time>2022-06-08 12:02:52</time>
      </trkpt>
      <trkpt lat="42.96524" lon="-0.33374">
        <ele>1414.2</ele>
        <time>2022-06-08 12:02:53</time>
      </trkpt>
      <trkpt lat="42.96525" lon="-0.33379">
        <ele>1414.4</ele>
        <time>2022-06-08 12:02:54</time>
      </trkpt>
      <trkpt lat="42.96526" lon="-0.33382">
        <ele>1414.8</ele>
        <time>2022-06-08 12:02:55</time>
      </trkpt>
      <trkpt lat="42.96527" lon="-0.33384">
        <ele>1415</ele>
        <time>2022-06-08 12:02:56</time>
      </trkpt>
      <trkpt lat="42.96527" lon="-0.33386">
        <ele>1415.2</ele>
        <time>2022-06-08 12:02:57</time>
      </trkpt>
      <trkpt lat="42.96528" lon="-0.33388">
        <ele>1415.4</ele>
        <time>2022-06-08 12:02:58</time>
      </trkpt>
      <trkpt lat="42.96528" lon="-0.33391">
        <ele>1415.6</ele>
        <time>2022-06-08 12:02:59</time>
      </trkpt>
      <trkpt lat="42.96528" lon="-0.33394">
        <ele>1415.8</ele>
        <time>2022-06-08 12:03:00</time>
      </trkpt>
      <trkpt lat="42.96529" lon="-0.33401">
        <ele>1416</ele>
        <time>2022-06-08 12:03:01</time>
      </trkpt>
      <trkpt lat="42.96531" lon="-0.33405">
        <ele>1416</ele>
        <time>2022-06-08 12:03:02</time>
      </trkpt>
      <trkpt lat="42.96533" lon="-0.33409">
        <ele>1416.4</ele>
        <time>2022-06-08 12:03:03</time>
      </trkpt>
      <trkpt lat="42.96536" lon="-0.33412">
        <ele>1416.6</ele>
        <time>2022-06-08 12:03:04</time>
      </trkpt>
      <trkpt lat="42.96538" lon="-0.33414">
        <ele>1417</ele>
        <time>2022-06-08 12:03:05</time>
      </trkpt>
      <trkpt lat="42.9654" lon="-0.33417">
        <ele>1417.2</ele>
        <time>2022-06-08 12:03:06</time>
      </trkpt>
      <trkpt lat="42.96543" lon="-0.33419">
        <ele>1417.4</ele>
        <time>2022-06-08 12:03:07</time>
      </trkpt>
      <trkpt lat="42.96545" lon="-0.33422">
        <ele>1417.8</ele>
        <time>2022-06-08 12:03:08</time>
      </trkpt>
      <trkpt lat="42.96547" lon="-0.33424">
        <ele>1417.8</ele>
        <time>2022-06-08 12:03:09</time>
      </trkpt>
      <trkpt lat="42.96549" lon="-0.33427">
        <ele>1418.2</ele>
        <time>2022-06-08 12:03:10</time>
      </trkpt>
      <trkpt lat="42.9655" lon="-0.33431">
        <ele>1418.2</ele>
        <time>2022-06-08 12:03:11</time>
      </trkpt>
      <trkpt lat="42.96553" lon="-0.33433">
        <ele>1418.6</ele>
        <time>2022-06-08 12:03:12</time>
      </trkpt>
      <trkpt lat="42.96555" lon="-0.33434">
        <ele>1418.8</ele>
        <time>2022-06-08 12:03:13</time>
      </trkpt>
      <trkpt lat="42.96556" lon="-0.33435">
        <ele>1419</ele>
        <time>2022-06-08 12:03:14</time>
      </trkpt>
      <trkpt lat="42.96558" lon="-0.33437">
        <ele>1419.2</ele>
        <time>2022-06-08 12:03:15</time>
      </trkpt>
      <trkpt lat="42.9656" lon="-0.33438">
        <ele>1419.6</ele>
        <time>2022-06-08 12:03:16</time>
      </trkpt>
      <trkpt lat="42.96562" lon="-0.33439">
        <ele>1419.8</ele>
        <time>2022-06-08 12:03:17</time>
      </trkpt>
      <trkpt lat="42.96564" lon="-0.3344">
        <ele>1420</ele>
        <time>2022-06-08 12:03:18</time>
      </trkpt>
      <trkpt lat="42.96566" lon="-0.33441">
        <ele>1420.2</ele>
        <time>2022-06-08 12:03:19</time>
      </trkpt>
      <trkpt lat="42.96568" lon="-0.33442">
        <ele>1420.6</ele>
        <time>2022-06-08 12:03:20</time>
      </trkpt>
      <trkpt lat="42.9657" lon="-0.33442">
        <ele>1420.8</ele>
        <time>2022-06-08 12:03:21</time>
      </trkpt>
      <trkpt lat="42.96573" lon="-0.33441">
        <ele>1421.2</ele>
        <time>2022-06-08 12:03:22</time>
      </trkpt>
      <trkpt lat="42.96575" lon="-0.33441">
        <ele>1421.4</ele>
        <time>2022-06-08 12:03:23</time>
      </trkpt>
      <trkpt lat="42.96577" lon="-0.3344">
        <ele>1421.8</ele>
        <time>2022-06-08 12:03:24</time>
      </trkpt>
      <trkpt lat="42.9658" lon="-0.33439">
        <ele>1422.2</ele>
        <time>2022-06-08 12:03:25</time>
      </trkpt>
      <trkpt lat="42.96582" lon="-0.33439">
        <ele>1422.4</ele>
        <time>2022-06-08 12:03:26</time>
      </trkpt>
      <trkpt lat="42.96584" lon="-0.33439">
        <ele>1423</ele>
        <time>2022-06-08 12:03:27</time>
      </trkpt>
      <trkpt lat="42.96586" lon="-0.3344">
        <ele>1423.2</ele>
        <time>2022-06-08 12:03:28</time>
      </trkpt>
      <trkpt lat="42.96589" lon="-0.33439">
        <ele>1423.4</ele>
        <time>2022-06-08 12:03:29</time>
      </trkpt>
      <trkpt lat="42.96591" lon="-0.33439">
        <ele>1423.6</ele>
        <time>2022-06-08 12:03:30</time>
      </trkpt>
      <trkpt lat="42.96594" lon="-0.33438">
        <ele>1424</ele>
        <time>2022-06-08 12:03:31</time>
      </trkpt>
      <trkpt lat="42.96596" lon="-0.33438">
        <ele>1424.2</ele>
        <time>2022-06-08 12:03:32</time>
      </trkpt>
      <trkpt lat="42.96598" lon="-0.33438">
        <ele>1424.4</ele>
        <time>2022-06-08 12:03:33</time>
      </trkpt>
      <trkpt lat="42.96601" lon="-0.33438">
        <ele>1424.8</ele>
        <time>2022-06-08 12:03:34</time>
      </trkpt>
      <trkpt lat="42.96603" lon="-0.33437">
        <ele>1425.2</ele>
        <time>2022-06-08 12:03:35</time>
      </trkpt>
      <trkpt lat="42.96605" lon="-0.33436">
        <ele>1425.4</ele>
        <time>2022-06-08 12:03:36</time>
      </trkpt>
      <trkpt lat="42.96608" lon="-0.33437">
        <ele>1425.8</ele>
        <time>2022-06-08 12:03:37</time>
      </trkpt>
      <trkpt lat="42.9661" lon="-0.33438">
        <ele>1426</ele>
        <time>2022-06-08 12:03:38</time>
      </trkpt>
      <trkpt lat="42.96613" lon="-0.33438">
        <ele>1426.4</ele>
        <time>2022-06-08 12:03:39</time>
      </trkpt>
      <trkpt lat="42.96615" lon="-0.3344">
        <ele>1426.6</ele>
        <time>2022-06-08 12:03:40</time>
      </trkpt>
      <trkpt lat="42.96617" lon="-0.33442">
        <ele>1426.8</ele>
        <time>2022-06-08 12:03:41</time>
      </trkpt>
      <trkpt lat="42.96619" lon="-0.33443">
        <ele>1427.2</ele>
        <time>2022-06-08 12:03:42</time>
      </trkpt>
      <trkpt lat="42.96622" lon="-0.33444">
        <ele>1427.4</ele>
        <time>2022-06-08 12:03:43</time>
      </trkpt>
      <trkpt lat="42.96624" lon="-0.33446">
        <ele>1427.6</ele>
        <time>2022-06-08 12:03:44</time>
      </trkpt>
      <trkpt lat="42.96626" lon="-0.33447">
        <ele>1427.6</ele>
        <time>2022-06-08 12:03:45</time>
      </trkpt>
      <trkpt lat="42.96628" lon="-0.33449">
        <ele>1428</ele>
        <time>2022-06-08 12:03:46</time>
      </trkpt>
      <trkpt lat="42.9663" lon="-0.33452">
        <ele>1428.2</ele>
        <time>2022-06-08 12:03:47</time>
      </trkpt>
      <trkpt lat="42.96631" lon="-0.33454">
        <ele>1428.4</ele>
        <time>2022-06-08 12:03:48</time>
      </trkpt>
      <trkpt lat="42.96633" lon="-0.33458">
        <ele>1428.4</ele>
        <time>2022-06-08 12:03:49</time>
      </trkpt>
      <trkpt lat="42.96634" lon="-0.33461">
        <ele>1428.8</ele>
        <time>2022-06-08 12:03:50</time>
      </trkpt>
      <trkpt lat="42.96635" lon="-0.33464">
        <ele>1428.8</ele>
        <time>2022-06-08 12:03:51</time>
      </trkpt>
      <trkpt lat="42.96636" lon="-0.33468">
        <ele>1429</ele>
        <time>2022-06-08 12:03:52</time>
      </trkpt>
      <trkpt lat="42.96637" lon="-0.33471">
        <ele>1429.2</ele>
        <time>2022-06-08 12:03:53</time>
      </trkpt>
      <trkpt lat="42.96638" lon="-0.33475">
        <ele>1429.6</ele>
        <time>2022-06-08 12:03:54</time>
      </trkpt>
      <trkpt lat="42.96639" lon="-0.33478">
        <ele>1429.8</ele>
        <time>2022-06-08 12:03:55</time>
      </trkpt>
      <trkpt lat="42.9664" lon="-0.33481">
        <ele>1430</ele>
        <time>2022-06-08 12:03:56</time>
      </trkpt>
      <trkpt lat="42.9664" lon="-0.33483">
        <ele>1430.2</ele>
        <time>2022-06-08 12:03:57</time>
      </trkpt>
      <trkpt lat="42.96641" lon="-0.33487">
        <ele>1430.4</ele>
        <time>2022-06-08 12:03:58</time>
      </trkpt>
      <trkpt lat="42.96641" lon="-0.33491">
        <ele>1430.6</ele>
        <time>2022-06-08 12:03:59</time>
      </trkpt>
      <trkpt lat="42.96641" lon="-0.33494">
        <ele>1430.8</ele>
        <time>2022-06-08 12:04:00</time>
      </trkpt>
      <trkpt lat="42.96641" lon="-0.33497">
        <ele>1431.2</ele>
        <time>2022-06-08 12:04:01</time>
      </trkpt>
      <trkpt lat="42.9664" lon="-0.33501">
        <ele>1431.4</ele>
        <time>2022-06-08 12:04:02</time>
      </trkpt>
      <trkpt lat="42.96641" lon="-0.33505">
        <ele>1431.8</ele>
        <time>2022-06-08 12:04:03</time>
      </trkpt>
      <trkpt lat="42.96642" lon="-0.33508">
        <ele>1432</ele>
        <time>2022-06-08 12:04:04</time>
      </trkpt>
      <trkpt lat="42.96643" lon="-0.33513">
        <ele>1432.2</ele>
        <time>2022-06-08 12:04:05</time>
      </trkpt>
      <trkpt lat="42.96645" lon="-0.33517">
        <ele>1432.2</ele>
        <time>2022-06-08 12:04:06</time>
      </trkpt>
      <trkpt lat="42.96647" lon="-0.33519">
        <ele>1432.4</ele>
        <time>2022-06-08 12:04:07</time>
      </trkpt>
      <trkpt lat="42.9665" lon="-0.33521">
        <ele>1432.6</ele>
        <time>2022-06-08 12:04:08</time>
      </trkpt>
      <trkpt lat="42.96652" lon="-0.33522">
        <ele>1432.8</ele>
        <time>2022-06-08 12:04:09</time>
      </trkpt>
      <trkpt lat="42.96654" lon="-0.33525">
        <ele>1432.8</ele>
        <time>2022-06-08 12:04:10</time>
      </trkpt>
      <trkpt lat="42.96657" lon="-0.33527">
        <ele>1433.2</ele>
        <time>2022-06-08 12:04:11</time>
      </trkpt>
      <trkpt lat="42.9666" lon="-0.33528">
        <ele>1433.2</ele>
        <time>2022-06-08 12:04:12</time>
      </trkpt>
      <trkpt lat="42.96663" lon="-0.3353">
        <ele>1433.6</ele>
        <time>2022-06-08 12:04:13</time>
      </trkpt>
      <trkpt lat="42.96665" lon="-0.33535">
        <ele>1434</ele>
        <time>2022-06-08 12:04:14</time>
      </trkpt>
      <trkpt lat="42.96667" lon="-0.33538">
        <ele>1434.2</ele>
        <time>2022-06-08 12:04:15</time>
      </trkpt>
      <trkpt lat="42.96669" lon="-0.33539">
        <ele>1434.6</ele>
        <time>2022-06-08 12:04:16</time>
      </trkpt>
      <trkpt lat="42.96671" lon="-0.3354">
        <ele>1434.6</ele>
        <time>2022-06-08 12:04:17</time>
      </trkpt>
      <trkpt lat="42.96674" lon="-0.33541">
        <ele>1434.8</ele>
        <time>2022-06-08 12:04:18</time>
      </trkpt>
      <trkpt lat="42.96676" lon="-0.33543">
        <ele>1435</ele>
        <time>2022-06-08 12:04:19</time>
      </trkpt>
      <trkpt lat="42.96679" lon="-0.33545">
        <ele>1435.4</ele>
        <time>2022-06-08 12:04:20</time>
      </trkpt>
      <trkpt lat="42.96681" lon="-0.33546">
        <ele>1435.4</ele>
        <time>2022-06-08 12:04:21</time>
      </trkpt>
      <trkpt lat="42.96684" lon="-0.33547">
        <ele>1436</ele>
        <time>2022-06-08 12:04:22</time>
      </trkpt>
      <trkpt lat="42.96687" lon="-0.33548">
        <ele>1436.2</ele>
        <time>2022-06-08 12:04:23</time>
      </trkpt>
      <trkpt lat="42.9669" lon="-0.3355">
        <ele>1436.6</ele>
        <time>2022-06-08 12:04:24</time>
      </trkpt>
      <trkpt lat="42.96693" lon="-0.33551">
        <ele>1436.8</ele>
        <time>2022-06-08 12:04:25</time>
      </trkpt>
      <trkpt lat="42.96695" lon="-0.33552">
        <ele>1437</ele>
        <time>2022-06-08 12:04:26</time>
      </trkpt>
      <trkpt lat="42.96697" lon="-0.33553">
        <ele>1437.2</ele>
        <time>2022-06-08 12:04:27</time>
      </trkpt>
      <trkpt lat="42.96699" lon="-0.33554">
        <ele>1437.4</ele>
        <time>2022-06-08 12:04:28</time>
      </trkpt>
      <trkpt lat="42.96702" lon="-0.33553">
        <ele>1437.6</ele>
        <time>2022-06-08 12:04:29</time>
      </trkpt>
      <trkpt lat="42.96704" lon="-0.33553">
        <ele>1437.8</ele>
        <time>2022-06-08 12:04:30</time>
      </trkpt>
      <trkpt lat="42.96707" lon="-0.33553">
        <ele>1438.2</ele>
        <time>2022-06-08 12:04:31</time>
      </trkpt>
      <trkpt lat="42.96709" lon="-0.33553">
        <ele>1438.4</ele>
        <time>2022-06-08 12:04:32</time>
      </trkpt>
      <trkpt lat="42.96711" lon="-0.33553">
        <ele>1439</ele>
        <time>2022-06-08 12:04:33</time>
      </trkpt>
      <trkpt lat="42.96714" lon="-0.33553">
        <ele>1439.2</ele>
        <time>2022-06-08 12:04:34</time>
      </trkpt>
      <trkpt lat="42.96716" lon="-0.33553">
        <ele>1439.6</ele>
        <time>2022-06-08 12:04:35</time>
      </trkpt>
      <trkpt lat="42.96719" lon="-0.33552">
        <ele>1439.8</ele>
        <time>2022-06-08 12:04:36</time>
      </trkpt>
      <trkpt lat="42.96722" lon="-0.33552">
        <ele>1440.2</ele>
        <time>2022-06-08 12:04:37</time>
      </trkpt>
      <trkpt lat="42.96725" lon="-0.33553">
        <ele>1440.4</ele>
        <time>2022-06-08 12:04:38</time>
      </trkpt>
      <trkpt lat="42.96727" lon="-0.33553">
        <ele>1441</ele>
        <time>2022-06-08 12:04:39</time>
      </trkpt>
      <trkpt lat="42.9673" lon="-0.33553">
        <ele>1441.2</ele>
        <time>2022-06-08 12:04:40</time>
      </trkpt>
      <trkpt lat="42.96733" lon="-0.33555">
        <ele>1441.6</ele>
        <time>2022-06-08 12:04:41</time>
      </trkpt>
      <trkpt lat="42.96735" lon="-0.33556">
        <ele>1441.8</ele>
        <time>2022-06-08 12:04:42</time>
      </trkpt>
      <trkpt lat="42.96738" lon="-0.33558">
        <ele>1442.2</ele>
        <time>2022-06-08 12:04:43</time>
      </trkpt>
      <trkpt lat="42.96741" lon="-0.33559">
        <ele>1442.2</ele>
        <time>2022-06-08 12:04:44</time>
      </trkpt>
      <trkpt lat="42.96743" lon="-0.33561">
        <ele>1442.4</ele>
        <time>2022-06-08 12:04:45</time>
      </trkpt>
      <trkpt lat="42.96746" lon="-0.33564">
        <ele>1442.6</ele>
        <time>2022-06-08 12:04:46</time>
      </trkpt>
      <trkpt lat="42.96748" lon="-0.33568">
        <ele>1443</ele>
        <time>2022-06-08 12:04:47</time>
      </trkpt>
      <trkpt lat="42.9675" lon="-0.3357">
        <ele>1443.4</ele>
        <time>2022-06-08 12:04:48</time>
      </trkpt>
      <trkpt lat="42.96753" lon="-0.33573">
        <ele>1443.6</ele>
        <time>2022-06-08 12:04:49</time>
      </trkpt>
      <trkpt lat="42.96756" lon="-0.33574">
        <ele>1444</ele>
        <time>2022-06-08 12:04:50</time>
      </trkpt>
      <trkpt lat="42.96758" lon="-0.33576">
        <ele>1444.2</ele>
        <time>2022-06-08 12:04:51</time>
      </trkpt>
      <trkpt lat="42.96759" lon="-0.33578">
        <ele>1444.4</ele>
        <time>2022-06-08 12:04:52</time>
      </trkpt>
      <trkpt lat="42.96762" lon="-0.33579">
        <ele>1444.4</ele>
        <time>2022-06-08 12:04:53</time>
      </trkpt>
      <trkpt lat="42.96764" lon="-0.33581">
        <ele>1444.8</ele>
        <time>2022-06-08 12:04:54</time>
      </trkpt>
      <trkpt lat="42.96766" lon="-0.33583">
        <ele>1444.8</ele>
        <time>2022-06-08 12:04:55</time>
      </trkpt>
      <trkpt lat="42.96768" lon="-0.33584">
        <ele>1445.4</ele>
        <time>2022-06-08 12:04:56</time>
      </trkpt>
      <trkpt lat="42.96771" lon="-0.33586">
        <ele>1445.6</ele>
        <time>2022-06-08 12:04:57</time>
      </trkpt>
      <trkpt lat="42.96773" lon="-0.33587">
        <ele>1446.2</ele>
        <time>2022-06-08 12:04:58</time>
      </trkpt>
      <trkpt lat="42.96775" lon="-0.33588">
        <ele>1446.4</ele>
        <time>2022-06-08 12:04:59</time>
      </trkpt>
      <trkpt lat="42.96777" lon="-0.33589">
        <ele>1446.8</ele>
        <time>2022-06-08 12:05:00</time>
      </trkpt>
      <trkpt lat="42.9678" lon="-0.33589">
        <ele>1447</ele>
        <time>2022-06-08 12:05:01</time>
      </trkpt>
      <trkpt lat="42.96782" lon="-0.3359">
        <ele>1447.4</ele>
        <time>2022-06-08 12:05:02</time>
      </trkpt>
      <trkpt lat="42.96784" lon="-0.3359">
        <ele>1447.4</ele>
        <time>2022-06-08 12:05:03</time>
      </trkpt>
      <trkpt lat="42.96787" lon="-0.33591">
        <ele>1447.6</ele>
        <time>2022-06-08 12:05:04</time>
      </trkpt>
      <trkpt lat="42.96789" lon="-0.33592">
        <ele>1447.8</ele>
        <time>2022-06-08 12:05:05</time>
      </trkpt>
      <trkpt lat="42.96792" lon="-0.33593">
        <ele>1448.4</ele>
        <time>2022-06-08 12:05:06</time>
      </trkpt>
      <trkpt lat="42.96795" lon="-0.33595">
        <ele>1448.8</ele>
        <time>2022-06-08 12:05:07</time>
      </trkpt>
      <trkpt lat="42.96797" lon="-0.33597">
        <ele>1449</ele>
        <time>2022-06-08 12:05:08</time>
      </trkpt>
      <trkpt lat="42.96799" lon="-0.33599">
        <ele>1449.4</ele>
        <time>2022-06-08 12:05:09</time>
      </trkpt>
      <trkpt lat="42.968" lon="-0.33602">
        <ele>1449.4</ele>
        <time>2022-06-08 12:05:10</time>
      </trkpt>
      <trkpt lat="42.96802" lon="-0.33605">
        <ele>1449.6</ele>
        <time>2022-06-08 12:05:11</time>
      </trkpt>
      <trkpt lat="42.96803" lon="-0.33608">
        <ele>1449.6</ele>
        <time>2022-06-08 12:05:12</time>
      </trkpt>
      <trkpt lat="42.96804" lon="-0.33611">
        <ele>1450.2</ele>
        <time>2022-06-08 12:05:13</time>
      </trkpt>
      <trkpt lat="42.96805" lon="-0.33614">
        <ele>1450.2</ele>
        <time>2022-06-08 12:05:14</time>
      </trkpt>
      <trkpt lat="42.96806" lon="-0.33617">
        <ele>1450.4</ele>
        <time>2022-06-08 12:05:15</time>
      </trkpt>
      <trkpt lat="42.96807" lon="-0.33619">
        <ele>1450.6</ele>
        <time>2022-06-08 12:05:16</time>
      </trkpt>
      <trkpt lat="42.96808" lon="-0.33622">
        <ele>1450.8</ele>
        <time>2022-06-08 12:05:17</time>
      </trkpt>
      <trkpt lat="42.9681" lon="-0.33624">
        <ele>1451</ele>
        <time>2022-06-08 12:05:18</time>
      </trkpt>
      <trkpt lat="42.96812" lon="-0.33626">
        <ele>1451.4</ele>
        <time>2022-06-08 12:05:19</time>
      </trkpt>
      <trkpt lat="42.96814" lon="-0.33628">
        <ele>1451.6</ele>
        <time>2022-06-08 12:05:20</time>
      </trkpt>
      <trkpt lat="42.96816" lon="-0.3363">
        <ele>1451.8</ele>
        <time>2022-06-08 12:05:21</time>
      </trkpt>
      <trkpt lat="42.96818" lon="-0.33632">
        <ele>1452</ele>
        <time>2022-06-08 12:05:22</time>
      </trkpt>
      <trkpt lat="42.9682" lon="-0.33634">
        <ele>1452.4</ele>
        <time>2022-06-08 12:05:23</time>
      </trkpt>
      <trkpt lat="42.96823" lon="-0.33636">
        <ele>1452.8</ele>
        <time>2022-06-08 12:05:24</time>
      </trkpt>
      <trkpt lat="42.96825" lon="-0.33638">
        <ele>1453</ele>
        <time>2022-06-08 12:05:25</time>
      </trkpt>
      <trkpt lat="42.96827" lon="-0.3364">
        <ele>1453.2</ele>
        <time>2022-06-08 12:05:26</time>
      </trkpt>
      <trkpt lat="42.96828" lon="-0.33642">
        <ele>1453.4</ele>
        <time>2022-06-08 12:05:27</time>
      </trkpt>
      <trkpt lat="42.9683" lon="-0.33644">
        <ele>1453.6</ele>
        <time>2022-06-08 12:05:28</time>
      </trkpt>
      <trkpt lat="42.96833" lon="-0.33646">
        <ele>1453.8</ele>
        <time>2022-06-08 12:05:29</time>
      </trkpt>
      <trkpt lat="42.96835" lon="-0.33647">
        <ele>1454.2</ele>
        <time>2022-06-08 12:05:30</time>
      </trkpt>
      <trkpt lat="42.96837" lon="-0.33649">
        <ele>1454.2</ele>
        <time>2022-06-08 12:05:31</time>
      </trkpt>
      <trkpt lat="42.9684" lon="-0.3365">
        <ele>1454.8</ele>
        <time>2022-06-08 12:05:32</time>
      </trkpt>
      <trkpt lat="42.96842" lon="-0.33651">
        <ele>1455</ele>
        <time>2022-06-08 12:05:33</time>
      </trkpt>
      <trkpt lat="42.96844" lon="-0.33652">
        <ele>1455</ele>
        <time>2022-06-08 12:05:34</time>
      </trkpt>
      <trkpt lat="42.96847" lon="-0.33653">
        <ele>1455.2</ele>
        <time>2022-06-08 12:05:35</time>
      </trkpt>
      <trkpt lat="42.96849" lon="-0.33653">
        <ele>1455.6</ele>
        <time>2022-06-08 12:05:36</time>
      </trkpt>
      <trkpt lat="42.96852" lon="-0.33654">
        <ele>1455.8</ele>
        <time>2022-06-08 12:05:37</time>
      </trkpt>
      <trkpt lat="42.96854" lon="-0.33655">
        <ele>1455.8</ele>
        <time>2022-06-08 12:05:38</time>
      </trkpt>
      <trkpt lat="42.96856" lon="-0.33655">
        <ele>1456.2</ele>
        <time>2022-06-08 12:05:39</time>
      </trkpt>
      <trkpt lat="42.96859" lon="-0.33655">
        <ele>1456.4</ele>
        <time>2022-06-08 12:05:40</time>
      </trkpt>
      <trkpt lat="42.96861" lon="-0.33655">
        <ele>1457</ele>
        <time>2022-06-08 12:05:41</time>
      </trkpt>
      <trkpt lat="42.96864" lon="-0.33656">
        <ele>1457</ele>
        <time>2022-06-08 12:05:42</time>
      </trkpt>
      <trkpt lat="42.96866" lon="-0.33657">
        <ele>1457.8</ele>
        <time>2022-06-08 12:05:43</time>
      </trkpt>
      <trkpt lat="42.96868" lon="-0.33658">
        <ele>1457.8</ele>
        <time>2022-06-08 12:05:44</time>
      </trkpt>
      <trkpt lat="42.96871" lon="-0.33658">
        <ele>1457.8</ele>
        <time>2022-06-08 12:05:45</time>
      </trkpt>
      <trkpt lat="42.96873" lon="-0.33659">
        <ele>1458.2</ele>
        <time>2022-06-08 12:05:46</time>
      </trkpt>
      <trkpt lat="42.96875" lon="-0.3366">
        <ele>1458.4</ele>
        <time>2022-06-08 12:05:47</time>
      </trkpt>
      <trkpt lat="42.96878" lon="-0.33661">
        <ele>1458.8</ele>
        <time>2022-06-08 12:05:48</time>
      </trkpt>
      <trkpt lat="42.9688" lon="-0.33662">
        <ele>1459</ele>
        <time>2022-06-08 12:05:49</time>
      </trkpt>
      <trkpt lat="42.96882" lon="-0.33663">
        <ele>1459.4</ele>
        <time>2022-06-08 12:05:50</time>
      </trkpt>
      <trkpt lat="42.96884" lon="-0.33665">
        <ele>1459.6</ele>
        <time>2022-06-08 12:05:51</time>
      </trkpt>
      <trkpt lat="42.96886" lon="-0.33667">
        <ele>1460</ele>
        <time>2022-06-08 12:05:52</time>
      </trkpt>
      <trkpt lat="42.96888" lon="-0.33669">
        <ele>1460.4</ele>
        <time>2022-06-08 12:05:53</time>
      </trkpt>
      <trkpt lat="42.9689" lon="-0.33672">
        <ele>1460.4</ele>
        <time>2022-06-08 12:05:54</time>
      </trkpt>
      <trkpt lat="42.96891" lon="-0.33675">
        <ele>1460.4</ele>
        <time>2022-06-08 12:05:55</time>
      </trkpt>
      <trkpt lat="42.96891" lon="-0.33679">
        <ele>1460.4</ele>
        <time>2022-06-08 12:05:56</time>
      </trkpt>
      <trkpt lat="42.96891" lon="-0.33681">
        <ele>1460.8</ele>
        <time>2022-06-08 12:05:57</time>
      </trkpt>
      <trkpt lat="42.96891" lon="-0.33684">
        <ele>1461.2</ele>
        <time>2022-06-08 12:05:58</time>
      </trkpt>
      <trkpt lat="42.96891" lon="-0.33688">
        <ele>1461.4</ele>
        <time>2022-06-08 12:05:59</time>
      </trkpt>
      <trkpt lat="42.9689" lon="-0.33691">
        <ele>1461.6</ele>
        <time>2022-06-08 12:06:00</time>
      </trkpt>
      <trkpt lat="42.96889" lon="-0.33695">
        <ele>1461.8</ele>
        <time>2022-06-08 12:06:01</time>
      </trkpt>
      <trkpt lat="42.96888" lon="-0.33699">
        <ele>1462</ele>
        <time>2022-06-08 12:06:02</time>
      </trkpt>
      <trkpt lat="42.96888" lon="-0.33703">
        <ele>1462.4</ele>
        <time>2022-06-08 12:06:03</time>
      </trkpt>
      <trkpt lat="42.96887" lon="-0.33706">
        <ele>1462.8</ele>
        <time>2022-06-08 12:06:04</time>
      </trkpt>
      <trkpt lat="42.96886" lon="-0.3371">
        <ele>1463</ele>
        <time>2022-06-08 12:06:05</time>
      </trkpt>
      <trkpt lat="42.96886" lon="-0.33714">
        <ele>1463.6</ele>
        <time>2022-06-08 12:06:06</time>
      </trkpt>
      <trkpt lat="42.96886" lon="-0.33717">
        <ele>1464</ele>
        <time>2022-06-08 12:06:07</time>
      </trkpt>
      <trkpt lat="42.96886" lon="-0.3372">
        <ele>1464.4</ele>
        <time>2022-06-08 12:06:08</time>
      </trkpt>
      <trkpt lat="42.96887" lon="-0.33724">
        <ele>1464.4</ele>
        <time>2022-06-08 12:06:09</time>
      </trkpt>
      <trkpt lat="42.96888" lon="-0.33727">
        <ele>1464.8</ele>
        <time>2022-06-08 12:06:10</time>
      </trkpt>
      <trkpt lat="42.96889" lon="-0.3373">
        <ele>1464.8</ele>
        <time>2022-06-08 12:06:11</time>
      </trkpt>
      <trkpt lat="42.9689" lon="-0.33732">
        <ele>1465.2</ele>
        <time>2022-06-08 12:06:12</time>
      </trkpt>
      <trkpt lat="42.96891" lon="-0.33735">
        <ele>1465.4</ele>
        <time>2022-06-08 12:06:13</time>
      </trkpt>
      <trkpt lat="42.96892" lon="-0.33738">
        <ele>1465.6</ele>
        <time>2022-06-08 12:06:14</time>
      </trkpt>
      <trkpt lat="42.96893" lon="-0.33742">
        <ele>1465.8</ele>
        <time>2022-06-08 12:06:15</time>
      </trkpt>
      <trkpt lat="42.96893" lon="-0.33745">
        <ele>1466</ele>
        <time>2022-06-08 12:06:16</time>
      </trkpt>
      <trkpt lat="42.96893" lon="-0.33749">
        <ele>1466.2</ele>
        <time>2022-06-08 12:06:17</time>
      </trkpt>
      <trkpt lat="42.96893" lon="-0.33753">
        <ele>1466.4</ele>
        <time>2022-06-08 12:06:18</time>
      </trkpt>
      <trkpt lat="42.96893" lon="-0.33757">
        <ele>1466.8</ele>
        <time>2022-06-08 12:06:19</time>
      </trkpt>
      <trkpt lat="42.96892" lon="-0.3376">
        <ele>1466.8</ele>
        <time>2022-06-08 12:06:20</time>
      </trkpt>
      <trkpt lat="42.96892" lon="-0.33764">
        <ele>1467.2</ele>
        <time>2022-06-08 12:06:21</time>
      </trkpt>
      <trkpt lat="42.96891" lon="-0.33766">
        <ele>1467.4</ele>
        <time>2022-06-08 12:06:22</time>
      </trkpt>
      <trkpt lat="42.9689" lon="-0.33769">
        <ele>1467.6</ele>
        <time>2022-06-08 12:06:23</time>
      </trkpt>
      <trkpt lat="42.96889" lon="-0.33774">
        <ele>1467.8</ele>
        <time>2022-06-08 12:06:24</time>
      </trkpt>
      <trkpt lat="42.96888" lon="-0.33777">
        <ele>1468.2</ele>
        <time>2022-06-08 12:06:25</time>
      </trkpt>
      <trkpt lat="42.96888" lon="-0.3378">
        <ele>1468.2</ele>
        <time>2022-06-08 12:06:26</time>
      </trkpt>
      <trkpt lat="42.96887" lon="-0.33784">
        <ele>1468.4</ele>
        <time>2022-06-08 12:06:27</time>
      </trkpt>
      <trkpt lat="42.96886" lon="-0.33787">
        <ele>1468.4</ele>
        <time>2022-06-08 12:06:28</time>
      </trkpt>
      <trkpt lat="42.96886" lon="-0.3379">
        <ele>1468.8</ele>
        <time>2022-06-08 12:06:29</time>
      </trkpt>
      <trkpt lat="42.96886" lon="-0.33793">
        <ele>1469</ele>
        <time>2022-06-08 12:06:30</time>
      </trkpt>
      <trkpt lat="42.96886" lon="-0.33796">
        <ele>1469.6</ele>
        <time>2022-06-08 12:06:31</time>
      </trkpt>
      <trkpt lat="42.96885" lon="-0.33799">
        <ele>1470</ele>
        <time>2022-06-08 12:06:32</time>
      </trkpt>
      <trkpt lat="42.96885" lon="-0.33803">
        <ele>1470.2</ele>
        <time>2022-06-08 12:06:33</time>
      </trkpt>
      <trkpt lat="42.96886" lon="-0.33806">
        <ele>1470.8</ele>
        <time>2022-06-08 12:06:34</time>
      </trkpt>
      <trkpt lat="42.96886" lon="-0.33809">
        <ele>1470.8</ele>
        <time>2022-06-08 12:06:35</time>
      </trkpt>
      <trkpt lat="42.96887" lon="-0.33812">
        <ele>1471</ele>
        <time>2022-06-08 12:06:36</time>
      </trkpt>
      <trkpt lat="42.96887" lon="-0.33815">
        <ele>1471.2</ele>
        <time>2022-06-08 12:06:37</time>
      </trkpt>
      <trkpt lat="42.96888" lon="-0.33819">
        <ele>1471.6</ele>
        <time>2022-06-08 12:06:38</time>
      </trkpt>
      <trkpt lat="42.96888" lon="-0.33822">
        <ele>1471.8</ele>
        <time>2022-06-08 12:06:39</time>
      </trkpt>
      <trkpt lat="42.96889" lon="-0.33825">
        <ele>1472</ele>
        <time>2022-06-08 12:06:40</time>
      </trkpt>
      <trkpt lat="42.9689" lon="-0.33828">
        <ele>1472.2</ele>
        <time>2022-06-08 12:06:41</time>
      </trkpt>
      <trkpt lat="42.9689" lon="-0.33832">
        <ele>1472.6</ele>
        <time>2022-06-08 12:06:42</time>
      </trkpt>
      <trkpt lat="42.96891" lon="-0.33835">
        <ele>1472.6</ele>
        <time>2022-06-08 12:06:43</time>
      </trkpt>
      <trkpt lat="42.96892" lon="-0.33838">
        <ele>1472.8</ele>
        <time>2022-06-08 12:06:44</time>
      </trkpt>
      <trkpt lat="42.96892" lon="-0.33841">
        <ele>1472.8</ele>
        <time>2022-06-08 12:06:45</time>
      </trkpt>
      <trkpt lat="42.96893" lon="-0.33845">
        <ele>1473.2</ele>
        <time>2022-06-08 12:06:46</time>
      </trkpt>
      <trkpt lat="42.96893" lon="-0.33848">
        <ele>1473.4</ele>
        <time>2022-06-08 12:06:47</time>
      </trkpt>
      <trkpt lat="42.96894" lon="-0.33851">
        <ele>1473.8</ele>
        <time>2022-06-08 12:06:48</time>
      </trkpt>
      <trkpt lat="42.96895" lon="-0.33854">
        <ele>1474.2</ele>
        <time>2022-06-08 12:06:49</time>
      </trkpt>
      <trkpt lat="42.96896" lon="-0.33858">
        <ele>1474.2</ele>
        <time>2022-06-08 12:06:50</time>
      </trkpt>
      <trkpt lat="42.96897" lon="-0.33861">
        <ele>1474.6</ele>
        <time>2022-06-08 12:06:51</time>
      </trkpt>
      <trkpt lat="42.96897" lon="-0.33864">
        <ele>1474.6</ele>
        <time>2022-06-08 12:06:52</time>
      </trkpt>
      <trkpt lat="42.96898" lon="-0.33866">
        <ele>1475.2</ele>
        <time>2022-06-08 12:06:53</time>
      </trkpt>
      <trkpt lat="42.96899" lon="-0.3387">
        <ele>1475.2</ele>
        <time>2022-06-08 12:06:54</time>
      </trkpt>
      <trkpt lat="42.969" lon="-0.33874">
        <ele>1475.4</ele>
        <time>2022-06-08 12:06:55</time>
      </trkpt>
      <trkpt lat="42.969" lon="-0.33878">
        <ele>1475.6</ele>
        <time>2022-06-08 12:06:56</time>
      </trkpt>
      <trkpt lat="42.969" lon="-0.33881">
        <ele>1476</ele>
        <time>2022-06-08 12:06:57</time>
      </trkpt>
      <trkpt lat="42.96901" lon="-0.33884">
        <ele>1476.2</ele>
        <time>2022-06-08 12:06:58</time>
      </trkpt>
      <trkpt lat="42.96901" lon="-0.33888">
        <ele>1476.4</ele>
        <time>2022-06-08 12:06:59</time>
      </trkpt>
      <trkpt lat="42.96901" lon="-0.33892">
        <ele>1476.6</ele>
        <time>2022-06-08 12:07:00</time>
      </trkpt>
      <trkpt lat="42.96902" lon="-0.33895">
        <ele>1476.8</ele>
        <time>2022-06-08 12:07:01</time>
      </trkpt>
      <trkpt lat="42.96902" lon="-0.33899">
        <ele>1476.8</ele>
        <time>2022-06-08 12:07:02</time>
      </trkpt>
      <trkpt lat="42.96902" lon="-0.33902">
        <ele>1477</ele>
        <time>2022-06-08 12:07:03</time>
      </trkpt>
      <trkpt lat="42.96903" lon="-0.33905">
        <ele>1477.2</ele>
        <time>2022-06-08 12:07:04</time>
      </trkpt>
      <trkpt lat="42.96903" lon="-0.33908">
        <ele>1477.6</ele>
        <time>2022-06-08 12:07:05</time>
      </trkpt>
      <trkpt lat="42.96903" lon="-0.33912">
        <ele>1478</ele>
        <time>2022-06-08 12:07:06</time>
      </trkpt>
      <trkpt lat="42.96904" lon="-0.33916">
        <ele>1478.2</ele>
        <time>2022-06-08 12:07:07</time>
      </trkpt>
      <trkpt lat="42.96904" lon="-0.3392">
        <ele>1478.4</ele>
        <time>2022-06-08 12:07:08</time>
      </trkpt>
      <trkpt lat="42.96905" lon="-0.33922">
        <ele>1478.6</ele>
        <time>2022-06-08 12:07:09</time>
      </trkpt>
      <trkpt lat="42.96905" lon="-0.33926">
        <ele>1478.8</ele>
        <time>2022-06-08 12:07:10</time>
      </trkpt>
      <trkpt lat="42.96906" lon="-0.33929">
        <ele>1479</ele>
        <time>2022-06-08 12:07:11</time>
      </trkpt>
      <trkpt lat="42.96906" lon="-0.33933">
        <ele>1479.4</ele>
        <time>2022-06-08 12:07:12</time>
      </trkpt>
      <trkpt lat="42.96907" lon="-0.33936">
        <ele>1479.4</ele>
        <time>2022-06-08 12:07:13</time>
      </trkpt>
      <trkpt lat="42.96908" lon="-0.33939">
        <ele>1479.8</ele>
        <time>2022-06-08 12:07:14</time>
      </trkpt>
      <trkpt lat="42.96909" lon="-0.33942">
        <ele>1479.8</ele>
        <time>2022-06-08 12:07:15</time>
      </trkpt>
      <trkpt lat="42.9691" lon="-0.33946">
        <ele>1480</ele>
        <time>2022-06-08 12:07:16</time>
      </trkpt>
      <trkpt lat="42.9691" lon="-0.33949">
        <ele>1480.4</ele>
        <time>2022-06-08 12:07:17</time>
      </trkpt>
      <trkpt lat="42.96911" lon="-0.33952">
        <ele>1480.8</ele>
        <time>2022-06-08 12:07:18</time>
      </trkpt>
      <trkpt lat="42.96912" lon="-0.33955">
        <ele>1481</ele>
        <time>2022-06-08 12:07:19</time>
      </trkpt>
      <trkpt lat="42.96914" lon="-0.33958">
        <ele>1481.2</ele>
        <time>2022-06-08 12:07:20</time>
      </trkpt>
      <trkpt lat="42.96915" lon="-0.33961">
        <ele>1481.4</ele>
        <time>2022-06-08 12:07:21</time>
      </trkpt>
      <trkpt lat="42.96916" lon="-0.33965">
        <ele>1481.8</ele>
        <time>2022-06-08 12:07:22</time>
      </trkpt>
      <trkpt lat="42.96917" lon="-0.33968">
        <ele>1482</ele>
        <time>2022-06-08 12:07:23</time>
      </trkpt>
      <trkpt lat="42.96917" lon="-0.33972">
        <ele>1482.2</ele>
        <time>2022-06-08 12:07:24</time>
      </trkpt>
      <trkpt lat="42.96918" lon="-0.33974">
        <ele>1482.4</ele>
        <time>2022-06-08 12:07:25</time>
      </trkpt>
      <trkpt lat="42.96919" lon="-0.33977">
        <ele>1482.4</ele>
        <time>2022-06-08 12:07:26</time>
      </trkpt>
      <trkpt lat="42.9692" lon="-0.33981">
        <ele>1482.8</ele>
        <time>2022-06-08 12:07:27</time>
      </trkpt>
      <trkpt lat="42.9692" lon="-0.33984">
        <ele>1483</ele>
        <time>2022-06-08 12:07:28</time>
      </trkpt>
      <trkpt lat="42.96921" lon="-0.33987">
        <ele>1483.2</ele>
        <time>2022-06-08 12:07:29</time>
      </trkpt>
      <trkpt lat="42.96922" lon="-0.3399">
        <ele>1483.4</ele>
        <time>2022-06-08 12:07:30</time>
      </trkpt>
      <trkpt lat="42.96923" lon="-0.33993">
        <ele>1483.8</ele>
        <time>2022-06-08 12:07:31</time>
      </trkpt>
      <trkpt lat="42.96923" lon="-0.33997">
        <ele>1483.8</ele>
        <time>2022-06-08 12:07:32</time>
      </trkpt>
      <trkpt lat="42.96924" lon="-0.33999">
        <ele>1484.2</ele>
        <time>2022-06-08 12:07:33</time>
      </trkpt>
      <trkpt lat="42.96925" lon="-0.34003">
        <ele>1484.2</ele>
        <time>2022-06-08 12:07:34</time>
      </trkpt>
      <trkpt lat="42.96926" lon="-0.34005">
        <ele>1484.4</ele>
        <time>2022-06-08 12:07:35</time>
      </trkpt>
      <trkpt lat="42.96927" lon="-0.34009">
        <ele>1484.4</ele>
        <time>2022-06-08 12:07:36</time>
      </trkpt>
      <trkpt lat="42.96928" lon="-0.34012">
        <ele>1484.6</ele>
        <time>2022-06-08 12:07:37</time>
      </trkpt>
      <trkpt lat="42.96929" lon="-0.34016">
        <ele>1485</ele>
        <time>2022-06-08 12:07:38</time>
      </trkpt>
      <trkpt lat="42.9693" lon="-0.34019">
        <ele>1485.4</ele>
        <time>2022-06-08 12:07:39</time>
      </trkpt>
      <trkpt lat="42.9693" lon="-0.34022">
        <ele>1485.8</ele>
        <time>2022-06-08 12:07:40</time>
      </trkpt>
      <trkpt lat="42.96931" lon="-0.34025">
        <ele>1485.8</ele>
        <time>2022-06-08 12:07:41</time>
      </trkpt>
      <trkpt lat="42.96932" lon="-0.34029">
        <ele>1486.2</ele>
        <time>2022-06-08 12:07:42</time>
      </trkpt>
      <trkpt lat="42.96934" lon="-0.34032">
        <ele>1486.4</ele>
        <time>2022-06-08 12:07:43</time>
      </trkpt>
      <trkpt lat="42.96935" lon="-0.34035">
        <ele>1486.8</ele>
        <time>2022-06-08 12:07:44</time>
      </trkpt>
      <trkpt lat="42.96937" lon="-0.34038">
        <ele>1487</ele>
        <time>2022-06-08 12:07:45</time>
      </trkpt>
      <trkpt lat="42.96938" lon="-0.34041">
        <ele>1487.4</ele>
        <time>2022-06-08 12:07:46</time>
      </trkpt>
      <trkpt lat="42.96939" lon="-0.34043">
        <ele>1487.6</ele>
        <time>2022-06-08 12:07:47</time>
      </trkpt>
      <trkpt lat="42.96941" lon="-0.34047">
        <ele>1487.8</ele>
        <time>2022-06-08 12:07:48</time>
      </trkpt>
      <trkpt lat="42.96943" lon="-0.34049">
        <ele>1488</ele>
        <time>2022-06-08 12:07:49</time>
      </trkpt>
      <trkpt lat="42.96944" lon="-0.34052">
        <ele>1488.4</ele>
        <time>2022-06-08 12:07:50</time>
      </trkpt>
      <trkpt lat="42.96945" lon="-0.34055">
        <ele>1488.6</ele>
        <time>2022-06-08 12:07:51</time>
      </trkpt>
      <trkpt lat="42.96946" lon="-0.34058">
        <ele>1489</ele>
        <time>2022-06-08 12:07:52</time>
      </trkpt>
      <trkpt lat="42.96946" lon="-0.34063">
        <ele>1489.2</ele>
        <time>2022-06-08 12:07:53</time>
      </trkpt>
      <trkpt lat="42.96946" lon="-0.34067">
        <ele>1489.4</ele>
        <time>2022-06-08 12:07:54</time>
      </trkpt>
      <trkpt lat="42.96946" lon="-0.34071">
        <ele>1489.4</ele>
        <time>2022-06-08 12:07:55</time>
      </trkpt>
      <trkpt lat="42.96945" lon="-0.34074">
        <ele>1489.8</ele>
        <time>2022-06-08 12:07:56</time>
      </trkpt>
      <trkpt lat="42.96944" lon="-0.34077">
        <ele>1490.2</ele>
        <time>2022-06-08 12:07:57</time>
      </trkpt>
      <trkpt lat="42.96943" lon="-0.34081">
        <ele>1490.2</ele>
        <time>2022-06-08 12:07:58</time>
      </trkpt>
      <trkpt lat="42.96941" lon="-0.34085">
        <ele>1490.6</ele>
        <time>2022-06-08 12:07:59</time>
      </trkpt>
      <trkpt lat="42.9694" lon="-0.34088">
        <ele>1490.6</ele>
        <time>2022-06-08 12:08:00</time>
      </trkpt>
      <trkpt lat="42.96938" lon="-0.34092">
        <ele>1491</ele>
        <time>2022-06-08 12:08:01</time>
      </trkpt>
      <trkpt lat="42.96937" lon="-0.34095">
        <ele>1491.2</ele>
        <time>2022-06-08 12:08:02</time>
      </trkpt>
      <trkpt lat="42.96935" lon="-0.34098">
        <ele>1491.6</ele>
        <time>2022-06-08 12:08:03</time>
      </trkpt>
      <trkpt lat="42.96933" lon="-0.34101">
        <ele>1491.6</ele>
        <time>2022-06-08 12:08:04</time>
      </trkpt>
      <trkpt lat="42.96932" lon="-0.34105">
        <ele>1492</ele>
        <time>2022-06-08 12:08:05</time>
      </trkpt>
      <trkpt lat="42.9693" lon="-0.34108">
        <ele>1492.4</ele>
        <time>2022-06-08 12:08:06</time>
      </trkpt>
      <trkpt lat="42.96929" lon="-0.34112">
        <ele>1493</ele>
        <time>2022-06-08 12:08:07</time>
      </trkpt>
      <trkpt lat="42.96929" lon="-0.34116">
        <ele>1493.2</ele>
        <time>2022-06-08 12:08:08</time>
      </trkpt>
      <trkpt lat="42.96928" lon="-0.3412">
        <ele>1493.6</ele>
        <time>2022-06-08 12:08:09</time>
      </trkpt>
      <trkpt lat="42.96928" lon="-0.34124">
        <ele>1493.6</ele>
        <time>2022-06-08 12:08:10</time>
      </trkpt>
      <trkpt lat="42.96928" lon="-0.34128">
        <ele>1493.8</ele>
        <time>2022-06-08 12:08:11</time>
      </trkpt>
      <trkpt lat="42.96928" lon="-0.34131">
        <ele>1493.8</ele>
        <time>2022-06-08 12:08:12</time>
      </trkpt>
      <trkpt lat="42.96928" lon="-0.34135">
        <ele>1494.2</ele>
        <time>2022-06-08 12:08:13</time>
      </trkpt>
      <trkpt lat="42.96929" lon="-0.34139">
        <ele>1494.4</ele>
        <time>2022-06-08 12:08:14</time>
      </trkpt>
      <trkpt lat="42.9693" lon="-0.34143">
        <ele>1494.4</ele>
        <time>2022-06-08 12:08:15</time>
      </trkpt>
      <trkpt lat="42.96931" lon="-0.34145">
        <ele>1495</ele>
        <time>2022-06-08 12:08:16</time>
      </trkpt>
      <trkpt lat="42.96932" lon="-0.34148">
        <ele>1495.2</ele>
        <time>2022-06-08 12:08:17</time>
      </trkpt>
      <trkpt lat="42.96933" lon="-0.34151">
        <ele>1495.6</ele>
        <time>2022-06-08 12:08:18</time>
      </trkpt>
      <trkpt lat="42.96935" lon="-0.34153">
        <ele>1495.6</ele>
        <time>2022-06-08 12:08:19</time>
      </trkpt>
      <trkpt lat="42.96937" lon="-0.34157">
        <ele>1496</ele>
        <time>2022-06-08 12:08:20</time>
      </trkpt>
      <trkpt lat="42.96938" lon="-0.34158">
        <ele>1496.2</ele>
        <time>2022-06-08 12:08:21</time>
      </trkpt>
      <trkpt lat="42.9694" lon="-0.34161">
        <ele>1496.8</ele>
        <time>2022-06-08 12:08:22</time>
      </trkpt>
      <trkpt lat="42.96941" lon="-0.34164">
        <ele>1497</ele>
        <time>2022-06-08 12:08:23</time>
      </trkpt>
      <trkpt lat="42.96942" lon="-0.34167">
        <ele>1497.4</ele>
        <time>2022-06-08 12:08:24</time>
      </trkpt>
      <trkpt lat="42.96944" lon="-0.3417">
        <ele>1497.4</ele>
        <time>2022-06-08 12:08:25</time>
      </trkpt>
      <trkpt lat="42.96945" lon="-0.34174">
        <ele>1497.8</ele>
        <time>2022-06-08 12:08:26</time>
      </trkpt>
      <trkpt lat="42.96946" lon="-0.34177">
        <ele>1497.8</ele>
        <time>2022-06-08 12:08:27</time>
      </trkpt>
      <trkpt lat="42.96948" lon="-0.34179">
        <ele>1498.2</ele>
        <time>2022-06-08 12:08:28</time>
      </trkpt>
      <trkpt lat="42.96949" lon="-0.34181">
        <ele>1498.4</ele>
        <time>2022-06-08 12:08:29</time>
      </trkpt>
      <trkpt lat="42.96951" lon="-0.34183">
        <ele>1498.8</ele>
        <time>2022-06-08 12:08:30</time>
      </trkpt>
      <trkpt lat="42.96953" lon="-0.34186">
        <ele>1499.2</ele>
        <time>2022-06-08 12:08:31</time>
      </trkpt>
      <trkpt lat="42.96954" lon="-0.34189">
        <ele>1499.6</ele>
        <time>2022-06-08 12:08:32</time>
      </trkpt>
      <trkpt lat="42.96956" lon="-0.34191">
        <ele>1500</ele>
        <time>2022-06-08 12:08:33</time>
      </trkpt>
      <trkpt lat="42.96957" lon="-0.34193">
        <ele>1500.2</ele>
        <time>2022-06-08 12:08:34</time>
      </trkpt>
      <trkpt lat="42.96959" lon="-0.34195">
        <ele>1500.4</ele>
        <time>2022-06-08 12:08:35</time>
      </trkpt>
      <trkpt lat="42.96961" lon="-0.34199">
        <ele>1500.6</ele>
        <time>2022-06-08 12:08:36</time>
      </trkpt>
      <trkpt lat="42.96962" lon="-0.34202">
        <ele>1500.8</ele>
        <time>2022-06-08 12:08:37</time>
      </trkpt>
      <trkpt lat="42.96964" lon="-0.34205">
        <ele>1500.8</ele>
        <time>2022-06-08 12:08:38</time>
      </trkpt>
      <trkpt lat="42.96965" lon="-0.34207">
        <ele>1501</ele>
        <time>2022-06-08 12:08:39</time>
      </trkpt>
      <trkpt lat="42.96966" lon="-0.3421">
        <ele>1501</ele>
        <time>2022-06-08 12:08:40</time>
      </trkpt>
      <trkpt lat="42.96968" lon="-0.34213">
        <ele>1501.4</ele>
        <time>2022-06-08 12:08:41</time>
      </trkpt>
      <trkpt lat="42.96969" lon="-0.34216">
        <ele>1501.6</ele>
        <time>2022-06-08 12:08:42</time>
      </trkpt>
      <trkpt lat="42.96971" lon="-0.3422">
        <ele>1502</ele>
        <time>2022-06-08 12:08:43</time>
      </trkpt>
      <trkpt lat="42.96972" lon="-0.34222">
        <ele>1502.2</ele>
        <time>2022-06-08 12:08:44</time>
      </trkpt>
      <trkpt lat="42.96973" lon="-0.34226">
        <ele>1502.4</ele>
        <time>2022-06-08 12:08:45</time>
      </trkpt>
      <trkpt lat="42.96973" lon="-0.34229">
        <ele>1502.4</ele>
        <time>2022-06-08 12:08:46</time>
      </trkpt>
      <trkpt lat="42.96975" lon="-0.34233">
        <ele>1502.6</ele>
        <time>2022-06-08 12:08:47</time>
      </trkpt>
      <trkpt lat="42.96976" lon="-0.34236">
        <ele>1502.8</ele>
        <time>2022-06-08 12:08:48</time>
      </trkpt>
      <trkpt lat="42.96976" lon="-0.34239">
        <ele>1502.8</ele>
        <time>2022-06-08 12:08:49</time>
      </trkpt>
      <trkpt lat="42.96977" lon="-0.34242">
        <ele>1503</ele>
        <time>2022-06-08 12:08:50</time>
      </trkpt>
      <trkpt lat="42.96979" lon="-0.34246">
        <ele>1503.4</ele>
        <time>2022-06-08 12:08:51</time>
      </trkpt>
      <trkpt lat="42.9698" lon="-0.34248">
        <ele>1504.2</ele>
        <time>2022-06-08 12:08:52</time>
      </trkpt>
      <trkpt lat="42.96981" lon="-0.34251">
        <ele>1504.6</ele>
        <time>2022-06-08 12:08:53</time>
      </trkpt>
      <trkpt lat="42.96982" lon="-0.34254">
        <ele>1504.8</ele>
        <time>2022-06-08 12:08:54</time>
      </trkpt>
      <trkpt lat="42.96983" lon="-0.34256">
        <ele>1505</ele>
        <time>2022-06-08 12:08:55</time>
      </trkpt>
      <trkpt lat="42.96984" lon="-0.3426">
        <ele>1505.4</ele>
        <time>2022-06-08 12:08:56</time>
      </trkpt>
      <trkpt lat="42.96985" lon="-0.34263">
        <ele>1505.6</ele>
        <time>2022-06-08 12:08:57</time>
      </trkpt>
      <trkpt lat="42.96986" lon="-0.34266">
        <ele>1505.6</ele>
        <time>2022-06-08 12:08:58</time>
      </trkpt>
      <trkpt lat="42.96987" lon="-0.34269">
        <ele>1505.8</ele>
        <time>2022-06-08 12:08:59</time>
      </trkpt>
      <trkpt lat="42.96987" lon="-0.34272">
        <ele>1506.2</ele>
        <time>2022-06-08 12:09:00</time>
      </trkpt>
      <trkpt lat="42.96988" lon="-0.34275">
        <ele>1506.4</ele>
        <time>2022-06-08 12:09:01</time>
      </trkpt>
      <trkpt lat="42.96989" lon="-0.34279">
        <ele>1506.6</ele>
        <time>2022-06-08 12:09:02</time>
      </trkpt>
      <trkpt lat="42.96989" lon="-0.34283">
        <ele>1506.8</ele>
        <time>2022-06-08 12:09:03</time>
      </trkpt>
      <trkpt lat="42.9699" lon="-0.34287">
        <ele>1507.2</ele>
        <time>2022-06-08 12:09:04</time>
      </trkpt>
      <trkpt lat="42.9699" lon="-0.34291">
        <ele>1507.4</ele>
        <time>2022-06-08 12:09:05</time>
      </trkpt>
      <trkpt lat="42.96991" lon="-0.34295">
        <ele>1507.6</ele>
        <time>2022-06-08 12:09:06</time>
      </trkpt>
      <trkpt lat="42.9699" lon="-0.34298">
        <ele>1508</ele>
        <time>2022-06-08 12:09:07</time>
      </trkpt>
      <trkpt lat="42.9699" lon="-0.34303">
        <ele>1508.2</ele>
        <time>2022-06-08 12:09:08</time>
      </trkpt>
      <trkpt lat="42.9699" lon="-0.34306">
        <ele>1508.4</ele>
        <time>2022-06-08 12:09:09</time>
      </trkpt>
      <trkpt lat="42.96989" lon="-0.3431">
        <ele>1508.6</ele>
        <time>2022-06-08 12:09:10</time>
      </trkpt>
      <trkpt lat="42.96988" lon="-0.34313">
        <ele>1508.8</ele>
        <time>2022-06-08 12:09:11</time>
      </trkpt>
      <trkpt lat="42.96987" lon="-0.34317">
        <ele>1509</ele>
        <time>2022-06-08 12:09:12</time>
      </trkpt>
      <trkpt lat="42.96987" lon="-0.34321">
        <ele>1509.4</ele>
        <time>2022-06-08 12:09:13</time>
      </trkpt>
      <trkpt lat="42.96986" lon="-0.34324">
        <ele>1509.6</ele>
        <time>2022-06-08 12:09:14</time>
      </trkpt>
      <trkpt lat="42.96987" lon="-0.34328">
        <ele>1509.8</ele>
        <time>2022-06-08 12:09:15</time>
      </trkpt>
      <trkpt lat="42.96987" lon="-0.34332">
        <ele>1509.8</ele>
        <time>2022-06-08 12:09:16</time>
      </trkpt>
      <trkpt lat="42.96987" lon="-0.34336">
        <ele>1510</ele>
        <time>2022-06-08 12:09:17</time>
      </trkpt>
      <trkpt lat="42.96986" lon="-0.3434">
        <ele>1510.2</ele>
        <time>2022-06-08 12:09:18</time>
      </trkpt>
      <trkpt lat="42.96985" lon="-0.34344">
        <ele>1510.4</ele>
        <time>2022-06-08 12:09:19</time>
      </trkpt>
      <trkpt lat="42.96985" lon="-0.34348">
        <ele>1510.6</ele>
        <time>2022-06-08 12:09:20</time>
      </trkpt>
      <trkpt lat="42.96985" lon="-0.34352">
        <ele>1510.8</ele>
        <time>2022-06-08 12:09:21</time>
      </trkpt>
      <trkpt lat="42.96985" lon="-0.34356">
        <ele>1511</ele>
        <time>2022-06-08 12:09:22</time>
      </trkpt>
      <trkpt lat="42.96986" lon="-0.34359">
        <ele>1511.2</ele>
        <time>2022-06-08 12:09:23</time>
      </trkpt>
      <trkpt lat="42.96987" lon="-0.34362">
        <ele>1511.6</ele>
        <time>2022-06-08 12:09:24</time>
      </trkpt>
      <trkpt lat="42.96988" lon="-0.34366">
        <ele>1511.8</ele>
        <time>2022-06-08 12:09:25</time>
      </trkpt>
      <trkpt lat="42.96989" lon="-0.34369">
        <ele>1512.4</ele>
        <time>2022-06-08 12:09:26</time>
      </trkpt>
      <trkpt lat="42.96991" lon="-0.34372">
        <ele>1512.6</ele>
        <time>2022-06-08 12:09:27</time>
      </trkpt>
      <trkpt lat="42.96993" lon="-0.34375">
        <ele>1513</ele>
        <time>2022-06-08 12:09:28</time>
      </trkpt>
      <trkpt lat="42.96995" lon="-0.34377">
        <ele>1513.2</ele>
        <time>2022-06-08 12:09:29</time>
      </trkpt>
      <trkpt lat="42.96997" lon="-0.34379">
        <ele>1513.6</ele>
        <time>2022-06-08 12:09:30</time>
      </trkpt>
      <trkpt lat="42.96999" lon="-0.34381">
        <ele>1513.8</ele>
        <time>2022-06-08 12:09:31</time>
      </trkpt>
      <trkpt lat="42.97001" lon="-0.34383">
        <ele>1514.4</ele>
        <time>2022-06-08 12:09:32</time>
      </trkpt>
      <trkpt lat="42.97003" lon="-0.34385">
        <ele>1514.6</ele>
        <time>2022-06-08 12:09:33</time>
      </trkpt>
      <trkpt lat="42.97005" lon="-0.34387">
        <ele>1515</ele>
        <time>2022-06-08 12:09:34</time>
      </trkpt>
      <trkpt lat="42.97007" lon="-0.34388">
        <ele>1515</ele>
        <time>2022-06-08 12:09:35</time>
      </trkpt>
      <trkpt lat="42.97009" lon="-0.3439">
        <ele>1515.4</ele>
        <time>2022-06-08 12:09:36</time>
      </trkpt>
      <trkpt lat="42.97011" lon="-0.34392">
        <ele>1515.6</ele>
        <time>2022-06-08 12:09:37</time>
      </trkpt>
      <trkpt lat="42.97013" lon="-0.34393">
        <ele>1516</ele>
        <time>2022-06-08 12:09:38</time>
      </trkpt>
      <trkpt lat="42.97015" lon="-0.34395">
        <ele>1516.4</ele>
        <time>2022-06-08 12:09:39</time>
      </trkpt>
      <trkpt lat="42.97017" lon="-0.34397">
        <ele>1516.6</ele>
        <time>2022-06-08 12:09:40</time>
      </trkpt>
      <trkpt lat="42.97019" lon="-0.34399">
        <ele>1516.8</ele>
        <time>2022-06-08 12:09:41</time>
      </trkpt>
      <trkpt lat="42.97022" lon="-0.34401">
        <ele>1517</ele>
        <time>2022-06-08 12:09:42</time>
      </trkpt>
      <trkpt lat="42.97024" lon="-0.34404">
        <ele>1517.2</ele>
        <time>2022-06-08 12:09:43</time>
      </trkpt>
      <trkpt lat="42.97026" lon="-0.34406">
        <ele>1517.4</ele>
        <time>2022-06-08 12:09:44</time>
      </trkpt>
      <trkpt lat="42.97028" lon="-0.34409">
        <ele>1517.6</ele>
        <time>2022-06-08 12:09:45</time>
      </trkpt>
      <trkpt lat="42.97029" lon="-0.34412">
        <ele>1517.8</ele>
        <time>2022-06-08 12:09:46</time>
      </trkpt>
      <trkpt lat="42.97031" lon="-0.34414">
        <ele>1518.2</ele>
        <time>2022-06-08 12:09:47</time>
      </trkpt>
      <trkpt lat="42.97033" lon="-0.34417">
        <ele>1518.2</ele>
        <time>2022-06-08 12:09:48</time>
      </trkpt>
      <trkpt lat="42.97035" lon="-0.34419">
        <ele>1518.6</ele>
        <time>2022-06-08 12:09:49</time>
      </trkpt>
      <trkpt lat="42.97036" lon="-0.34422">
        <ele>1518.6</ele>
        <time>2022-06-08 12:09:50</time>
      </trkpt>
      <trkpt lat="42.97038" lon="-0.34425">
        <ele>1518.8</ele>
        <time>2022-06-08 12:09:51</time>
      </trkpt>
      <trkpt lat="42.97039" lon="-0.34427">
        <ele>1519</ele>
        <time>2022-06-08 12:09:52</time>
      </trkpt>
      <trkpt lat="42.97041" lon="-0.3443">
        <ele>1519.2</ele>
        <time>2022-06-08 12:09:53</time>
      </trkpt>
      <trkpt lat="42.97042" lon="-0.34433">
        <ele>1519.4</ele>
        <time>2022-06-08 12:09:54</time>
      </trkpt>
      <trkpt lat="42.97043" lon="-0.34436">
        <ele>1519.8</ele>
        <time>2022-06-08 12:09:55</time>
      </trkpt>
      <trkpt lat="42.97044" lon="-0.34439">
        <ele>1520.2</ele>
        <time>2022-06-08 12:09:56</time>
      </trkpt>
      <trkpt lat="42.97045" lon="-0.34443">
        <ele>1520.4</ele>
        <time>2022-06-08 12:09:57</time>
      </trkpt>
      <trkpt lat="42.97047" lon="-0.34446">
        <ele>1520.6</ele>
        <time>2022-06-08 12:09:58</time>
      </trkpt>
      <trkpt lat="42.97048" lon="-0.34448">
        <ele>1520.8</ele>
        <time>2022-06-08 12:09:59</time>
      </trkpt>
      <trkpt lat="42.9705" lon="-0.34451">
        <ele>1521</ele>
        <time>2022-06-08 12:10:00</time>
      </trkpt>
      <trkpt lat="42.97051" lon="-0.34454">
        <ele>1521.2</ele>
        <time>2022-06-08 12:10:01</time>
      </trkpt>
      <trkpt lat="42.97052" lon="-0.34457">
        <ele>1521.4</ele>
        <time>2022-06-08 12:10:02</time>
      </trkpt>
      <trkpt lat="42.97054" lon="-0.3446">
        <ele>1521.4</ele>
        <time>2022-06-08 12:10:03</time>
      </trkpt>
      <trkpt lat="42.97055" lon="-0.34462">
        <ele>1521.8</ele>
        <time>2022-06-08 12:10:04</time>
      </trkpt>
      <trkpt lat="42.97057" lon="-0.34465">
        <ele>1522</ele>
        <time>2022-06-08 12:10:05</time>
      </trkpt>
      <trkpt lat="42.97059" lon="-0.34468">
        <ele>1522.2</ele>
        <time>2022-06-08 12:10:06</time>
      </trkpt>
      <trkpt lat="42.9706" lon="-0.3447">
        <ele>1522.4</ele>
        <time>2022-06-08 12:10:07</time>
      </trkpt>
      <trkpt lat="42.97062" lon="-0.34473">
        <ele>1522.8</ele>
        <time>2022-06-08 12:10:08</time>
      </trkpt>
      <trkpt lat="42.97063" lon="-0.34476">
        <ele>1523</ele>
        <time>2022-06-08 12:10:09</time>
      </trkpt>
      <trkpt lat="42.97064" lon="-0.34479">
        <ele>1523.2</ele>
        <time>2022-06-08 12:10:10</time>
      </trkpt>
      <trkpt lat="42.97066" lon="-0.34482">
        <ele>1523.4</ele>
        <time>2022-06-08 12:10:11</time>
      </trkpt>
      <trkpt lat="42.97067" lon="-0.34485">
        <ele>1523.6</ele>
        <time>2022-06-08 12:10:12</time>
      </trkpt>
      <trkpt lat="42.97068" lon="-0.34488">
        <ele>1523.8</ele>
        <time>2022-06-08 12:10:13</time>
      </trkpt>
      <trkpt lat="42.97069" lon="-0.34491">
        <ele>1524</ele>
        <time>2022-06-08 12:10:14</time>
      </trkpt>
      <trkpt lat="42.9707" lon="-0.34494">
        <ele>1524.4</ele>
        <time>2022-06-08 12:10:15</time>
      </trkpt>
      <trkpt lat="42.97071" lon="-0.34497">
        <ele>1524.6</ele>
        <time>2022-06-08 12:10:16</time>
      </trkpt>
      <trkpt lat="42.97073" lon="-0.34501">
        <ele>1525</ele>
        <time>2022-06-08 12:10:17</time>
      </trkpt>
      <trkpt lat="42.97074" lon="-0.34504">
        <ele>1525.2</ele>
        <time>2022-06-08 12:10:18</time>
      </trkpt>
      <trkpt lat="42.97075" lon="-0.34507">
        <ele>1525.4</ele>
        <time>2022-06-08 12:10:19</time>
      </trkpt>
      <trkpt lat="42.97077" lon="-0.3451">
        <ele>1525.6</ele>
        <time>2022-06-08 12:10:20</time>
      </trkpt>
      <trkpt lat="42.97078" lon="-0.34513">
        <ele>1525.8</ele>
        <time>2022-06-08 12:10:21</time>
      </trkpt>
      <trkpt lat="42.97079" lon="-0.34516">
        <ele>1526</ele>
        <time>2022-06-08 12:10:22</time>
      </trkpt>
      <trkpt lat="42.9708" lon="-0.3452">
        <ele>1526.2</ele>
        <time>2022-06-08 12:10:23</time>
      </trkpt>
      <trkpt lat="42.97082" lon="-0.34523">
        <ele>1526.4</ele>
        <time>2022-06-08 12:10:24</time>
      </trkpt>
      <trkpt lat="42.97083" lon="-0.34526">
        <ele>1526.6</ele>
        <time>2022-06-08 12:10:25</time>
      </trkpt>
      <trkpt lat="42.97085" lon="-0.34529">
        <ele>1526.8</ele>
        <time>2022-06-08 12:10:26</time>
      </trkpt>
      <trkpt lat="42.97087" lon="-0.34532">
        <ele>1527.2</ele>
        <time>2022-06-08 12:10:27</time>
      </trkpt>
      <trkpt lat="42.97089" lon="-0.34534">
        <ele>1527.2</ele>
        <time>2022-06-08 12:10:28</time>
      </trkpt>
      <trkpt lat="42.97092" lon="-0.34536">
        <ele>1527.6</ele>
        <time>2022-06-08 12:10:29</time>
      </trkpt>
      <trkpt lat="42.97094" lon="-0.34538">
        <ele>1528</ele>
        <time>2022-06-08 12:10:30</time>
      </trkpt>
      <trkpt lat="42.97096" lon="-0.3454">
        <ele>1528.4</ele>
        <time>2022-06-08 12:10:31</time>
      </trkpt>
      <trkpt lat="42.97098" lon="-0.34543">
        <ele>1528.8</ele>
        <time>2022-06-08 12:10:32</time>
      </trkpt>
      <trkpt lat="42.97101" lon="-0.34545">
        <ele>1529</ele>
        <time>2022-06-08 12:10:33</time>
      </trkpt>
      <trkpt lat="42.97103" lon="-0.34547">
        <ele>1529.2</ele>
        <time>2022-06-08 12:10:34</time>
      </trkpt>
      <trkpt lat="42.97105" lon="-0.34548">
        <ele>1529.4</ele>
        <time>2022-06-08 12:10:35</time>
      </trkpt>
      <trkpt lat="42.97108" lon="-0.3455">
        <ele>1529.6</ele>
        <time>2022-06-08 12:10:36</time>
      </trkpt>
      <trkpt lat="42.9711" lon="-0.34552">
        <ele>1529.6</ele>
        <time>2022-06-08 12:10:37</time>
      </trkpt>
      <trkpt lat="42.97112" lon="-0.34553">
        <ele>1530</ele>
        <time>2022-06-08 12:10:38</time>
      </trkpt>
      <trkpt lat="42.97114" lon="-0.34555">
        <ele>1530.2</ele>
        <time>2022-06-08 12:10:39</time>
      </trkpt>
      <trkpt lat="42.97117" lon="-0.34556">
        <ele>1530.2</ele>
        <time>2022-06-08 12:10:40</time>
      </trkpt>
      <trkpt lat="42.97119" lon="-0.34557">
        <ele>1530.4</ele>
        <time>2022-06-08 12:10:41</time>
      </trkpt>
      <trkpt lat="42.97121" lon="-0.34559">
        <ele>1531</ele>
        <time>2022-06-08 12:10:42</time>
      </trkpt>
      <trkpt lat="42.97124" lon="-0.3456">
        <ele>1531.2</ele>
        <time>2022-06-08 12:10:43</time>
      </trkpt>
      <trkpt lat="42.97126" lon="-0.34562">
        <ele>1532</ele>
        <time>2022-06-08 12:10:44</time>
      </trkpt>
      <trkpt lat="42.97128" lon="-0.34563">
        <ele>1532.2</ele>
        <time>2022-06-08 12:10:45</time>
      </trkpt>
      <trkpt lat="42.97131" lon="-0.34565">
        <ele>1532.6</ele>
        <time>2022-06-08 12:10:46</time>
      </trkpt>
      <trkpt lat="42.97133" lon="-0.34566">
        <ele>1532.8</ele>
        <time>2022-06-08 12:10:47</time>
      </trkpt>
      <trkpt lat="42.97135" lon="-0.34568">
        <ele>1533</ele>
        <time>2022-06-08 12:10:48</time>
      </trkpt>
      <trkpt lat="42.97137" lon="-0.3457">
        <ele>1533.4</ele>
        <time>2022-06-08 12:10:49</time>
      </trkpt>
      <trkpt lat="42.9714" lon="-0.34572">
        <ele>1533.4</ele>
        <time>2022-06-08 12:10:50</time>
      </trkpt>
      <trkpt lat="42.97142" lon="-0.34574">
        <ele>1533.8</ele>
        <time>2022-06-08 12:10:51</time>
      </trkpt>
      <trkpt lat="42.97144" lon="-0.34577">
        <ele>1534</ele>
        <time>2022-06-08 12:10:52</time>
      </trkpt>
      <trkpt lat="42.97145" lon="-0.34579">
        <ele>1534.4</ele>
        <time>2022-06-08 12:10:53</time>
      </trkpt>
      <trkpt lat="42.97147" lon="-0.34582">
        <ele>1534.6</ele>
        <time>2022-06-08 12:10:54</time>
      </trkpt>
      <trkpt lat="42.97148" lon="-0.34586">
        <ele>1534.8</ele>
        <time>2022-06-08 12:10:55</time>
      </trkpt>
      <trkpt lat="42.97149" lon="-0.34589">
        <ele>1535.2</ele>
        <time>2022-06-08 12:10:56</time>
      </trkpt>
      <trkpt lat="42.9715" lon="-0.34592">
        <ele>1535.4</ele>
        <time>2022-06-08 12:10:57</time>
      </trkpt>
      <trkpt lat="42.97152" lon="-0.34596">
        <ele>1535.6</ele>
        <time>2022-06-08 12:10:58</time>
      </trkpt>
      <trkpt lat="42.97153" lon="-0.34599">
        <ele>1535.8</ele>
        <time>2022-06-08 12:10:59</time>
      </trkpt>
      <trkpt lat="42.97154" lon="-0.34603">
        <ele>1536</ele>
        <time>2022-06-08 12:11:00</time>
      </trkpt>
      <trkpt lat="42.97156" lon="-0.34606">
        <ele>1536.2</ele>
        <time>2022-06-08 12:11:01</time>
      </trkpt>
      <trkpt lat="42.97157" lon="-0.3461">
        <ele>1536.2</ele>
        <time>2022-06-08 12:11:02</time>
      </trkpt>
      <trkpt lat="42.97157" lon="-0.34614">
        <ele>1536.8</ele>
        <time>2022-06-08 12:11:03</time>
      </trkpt>
      <trkpt lat="42.97158" lon="-0.34618">
        <ele>1537.2</ele>
        <time>2022-06-08 12:11:04</time>
      </trkpt>
      <trkpt lat="42.97159" lon="-0.34622">
        <ele>1537.6</ele>
        <time>2022-06-08 12:11:05</time>
      </trkpt>
      <trkpt lat="42.9716" lon="-0.34626">
        <ele>1537.8</ele>
        <time>2022-06-08 12:11:06</time>
      </trkpt>
      <trkpt lat="42.9716" lon="-0.3463">
        <ele>1538</ele>
        <time>2022-06-08 12:11:07</time>
      </trkpt>
      <trkpt lat="42.9716" lon="-0.34634">
        <ele>1538.2</ele>
        <time>2022-06-08 12:11:08</time>
      </trkpt>
      <trkpt lat="42.9716" lon="-0.34638">
        <ele>1538.4</ele>
        <time>2022-06-08 12:11:09</time>
      </trkpt>
      <trkpt lat="42.9716" lon="-0.34642">
        <ele>1538.6</ele>
        <time>2022-06-08 12:11:10</time>
      </trkpt>
      <trkpt lat="42.97161" lon="-0.34646">
        <ele>1538.6</ele>
        <time>2022-06-08 12:11:11</time>
      </trkpt>
      <trkpt lat="42.97161" lon="-0.3465">
        <ele>1538.8</ele>
        <time>2022-06-08 12:11:12</time>
      </trkpt>
      <trkpt lat="42.9716" lon="-0.34654">
        <ele>1539</ele>
        <time>2022-06-08 12:11:13</time>
      </trkpt>
      <trkpt lat="42.97161" lon="-0.34658">
        <ele>1539.2</ele>
        <time>2022-06-08 12:11:14</time>
      </trkpt>
      <trkpt lat="42.97162" lon="-0.34662">
        <ele>1539.4</ele>
        <time>2022-06-08 12:11:15</time>
      </trkpt>
      <trkpt lat="42.97163" lon="-0.34666">
        <ele>1539.6</ele>
        <time>2022-06-08 12:11:16</time>
      </trkpt>
      <trkpt lat="42.97164" lon="-0.34669">
        <ele>1539.8</ele>
        <time>2022-06-08 12:11:17</time>
      </trkpt>
      <trkpt lat="42.97165" lon="-0.34671">
        <ele>1540.2</ele>
        <time>2022-06-08 12:11:18</time>
      </trkpt>
      <trkpt lat="42.97168" lon="-0.34673">
        <ele>1540.4</ele>
        <time>2022-06-08 12:11:19</time>
      </trkpt>
      <trkpt lat="42.9717" lon="-0.34674">
        <ele>1540.4</ele>
        <time>2022-06-08 12:11:20</time>
      </trkpt>
      <trkpt lat="42.97173" lon="-0.34675">
        <ele>1540.8</ele>
        <time>2022-06-08 12:11:21</time>
      </trkpt>
      <trkpt lat="42.97175" lon="-0.34674">
        <ele>1541</ele>
        <time>2022-06-08 12:11:22</time>
      </trkpt>
      <trkpt lat="42.97178" lon="-0.34673">
        <ele>1541.2</ele>
        <time>2022-06-08 12:11:23</time>
      </trkpt>
      <trkpt lat="42.9718" lon="-0.34671">
        <ele>1541.4</ele>
        <time>2022-06-08 12:11:24</time>
      </trkpt>
      <trkpt lat="42.97181" lon="-0.34668">
        <ele>1541.6</ele>
        <time>2022-06-08 12:11:25</time>
      </trkpt>
      <trkpt lat="42.97182" lon="-0.34665">
        <ele>1541.8</ele>
        <time>2022-06-08 12:11:26</time>
      </trkpt>
      <trkpt lat="42.97183" lon="-0.34662">
        <ele>1542.2</ele>
        <time>2022-06-08 12:11:27</time>
      </trkpt>
      <trkpt lat="42.97184" lon="-0.34658">
        <ele>1542.4</ele>
        <time>2022-06-08 12:11:28</time>
      </trkpt>
      <trkpt lat="42.97184" lon="-0.34655">
        <ele>1542.6</ele>
        <time>2022-06-08 12:11:29</time>
      </trkpt>
      <trkpt lat="42.97184" lon="-0.34651">
        <ele>1542.8</ele>
        <time>2022-06-08 12:11:30</time>
      </trkpt>
      <trkpt lat="42.97184" lon="-0.34647">
        <ele>1543.2</ele>
        <time>2022-06-08 12:11:31</time>
      </trkpt>
      <trkpt lat="42.97185" lon="-0.34643">
        <ele>1543.4</ele>
        <time>2022-06-08 12:11:32</time>
      </trkpt>
      <trkpt lat="42.97185" lon="-0.3464">
        <ele>1543.8</ele>
        <time>2022-06-08 12:11:33</time>
      </trkpt>
      <trkpt lat="42.97184" lon="-0.34636">
        <ele>1544</ele>
        <time>2022-06-08 12:11:34</time>
      </trkpt>
      <trkpt lat="42.97184" lon="-0.34632">
        <ele>1544.2</ele>
        <time>2022-06-08 12:11:35</time>
      </trkpt>
      <trkpt lat="42.97184" lon="-0.34628">
        <ele>1544.4</ele>
        <time>2022-06-08 12:11:36</time>
      </trkpt>
      <trkpt lat="42.97184" lon="-0.34624">
        <ele>1544.6</ele>
        <time>2022-06-08 12:11:37</time>
      </trkpt>
      <trkpt lat="42.97185" lon="-0.3462">
        <ele>1545</ele>
        <time>2022-06-08 12:11:38</time>
      </trkpt>
      <trkpt lat="42.97185" lon="-0.34616">
        <ele>1545.2</ele>
        <time>2022-06-08 12:11:39</time>
      </trkpt>
      <trkpt lat="42.97185" lon="-0.34612">
        <ele>1545.4</ele>
        <time>2022-06-08 12:11:40</time>
      </trkpt>
      <trkpt lat="42.97185" lon="-0.34607">
        <ele>1545.6</ele>
        <time>2022-06-08 12:11:41</time>
      </trkpt>
      <trkpt lat="42.97185" lon="-0.34603">
        <ele>1546</ele>
        <time>2022-06-08 12:11:42</time>
      </trkpt>
      <trkpt lat="42.97186" lon="-0.34599">
        <ele>1546.2</ele>
        <time>2022-06-08 12:11:43</time>
      </trkpt>
      <trkpt lat="42.97187" lon="-0.34595">
        <ele>1546.6</ele>
        <time>2022-06-08 12:11:44</time>
      </trkpt>
      <trkpt lat="42.97188" lon="-0.34591">
        <ele>1546.6</ele>
        <time>2022-06-08 12:11:45</time>
      </trkpt>
      <trkpt lat="42.97189" lon="-0.34587">
        <ele>1546.8</ele>
        <time>2022-06-08 12:11:46</time>
      </trkpt>
      <trkpt lat="42.97192" lon="-0.34583">
        <ele>1546.8</ele>
        <time>2022-06-08 12:11:47</time>
      </trkpt>
      <trkpt lat="42.97194" lon="-0.34581">
        <ele>1547.2</ele>
        <time>2022-06-08 12:11:48</time>
      </trkpt>
      <trkpt lat="42.97196" lon="-0.34579">
        <ele>1547.6</ele>
        <time>2022-06-08 12:11:49</time>
      </trkpt>
      <trkpt lat="42.97198" lon="-0.34578">
        <ele>1547.8</ele>
        <time>2022-06-08 12:11:50</time>
      </trkpt>
      <trkpt lat="42.97201" lon="-0.34576">
        <ele>1548</ele>
        <time>2022-06-08 12:11:51</time>
      </trkpt>
      <trkpt lat="42.97203" lon="-0.34576">
        <ele>1548.2</ele>
        <time>2022-06-08 12:11:52</time>
      </trkpt>
      <trkpt lat="42.97206" lon="-0.34575">
        <ele>1548.6</ele>
        <time>2022-06-08 12:11:53</time>
      </trkpt>
      <trkpt lat="42.97208" lon="-0.34575">
        <ele>1548.6</ele>
        <time>2022-06-08 12:11:54</time>
      </trkpt>
      <trkpt lat="42.97211" lon="-0.34575">
        <ele>1549</ele>
        <time>2022-06-08 12:11:55</time>
      </trkpt>
      <trkpt lat="42.97214" lon="-0.34575">
        <ele>1549</ele>
        <time>2022-06-08 12:11:56</time>
      </trkpt>
      <trkpt lat="42.97216" lon="-0.34575">
        <ele>1549.6</ele>
        <time>2022-06-08 12:11:57</time>
      </trkpt>
      <trkpt lat="42.97219" lon="-0.34575">
        <ele>1549.8</ele>
        <time>2022-06-08 12:11:58</time>
      </trkpt>
      <trkpt lat="42.97222" lon="-0.34574">
        <ele>1550.2</ele>
        <time>2022-06-08 12:11:59</time>
      </trkpt>
      <trkpt lat="42.97225" lon="-0.34575">
        <ele>1550.4</ele>
        <time>2022-06-08 12:12:00</time>
      </trkpt>
      <trkpt lat="42.97227" lon="-0.34575">
        <ele>1550.8</ele>
        <time>2022-06-08 12:12:01</time>
      </trkpt>
      <trkpt lat="42.9723" lon="-0.34574">
        <ele>1551</ele>
        <time>2022-06-08 12:12:02</time>
      </trkpt>
      <trkpt lat="42.97233" lon="-0.34574">
        <ele>1551</ele>
        <time>2022-06-08 12:12:03</time>
      </trkpt>
      <trkpt lat="42.97236" lon="-0.34575">
        <ele>1551.2</ele>
        <time>2022-06-08 12:12:04</time>
      </trkpt>
      <trkpt lat="42.97239" lon="-0.34575">
        <ele>1551.4</ele>
        <time>2022-06-08 12:12:05</time>
      </trkpt>
      <trkpt lat="42.97242" lon="-0.34575">
        <ele>1551.6</ele>
        <time>2022-06-08 12:12:06</time>
      </trkpt>
      <trkpt lat="42.97245" lon="-0.34576">
        <ele>1552</ele>
        <time>2022-06-08 12:12:07</time>
      </trkpt>
      <trkpt lat="42.97248" lon="-0.34578">
        <ele>1552.4</ele>
        <time>2022-06-08 12:12:08</time>
      </trkpt>
      <trkpt lat="42.97251" lon="-0.3458">
        <ele>1552.8</ele>
        <time>2022-06-08 12:12:09</time>
      </trkpt>
      <trkpt lat="42.97253" lon="-0.34581">
        <ele>1552.8</ele>
        <time>2022-06-08 12:12:10</time>
      </trkpt>
      <trkpt lat="42.97255" lon="-0.34583">
        <ele>1553</ele>
        <time>2022-06-08 12:12:11</time>
      </trkpt>
      <trkpt lat="42.97257" lon="-0.34586">
        <ele>1553</ele>
        <time>2022-06-08 12:12:12</time>
      </trkpt>
      <trkpt lat="42.97259" lon="-0.34588">
        <ele>1553.2</ele>
        <time>2022-06-08 12:12:13</time>
      </trkpt>
      <trkpt lat="42.9726" lon="-0.34591">
        <ele>1553.4</ele>
        <time>2022-06-08 12:12:14</time>
      </trkpt>
      <trkpt lat="42.97262" lon="-0.34595">
        <ele>1553.4</ele>
        <time>2022-06-08 12:12:15</time>
      </trkpt>
      <trkpt lat="42.97263" lon="-0.34598">
        <ele>1554</ele>
        <time>2022-06-08 12:12:16</time>
      </trkpt>
      <trkpt lat="42.97264" lon="-0.34602">
        <ele>1554.4</ele>
        <time>2022-06-08 12:12:17</time>
      </trkpt>
      <trkpt lat="42.97265" lon="-0.34605">
        <ele>1554.8</ele>
        <time>2022-06-08 12:12:18</time>
      </trkpt>
      <trkpt lat="42.97265" lon="-0.34609">
        <ele>1555</ele>
        <time>2022-06-08 12:12:19</time>
      </trkpt>
      <trkpt lat="42.97266" lon="-0.34613">
        <ele>1555.4</ele>
        <time>2022-06-08 12:12:20</time>
      </trkpt>
      <trkpt lat="42.97267" lon="-0.34616">
        <ele>1555.6</ele>
        <time>2022-06-08 12:12:21</time>
      </trkpt>
      <trkpt lat="42.97268" lon="-0.3462">
        <ele>1556</ele>
        <time>2022-06-08 12:12:22</time>
      </trkpt>
      <trkpt lat="42.97269" lon="-0.34623">
        <ele>1556</ele>
        <time>2022-06-08 12:12:23</time>
      </trkpt>
      <trkpt lat="42.9727" lon="-0.34626">
        <ele>1556.4</ele>
        <time>2022-06-08 12:12:24</time>
      </trkpt>
      <trkpt lat="42.97271" lon="-0.3463">
        <ele>1556.6</ele>
        <time>2022-06-08 12:12:25</time>
      </trkpt>
      <trkpt lat="42.97273" lon="-0.34632">
        <ele>1556.8</ele>
        <time>2022-06-08 12:12:26</time>
      </trkpt>
      <trkpt lat="42.97274" lon="-0.34634">
        <ele>1557</ele>
        <time>2022-06-08 12:12:27</time>
      </trkpt>
      <trkpt lat="42.97277" lon="-0.34636">
        <ele>1557.2</ele>
        <time>2022-06-08 12:12:28</time>
      </trkpt>
      <trkpt lat="42.97279" lon="-0.34638">
        <ele>1557.6</ele>
        <time>2022-06-08 12:12:29</time>
      </trkpt>
      <trkpt lat="42.97281" lon="-0.34639">
        <ele>1557.8</ele>
        <time>2022-06-08 12:12:30</time>
      </trkpt>
      <trkpt lat="42.97284" lon="-0.3464">
        <ele>1558.4</ele>
        <time>2022-06-08 12:12:31</time>
      </trkpt>
      <trkpt lat="42.97286" lon="-0.34641">
        <ele>1558.6</ele>
        <time>2022-06-08 12:12:32</time>
      </trkpt>
      <trkpt lat="42.97289" lon="-0.34642">
        <ele>1558.8</ele>
        <time>2022-06-08 12:12:33</time>
      </trkpt>
      <trkpt lat="42.97291" lon="-0.34642">
        <ele>1559</ele>
        <time>2022-06-08 12:12:34</time>
      </trkpt>
      <trkpt lat="42.97294" lon="-0.34642">
        <ele>1559.2</ele>
        <time>2022-06-08 12:12:35</time>
      </trkpt>
      <trkpt lat="42.97296" lon="-0.34643">
        <ele>1559.4</ele>
        <time>2022-06-08 12:12:36</time>
      </trkpt>
      <trkpt lat="42.97298" lon="-0.34643">
        <ele>1559.8</ele>
        <time>2022-06-08 12:12:37</time>
      </trkpt>
      <trkpt lat="42.97301" lon="-0.34644">
        <ele>1560.4</ele>
        <time>2022-06-08 12:12:38</time>
      </trkpt>
      <trkpt lat="42.97303" lon="-0.34644">
        <ele>1561</ele>
        <time>2022-06-08 12:12:39</time>
      </trkpt>
      <trkpt lat="42.97306" lon="-0.34645">
        <ele>1561.2</ele>
        <time>2022-06-08 12:12:40</time>
      </trkpt>
      <trkpt lat="42.97308" lon="-0.34645">
        <ele>1561.6</ele>
        <time>2022-06-08 12:12:41</time>
      </trkpt>
      <trkpt lat="42.97311" lon="-0.34645">
        <ele>1561.8</ele>
        <time>2022-06-08 12:12:42</time>
      </trkpt>
      <trkpt lat="42.97313" lon="-0.34646">
        <ele>1562</ele>
        <time>2022-06-08 12:12:43</time>
      </trkpt>
      <trkpt lat="42.97316" lon="-0.34646">
        <ele>1562.4</ele>
        <time>2022-06-08 12:12:44</time>
      </trkpt>
      <trkpt lat="42.97318" lon="-0.34647">
        <ele>1562.4</ele>
        <time>2022-06-08 12:12:45</time>
      </trkpt>
      <trkpt lat="42.97321" lon="-0.34647">
        <ele>1562.6</ele>
        <time>2022-06-08 12:12:46</time>
      </trkpt>
      <trkpt lat="42.97323" lon="-0.34648">
        <ele>1562.8</ele>
        <time>2022-06-08 12:12:47</time>
      </trkpt>
      <trkpt lat="42.97326" lon="-0.34648">
        <ele>1563</ele>
        <time>2022-06-08 12:12:48</time>
      </trkpt>
      <trkpt lat="42.97328" lon="-0.34648">
        <ele>1563</ele>
        <time>2022-06-08 12:12:49</time>
      </trkpt>
      <trkpt lat="42.9733" lon="-0.34648">
        <ele>1563.4</ele>
        <time>2022-06-08 12:12:50</time>
      </trkpt>
      <trkpt lat="42.97333" lon="-0.34649">
        <ele>1563.6</ele>
        <time>2022-06-08 12:12:51</time>
      </trkpt>
      <trkpt lat="42.97335" lon="-0.34649">
        <ele>1563.8</ele>
        <time>2022-06-08 12:12:52</time>
      </trkpt>
      <trkpt lat="42.97338" lon="-0.34649">
        <ele>1564</ele>
        <time>2022-06-08 12:12:53</time>
      </trkpt>
      <trkpt lat="42.9734" lon="-0.34649">
        <ele>1564.4</ele>
        <time>2022-06-08 12:12:54</time>
      </trkpt>
      <trkpt lat="42.97342" lon="-0.34649">
        <ele>1564.6</ele>
        <time>2022-06-08 12:12:55</time>
      </trkpt>
      <trkpt lat="42.97345" lon="-0.34648">
        <ele>1564.8</ele>
        <time>2022-06-08 12:12:56</time>
      </trkpt>
      <trkpt lat="42.97347" lon="-0.34647">
        <ele>1565</ele>
        <time>2022-06-08 12:12:57</time>
      </trkpt>
      <trkpt lat="42.97349" lon="-0.34646">
        <ele>1565.4</ele>
        <time>2022-06-08 12:12:58</time>
      </trkpt>
      <trkpt lat="42.97351" lon="-0.34645">
        <ele>1565.4</ele>
        <time>2022-06-08 12:12:59</time>
      </trkpt>
      <trkpt lat="42.97354" lon="-0.34644">
        <ele>1565.8</ele>
        <time>2022-06-08 12:13:00</time>
      </trkpt>
      <trkpt lat="42.97356" lon="-0.34642">
        <ele>1566.2</ele>
        <time>2022-06-08 12:13:01</time>
      </trkpt>
      <trkpt lat="42.97358" lon="-0.3464">
        <ele>1566.4</ele>
        <time>2022-06-08 12:13:02</time>
      </trkpt>
      <trkpt lat="42.9736" lon="-0.34638">
        <ele>1566.6</ele>
        <time>2022-06-08 12:13:03</time>
      </trkpt>
      <trkpt lat="42.97362" lon="-0.34636">
        <ele>1566.8</ele>
        <time>2022-06-08 12:13:04</time>
      </trkpt>
      <trkpt lat="42.97364" lon="-0.34634">
        <ele>1567.2</ele>
        <time>2022-06-08 12:13:05</time>
      </trkpt>
      <trkpt lat="42.97365" lon="-0.34631">
        <ele>1567.2</ele>
        <time>2022-06-08 12:13:06</time>
      </trkpt>
      <trkpt lat="42.97365" lon="-0.34628">
        <ele>1567.6</ele>
        <time>2022-06-08 12:13:07</time>
      </trkpt>
      <trkpt lat="42.97366" lon="-0.34625">
        <ele>1567.6</ele>
        <time>2022-06-08 12:13:08</time>
      </trkpt>
      <trkpt lat="42.97367" lon="-0.34622">
        <ele>1567.8</ele>
        <time>2022-06-08 12:13:09</time>
      </trkpt>
      <trkpt lat="42.97368" lon="-0.34619">
        <ele>1567.8</ele>
        <time>2022-06-08 12:13:10</time>
      </trkpt>
      <trkpt lat="42.97368" lon="-0.34616">
        <ele>1568.2</ele>
        <time>2022-06-08 12:13:11</time>
      </trkpt>
      <trkpt lat="42.97368" lon="-0.34613">
        <ele>1568.4</ele>
        <time>2022-06-08 12:13:12</time>
      </trkpt>
      <trkpt lat="42.97368" lon="-0.34609">
        <ele>1568.6</ele>
        <time>2022-06-08 12:13:13</time>
      </trkpt>
      <trkpt lat="42.97367" lon="-0.34606">
        <ele>1568.8</ele>
        <time>2022-06-08 12:13:14</time>
      </trkpt>
      <trkpt lat="42.97367" lon="-0.34603">
        <ele>1569</ele>
        <time>2022-06-08 12:13:15</time>
      </trkpt>
      <trkpt lat="42.97366" lon="-0.346">
        <ele>1569.6</ele>
        <time>2022-06-08 12:13:16</time>
      </trkpt>
      <trkpt lat="42.97366" lon="-0.34596">
        <ele>1569.4</ele>
        <time>2022-06-08 12:13:17</time>
      </trkpt>
      <trkpt lat="42.97365" lon="-0.34593">
        <ele>1569.8</ele>
        <time>2022-06-08 12:13:18</time>
      </trkpt>
      <trkpt lat="42.97365" lon="-0.3459">
        <ele>1570.4</ele>
        <time>2022-06-08 12:13:19</time>
      </trkpt>
      <trkpt lat="42.97364" lon="-0.34586">
        <ele>1570.6</ele>
        <time>2022-06-08 12:13:20</time>
      </trkpt>
      <trkpt lat="42.97364" lon="-0.34583">
        <ele>1570.8</ele>
        <time>2022-06-08 12:13:21</time>
      </trkpt>
      <trkpt lat="42.97364" lon="-0.3458">
        <ele>1570.8</ele>
        <time>2022-06-08 12:13:22</time>
      </trkpt>
      <trkpt lat="42.97363" lon="-0.34577">
        <ele>1571.2</ele>
        <time>2022-06-08 12:13:23</time>
      </trkpt>
      <trkpt lat="42.97363" lon="-0.34574">
        <ele>1571.4</ele>
        <time>2022-06-08 12:13:24</time>
      </trkpt>
      <trkpt lat="42.97363" lon="-0.34571">
        <ele>1571.4</ele>
        <time>2022-06-08 12:13:25</time>
      </trkpt>
      <trkpt lat="42.97363" lon="-0.34567">
        <ele>1572.2</ele>
        <time>2022-06-08 12:13:26</time>
      </trkpt>
      <trkpt lat="42.97363" lon="-0.34564">
        <ele>1572.6</ele>
        <time>2022-06-08 12:13:27</time>
      </trkpt>
      <trkpt lat="42.97363" lon="-0.3456">
        <ele>1573</ele>
        <time>2022-06-08 12:13:28</time>
      </trkpt>
      <trkpt lat="42.97364" lon="-0.34557">
        <ele>1573.2</ele>
        <time>2022-06-08 12:13:29</time>
      </trkpt>
      <trkpt lat="42.97365" lon="-0.34554">
        <ele>1573.4</ele>
        <time>2022-06-08 12:13:30</time>
      </trkpt>
      <trkpt lat="42.97366" lon="-0.3455">
        <ele>1573.6</ele>
        <time>2022-06-08 12:13:31</time>
      </trkpt>
      <trkpt lat="42.97367" lon="-0.34547">
        <ele>1573.4</ele>
        <time>2022-06-08 12:13:32</time>
      </trkpt>
      <trkpt lat="42.97368" lon="-0.34544">
        <ele>1573.8</ele>
        <time>2022-06-08 12:13:33</time>
      </trkpt>
      <trkpt lat="42.9737" lon="-0.34541">
        <ele>1574</ele>
        <time>2022-06-08 12:13:34</time>
      </trkpt>
      <trkpt lat="42.97372" lon="-0.34539">
        <ele>1574</ele>
        <time>2022-06-08 12:13:35</time>
      </trkpt>
      <trkpt lat="42.97374" lon="-0.34536">
        <ele>1574</ele>
        <time>2022-06-08 12:13:36</time>
      </trkpt>
      <trkpt lat="42.97376" lon="-0.34534">
        <ele>1574.6</ele>
        <time>2022-06-08 12:13:37</time>
      </trkpt>
      <trkpt lat="42.97378" lon="-0.34533">
        <ele>1574.8</ele>
        <time>2022-06-08 12:13:38</time>
      </trkpt>
      <trkpt lat="42.97381" lon="-0.34531">
        <ele>1575</ele>
        <time>2022-06-08 12:13:39</time>
      </trkpt>
      <trkpt lat="42.97383" lon="-0.3453">
        <ele>1575</ele>
        <time>2022-06-08 12:13:40</time>
      </trkpt>
      <trkpt lat="42.97385" lon="-0.34529">
        <ele>1575.4</ele>
        <time>2022-06-08 12:13:41</time>
      </trkpt>
      <trkpt lat="42.97388" lon="-0.34528">
        <ele>1575.6</ele>
        <time>2022-06-08 12:13:42</time>
      </trkpt>
      <trkpt lat="42.9739" lon="-0.34527">
        <ele>1575.8</ele>
        <time>2022-06-08 12:13:43</time>
      </trkpt>
      <trkpt lat="42.97392" lon="-0.34526">
        <ele>1576</ele>
        <time>2022-06-08 12:13:44</time>
      </trkpt>
      <trkpt lat="42.97395" lon="-0.34526">
        <ele>1576.6</ele>
        <time>2022-06-08 12:13:45</time>
      </trkpt>
      <trkpt lat="42.97397" lon="-0.34524">
        <ele>1577</ele>
        <time>2022-06-08 12:13:46</time>
      </trkpt>
      <trkpt lat="42.974" lon="-0.34523">
        <ele>1577.2</ele>
        <time>2022-06-08 12:13:47</time>
      </trkpt>
      <trkpt lat="42.97402" lon="-0.34521">
        <ele>1577.4</ele>
        <time>2022-06-08 12:13:48</time>
      </trkpt>
      <trkpt lat="42.97404" lon="-0.34519">
        <ele>1577.4</ele>
        <time>2022-06-08 12:13:49</time>
      </trkpt>
      <trkpt lat="42.97406" lon="-0.34517">
        <ele>1577.6</ele>
        <time>2022-06-08 12:13:50</time>
      </trkpt>
      <trkpt lat="42.97408" lon="-0.34515">
        <ele>1577.6</ele>
        <time>2022-06-08 12:13:51</time>
      </trkpt>
      <trkpt lat="42.9741" lon="-0.34512">
        <ele>1578</ele>
        <time>2022-06-08 12:13:52</time>
      </trkpt>
      <trkpt lat="42.97412" lon="-0.3451">
        <ele>1578</ele>
        <time>2022-06-08 12:13:53</time>
      </trkpt>
      <trkpt lat="42.97413" lon="-0.34507">
        <ele>1578.6</ele>
        <time>2022-06-08 12:13:54</time>
      </trkpt>
      <trkpt lat="42.97415" lon="-0.34503">
        <ele>1578.8</ele>
        <time>2022-06-08 12:13:55</time>
      </trkpt>
      <trkpt lat="42.97416" lon="-0.345">
        <ele>1579.2</ele>
        <time>2022-06-08 12:13:56</time>
      </trkpt>
      <trkpt lat="42.97417" lon="-0.34497">
        <ele>1579.4</ele>
        <time>2022-06-08 12:13:57</time>
      </trkpt>
      <trkpt lat="42.97418" lon="-0.34493">
        <ele>1579.8</ele>
        <time>2022-06-08 12:13:58</time>
      </trkpt>
      <trkpt lat="42.97419" lon="-0.3449">
        <ele>1579.8</ele>
        <time>2022-06-08 12:13:59</time>
      </trkpt>
      <trkpt lat="42.9742" lon="-0.34486">
        <ele>1580</ele>
        <time>2022-06-08 12:14:00</time>
      </trkpt>
      <trkpt lat="42.97421" lon="-0.34483">
        <ele>1580.2</ele>
        <time>2022-06-08 12:14:01</time>
      </trkpt>
      <trkpt lat="42.97422" lon="-0.3448">
        <ele>1580.4</ele>
        <time>2022-06-08 12:14:02</time>
      </trkpt>
      <trkpt lat="42.97423" lon="-0.34477">
        <ele>1580.6</ele>
        <time>2022-06-08 12:14:03</time>
      </trkpt>
      <trkpt lat="42.97424" lon="-0.34475">
        <ele>1581.2</ele>
        <time>2022-06-08 12:14:04</time>
      </trkpt>
      <trkpt lat="42.97426" lon="-0.34472">
        <ele>1581.4</ele>
        <time>2022-06-08 12:14:05</time>
      </trkpt>
      <trkpt lat="42.97427" lon="-0.34469">
        <ele>1581.8</ele>
        <time>2022-06-08 12:14:06</time>
      </trkpt>
      <trkpt lat="42.97428" lon="-0.34465">
        <ele>1582.2</ele>
        <time>2022-06-08 12:14:07</time>
      </trkpt>
      <trkpt lat="42.9743" lon="-0.34462">
        <ele>1582.4</ele>
        <time>2022-06-08 12:14:08</time>
      </trkpt>
      <trkpt lat="42.97431" lon="-0.34458">
        <ele>1582.6</ele>
        <time>2022-06-08 12:14:09</time>
      </trkpt>
      <trkpt lat="42.97433" lon="-0.34455">
        <ele>1582.8</ele>
        <time>2022-06-08 12:14:10</time>
      </trkpt>
      <trkpt lat="42.97435" lon="-0.34452">
        <ele>1583.2</ele>
        <time>2022-06-08 12:14:11</time>
      </trkpt>
      <trkpt lat="42.97438" lon="-0.3445">
        <ele>1583.2</ele>
        <time>2022-06-08 12:14:12</time>
      </trkpt>
      <trkpt lat="42.97441" lon="-0.34448">
        <ele>1583.6</ele>
        <time>2022-06-08 12:14:13</time>
      </trkpt>
      <trkpt lat="42.97444" lon="-0.34446">
        <ele>1583.8</ele>
        <time>2022-06-08 12:14:14</time>
      </trkpt>
      <trkpt lat="42.97447" lon="-0.34445">
        <ele>1584</ele>
        <time>2022-06-08 12:14:15</time>
      </trkpt>
      <trkpt lat="42.97449" lon="-0.34444">
        <ele>1584.2</ele>
        <time>2022-06-08 12:14:16</time>
      </trkpt>
      <trkpt lat="42.97452" lon="-0.34443">
        <ele>1584.6</ele>
        <time>2022-06-08 12:14:17</time>
      </trkpt>
      <trkpt lat="42.97455" lon="-0.34443">
        <ele>1584.8</ele>
        <time>2022-06-08 12:14:18</time>
      </trkpt>
      <trkpt lat="42.97458" lon="-0.34443">
        <ele>1585</ele>
        <time>2022-06-08 12:14:19</time>
      </trkpt>
      <trkpt lat="42.97461" lon="-0.34443">
        <ele>1585</ele>
        <time>2022-06-08 12:14:20</time>
      </trkpt>
      <trkpt lat="42.97464" lon="-0.34444">
        <ele>1585.6</ele>
        <time>2022-06-08 12:14:21</time>
      </trkpt>
      <trkpt lat="42.97467" lon="-0.34444">
        <ele>1585.8</ele>
        <time>2022-06-08 12:14:22</time>
      </trkpt>
      <trkpt lat="42.9747" lon="-0.34445">
        <ele>1586.2</ele>
        <time>2022-06-08 12:14:23</time>
      </trkpt>
      <trkpt lat="42.97473" lon="-0.34446">
        <ele>1586.6</ele>
        <time>2022-06-08 12:14:24</time>
      </trkpt>
      <trkpt lat="42.97475" lon="-0.34447">
        <ele>1586.8</ele>
        <time>2022-06-08 12:14:25</time>
      </trkpt>
      <trkpt lat="42.97477" lon="-0.34448">
        <ele>1587.2</ele>
        <time>2022-06-08 12:14:26</time>
      </trkpt>
      <trkpt lat="42.97479" lon="-0.34449">
        <ele>1587.4</ele>
        <time>2022-06-08 12:14:27</time>
      </trkpt>
      <trkpt lat="42.97482" lon="-0.34451">
        <ele>1587.8</ele>
        <time>2022-06-08 12:14:28</time>
      </trkpt>
      <trkpt lat="42.97484" lon="-0.34453">
        <ele>1588</ele>
        <time>2022-06-08 12:14:29</time>
      </trkpt>
      <trkpt lat="42.97487" lon="-0.34455">
        <ele>1588.4</ele>
        <time>2022-06-08 12:14:30</time>
      </trkpt>
      <trkpt lat="42.97489" lon="-0.34456">
        <ele>1588.4</ele>
        <time>2022-06-08 12:14:31</time>
      </trkpt>
      <trkpt lat="42.97491" lon="-0.34458">
        <ele>1588.8</ele>
        <time>2022-06-08 12:14:32</time>
      </trkpt>
      <trkpt lat="42.97493" lon="-0.3446">
        <ele>1588.8</ele>
        <time>2022-06-08 12:14:33</time>
      </trkpt>
      <trkpt lat="42.97496" lon="-0.34461">
        <ele>1589.4</ele>
        <time>2022-06-08 12:14:34</time>
      </trkpt>
      <trkpt lat="42.97498" lon="-0.34463">
        <ele>1589.6</ele>
        <time>2022-06-08 12:14:35</time>
      </trkpt>
      <trkpt lat="42.975" lon="-0.34465">
        <ele>1589.8</ele>
        <time>2022-06-08 12:14:36</time>
      </trkpt>
      <trkpt lat="42.97503" lon="-0.34467">
        <ele>1589.8</ele>
        <time>2022-06-08 12:14:37</time>
      </trkpt>
      <trkpt lat="42.97505" lon="-0.34469">
        <ele>1590.2</ele>
        <time>2022-06-08 12:14:38</time>
      </trkpt>
      <trkpt lat="42.97508" lon="-0.34471">
        <ele>1590.2</ele>
        <time>2022-06-08 12:14:39</time>
      </trkpt>
      <trkpt lat="42.9751" lon="-0.34474">
        <ele>1590.4</ele>
        <time>2022-06-08 12:14:40</time>
      </trkpt>
      <trkpt lat="42.97512" lon="-0.34476">
        <ele>1590.6</ele>
        <time>2022-06-08 12:14:41</time>
      </trkpt>
      <trkpt lat="42.97514" lon="-0.34479">
        <ele>1591</ele>
        <time>2022-06-08 12:14:42</time>
      </trkpt>
      <trkpt lat="42.97516" lon="-0.34481">
        <ele>1591.6</ele>
        <time>2022-06-08 12:14:43</time>
      </trkpt>
      <trkpt lat="42.97518" lon="-0.34483">
        <ele>1591.8</ele>
        <time>2022-06-08 12:14:44</time>
      </trkpt>
      <trkpt lat="42.97521" lon="-0.34486">
        <ele>1592</ele>
        <time>2022-06-08 12:14:45</time>
      </trkpt>
      <trkpt lat="42.97523" lon="-0.34488">
        <ele>1592</ele>
        <time>2022-06-08 12:14:46</time>
      </trkpt>
      <trkpt lat="42.97524" lon="-0.34491">
        <ele>1592.4</ele>
        <time>2022-06-08 12:14:47</time>
      </trkpt>
      <trkpt lat="42.97526" lon="-0.34494">
        <ele>1592.4</ele>
        <time>2022-06-08 12:14:48</time>
      </trkpt>
      <trkpt lat="42.97528" lon="-0.34497">
        <ele>1592.6</ele>
        <time>2022-06-08 12:14:49</time>
      </trkpt>
      <trkpt lat="42.9753" lon="-0.345">
        <ele>1592.6</ele>
        <time>2022-06-08 12:14:50</time>
      </trkpt>
      <trkpt lat="42.97531" lon="-0.34503">
        <ele>1593</ele>
        <time>2022-06-08 12:14:51</time>
      </trkpt>
      <trkpt lat="42.97533" lon="-0.34505">
        <ele>1593.2</ele>
        <time>2022-06-08 12:14:52</time>
      </trkpt>
      <trkpt lat="42.97535" lon="-0.34508">
        <ele>1593.6</ele>
        <time>2022-06-08 12:14:53</time>
      </trkpt>
      <trkpt lat="42.97536" lon="-0.34511">
        <ele>1593.8</ele>
        <time>2022-06-08 12:14:54</time>
      </trkpt>
      <trkpt lat="42.97538" lon="-0.34514">
        <ele>1594.2</ele>
        <time>2022-06-08 12:14:55</time>
      </trkpt>
      <trkpt lat="42.9754" lon="-0.34517">
        <ele>1594.4</ele>
        <time>2022-06-08 12:14:56</time>
      </trkpt>
      <trkpt lat="42.97542" lon="-0.34519">
        <ele>1594.8</ele>
        <time>2022-06-08 12:14:57</time>
      </trkpt>
      <trkpt lat="42.97544" lon="-0.34522">
        <ele>1595</ele>
        <time>2022-06-08 12:14:58</time>
      </trkpt>
      <trkpt lat="42.97546" lon="-0.34524">
        <ele>1595.2</ele>
        <time>2022-06-08 12:14:59</time>
      </trkpt>
      <trkpt lat="42.97549" lon="-0.34526">
        <ele>1595.4</ele>
        <time>2022-06-08 12:15:00</time>
      </trkpt>
      <trkpt lat="42.97551" lon="-0.34527">
        <ele>1595.6</ele>
        <time>2022-06-08 12:15:01</time>
      </trkpt>
      <trkpt lat="42.97554" lon="-0.34528">
        <ele>1596</ele>
        <time>2022-06-08 12:15:02</time>
      </trkpt>
      <trkpt lat="42.97557" lon="-0.34529">
        <ele>1596.2</ele>
        <time>2022-06-08 12:15:03</time>
      </trkpt>
      <trkpt lat="42.97559" lon="-0.34529">
        <ele>1596.4</ele>
        <time>2022-06-08 12:15:04</time>
      </trkpt>
      <trkpt lat="42.97562" lon="-0.3453">
        <ele>1596.6</ele>
        <time>2022-06-08 12:15:05</time>
      </trkpt>
      <trkpt lat="42.97565" lon="-0.3453">
        <ele>1596.8</ele>
        <time>2022-06-08 12:15:06</time>
      </trkpt>
      <trkpt lat="42.97568" lon="-0.3453">
        <ele>1597</ele>
        <time>2022-06-08 12:15:07</time>
      </trkpt>
      <trkpt lat="42.9757" lon="-0.34529">
        <ele>1597.2</ele>
        <time>2022-06-08 12:15:08</time>
      </trkpt>
      <trkpt lat="42.97573" lon="-0.34528">
        <ele>1597.4</ele>
        <time>2022-06-08 12:15:09</time>
      </trkpt>
      <trkpt lat="42.97576" lon="-0.34527">
        <ele>1597.8</ele>
        <time>2022-06-08 12:15:10</time>
      </trkpt>
      <trkpt lat="42.97578" lon="-0.34526">
        <ele>1598</ele>
        <time>2022-06-08 12:15:11</time>
      </trkpt>
      <trkpt lat="42.97581" lon="-0.34524">
        <ele>1598.4</ele>
        <time>2022-06-08 12:15:12</time>
      </trkpt>
      <trkpt lat="42.97583" lon="-0.34522">
        <ele>1598.6</ele>
        <time>2022-06-08 12:15:13</time>
      </trkpt>
      <trkpt lat="42.97585" lon="-0.3452">
        <ele>1598.6</ele>
        <time>2022-06-08 12:15:14</time>
      </trkpt>
      <trkpt lat="42.97587" lon="-0.34517">
        <ele>1599</ele>
        <time>2022-06-08 12:15:15</time>
      </trkpt>
      <trkpt lat="42.97589" lon="-0.34515">
        <ele>1599</ele>
        <time>2022-06-08 12:15:16</time>
      </trkpt>
      <trkpt lat="42.97591" lon="-0.34512">
        <ele>1599.2</ele>
        <time>2022-06-08 12:15:17</time>
      </trkpt>
      <trkpt lat="42.97593" lon="-0.34509">
        <ele>1599.4</ele>
        <time>2022-06-08 12:15:18</time>
      </trkpt>
      <trkpt lat="42.97594" lon="-0.34506">
        <ele>1599.8</ele>
        <time>2022-06-08 12:15:19</time>
      </trkpt>
      <trkpt lat="42.97595" lon="-0.34503">
        <ele>1600</ele>
        <time>2022-06-08 12:15:20</time>
      </trkpt>
      <trkpt lat="42.97597" lon="-0.345">
        <ele>1600.4</ele>
        <time>2022-06-08 12:15:21</time>
      </trkpt>
      <trkpt lat="42.97599" lon="-0.34498">
        <ele>1600.6</ele>
        <time>2022-06-08 12:15:22</time>
      </trkpt>
      <trkpt lat="42.97601" lon="-0.34495">
        <ele>1601</ele>
        <time>2022-06-08 12:15:23</time>
      </trkpt>
      <trkpt lat="42.97603" lon="-0.34493">
        <ele>1601.2</ele>
        <time>2022-06-08 12:15:24</time>
      </trkpt>
      <trkpt lat="42.97604" lon="-0.3449">
        <ele>1601.6</ele>
        <time>2022-06-08 12:15:25</time>
      </trkpt>
      <trkpt lat="42.97607" lon="-0.34488">
        <ele>1601.8</ele>
        <time>2022-06-08 12:15:26</time>
      </trkpt>
      <trkpt lat="42.97609" lon="-0.34486">
        <ele>1602</ele>
        <time>2022-06-08 12:15:27</time>
      </trkpt>
      <trkpt lat="42.97612" lon="-0.34484">
        <ele>1602.4</ele>
        <time>2022-06-08 12:15:28</time>
      </trkpt>
      <trkpt lat="42.97615" lon="-0.34483">
        <ele>1602.8</ele>
        <time>2022-06-08 12:15:29</time>
      </trkpt>
      <trkpt lat="42.97618" lon="-0.34483">
        <ele>1603</ele>
        <time>2022-06-08 12:15:30</time>
      </trkpt>
      <trkpt lat="42.97621" lon="-0.34483">
        <ele>1603.2</ele>
        <time>2022-06-08 12:15:31</time>
      </trkpt>
      <trkpt lat="42.97623" lon="-0.34484">
        <ele>1603.4</ele>
        <time>2022-06-08 12:15:32</time>
      </trkpt>
      <trkpt lat="42.97626" lon="-0.34486">
        <ele>1603.6</ele>
        <time>2022-06-08 12:15:33</time>
      </trkpt>
      <trkpt lat="42.97629" lon="-0.34488">
        <ele>1603.8</ele>
        <time>2022-06-08 12:15:34</time>
      </trkpt>
      <trkpt lat="42.97631" lon="-0.34491">
        <ele>1604.2</ele>
        <time>2022-06-08 12:15:35</time>
      </trkpt>
      <trkpt lat="42.97633" lon="-0.34493">
        <ele>1604.6</ele>
        <time>2022-06-08 12:15:36</time>
      </trkpt>
      <trkpt lat="42.97635" lon="-0.34496">
        <ele>1604.8</ele>
        <time>2022-06-08 12:15:37</time>
      </trkpt>
      <trkpt lat="42.97637" lon="-0.34499">
        <ele>1605</ele>
        <time>2022-06-08 12:15:38</time>
      </trkpt>
      <trkpt lat="42.9764" lon="-0.34501">
        <ele>1605.2</ele>
        <time>2022-06-08 12:15:39</time>
      </trkpt>
      <trkpt lat="42.97642" lon="-0.34504">
        <ele>1605.6</ele>
        <time>2022-06-08 12:15:40</time>
      </trkpt>
      <trkpt lat="42.97645" lon="-0.34506">
        <ele>1605.6</ele>
        <time>2022-06-08 12:15:41</time>
      </trkpt>
      <trkpt lat="42.97647" lon="-0.34509">
        <ele>1605.8</ele>
        <time>2022-06-08 12:15:42</time>
      </trkpt>
      <trkpt lat="42.97649" lon="-0.34511">
        <ele>1606</ele>
        <time>2022-06-08 12:15:43</time>
      </trkpt>
      <trkpt lat="42.97652" lon="-0.34514">
        <ele>1606.4</ele>
        <time>2022-06-08 12:15:44</time>
      </trkpt>
      <trkpt lat="42.97654" lon="-0.34516">
        <ele>1606.4</ele>
        <time>2022-06-08 12:15:45</time>
      </trkpt>
      <trkpt lat="42.97657" lon="-0.34517">
        <ele>1606.4</ele>
        <time>2022-06-08 12:15:46</time>
      </trkpt>
      <trkpt lat="42.97659" lon="-0.34519">
        <ele>1606.8</ele>
        <time>2022-06-08 12:15:47</time>
      </trkpt>
      <trkpt lat="42.97662" lon="-0.34521">
        <ele>1607.2</ele>
        <time>2022-06-08 12:15:48</time>
      </trkpt>
      <trkpt lat="42.97664" lon="-0.34523">
        <ele>1607.2</ele>
        <time>2022-06-08 12:15:49</time>
      </trkpt>
      <trkpt lat="42.97667" lon="-0.34524">
        <ele>1607.6</ele>
        <time>2022-06-08 12:15:50</time>
      </trkpt>
      <trkpt lat="42.9767" lon="-0.34526">
        <ele>1607.8</ele>
        <time>2022-06-08 12:15:51</time>
      </trkpt>
      <trkpt lat="42.97673" lon="-0.34527">
        <ele>1608</ele>
        <time>2022-06-08 12:15:52</time>
      </trkpt>
      <trkpt lat="42.97675" lon="-0.34528">
        <ele>1608.4</ele>
        <time>2022-06-08 12:15:53</time>
      </trkpt>
      <trkpt lat="42.97678" lon="-0.34529">
        <ele>1608.6</ele>
        <time>2022-06-08 12:15:54</time>
      </trkpt>
      <trkpt lat="42.97681" lon="-0.3453">
        <ele>1608.8</ele>
        <time>2022-06-08 12:15:55</time>
      </trkpt>
      <trkpt lat="42.97684" lon="-0.34531">
        <ele>1609</ele>
        <time>2022-06-08 12:15:56</time>
      </trkpt>
      <trkpt lat="42.97687" lon="-0.34531">
        <ele>1609.6</ele>
        <time>2022-06-08 12:15:57</time>
      </trkpt>
      <trkpt lat="42.9769" lon="-0.34531">
        <ele>1609.8</ele>
        <time>2022-06-08 12:15:58</time>
      </trkpt>
      <trkpt lat="42.97693" lon="-0.34531">
        <ele>1610</ele>
        <time>2022-06-08 12:15:59</time>
      </trkpt>
      <trkpt lat="42.97696" lon="-0.3453">
        <ele>1610</ele>
        <time>2022-06-08 12:16:00</time>
      </trkpt>
      <trkpt lat="42.97698" lon="-0.3453">
        <ele>1610.4</ele>
        <time>2022-06-08 12:16:01</time>
      </trkpt>
      <trkpt lat="42.97701" lon="-0.34529">
        <ele>1610.6</ele>
        <time>2022-06-08 12:16:02</time>
      </trkpt>
      <trkpt lat="42.97704" lon="-0.34528">
        <ele>1610.6</ele>
        <time>2022-06-08 12:16:03</time>
      </trkpt>
      <trkpt lat="42.97707" lon="-0.34527">
        <ele>1611.2</ele>
        <time>2022-06-08 12:16:04</time>
      </trkpt>
      <trkpt lat="42.97709" lon="-0.34525">
        <ele>1611.4</ele>
        <time>2022-06-08 12:16:05</time>
      </trkpt>
      <trkpt lat="42.97712" lon="-0.34523">
        <ele>1611.8</ele>
        <time>2022-06-08 12:16:06</time>
      </trkpt>
      <trkpt lat="42.97715" lon="-0.34522">
        <ele>1612</ele>
        <time>2022-06-08 12:16:07</time>
      </trkpt>
      <trkpt lat="42.97717" lon="-0.34519">
        <ele>1612.2</ele>
        <time>2022-06-08 12:16:08</time>
      </trkpt>
      <trkpt lat="42.97719" lon="-0.34517">
        <ele>1612.4</ele>
        <time>2022-06-08 12:16:09</time>
      </trkpt>
      <trkpt lat="42.97721" lon="-0.34514">
        <ele>1612.8</ele>
        <time>2022-06-08 12:16:10</time>
      </trkpt>
      <trkpt lat="42.97723" lon="-0.34511">
        <ele>1612.8</ele>
        <time>2022-06-08 12:16:11</time>
      </trkpt>
      <trkpt lat="42.97725" lon="-0.34509">
        <ele>1613.4</ele>
        <time>2022-06-08 12:16:12</time>
      </trkpt>
      <trkpt lat="42.97727" lon="-0.34506">
        <ele>1613.6</ele>
        <time>2022-06-08 12:16:13</time>
      </trkpt>
      <trkpt lat="42.97729" lon="-0.34502">
        <ele>1613.8</ele>
        <time>2022-06-08 12:16:14</time>
      </trkpt>
      <trkpt lat="42.97731" lon="-0.34499">
        <ele>1613.8</ele>
        <time>2022-06-08 12:16:15</time>
      </trkpt>
      <trkpt lat="42.97732" lon="-0.34496">
        <ele>1614.2</ele>
        <time>2022-06-08 12:16:16</time>
      </trkpt>
      <trkpt lat="42.97734" lon="-0.34493">
        <ele>1614.2</ele>
        <time>2022-06-08 12:16:17</time>
      </trkpt>
      <trkpt lat="42.97735" lon="-0.3449">
        <ele>1614.6</ele>
        <time>2022-06-08 12:16:18</time>
      </trkpt>
      <trkpt lat="42.97737" lon="-0.34486">
        <ele>1615</ele>
        <time>2022-06-08 12:16:19</time>
      </trkpt>
      <trkpt lat="42.97738" lon="-0.34483">
        <ele>1615.2</ele>
        <time>2022-06-08 12:16:20</time>
      </trkpt>
      <trkpt lat="42.9774" lon="-0.34479">
        <ele>1615.6</ele>
        <time>2022-06-08 12:16:21</time>
      </trkpt>
      <trkpt lat="42.97741" lon="-0.34476">
        <ele>1615.8</ele>
        <time>2022-06-08 12:16:22</time>
      </trkpt>
      <trkpt lat="42.97743" lon="-0.34473">
        <ele>1616.2</ele>
        <time>2022-06-08 12:16:23</time>
      </trkpt>
      <trkpt lat="42.97745" lon="-0.34469">
        <ele>1616.4</ele>
        <time>2022-06-08 12:16:24</time>
      </trkpt>
      <trkpt lat="42.97747" lon="-0.34466">
        <ele>1616.8</ele>
        <time>2022-06-08 12:16:25</time>
      </trkpt>
      <trkpt lat="42.97749" lon="-0.34463">
        <ele>1617</ele>
        <time>2022-06-08 12:16:26</time>
      </trkpt>
      <trkpt lat="42.97751" lon="-0.3446">
        <ele>1617.2</ele>
        <time>2022-06-08 12:16:27</time>
      </trkpt>
      <trkpt lat="42.97753" lon="-0.34457">
        <ele>1617.4</ele>
        <time>2022-06-08 12:16:28</time>
      </trkpt>
      <trkpt lat="42.97755" lon="-0.34453">
        <ele>1617.6</ele>
        <time>2022-06-08 12:16:29</time>
      </trkpt>
      <trkpt lat="42.97757" lon="-0.3445">
        <ele>1617.6</ele>
        <time>2022-06-08 12:16:30</time>
      </trkpt>
      <trkpt lat="42.97759" lon="-0.34447">
        <ele>1618</ele>
        <time>2022-06-08 12:16:31</time>
      </trkpt>
      <trkpt lat="42.97761" lon="-0.34444">
        <ele>1618.2</ele>
        <time>2022-06-08 12:16:32</time>
      </trkpt>
      <trkpt lat="42.97763" lon="-0.34441">
        <ele>1618.6</ele>
        <time>2022-06-08 12:16:33</time>
      </trkpt>
      <trkpt lat="42.97765" lon="-0.34439">
        <ele>1618.8</ele>
        <time>2022-06-08 12:16:34</time>
      </trkpt>
      <trkpt lat="42.97767" lon="-0.34436">
        <ele>1619</ele>
        <time>2022-06-08 12:16:35</time>
      </trkpt>
      <trkpt lat="42.97768" lon="-0.34433">
        <ele>1619.2</ele>
        <time>2022-06-08 12:16:36</time>
      </trkpt>
      <trkpt lat="42.9777" lon="-0.3443">
        <ele>1619.4</ele>
        <time>2022-06-08 12:16:37</time>
      </trkpt>
      <trkpt lat="42.97772" lon="-0.34427">
        <ele>1619.8</ele>
        <time>2022-06-08 12:16:38</time>
      </trkpt>
      <trkpt lat="42.97774" lon="-0.34425">
        <ele>1619.8</ele>
        <time>2022-06-08 12:16:39</time>
      </trkpt>
      <trkpt lat="42.97776" lon="-0.34421">
        <ele>1620.2</ele>
        <time>2022-06-08 12:16:40</time>
      </trkpt>
      <trkpt lat="42.97778" lon="-0.34418">
        <ele>1620.4</ele>
        <time>2022-06-08 12:16:41</time>
      </trkpt>
      <trkpt lat="42.9778" lon="-0.34415">
        <ele>1620.8</ele>
        <time>2022-06-08 12:16:42</time>
      </trkpt>
      <trkpt lat="42.97782" lon="-0.34412">
        <ele>1621</ele>
        <time>2022-06-08 12:16:43</time>
      </trkpt>
      <trkpt lat="42.97783" lon="-0.34408">
        <ele>1621.2</ele>
        <time>2022-06-08 12:16:44</time>
      </trkpt>
      <trkpt lat="42.97784" lon="-0.34405">
        <ele>1621.4</ele>
        <time>2022-06-08 12:16:45</time>
      </trkpt>
      <trkpt lat="42.97786" lon="-0.34401">
        <ele>1621.4</ele>
        <time>2022-06-08 12:16:46</time>
      </trkpt>
      <trkpt lat="42.97787" lon="-0.34398">
        <ele>1621.6</ele>
        <time>2022-06-08 12:16:47</time>
      </trkpt>
      <trkpt lat="42.97789" lon="-0.34394">
        <ele>1622</ele>
        <time>2022-06-08 12:16:48</time>
      </trkpt>
      <trkpt lat="42.9779" lon="-0.34391">
        <ele>1622</ele>
        <time>2022-06-08 12:16:49</time>
      </trkpt>
      <trkpt lat="42.97792" lon="-0.34388">
        <ele>1622.4</ele>
        <time>2022-06-08 12:16:50</time>
      </trkpt>
      <trkpt lat="42.97794" lon="-0.34385">
        <ele>1622.8</ele>
        <time>2022-06-08 12:16:51</time>
      </trkpt>
      <trkpt lat="42.97795" lon="-0.34381">
        <ele>1623.2</ele>
        <time>2022-06-08 12:16:52</time>
      </trkpt>
      <trkpt lat="42.97796" lon="-0.34378">
        <ele>1623.4</ele>
        <time>2022-06-08 12:16:53</time>
      </trkpt>
      <trkpt lat="42.97798" lon="-0.34374">
        <ele>1623.6</ele>
        <time>2022-06-08 12:16:54</time>
      </trkpt>
      <trkpt lat="42.97799" lon="-0.34371">
        <ele>1624</ele>
        <time>2022-06-08 12:16:55</time>
      </trkpt>
      <trkpt lat="42.97801" lon="-0.34368">
        <ele>1624</ele>
        <time>2022-06-08 12:16:56</time>
      </trkpt>
      <trkpt lat="42.97802" lon="-0.34365">
        <ele>1624.4</ele>
        <time>2022-06-08 12:16:57</time>
      </trkpt>
      <trkpt lat="42.97804" lon="-0.34362">
        <ele>1624.4</ele>
        <time>2022-06-08 12:16:58</time>
      </trkpt>
      <trkpt lat="42.97805" lon="-0.34358">
        <ele>1624.8</ele>
        <time>2022-06-08 12:16:59</time>
      </trkpt>
      <trkpt lat="42.97806" lon="-0.34355">
        <ele>1625</ele>
        <time>2022-06-08 12:17:00</time>
      </trkpt>
      <trkpt lat="42.97808" lon="-0.34352">
        <ele>1625.4</ele>
        <time>2022-06-08 12:17:01</time>
      </trkpt>
      <trkpt lat="42.97809" lon="-0.34348">
        <ele>1625.6</ele>
        <time>2022-06-08 12:17:02</time>
      </trkpt>
      <trkpt lat="42.9781" lon="-0.34345">
        <ele>1625.8</ele>
        <time>2022-06-08 12:17:03</time>
      </trkpt>
      <trkpt lat="42.97811" lon="-0.34342">
        <ele>1626</ele>
        <time>2022-06-08 12:17:04</time>
      </trkpt>
      <trkpt lat="42.97811" lon="-0.34338">
        <ele>1626.2</ele>
        <time>2022-06-08 12:17:05</time>
      </trkpt>
      <trkpt lat="42.97812" lon="-0.34335">
        <ele>1626.2</ele>
        <time>2022-06-08 12:17:06</time>
      </trkpt>
      <trkpt lat="42.97813" lon="-0.34331">
        <ele>1626.8</ele>
        <time>2022-06-08 12:17:07</time>
      </trkpt>
      <trkpt lat="42.97813" lon="-0.34327">
        <ele>1627.4</ele>
        <time>2022-06-08 12:17:08</time>
      </trkpt>
      <trkpt lat="42.97814" lon="-0.34324">
        <ele>1627.4</ele>
        <time>2022-06-08 12:17:09</time>
      </trkpt>
      <trkpt lat="42.97815" lon="-0.34321">
        <ele>1627.8</ele>
        <time>2022-06-08 12:17:10</time>
      </trkpt>
      <trkpt lat="42.97817" lon="-0.34317">
        <ele>1627.8</ele>
        <time>2022-06-08 12:17:11</time>
      </trkpt>
      <trkpt lat="42.97818" lon="-0.34314">
        <ele>1628.2</ele>
        <time>2022-06-08 12:17:12</time>
      </trkpt>
      <trkpt lat="42.9782" lon="-0.34311">
        <ele>1628.4</ele>
        <time>2022-06-08 12:17:13</time>
      </trkpt>
      <trkpt lat="42.97822" lon="-0.34308">
        <ele>1628.6</ele>
        <time>2022-06-08 12:17:14</time>
      </trkpt>
      <trkpt lat="42.97825" lon="-0.34306">
        <ele>1628.6</ele>
        <time>2022-06-08 12:17:15</time>
      </trkpt>
      <trkpt lat="42.97828" lon="-0.34304">
        <ele>1629</ele>
        <time>2022-06-08 12:17:16</time>
      </trkpt>
      <trkpt lat="42.9783" lon="-0.34303">
        <ele>1629</ele>
        <time>2022-06-08 12:17:17</time>
      </trkpt>
      <trkpt lat="42.97833" lon="-0.34302">
        <ele>1629</ele>
        <time>2022-06-08 12:17:18</time>
      </trkpt>
      <trkpt lat="42.97836" lon="-0.34301">
        <ele>1629.4</ele>
        <time>2022-06-08 12:17:19</time>
      </trkpt>
      <trkpt lat="42.97839" lon="-0.343">
        <ele>1629.6</ele>
        <time>2022-06-08 12:17:20</time>
      </trkpt>
      <trkpt lat="42.97842" lon="-0.34299">
        <ele>1629.8</ele>
        <time>2022-06-08 12:17:21</time>
      </trkpt>
      <trkpt lat="42.97845" lon="-0.34299">
        <ele>1630</ele>
        <time>2022-06-08 12:17:22</time>
      </trkpt>
      <trkpt lat="42.97848" lon="-0.34298">
        <ele>1630.2</ele>
        <time>2022-06-08 12:17:23</time>
      </trkpt>
      <trkpt lat="42.9785" lon="-0.34299">
        <ele>1630.6</ele>
        <time>2022-06-08 12:17:24</time>
      </trkpt>
      <trkpt lat="42.97853" lon="-0.34299">
        <ele>1630.8</ele>
        <time>2022-06-08 12:17:25</time>
      </trkpt>
      <trkpt lat="42.97856" lon="-0.34299">
        <ele>1630.8</ele>
        <time>2022-06-08 12:17:26</time>
      </trkpt>
      <trkpt lat="42.9786" lon="-0.343">
        <ele>1631.4</ele>
        <time>2022-06-08 12:17:27</time>
      </trkpt>
      <trkpt lat="42.97862" lon="-0.34301">
        <ele>1631.6</ele>
        <time>2022-06-08 12:17:28</time>
      </trkpt>
      <trkpt lat="42.97867" lon="-0.34303">
        <ele>1631.8</ele>
        <time>2022-06-08 12:17:29</time>
      </trkpt>
      <trkpt lat="42.9787" lon="-0.34303">
        <ele>1631.8</ele>
        <time>2022-06-08 12:17:30</time>
      </trkpt>
      <trkpt lat="42.97873" lon="-0.34305">
        <ele>1632</ele>
        <time>2022-06-08 12:17:31</time>
      </trkpt>
      <trkpt lat="42.97877" lon="-0.34306">
        <ele>1632.2</ele>
        <time>2022-06-08 12:17:32</time>
      </trkpt>
      <trkpt lat="42.9788" lon="-0.34307">
        <ele>1632.4</ele>
        <time>2022-06-08 12:17:33</time>
      </trkpt>
      <trkpt lat="42.97884" lon="-0.34307">
        <ele>1632.6</ele>
        <time>2022-06-08 12:17:34</time>
      </trkpt>
      <trkpt lat="42.97888" lon="-0.34307">
        <ele>1633</ele>
        <time>2022-06-08 12:17:35</time>
      </trkpt>
      <trkpt lat="42.97891" lon="-0.34305">
        <ele>1633</ele>
        <time>2022-06-08 12:17:36</time>
      </trkpt>
      <trkpt lat="42.97894" lon="-0.34303">
        <ele>1633.2</ele>
        <time>2022-06-08 12:17:37</time>
      </trkpt>
      <trkpt lat="42.97895" lon="-0.343">
        <ele>1633.2</ele>
        <time>2022-06-08 12:17:38</time>
      </trkpt>
      <trkpt lat="42.97896" lon="-0.34297">
        <ele>1633.2</ele>
        <time>2022-06-08 12:17:39</time>
      </trkpt>
      <trkpt lat="42.97897" lon="-0.34293">
        <ele>1633.4</ele>
        <time>2022-06-08 12:17:40</time>
      </trkpt>
      <trkpt lat="42.97896" lon="-0.34289">
        <ele>1633.6</ele>
        <time>2022-06-08 12:17:41</time>
      </trkpt>
      <trkpt lat="42.97895" lon="-0.34285">
        <ele>1633.8</ele>
        <time>2022-06-08 12:17:42</time>
      </trkpt>
      <trkpt lat="42.97893" lon="-0.34283">
        <ele>1633.8</ele>
        <time>2022-06-08 12:17:43</time>
      </trkpt>
      <trkpt lat="42.97891" lon="-0.34281">
        <ele>1634.2</ele>
        <time>2022-06-08 12:17:44</time>
      </trkpt>
      <trkpt lat="42.97887" lon="-0.34279">
        <ele>1634.4</ele>
        <time>2022-06-08 12:17:45</time>
      </trkpt>
      <trkpt lat="42.97884" lon="-0.34278">
        <ele>1634.8</ele>
        <time>2022-06-08 12:17:46</time>
      </trkpt>
      <trkpt lat="42.97881" lon="-0.34277">
        <ele>1635.2</ele>
        <time>2022-06-08 12:17:47</time>
      </trkpt>
      <trkpt lat="42.97879" lon="-0.34277">
        <ele>1635.4</ele>
        <time>2022-06-08 12:17:48</time>
      </trkpt>
      <trkpt lat="42.97875" lon="-0.34277">
        <ele>1635.6</ele>
        <time>2022-06-08 12:17:49</time>
      </trkpt>
      <trkpt lat="42.97872" lon="-0.34277">
        <ele>1635.8</ele>
        <time>2022-06-08 12:17:50</time>
      </trkpt>
      <trkpt lat="42.97869" lon="-0.34277">
        <ele>1636</ele>
        <time>2022-06-08 12:17:51</time>
      </trkpt>
      <trkpt lat="42.97867" lon="-0.34277">
        <ele>1636.4</ele>
        <time>2022-06-08 12:17:52</time>
      </trkpt>
      <trkpt lat="42.97865" lon="-0.34278">
        <ele>1636.6</ele>
        <time>2022-06-08 12:17:53</time>
      </trkpt>
      <trkpt lat="42.97861" lon="-0.34279">
        <ele>1637.4</ele>
        <time>2022-06-08 12:17:54</time>
      </trkpt>
      <trkpt lat="42.97858" lon="-0.3428">
        <ele>1637.6</ele>
        <time>2022-06-08 12:17:55</time>
      </trkpt>
      <trkpt lat="42.97855" lon="-0.3428">
        <ele>1638.2</ele>
        <time>2022-06-08 12:17:56</time>
      </trkpt>
      <trkpt lat="42.97852" lon="-0.34281">
        <ele>1638.4</ele>
        <time>2022-06-08 12:17:57</time>
      </trkpt>
      <trkpt lat="42.97849" lon="-0.34281">
        <ele>1638.8</ele>
        <time>2022-06-08 12:17:58</time>
      </trkpt>
      <trkpt lat="42.97846" lon="-0.3428">
        <ele>1639.2</ele>
        <time>2022-06-08 12:17:59</time>
      </trkpt>
      <trkpt lat="42.97842" lon="-0.3428">
        <ele>1639.2</ele>
        <time>2022-06-08 12:18:00</time>
      </trkpt>
      <trkpt lat="42.9784" lon="-0.3428">
        <ele>1639.6</ele>
        <time>2022-06-08 12:18:01</time>
      </trkpt>
      <trkpt lat="42.97837" lon="-0.3428">
        <ele>1639.8</ele>
        <time>2022-06-08 12:18:02</time>
      </trkpt>
      <trkpt lat="42.97833" lon="-0.34279">
        <ele>1640.2</ele>
        <time>2022-06-08 12:18:03</time>
      </trkpt>
      <trkpt lat="42.97831" lon="-0.34278">
        <ele>1640.4</ele>
        <time>2022-06-08 12:18:04</time>
      </trkpt>
      <trkpt lat="42.97827" lon="-0.34277">
        <ele>1641.2</ele>
        <time>2022-06-08 12:18:05</time>
      </trkpt>
      <trkpt lat="42.97824" lon="-0.34277">
        <ele>1641.4</ele>
        <time>2022-06-08 12:18:06</time>
      </trkpt>
      <trkpt lat="42.97821" lon="-0.34278">
        <ele>1641.8</ele>
        <time>2022-06-08 12:18:07</time>
      </trkpt>
      <trkpt lat="42.97818" lon="-0.34278">
        <ele>1641.8</ele>
        <time>2022-06-08 12:18:08</time>
      </trkpt>
      <trkpt lat="42.97815" lon="-0.34279">
        <ele>1642</ele>
        <time>2022-06-08 12:18:09</time>
      </trkpt>
      <trkpt lat="42.97812" lon="-0.34281">
        <ele>1641.8</ele>
        <time>2022-06-08 12:18:10</time>
      </trkpt>
      <trkpt lat="42.97809" lon="-0.34283">
        <ele>1641.8</ele>
        <time>2022-06-08 12:18:11</time>
      </trkpt>
      <trkpt lat="42.97806" lon="-0.34285">
        <ele>1641.8</ele>
        <time>2022-06-08 12:18:12</time>
      </trkpt>
      <trkpt lat="42.97804" lon="-0.34288">
        <ele>1641.8</ele>
        <time>2022-06-08 12:18:13</time>
      </trkpt>
      <trkpt lat="42.978" lon="-0.3429">
        <ele>1642</ele>
        <time>2022-06-08 12:18:14</time>
      </trkpt>
      <trkpt lat="42.97798" lon="-0.34293">
        <ele>1642</ele>
        <time>2022-06-08 12:18:15</time>
      </trkpt>
      <trkpt lat="42.97796" lon="-0.34296">
        <ele>1642.2</ele>
        <time>2022-06-08 12:18:16</time>
      </trkpt>
      <trkpt lat="42.97794" lon="-0.34298">
        <ele>1642.4</ele>
        <time>2022-06-08 12:18:17</time>
      </trkpt>
      <trkpt lat="42.97791" lon="-0.34301">
        <ele>1642.6</ele>
        <time>2022-06-08 12:18:18</time>
      </trkpt>
      <trkpt lat="42.97789" lon="-0.34303">
        <ele>1642.8</ele>
        <time>2022-06-08 12:18:19</time>
      </trkpt>
      <trkpt lat="42.97786" lon="-0.34305">
        <ele>1643</ele>
        <time>2022-06-08 12:18:20</time>
      </trkpt>
      <trkpt lat="42.97784" lon="-0.34308">
        <ele>1643.2</ele>
        <time>2022-06-08 12:18:21</time>
      </trkpt>
      <trkpt lat="42.97782" lon="-0.3431">
        <ele>1643.8</ele>
        <time>2022-06-08 12:18:22</time>
      </trkpt>
      <trkpt lat="42.9778" lon="-0.34312">
        <ele>1644</ele>
        <time>2022-06-08 12:18:23</time>
      </trkpt>
      <trkpt lat="42.97777" lon="-0.34314">
        <ele>1644.4</ele>
        <time>2022-06-08 12:18:24</time>
      </trkpt>
      <trkpt lat="42.97774" lon="-0.34316">
        <ele>1644.6</ele>
        <time>2022-06-08 12:18:25</time>
      </trkpt>
      <trkpt lat="42.97772" lon="-0.34318">
        <ele>1645.2</ele>
        <time>2022-06-08 12:18:26</time>
      </trkpt>
      <trkpt lat="42.97768" lon="-0.34321">
        <ele>1645.2</ele>
        <time>2022-06-08 12:18:27</time>
      </trkpt>
      <trkpt lat="42.97766" lon="-0.34321">
        <ele>1645.6</ele>
        <time>2022-06-08 12:18:28</time>
      </trkpt>
      <trkpt lat="42.97763" lon="-0.34323">
        <ele>1645.8</ele>
        <time>2022-06-08 12:18:29</time>
      </trkpt>
      <trkpt lat="42.9776" lon="-0.34323">
        <ele>1646.2</ele>
        <time>2022-06-08 12:18:30</time>
      </trkpt>
      <trkpt lat="42.97757" lon="-0.34323">
        <ele>1646.6</ele>
        <time>2022-06-08 12:18:31</time>
      </trkpt>
      <trkpt lat="42.97754" lon="-0.34324">
        <ele>1647.2</ele>
        <time>2022-06-08 12:18:32</time>
      </trkpt>
      <trkpt lat="42.97751" lon="-0.34324">
        <ele>1647.4</ele>
        <time>2022-06-08 12:18:33</time>
      </trkpt>
      <trkpt lat="42.97748" lon="-0.34324">
        <ele>1647.8</ele>
        <time>2022-06-08 12:18:34</time>
      </trkpt>
      <trkpt lat="42.97745" lon="-0.34324">
        <ele>1648</ele>
        <time>2022-06-08 12:18:35</time>
      </trkpt>
      <trkpt lat="42.97742" lon="-0.34324">
        <ele>1648.2</ele>
        <time>2022-06-08 12:18:36</time>
      </trkpt>
      <trkpt lat="42.97739" lon="-0.34324">
        <ele>1648.6</ele>
        <time>2022-06-08 12:18:37</time>
      </trkpt>
      <trkpt lat="42.97736" lon="-0.34323">
        <ele>1648.8</ele>
        <time>2022-06-08 12:18:38</time>
      </trkpt>
      <trkpt lat="42.97733" lon="-0.34322">
        <ele>1649</ele>
        <time>2022-06-08 12:18:39</time>
      </trkpt>
      <trkpt lat="42.9773" lon="-0.34321">
        <ele>1649.2</ele>
        <time>2022-06-08 12:18:40</time>
      </trkpt>
      <trkpt lat="42.97727" lon="-0.3432">
        <ele>1649.4</ele>
        <time>2022-06-08 12:18:41</time>
      </trkpt>
      <trkpt lat="42.97725" lon="-0.34318">
        <ele>1649.6</ele>
        <time>2022-06-08 12:18:42</time>
      </trkpt>
      <trkpt lat="42.97722" lon="-0.34316">
        <ele>1650</ele>
        <time>2022-06-08 12:18:43</time>
      </trkpt>
      <trkpt lat="42.9772" lon="-0.34313">
        <ele>1650.4</ele>
        <time>2022-06-08 12:18:44</time>
      </trkpt>
      <trkpt lat="42.97717" lon="-0.34311">
        <ele>1650.8</ele>
        <time>2022-06-08 12:18:45</time>
      </trkpt>
      <trkpt lat="42.97715" lon="-0.34308">
        <ele>1651</ele>
        <time>2022-06-08 12:18:46</time>
      </trkpt>
      <trkpt lat="42.97713" lon="-0.34305">
        <ele>1651.2</ele>
        <time>2022-06-08 12:18:47</time>
      </trkpt>
      <trkpt lat="42.97712" lon="-0.34301">
        <ele>1651.6</ele>
        <time>2022-06-08 12:18:48</time>
      </trkpt>
      <trkpt lat="42.9771" lon="-0.34298">
        <ele>1652</ele>
        <time>2022-06-08 12:18:49</time>
      </trkpt>
      <trkpt lat="42.97709" lon="-0.34295">
        <ele>1652</ele>
        <time>2022-06-08 12:18:50</time>
      </trkpt>
      <trkpt lat="42.97709" lon="-0.34291">
        <ele>1652.4</ele>
        <time>2022-06-08 12:18:51</time>
      </trkpt>
      <trkpt lat="42.97708" lon="-0.34287">
        <ele>1652.6</ele>
        <time>2022-06-08 12:18:52</time>
      </trkpt>
      <trkpt lat="42.97707" lon="-0.34284">
        <ele>1652.8</ele>
        <time>2022-06-08 12:18:53</time>
      </trkpt>
      <trkpt lat="42.97706" lon="-0.3428">
        <ele>1653</ele>
        <time>2022-06-08 12:18:54</time>
      </trkpt>
      <trkpt lat="42.97706" lon="-0.34276">
        <ele>1653.2</ele>
        <time>2022-06-08 12:18:55</time>
      </trkpt>
      <trkpt lat="42.97705" lon="-0.34273">
        <ele>1653.8</ele>
        <time>2022-06-08 12:18:56</time>
      </trkpt>
      <trkpt lat="42.97704" lon="-0.34269">
        <ele>1654</ele>
        <time>2022-06-08 12:18:57</time>
      </trkpt>
      <trkpt lat="42.97703" lon="-0.34265">
        <ele>1654.6</ele>
        <time>2022-06-08 12:18:58</time>
      </trkpt>
      <trkpt lat="42.97703" lon="-0.34261">
        <ele>1654.8</ele>
        <time>2022-06-08 12:18:59</time>
      </trkpt>
      <trkpt lat="42.97702" lon="-0.34257">
        <ele>1655.2</ele>
        <time>2022-06-08 12:19:00</time>
      </trkpt>
      <trkpt lat="42.97701" lon="-0.34254">
        <ele>1655.2</ele>
        <time>2022-06-08 12:19:01</time>
      </trkpt>
      <trkpt lat="42.977" lon="-0.3425">
        <ele>1655.6</ele>
        <time>2022-06-08 12:19:02</time>
      </trkpt>
      <trkpt lat="42.977" lon="-0.34246">
        <ele>1655.8</ele>
        <time>2022-06-08 12:19:03</time>
      </trkpt>
      <trkpt lat="42.97699" lon="-0.34242">
        <ele>1656.2</ele>
        <time>2022-06-08 12:19:04</time>
      </trkpt>
      <trkpt lat="42.97698" lon="-0.34238">
        <ele>1656.4</ele>
        <time>2022-06-08 12:19:05</time>
      </trkpt>
      <trkpt lat="42.97697" lon="-0.34234">
        <ele>1656.6</ele>
        <time>2022-06-08 12:19:06</time>
      </trkpt>
      <trkpt lat="42.97696" lon="-0.34231">
        <ele>1656.8</ele>
        <time>2022-06-08 12:19:07</time>
      </trkpt>
      <trkpt lat="42.97695" lon="-0.34227">
        <ele>1657.2</ele>
        <time>2022-06-08 12:19:08</time>
      </trkpt>
      <trkpt lat="42.97694" lon="-0.34223">
        <ele>1657.4</ele>
        <time>2022-06-08 12:19:09</time>
      </trkpt>
      <trkpt lat="42.97693" lon="-0.3422">
        <ele>1657.6</ele>
        <time>2022-06-08 12:19:10</time>
      </trkpt>
      <trkpt lat="42.97692" lon="-0.34216">
        <ele>1657.8</ele>
        <time>2022-06-08 12:19:11</time>
      </trkpt>
      <trkpt lat="42.9769" lon="-0.34213">
        <ele>1658</ele>
        <time>2022-06-08 12:19:12</time>
      </trkpt>
      <trkpt lat="42.97688" lon="-0.34209">
        <ele>1658.2</ele>
        <time>2022-06-08 12:19:13</time>
      </trkpt>
      <trkpt lat="42.97687" lon="-0.34206">
        <ele>1658.4</ele>
        <time>2022-06-08 12:19:14</time>
      </trkpt>
      <trkpt lat="42.97686" lon="-0.34203">
        <ele>1658.6</ele>
        <time>2022-06-08 12:19:15</time>
      </trkpt>
      <trkpt lat="42.97684" lon="-0.342">
        <ele>1659</ele>
        <time>2022-06-08 12:19:16</time>
      </trkpt>
      <trkpt lat="42.97682" lon="-0.34197">
        <ele>1659.4</ele>
        <time>2022-06-08 12:19:17</time>
      </trkpt>
      <trkpt lat="42.9768" lon="-0.34194">
        <ele>1659.4</ele>
        <time>2022-06-08 12:19:18</time>
      </trkpt>
      <trkpt lat="42.97679" lon="-0.34192">
        <ele>1659.8</ele>
        <time>2022-06-08 12:19:19</time>
      </trkpt>
      <trkpt lat="42.97677" lon="-0.34189">
        <ele>1660</ele>
        <time>2022-06-08 12:19:20</time>
      </trkpt>
      <trkpt lat="42.97675" lon="-0.34186">
        <ele>1660.2</ele>
        <time>2022-06-08 12:19:21</time>
      </trkpt>
      <trkpt lat="42.97673" lon="-0.34183">
        <ele>1660.4</ele>
        <time>2022-06-08 12:19:22</time>
      </trkpt>
      <trkpt lat="42.97671" lon="-0.34181">
        <ele>1660.8</ele>
        <time>2022-06-08 12:19:23</time>
      </trkpt>
      <trkpt lat="42.97669" lon="-0.34178">
        <ele>1661</ele>
        <time>2022-06-08 12:19:24</time>
      </trkpt>
      <trkpt lat="42.97667" lon="-0.34176">
        <ele>1661.2</ele>
        <time>2022-06-08 12:19:25</time>
      </trkpt>
      <trkpt lat="42.97665" lon="-0.34173">
        <ele>1661.6</ele>
        <time>2022-06-08 12:19:26</time>
      </trkpt>
      <trkpt lat="42.97663" lon="-0.34171">
        <ele>1661.8</ele>
        <time>2022-06-08 12:19:27</time>
      </trkpt>
      <trkpt lat="42.97661" lon="-0.34168">
        <ele>1662</ele>
        <time>2022-06-08 12:19:28</time>
      </trkpt>
      <trkpt lat="42.97659" lon="-0.34166">
        <ele>1662.2</ele>
        <time>2022-06-08 12:19:29</time>
      </trkpt>
      <trkpt lat="42.97657" lon="-0.34163">
        <ele>1662.4</ele>
        <time>2022-06-08 12:19:30</time>
      </trkpt>
      <trkpt lat="42.97655" lon="-0.3416">
        <ele>1662.6</ele>
        <time>2022-06-08 12:19:31</time>
      </trkpt>
      <trkpt lat="42.97653" lon="-0.34157">
        <ele>1663</ele>
        <time>2022-06-08 12:19:32</time>
      </trkpt>
      <trkpt lat="42.97652" lon="-0.34153">
        <ele>1663.2</ele>
        <time>2022-06-08 12:19:33</time>
      </trkpt>
      <trkpt lat="42.9765" lon="-0.3415">
        <ele>1663.6</ele>
        <time>2022-06-08 12:19:34</time>
      </trkpt>
      <trkpt lat="42.97648" lon="-0.34147">
        <ele>1663.8</ele>
        <time>2022-06-08 12:19:35</time>
      </trkpt>
      <trkpt lat="42.97646" lon="-0.34144">
        <ele>1664</ele>
        <time>2022-06-08 12:19:36</time>
      </trkpt>
      <trkpt lat="42.97645" lon="-0.34141">
        <ele>1664.4</ele>
        <time>2022-06-08 12:19:37</time>
      </trkpt>
      <trkpt lat="42.97644" lon="-0.34138">
        <ele>1664.6</ele>
        <time>2022-06-08 12:19:38</time>
      </trkpt>
      <trkpt lat="42.97642" lon="-0.34134">
        <ele>1664.8</ele>
        <time>2022-06-08 12:19:39</time>
      </trkpt>
      <trkpt lat="42.97641" lon="-0.34131">
        <ele>1665</ele>
        <time>2022-06-08 12:19:40</time>
      </trkpt>
      <trkpt lat="42.97639" lon="-0.34127">
        <ele>1665.2</ele>
        <time>2022-06-08 12:19:41</time>
      </trkpt>
      <trkpt lat="42.97638" lon="-0.34123">
        <ele>1665.6</ele>
        <time>2022-06-08 12:19:42</time>
      </trkpt>
      <trkpt lat="42.97637" lon="-0.3412">
        <ele>1666</ele>
        <time>2022-06-08 12:19:43</time>
      </trkpt>
      <trkpt lat="42.97636" lon="-0.34117">
        <ele>1666.2</ele>
        <time>2022-06-08 12:19:44</time>
      </trkpt>
      <trkpt lat="42.97635" lon="-0.34113">
        <ele>1666.6</ele>
        <time>2022-06-08 12:19:45</time>
      </trkpt>
      <trkpt lat="42.97634" lon="-0.34109">
        <ele>1666.6</ele>
        <time>2022-06-08 12:19:46</time>
      </trkpt>
      <trkpt lat="42.97633" lon="-0.34105">
        <ele>1666.8</ele>
        <time>2022-06-08 12:19:47</time>
      </trkpt>
      <trkpt lat="42.97632" lon="-0.34102">
        <ele>1667</ele>
        <time>2022-06-08 12:19:48</time>
      </trkpt>
      <trkpt lat="42.97631" lon="-0.34097">
        <ele>1667.4</ele>
        <time>2022-06-08 12:19:49</time>
      </trkpt>
      <trkpt lat="42.97631" lon="-0.34093">
        <ele>1667.8</ele>
        <time>2022-06-08 12:19:50</time>
      </trkpt>
      <trkpt lat="42.9763" lon="-0.3409">
        <ele>1668.2</ele>
        <time>2022-06-08 12:19:51</time>
      </trkpt>
      <trkpt lat="42.9763" lon="-0.34086">
        <ele>1668.2</ele>
        <time>2022-06-08 12:19:52</time>
      </trkpt>
      <trkpt lat="42.97629" lon="-0.34082">
        <ele>1668.4</ele>
        <time>2022-06-08 12:19:53</time>
      </trkpt>
      <trkpt lat="42.97629" lon="-0.34078">
        <ele>1668.6</ele>
        <time>2022-06-08 12:19:54</time>
      </trkpt>
      <trkpt lat="42.97628" lon="-0.34074">
        <ele>1669</ele>
        <time>2022-06-08 12:19:55</time>
      </trkpt>
      <trkpt lat="42.97628" lon="-0.3407">
        <ele>1669.2</ele>
        <time>2022-06-08 12:19:56</time>
      </trkpt>
      <trkpt lat="42.97628" lon="-0.34066">
        <ele>1669.4</ele>
        <time>2022-06-08 12:19:57</time>
      </trkpt>
      <trkpt lat="42.97628" lon="-0.34062">
        <ele>1669.6</ele>
        <time>2022-06-08 12:19:58</time>
      </trkpt>
      <trkpt lat="42.97628" lon="-0.34058">
        <ele>1670.2</ele>
        <time>2022-06-08 12:19:59</time>
      </trkpt>
      <trkpt lat="42.97628" lon="-0.34054">
        <ele>1670.2</ele>
        <time>2022-06-08 12:20:00</time>
      </trkpt>
      <trkpt lat="42.97628" lon="-0.34051">
        <ele>1670.6</ele>
        <time>2022-06-08 12:20:01</time>
      </trkpt>
      <trkpt lat="42.97628" lon="-0.34047">
        <ele>1670.8</ele>
        <time>2022-06-08 12:20:02</time>
      </trkpt>
      <trkpt lat="42.97629" lon="-0.34043">
        <ele>1671</ele>
        <time>2022-06-08 12:20:03</time>
      </trkpt>
      <trkpt lat="42.97629" lon="-0.34039">
        <ele>1671.4</ele>
        <time>2022-06-08 12:20:04</time>
      </trkpt>
      <trkpt lat="42.9763" lon="-0.34035">
        <ele>1671.6</ele>
        <time>2022-06-08 12:20:05</time>
      </trkpt>
      <trkpt lat="42.97631" lon="-0.34031">
        <ele>1672</ele>
        <time>2022-06-08 12:20:06</time>
      </trkpt>
      <trkpt lat="42.97632" lon="-0.34027">
        <ele>1672.4</ele>
        <time>2022-06-08 12:20:07</time>
      </trkpt>
      <trkpt lat="42.97633" lon="-0.34023">
        <ele>1672.8</ele>
        <time>2022-06-08 12:20:08</time>
      </trkpt>
      <trkpt lat="42.97634" lon="-0.34019">
        <ele>1673</ele>
        <time>2022-06-08 12:20:09</time>
      </trkpt>
      <trkpt lat="42.97635" lon="-0.34016">
        <ele>1673.2</ele>
        <time>2022-06-08 12:20:10</time>
      </trkpt>
      <trkpt lat="42.97637" lon="-0.34012">
        <ele>1673.4</ele>
        <time>2022-06-08 12:20:11</time>
      </trkpt>
      <trkpt lat="42.97638" lon="-0.34009">
        <ele>1673.8</ele>
        <time>2022-06-08 12:20:12</time>
      </trkpt>
      <trkpt lat="42.9764" lon="-0.34005">
        <ele>1674</ele>
        <time>2022-06-08 12:20:13</time>
      </trkpt>
      <trkpt lat="42.97642" lon="-0.34002">
        <ele>1674.4</ele>
        <time>2022-06-08 12:20:14</time>
      </trkpt>
      <trkpt lat="42.97644" lon="-0.34">
        <ele>1674.6</ele>
        <time>2022-06-08 12:20:15</time>
      </trkpt>
      <trkpt lat="42.97646" lon="-0.33996">
        <ele>1675</ele>
        <time>2022-06-08 12:20:16</time>
      </trkpt>
      <trkpt lat="42.97648" lon="-0.33993">
        <ele>1675.2</ele>
        <time>2022-06-08 12:20:17</time>
      </trkpt>
      <trkpt lat="42.9765" lon="-0.33989">
        <ele>1675.4</ele>
        <time>2022-06-08 12:20:18</time>
      </trkpt>
      <trkpt lat="42.97652" lon="-0.33985">
        <ele>1675.6</ele>
        <time>2022-06-08 12:20:19</time>
      </trkpt>
      <trkpt lat="42.97654" lon="-0.33982">
        <ele>1675.8</ele>
        <time>2022-06-08 12:20:20</time>
      </trkpt>
      <trkpt lat="42.97655" lon="-0.33979">
        <ele>1676.2</ele>
        <time>2022-06-08 12:20:21</time>
      </trkpt>
      <trkpt lat="42.97656" lon="-0.33976">
        <ele>1676.2</ele>
        <time>2022-06-08 12:20:22</time>
      </trkpt>
      <trkpt lat="42.97658" lon="-0.33973">
        <ele>1676.6</ele>
        <time>2022-06-08 12:20:23</time>
      </trkpt>
      <trkpt lat="42.97659" lon="-0.3397">
        <ele>1676.8</ele>
        <time>2022-06-08 12:20:24</time>
      </trkpt>
      <trkpt lat="42.9766" lon="-0.33967">
        <ele>1677</ele>
        <time>2022-06-08 12:20:25</time>
      </trkpt>
      <trkpt lat="42.9766" lon="-0.33965">
        <ele>1677.2</ele>
        <time>2022-06-08 12:20:26</time>
      </trkpt>
      <trkpt lat="42.97661" lon="-0.33961">
        <ele>1677.2</ele>
        <time>2022-06-08 12:20:27</time>
      </trkpt>
      <trkpt lat="42.97661" lon="-0.33958">
        <ele>1677.2</ele>
        <time>2022-06-08 12:20:28</time>
      </trkpt>
      <trkpt lat="42.97662" lon="-0.33955">
        <ele>1677.2</ele>
        <time>2022-06-08 12:20:29</time>
      </trkpt>
      <trkpt lat="42.97661" lon="-0.33952">
        <ele>1677.2</ele>
        <time>2022-06-08 12:20:30</time>
      </trkpt>
      <trkpt lat="42.97661" lon="-0.3395">
        <ele>1677.2</ele>
        <time>2022-06-08 12:20:31</time>
      </trkpt>
      <trkpt lat="42.97661" lon="-0.33948">
        <ele>1677.2</ele>
        <time>2022-06-08 12:20:32</time>
      </trkpt>
      <trkpt lat="42.97661" lon="-0.33947">
        <ele>1677.2</ele>
        <time>2022-06-08 12:20:33</time>
      </trkpt>
      <trkpt lat="42.97662" lon="-0.33945">
        <ele>1677.2</ele>
        <time>2022-06-08 12:20:34</time>
      </trkpt>
      <trkpt lat="42.97662" lon="-0.33944">
        <ele>1677</ele>
        <time>2022-06-08 12:20:35</time>
      </trkpt>
      <trkpt lat="42.97664" lon="-0.33944">
        <ele>1677</ele>
        <time>2022-06-08 12:20:36</time>
      </trkpt>
      <trkpt lat="42.97665" lon="-0.33945">
        <ele>1676.6</ele>
        <time>2022-06-08 12:20:37</time>
      </trkpt>
      <trkpt lat="42.97666" lon="-0.33947">
        <ele>1676.4</ele>
        <time>2022-06-08 12:20:38</time>
      </trkpt>
      <trkpt lat="42.97666" lon="-0.33949">
        <ele>1676.4</ele>
        <time>2022-06-08 12:20:39</time>
      </trkpt>
      <trkpt lat="42.97665" lon="-0.33951">
        <ele>1676.2</ele>
        <time>2022-06-08 12:20:40</time>
      </trkpt>
      <trkpt lat="42.97664" lon="-0.33952">
        <ele>1676.2</ele>
        <time>2022-06-08 12:20:41</time>
      </trkpt>
      <trkpt lat="42.97663" lon="-0.33953">
        <ele>1676.2</ele>
        <time>2022-06-08 12:20:42</time>
      </trkpt>
      <trkpt lat="42.97662" lon="-0.33956">
        <ele>1676.2</ele>
        <time>2022-06-08 12:20:43</time>
      </trkpt>
      <trkpt lat="42.97662" lon="-0.33958">
        <ele>1676.2</ele>
        <time>2022-06-08 12:20:44</time>
      </trkpt>
      <trkpt lat="42.97662" lon="-0.33961">
        <ele>1676.2</ele>
        <time>2022-06-08 12:20:45</time>
      </trkpt>
      <trkpt lat="42.97662" lon="-0.33963">
        <ele>1676.2</ele>
        <time>2022-06-08 12:20:46</time>
      </trkpt>
      <trkpt lat="42.97662" lon="-0.33966">
        <ele>1676.2</ele>
        <time>2022-06-08 12:20:47</time>
      </trkpt>
      <trkpt lat="42.97662" lon="-0.33968">
        <ele>1676.4</ele>
        <time>2022-06-08 12:20:48</time>
      </trkpt>
      <trkpt lat="42.97662" lon="-0.33971">
        <ele>1676.4</ele>
        <time>2022-06-08 12:20:49</time>
      </trkpt>
      <trkpt lat="42.97662" lon="-0.33973">
        <ele>1676.4</ele>
        <time>2022-06-08 12:20:50</time>
      </trkpt>
      <trkpt lat="42.97662" lon="-0.33976">
        <ele>1676.6</ele>
        <time>2022-06-08 12:20:51</time>
      </trkpt>
      <trkpt lat="42.97662" lon="-0.3398">
        <ele>1677</ele>
        <time>2022-06-08 12:20:52</time>
      </trkpt>
      <trkpt lat="42.97662" lon="-0.33983">
        <ele>1677</ele>
        <time>2022-06-08 12:20:53</time>
      </trkpt>
      <trkpt lat="42.97662" lon="-0.33985">
        <ele>1677.2</ele>
        <time>2022-06-08 12:20:54</time>
      </trkpt>
      <trkpt lat="42.97663" lon="-0.33988">
        <ele>1677.4</ele>
        <time>2022-06-08 12:20:55</time>
      </trkpt>
      <trkpt lat="42.97663" lon="-0.33991">
        <ele>1677.4</ele>
        <time>2022-06-08 12:20:56</time>
      </trkpt>
      <trkpt lat="42.97662" lon="-0.33994">
        <ele>1677.4</ele>
        <time>2022-06-08 12:20:57</time>
      </trkpt>
      <trkpt lat="42.97662" lon="-0.33996">
        <ele>1677.6</ele>
        <time>2022-06-08 12:20:58</time>
      </trkpt>
      <trkpt lat="42.97661" lon="-0.33997">
        <ele>1677.6</ele>
        <time>2022-06-08 12:20:59</time>
      </trkpt>
      <trkpt lat="42.9766" lon="-0.33999">
        <ele>1677.6</ele>
        <time>2022-06-08 12:21:00</time>
      </trkpt>
      <trkpt lat="42.97659" lon="-0.34">
        <ele>1677.8</ele>
        <time>2022-06-08 12:21:01</time>
      </trkpt>
      <trkpt lat="42.97658" lon="-0.34">
        <ele>1677.8</ele>
        <time>2022-06-08 12:21:02</time>
      </trkpt>
      <trkpt lat="42.97658" lon="-0.34">
        <ele>1677.8</ele>
        <time>2022-06-08 12:21:03</time>
      </trkpt>
      <trkpt lat="42.97658" lon="-0.34">
        <ele>1678</ele>
        <time>2022-06-08 12:21:04</time>
      </trkpt>
      <trkpt lat="42.97664" lon="-0.33969">
        <ele>1711.2</ele>
        <time>2022-06-08 12:56:54</time>
      </trkpt>
      <trkpt lat="42.97664" lon="-0.33966">
        <ele>1716.6</ele>
        <time>2022-06-08 12:56:55</time>
      </trkpt>
      <trkpt lat="42.97664" lon="-0.33963">
        <ele>1718.8</ele>
        <time>2022-06-08 12:56:56</time>
      </trkpt>
      <trkpt lat="42.97665" lon="-0.3396">
        <ele>1720.4</ele>
        <time>2022-06-08 12:56:57</time>
      </trkpt>
      <trkpt lat="42.97665" lon="-0.33955">
        <ele>1721</ele>
        <time>2022-06-08 12:56:58</time>
      </trkpt>
      <trkpt lat="42.97664" lon="-0.33952">
        <ele>1721.2</ele>
        <time>2022-06-08 12:56:59</time>
      </trkpt>
      <trkpt lat="42.97663" lon="-0.3395">
        <ele>1721.2</ele>
        <time>2022-06-08 12:57:00</time>
      </trkpt>
      <trkpt lat="42.97662" lon="-0.33949">
        <ele>1721.2</ele>
        <time>2022-06-08 12:57:01</time>
      </trkpt>
      <trkpt lat="42.97661" lon="-0.33948">
        <ele>1720.8</ele>
        <time>2022-06-08 12:57:02</time>
      </trkpt>
      <trkpt lat="42.97659" lon="-0.33946">
        <ele>1720.4</ele>
        <time>2022-06-08 12:57:03</time>
      </trkpt>
      <trkpt lat="42.97657" lon="-0.33945">
        <ele>1720.6</ele>
        <time>2022-06-08 12:57:04</time>
      </trkpt>
      <trkpt lat="42.97656" lon="-0.33943">
        <ele>1720.4</ele>
        <time>2022-06-08 12:57:05</time>
      </trkpt>
      <trkpt lat="42.97656" lon="-0.33941">
        <ele>1720.4</ele>
        <time>2022-06-08 12:57:06</time>
      </trkpt>
      <trkpt lat="42.97655" lon="-0.33939">
        <ele>1720.6</ele>
        <time>2022-06-08 12:57:07</time>
      </trkpt>
      <trkpt lat="42.97655" lon="-0.33935">
        <ele>1721</ele>
        <time>2022-06-08 12:57:08</time>
      </trkpt>
      <trkpt lat="42.97655" lon="-0.33932">
        <ele>1721</ele>
        <time>2022-06-08 12:57:09</time>
      </trkpt>
      <trkpt lat="42.97654" lon="-0.33928">
        <ele>1720.6</ele>
        <time>2022-06-08 12:57:10</time>
      </trkpt>
      <trkpt lat="42.97652" lon="-0.33925">
        <ele>1720.2</ele>
        <time>2022-06-08 12:57:11</time>
      </trkpt>
      <trkpt lat="42.97651" lon="-0.33922">
        <ele>1720</ele>
        <time>2022-06-08 12:57:12</time>
      </trkpt>
      <trkpt lat="42.97649" lon="-0.33918">
        <ele>1719.8</ele>
        <time>2022-06-08 12:57:13</time>
      </trkpt>
      <trkpt lat="42.97647" lon="-0.33914">
        <ele>1719.4</ele>
        <time>2022-06-08 12:57:14</time>
      </trkpt>
      <trkpt lat="42.97644" lon="-0.33908">
        <ele>1719.2</ele>
        <time>2022-06-08 12:57:15</time>
      </trkpt>
      <trkpt lat="42.97642" lon="-0.33903">
        <ele>1719</ele>
        <time>2022-06-08 12:57:16</time>
      </trkpt>
      <trkpt lat="42.9764" lon="-0.33899">
        <ele>1718.8</ele>
        <time>2022-06-08 12:57:17</time>
      </trkpt>
      <trkpt lat="42.97639" lon="-0.33896">
        <ele>1718.6</ele>
        <time>2022-06-08 12:57:18</time>
      </trkpt>
      <trkpt lat="42.97638" lon="-0.33892">
        <ele>1718.6</ele>
        <time>2022-06-08 12:57:19</time>
      </trkpt>
      <trkpt lat="42.97637" lon="-0.33887">
        <ele>1718.6</ele>
        <time>2022-06-08 12:57:20</time>
      </trkpt>
      <trkpt lat="42.97636" lon="-0.33884">
        <ele>1718.4</ele>
        <time>2022-06-08 12:57:21</time>
      </trkpt>
      <trkpt lat="42.97635" lon="-0.33881">
        <ele>1718</ele>
        <time>2022-06-08 12:57:22</time>
      </trkpt>
      <trkpt lat="42.97635" lon="-0.33878">
        <ele>1717.2</ele>
        <time>2022-06-08 12:57:23</time>
      </trkpt>
      <trkpt lat="42.97634" lon="-0.33875">
        <ele>1717</ele>
        <time>2022-06-08 12:57:24</time>
      </trkpt>
      <trkpt lat="42.97633" lon="-0.33872">
        <ele>1715.8</ele>
        <time>2022-06-08 12:57:25</time>
      </trkpt>
      <trkpt lat="42.97632" lon="-0.33869">
        <ele>1715.6</ele>
        <time>2022-06-08 12:57:26</time>
      </trkpt>
      <trkpt lat="42.97632" lon="-0.33867">
        <ele>1715.2</ele>
        <time>2022-06-08 12:57:27</time>
      </trkpt>
      <trkpt lat="42.97631" lon="-0.33866">
        <ele>1715</ele>
        <time>2022-06-08 12:57:28</time>
      </trkpt>
      <trkpt lat="42.97631" lon="-0.33865">
        <ele>1714.8</ele>
        <time>2022-06-08 12:57:29</time>
      </trkpt>
      <trkpt lat="42.97631" lon="-0.33865">
        <ele>1714.8</ele>
        <time>2022-06-08 12:57:30</time>
      </trkpt>
      <trkpt lat="42.97631" lon="-0.33861">
        <ele>1714.6</ele>
        <time>2022-06-08 12:59:09</time>
      </trkpt>
      <trkpt lat="42.97631" lon="-0.33856">
        <ele>1714.6</ele>
        <time>2022-06-08 12:59:10</time>
      </trkpt>
      <trkpt lat="42.9763" lon="-0.33851">
        <ele>1714.6</ele>
        <time>2022-06-08 12:59:11</time>
      </trkpt>
      <trkpt lat="42.97629" lon="-0.33845">
        <ele>1714.4</ele>
        <time>2022-06-08 12:59:12</time>
      </trkpt>
      <trkpt lat="42.97628" lon="-0.3384">
        <ele>1714.4</ele>
        <time>2022-06-08 12:59:13</time>
      </trkpt>
      <trkpt lat="42.97626" lon="-0.33834">
        <ele>1714</ele>
        <time>2022-06-08 12:59:14</time>
      </trkpt>
      <trkpt lat="42.97625" lon="-0.33829">
        <ele>1713.8</ele>
        <time>2022-06-08 12:59:15</time>
      </trkpt>
      <trkpt lat="42.97623" lon="-0.33824">
        <ele>1713.6</ele>
        <time>2022-06-08 12:59:16</time>
      </trkpt>
      <trkpt lat="42.97621" lon="-0.33819">
        <ele>1713.6</ele>
        <time>2022-06-08 12:59:17</time>
      </trkpt>
      <trkpt lat="42.9762" lon="-0.33814">
        <ele>1713.2</ele>
        <time>2022-06-08 12:59:18</time>
      </trkpt>
      <trkpt lat="42.97617" lon="-0.3381">
        <ele>1713</ele>
        <time>2022-06-08 12:59:19</time>
      </trkpt>
      <trkpt lat="42.97615" lon="-0.33806">
        <ele>1712.6</ele>
        <time>2022-06-08 12:59:20</time>
      </trkpt>
      <trkpt lat="42.97613" lon="-0.33802">
        <ele>1712.4</ele>
        <time>2022-06-08 12:59:21</time>
      </trkpt>
      <trkpt lat="42.97611" lon="-0.33799">
        <ele>1712</ele>
        <time>2022-06-08 12:59:22</time>
      </trkpt>
      <trkpt lat="42.97608" lon="-0.33795">
        <ele>1712</ele>
        <time>2022-06-08 12:59:23</time>
      </trkpt>
      <trkpt lat="42.97604" lon="-0.33792">
        <ele>1711.6</ele>
        <time>2022-06-08 12:59:24</time>
      </trkpt>
      <trkpt lat="42.97601" lon="-0.33789">
        <ele>1711.4</ele>
        <time>2022-06-08 12:59:25</time>
      </trkpt>
      <trkpt lat="42.97597" lon="-0.33786">
        <ele>1711</ele>
        <time>2022-06-08 12:59:26</time>
      </trkpt>
      <trkpt lat="42.97593" lon="-0.33783">
        <ele>1710.8</ele>
        <time>2022-06-08 12:59:27</time>
      </trkpt>
      <trkpt lat="42.97589" lon="-0.3378">
        <ele>1710.8</ele>
        <time>2022-06-08 12:59:28</time>
      </trkpt>
      <trkpt lat="42.97585" lon="-0.33777">
        <ele>1710.6</ele>
        <time>2022-06-08 12:59:29</time>
      </trkpt>
      <trkpt lat="42.97581" lon="-0.33773">
        <ele>1709.8</ele>
        <time>2022-06-08 12:59:30</time>
      </trkpt>
      <trkpt lat="42.97577" lon="-0.3377">
        <ele>1708.6</ele>
        <time>2022-06-08 12:59:31</time>
      </trkpt>
      <trkpt lat="42.97573" lon="-0.33767">
        <ele>1708</ele>
        <time>2022-06-08 12:59:32</time>
      </trkpt>
      <trkpt lat="42.97568" lon="-0.33763">
        <ele>1707</ele>
        <time>2022-06-08 12:59:33</time>
      </trkpt>
      <trkpt lat="42.97565" lon="-0.3376">
        <ele>1706.8</ele>
        <time>2022-06-08 12:59:34</time>
      </trkpt>
      <trkpt lat="42.9756" lon="-0.33757">
        <ele>1706.4</ele>
        <time>2022-06-08 12:59:35</time>
      </trkpt>
      <trkpt lat="42.97557" lon="-0.33753">
        <ele>1706.2</ele>
        <time>2022-06-08 12:59:36</time>
      </trkpt>
      <trkpt lat="42.97554" lon="-0.3375">
        <ele>1705.8</ele>
        <time>2022-06-08 12:59:37</time>
      </trkpt>
      <trkpt lat="42.97549" lon="-0.33747">
        <ele>1705.6</ele>
        <time>2022-06-08 12:59:38</time>
      </trkpt>
      <trkpt lat="42.97545" lon="-0.33744">
        <ele>1705</ele>
        <time>2022-06-08 12:59:39</time>
      </trkpt>
      <trkpt lat="42.97542" lon="-0.33741">
        <ele>1704.6</ele>
        <time>2022-06-08 12:59:40</time>
      </trkpt>
      <trkpt lat="42.97539" lon="-0.33737">
        <ele>1704.2</ele>
        <time>2022-06-08 12:59:41</time>
      </trkpt>
      <trkpt lat="42.97536" lon="-0.33734">
        <ele>1703.4</ele>
        <time>2022-06-08 12:59:42</time>
      </trkpt>
      <trkpt lat="42.97532" lon="-0.3373">
        <ele>1703</ele>
        <time>2022-06-08 12:59:43</time>
      </trkpt>
      <trkpt lat="42.97529" lon="-0.33726">
        <ele>1702.2</ele>
        <time>2022-06-08 12:59:44</time>
      </trkpt>
      <trkpt lat="42.97526" lon="-0.33722">
        <ele>1702</ele>
        <time>2022-06-08 12:59:45</time>
      </trkpt>
      <trkpt lat="42.97524" lon="-0.33717">
        <ele>1701.6</ele>
        <time>2022-06-08 12:59:46</time>
      </trkpt>
      <trkpt lat="42.97522" lon="-0.33712">
        <ele>1701.2</ele>
        <time>2022-06-08 12:59:47</time>
      </trkpt>
      <trkpt lat="42.97519" lon="-0.33706">
        <ele>1700.4</ele>
        <time>2022-06-08 12:59:48</time>
      </trkpt>
      <trkpt lat="42.97517" lon="-0.337">
        <ele>1700</ele>
        <time>2022-06-08 12:59:49</time>
      </trkpt>
      <trkpt lat="42.97516" lon="-0.33694">
        <ele>1699.2</ele>
        <time>2022-06-08 12:59:50</time>
      </trkpt>
      <trkpt lat="42.97515" lon="-0.33686">
        <ele>1698.6</ele>
        <time>2022-06-08 12:59:51</time>
      </trkpt>
      <trkpt lat="42.97515" lon="-0.33679">
        <ele>1698</ele>
        <time>2022-06-08 12:59:52</time>
      </trkpt>
      <trkpt lat="42.97515" lon="-0.33671">
        <ele>1697.8</ele>
        <time>2022-06-08 12:59:53</time>
      </trkpt>
      <trkpt lat="42.97515" lon="-0.33663">
        <ele>1697.6</ele>
        <time>2022-06-08 12:59:54</time>
      </trkpt>
      <trkpt lat="42.97515" lon="-0.33655">
        <ele>1697.4</ele>
        <time>2022-06-08 12:59:55</time>
      </trkpt>
      <trkpt lat="42.97515" lon="-0.33647">
        <ele>1697.2</ele>
        <time>2022-06-08 12:59:56</time>
      </trkpt>
      <trkpt lat="42.97515" lon="-0.33639">
        <ele>1696.8</ele>
        <time>2022-06-08 12:59:57</time>
      </trkpt>
      <trkpt lat="42.97514" lon="-0.33632">
        <ele>1696</ele>
        <time>2022-06-08 12:59:58</time>
      </trkpt>
      <trkpt lat="42.97514" lon="-0.33623">
        <ele>1695</ele>
        <time>2022-06-08 12:59:59</time>
      </trkpt>
      <trkpt lat="42.97513" lon="-0.33615">
        <ele>1694.8</ele>
        <time>2022-06-08 13:00:00</time>
      </trkpt>
      <trkpt lat="42.97511" lon="-0.33605">
        <ele>1694.2</ele>
        <time>2022-06-08 13:00:01</time>
      </trkpt>
      <trkpt lat="42.9751" lon="-0.33595">
        <ele>1694</ele>
        <time>2022-06-08 13:00:02</time>
      </trkpt>
      <trkpt lat="42.97509" lon="-0.33584">
        <ele>1693</ele>
        <time>2022-06-08 13:00:03</time>
      </trkpt>
      <trkpt lat="42.97508" lon="-0.33573">
        <ele>1692.4</ele>
        <time>2022-06-08 13:00:04</time>
      </trkpt>
      <trkpt lat="42.97507" lon="-0.33562">
        <ele>1691.4</ele>
        <time>2022-06-08 13:00:05</time>
      </trkpt>
      <trkpt lat="42.97505" lon="-0.33549">
        <ele>1690.8</ele>
        <time>2022-06-08 13:00:06</time>
      </trkpt>
      <trkpt lat="42.97503" lon="-0.33537">
        <ele>1690.4</ele>
        <time>2022-06-08 13:00:07</time>
      </trkpt>
      <trkpt lat="42.97501" lon="-0.33524">
        <ele>1689.8</ele>
        <time>2022-06-08 13:00:08</time>
      </trkpt>
      <trkpt lat="42.97499" lon="-0.33513">
        <ele>1689</ele>
        <time>2022-06-08 13:00:09</time>
      </trkpt>
      <trkpt lat="42.97497" lon="-0.33504">
        <ele>1688.6</ele>
        <time>2022-06-08 13:00:10</time>
      </trkpt>
      <trkpt lat="42.97494" lon="-0.33493">
        <ele>1687.6</ele>
        <time>2022-06-08 13:00:11</time>
      </trkpt>
      <trkpt lat="42.9749" lon="-0.33479">
        <ele>1686.4</ele>
        <time>2022-06-08 13:00:12</time>
      </trkpt>
      <trkpt lat="42.97486" lon="-0.33467">
        <ele>1685.8</ele>
        <time>2022-06-08 13:00:13</time>
      </trkpt>
      <trkpt lat="42.9748" lon="-0.33456">
        <ele>1684.6</ele>
        <time>2022-06-08 13:00:14</time>
      </trkpt>
      <trkpt lat="42.97474" lon="-0.33447">
        <ele>1684.2</ele>
        <time>2022-06-08 13:00:15</time>
      </trkpt>
      <trkpt lat="42.97465" lon="-0.33435">
        <ele>1683</ele>
        <time>2022-06-08 13:00:16</time>
      </trkpt>
      <trkpt lat="42.97456" lon="-0.33426">
        <ele>1682.6</ele>
        <time>2022-06-08 13:00:17</time>
      </trkpt>
      <trkpt lat="42.97448" lon="-0.33415">
        <ele>1681.4</ele>
        <time>2022-06-08 13:00:18</time>
      </trkpt>
      <trkpt lat="42.9744" lon="-0.33402">
        <ele>1681</ele>
        <time>2022-06-08 13:00:19</time>
      </trkpt>
      <trkpt lat="42.97436" lon="-0.33391">
        <ele>1680.8</ele>
        <time>2022-06-08 13:00:20</time>
      </trkpt>
      <trkpt lat="42.97429" lon="-0.33373">
        <ele>1679.8</ele>
        <time>2022-06-08 13:00:21</time>
      </trkpt>
      <trkpt lat="42.97424" lon="-0.33358">
        <ele>1678.2</ele>
        <time>2022-06-08 13:00:22</time>
      </trkpt>
      <trkpt lat="42.97419" lon="-0.33343">
        <ele>1677.4</ele>
        <time>2022-06-08 13:00:23</time>
      </trkpt>
      <trkpt lat="42.97414" lon="-0.33327">
        <ele>1675.6</ele>
        <time>2022-06-08 13:00:24</time>
      </trkpt>
      <trkpt lat="42.97409" lon="-0.33312">
        <ele>1674.8</ele>
        <time>2022-06-08 13:00:25</time>
      </trkpt>
      <trkpt lat="42.97404" lon="-0.33297">
        <ele>1673.2</ele>
        <time>2022-06-08 13:00:26</time>
      </trkpt>
      <trkpt lat="42.97397" lon="-0.33283">
        <ele>1672.6</ele>
        <time>2022-06-08 13:00:27</time>
      </trkpt>
      <trkpt lat="42.9739" lon="-0.3327">
        <ele>1671.4</ele>
        <time>2022-06-08 13:00:28</time>
      </trkpt>
      <trkpt lat="42.97382" lon="-0.33258">
        <ele>1670</ele>
        <time>2022-06-08 13:00:29</time>
      </trkpt>
      <trkpt lat="42.97374" lon="-0.33247">
        <ele>1669.2</ele>
        <time>2022-06-08 13:00:30</time>
      </trkpt>
      <trkpt lat="42.97365" lon="-0.33237">
        <ele>1668.4</ele>
        <time>2022-06-08 13:00:31</time>
      </trkpt>
      <trkpt lat="42.97355" lon="-0.33228">
        <ele>1668</ele>
        <time>2022-06-08 13:00:32</time>
      </trkpt>
      <trkpt lat="42.97345" lon="-0.3322">
        <ele>1666.4</ele>
        <time>2022-06-08 13:00:33</time>
      </trkpt>
      <trkpt lat="42.97334" lon="-0.33213">
        <ele>1665.6</ele>
        <time>2022-06-08 13:00:34</time>
      </trkpt>
      <trkpt lat="42.97323" lon="-0.33207">
        <ele>1664.8</ele>
        <time>2022-06-08 13:00:35</time>
      </trkpt>
      <trkpt lat="42.97312" lon="-0.33202">
        <ele>1664.2</ele>
        <time>2022-06-08 13:00:36</time>
      </trkpt>
      <trkpt lat="42.97301" lon="-0.33199">
        <ele>1663.6</ele>
        <time>2022-06-08 13:00:37</time>
      </trkpt>
      <trkpt lat="42.97289" lon="-0.33196">
        <ele>1662.4</ele>
        <time>2022-06-08 13:00:38</time>
      </trkpt>
      <trkpt lat="42.97278" lon="-0.33196">
        <ele>1661.2</ele>
        <time>2022-06-08 13:00:39</time>
      </trkpt>
      <trkpt lat="42.97267" lon="-0.33197">
        <ele>1660.2</ele>
        <time>2022-06-08 13:00:40</time>
      </trkpt>
      <trkpt lat="42.97256" lon="-0.33198">
        <ele>1658.8</ele>
        <time>2022-06-08 13:00:41</time>
      </trkpt>
      <trkpt lat="42.97249" lon="-0.33201">
        <ele>1658.2</ele>
        <time>2022-06-08 13:00:42</time>
      </trkpt>
      <trkpt lat="42.97238" lon="-0.33204">
        <ele>1657.2</ele>
        <time>2022-06-08 13:00:43</time>
      </trkpt>
      <trkpt lat="42.9723" lon="-0.33204">
        <ele>1656.4</ele>
        <time>2022-06-08 13:00:44</time>
      </trkpt>
      <trkpt lat="42.97222" lon="-0.33202">
        <ele>1656</ele>
        <time>2022-06-08 13:00:45</time>
      </trkpt>
      <trkpt lat="42.97216" lon="-0.33196">
        <ele>1655.2</ele>
        <time>2022-06-08 13:00:46</time>
      </trkpt>
      <trkpt lat="42.97214" lon="-0.33187">
        <ele>1654.8</ele>
        <time>2022-06-08 13:00:47</time>
      </trkpt>
      <trkpt lat="42.97213" lon="-0.33176">
        <ele>1653.8</ele>
        <time>2022-06-08 13:00:48</time>
      </trkpt>
      <trkpt lat="42.97214" lon="-0.33165">
        <ele>1653.4</ele>
        <time>2022-06-08 13:00:49</time>
      </trkpt>
      <trkpt lat="42.97216" lon="-0.33153">
        <ele>1652.6</ele>
        <time>2022-06-08 13:00:50</time>
      </trkpt>
      <trkpt lat="42.97219" lon="-0.3314">
        <ele>1652.4</ele>
        <time>2022-06-08 13:00:51</time>
      </trkpt>
      <trkpt lat="42.97221" lon="-0.33126">
        <ele>1651.4</ele>
        <time>2022-06-08 13:00:52</time>
      </trkpt>
      <trkpt lat="42.97221" lon="-0.33112">
        <ele>1650.8</ele>
        <time>2022-06-08 13:00:53</time>
      </trkpt>
      <trkpt lat="42.97218" lon="-0.33099">
        <ele>1649.8</ele>
        <time>2022-06-08 13:00:54</time>
      </trkpt>
      <trkpt lat="42.97212" lon="-0.33086">
        <ele>1649.4</ele>
        <time>2022-06-08 13:00:55</time>
      </trkpt>
      <trkpt lat="42.97205" lon="-0.33075">
        <ele>1648.8</ele>
        <time>2022-06-08 13:00:56</time>
      </trkpt>
      <trkpt lat="42.97199" lon="-0.33062">
        <ele>1647.2</ele>
        <time>2022-06-08 13:00:57</time>
      </trkpt>
      <trkpt lat="42.97192" lon="-0.33048">
        <ele>1646.6</ele>
        <time>2022-06-08 13:00:58</time>
      </trkpt>
      <trkpt lat="42.97185" lon="-0.33033">
        <ele>1645.6</ele>
        <time>2022-06-08 13:00:59</time>
      </trkpt>
      <trkpt lat="42.97178" lon="-0.33018">
        <ele>1644.8</ele>
        <time>2022-06-08 13:01:00</time>
      </trkpt>
      <trkpt lat="42.97173" lon="-0.33002">
        <ele>1643</ele>
        <time>2022-06-08 13:01:01</time>
      </trkpt>
      <trkpt lat="42.97168" lon="-0.32986">
        <ele>1642.2</ele>
        <time>2022-06-08 13:01:02</time>
      </trkpt>
      <trkpt lat="42.97165" lon="-0.3297">
        <ele>1640.4</ele>
        <time>2022-06-08 13:01:03</time>
      </trkpt>
      <trkpt lat="42.97162" lon="-0.32953">
        <ele>1639.6</ele>
        <time>2022-06-08 13:01:04</time>
      </trkpt>
      <trkpt lat="42.97159" lon="-0.32936">
        <ele>1638.4</ele>
        <time>2022-06-08 13:01:05</time>
      </trkpt>
      <trkpt lat="42.97156" lon="-0.32919">
        <ele>1637.8</ele>
        <time>2022-06-08 13:01:06</time>
      </trkpt>
      <trkpt lat="42.97153" lon="-0.32904">
        <ele>1636</ele>
        <time>2022-06-08 13:01:07</time>
      </trkpt>
      <trkpt lat="42.97152" lon="-0.32887">
        <ele>1635</ele>
        <time>2022-06-08 13:01:08</time>
      </trkpt>
      <trkpt lat="42.97151" lon="-0.32874">
        <ele>1633.6</ele>
        <time>2022-06-08 13:01:09</time>
      </trkpt>
      <trkpt lat="42.97152" lon="-0.32858">
        <ele>1633.2</ele>
        <time>2022-06-08 13:01:10</time>
      </trkpt>
      <trkpt lat="42.97155" lon="-0.3284">
        <ele>1632.4</ele>
        <time>2022-06-08 13:01:11</time>
      </trkpt>
      <trkpt lat="42.97156" lon="-0.32826">
        <ele>1631.8</ele>
        <time>2022-06-08 13:01:12</time>
      </trkpt>
      <trkpt lat="42.97154" lon="-0.32812">
        <ele>1631.2</ele>
        <time>2022-06-08 13:01:13</time>
      </trkpt>
      <trkpt lat="42.9715" lon="-0.32803">
        <ele>1629.6</ele>
        <time>2022-06-08 13:01:14</time>
      </trkpt>
      <trkpt lat="42.97142" lon="-0.32793">
        <ele>1628.8</ele>
        <time>2022-06-08 13:01:15</time>
      </trkpt>
      <trkpt lat="42.97135" lon="-0.32784">
        <ele>1628</ele>
        <time>2022-06-08 13:01:16</time>
      </trkpt>
      <trkpt lat="42.97126" lon="-0.32771">
        <ele>1627.6</ele>
        <time>2022-06-08 13:01:17</time>
      </trkpt>
      <trkpt lat="42.97122" lon="-0.32759">
        <ele>1626.8</ele>
        <time>2022-06-08 13:01:18</time>
      </trkpt>
      <trkpt lat="42.9712" lon="-0.32751">
        <ele>1626.4</ele>
        <time>2022-06-08 13:01:19</time>
      </trkpt>
      <trkpt lat="42.97121" lon="-0.32738">
        <ele>1625.4</ele>
        <time>2022-06-08 13:01:20</time>
      </trkpt>
      <trkpt lat="42.97123" lon="-0.32726">
        <ele>1625</ele>
        <time>2022-06-08 13:01:21</time>
      </trkpt>
      <trkpt lat="42.97128" lon="-0.32711">
        <ele>1624.2</ele>
        <time>2022-06-08 13:01:22</time>
      </trkpt>
      <trkpt lat="42.97132" lon="-0.32699">
        <ele>1623.8</ele>
        <time>2022-06-08 13:01:23</time>
      </trkpt>
      <trkpt lat="42.97137" lon="-0.32688">
        <ele>1623.4</ele>
        <time>2022-06-08 13:01:24</time>
      </trkpt>
      <trkpt lat="42.97142" lon="-0.32679">
        <ele>1623</ele>
        <time>2022-06-08 13:01:25</time>
      </trkpt>
      <trkpt lat="42.97149" lon="-0.32669">
        <ele>1622.6</ele>
        <time>2022-06-08 13:01:26</time>
      </trkpt>
      <trkpt lat="42.97157" lon="-0.32656">
        <ele>1622.2</ele>
        <time>2022-06-08 13:01:27</time>
      </trkpt>
      <trkpt lat="42.97164" lon="-0.32645">
        <ele>1622</ele>
        <time>2022-06-08 13:01:28</time>
      </trkpt>
      <trkpt lat="42.9717" lon="-0.32633">
        <ele>1621.6</ele>
        <time>2022-06-08 13:01:29</time>
      </trkpt>
      <trkpt lat="42.97177" lon="-0.32622">
        <ele>1621.4</ele>
        <time>2022-06-08 13:01:30</time>
      </trkpt>
      <trkpt lat="42.97185" lon="-0.32613">
        <ele>1621.2</ele>
        <time>2022-06-08 13:01:31</time>
      </trkpt>
      <trkpt lat="42.97194" lon="-0.32605">
        <ele>1621</ele>
        <time>2022-06-08 13:01:32</time>
      </trkpt>
      <trkpt lat="42.97203" lon="-0.32597">
        <ele>1620.6</ele>
        <time>2022-06-08 13:01:33</time>
      </trkpt>
      <trkpt lat="42.97212" lon="-0.3259">
        <ele>1620.4</ele>
        <time>2022-06-08 13:01:34</time>
      </trkpt>
      <trkpt lat="42.97221" lon="-0.32583">
        <ele>1620</ele>
        <time>2022-06-08 13:01:35</time>
      </trkpt>
      <trkpt lat="42.9723" lon="-0.32575">
        <ele>1619.6</ele>
        <time>2022-06-08 13:01:36</time>
      </trkpt>
      <trkpt lat="42.97237" lon="-0.32566">
        <ele>1619.4</ele>
        <time>2022-06-08 13:01:37</time>
      </trkpt>
      <trkpt lat="42.97243" lon="-0.32554">
        <ele>1619.2</ele>
        <time>2022-06-08 13:01:38</time>
      </trkpt>
      <trkpt lat="42.97247" lon="-0.32542">
        <ele>1619</ele>
        <time>2022-06-08 13:01:39</time>
      </trkpt>
      <trkpt lat="42.97249" lon="-0.32528">
        <ele>1618.8</ele>
        <time>2022-06-08 13:01:40</time>
      </trkpt>
      <trkpt lat="42.9725" lon="-0.32514">
        <ele>1618.4</ele>
        <time>2022-06-08 13:01:41</time>
      </trkpt>
      <trkpt lat="42.97247" lon="-0.325">
        <ele>1617.8</ele>
        <time>2022-06-08 13:01:42</time>
      </trkpt>
      <trkpt lat="42.97243" lon="-0.32488">
        <ele>1617.6</ele>
        <time>2022-06-08 13:01:43</time>
      </trkpt>
      <trkpt lat="42.97238" lon="-0.32479">
        <ele>1617.2</ele>
        <time>2022-06-08 13:01:44</time>
      </trkpt>
      <trkpt lat="42.97231" lon="-0.32472">
        <ele>1616.8</ele>
        <time>2022-06-08 13:01:45</time>
      </trkpt>
      <trkpt lat="42.97223" lon="-0.32467">
        <ele>1615.8</ele>
        <time>2022-06-08 13:01:46</time>
      </trkpt>
      <trkpt lat="42.97215" lon="-0.32465">
        <ele>1615</ele>
        <time>2022-06-08 13:01:47</time>
      </trkpt>
      <trkpt lat="42.97205" lon="-0.32466">
        <ele>1614</ele>
        <time>2022-06-08 13:01:48</time>
      </trkpt>
      <trkpt lat="42.97195" lon="-0.32467">
        <ele>1613.6</ele>
        <time>2022-06-08 13:01:49</time>
      </trkpt>
      <trkpt lat="42.97185" lon="-0.32468">
        <ele>1612.4</ele>
        <time>2022-06-08 13:01:50</time>
      </trkpt>
      <trkpt lat="42.97175" lon="-0.32466">
        <ele>1611.4</ele>
        <time>2022-06-08 13:01:51</time>
      </trkpt>
      <trkpt lat="42.97167" lon="-0.32464">
        <ele>1610.2</ele>
        <time>2022-06-08 13:01:52</time>
      </trkpt>
      <trkpt lat="42.97155" lon="-0.32461">
        <ele>1609.6</ele>
        <time>2022-06-08 13:01:53</time>
      </trkpt>
      <trkpt lat="42.97145" lon="-0.3246">
        <ele>1608.8</ele>
        <time>2022-06-08 13:01:54</time>
      </trkpt>
      <trkpt lat="42.97135" lon="-0.32457">
        <ele>1607.8</ele>
        <time>2022-06-08 13:01:55</time>
      </trkpt>
      <trkpt lat="42.97126" lon="-0.32453">
        <ele>1606</ele>
        <time>2022-06-08 13:01:56</time>
      </trkpt>
      <trkpt lat="42.97117" lon="-0.32447">
        <ele>1605.4</ele>
        <time>2022-06-08 13:01:57</time>
      </trkpt>
      <trkpt lat="42.97109" lon="-0.32442">
        <ele>1604.8</ele>
        <time>2022-06-08 13:01:58</time>
      </trkpt>
      <trkpt lat="42.97102" lon="-0.32436">
        <ele>1604</ele>
        <time>2022-06-08 13:01:59</time>
      </trkpt>
      <trkpt lat="42.97096" lon="-0.3243">
        <ele>1603.6</ele>
        <time>2022-06-08 13:02:00</time>
      </trkpt>
      <trkpt lat="42.97091" lon="-0.32423">
        <ele>1602.4</ele>
        <time>2022-06-08 13:02:01</time>
      </trkpt>
      <trkpt lat="42.97089" lon="-0.32416">
        <ele>1602</ele>
        <time>2022-06-08 13:02:02</time>
      </trkpt>
      <trkpt lat="42.97088" lon="-0.32408">
        <ele>1601</ele>
        <time>2022-06-08 13:02:03</time>
      </trkpt>
      <trkpt lat="42.9709" lon="-0.324">
        <ele>1600.6</ele>
        <time>2022-06-08 13:02:04</time>
      </trkpt>
      <trkpt lat="42.97094" lon="-0.32393">
        <ele>1599.8</ele>
        <time>2022-06-08 13:02:05</time>
      </trkpt>
      <trkpt lat="42.971" lon="-0.32388">
        <ele>1599.4</ele>
        <time>2022-06-08 13:02:06</time>
      </trkpt>
      <trkpt lat="42.97107" lon="-0.32383">
        <ele>1599</ele>
        <time>2022-06-08 13:02:07</time>
      </trkpt>
      <trkpt lat="42.97113" lon="-0.32379">
        <ele>1598.8</ele>
        <time>2022-06-08 13:02:08</time>
      </trkpt>
      <trkpt lat="42.9712" lon="-0.32376">
        <ele>1598</ele>
        <time>2022-06-08 13:02:09</time>
      </trkpt>
      <trkpt lat="42.97127" lon="-0.32369">
        <ele>1597.8</ele>
        <time>2022-06-08 13:02:10</time>
      </trkpt>
      <trkpt lat="42.97133" lon="-0.32362">
        <ele>1597.6</ele>
        <time>2022-06-08 13:02:11</time>
      </trkpt>
      <trkpt lat="42.97138" lon="-0.32354">
        <ele>1597.2</ele>
        <time>2022-06-08 13:02:12</time>
      </trkpt>
      <trkpt lat="42.97142" lon="-0.32345">
        <ele>1596.2</ele>
        <time>2022-06-08 13:02:13</time>
      </trkpt>
      <trkpt lat="42.97143" lon="-0.32335">
        <ele>1595.6</ele>
        <time>2022-06-08 13:02:14</time>
      </trkpt>
      <trkpt lat="42.97144" lon="-0.32325">
        <ele>1594.8</ele>
        <time>2022-06-08 13:02:15</time>
      </trkpt>
      <trkpt lat="42.97144" lon="-0.32314">
        <ele>1593</ele>
        <time>2022-06-08 13:02:16</time>
      </trkpt>
      <trkpt lat="42.97142" lon="-0.32302">
        <ele>1592.2</ele>
        <time>2022-06-08 13:02:17</time>
      </trkpt>
      <trkpt lat="42.9714" lon="-0.32292">
        <ele>1591.4</ele>
        <time>2022-06-08 13:02:18</time>
      </trkpt>
      <trkpt lat="42.97137" lon="-0.32281">
        <ele>1591.2</ele>
        <time>2022-06-08 13:02:19</time>
      </trkpt>
      <trkpt lat="42.97137" lon="-0.32269">
        <ele>1590.6</ele>
        <time>2022-06-08 13:02:20</time>
      </trkpt>
      <trkpt lat="42.97139" lon="-0.32257">
        <ele>1589.8</ele>
        <time>2022-06-08 13:02:21</time>
      </trkpt>
      <trkpt lat="42.97142" lon="-0.32246">
        <ele>1588.8</ele>
        <time>2022-06-08 13:02:22</time>
      </trkpt>
      <trkpt lat="42.97146" lon="-0.32237">
        <ele>1588.2</ele>
        <time>2022-06-08 13:02:23</time>
      </trkpt>
      <trkpt lat="42.9715" lon="-0.32231">
        <ele>1586.6</ele>
        <time>2022-06-08 13:02:24</time>
      </trkpt>
      <trkpt lat="42.97157" lon="-0.32225">
        <ele>1586</ele>
        <time>2022-06-08 13:02:25</time>
      </trkpt>
      <trkpt lat="42.97165" lon="-0.32221">
        <ele>1585</ele>
        <time>2022-06-08 13:02:26</time>
      </trkpt>
      <trkpt lat="42.97172" lon="-0.32215">
        <ele>1584.6</ele>
        <time>2022-06-08 13:02:27</time>
      </trkpt>
      <trkpt lat="42.9718" lon="-0.32208">
        <ele>1583.8</ele>
        <time>2022-06-08 13:02:28</time>
      </trkpt>
      <trkpt lat="42.97186" lon="-0.32199">
        <ele>1582.8</ele>
        <time>2022-06-08 13:02:29</time>
      </trkpt>
      <trkpt lat="42.97192" lon="-0.32187">
        <ele>1582.2</ele>
        <time>2022-06-08 13:02:30</time>
      </trkpt>
      <trkpt lat="42.97198" lon="-0.32174">
        <ele>1581.4</ele>
        <time>2022-06-08 13:02:31</time>
      </trkpt>
      <trkpt lat="42.97204" lon="-0.32161">
        <ele>1580.6</ele>
        <time>2022-06-08 13:02:32</time>
      </trkpt>
      <trkpt lat="42.9721" lon="-0.32147">
        <ele>1579.6</ele>
        <time>2022-06-08 13:02:33</time>
      </trkpt>
      <trkpt lat="42.97217" lon="-0.32133">
        <ele>1579.2</ele>
        <time>2022-06-08 13:02:34</time>
      </trkpt>
      <trkpt lat="42.97222" lon="-0.32119">
        <ele>1577.8</ele>
        <time>2022-06-08 13:02:35</time>
      </trkpt>
      <trkpt lat="42.97226" lon="-0.32104">
        <ele>1577</ele>
        <time>2022-06-08 13:02:36</time>
      </trkpt>
      <trkpt lat="42.97228" lon="-0.3209">
        <ele>1575.2</ele>
        <time>2022-06-08 13:02:37</time>
      </trkpt>
      <trkpt lat="42.97228" lon="-0.32075">
        <ele>1574.4</ele>
        <time>2022-06-08 13:02:38</time>
      </trkpt>
      <trkpt lat="42.97228" lon="-0.3206">
        <ele>1573.2</ele>
        <time>2022-06-08 13:02:39</time>
      </trkpt>
      <trkpt lat="42.97228" lon="-0.32044">
        <ele>1572.8</ele>
        <time>2022-06-08 13:02:40</time>
      </trkpt>
      <trkpt lat="42.97229" lon="-0.32027">
        <ele>1571.2</ele>
        <time>2022-06-08 13:02:41</time>
      </trkpt>
      <trkpt lat="42.97231" lon="-0.3201">
        <ele>1570.6</ele>
        <time>2022-06-08 13:02:42</time>
      </trkpt>
      <trkpt lat="42.97233" lon="-0.31992">
        <ele>1570</ele>
        <time>2022-06-08 13:02:43</time>
      </trkpt>
      <trkpt lat="42.97235" lon="-0.31975">
        <ele>1568.8</ele>
        <time>2022-06-08 13:02:44</time>
      </trkpt>
      <trkpt lat="42.97237" lon="-0.31958">
        <ele>1567</ele>
        <time>2022-06-08 13:02:45</time>
      </trkpt>
      <trkpt lat="42.97239" lon="-0.31942">
        <ele>1565.4</ele>
        <time>2022-06-08 13:02:46</time>
      </trkpt>
      <trkpt lat="42.97241" lon="-0.31925">
        <ele>1564.2</ele>
        <time>2022-06-08 13:02:47</time>
      </trkpt>
      <trkpt lat="42.97242" lon="-0.31909">
        <ele>1562.4</ele>
        <time>2022-06-08 13:02:48</time>
      </trkpt>
      <trkpt lat="42.97244" lon="-0.31893">
        <ele>1561.6</ele>
        <time>2022-06-08 13:02:49</time>
      </trkpt>
      <trkpt lat="42.97246" lon="-0.31878">
        <ele>1560</ele>
        <time>2022-06-08 13:02:50</time>
      </trkpt>
      <trkpt lat="42.97248" lon="-0.31865">
        <ele>1559.4</ele>
        <time>2022-06-08 13:02:51</time>
      </trkpt>
      <trkpt lat="42.97249" lon="-0.31852">
        <ele>1558.4</ele>
        <time>2022-06-08 13:02:52</time>
      </trkpt>
      <trkpt lat="42.97251" lon="-0.3184">
        <ele>1557.4</ele>
        <time>2022-06-08 13:02:53</time>
      </trkpt>
      <trkpt lat="42.97253" lon="-0.31829">
        <ele>1556.4</ele>
        <time>2022-06-08 13:02:54</time>
      </trkpt>
      <trkpt lat="42.97256" lon="-0.31819">
        <ele>1556</ele>
        <time>2022-06-08 13:02:55</time>
      </trkpt>
      <trkpt lat="42.9726" lon="-0.31811">
        <ele>1554.8</ele>
        <time>2022-06-08 13:02:56</time>
      </trkpt>
      <trkpt lat="42.97265" lon="-0.31806">
        <ele>1554.2</ele>
        <time>2022-06-08 13:02:57</time>
      </trkpt>
      <trkpt lat="42.97272" lon="-0.31802">
        <ele>1553.4</ele>
        <time>2022-06-08 13:02:58</time>
      </trkpt>
      <trkpt lat="42.97279" lon="-0.31799">
        <ele>1553</ele>
        <time>2022-06-08 13:02:59</time>
      </trkpt>
      <trkpt lat="42.97288" lon="-0.31798">
        <ele>1552.4</ele>
        <time>2022-06-08 13:03:00</time>
      </trkpt>
      <trkpt lat="42.97298" lon="-0.31798">
        <ele>1551.2</ele>
        <time>2022-06-08 13:03:01</time>
      </trkpt>
      <trkpt lat="42.97309" lon="-0.31799">
        <ele>1550.6</ele>
        <time>2022-06-08 13:03:02</time>
      </trkpt>
      <trkpt lat="42.97319" lon="-0.31799">
        <ele>1549.2</ele>
        <time>2022-06-08 13:03:03</time>
      </trkpt>
      <trkpt lat="42.9733" lon="-0.31802">
        <ele>1548.6</ele>
        <time>2022-06-08 13:03:04</time>
      </trkpt>
      <trkpt lat="42.97341" lon="-0.31805">
        <ele>1546.8</ele>
        <time>2022-06-08 13:03:05</time>
      </trkpt>
      <trkpt lat="42.97352" lon="-0.31809">
        <ele>1546.2</ele>
        <time>2022-06-08 13:03:06</time>
      </trkpt>
      <trkpt lat="42.97363" lon="-0.31813">
        <ele>1545</ele>
        <time>2022-06-08 13:03:07</time>
      </trkpt>
      <trkpt lat="42.97375" lon="-0.31816">
        <ele>1544</ele>
        <time>2022-06-08 13:03:08</time>
      </trkpt>
      <trkpt lat="42.97386" lon="-0.31819">
        <ele>1541.6</ele>
        <time>2022-06-08 13:03:09</time>
      </trkpt>
      <trkpt lat="42.97397" lon="-0.31822">
        <ele>1540.4</ele>
        <time>2022-06-08 13:03:10</time>
      </trkpt>
      <trkpt lat="42.97406" lon="-0.31824">
        <ele>1538.8</ele>
        <time>2022-06-08 13:03:11</time>
      </trkpt>
      <trkpt lat="42.97417" lon="-0.31827">
        <ele>1538</ele>
        <time>2022-06-08 13:03:12</time>
      </trkpt>
      <trkpt lat="42.97424" lon="-0.3183">
        <ele>1537</ele>
        <time>2022-06-08 13:03:13</time>
      </trkpt>
      <trkpt lat="42.97431" lon="-0.31831">
        <ele>1536.6</ele>
        <time>2022-06-08 13:03:14</time>
      </trkpt>
      <trkpt lat="42.97438" lon="-0.31828">
        <ele>1535.8</ele>
        <time>2022-06-08 13:03:15</time>
      </trkpt>
      <trkpt lat="42.97446" lon="-0.31824">
        <ele>1535.6</ele>
        <time>2022-06-08 13:03:16</time>
      </trkpt>
      <trkpt lat="42.97453" lon="-0.31818">
        <ele>1535</ele>
        <time>2022-06-08 13:03:17</time>
      </trkpt>
      <trkpt lat="42.9746" lon="-0.3181">
        <ele>1534.8</ele>
        <time>2022-06-08 13:03:18</time>
      </trkpt>
      <trkpt lat="42.97469" lon="-0.31804">
        <ele>1534.6</ele>
        <time>2022-06-08 13:03:19</time>
      </trkpt>
      <trkpt lat="42.97478" lon="-0.31799">
        <ele>1534.4</ele>
        <time>2022-06-08 13:03:20</time>
      </trkpt>
      <trkpt lat="42.97488" lon="-0.31795">
        <ele>1534.2</ele>
        <time>2022-06-08 13:03:21</time>
      </trkpt>
      <trkpt lat="42.97498" lon="-0.31791">
        <ele>1533.4</ele>
        <time>2022-06-08 13:03:22</time>
      </trkpt>
      <trkpt lat="42.97508" lon="-0.31785">
        <ele>1532.8</ele>
        <time>2022-06-08 13:03:23</time>
      </trkpt>
      <trkpt lat="42.97518" lon="-0.31779">
        <ele>1532</ele>
        <time>2022-06-08 13:03:24</time>
      </trkpt>
      <trkpt lat="42.9753" lon="-0.31774">
        <ele>1531</ele>
        <time>2022-06-08 13:03:25</time>
      </trkpt>
      <trkpt lat="42.97539" lon="-0.31766">
        <ele>1529.2</ele>
        <time>2022-06-08 13:03:26</time>
      </trkpt>
      <trkpt lat="42.97545" lon="-0.31756">
        <ele>1528.4</ele>
        <time>2022-06-08 13:03:27</time>
      </trkpt>
      <trkpt lat="42.9755" lon="-0.31745">
        <ele>1527.4</ele>
        <time>2022-06-08 13:03:28</time>
      </trkpt>
      <trkpt lat="42.97556" lon="-0.31734">
        <ele>1526.8</ele>
        <time>2022-06-08 13:03:29</time>
      </trkpt>
      <trkpt lat="42.9756" lon="-0.31724">
        <ele>1526</ele>
        <time>2022-06-08 13:03:30</time>
      </trkpt>
      <trkpt lat="42.97563" lon="-0.31708">
        <ele>1525.4</ele>
        <time>2022-06-08 13:03:31</time>
      </trkpt>
      <trkpt lat="42.97567" lon="-0.31693">
        <ele>1524.2</ele>
        <time>2022-06-08 13:03:32</time>
      </trkpt>
      <trkpt lat="42.9757" lon="-0.31678">
        <ele>1523.2</ele>
        <time>2022-06-08 13:03:33</time>
      </trkpt>
      <trkpt lat="42.97571" lon="-0.31663">
        <ele>1522.6</ele>
        <time>2022-06-08 13:03:34</time>
      </trkpt>
      <trkpt lat="42.97572" lon="-0.31648">
        <ele>1521.4</ele>
        <time>2022-06-08 13:03:35</time>
      </trkpt>
      <trkpt lat="42.97571" lon="-0.31633">
        <ele>1520.8</ele>
        <time>2022-06-08 13:03:36</time>
      </trkpt>
      <trkpt lat="42.9757" lon="-0.31619">
        <ele>1519.4</ele>
        <time>2022-06-08 13:03:37</time>
      </trkpt>
      <trkpt lat="42.97568" lon="-0.31605">
        <ele>1518.8</ele>
        <time>2022-06-08 13:03:38</time>
      </trkpt>
      <trkpt lat="42.97567" lon="-0.3159">
        <ele>1518</ele>
        <time>2022-06-08 13:03:39</time>
      </trkpt>
      <trkpt lat="42.97566" lon="-0.31579">
        <ele>1517.4</ele>
        <time>2022-06-08 13:03:40</time>
      </trkpt>
      <trkpt lat="42.97565" lon="-0.31563">
        <ele>1516.4</ele>
        <time>2022-06-08 13:03:41</time>
      </trkpt>
      <trkpt lat="42.97565" lon="-0.3155">
        <ele>1515.6</ele>
        <time>2022-06-08 13:03:42</time>
      </trkpt>
      <trkpt lat="42.97565" lon="-0.31537">
        <ele>1514.8</ele>
        <time>2022-06-08 13:03:43</time>
      </trkpt>
      <trkpt lat="42.97564" lon="-0.31524">
        <ele>1514.6</ele>
        <time>2022-06-08 13:03:44</time>
      </trkpt>
      <trkpt lat="42.97565" lon="-0.31515">
        <ele>1514</ele>
        <time>2022-06-08 13:03:45</time>
      </trkpt>
      <trkpt lat="42.97564" lon="-0.31501">
        <ele>1513.8</ele>
        <time>2022-06-08 13:03:46</time>
      </trkpt>
      <trkpt lat="42.97563" lon="-0.3149">
        <ele>1513.8</ele>
        <time>2022-06-08 13:03:47</time>
      </trkpt>
      <trkpt lat="42.97561" lon="-0.3148">
        <ele>1513.6</ele>
        <time>2022-06-08 13:03:48</time>
      </trkpt>
      <trkpt lat="42.97559" lon="-0.31471">
        <ele>1513.6</ele>
        <time>2022-06-08 13:03:49</time>
      </trkpt>
      <trkpt lat="42.9756" lon="-0.31463">
        <ele>1513.6</ele>
        <time>2022-06-08 13:03:50</time>
      </trkpt>
      <trkpt lat="42.97561" lon="-0.31451">
        <ele>1513.4</ele>
        <time>2022-06-08 13:03:51</time>
      </trkpt>
      <trkpt lat="42.97563" lon="-0.31441">
        <ele>1513.2</ele>
        <time>2022-06-08 13:03:52</time>
      </trkpt>
      <trkpt lat="42.97565" lon="-0.31431">
        <ele>1513.2</ele>
        <time>2022-06-08 13:03:53</time>
      </trkpt>
      <trkpt lat="42.97567" lon="-0.3142">
        <ele>1513</ele>
        <time>2022-06-08 13:03:54</time>
      </trkpt>
      <trkpt lat="42.9757" lon="-0.31409">
        <ele>1513</ele>
        <time>2022-06-08 13:03:55</time>
      </trkpt>
      <trkpt lat="42.97571" lon="-0.314">
        <ele>1512.4</ele>
        <time>2022-06-08 13:03:56</time>
      </trkpt>
      <trkpt lat="42.97572" lon="-0.31385">
        <ele>1512.2</ele>
        <time>2022-06-08 13:03:57</time>
      </trkpt>
      <trkpt lat="42.97573" lon="-0.31373">
        <ele>1511.8</ele>
        <time>2022-06-08 13:03:58</time>
      </trkpt>
      <trkpt lat="42.97573" lon="-0.31361">
        <ele>1511.2</ele>
        <time>2022-06-08 13:03:59</time>
      </trkpt>
      <trkpt lat="42.97572" lon="-0.3135">
        <ele>1509.8</ele>
        <time>2022-06-08 13:04:00</time>
      </trkpt>
      <trkpt lat="42.9757" lon="-0.31338">
        <ele>1509.2</ele>
        <time>2022-06-08 13:04:01</time>
      </trkpt>
      <trkpt lat="42.97568" lon="-0.31328">
        <ele>1507.8</ele>
        <time>2022-06-08 13:04:02</time>
      </trkpt>
      <trkpt lat="42.97564" lon="-0.31315">
        <ele>1507.4</ele>
        <time>2022-06-08 13:04:03</time>
      </trkpt>
      <trkpt lat="42.97563" lon="-0.31303">
        <ele>1507</ele>
        <time>2022-06-08 13:04:04</time>
      </trkpt>
      <trkpt lat="42.97563" lon="-0.3129">
        <ele>1506</ele>
        <time>2022-06-08 13:04:05</time>
      </trkpt>
      <trkpt lat="42.97564" lon="-0.31278">
        <ele>1505.4</ele>
        <time>2022-06-08 13:04:06</time>
      </trkpt>
      <trkpt lat="42.97567" lon="-0.31266">
        <ele>1504</ele>
        <time>2022-06-08 13:04:07</time>
      </trkpt>
      <trkpt lat="42.97571" lon="-0.31255">
        <ele>1503.4</ele>
        <time>2022-06-08 13:04:08</time>
      </trkpt>
      <trkpt lat="42.97577" lon="-0.31244">
        <ele>1502.8</ele>
        <time>2022-06-08 13:04:09</time>
      </trkpt>
      <trkpt lat="42.97582" lon="-0.31233">
        <ele>1502.6</ele>
        <time>2022-06-08 13:04:10</time>
      </trkpt>
      <trkpt lat="42.97585" lon="-0.31221">
        <ele>1501.4</ele>
        <time>2022-06-08 13:04:11</time>
      </trkpt>
      <trkpt lat="42.97588" lon="-0.31209">
        <ele>1501.2</ele>
        <time>2022-06-08 13:04:12</time>
      </trkpt>
      <trkpt lat="42.9759" lon="-0.31195">
        <ele>1500.4</ele>
        <time>2022-06-08 13:04:13</time>
      </trkpt>
      <trkpt lat="42.97594" lon="-0.31182">
        <ele>1500</ele>
        <time>2022-06-08 13:04:14</time>
      </trkpt>
      <trkpt lat="42.97596" lon="-0.31168">
        <ele>1498.8</ele>
        <time>2022-06-08 13:04:15</time>
      </trkpt>
      <trkpt lat="42.97599" lon="-0.31154">
        <ele>1498.4</ele>
        <time>2022-06-08 13:04:16</time>
      </trkpt>
      <trkpt lat="42.97603" lon="-0.31141">
        <ele>1497.6</ele>
        <time>2022-06-08 13:04:17</time>
      </trkpt>
      <trkpt lat="42.97605" lon="-0.3113">
        <ele>1497.4</ele>
        <time>2022-06-08 13:04:18</time>
      </trkpt>
      <trkpt lat="42.97608" lon="-0.31114">
        <ele>1496.4</ele>
        <time>2022-06-08 13:04:19</time>
      </trkpt>
      <trkpt lat="42.9761" lon="-0.311">
        <ele>1495.8</ele>
        <time>2022-06-08 13:04:20</time>
      </trkpt>
      <trkpt lat="42.97612" lon="-0.31088">
        <ele>1495.2</ele>
        <time>2022-06-08 13:04:21</time>
      </trkpt>
      <trkpt lat="42.97612" lon="-0.31075">
        <ele>1493.6</ele>
        <time>2022-06-08 13:04:22</time>
      </trkpt>
      <trkpt lat="42.97612" lon="-0.31063">
        <ele>1493.2</ele>
        <time>2022-06-08 13:04:23</time>
      </trkpt>
      <trkpt lat="42.97612" lon="-0.31052">
        <ele>1492.6</ele>
        <time>2022-06-08 13:04:24</time>
      </trkpt>
      <trkpt lat="42.9761" lon="-0.31042">
        <ele>1492</ele>
        <time>2022-06-08 13:04:25</time>
      </trkpt>
      <trkpt lat="42.97607" lon="-0.31033">
        <ele>1491</ele>
        <time>2022-06-08 13:04:26</time>
      </trkpt>
      <trkpt lat="42.97601" lon="-0.31025">
        <ele>1490.4</ele>
        <time>2022-06-08 13:04:27</time>
      </trkpt>
      <trkpt lat="42.97593" lon="-0.31018">
        <ele>1489.6</ele>
        <time>2022-06-08 13:04:28</time>
      </trkpt>
      <trkpt lat="42.97585" lon="-0.3101">
        <ele>1488.8</ele>
        <time>2022-06-08 13:04:29</time>
      </trkpt>
      <trkpt lat="42.97578" lon="-0.31002">
        <ele>1488</ele>
        <time>2022-06-08 13:04:30</time>
      </trkpt>
      <trkpt lat="42.97571" lon="-0.30992">
        <ele>1487.4</ele>
        <time>2022-06-08 13:04:31</time>
      </trkpt>
      <trkpt lat="42.97563" lon="-0.30982">
        <ele>1486.4</ele>
        <time>2022-06-08 13:04:32</time>
      </trkpt>
      <trkpt lat="42.97556" lon="-0.30971">
        <ele>1485.8</ele>
        <time>2022-06-08 13:04:33</time>
      </trkpt>
      <trkpt lat="42.97548" lon="-0.30959">
        <ele>1485</ele>
        <time>2022-06-08 13:04:34</time>
      </trkpt>
      <trkpt lat="42.97541" lon="-0.30946">
        <ele>1484.8</ele>
        <time>2022-06-08 13:04:35</time>
      </trkpt>
      <trkpt lat="42.97534" lon="-0.30934">
        <ele>1483.2</ele>
        <time>2022-06-08 13:04:36</time>
      </trkpt>
      <trkpt lat="42.97527" lon="-0.30922">
        <ele>1481.6</ele>
        <time>2022-06-08 13:04:37</time>
      </trkpt>
      <trkpt lat="42.97521" lon="-0.30913">
        <ele>1481</ele>
        <time>2022-06-08 13:04:38</time>
      </trkpt>
      <trkpt lat="42.97511" lon="-0.30901">
        <ele>1480.4</ele>
        <time>2022-06-08 13:04:39</time>
      </trkpt>
      <trkpt lat="42.97501" lon="-0.30893">
        <ele>1479.8</ele>
        <time>2022-06-08 13:04:40</time>
      </trkpt>
      <trkpt lat="42.97493" lon="-0.30884">
        <ele>1477.8</ele>
        <time>2022-06-08 13:04:41</time>
      </trkpt>
      <trkpt lat="42.97484" lon="-0.30875">
        <ele>1477.2</ele>
        <time>2022-06-08 13:04:42</time>
      </trkpt>
      <trkpt lat="42.97477" lon="-0.30865">
        <ele>1476</ele>
        <time>2022-06-08 13:04:43</time>
      </trkpt>
      <trkpt lat="42.9747" lon="-0.30854">
        <ele>1475.4</ele>
        <time>2022-06-08 13:04:44</time>
      </trkpt>
      <trkpt lat="42.97464" lon="-0.30842">
        <ele>1474.8</ele>
        <time>2022-06-08 13:04:45</time>
      </trkpt>
      <trkpt lat="42.97459" lon="-0.3083">
        <ele>1474.6</ele>
        <time>2022-06-08 13:04:46</time>
      </trkpt>
      <trkpt lat="42.97454" lon="-0.30817">
        <ele>1474.2</ele>
        <time>2022-06-08 13:04:47</time>
      </trkpt>
      <trkpt lat="42.97451" lon="-0.30804">
        <ele>1474.2</ele>
        <time>2022-06-08 13:04:48</time>
      </trkpt>
      <trkpt lat="42.9745" lon="-0.30791">
        <ele>1474</ele>
        <time>2022-06-08 13:04:49</time>
      </trkpt>
      <trkpt lat="42.97452" lon="-0.30779">
        <ele>1473.8</ele>
        <time>2022-06-08 13:04:50</time>
      </trkpt>
      <trkpt lat="42.97456" lon="-0.30768">
        <ele>1473.6</ele>
        <time>2022-06-08 13:04:51</time>
      </trkpt>
      <trkpt lat="42.97459" lon="-0.30756">
        <ele>1473.4</ele>
        <time>2022-06-08 13:04:52</time>
      </trkpt>
      <trkpt lat="42.97462" lon="-0.30747">
        <ele>1473</ele>
        <time>2022-06-08 13:04:53</time>
      </trkpt>
      <trkpt lat="42.97465" lon="-0.30735">
        <ele>1472.4</ele>
        <time>2022-06-08 13:04:54</time>
      </trkpt>
      <trkpt lat="42.97467" lon="-0.30722">
        <ele>1472.2</ele>
        <time>2022-06-08 13:04:55</time>
      </trkpt>
      <trkpt lat="42.97469" lon="-0.30707">
        <ele>1471.8</ele>
        <time>2022-06-08 13:04:56</time>
      </trkpt>
      <trkpt lat="42.9747" lon="-0.30694">
        <ele>1471.6</ele>
        <time>2022-06-08 13:04:57</time>
      </trkpt>
      <trkpt lat="42.97472" lon="-0.30684">
        <ele>1470.6</ele>
        <time>2022-06-08 13:04:58</time>
      </trkpt>
      <trkpt lat="42.97473" lon="-0.30668">
        <ele>1470</ele>
        <time>2022-06-08 13:04:59</time>
      </trkpt>
      <trkpt lat="42.97475" lon="-0.30654">
        <ele>1469.2</ele>
        <time>2022-06-08 13:05:00</time>
      </trkpt>
      <trkpt lat="42.97476" lon="-0.3064">
        <ele>1468.4</ele>
        <time>2022-06-08 13:05:01</time>
      </trkpt>
      <trkpt lat="42.97478" lon="-0.30627">
        <ele>1467.4</ele>
        <time>2022-06-08 13:05:02</time>
      </trkpt>
      <trkpt lat="42.9748" lon="-0.30614">
        <ele>1467</ele>
        <time>2022-06-08 13:05:03</time>
      </trkpt>
      <trkpt lat="42.9748" lon="-0.30604">
        <ele>1466.4</ele>
        <time>2022-06-08 13:05:04</time>
      </trkpt>
      <trkpt lat="42.9748" lon="-0.3059">
        <ele>1466.2</ele>
        <time>2022-06-08 13:05:05</time>
      </trkpt>
      <trkpt lat="42.97477" lon="-0.30576">
        <ele>1465.4</ele>
        <time>2022-06-08 13:05:06</time>
      </trkpt>
      <trkpt lat="42.97472" lon="-0.30566">
        <ele>1465.2</ele>
        <time>2022-06-08 13:05:07</time>
      </trkpt>
      <trkpt lat="42.97466" lon="-0.30556">
        <ele>1464.6</ele>
        <time>2022-06-08 13:05:08</time>
      </trkpt>
      <trkpt lat="42.9746" lon="-0.3055">
        <ele>1464.2</ele>
        <time>2022-06-08 13:05:09</time>
      </trkpt>
      <trkpt lat="42.97452" lon="-0.30544">
        <ele>1464.2</ele>
        <time>2022-06-08 13:05:10</time>
      </trkpt>
      <trkpt lat="42.97444" lon="-0.30539">
        <ele>1463.8</ele>
        <time>2022-06-08 13:05:11</time>
      </trkpt>
      <trkpt lat="42.97435" lon="-0.30532">
        <ele>1463.8</ele>
        <time>2022-06-08 13:05:12</time>
      </trkpt>
      <trkpt lat="42.97428" lon="-0.30527">
        <ele>1463.4</ele>
        <time>2022-06-08 13:05:13</time>
      </trkpt>
      <trkpt lat="42.97422" lon="-0.30521">
        <ele>1463.4</ele>
        <time>2022-06-08 13:05:14</time>
      </trkpt>
      <trkpt lat="42.97414" lon="-0.30511">
        <ele>1463.2</ele>
        <time>2022-06-08 13:05:15</time>
      </trkpt>
      <trkpt lat="42.97408" lon="-0.30503">
        <ele>1463</ele>
        <time>2022-06-08 13:05:16</time>
      </trkpt>
      <trkpt lat="42.97402" lon="-0.30494">
        <ele>1462.8</ele>
        <time>2022-06-08 13:05:17</time>
      </trkpt>
      <trkpt lat="42.97396" lon="-0.30485">
        <ele>1462.8</ele>
        <time>2022-06-08 13:05:18</time>
      </trkpt>
      <trkpt lat="42.97391" lon="-0.30479">
        <ele>1462.6</ele>
        <time>2022-06-08 13:05:19</time>
      </trkpt>
      <trkpt lat="42.97385" lon="-0.30472">
        <ele>1462.6</ele>
        <time>2022-06-08 13:05:20</time>
      </trkpt>
      <trkpt lat="42.97378" lon="-0.30468">
        <ele>1462.4</ele>
        <time>2022-06-08 13:05:21</time>
      </trkpt>
      <trkpt lat="42.97368" lon="-0.30467">
        <ele>1462.2</ele>
        <time>2022-06-08 13:05:22</time>
      </trkpt>
      <trkpt lat="42.9736" lon="-0.30467">
        <ele>1462</ele>
        <time>2022-06-08 13:05:23</time>
      </trkpt>
      <trkpt lat="42.97352" lon="-0.30466">
        <ele>1462</ele>
        <time>2022-06-08 13:05:24</time>
      </trkpt>
      <trkpt lat="42.97344" lon="-0.30464">
        <ele>1461.6</ele>
        <time>2022-06-08 13:05:25</time>
      </trkpt>
      <trkpt lat="42.97337" lon="-0.3046">
        <ele>1461.4</ele>
        <time>2022-06-08 13:05:26</time>
      </trkpt>
      <trkpt lat="42.97329" lon="-0.30454">
        <ele>1461.4</ele>
        <time>2022-06-08 13:05:27</time>
      </trkpt>
      <trkpt lat="42.97322" lon="-0.3045">
        <ele>1461.2</ele>
        <time>2022-06-08 13:05:28</time>
      </trkpt>
      <trkpt lat="42.97314" lon="-0.30447">
        <ele>1461</ele>
        <time>2022-06-08 13:05:29</time>
      </trkpt>
      <trkpt lat="42.97306" lon="-0.30447">
        <ele>1460.8</ele>
        <time>2022-06-08 13:05:30</time>
      </trkpt>
      <trkpt lat="42.97297" lon="-0.30448">
        <ele>1460.6</ele>
        <time>2022-06-08 13:05:31</time>
      </trkpt>
      <trkpt lat="42.97289" lon="-0.30448">
        <ele>1460.4</ele>
        <time>2022-06-08 13:05:32</time>
      </trkpt>
      <trkpt lat="42.97281" lon="-0.30447">
        <ele>1460.4</ele>
        <time>2022-06-08 13:05:33</time>
      </trkpt>
      <trkpt lat="42.97273" lon="-0.30443">
        <ele>1460.4</ele>
        <time>2022-06-08 13:05:34</time>
      </trkpt>
      <trkpt lat="42.97266" lon="-0.30436">
        <ele>1460.2</ele>
        <time>2022-06-08 13:05:35</time>
      </trkpt>
      <trkpt lat="42.9726" lon="-0.30428">
        <ele>1460</ele>
        <time>2022-06-08 13:05:36</time>
      </trkpt>
      <trkpt lat="42.97254" lon="-0.30419">
        <ele>1459.8</ele>
        <time>2022-06-08 13:05:37</time>
      </trkpt>
      <trkpt lat="42.97248" lon="-0.30411">
        <ele>1459.6</ele>
        <time>2022-06-08 13:05:38</time>
      </trkpt>
      <trkpt lat="42.97242" lon="-0.30402">
        <ele>1459.4</ele>
        <time>2022-06-08 13:05:39</time>
      </trkpt>
      <trkpt lat="42.97237" lon="-0.30393">
        <ele>1459.2</ele>
        <time>2022-06-08 13:05:40</time>
      </trkpt>
      <trkpt lat="42.97232" lon="-0.30383">
        <ele>1458.6</ele>
        <time>2022-06-08 13:05:41</time>
      </trkpt>
      <trkpt lat="42.97226" lon="-0.30374">
        <ele>1458.4</ele>
        <time>2022-06-08 13:05:42</time>
      </trkpt>
      <trkpt lat="42.97222" lon="-0.30367">
        <ele>1457.8</ele>
        <time>2022-06-08 13:05:43</time>
      </trkpt>
      <trkpt lat="42.97214" lon="-0.30357">
        <ele>1457.6</ele>
        <time>2022-06-08 13:05:44</time>
      </trkpt>
      <trkpt lat="42.97207" lon="-0.30349">
        <ele>1457.2</ele>
        <time>2022-06-08 13:05:45</time>
      </trkpt>
      <trkpt lat="42.97201" lon="-0.30339">
        <ele>1457</ele>
        <time>2022-06-08 13:05:46</time>
      </trkpt>
      <trkpt lat="42.97196" lon="-0.30331">
        <ele>1456.8</ele>
        <time>2022-06-08 13:05:47</time>
      </trkpt>
      <trkpt lat="42.97189" lon="-0.30319">
        <ele>1456.6</ele>
        <time>2022-06-08 13:05:48</time>
      </trkpt>
      <trkpt lat="42.97182" lon="-0.30308">
        <ele>1456.4</ele>
        <time>2022-06-08 13:05:49</time>
      </trkpt>
      <trkpt lat="42.97175" lon="-0.30297">
        <ele>1456</ele>
        <time>2022-06-08 13:05:50</time>
      </trkpt>
      <trkpt lat="42.97169" lon="-0.30285">
        <ele>1455.6</ele>
        <time>2022-06-08 13:05:51</time>
      </trkpt>
      <trkpt lat="42.97163" lon="-0.30272">
        <ele>1455.4</ele>
        <time>2022-06-08 13:05:52</time>
      </trkpt>
      <trkpt lat="42.97158" lon="-0.30259">
        <ele>1454.6</ele>
        <time>2022-06-08 13:05:53</time>
      </trkpt>
      <trkpt lat="42.97151" lon="-0.30245">
        <ele>1454.2</ele>
        <time>2022-06-08 13:05:54</time>
      </trkpt>
      <trkpt lat="42.97144" lon="-0.30232">
        <ele>1453.2</ele>
        <time>2022-06-08 13:05:55</time>
      </trkpt>
      <trkpt lat="42.97137" lon="-0.30219">
        <ele>1451.8</ele>
        <time>2022-06-08 13:05:56</time>
      </trkpt>
      <trkpt lat="42.97129" lon="-0.30208">
        <ele>1451</ele>
        <time>2022-06-08 13:05:57</time>
      </trkpt>
      <trkpt lat="42.9712" lon="-0.30198">
        <ele>1449.6</ele>
        <time>2022-06-08 13:05:58</time>
      </trkpt>
      <trkpt lat="42.97111" lon="-0.3019">
        <ele>1449</ele>
        <time>2022-06-08 13:05:59</time>
      </trkpt>
      <trkpt lat="42.97101" lon="-0.30182">
        <ele>1447.4</ele>
        <time>2022-06-08 13:06:00</time>
      </trkpt>
      <trkpt lat="42.97092" lon="-0.30175">
        <ele>1447</ele>
        <time>2022-06-08 13:06:01</time>
      </trkpt>
      <trkpt lat="42.97083" lon="-0.30167">
        <ele>1446</ele>
        <time>2022-06-08 13:06:02</time>
      </trkpt>
      <trkpt lat="42.97074" lon="-0.30159">
        <ele>1445.6</ele>
        <time>2022-06-08 13:06:03</time>
      </trkpt>
      <trkpt lat="42.97068" lon="-0.30153">
        <ele>1445</ele>
        <time>2022-06-08 13:06:04</time>
      </trkpt>
      <trkpt lat="42.97057" lon="-0.30144">
        <ele>1444.8</ele>
        <time>2022-06-08 13:06:05</time>
      </trkpt>
      <trkpt lat="42.97049" lon="-0.30137">
        <ele>1444.6</ele>
        <time>2022-06-08 13:06:06</time>
      </trkpt>
      <trkpt lat="42.97042" lon="-0.30129">
        <ele>1444.4</ele>
        <time>2022-06-08 13:06:07</time>
      </trkpt>
      <trkpt lat="42.97035" lon="-0.30122">
        <ele>1444.2</ele>
        <time>2022-06-08 13:06:08</time>
      </trkpt>
      <trkpt lat="42.97029" lon="-0.30113">
        <ele>1444.2</ele>
        <time>2022-06-08 13:06:09</time>
      </trkpt>
      <trkpt lat="42.97024" lon="-0.30103">
        <ele>1444</ele>
        <time>2022-06-08 13:06:10</time>
      </trkpt>
      <trkpt lat="42.97021" lon="-0.30093">
        <ele>1444</ele>
        <time>2022-06-08 13:06:11</time>
      </trkpt>
      <trkpt lat="42.97018" lon="-0.30081">
        <ele>1443.4</ele>
        <time>2022-06-08 13:06:12</time>
      </trkpt>
      <trkpt lat="42.97014" lon="-0.30071">
        <ele>1443</ele>
        <time>2022-06-08 13:06:13</time>
      </trkpt>
      <trkpt lat="42.97012" lon="-0.30063">
        <ele>1442.8</ele>
        <time>2022-06-08 13:06:14</time>
      </trkpt>
      <trkpt lat="42.97006" lon="-0.30054">
        <ele>1442.4</ele>
        <time>2022-06-08 13:06:15</time>
      </trkpt>
      <trkpt lat="42.96999" lon="-0.3005">
        <ele>1442</ele>
        <time>2022-06-08 13:06:16</time>
      </trkpt>
      <trkpt lat="42.96992" lon="-0.3005">
        <ele>1441.4</ele>
        <time>2022-06-08 13:06:17</time>
      </trkpt>
      <trkpt lat="42.96986" lon="-0.30053">
        <ele>1441.2</ele>
        <time>2022-06-08 13:06:18</time>
      </trkpt>
      <trkpt lat="42.96979" lon="-0.30058">
        <ele>1440.2</ele>
        <time>2022-06-08 13:06:19</time>
      </trkpt>
      <trkpt lat="42.96972" lon="-0.30064">
        <ele>1439.8</ele>
        <time>2022-06-08 13:06:20</time>
      </trkpt>
      <trkpt lat="42.96964" lon="-0.30071">
        <ele>1439.4</ele>
        <time>2022-06-08 13:06:21</time>
      </trkpt>
      <trkpt lat="42.96956" lon="-0.30077">
        <ele>1439.2</ele>
        <time>2022-06-08 13:06:22</time>
      </trkpt>
      <trkpt lat="42.96949" lon="-0.30083">
        <ele>1438.6</ele>
        <time>2022-06-08 13:06:23</time>
      </trkpt>
      <trkpt lat="42.96941" lon="-0.30089">
        <ele>1438</ele>
        <time>2022-06-08 13:06:24</time>
      </trkpt>
      <trkpt lat="42.96933" lon="-0.30094">
        <ele>1437</ele>
        <time>2022-06-08 13:06:25</time>
      </trkpt>
      <trkpt lat="42.96925" lon="-0.301">
        <ele>1436.4</ele>
        <time>2022-06-08 13:06:26</time>
      </trkpt>
      <trkpt lat="42.96918" lon="-0.30106">
        <ele>1435.4</ele>
        <time>2022-06-08 13:06:27</time>
      </trkpt>
      <trkpt lat="42.96911" lon="-0.30112">
        <ele>1435</ele>
        <time>2022-06-08 13:06:28</time>
      </trkpt>
      <trkpt lat="42.96903" lon="-0.30118">
        <ele>1434.8</ele>
        <time>2022-06-08 13:06:29</time>
      </trkpt>
      <trkpt lat="42.96896" lon="-0.30123">
        <ele>1434.4</ele>
        <time>2022-06-08 13:06:30</time>
      </trkpt>
      <trkpt lat="42.96888" lon="-0.30129">
        <ele>1434.2</ele>
        <time>2022-06-08 13:06:31</time>
      </trkpt>
      <trkpt lat="42.96881" lon="-0.30136">
        <ele>1434</ele>
        <time>2022-06-08 13:06:32</time>
      </trkpt>
      <trkpt lat="42.96874" lon="-0.30143">
        <ele>1433.8</ele>
        <time>2022-06-08 13:06:33</time>
      </trkpt>
      <trkpt lat="42.96868" lon="-0.3015">
        <ele>1433.6</ele>
        <time>2022-06-08 13:06:34</time>
      </trkpt>
      <trkpt lat="42.96861" lon="-0.30158">
        <ele>1433.6</ele>
        <time>2022-06-08 13:06:35</time>
      </trkpt>
      <trkpt lat="42.96856" lon="-0.30167">
        <ele>1433.2</ele>
        <time>2022-06-08 13:06:36</time>
      </trkpt>
      <trkpt lat="42.96852" lon="-0.30176">
        <ele>1433.2</ele>
        <time>2022-06-08 13:06:37</time>
      </trkpt>
      <trkpt lat="42.96848" lon="-0.30185">
        <ele>1433</ele>
        <time>2022-06-08 13:06:38</time>
      </trkpt>
      <trkpt lat="42.96842" lon="-0.30194">
        <ele>1433</ele>
        <time>2022-06-08 13:06:39</time>
      </trkpt>
      <trkpt lat="42.96836" lon="-0.30201">
        <ele>1433</ele>
        <time>2022-06-08 13:06:40</time>
      </trkpt>
      <trkpt lat="42.96829" lon="-0.30206">
        <ele>1433</ele>
        <time>2022-06-08 13:06:41</time>
      </trkpt>
      <trkpt lat="42.96819" lon="-0.30207">
        <ele>1432.8</ele>
        <time>2022-06-08 13:06:42</time>
      </trkpt>
      <trkpt lat="42.9681" lon="-0.30205">
        <ele>1432.6</ele>
        <time>2022-06-08 13:06:43</time>
      </trkpt>
      <trkpt lat="42.968" lon="-0.30203">
        <ele>1432.4</ele>
        <time>2022-06-08 13:06:44</time>
      </trkpt>
      <trkpt lat="42.9679" lon="-0.30203">
        <ele>1432.4</ele>
        <time>2022-06-08 13:06:45</time>
      </trkpt>
      <trkpt lat="42.96781" lon="-0.30205">
        <ele>1432</ele>
        <time>2022-06-08 13:06:46</time>
      </trkpt>
      <trkpt lat="42.96772" lon="-0.30208">
        <ele>1431.4</ele>
        <time>2022-06-08 13:06:47</time>
      </trkpt>
      <trkpt lat="42.96764" lon="-0.30214">
        <ele>1431</ele>
        <time>2022-06-08 13:06:48</time>
      </trkpt>
      <trkpt lat="42.96756" lon="-0.30221">
        <ele>1430.4</ele>
        <time>2022-06-08 13:06:49</time>
      </trkpt>
      <trkpt lat="42.96748" lon="-0.30229">
        <ele>1430</ele>
        <time>2022-06-08 13:06:50</time>
      </trkpt>
      <trkpt lat="42.9674" lon="-0.30238">
        <ele>1429.8</ele>
        <time>2022-06-08 13:06:51</time>
      </trkpt>
      <trkpt lat="42.96732" lon="-0.30246">
        <ele>1429.8</ele>
        <time>2022-06-08 13:06:52</time>
      </trkpt>
      <trkpt lat="42.96725" lon="-0.30254">
        <ele>1429</ele>
        <time>2022-06-08 13:06:53</time>
      </trkpt>
      <trkpt lat="42.96717" lon="-0.30262">
        <ele>1428.6</ele>
        <time>2022-06-08 13:06:54</time>
      </trkpt>
      <trkpt lat="42.9671" lon="-0.30268">
        <ele>1428.2</ele>
        <time>2022-06-08 13:06:55</time>
      </trkpt>
      <trkpt lat="42.96702" lon="-0.30274">
        <ele>1428</ele>
        <time>2022-06-08 13:06:56</time>
      </trkpt>
      <trkpt lat="42.96694" lon="-0.30278">
        <ele>1427.8</ele>
        <time>2022-06-08 13:06:57</time>
      </trkpt>
      <trkpt lat="42.96686" lon="-0.30281">
        <ele>1427.4</ele>
        <time>2022-06-08 13:06:58</time>
      </trkpt>
      <trkpt lat="42.96679" lon="-0.30283">
        <ele>1427.4</ele>
        <time>2022-06-08 13:06:59</time>
      </trkpt>
      <trkpt lat="42.96672" lon="-0.30283">
        <ele>1427.6</ele>
        <time>2022-06-08 13:07:00</time>
      </trkpt>
      <trkpt lat="42.96665" lon="-0.30282">
        <ele>1427.6</ele>
        <time>2022-06-08 13:07:01</time>
      </trkpt>
      <trkpt lat="42.96659" lon="-0.30279">
        <ele>1427.6</ele>
        <time>2022-06-08 13:07:02</time>
      </trkpt>
      <trkpt lat="42.96653" lon="-0.30276">
        <ele>1427.4</ele>
        <time>2022-06-08 13:07:03</time>
      </trkpt>
      <trkpt lat="42.96647" lon="-0.30271">
        <ele>1427.4</ele>
        <time>2022-06-08 13:07:04</time>
      </trkpt>
      <trkpt lat="42.96642" lon="-0.30265">
        <ele>1427.4</ele>
        <time>2022-06-08 13:07:05</time>
      </trkpt>
      <trkpt lat="42.96638" lon="-0.30258">
        <ele>1427.4</ele>
        <time>2022-06-08 13:07:06</time>
      </trkpt>
      <trkpt lat="42.96635" lon="-0.3025">
        <ele>1427.4</ele>
        <time>2022-06-08 13:07:07</time>
      </trkpt>
      <trkpt lat="42.96631" lon="-0.30241">
        <ele>1427.4</ele>
        <time>2022-06-08 13:07:08</time>
      </trkpt>
      <trkpt lat="42.96627" lon="-0.30233">
        <ele>1427.2</ele>
        <time>2022-06-08 13:07:09</time>
      </trkpt>
      <trkpt lat="42.96623" lon="-0.30225">
        <ele>1427</ele>
        <time>2022-06-08 13:07:10</time>
      </trkpt>
      <trkpt lat="42.96619" lon="-0.30217">
        <ele>1426.8</ele>
        <time>2022-06-08 13:07:11</time>
      </trkpt>
      <trkpt lat="42.96615" lon="-0.30209">
        <ele>1426.6</ele>
        <time>2022-06-08 13:07:12</time>
      </trkpt>
      <trkpt lat="42.9661" lon="-0.30202">
        <ele>1426.2</ele>
        <time>2022-06-08 13:07:13</time>
      </trkpt>
      <trkpt lat="42.96604" lon="-0.30196">
        <ele>1426.2</ele>
        <time>2022-06-08 13:07:14</time>
      </trkpt>
      <trkpt lat="42.96598" lon="-0.30193">
        <ele>1426</ele>
        <time>2022-06-08 13:07:15</time>
      </trkpt>
      <trkpt lat="42.96591" lon="-0.30193">
        <ele>1425.8</ele>
        <time>2022-06-08 13:07:16</time>
      </trkpt>
      <trkpt lat="42.96584" lon="-0.30194">
        <ele>1425.4</ele>
        <time>2022-06-08 13:07:17</time>
      </trkpt>
      <trkpt lat="42.96577" lon="-0.30198">
        <ele>1425.2</ele>
        <time>2022-06-08 13:07:18</time>
      </trkpt>
      <trkpt lat="42.96571" lon="-0.30202">
        <ele>1424.8</ele>
        <time>2022-06-08 13:07:19</time>
      </trkpt>
      <trkpt lat="42.96564" lon="-0.30206">
        <ele>1424.8</ele>
        <time>2022-06-08 13:07:20</time>
      </trkpt>
      <trkpt lat="42.96558" lon="-0.3021">
        <ele>1424.4</ele>
        <time>2022-06-08 13:07:21</time>
      </trkpt>
      <trkpt lat="42.96552" lon="-0.30214">
        <ele>1424.4</ele>
        <time>2022-06-08 13:07:22</time>
      </trkpt>
      <trkpt lat="42.96544" lon="-0.30218">
        <ele>1423.8</ele>
        <time>2022-06-08 13:07:23</time>
      </trkpt>
      <trkpt lat="42.96538" lon="-0.30221">
        <ele>1423.6</ele>
        <time>2022-06-08 13:07:24</time>
      </trkpt>
      <trkpt lat="42.96532" lon="-0.30225">
        <ele>1423.2</ele>
        <time>2022-06-08 13:07:25</time>
      </trkpt>
      <trkpt lat="42.96523" lon="-0.30232">
        <ele>1423</ele>
        <time>2022-06-08 13:07:26</time>
      </trkpt>
      <trkpt lat="42.96515" lon="-0.30238">
        <ele>1422.4</ele>
        <time>2022-06-08 13:07:27</time>
      </trkpt>
      <trkpt lat="42.96507" lon="-0.30244">
        <ele>1421.6</ele>
        <time>2022-06-08 13:07:28</time>
      </trkpt>
      <trkpt lat="42.96498" lon="-0.30251">
        <ele>1421.2</ele>
        <time>2022-06-08 13:07:29</time>
      </trkpt>
      <trkpt lat="42.96489" lon="-0.30258">
        <ele>1420.2</ele>
        <time>2022-06-08 13:07:30</time>
      </trkpt>
      <trkpt lat="42.9648" lon="-0.30265">
        <ele>1420</ele>
        <time>2022-06-08 13:07:31</time>
      </trkpt>
      <trkpt lat="42.96471" lon="-0.30273">
        <ele>1419</ele>
        <time>2022-06-08 13:07:32</time>
      </trkpt>
      <trkpt lat="42.96462" lon="-0.30281">
        <ele>1418.2</ele>
        <time>2022-06-08 13:07:33</time>
      </trkpt>
      <trkpt lat="42.96453" lon="-0.30289">
        <ele>1416.8</ele>
        <time>2022-06-08 13:07:34</time>
      </trkpt>
      <trkpt lat="42.96443" lon="-0.30296">
        <ele>1416.4</ele>
        <time>2022-06-08 13:07:35</time>
      </trkpt>
      <trkpt lat="42.96435" lon="-0.30305">
        <ele>1415.2</ele>
        <time>2022-06-08 13:07:36</time>
      </trkpt>
      <trkpt lat="42.96428" lon="-0.30314">
        <ele>1414.6</ele>
        <time>2022-06-08 13:07:37</time>
      </trkpt>
      <trkpt lat="42.96418" lon="-0.30324">
        <ele>1413.2</ele>
        <time>2022-06-08 13:07:38</time>
      </trkpt>
      <trkpt lat="42.96411" lon="-0.30327">
        <ele>1412.8</ele>
        <time>2022-06-08 13:07:39</time>
      </trkpt>
      <trkpt lat="42.96401" lon="-0.3033">
        <ele>1412</ele>
        <time>2022-06-08 13:07:40</time>
      </trkpt>
      <trkpt lat="42.96392" lon="-0.30331">
        <ele>1411.8</ele>
        <time>2022-06-08 13:07:41</time>
      </trkpt>
      <trkpt lat="42.96385" lon="-0.30332">
        <ele>1411.6</ele>
        <time>2022-06-08 13:07:42</time>
      </trkpt>
      <trkpt lat="42.96378" lon="-0.30332">
        <ele>1411.2</ele>
        <time>2022-06-08 13:07:43</time>
      </trkpt>
      <trkpt lat="42.96372" lon="-0.3033">
        <ele>1411</ele>
        <time>2022-06-08 13:07:44</time>
      </trkpt>
      <trkpt lat="42.96368" lon="-0.30324">
        <ele>1410.8</ele>
        <time>2022-06-08 13:07:45</time>
      </trkpt>
      <trkpt lat="42.96365" lon="-0.30317">
        <ele>1410.8</ele>
        <time>2022-06-08 13:07:46</time>
      </trkpt>
      <trkpt lat="42.96363" lon="-0.30309">
        <ele>1410.6</ele>
        <time>2022-06-08 13:07:47</time>
      </trkpt>
      <trkpt lat="42.96361" lon="-0.30301">
        <ele>1410.4</ele>
        <time>2022-06-08 13:07:48</time>
      </trkpt>
      <trkpt lat="42.96358" lon="-0.30293">
        <ele>1410.4</ele>
        <time>2022-06-08 13:07:49</time>
      </trkpt>
      <trkpt lat="42.96356" lon="-0.30283">
        <ele>1410.2</ele>
        <time>2022-06-08 13:07:50</time>
      </trkpt>
      <trkpt lat="42.96354" lon="-0.30277">
        <ele>1410.2</ele>
        <time>2022-06-08 13:07:51</time>
      </trkpt>
      <trkpt lat="42.96352" lon="-0.30269">
        <ele>1410.2</ele>
        <time>2022-06-08 13:07:52</time>
      </trkpt>
      <trkpt lat="42.96351" lon="-0.30261">
        <ele>1410.2</ele>
        <time>2022-06-08 13:07:53</time>
      </trkpt>
      <trkpt lat="42.96349" lon="-0.30254">
        <ele>1409.8</ele>
        <time>2022-06-08 13:07:54</time>
      </trkpt>
      <trkpt lat="42.96347" lon="-0.30246">
        <ele>1409.6</ele>
        <time>2022-06-08 13:07:55</time>
      </trkpt>
      <trkpt lat="42.96346" lon="-0.30239">
        <ele>1409.6</ele>
        <time>2022-06-08 13:07:56</time>
      </trkpt>
      <trkpt lat="42.96344" lon="-0.30232">
        <ele>1409.6</ele>
        <time>2022-06-08 13:07:57</time>
      </trkpt>
      <trkpt lat="42.96342" lon="-0.30225">
        <ele>1409.4</ele>
        <time>2022-06-08 13:07:58</time>
      </trkpt>
      <trkpt lat="42.9634" lon="-0.30218">
        <ele>1409.4</ele>
        <time>2022-06-08 13:07:59</time>
      </trkpt>
      <trkpt lat="42.96338" lon="-0.30211">
        <ele>1409.2</ele>
        <time>2022-06-08 13:08:00</time>
      </trkpt>
      <trkpt lat="42.96336" lon="-0.30204">
        <ele>1409</ele>
        <time>2022-06-08 13:08:01</time>
      </trkpt>
      <trkpt lat="42.96334" lon="-0.30197">
        <ele>1408.8</ele>
        <time>2022-06-08 13:08:02</time>
      </trkpt>
      <trkpt lat="42.96333" lon="-0.30189">
        <ele>1408.8</ele>
        <time>2022-06-08 13:08:03</time>
      </trkpt>
      <trkpt lat="42.96331" lon="-0.30181">
        <ele>1408.6</ele>
        <time>2022-06-08 13:08:04</time>
      </trkpt>
      <trkpt lat="42.9633" lon="-0.30173">
        <ele>1408.6</ele>
        <time>2022-06-08 13:08:05</time>
      </trkpt>
      <trkpt lat="42.96327" lon="-0.30164">
        <ele>1408.4</ele>
        <time>2022-06-08 13:08:06</time>
      </trkpt>
      <trkpt lat="42.96326" lon="-0.30158">
        <ele>1408.4</ele>
        <time>2022-06-08 13:08:07</time>
      </trkpt>
      <trkpt lat="42.96323" lon="-0.30152">
        <ele>1408</ele>
        <time>2022-06-08 13:08:08</time>
      </trkpt>
      <trkpt lat="42.96321" lon="-0.30145">
        <ele>1408</ele>
        <time>2022-06-08 13:08:09</time>
      </trkpt>
      <trkpt lat="42.96319" lon="-0.30138">
        <ele>1407.8</ele>
        <time>2022-06-08 13:08:10</time>
      </trkpt>
      <trkpt lat="42.96316" lon="-0.30131">
        <ele>1407.8</ele>
        <time>2022-06-08 13:08:11</time>
      </trkpt>
      <trkpt lat="42.96314" lon="-0.30125">
        <ele>1407.8</ele>
        <time>2022-06-08 13:08:12</time>
      </trkpt>
      <trkpt lat="42.96311" lon="-0.30118">
        <ele>1407.6</ele>
        <time>2022-06-08 13:08:13</time>
      </trkpt>
      <trkpt lat="42.96309" lon="-0.30112">
        <ele>1407.4</ele>
        <time>2022-06-08 13:08:14</time>
      </trkpt>
      <trkpt lat="42.96307" lon="-0.30106">
        <ele>1407.2</ele>
        <time>2022-06-08 13:08:15</time>
      </trkpt>
      <trkpt lat="42.96305" lon="-0.30101">
        <ele>1407</ele>
        <time>2022-06-08 13:08:16</time>
      </trkpt>
      <trkpt lat="42.96303" lon="-0.30097">
        <ele>1406.8</ele>
        <time>2022-06-08 13:08:17</time>
      </trkpt>
      <trkpt lat="42.96302" lon="-0.30092">
        <ele>1406.8</ele>
        <time>2022-06-08 13:08:18</time>
      </trkpt>
      <trkpt lat="42.96301" lon="-0.30088">
        <ele>1406.6</ele>
        <time>2022-06-08 13:08:19</time>
      </trkpt>
      <trkpt lat="42.96299" lon="-0.30084">
        <ele>1406.6</ele>
        <time>2022-06-08 13:08:20</time>
      </trkpt>
      <trkpt lat="42.96299" lon="-0.3008">
        <ele>1406.4</ele>
        <time>2022-06-08 13:08:21</time>
      </trkpt>
      <trkpt lat="42.96298" lon="-0.30076">
        <ele>1406.4</ele>
        <time>2022-06-08 13:08:22</time>
      </trkpt>
      <trkpt lat="42.96298" lon="-0.30073">
        <ele>1406.4</ele>
        <time>2022-06-08 13:08:23</time>
      </trkpt>
      <trkpt lat="42.96298" lon="-0.3007">
        <ele>1406.2</ele>
        <time>2022-06-08 13:08:24</time>
      </trkpt>
      <trkpt lat="42.96298" lon="-0.30068">
        <ele>1406</ele>
        <time>2022-06-08 13:08:25</time>
      </trkpt>
      <trkpt lat="42.96298" lon="-0.30067">
        <ele>1406</ele>
        <time>2022-06-08 13:08:26</time>
      </trkpt>
      <trkpt lat="42.96298" lon="-0.30067">
        <ele>1405.8</ele>
        <time>2022-06-08 13:08:27</time>
      </trkpt>
      <trkpt lat="42.96295" lon="-0.30061">
        <ele>1405</ele>
        <time>2022-06-08 13:11:27</time>
      </trkpt>
      <trkpt lat="42.96293" lon="-0.30058">
        <ele>1405</ele>
        <time>2022-06-08 13:11:28</time>
      </trkpt>
      <trkpt lat="42.96291" lon="-0.30055">
        <ele>1405</ele>
        <time>2022-06-08 13:11:29</time>
      </trkpt>
      <trkpt lat="42.96287" lon="-0.3005">
        <ele>1405</ele>
        <time>2022-06-08 13:11:30</time>
      </trkpt>
      <trkpt lat="42.96283" lon="-0.30045">
        <ele>1405</ele>
        <time>2022-06-08 13:11:31</time>
      </trkpt>
      <trkpt lat="42.9628" lon="-0.30039">
        <ele>1405</ele>
        <time>2022-06-08 13:11:32</time>
      </trkpt>
      <trkpt lat="42.96278" lon="-0.30033">
        <ele>1405</ele>
        <time>2022-06-08 13:11:33</time>
      </trkpt>
      <trkpt lat="42.96275" lon="-0.30027">
        <ele>1404.8</ele>
        <time>2022-06-08 13:11:34</time>
      </trkpt>
      <trkpt lat="42.96273" lon="-0.3002">
        <ele>1404.8</ele>
        <time>2022-06-08 13:11:35</time>
      </trkpt>
      <trkpt lat="42.9627" lon="-0.30011">
        <ele>1404.6</ele>
        <time>2022-06-08 13:11:36</time>
      </trkpt>
      <trkpt lat="42.96269" lon="-0.30004">
        <ele>1404.6</ele>
        <time>2022-06-08 13:11:37</time>
      </trkpt>
      <trkpt lat="42.96268" lon="-0.29996">
        <ele>1404.4</ele>
        <time>2022-06-08 13:11:38</time>
      </trkpt>
      <trkpt lat="42.96267" lon="-0.29988">
        <ele>1404.4</ele>
        <time>2022-06-08 13:11:39</time>
      </trkpt>
      <trkpt lat="42.96265" lon="-0.2998">
        <ele>1404</ele>
        <time>2022-06-08 13:11:40</time>
      </trkpt>
      <trkpt lat="42.96263" lon="-0.29971">
        <ele>1404</ele>
        <time>2022-06-08 13:11:41</time>
      </trkpt>
      <trkpt lat="42.96261" lon="-0.29963">
        <ele>1403.6</ele>
        <time>2022-06-08 13:11:42</time>
      </trkpt>
      <trkpt lat="42.96259" lon="-0.29955">
        <ele>1403.4</ele>
        <time>2022-06-08 13:11:43</time>
      </trkpt>
      <trkpt lat="42.96256" lon="-0.29948">
        <ele>1403.2</ele>
        <time>2022-06-08 13:11:44</time>
      </trkpt>
      <trkpt lat="42.96252" lon="-0.29941">
        <ele>1403</ele>
        <time>2022-06-08 13:11:45</time>
      </trkpt>
      <trkpt lat="42.96247" lon="-0.29934">
        <ele>1403</ele>
        <time>2022-06-08 13:11:46</time>
      </trkpt>
      <trkpt lat="42.96243" lon="-0.29927">
        <ele>1403</ele>
        <time>2022-06-08 13:11:47</time>
      </trkpt>
      <trkpt lat="42.9624" lon="-0.29919">
        <ele>1402.8</ele>
        <time>2022-06-08 13:11:48</time>
      </trkpt>
      <trkpt lat="42.96236" lon="-0.29912">
        <ele>1402.8</ele>
        <time>2022-06-08 13:11:49</time>
      </trkpt>
      <trkpt lat="42.96232" lon="-0.29905">
        <ele>1402.8</ele>
        <time>2022-06-08 13:11:50</time>
      </trkpt>
      <trkpt lat="42.96228" lon="-0.29898">
        <ele>1402.8</ele>
        <time>2022-06-08 13:11:51</time>
      </trkpt>
      <trkpt lat="42.96224" lon="-0.29891">
        <ele>1402.8</ele>
        <time>2022-06-08 13:11:52</time>
      </trkpt>
      <trkpt lat="42.96219" lon="-0.29884">
        <ele>1402.6</ele>
        <time>2022-06-08 13:11:53</time>
      </trkpt>
      <trkpt lat="42.96214" lon="-0.29877">
        <ele>1402.4</ele>
        <time>2022-06-08 13:11:54</time>
      </trkpt>
      <trkpt lat="42.9621" lon="-0.2987">
        <ele>1402.2</ele>
        <time>2022-06-08 13:11:55</time>
      </trkpt>
      <trkpt lat="42.96206" lon="-0.29863">
        <ele>1402.2</ele>
        <time>2022-06-08 13:11:56</time>
      </trkpt>
      <trkpt lat="42.96202" lon="-0.29855">
        <ele>1402.2</ele>
        <time>2022-06-08 13:11:57</time>
      </trkpt>
      <trkpt lat="42.96199" lon="-0.29849">
        <ele>1402</ele>
        <time>2022-06-08 13:11:58</time>
      </trkpt>
      <trkpt lat="42.96194" lon="-0.2984">
        <ele>1402</ele>
        <time>2022-06-08 13:11:59</time>
      </trkpt>
      <trkpt lat="42.9619" lon="-0.29832">
        <ele>1401.8</ele>
        <time>2022-06-08 13:12:00</time>
      </trkpt>
      <trkpt lat="42.96186" lon="-0.29824">
        <ele>1401.8</ele>
        <time>2022-06-08 13:12:01</time>
      </trkpt>
      <trkpt lat="42.96182" lon="-0.29816">
        <ele>1401.6</ele>
        <time>2022-06-08 13:12:02</time>
      </trkpt>
      <trkpt lat="42.96178" lon="-0.29808">
        <ele>1401.6</ele>
        <time>2022-06-08 13:12:03</time>
      </trkpt>
      <trkpt lat="42.96173" lon="-0.29801">
        <ele>1401.4</ele>
        <time>2022-06-08 13:12:04</time>
      </trkpt>
      <trkpt lat="42.96168" lon="-0.29795">
        <ele>1401</ele>
        <time>2022-06-08 13:12:05</time>
      </trkpt>
      <trkpt lat="42.96162" lon="-0.29791">
        <ele>1400.8</ele>
        <time>2022-06-08 13:12:06</time>
      </trkpt>
      <trkpt lat="42.96155" lon="-0.29787">
        <ele>1400.6</ele>
        <time>2022-06-08 13:12:07</time>
      </trkpt>
      <trkpt lat="42.96149" lon="-0.29784">
        <ele>1400.4</ele>
        <time>2022-06-08 13:12:08</time>
      </trkpt>
      <trkpt lat="42.96142" lon="-0.2978">
        <ele>1400.2</ele>
        <time>2022-06-08 13:12:09</time>
      </trkpt>
      <trkpt lat="42.96136" lon="-0.29775">
        <ele>1400</ele>
        <time>2022-06-08 13:12:10</time>
      </trkpt>
      <trkpt lat="42.9613" lon="-0.2977">
        <ele>1399.6</ele>
        <time>2022-06-08 13:12:11</time>
      </trkpt>
      <trkpt lat="42.96123" lon="-0.29765">
        <ele>1399.6</ele>
        <time>2022-06-08 13:12:12</time>
      </trkpt>
      <trkpt lat="42.96117" lon="-0.2976">
        <ele>1399.4</ele>
        <time>2022-06-08 13:12:13</time>
      </trkpt>
      <trkpt lat="42.96111" lon="-0.29754">
        <ele>1399.2</ele>
        <time>2022-06-08 13:12:14</time>
      </trkpt>
      <trkpt lat="42.96105" lon="-0.29748">
        <ele>1399</ele>
        <time>2022-06-08 13:12:15</time>
      </trkpt>
      <trkpt lat="42.96099" lon="-0.29741">
        <ele>1399</ele>
        <time>2022-06-08 13:12:16</time>
      </trkpt>
      <trkpt lat="42.96094" lon="-0.29733">
        <ele>1398.8</ele>
        <time>2022-06-08 13:12:17</time>
      </trkpt>
      <trkpt lat="42.96089" lon="-0.29726">
        <ele>1398.6</ele>
        <time>2022-06-08 13:12:18</time>
      </trkpt>
      <trkpt lat="42.96085" lon="-0.29717">
        <ele>1398.6</ele>
        <time>2022-06-08 13:12:19</time>
      </trkpt>
      <trkpt lat="42.96081" lon="-0.29708">
        <ele>1398.4</ele>
        <time>2022-06-08 13:12:20</time>
      </trkpt>
      <trkpt lat="42.96077" lon="-0.29699">
        <ele>1398.4</ele>
        <time>2022-06-08 13:12:21</time>
      </trkpt>
      <trkpt lat="42.96073" lon="-0.29689">
        <ele>1398</ele>
        <time>2022-06-08 13:12:22</time>
      </trkpt>
      <trkpt lat="42.9607" lon="-0.2968">
        <ele>1397.8</ele>
        <time>2022-06-08 13:12:23</time>
      </trkpt>
      <trkpt lat="42.96066" lon="-0.2967">
        <ele>1397.6</ele>
        <time>2022-06-08 13:12:24</time>
      </trkpt>
      <trkpt lat="42.96062" lon="-0.2966">
        <ele>1397.6</ele>
        <time>2022-06-08 13:12:25</time>
      </trkpt>
      <trkpt lat="42.96059" lon="-0.29651">
        <ele>1397.4</ele>
        <time>2022-06-08 13:12:26</time>
      </trkpt>
      <trkpt lat="42.96055" lon="-0.29641">
        <ele>1397.4</ele>
        <time>2022-06-08 13:12:27</time>
      </trkpt>
      <trkpt lat="42.9605" lon="-0.29632">
        <ele>1397.2</ele>
        <time>2022-06-08 13:12:28</time>
      </trkpt>
      <trkpt lat="42.96046" lon="-0.29622">
        <ele>1397</ele>
        <time>2022-06-08 13:12:29</time>
      </trkpt>
      <trkpt lat="42.96041" lon="-0.29614">
        <ele>1396.6</ele>
        <time>2022-06-08 13:12:30</time>
      </trkpt>
      <trkpt lat="42.96036" lon="-0.29606">
        <ele>1396.2</ele>
        <time>2022-06-08 13:12:31</time>
      </trkpt>
      <trkpt lat="42.96031" lon="-0.29598">
        <ele>1396.4</ele>
        <time>2022-06-08 13:12:32</time>
      </trkpt>
      <trkpt lat="42.96025" lon="-0.2959">
        <ele>1396</ele>
        <time>2022-06-08 13:12:33</time>
      </trkpt>
      <trkpt lat="42.96019" lon="-0.29584">
        <ele>1396</ele>
        <time>2022-06-08 13:12:34</time>
      </trkpt>
      <trkpt lat="42.96011" lon="-0.29579">
        <ele>1395.6</ele>
        <time>2022-06-08 13:12:35</time>
      </trkpt>
      <trkpt lat="42.96006" lon="-0.29577">
        <ele>1395.6</ele>
        <time>2022-06-08 13:12:36</time>
      </trkpt>
      <trkpt lat="42.95924" lon="-0.29436">
        <ele>1392.6</ele>
        <time>2022-06-08 13:12:37</time>
      </trkpt>
      <trkpt lat="42.95927" lon="-0.29436">
        <ele>1392.2</ele>
        <time>2022-06-08 13:12:38</time>
      </trkpt>
      <trkpt lat="42.95923" lon="-0.29429">
        <ele>1391.8</ele>
        <time>2022-06-08 13:12:39</time>
      </trkpt>
      <trkpt lat="42.95918" lon="-0.29426">
        <ele>1391.6</ele>
        <time>2022-06-08 13:12:40</time>
      </trkpt>
      <trkpt lat="42.95914" lon="-0.29419">
        <ele>1391.6</ele>
        <time>2022-06-08 13:12:41</time>
      </trkpt>
      <trkpt lat="42.95908" lon="-0.29412">
        <ele>1391.4</ele>
        <time>2022-06-08 13:12:42</time>
      </trkpt>
      <trkpt lat="42.95905" lon="-0.29407">
        <ele>1391</ele>
        <time>2022-06-08 13:12:43</time>
      </trkpt>
      <trkpt lat="42.959" lon="-0.294">
        <ele>1391</ele>
        <time>2022-06-08 13:12:44</time>
      </trkpt>
      <trkpt lat="42.95896" lon="-0.29393">
        <ele>1390.8</ele>
        <time>2022-06-08 13:12:45</time>
      </trkpt>
      <trkpt lat="42.95893" lon="-0.2939">
        <ele>1390.6</ele>
        <time>2022-06-08 13:12:46</time>
      </trkpt>
      <trkpt lat="42.95889" lon="-0.29385">
        <ele>1390.4</ele>
        <time>2022-06-08 13:12:47</time>
      </trkpt>
      <trkpt lat="42.95886" lon="-0.2938">
        <ele>1390.2</ele>
        <time>2022-06-08 13:12:48</time>
      </trkpt>
      <trkpt lat="42.95881" lon="-0.29374">
        <ele>1390</ele>
        <time>2022-06-08 13:12:49</time>
      </trkpt>
      <trkpt lat="42.95878" lon="-0.29369">
        <ele>1389.8</ele>
        <time>2022-06-08 13:12:50</time>
      </trkpt>
      <trkpt lat="42.95875" lon="-0.29364">
        <ele>1389.6</ele>
        <time>2022-06-08 13:12:51</time>
      </trkpt>
      <trkpt lat="42.95873" lon="-0.29358">
        <ele>1389.4</ele>
        <time>2022-06-08 13:12:52</time>
      </trkpt>
      <trkpt lat="42.9587" lon="-0.29352">
        <ele>1389.2</ele>
        <time>2022-06-08 13:12:53</time>
      </trkpt>
      <trkpt lat="42.95867" lon="-0.29345">
        <ele>1389</ele>
        <time>2022-06-08 13:12:54</time>
      </trkpt>
      <trkpt lat="42.95864" lon="-0.2934">
        <ele>1388.8</ele>
        <time>2022-06-08 13:12:55</time>
      </trkpt>
      <trkpt lat="42.9586" lon="-0.29334">
        <ele>1388.6</ele>
        <time>2022-06-08 13:12:56</time>
      </trkpt>
      <trkpt lat="42.95857" lon="-0.29329">
        <ele>1388.6</ele>
        <time>2022-06-08 13:12:57</time>
      </trkpt>
      <trkpt lat="42.95853" lon="-0.29324">
        <ele>1388.4</ele>
        <time>2022-06-08 13:12:58</time>
      </trkpt>
      <trkpt lat="42.95849" lon="-0.2932">
        <ele>1388.4</ele>
        <time>2022-06-08 13:12:59</time>
      </trkpt>
      <trkpt lat="42.95845" lon="-0.29317">
        <ele>1388.4</ele>
        <time>2022-06-08 13:13:00</time>
      </trkpt>
      <trkpt lat="42.95841" lon="-0.29313">
        <ele>1388.4</ele>
        <time>2022-06-08 13:13:01</time>
      </trkpt>
      <trkpt lat="42.95837" lon="-0.29308">
        <ele>1388.4</ele>
        <time>2022-06-08 13:13:02</time>
      </trkpt>
      <trkpt lat="42.95833" lon="-0.29303">
        <ele>1388.4</ele>
        <time>2022-06-08 13:13:03</time>
      </trkpt>
      <trkpt lat="42.95831" lon="-0.29297">
        <ele>1388.4</ele>
        <time>2022-06-08 13:13:04</time>
      </trkpt>
      <trkpt lat="42.95829" lon="-0.2929">
        <ele>1388.6</ele>
        <time>2022-06-08 13:13:05</time>
      </trkpt>
      <trkpt lat="42.95828" lon="-0.29283">
        <ele>1388.4</ele>
        <time>2022-06-08 13:13:06</time>
      </trkpt>
      <trkpt lat="42.95827" lon="-0.29276">
        <ele>1388.2</ele>
        <time>2022-06-08 13:13:07</time>
      </trkpt>
      <trkpt lat="42.95828" lon="-0.29267">
        <ele>1388.4</ele>
        <time>2022-06-08 13:13:08</time>
      </trkpt>
      <trkpt lat="42.95829" lon="-0.2926">
        <ele>1388.4</ele>
        <time>2022-06-08 13:13:09</time>
      </trkpt>
      <trkpt lat="42.95831" lon="-0.29252">
        <ele>1388.4</ele>
        <time>2022-06-08 13:13:10</time>
      </trkpt>
      <trkpt lat="42.95832" lon="-0.29244">
        <ele>1388</ele>
        <time>2022-06-08 13:13:11</time>
      </trkpt>
      <trkpt lat="42.95833" lon="-0.29237">
        <ele>1387.8</ele>
        <time>2022-06-08 13:13:12</time>
      </trkpt>
      <trkpt lat="42.95832" lon="-0.29229">
        <ele>1387.6</ele>
        <time>2022-06-08 13:13:13</time>
      </trkpt>
      <trkpt lat="42.9583" lon="-0.29222">
        <ele>1387.6</ele>
        <time>2022-06-08 13:13:14</time>
      </trkpt>
      <trkpt lat="42.95828" lon="-0.29215">
        <ele>1387.4</ele>
        <time>2022-06-08 13:13:15</time>
      </trkpt>
      <trkpt lat="42.95826" lon="-0.29208">
        <ele>1387.6</ele>
        <time>2022-06-08 13:13:16</time>
      </trkpt>
      <trkpt lat="42.95824" lon="-0.29202">
        <ele>1387.4</ele>
        <time>2022-06-08 13:13:17</time>
      </trkpt>
      <trkpt lat="42.95822" lon="-0.29196">
        <ele>1387.4</ele>
        <time>2022-06-08 13:13:18</time>
      </trkpt>
      <trkpt lat="42.95819" lon="-0.29191">
        <ele>1387.2</ele>
        <time>2022-06-08 13:13:19</time>
      </trkpt>
      <trkpt lat="42.95816" lon="-0.29187">
        <ele>1387</ele>
        <time>2022-06-08 13:13:20</time>
      </trkpt>
      <trkpt lat="42.95813" lon="-0.29182">
        <ele>1387</ele>
        <time>2022-06-08 13:13:21</time>
      </trkpt>
      <trkpt lat="42.9581" lon="-0.29177">
        <ele>1386.8</ele>
        <time>2022-06-08 13:13:22</time>
      </trkpt>
      <trkpt lat="42.95808" lon="-0.29172">
        <ele>1386.8</ele>
        <time>2022-06-08 13:13:23</time>
      </trkpt>
      <trkpt lat="42.95806" lon="-0.29167">
        <ele>1386.8</ele>
        <time>2022-06-08 13:13:24</time>
      </trkpt>
      <trkpt lat="42.95805" lon="-0.29161">
        <ele>1386.8</ele>
        <time>2022-06-08 13:13:25</time>
      </trkpt>
      <trkpt lat="42.95806" lon="-0.29155">
        <ele>1386.6</ele>
        <time>2022-06-08 13:13:26</time>
      </trkpt>
      <trkpt lat="42.95806" lon="-0.29149">
        <ele>1386.6</ele>
        <time>2022-06-08 13:13:27</time>
      </trkpt>
      <trkpt lat="42.95807" lon="-0.29143">
        <ele>1386.4</ele>
        <time>2022-06-08 13:13:28</time>
      </trkpt>
      <trkpt lat="42.95807" lon="-0.29136">
        <ele>1386.4</ele>
        <time>2022-06-08 13:13:29</time>
      </trkpt>
      <trkpt lat="42.95806" lon="-0.29129">
        <ele>1386.4</ele>
        <time>2022-06-08 13:13:30</time>
      </trkpt>
      <trkpt lat="42.95805" lon="-0.29123">
        <ele>1386.4</ele>
        <time>2022-06-08 13:13:31</time>
      </trkpt>
      <trkpt lat="42.95802" lon="-0.29117">
        <ele>1386.2</ele>
        <time>2022-06-08 13:13:32</time>
      </trkpt>
      <trkpt lat="42.95799" lon="-0.29112">
        <ele>1386.2</ele>
        <time>2022-06-08 13:13:33</time>
      </trkpt>
      <trkpt lat="42.95795" lon="-0.29109">
        <ele>1386</ele>
        <time>2022-06-08 13:13:34</time>
      </trkpt>
      <trkpt lat="42.95791" lon="-0.29107">
        <ele>1386</ele>
        <time>2022-06-08 13:13:35</time>
      </trkpt>
      <trkpt lat="42.95786" lon="-0.29105">
        <ele>1386</ele>
        <time>2022-06-08 13:13:36</time>
      </trkpt>
      <trkpt lat="42.95781" lon="-0.29104">
        <ele>1386</ele>
        <time>2022-06-08 13:13:37</time>
      </trkpt>
      <trkpt lat="42.95776" lon="-0.29102">
        <ele>1386</ele>
        <time>2022-06-08 13:13:38</time>
      </trkpt>
      <trkpt lat="42.95772" lon="-0.29099">
        <ele>1385.8</ele>
        <time>2022-06-08 13:13:39</time>
      </trkpt>
      <trkpt lat="42.95768" lon="-0.29096">
        <ele>1385.8</ele>
        <time>2022-06-08 13:13:40</time>
      </trkpt>
      <trkpt lat="42.95764" lon="-0.2909">
        <ele>1385.6</ele>
        <time>2022-06-08 13:13:41</time>
      </trkpt>
      <trkpt lat="42.9576" lon="-0.29085">
        <ele>1385.4</ele>
        <time>2022-06-08 13:13:42</time>
      </trkpt>
      <trkpt lat="42.95757" lon="-0.29079">
        <ele>1385.4</ele>
        <time>2022-06-08 13:13:43</time>
      </trkpt>
      <trkpt lat="42.95754" lon="-0.29074">
        <ele>1385.2</ele>
        <time>2022-06-08 13:13:44</time>
      </trkpt>
      <trkpt lat="42.95751" lon="-0.29069">
        <ele>1385.2</ele>
        <time>2022-06-08 13:13:45</time>
      </trkpt>
      <trkpt lat="42.95748" lon="-0.29065">
        <ele>1385</ele>
        <time>2022-06-08 13:13:46</time>
      </trkpt>
      <trkpt lat="42.95744" lon="-0.29061">
        <ele>1385</ele>
        <time>2022-06-08 13:13:47</time>
      </trkpt>
      <trkpt lat="42.9574" lon="-0.29058">
        <ele>1384.8</ele>
        <time>2022-06-08 13:13:48</time>
      </trkpt>
      <trkpt lat="42.95735" lon="-0.29058">
        <ele>1384.8</ele>
        <time>2022-06-08 13:13:49</time>
      </trkpt>
      <trkpt lat="42.95715" lon="-0.29064">
        <ele>1384.6</ele>
        <time>2022-06-08 13:13:50</time>
      </trkpt>
      <trkpt lat="42.95709" lon="-0.29065">
        <ele>1384.6</ele>
        <time>2022-06-08 13:13:51</time>
      </trkpt>
      <trkpt lat="42.95706" lon="-0.29067">
        <ele>1384.6</ele>
        <time>2022-06-08 13:13:52</time>
      </trkpt>
      <trkpt lat="42.95701" lon="-0.29068">
        <ele>1384.6</ele>
        <time>2022-06-08 13:13:53</time>
      </trkpt>
      <trkpt lat="42.95697" lon="-0.29069">
        <ele>1384.6</ele>
        <time>2022-06-08 13:13:54</time>
      </trkpt>
      <trkpt lat="42.95691" lon="-0.29071">
        <ele>1384.6</ele>
        <time>2022-06-08 13:13:55</time>
      </trkpt>
      <trkpt lat="42.95687" lon="-0.29072">
        <ele>1384.6</ele>
        <time>2022-06-08 13:13:56</time>
      </trkpt>
      <trkpt lat="42.95682" lon="-0.29072">
        <ele>1384.6</ele>
        <time>2022-06-08 13:13:57</time>
      </trkpt>
      <trkpt lat="42.95677" lon="-0.29072">
        <ele>1384.2</ele>
        <time>2022-06-08 13:13:58</time>
      </trkpt>
      <trkpt lat="42.95673" lon="-0.29072">
        <ele>1384.2</ele>
        <time>2022-06-08 13:13:59</time>
      </trkpt>
      <trkpt lat="42.95669" lon="-0.29071">
        <ele>1384.2</ele>
        <time>2022-06-08 13:14:00</time>
      </trkpt>
      <trkpt lat="42.95665" lon="-0.29071">
        <ele>1384.2</ele>
        <time>2022-06-08 13:14:01</time>
      </trkpt>
      <trkpt lat="42.95661" lon="-0.2907">
        <ele>1384</ele>
        <time>2022-06-08 13:14:02</time>
      </trkpt>
      <trkpt lat="42.95656" lon="-0.29071">
        <ele>1384</ele>
        <time>2022-06-08 13:14:03</time>
      </trkpt>
      <trkpt lat="42.95652" lon="-0.29071">
        <ele>1384</ele>
        <time>2022-06-08 13:14:04</time>
      </trkpt>
      <trkpt lat="42.95647" lon="-0.29069">
        <ele>1384</ele>
        <time>2022-06-08 13:14:05</time>
      </trkpt>
      <trkpt lat="42.95642" lon="-0.29068">
        <ele>1383.8</ele>
        <time>2022-06-08 13:14:06</time>
      </trkpt>
      <trkpt lat="42.95639" lon="-0.29068">
        <ele>1383.8</ele>
        <time>2022-06-08 13:14:07</time>
      </trkpt>
      <trkpt lat="42.95633" lon="-0.29068">
        <ele>1383.8</ele>
        <time>2022-06-08 13:14:08</time>
      </trkpt>
      <trkpt lat="42.95629" lon="-0.29068">
        <ele>1383.8</ele>
        <time>2022-06-08 13:14:09</time>
      </trkpt>
      <trkpt lat="42.95625" lon="-0.29069">
        <ele>1383.8</ele>
        <time>2022-06-08 13:14:10</time>
      </trkpt>
      <trkpt lat="42.9562" lon="-0.2907">
        <ele>1383.6</ele>
        <time>2022-06-08 13:14:11</time>
      </trkpt>
      <trkpt lat="42.95615" lon="-0.29071">
        <ele>1383.6</ele>
        <time>2022-06-08 13:14:12</time>
      </trkpt>
      <trkpt lat="42.9561" lon="-0.29069">
        <ele>1383.6</ele>
        <time>2022-06-08 13:14:13</time>
      </trkpt>
      <trkpt lat="42.95604" lon="-0.29067">
        <ele>1383.6</ele>
        <time>2022-06-08 13:14:14</time>
      </trkpt>
      <trkpt lat="42.95599" lon="-0.29064">
        <ele>1383.6</ele>
        <time>2022-06-08 13:14:15</time>
      </trkpt>
      <trkpt lat="42.95594" lon="-0.2906">
        <ele>1383.6</ele>
        <time>2022-06-08 13:14:16</time>
      </trkpt>
      <trkpt lat="42.9559" lon="-0.29055">
        <ele>1383.4</ele>
        <time>2022-06-08 13:14:17</time>
      </trkpt>
      <trkpt lat="42.95585" lon="-0.29051">
        <ele>1383.2</ele>
        <time>2022-06-08 13:14:18</time>
      </trkpt>
      <trkpt lat="42.95581" lon="-0.29047">
        <ele>1383.2</ele>
        <time>2022-06-08 13:14:19</time>
      </trkpt>
      <trkpt lat="42.95577" lon="-0.29045">
        <ele>1383.4</ele>
        <time>2022-06-08 13:14:20</time>
      </trkpt>
      <trkpt lat="42.95574" lon="-0.29041">
        <ele>1383.4</ele>
        <time>2022-06-08 13:14:21</time>
      </trkpt>
      <trkpt lat="42.95569" lon="-0.29036">
        <ele>1383.4</ele>
        <time>2022-06-08 13:14:22</time>
      </trkpt>
      <trkpt lat="42.95565" lon="-0.29032">
        <ele>1383.6</ele>
        <time>2022-06-08 13:14:23</time>
      </trkpt>
      <trkpt lat="42.95561" lon="-0.29028">
        <ele>1383.6</ele>
        <time>2022-06-08 13:14:24</time>
      </trkpt>
      <trkpt lat="42.95556" lon="-0.29024">
        <ele>1383.6</ele>
        <time>2022-06-08 13:14:25</time>
      </trkpt>
      <trkpt lat="42.95552" lon="-0.2902">
        <ele>1383.4</ele>
        <time>2022-06-08 13:14:26</time>
      </trkpt>
      <trkpt lat="42.95547" lon="-0.29015">
        <ele>1383.4</ele>
        <time>2022-06-08 13:14:27</time>
      </trkpt>
      <trkpt lat="42.95543" lon="-0.29011">
        <ele>1383.4</ele>
        <time>2022-06-08 13:14:28</time>
      </trkpt>
      <trkpt lat="42.95538" lon="-0.29006">
        <ele>1383.4</ele>
        <time>2022-06-08 13:14:29</time>
      </trkpt>
      <trkpt lat="42.95534" lon="-0.29001">
        <ele>1383.6</ele>
        <time>2022-06-08 13:14:30</time>
      </trkpt>
      <trkpt lat="42.95529" lon="-0.28996">
        <ele>1383.6</ele>
        <time>2022-06-08 13:14:31</time>
      </trkpt>
      <trkpt lat="42.95525" lon="-0.28992">
        <ele>1383.6</ele>
        <time>2022-06-08 13:14:32</time>
      </trkpt>
      <trkpt lat="42.95521" lon="-0.28988">
        <ele>1383.4</ele>
        <time>2022-06-08 13:14:33</time>
      </trkpt>
      <trkpt lat="42.95517" lon="-0.28983">
        <ele>1383.6</ele>
        <time>2022-06-08 13:14:34</time>
      </trkpt>
      <trkpt lat="42.95513" lon="-0.28979">
        <ele>1383.4</ele>
        <time>2022-06-08 13:14:35</time>
      </trkpt>
      <trkpt lat="42.95509" lon="-0.28975">
        <ele>1383.4</ele>
        <time>2022-06-08 13:14:36</time>
      </trkpt>
      <trkpt lat="42.95505" lon="-0.28969">
        <ele>1383.2</ele>
        <time>2022-06-08 13:14:37</time>
      </trkpt>
      <trkpt lat="42.95503" lon="-0.28963">
        <ele>1383</ele>
        <time>2022-06-08 13:14:38</time>
      </trkpt>
      <trkpt lat="42.95501" lon="-0.28956">
        <ele>1383</ele>
        <time>2022-06-08 13:14:39</time>
      </trkpt>
      <trkpt lat="42.955" lon="-0.28949">
        <ele>1383</ele>
        <time>2022-06-08 13:14:40</time>
      </trkpt>
      <trkpt lat="42.95499" lon="-0.28942">
        <ele>1383</ele>
        <time>2022-06-08 13:14:41</time>
      </trkpt>
      <trkpt lat="42.95498" lon="-0.28934">
        <ele>1383</ele>
        <time>2022-06-08 13:14:42</time>
      </trkpt>
      <trkpt lat="42.95496" lon="-0.28926">
        <ele>1382.8</ele>
        <time>2022-06-08 13:14:43</time>
      </trkpt>
      <trkpt lat="42.95493" lon="-0.28918">
        <ele>1382.8</ele>
        <time>2022-06-08 13:14:44</time>
      </trkpt>
      <trkpt lat="42.95489" lon="-0.28912">
        <ele>1382.6</ele>
        <time>2022-06-08 13:14:45</time>
      </trkpt>
      <trkpt lat="42.95485" lon="-0.28907">
        <ele>1382.4</ele>
        <time>2022-06-08 13:14:46</time>
      </trkpt>
      <trkpt lat="42.95481" lon="-0.28902">
        <ele>1382.4</ele>
        <time>2022-06-08 13:14:47</time>
      </trkpt>
      <trkpt lat="42.95477" lon="-0.28897">
        <ele>1382.4</ele>
        <time>2022-06-08 13:14:48</time>
      </trkpt>
      <trkpt lat="42.95472" lon="-0.28892">
        <ele>1382.2</ele>
        <time>2022-06-08 13:14:49</time>
      </trkpt>
      <trkpt lat="42.95467" lon="-0.28888">
        <ele>1382.2</ele>
        <time>2022-06-08 13:14:50</time>
      </trkpt>
      <trkpt lat="42.95462" lon="-0.28883">
        <ele>1382.2</ele>
        <time>2022-06-08 13:14:51</time>
      </trkpt>
      <trkpt lat="42.95458" lon="-0.28877">
        <ele>1382.2</ele>
        <time>2022-06-08 13:14:52</time>
      </trkpt>
      <trkpt lat="42.95453" lon="-0.28871">
        <ele>1382.2</ele>
        <time>2022-06-08 13:14:53</time>
      </trkpt>
      <trkpt lat="42.95449" lon="-0.28864">
        <ele>1382.2</ele>
        <time>2022-06-08 13:14:54</time>
      </trkpt>
      <trkpt lat="42.95445" lon="-0.28858">
        <ele>1382.2</ele>
        <time>2022-06-08 13:14:55</time>
      </trkpt>
      <trkpt lat="42.95442" lon="-0.28852">
        <ele>1382.2</ele>
        <time>2022-06-08 13:14:56</time>
      </trkpt>
      <trkpt lat="42.9544" lon="-0.28845">
        <ele>1382.2</ele>
        <time>2022-06-08 13:14:57</time>
      </trkpt>
      <trkpt lat="42.95439" lon="-0.28839">
        <ele>1382.2</ele>
        <time>2022-06-08 13:14:58</time>
      </trkpt>
      <trkpt lat="42.95438" lon="-0.28832">
        <ele>1382.2</ele>
        <time>2022-06-08 13:14:59</time>
      </trkpt>
      <trkpt lat="42.95436" lon="-0.28825">
        <ele>1382.2</ele>
        <time>2022-06-08 13:15:00</time>
      </trkpt>
      <trkpt lat="42.95436" lon="-0.28816">
        <ele>1382</ele>
        <time>2022-06-08 13:15:01</time>
      </trkpt>
      <trkpt lat="42.95435" lon="-0.28807">
        <ele>1381.8</ele>
        <time>2022-06-08 13:15:02</time>
      </trkpt>
      <trkpt lat="42.95433" lon="-0.288">
        <ele>1381.8</ele>
        <time>2022-06-08 13:15:03</time>
      </trkpt>
      <trkpt lat="42.95431" lon="-0.28793">
        <ele>1381.8</ele>
        <time>2022-06-08 13:15:04</time>
      </trkpt>
      <trkpt lat="42.95429" lon="-0.28786">
        <ele>1381.6</ele>
        <time>2022-06-08 13:15:05</time>
      </trkpt>
      <trkpt lat="42.95427" lon="-0.28779">
        <ele>1381.6</ele>
        <time>2022-06-08 13:15:06</time>
      </trkpt>
      <trkpt lat="42.95424" lon="-0.28772">
        <ele>1381.4</ele>
        <time>2022-06-08 13:15:07</time>
      </trkpt>
      <trkpt lat="42.95422" lon="-0.28765">
        <ele>1381.4</ele>
        <time>2022-06-08 13:15:08</time>
      </trkpt>
      <trkpt lat="42.9542" lon="-0.28759">
        <ele>1381.4</ele>
        <time>2022-06-08 13:15:09</time>
      </trkpt>
      <trkpt lat="42.95418" lon="-0.28754">
        <ele>1381.4</ele>
        <time>2022-06-08 13:15:10</time>
      </trkpt>
      <trkpt lat="42.95416" lon="-0.28749">
        <ele>1381.6</ele>
        <time>2022-06-08 13:15:11</time>
      </trkpt>
      <trkpt lat="42.95415" lon="-0.28744">
        <ele>1381.6</ele>
        <time>2022-06-08 13:15:12</time>
      </trkpt>
      <trkpt lat="42.95413" lon="-0.28738">
        <ele>1381.6</ele>
        <time>2022-06-08 13:15:13</time>
      </trkpt>
      <trkpt lat="42.95411" lon="-0.28733">
        <ele>1381.6</ele>
        <time>2022-06-08 13:15:14</time>
      </trkpt>
      <trkpt lat="42.95409" lon="-0.28728">
        <ele>1381.6</ele>
        <time>2022-06-08 13:15:15</time>
      </trkpt>
      <trkpt lat="42.95407" lon="-0.28723">
        <ele>1381.4</ele>
        <time>2022-06-08 13:15:16</time>
      </trkpt>
      <trkpt lat="42.95404" lon="-0.28719">
        <ele>1381.4</ele>
        <time>2022-06-08 13:15:17</time>
      </trkpt>
      <trkpt lat="42.95402" lon="-0.28714">
        <ele>1381.4</ele>
        <time>2022-06-08 13:15:18</time>
      </trkpt>
      <trkpt lat="42.954" lon="-0.2871">
        <ele>1381.4</ele>
        <time>2022-06-08 13:15:19</time>
      </trkpt>
      <trkpt lat="42.95397" lon="-0.28705">
        <ele>1381.4</ele>
        <time>2022-06-08 13:15:20</time>
      </trkpt>
      <trkpt lat="42.95395" lon="-0.287">
        <ele>1381.4</ele>
        <time>2022-06-08 13:15:21</time>
      </trkpt>
      <trkpt lat="42.95393" lon="-0.28694">
        <ele>1381.4</ele>
        <time>2022-06-08 13:15:22</time>
      </trkpt>
      <trkpt lat="42.95392" lon="-0.28688">
        <ele>1381.2</ele>
        <time>2022-06-08 13:15:23</time>
      </trkpt>
      <trkpt lat="42.95392" lon="-0.28681">
        <ele>1381.2</ele>
        <time>2022-06-08 13:15:24</time>
      </trkpt>
      <trkpt lat="42.95393" lon="-0.28674">
        <ele>1381</ele>
        <time>2022-06-08 13:15:25</time>
      </trkpt>
      <trkpt lat="42.95394" lon="-0.28668">
        <ele>1381</ele>
        <time>2022-06-08 13:15:26</time>
      </trkpt>
      <trkpt lat="42.95396" lon="-0.28663">
        <ele>1381</ele>
        <time>2022-06-08 13:15:27</time>
      </trkpt>
      <trkpt lat="42.95399" lon="-0.28657">
        <ele>1381</ele>
        <time>2022-06-08 13:15:28</time>
      </trkpt>
      <trkpt lat="42.95401" lon="-0.28652">
        <ele>1380.8</ele>
        <time>2022-06-08 13:15:29</time>
      </trkpt>
      <trkpt lat="42.95404" lon="-0.28647">
        <ele>1380.8</ele>
        <time>2022-06-08 13:15:30</time>
      </trkpt>
      <trkpt lat="42.95407" lon="-0.28642">
        <ele>1380.8</ele>
        <time>2022-06-08 13:15:31</time>
      </trkpt>
      <trkpt lat="42.95409" lon="-0.28637">
        <ele>1380.8</ele>
        <time>2022-06-08 13:15:32</time>
      </trkpt>
      <trkpt lat="42.95412" lon="-0.28631">
        <ele>1380.8</ele>
        <time>2022-06-08 13:15:33</time>
      </trkpt>
      <trkpt lat="42.95414" lon="-0.28625">
        <ele>1380.8</ele>
        <time>2022-06-08 13:15:34</time>
      </trkpt>
      <trkpt lat="42.95416" lon="-0.28619">
        <ele>1380.6</ele>
        <time>2022-06-08 13:15:35</time>
      </trkpt>
      <trkpt lat="42.95418" lon="-0.28612">
        <ele>1380.6</ele>
        <time>2022-06-08 13:15:36</time>
      </trkpt>
      <trkpt lat="42.9542" lon="-0.28606">
        <ele>1380.6</ele>
        <time>2022-06-08 13:15:37</time>
      </trkpt>
      <trkpt lat="42.95423" lon="-0.28599">
        <ele>1380.6</ele>
        <time>2022-06-08 13:15:38</time>
      </trkpt>
      <trkpt lat="42.95425" lon="-0.28592">
        <ele>1380.6</ele>
        <time>2022-06-08 13:15:39</time>
      </trkpt>
      <trkpt lat="42.95428" lon="-0.28586">
        <ele>1380.6</ele>
        <time>2022-06-08 13:15:40</time>
      </trkpt>
      <trkpt lat="42.95431" lon="-0.2858">
        <ele>1380.6</ele>
        <time>2022-06-08 13:15:41</time>
      </trkpt>
      <trkpt lat="42.95434" lon="-0.28574">
        <ele>1380.4</ele>
        <time>2022-06-08 13:15:42</time>
      </trkpt>
      <trkpt lat="42.95438" lon="-0.28568">
        <ele>1380.4</ele>
        <time>2022-06-08 13:15:43</time>
      </trkpt>
      <trkpt lat="42.95442" lon="-0.28561">
        <ele>1380.2</ele>
        <time>2022-06-08 13:15:44</time>
      </trkpt>
      <trkpt lat="42.95445" lon="-0.28554">
        <ele>1380.2</ele>
        <time>2022-06-08 13:15:45</time>
      </trkpt>
      <trkpt lat="42.95448" lon="-0.28548">
        <ele>1380</ele>
        <time>2022-06-08 13:15:46</time>
      </trkpt>
      <trkpt lat="42.95451" lon="-0.2854">
        <ele>1380</ele>
        <time>2022-06-08 13:15:47</time>
      </trkpt>
      <trkpt lat="42.95454" lon="-0.28533">
        <ele>1379.8</ele>
        <time>2022-06-08 13:15:48</time>
      </trkpt>
      <trkpt lat="42.95456" lon="-0.28526">
        <ele>1379.8</ele>
        <time>2022-06-08 13:15:49</time>
      </trkpt>
      <trkpt lat="42.95459" lon="-0.28519">
        <ele>1379.8</ele>
        <time>2022-06-08 13:15:50</time>
      </trkpt>
      <trkpt lat="42.95462" lon="-0.28513">
        <ele>1379.6</ele>
        <time>2022-06-08 13:15:51</time>
      </trkpt>
      <trkpt lat="42.95465" lon="-0.28506">
        <ele>1379.6</ele>
        <time>2022-06-08 13:15:52</time>
      </trkpt>
      <trkpt lat="42.95468" lon="-0.285">
        <ele>1379.6</ele>
        <time>2022-06-08 13:15:53</time>
      </trkpt>
      <trkpt lat="42.95471" lon="-0.28494">
        <ele>1379.6</ele>
        <time>2022-06-08 13:15:54</time>
      </trkpt>
      <trkpt lat="42.95475" lon="-0.28488">
        <ele>1379.6</ele>
        <time>2022-06-08 13:15:55</time>
      </trkpt>
      <trkpt lat="42.95478" lon="-0.28482">
        <ele>1379.4</ele>
        <time>2022-06-08 13:15:56</time>
      </trkpt>
      <trkpt lat="42.95482" lon="-0.28476">
        <ele>1379.4</ele>
        <time>2022-06-08 13:15:57</time>
      </trkpt>
      <trkpt lat="42.95485" lon="-0.2847">
        <ele>1379.4</ele>
        <time>2022-06-08 13:15:58</time>
      </trkpt>
      <trkpt lat="42.95488" lon="-0.28464">
        <ele>1379.2</ele>
        <time>2022-06-08 13:15:59</time>
      </trkpt>
      <trkpt lat="42.95491" lon="-0.28458">
        <ele>1379.2</ele>
        <time>2022-06-08 13:16:00</time>
      </trkpt>
      <trkpt lat="42.95493" lon="-0.28451">
        <ele>1379.2</ele>
        <time>2022-06-08 13:16:01</time>
      </trkpt>
      <trkpt lat="42.95495" lon="-0.28445">
        <ele>1379.2</ele>
        <time>2022-06-08 13:16:02</time>
      </trkpt>
      <trkpt lat="42.95497" lon="-0.28438">
        <ele>1379.2</ele>
        <time>2022-06-08 13:16:03</time>
      </trkpt>
      <trkpt lat="42.95498" lon="-0.28432">
        <ele>1379.2</ele>
        <time>2022-06-08 13:16:04</time>
      </trkpt>
      <trkpt lat="42.955" lon="-0.28425">
        <ele>1379</ele>
        <time>2022-06-08 13:16:05</time>
      </trkpt>
      <trkpt lat="42.95501" lon="-0.28418">
        <ele>1379</ele>
        <time>2022-06-08 13:16:06</time>
      </trkpt>
      <trkpt lat="42.95502" lon="-0.2841">
        <ele>1379</ele>
        <time>2022-06-08 13:16:07</time>
      </trkpt>
      <trkpt lat="42.95504" lon="-0.28403">
        <ele>1378.8</ele>
        <time>2022-06-08 13:16:08</time>
      </trkpt>
      <trkpt lat="42.95504" lon="-0.28397">
        <ele>1378.8</ele>
        <time>2022-06-08 13:16:09</time>
      </trkpt>
      <trkpt lat="42.95504" lon="-0.28389">
        <ele>1378.8</ele>
        <time>2022-06-08 13:16:10</time>
      </trkpt>
      <trkpt lat="42.95503" lon="-0.28381">
        <ele>1378.8</ele>
        <time>2022-06-08 13:16:11</time>
      </trkpt>
      <trkpt lat="42.95501" lon="-0.28375">
        <ele>1378.8</ele>
        <time>2022-06-08 13:16:12</time>
      </trkpt>
      <trkpt lat="42.95499" lon="-0.28369">
        <ele>1378.8</ele>
        <time>2022-06-08 13:16:13</time>
      </trkpt>
      <trkpt lat="42.95497" lon="-0.28364">
        <ele>1378.8</ele>
        <time>2022-06-08 13:16:14</time>
      </trkpt>
      <trkpt lat="42.95494" lon="-0.28358">
        <ele>1378.8</ele>
        <time>2022-06-08 13:16:15</time>
      </trkpt>
      <trkpt lat="42.95492" lon="-0.28353">
        <ele>1378.8</ele>
        <time>2022-06-08 13:16:16</time>
      </trkpt>
      <trkpt lat="42.95491" lon="-0.28347">
        <ele>1378.8</ele>
        <time>2022-06-08 13:16:17</time>
      </trkpt>
      <trkpt lat="42.9549" lon="-0.28342">
        <ele>1378.8</ele>
        <time>2022-06-08 13:16:18</time>
      </trkpt>
      <trkpt lat="42.9549" lon="-0.28336">
        <ele>1378.8</ele>
        <time>2022-06-08 13:16:19</time>
      </trkpt>
      <trkpt lat="42.95491" lon="-0.28332">
        <ele>1378.6</ele>
        <time>2022-06-08 13:16:20</time>
      </trkpt>
      <trkpt lat="42.95494" lon="-0.28327">
        <ele>1378.6</ele>
        <time>2022-06-08 13:16:21</time>
      </trkpt>
      <trkpt lat="42.95494" lon="-0.28321">
        <ele>1378.6</ele>
        <time>2022-06-08 13:16:22</time>
      </trkpt>
      <trkpt lat="42.95494" lon="-0.28315">
        <ele>1378.6</ele>
        <time>2022-06-08 13:16:23</time>
      </trkpt>
      <trkpt lat="42.95495" lon="-0.28308">
        <ele>1378.6</ele>
        <time>2022-06-08 13:16:24</time>
      </trkpt>
      <trkpt lat="42.95496" lon="-0.28302">
        <ele>1378.6</ele>
        <time>2022-06-08 13:16:25</time>
      </trkpt>
      <trkpt lat="42.95496" lon="-0.28294">
        <ele>1378.6</ele>
        <time>2022-06-08 13:16:26</time>
      </trkpt>
      <trkpt lat="42.95496" lon="-0.28288">
        <ele>1378.6</ele>
        <time>2022-06-08 13:16:27</time>
      </trkpt>
      <trkpt lat="42.95496" lon="-0.28281">
        <ele>1378.8</ele>
        <time>2022-06-08 13:16:28</time>
      </trkpt>
      <trkpt lat="42.95496" lon="-0.28275">
        <ele>1379</ele>
        <time>2022-06-08 13:16:29</time>
      </trkpt>
      <trkpt lat="42.95496" lon="-0.28269">
        <ele>1379</ele>
        <time>2022-06-08 13:16:30</time>
      </trkpt>
      <trkpt lat="42.95496" lon="-0.28263">
        <ele>1379.2</ele>
        <time>2022-06-08 13:16:31</time>
      </trkpt>
      <trkpt lat="42.95497" lon="-0.28257">
        <ele>1379.2</ele>
        <time>2022-06-08 13:16:32</time>
      </trkpt>
      <trkpt lat="42.95498" lon="-0.28252">
        <ele>1379.6</ele>
        <time>2022-06-08 13:16:33</time>
      </trkpt>
      <trkpt lat="42.95498" lon="-0.28247">
        <ele>1379.6</ele>
        <time>2022-06-08 13:16:34</time>
      </trkpt>
      <trkpt lat="42.95498" lon="-0.28243">
        <ele>1379.8</ele>
        <time>2022-06-08 13:16:35</time>
      </trkpt>
      <trkpt lat="42.95498" lon="-0.28238">
        <ele>1380.2</ele>
        <time>2022-06-08 13:16:36</time>
      </trkpt>
      <trkpt lat="42.95498" lon="-0.28234">
        <ele>1380.2</ele>
        <time>2022-06-08 13:16:37</time>
      </trkpt>
      <trkpt lat="42.95498" lon="-0.2823">
        <ele>1380.4</ele>
        <time>2022-06-08 13:16:38</time>
      </trkpt>
      <trkpt lat="42.95498" lon="-0.28225">
        <ele>1380.2</ele>
        <time>2022-06-08 13:16:39</time>
      </trkpt>
      <trkpt lat="42.95499" lon="-0.28221">
        <ele>1380.6</ele>
        <time>2022-06-08 13:16:40</time>
      </trkpt>
      <trkpt lat="42.95499" lon="-0.28217">
        <ele>1381</ele>
        <time>2022-06-08 13:16:41</time>
      </trkpt>
      <trkpt lat="42.95499" lon="-0.28214">
        <ele>1381.6</ele>
        <time>2022-06-08 13:16:42</time>
      </trkpt>
      <trkpt lat="42.95499" lon="-0.2821">
        <ele>1381.8</ele>
        <time>2022-06-08 13:16:43</time>
      </trkpt>
      <trkpt lat="42.95498" lon="-0.28207">
        <ele>1382</ele>
        <time>2022-06-08 13:16:44</time>
      </trkpt>
      <trkpt lat="42.95498" lon="-0.28204">
        <ele>1382.2</ele>
        <time>2022-06-08 13:16:45</time>
      </trkpt>
      <trkpt lat="42.95498" lon="-0.28201">
        <ele>1382.6</ele>
        <time>2022-06-08 13:16:46</time>
      </trkpt>
      <trkpt lat="42.95498" lon="-0.28197">
        <ele>1382.6</ele>
        <time>2022-06-08 13:16:47</time>
      </trkpt>
      <trkpt lat="42.95497" lon="-0.28194">
        <ele>1383</ele>
        <time>2022-06-08 13:16:48</time>
      </trkpt>
      <trkpt lat="42.95497" lon="-0.28191">
        <ele>1383</ele>
        <time>2022-06-08 13:16:49</time>
      </trkpt>
      <trkpt lat="42.95497" lon="-0.28188">
        <ele>1383.6</ele>
        <time>2022-06-08 13:16:50</time>
      </trkpt>
      <trkpt lat="42.95496" lon="-0.28185">
        <ele>1383.6</ele>
        <time>2022-06-08 13:16:51</time>
      </trkpt>
      <trkpt lat="42.95495" lon="-0.28182">
        <ele>1383.8</ele>
        <time>2022-06-08 13:16:52</time>
      </trkpt>
      <trkpt lat="42.95494" lon="-0.28178">
        <ele>1384</ele>
        <time>2022-06-08 13:16:53</time>
      </trkpt>
      <trkpt lat="42.95494" lon="-0.28175">
        <ele>1384</ele>
        <time>2022-06-08 13:16:54</time>
      </trkpt>
      <trkpt lat="42.95494" lon="-0.28172">
        <ele>1384.2</ele>
        <time>2022-06-08 13:16:55</time>
      </trkpt>
      <trkpt lat="42.95494" lon="-0.28169">
        <ele>1384.4</ele>
        <time>2022-06-08 13:16:56</time>
      </trkpt>
      <trkpt lat="42.95493" lon="-0.28167">
        <ele>1384.6</ele>
        <time>2022-06-08 13:16:57</time>
      </trkpt>
      <trkpt lat="42.95493" lon="-0.28164">
        <ele>1384.6</ele>
        <time>2022-06-08 13:16:58</time>
      </trkpt>
      <trkpt lat="42.95492" lon="-0.28161">
        <ele>1384.8</ele>
        <time>2022-06-08 13:16:59</time>
      </trkpt>
      <trkpt lat="42.95492" lon="-0.28158">
        <ele>1385</ele>
        <time>2022-06-08 13:17:00</time>
      </trkpt>
      <trkpt lat="42.95491" lon="-0.28155">
        <ele>1385.2</ele>
        <time>2022-06-08 13:17:01</time>
      </trkpt>
      <trkpt lat="42.95491" lon="-0.28153">
        <ele>1385.2</ele>
        <time>2022-06-08 13:17:02</time>
      </trkpt>
      <trkpt lat="42.9549" lon="-0.2815">
        <ele>1385.4</ele>
        <time>2022-06-08 13:17:03</time>
      </trkpt>
      <trkpt lat="42.95489" lon="-0.28148">
        <ele>1385.6</ele>
        <time>2022-06-08 13:17:04</time>
      </trkpt>
      <trkpt lat="42.95489" lon="-0.28145">
        <ele>1385.8</ele>
        <time>2022-06-08 13:17:05</time>
      </trkpt>
      <trkpt lat="42.95489" lon="-0.28143">
        <ele>1386</ele>
        <time>2022-06-08 13:17:06</time>
      </trkpt>
      <trkpt lat="42.95489" lon="-0.28141">
        <ele>1386.2</ele>
        <time>2022-06-08 13:17:07</time>
      </trkpt>
      <trkpt lat="42.95488" lon="-0.28138">
        <ele>1386.8</ele>
        <time>2022-06-08 13:17:08</time>
      </trkpt>
      <trkpt lat="42.95487" lon="-0.28135">
        <ele>1386.8</ele>
        <time>2022-06-08 13:17:09</time>
      </trkpt>
      <trkpt lat="42.95486" lon="-0.28133">
        <ele>1386.8</ele>
        <time>2022-06-08 13:17:10</time>
      </trkpt>
      <trkpt lat="42.95485" lon="-0.2813">
        <ele>1386.8</ele>
        <time>2022-06-08 13:17:11</time>
      </trkpt>
      <trkpt lat="42.95485" lon="-0.28127">
        <ele>1386.8</ele>
        <time>2022-06-08 13:17:12</time>
      </trkpt>
      <trkpt lat="42.95485" lon="-0.28124">
        <ele>1387</ele>
        <time>2022-06-08 13:17:13</time>
      </trkpt>
      <trkpt lat="42.95484" lon="-0.2812">
        <ele>1387.6</ele>
        <time>2022-06-08 13:17:14</time>
      </trkpt>
      <trkpt lat="42.95484" lon="-0.28117">
        <ele>1387.6</ele>
        <time>2022-06-08 13:17:15</time>
      </trkpt>
      <trkpt lat="42.95484" lon="-0.28115">
        <ele>1387.8</ele>
        <time>2022-06-08 13:17:16</time>
      </trkpt>
      <trkpt lat="42.95484" lon="-0.28112">
        <ele>1388</ele>
        <time>2022-06-08 13:17:17</time>
      </trkpt>
      <trkpt lat="42.95484" lon="-0.28108">
        <ele>1388.2</ele>
        <time>2022-06-08 13:17:18</time>
      </trkpt>
      <trkpt lat="42.95484" lon="-0.28106">
        <ele>1388.6</ele>
        <time>2022-06-08 13:17:19</time>
      </trkpt>
      <trkpt lat="42.95484" lon="-0.28103">
        <ele>1388.8</ele>
        <time>2022-06-08 13:17:20</time>
      </trkpt>
      <trkpt lat="42.95485" lon="-0.28101">
        <ele>1389</ele>
        <time>2022-06-08 13:17:21</time>
      </trkpt>
      <trkpt lat="42.95485" lon="-0.281">
        <ele>1389.2</ele>
        <time>2022-06-08 13:17:22</time>
      </trkpt>
      <trkpt lat="42.95485" lon="-0.281">
        <ele>1389.4</ele>
        <time>2022-06-08 13:17:23</time>
      </trkpt>
      <trkpt lat="42.95485" lon="-0.281">
        <ele>1389.6</ele>
        <time>2022-06-08 13:17:24</time>
      </trkpt>
      <trkpt lat="42.95489" lon="-0.28096">
        <ele>1390.4</ele>
        <time>2022-06-08 13:17:25</time>
      </trkpt>
      <trkpt lat="42.9549" lon="-0.28093">
        <ele>1390.4</ele>
        <time>2022-06-08 13:17:26</time>
      </trkpt>
      <trkpt lat="42.95492" lon="-0.2809">
        <ele>1390.4</ele>
        <time>2022-06-08 13:17:27</time>
      </trkpt>
      <trkpt lat="42.95493" lon="-0.28087">
        <ele>1390.4</ele>
        <time>2022-06-08 13:17:28</time>
      </trkpt>
      <trkpt lat="42.95495" lon="-0.28083">
        <ele>1390.6</ele>
        <time>2022-06-08 13:17:29</time>
      </trkpt>
      <trkpt lat="42.95497" lon="-0.2808">
        <ele>1390.4</ele>
        <time>2022-06-08 13:17:30</time>
      </trkpt>
      <trkpt lat="42.95499" lon="-0.28077">
        <ele>1390.4</ele>
        <time>2022-06-08 13:17:31</time>
      </trkpt>
      <trkpt lat="42.955" lon="-0.28073">
        <ele>1390.6</ele>
        <time>2022-06-08 13:17:32</time>
      </trkpt>
      <trkpt lat="42.95502" lon="-0.2807">
        <ele>1390.8</ele>
        <time>2022-06-08 13:17:33</time>
      </trkpt>
      <trkpt lat="42.95504" lon="-0.28067">
        <ele>1391</ele>
        <time>2022-06-08 13:17:34</time>
      </trkpt>
      <trkpt lat="42.95506" lon="-0.28064">
        <ele>1391.2</ele>
        <time>2022-06-08 13:17:35</time>
      </trkpt>
      <trkpt lat="42.95508" lon="-0.28061">
        <ele>1391.6</ele>
        <time>2022-06-08 13:17:36</time>
      </trkpt>
      <trkpt lat="42.9551" lon="-0.28057">
        <ele>1391.6</ele>
        <time>2022-06-08 13:17:37</time>
      </trkpt>
      <trkpt lat="42.95511" lon="-0.28053">
        <ele>1391.8</ele>
        <time>2022-06-08 13:17:38</time>
      </trkpt>
      <trkpt lat="42.95513" lon="-0.2805">
        <ele>1392</ele>
        <time>2022-06-08 13:17:39</time>
      </trkpt>
      <trkpt lat="42.95514" lon="-0.28046">
        <ele>1392.2</ele>
        <time>2022-06-08 13:17:40</time>
      </trkpt>
      <trkpt lat="42.95515" lon="-0.28042">
        <ele>1392.4</ele>
        <time>2022-06-08 13:17:41</time>
      </trkpt>
      <trkpt lat="42.95515" lon="-0.28039">
        <ele>1392.6</ele>
        <time>2022-06-08 13:17:42</time>
      </trkpt>
      <trkpt lat="42.95516" lon="-0.28036">
        <ele>1393.2</ele>
        <time>2022-06-08 13:17:43</time>
      </trkpt>
      <trkpt lat="42.95516" lon="-0.28032">
        <ele>1393.4</ele>
        <time>2022-06-08 13:17:44</time>
      </trkpt>
      <trkpt lat="42.95517" lon="-0.28029">
        <ele>1394</ele>
        <time>2022-06-08 13:17:45</time>
      </trkpt>
      <trkpt lat="42.95518" lon="-0.28025">
        <ele>1394.2</ele>
        <time>2022-06-08 13:17:46</time>
      </trkpt>
      <trkpt lat="42.95519" lon="-0.28022">
        <ele>1394.6</ele>
        <time>2022-06-08 13:17:47</time>
      </trkpt>
      <trkpt lat="42.95519" lon="-0.28019">
        <ele>1394.8</ele>
        <time>2022-06-08 13:17:48</time>
      </trkpt>
      <trkpt lat="42.9552" lon="-0.28015">
        <ele>1395.2</ele>
        <time>2022-06-08 13:17:49</time>
      </trkpt>
      <trkpt lat="42.95521" lon="-0.28012">
        <ele>1395.2</ele>
        <time>2022-06-08 13:17:50</time>
      </trkpt>
      <trkpt lat="42.95521" lon="-0.28009">
        <ele>1395.8</ele>
        <time>2022-06-08 13:17:51</time>
      </trkpt>
      <trkpt lat="42.95522" lon="-0.28005">
        <ele>1395.8</ele>
        <time>2022-06-08 13:17:52</time>
      </trkpt>
      <trkpt lat="42.95522" lon="-0.28002">
        <ele>1396</ele>
        <time>2022-06-08 13:17:53</time>
      </trkpt>
      <trkpt lat="42.95523" lon="-0.27999">
        <ele>1396.2</ele>
        <time>2022-06-08 13:17:54</time>
      </trkpt>
      <trkpt lat="42.95523" lon="-0.27996">
        <ele>1396.4</ele>
        <time>2022-06-08 13:17:55</time>
      </trkpt>
      <trkpt lat="42.95524" lon="-0.27993">
        <ele>1396.6</ele>
        <time>2022-06-08 13:17:56</time>
      </trkpt>
      <trkpt lat="42.95525" lon="-0.2799">
        <ele>1396.8</ele>
        <time>2022-06-08 13:19:01</time>
      </trkpt>
      <trkpt lat="42.95526" lon="-0.27986">
        <ele>1397</ele>
        <time>2022-06-08 13:19:02</time>
      </trkpt>
      <trkpt lat="42.95526" lon="-0.27983">
        <ele>1397.2</ele>
        <time>2022-06-08 13:19:03</time>
      </trkpt>
      <trkpt lat="42.95527" lon="-0.2798">
        <ele>1397.2</ele>
        <time>2022-06-08 13:19:04</time>
      </trkpt>
      <trkpt lat="42.95528" lon="-0.27976">
        <ele>1397.4</ele>
        <time>2022-06-08 13:19:05</time>
      </trkpt>
      <trkpt lat="42.95529" lon="-0.27973">
        <ele>1397.6</ele>
        <time>2022-06-08 13:19:06</time>
      </trkpt>
      <trkpt lat="42.95529" lon="-0.2797">
        <ele>1397.8</ele>
        <time>2022-06-08 13:19:07</time>
      </trkpt>
      <trkpt lat="42.9553" lon="-0.27966">
        <ele>1398.2</ele>
        <time>2022-06-08 13:19:08</time>
      </trkpt>
      <trkpt lat="42.9553" lon="-0.27963">
        <ele>1398.4</ele>
        <time>2022-06-08 13:19:09</time>
      </trkpt>
      <trkpt lat="42.95531" lon="-0.2796">
        <ele>1398.6</ele>
        <time>2022-06-08 13:19:10</time>
      </trkpt>
      <trkpt lat="42.95531" lon="-0.27956">
        <ele>1398.8</ele>
        <time>2022-06-08 13:19:11</time>
      </trkpt>
      <trkpt lat="42.95532" lon="-0.27953">
        <ele>1399</ele>
        <time>2022-06-08 13:19:12</time>
      </trkpt>
      <trkpt lat="42.95532" lon="-0.27949">
        <ele>1399.2</ele>
        <time>2022-06-08 13:19:13</time>
      </trkpt>
      <trkpt lat="42.95533" lon="-0.27946">
        <ele>1399.2</ele>
        <time>2022-06-08 13:19:14</time>
      </trkpt>
      <trkpt lat="42.95533" lon="-0.27942">
        <ele>1399.6</ele>
        <time>2022-06-08 13:19:15</time>
      </trkpt>
      <trkpt lat="42.95533" lon="-0.27939">
        <ele>1399.8</ele>
        <time>2022-06-08 13:19:16</time>
      </trkpt>
      <trkpt lat="42.95532" lon="-0.27936">
        <ele>1400.2</ele>
        <time>2022-06-08 13:19:17</time>
      </trkpt>
      <trkpt lat="42.95532" lon="-0.27932">
        <ele>1400.2</ele>
        <time>2022-06-08 13:19:18</time>
      </trkpt>
      <trkpt lat="42.95532" lon="-0.27928">
        <ele>1400.4</ele>
        <time>2022-06-08 13:19:19</time>
      </trkpt>
      <trkpt lat="42.95532" lon="-0.27925">
        <ele>1400.6</ele>
        <time>2022-06-08 13:19:20</time>
      </trkpt>
      <trkpt lat="42.95532" lon="-0.27922">
        <ele>1400.8</ele>
        <time>2022-06-08 13:19:21</time>
      </trkpt>
      <trkpt lat="42.95532" lon="-0.27918">
        <ele>1400.8</ele>
        <time>2022-06-08 13:19:22</time>
      </trkpt>
      <trkpt lat="42.95532" lon="-0.27915">
        <ele>1401</ele>
        <time>2022-06-08 13:19:23</time>
      </trkpt>
      <trkpt lat="42.95533" lon="-0.27911">
        <ele>1401.2</ele>
        <time>2022-06-08 13:19:24</time>
      </trkpt>
      <trkpt lat="42.95533" lon="-0.27907">
        <ele>1401.2</ele>
        <time>2022-06-08 13:19:25</time>
      </trkpt>
      <trkpt lat="42.95533" lon="-0.27904">
        <ele>1401.6</ele>
        <time>2022-06-08 13:19:26</time>
      </trkpt>
      <trkpt lat="42.95534" lon="-0.279">
        <ele>1401.8</ele>
        <time>2022-06-08 13:19:27</time>
      </trkpt>
      <trkpt lat="42.95534" lon="-0.27896">
        <ele>1402.2</ele>
        <time>2022-06-08 13:19:28</time>
      </trkpt>
      <trkpt lat="42.95534" lon="-0.27893">
        <ele>1402.4</ele>
        <time>2022-06-08 13:19:29</time>
      </trkpt>
      <trkpt lat="42.95535" lon="-0.27889">
        <ele>1402.6</ele>
        <time>2022-06-08 13:19:30</time>
      </trkpt>
      <trkpt lat="42.95535" lon="-0.27885">
        <ele>1402.8</ele>
        <time>2022-06-08 13:19:31</time>
      </trkpt>
      <trkpt lat="42.95536" lon="-0.27881">
        <ele>1403</ele>
        <time>2022-06-08 13:19:32</time>
      </trkpt>
      <trkpt lat="42.95536" lon="-0.27877">
        <ele>1403</ele>
        <time>2022-06-08 13:19:33</time>
      </trkpt>
      <trkpt lat="42.95536" lon="-0.27873">
        <ele>1403.2</ele>
        <time>2022-06-08 13:19:34</time>
      </trkpt>
      <trkpt lat="42.95537" lon="-0.2787">
        <ele>1403.2</ele>
        <time>2022-06-08 13:19:35</time>
      </trkpt>
      <trkpt lat="42.95537" lon="-0.27866">
        <ele>1403.6</ele>
        <time>2022-06-08 13:19:36</time>
      </trkpt>
      <trkpt lat="42.95537" lon="-0.27862">
        <ele>1403.6</ele>
        <time>2022-06-08 13:19:37</time>
      </trkpt>
      <trkpt lat="42.95538" lon="-0.27858">
        <ele>1403.8</ele>
        <time>2022-06-08 13:19:38</time>
      </trkpt>
      <trkpt lat="42.95538" lon="-0.27855">
        <ele>1404</ele>
        <time>2022-06-08 13:19:39</time>
      </trkpt>
      <trkpt lat="42.95539" lon="-0.27851">
        <ele>1404</ele>
        <time>2022-06-08 13:19:40</time>
      </trkpt>
      <trkpt lat="42.95539" lon="-0.27847">
        <ele>1404.2</ele>
        <time>2022-06-08 13:19:41</time>
      </trkpt>
      <trkpt lat="42.95539" lon="-0.27843">
        <ele>1404.4</ele>
        <time>2022-06-08 13:19:42</time>
      </trkpt>
      <trkpt lat="42.95539" lon="-0.2784">
        <ele>1405</ele>
        <time>2022-06-08 13:19:43</time>
      </trkpt>
      <trkpt lat="42.9554" lon="-0.27836">
        <ele>1405.2</ele>
        <time>2022-06-08 13:19:44</time>
      </trkpt>
      <trkpt lat="42.9554" lon="-0.27833">
        <ele>1405.4</ele>
        <time>2022-06-08 13:19:45</time>
      </trkpt>
      <trkpt lat="42.95541" lon="-0.27829">
        <ele>1405.4</ele>
        <time>2022-06-08 13:19:46</time>
      </trkpt>
      <trkpt lat="42.95541" lon="-0.27826">
        <ele>1405.8</ele>
        <time>2022-06-08 13:19:47</time>
      </trkpt>
      <trkpt lat="42.95541" lon="-0.27822">
        <ele>1406</ele>
        <time>2022-06-08 13:19:48</time>
      </trkpt>
      <trkpt lat="42.95541" lon="-0.27819">
        <ele>1406.2</ele>
        <time>2022-06-08 13:19:49</time>
      </trkpt>
      <trkpt lat="42.95541" lon="-0.27815">
        <ele>1406.4</ele>
        <time>2022-06-08 13:19:50</time>
      </trkpt>
      <trkpt lat="42.95541" lon="-0.27811">
        <ele>1406.6</ele>
        <time>2022-06-08 13:19:51</time>
      </trkpt>
      <trkpt lat="42.95541" lon="-0.27808">
        <ele>1407</ele>
        <time>2022-06-08 13:19:52</time>
      </trkpt>
      <trkpt lat="42.9554" lon="-0.27804">
        <ele>1407.2</ele>
        <time>2022-06-08 13:19:53</time>
      </trkpt>
      <trkpt lat="42.9554" lon="-0.27801">
        <ele>1407.6</ele>
        <time>2022-06-08 13:19:54</time>
      </trkpt>
      <trkpt lat="42.9554" lon="-0.27797">
        <ele>1407.6</ele>
        <time>2022-06-08 13:19:55</time>
      </trkpt>
      <trkpt lat="42.95539" lon="-0.27794">
        <ele>1408</ele>
        <time>2022-06-08 13:19:56</time>
      </trkpt>
      <trkpt lat="42.95539" lon="-0.27791">
        <ele>1408</ele>
        <time>2022-06-08 13:19:57</time>
      </trkpt>
      <trkpt lat="42.95538" lon="-0.27787">
        <ele>1408.8</ele>
        <time>2022-06-08 13:19:58</time>
      </trkpt>
      <trkpt lat="42.95538" lon="-0.27784">
        <ele>1409.2</ele>
        <time>2022-06-08 13:19:59</time>
      </trkpt>
      <trkpt lat="42.95537" lon="-0.27781">
        <ele>1409.6</ele>
        <time>2022-06-08 13:20:00</time>
      </trkpt>
      <trkpt lat="42.95537" lon="-0.27777">
        <ele>1409.6</ele>
        <time>2022-06-08 13:20:01</time>
      </trkpt>
      <trkpt lat="42.95536" lon="-0.27774">
        <ele>1409.8</ele>
        <time>2022-06-08 13:20:02</time>
      </trkpt>
      <trkpt lat="42.95535" lon="-0.27772">
        <ele>1410</ele>
        <time>2022-06-08 13:20:03</time>
      </trkpt>
      <trkpt lat="42.95534" lon="-0.27768">
        <ele>1410.2</ele>
        <time>2022-06-08 13:20:04</time>
      </trkpt>
      <trkpt lat="42.95533" lon="-0.27765">
        <ele>1410.6</ele>
        <time>2022-06-08 13:20:05</time>
      </trkpt>
      <trkpt lat="42.95533" lon="-0.27762">
        <ele>1410.8</ele>
        <time>2022-06-08 13:20:06</time>
      </trkpt>
      <trkpt lat="42.95532" lon="-0.27758">
        <ele>1410.8</ele>
        <time>2022-06-08 13:20:07</time>
      </trkpt>
      <trkpt lat="42.95532" lon="-0.27755">
        <ele>1411</ele>
        <time>2022-06-08 13:20:08</time>
      </trkpt>
      <trkpt lat="42.95532" lon="-0.27751">
        <ele>1411.2</ele>
        <time>2022-06-08 13:20:09</time>
      </trkpt>
      <trkpt lat="42.95531" lon="-0.27748">
        <ele>1411.4</ele>
        <time>2022-06-08 13:20:10</time>
      </trkpt>
      <trkpt lat="42.95531" lon="-0.27745">
        <ele>1411.8</ele>
        <time>2022-06-08 13:20:11</time>
      </trkpt>
      <trkpt lat="42.95532" lon="-0.27742">
        <ele>1412</ele>
        <time>2022-06-08 13:20:12</time>
      </trkpt>
      <trkpt lat="42.95532" lon="-0.27738">
        <ele>1412.2</ele>
        <time>2022-06-08 13:20:13</time>
      </trkpt>
      <trkpt lat="42.95533" lon="-0.27735">
        <ele>1412.4</ele>
        <time>2022-06-08 13:20:14</time>
      </trkpt>
      <trkpt lat="42.95534" lon="-0.27732">
        <ele>1412.8</ele>
        <time>2022-06-08 13:20:15</time>
      </trkpt>
      <trkpt lat="42.95535" lon="-0.27729">
        <ele>1413</ele>
        <time>2022-06-08 13:20:16</time>
      </trkpt>
      <trkpt lat="42.95537" lon="-0.27726">
        <ele>1413.4</ele>
        <time>2022-06-08 13:20:17</time>
      </trkpt>
      <trkpt lat="42.95538" lon="-0.27724">
        <ele>1413.6</ele>
        <time>2022-06-08 13:20:18</time>
      </trkpt>
      <trkpt lat="42.9554" lon="-0.27721">
        <ele>1413.8</ele>
        <time>2022-06-08 13:20:19</time>
      </trkpt>
      <trkpt lat="42.95542" lon="-0.27719">
        <ele>1414</ele>
        <time>2022-06-08 13:20:20</time>
      </trkpt>
      <trkpt lat="42.95544" lon="-0.27717">
        <ele>1414.2</ele>
        <time>2022-06-08 13:20:21</time>
      </trkpt>
      <trkpt lat="42.95546" lon="-0.27715">
        <ele>1414.4</ele>
        <time>2022-06-08 13:20:22</time>
      </trkpt>
      <trkpt lat="42.95548" lon="-0.27713">
        <ele>1414.6</ele>
        <time>2022-06-08 13:20:23</time>
      </trkpt>
      <trkpt lat="42.9555" lon="-0.27711">
        <ele>1415.2</ele>
        <time>2022-06-08 13:20:24</time>
      </trkpt>
      <trkpt lat="42.95552" lon="-0.27709">
        <ele>1415.4</ele>
        <time>2022-06-08 13:20:25</time>
      </trkpt>
      <trkpt lat="42.95554" lon="-0.27707">
        <ele>1415.8</ele>
        <time>2022-06-08 13:20:26</time>
      </trkpt>
      <trkpt lat="42.95556" lon="-0.27705">
        <ele>1416</ele>
        <time>2022-06-08 13:20:27</time>
      </trkpt>
      <trkpt lat="42.95558" lon="-0.27703">
        <ele>1416.2</ele>
        <time>2022-06-08 13:20:28</time>
      </trkpt>
      <trkpt lat="42.95561" lon="-0.277">
        <ele>1416.2</ele>
        <time>2022-06-08 13:20:29</time>
      </trkpt>
      <trkpt lat="42.95563" lon="-0.27698">
        <ele>1416.2</ele>
        <time>2022-06-08 13:20:30</time>
      </trkpt>
      <trkpt lat="42.95565" lon="-0.27696">
        <ele>1416.2</ele>
        <time>2022-06-08 13:20:31</time>
      </trkpt>
      <trkpt lat="42.95568" lon="-0.27694">
        <ele>1416.4</ele>
        <time>2022-06-08 13:20:32</time>
      </trkpt>
      <trkpt lat="42.9557" lon="-0.27692">
        <ele>1416.8</ele>
        <time>2022-06-08 13:20:33</time>
      </trkpt>
      <trkpt lat="42.95572" lon="-0.27689">
        <ele>1417</ele>
        <time>2022-06-08 13:20:34</time>
      </trkpt>
      <trkpt lat="42.95575" lon="-0.27687">
        <ele>1417.4</ele>
        <time>2022-06-08 13:20:35</time>
      </trkpt>
      <trkpt lat="42.95577" lon="-0.27685">
        <ele>1417.4</ele>
        <time>2022-06-08 13:20:36</time>
      </trkpt>
      <trkpt lat="42.95579" lon="-0.27682">
        <ele>1417.6</ele>
        <time>2022-06-08 13:20:37</time>
      </trkpt>
      <trkpt lat="42.95581" lon="-0.2768">
        <ele>1417.8</ele>
        <time>2022-06-08 13:20:38</time>
      </trkpt>
      <trkpt lat="42.95584" lon="-0.27677">
        <ele>1418.2</ele>
        <time>2022-06-08 13:20:39</time>
      </trkpt>
      <trkpt lat="42.95586" lon="-0.27675">
        <ele>1418.4</ele>
        <time>2022-06-08 13:20:40</time>
      </trkpt>
      <trkpt lat="42.95588" lon="-0.27672">
        <ele>1418.6</ele>
        <time>2022-06-08 13:20:41</time>
      </trkpt>
      <trkpt lat="42.9559" lon="-0.2767">
        <ele>1418.8</ele>
        <time>2022-06-08 13:20:42</time>
      </trkpt>
      <trkpt lat="42.95592" lon="-0.27667">
        <ele>1419</ele>
        <time>2022-06-08 13:20:43</time>
      </trkpt>
      <trkpt lat="42.95595" lon="-0.27665">
        <ele>1419.2</ele>
        <time>2022-06-08 13:20:44</time>
      </trkpt>
      <trkpt lat="42.95597" lon="-0.27663">
        <ele>1419.6</ele>
        <time>2022-06-08 13:20:45</time>
      </trkpt>
      <trkpt lat="42.956" lon="-0.27661">
        <ele>1420</ele>
        <time>2022-06-08 13:20:46</time>
      </trkpt>
      <trkpt lat="42.95602" lon="-0.27658">
        <ele>1420</ele>
        <time>2022-06-08 13:20:47</time>
      </trkpt>
      <trkpt lat="42.95605" lon="-0.27656">
        <ele>1420.4</ele>
        <time>2022-06-08 13:20:48</time>
      </trkpt>
      <trkpt lat="42.95607" lon="-0.27654">
        <ele>1420.6</ele>
        <time>2022-06-08 13:20:49</time>
      </trkpt>
      <trkpt lat="42.95609" lon="-0.27652">
        <ele>1421</ele>
        <time>2022-06-08 13:20:50</time>
      </trkpt>
      <trkpt lat="42.95612" lon="-0.2765">
        <ele>1421.4</ele>
        <time>2022-06-08 13:20:51</time>
      </trkpt>
      <trkpt lat="42.95614" lon="-0.27648">
        <ele>1421.8</ele>
        <time>2022-06-08 13:20:52</time>
      </trkpt>
      <trkpt lat="42.95617" lon="-0.27646">
        <ele>1421.8</ele>
        <time>2022-06-08 13:20:53</time>
      </trkpt>
      <trkpt lat="42.95619" lon="-0.27644">
        <ele>1422.2</ele>
        <time>2022-06-08 13:20:54</time>
      </trkpt>
      <trkpt lat="42.95622" lon="-0.27642">
        <ele>1422.4</ele>
        <time>2022-06-08 13:20:55</time>
      </trkpt>
      <trkpt lat="42.95624" lon="-0.2764">
        <ele>1422.6</ele>
        <time>2022-06-08 13:20:56</time>
      </trkpt>
      <trkpt lat="42.95627" lon="-0.27639">
        <ele>1422.8</ele>
        <time>2022-06-08 13:20:57</time>
      </trkpt>
      <trkpt lat="42.95629" lon="-0.27637">
        <ele>1423.2</ele>
        <time>2022-06-08 13:20:58</time>
      </trkpt>
      <trkpt lat="42.95632" lon="-0.27635">
        <ele>1423.2</ele>
        <time>2022-06-08 13:20:59</time>
      </trkpt>
      <trkpt lat="42.95634" lon="-0.27634">
        <ele>1423.4</ele>
        <time>2022-06-08 13:21:00</time>
      </trkpt>
      <trkpt lat="42.95636" lon="-0.27632">
        <ele>1423.4</ele>
        <time>2022-06-08 13:21:01</time>
      </trkpt>
      <trkpt lat="42.95639" lon="-0.27631">
        <ele>1423.6</ele>
        <time>2022-06-08 13:21:02</time>
      </trkpt>
      <trkpt lat="42.95642" lon="-0.27629">
        <ele>1424.4</ele>
        <time>2022-06-08 13:21:03</time>
      </trkpt>
      <trkpt lat="42.95644" lon="-0.27628">
        <ele>1424.6</ele>
        <time>2022-06-08 13:21:04</time>
      </trkpt>
      <trkpt lat="42.95647" lon="-0.27627">
        <ele>1425.2</ele>
        <time>2022-06-08 13:21:05</time>
      </trkpt>
      <trkpt lat="42.9565" lon="-0.27626">
        <ele>1425.2</ele>
        <time>2022-06-08 13:21:06</time>
      </trkpt>
      <trkpt lat="42.95652" lon="-0.27625">
        <ele>1425.8</ele>
        <time>2022-06-08 13:21:07</time>
      </trkpt>
      <trkpt lat="42.95655" lon="-0.27625">
        <ele>1426</ele>
        <time>2022-06-08 13:21:08</time>
      </trkpt>
      <trkpt lat="42.95657" lon="-0.27625">
        <ele>1426.4</ele>
        <time>2022-06-08 13:21:09</time>
      </trkpt>
      <trkpt lat="42.9566" lon="-0.27625">
        <ele>1426.6</ele>
        <time>2022-06-08 13:21:10</time>
      </trkpt>
      <trkpt lat="42.95662" lon="-0.27626">
        <ele>1427.2</ele>
        <time>2022-06-08 13:21:11</time>
      </trkpt>
      <trkpt lat="42.95665" lon="-0.27626">
        <ele>1427.8</ele>
        <time>2022-06-08 13:21:12</time>
      </trkpt>
      <trkpt lat="42.95667" lon="-0.27627">
        <ele>1428.2</ele>
        <time>2022-06-08 13:21:13</time>
      </trkpt>
      <trkpt lat="42.9567" lon="-0.27627">
        <ele>1428.6</ele>
        <time>2022-06-08 13:21:14</time>
      </trkpt>
      <trkpt lat="42.95673" lon="-0.27628">
        <ele>1428.8</ele>
        <time>2022-06-08 13:21:15</time>
      </trkpt>
      <trkpt lat="42.95676" lon="-0.27628">
        <ele>1429.4</ele>
        <time>2022-06-08 13:21:16</time>
      </trkpt>
      <trkpt lat="42.95679" lon="-0.27629">
        <ele>1429.6</ele>
        <time>2022-06-08 13:21:17</time>
      </trkpt>
      <trkpt lat="42.95682" lon="-0.2763">
        <ele>1429.8</ele>
        <time>2022-06-08 13:21:18</time>
      </trkpt>
      <trkpt lat="42.95685" lon="-0.27631">
        <ele>1430</ele>
        <time>2022-06-08 13:21:19</time>
      </trkpt>
      <trkpt lat="42.95687" lon="-0.27631">
        <ele>1430.4</ele>
        <time>2022-06-08 13:21:20</time>
      </trkpt>
      <trkpt lat="42.95691" lon="-0.27632">
        <ele>1430.6</ele>
        <time>2022-06-08 13:21:21</time>
      </trkpt>
      <trkpt lat="42.95693" lon="-0.27632">
        <ele>1431</ele>
        <time>2022-06-08 13:21:22</time>
      </trkpt>
      <trkpt lat="42.95696" lon="-0.27632">
        <ele>1431.2</ele>
        <time>2022-06-08 13:21:23</time>
      </trkpt>
      <trkpt lat="42.95699" lon="-0.27633">
        <ele>1431.6</ele>
        <time>2022-06-08 13:21:24</time>
      </trkpt>
      <trkpt lat="42.95702" lon="-0.27633">
        <ele>1432</ele>
        <time>2022-06-08 13:21:25</time>
      </trkpt>
      <trkpt lat="42.95705" lon="-0.27634">
        <ele>1432</ele>
        <time>2022-06-08 13:21:26</time>
      </trkpt>
      <trkpt lat="42.95707" lon="-0.27634">
        <ele>1432.4</ele>
        <time>2022-06-08 13:21:27</time>
      </trkpt>
      <trkpt lat="42.9571" lon="-0.27635">
        <ele>1432.6</ele>
        <time>2022-06-08 13:21:28</time>
      </trkpt>
      <trkpt lat="42.95713" lon="-0.27636">
        <ele>1432.8</ele>
        <time>2022-06-08 13:21:29</time>
      </trkpt>
      <trkpt lat="42.95716" lon="-0.27636">
        <ele>1433</ele>
        <time>2022-06-08 13:21:30</time>
      </trkpt>
      <trkpt lat="42.95718" lon="-0.27636">
        <ele>1433</ele>
        <time>2022-06-08 13:21:31</time>
      </trkpt>
      <trkpt lat="42.95721" lon="-0.27636">
        <ele>1433.2</ele>
        <time>2022-06-08 13:21:32</time>
      </trkpt>
      <trkpt lat="42.95725" lon="-0.27637">
        <ele>1433.2</ele>
        <time>2022-06-08 13:21:33</time>
      </trkpt>
      <trkpt lat="42.95727" lon="-0.27638">
        <ele>1433.2</ele>
        <time>2022-06-08 13:21:34</time>
      </trkpt>
      <trkpt lat="42.9573" lon="-0.27638">
        <ele>1433.4</ele>
        <time>2022-06-08 13:21:35</time>
      </trkpt>
      <trkpt lat="42.95733" lon="-0.27639">
        <ele>1433.6</ele>
        <time>2022-06-08 13:21:36</time>
      </trkpt>
      <trkpt lat="42.95735" lon="-0.27641">
        <ele>1433.8</ele>
        <time>2022-06-08 13:21:37</time>
      </trkpt>
      <trkpt lat="42.95738" lon="-0.27643">
        <ele>1434</ele>
        <time>2022-06-08 13:21:38</time>
      </trkpt>
      <trkpt lat="42.95741" lon="-0.27645">
        <ele>1434</ele>
        <time>2022-06-08 13:21:39</time>
      </trkpt>
      <trkpt lat="42.95743" lon="-0.27646">
        <ele>1434.2</ele>
        <time>2022-06-08 13:21:40</time>
      </trkpt>
      <trkpt lat="42.95745" lon="-0.27648">
        <ele>1434.6</ele>
        <time>2022-06-08 13:21:41</time>
      </trkpt>
      <trkpt lat="42.95748" lon="-0.2765">
        <ele>1434.8</ele>
        <time>2022-06-08 13:21:42</time>
      </trkpt>
      <trkpt lat="42.9575" lon="-0.27651">
        <ele>1435</ele>
        <time>2022-06-08 13:21:43</time>
      </trkpt>
      <trkpt lat="42.95753" lon="-0.27653">
        <ele>1435.6</ele>
        <time>2022-06-08 13:21:44</time>
      </trkpt>
      <trkpt lat="42.95755" lon="-0.27655">
        <ele>1435.8</ele>
        <time>2022-06-08 13:21:45</time>
      </trkpt>
      <trkpt lat="42.95758" lon="-0.27656">
        <ele>1436</ele>
        <time>2022-06-08 13:21:46</time>
      </trkpt>
      <trkpt lat="42.9576" lon="-0.27658">
        <ele>1436</ele>
        <time>2022-06-08 13:21:47</time>
      </trkpt>
      <trkpt lat="42.95763" lon="-0.27659">
        <ele>1436.4</ele>
        <time>2022-06-08 13:21:48</time>
      </trkpt>
      <trkpt lat="42.95766" lon="-0.2766">
        <ele>1436.6</ele>
        <time>2022-06-08 13:21:49</time>
      </trkpt>
      <trkpt lat="42.95769" lon="-0.2766">
        <ele>1436.8</ele>
        <time>2022-06-08 13:21:50</time>
      </trkpt>
      <trkpt lat="42.95772" lon="-0.2766">
        <ele>1437.2</ele>
        <time>2022-06-08 13:21:51</time>
      </trkpt>
      <trkpt lat="42.95774" lon="-0.27659">
        <ele>1437.4</ele>
        <time>2022-06-08 13:21:52</time>
      </trkpt>
      <trkpt lat="42.95777" lon="-0.27658">
        <ele>1437.8</ele>
        <time>2022-06-08 13:21:53</time>
      </trkpt>
      <trkpt lat="42.95779" lon="-0.27656">
        <ele>1438.2</ele>
        <time>2022-06-08 13:21:54</time>
      </trkpt>
      <trkpt lat="42.95781" lon="-0.27654">
        <ele>1438.4</ele>
        <time>2022-06-08 13:21:55</time>
      </trkpt>
      <trkpt lat="42.95783" lon="-0.27652">
        <ele>1438.8</ele>
        <time>2022-06-08 13:21:56</time>
      </trkpt>
      <trkpt lat="42.95785" lon="-0.27649">
        <ele>1439</ele>
        <time>2022-06-08 13:21:57</time>
      </trkpt>
      <trkpt lat="42.95787" lon="-0.27646">
        <ele>1439.2</ele>
        <time>2022-06-08 13:21:58</time>
      </trkpt>
      <trkpt lat="42.95789" lon="-0.27643">
        <ele>1439.4</ele>
        <time>2022-06-08 13:21:59</time>
      </trkpt>
      <trkpt lat="42.9579" lon="-0.27639">
        <ele>1439.6</ele>
        <time>2022-06-08 13:22:00</time>
      </trkpt>
      <trkpt lat="42.95791" lon="-0.27635">
        <ele>1439.8</ele>
        <time>2022-06-08 13:22:01</time>
      </trkpt>
      <trkpt lat="42.95792" lon="-0.27632">
        <ele>1440</ele>
        <time>2022-06-08 13:22:02</time>
      </trkpt>
      <trkpt lat="42.95793" lon="-0.27628">
        <ele>1440.6</ele>
        <time>2022-06-08 13:22:03</time>
      </trkpt>
      <trkpt lat="42.95794" lon="-0.27625">
        <ele>1441</ele>
        <time>2022-06-08 13:22:04</time>
      </trkpt>
      <trkpt lat="42.95795" lon="-0.27621">
        <ele>1441.4</ele>
        <time>2022-06-08 13:22:05</time>
      </trkpt>
      <trkpt lat="42.95796" lon="-0.27617">
        <ele>1441.6</ele>
        <time>2022-06-08 13:22:06</time>
      </trkpt>
      <trkpt lat="42.95797" lon="-0.27613">
        <ele>1442</ele>
        <time>2022-06-08 13:22:07</time>
      </trkpt>
      <trkpt lat="42.95798" lon="-0.27609">
        <ele>1442.4</ele>
        <time>2022-06-08 13:22:08</time>
      </trkpt>
      <trkpt lat="42.95799" lon="-0.27606">
        <ele>1442.4</ele>
        <time>2022-06-08 13:22:09</time>
      </trkpt>
      <trkpt lat="42.958" lon="-0.27602">
        <ele>1442.6</ele>
        <time>2022-06-08 13:22:10</time>
      </trkpt>
      <trkpt lat="42.95801" lon="-0.27598">
        <ele>1442.8</ele>
        <time>2022-06-08 13:22:11</time>
      </trkpt>
      <trkpt lat="42.95802" lon="-0.27595">
        <ele>1443.2</ele>
        <time>2022-06-08 13:22:12</time>
      </trkpt>
      <trkpt lat="42.95804" lon="-0.27591">
        <ele>1443.4</ele>
        <time>2022-06-08 13:22:13</time>
      </trkpt>
      <trkpt lat="42.95804" lon="-0.27588">
        <ele>1443.8</ele>
        <time>2022-06-08 13:22:14</time>
      </trkpt>
      <trkpt lat="42.95805" lon="-0.27584">
        <ele>1444</ele>
        <time>2022-06-08 13:22:15</time>
      </trkpt>
      <trkpt lat="42.95806" lon="-0.2758">
        <ele>1444.2</ele>
        <time>2022-06-08 13:22:16</time>
      </trkpt>
      <trkpt lat="42.95808" lon="-0.27577">
        <ele>1444.4</ele>
        <time>2022-06-08 13:22:17</time>
      </trkpt>
      <trkpt lat="42.95809" lon="-0.27573">
        <ele>1444.6</ele>
        <time>2022-06-08 13:22:18</time>
      </trkpt>
      <trkpt lat="42.9581" lon="-0.27569">
        <ele>1444.8</ele>
        <time>2022-06-08 13:22:19</time>
      </trkpt>
      <trkpt lat="42.95811" lon="-0.27565">
        <ele>1445</ele>
        <time>2022-06-08 13:22:20</time>
      </trkpt>
      <trkpt lat="42.95812" lon="-0.27561">
        <ele>1445.2</ele>
        <time>2022-06-08 13:22:21</time>
      </trkpt>
      <trkpt lat="42.95813" lon="-0.27556">
        <ele>1445.4</ele>
        <time>2022-06-08 13:22:22</time>
      </trkpt>
      <trkpt lat="42.95813" lon="-0.27552">
        <ele>1445.8</ele>
        <time>2022-06-08 13:22:23</time>
      </trkpt>
      <trkpt lat="42.95814" lon="-0.27548">
        <ele>1446</ele>
        <time>2022-06-08 13:22:24</time>
      </trkpt>
      <trkpt lat="42.95815" lon="-0.27544">
        <ele>1446.2</ele>
        <time>2022-06-08 13:22:25</time>
      </trkpt>
      <trkpt lat="42.95815" lon="-0.2754">
        <ele>1446.2</ele>
        <time>2022-06-08 13:22:26</time>
      </trkpt>
      <trkpt lat="42.95816" lon="-0.27536">
        <ele>1446.6</ele>
        <time>2022-06-08 13:22:27</time>
      </trkpt>
      <trkpt lat="42.95816" lon="-0.27531">
        <ele>1447</ele>
        <time>2022-06-08 13:22:28</time>
      </trkpt>
      <trkpt lat="42.95817" lon="-0.27527">
        <ele>1447.2</ele>
        <time>2022-06-08 13:22:29</time>
      </trkpt>
      <trkpt lat="42.95818" lon="-0.27523">
        <ele>1447.4</ele>
        <time>2022-06-08 13:22:30</time>
      </trkpt>
      <trkpt lat="42.95819" lon="-0.27518">
        <ele>1447.4</ele>
        <time>2022-06-08 13:22:31</time>
      </trkpt>
      <trkpt lat="42.95819" lon="-0.27514">
        <ele>1447.6</ele>
        <time>2022-06-08 13:22:32</time>
      </trkpt>
      <trkpt lat="42.9582" lon="-0.2751">
        <ele>1447.8</ele>
        <time>2022-06-08 13:22:33</time>
      </trkpt>
      <trkpt lat="42.9582" lon="-0.27505">
        <ele>1447.8</ele>
        <time>2022-06-08 13:22:34</time>
      </trkpt>
      <trkpt lat="42.95822" lon="-0.27501">
        <ele>1447.8</ele>
        <time>2022-06-08 13:22:35</time>
      </trkpt>
      <trkpt lat="42.95823" lon="-0.27497">
        <ele>1448</ele>
        <time>2022-06-08 13:22:36</time>
      </trkpt>
      <trkpt lat="42.95824" lon="-0.27492">
        <ele>1448.2</ele>
        <time>2022-06-08 13:22:37</time>
      </trkpt>
      <trkpt lat="42.95826" lon="-0.27488">
        <ele>1448.6</ele>
        <time>2022-06-08 13:22:38</time>
      </trkpt>
      <trkpt lat="42.95827" lon="-0.27483">
        <ele>1448.6</ele>
        <time>2022-06-08 13:22:39</time>
      </trkpt>
      <trkpt lat="42.95829" lon="-0.27479">
        <ele>1449</ele>
        <time>2022-06-08 13:22:40</time>
      </trkpt>
      <trkpt lat="42.95831" lon="-0.27476">
        <ele>1449</ele>
        <time>2022-06-08 13:22:41</time>
      </trkpt>
      <trkpt lat="42.95833" lon="-0.27472">
        <ele>1449.6</ele>
        <time>2022-06-08 13:22:42</time>
      </trkpt>
      <trkpt lat="42.95835" lon="-0.27468">
        <ele>1449.8</ele>
        <time>2022-06-08 13:22:43</time>
      </trkpt>
      <trkpt lat="42.95837" lon="-0.27464">
        <ele>1450</ele>
        <time>2022-06-08 13:22:44</time>
      </trkpt>
      <trkpt lat="42.95839" lon="-0.2746">
        <ele>1450.4</ele>
        <time>2022-06-08 13:22:45</time>
      </trkpt>
      <trkpt lat="42.9584" lon="-0.27456">
        <ele>1450.4</ele>
        <time>2022-06-08 13:22:46</time>
      </trkpt>
      <trkpt lat="42.95841" lon="-0.27452">
        <ele>1450.8</ele>
        <time>2022-06-08 13:22:47</time>
      </trkpt>
      <trkpt lat="42.95842" lon="-0.27447">
        <ele>1450.8</ele>
        <time>2022-06-08 13:22:48</time>
      </trkpt>
      <trkpt lat="42.95842" lon="-0.27443">
        <ele>1451.2</ele>
        <time>2022-06-08 13:22:49</time>
      </trkpt>
      <trkpt lat="42.95843" lon="-0.27438">
        <ele>1451.2</ele>
        <time>2022-06-08 13:22:50</time>
      </trkpt>
      <trkpt lat="42.95842" lon="-0.27434">
        <ele>1451.4</ele>
        <time>2022-06-08 13:22:51</time>
      </trkpt>
      <trkpt lat="42.95841" lon="-0.27429">
        <ele>1451.6</ele>
        <time>2022-06-08 13:22:52</time>
      </trkpt>
      <trkpt lat="42.9584" lon="-0.27424">
        <ele>1451.8</ele>
        <time>2022-06-08 13:22:53</time>
      </trkpt>
      <trkpt lat="42.95839" lon="-0.27418">
        <ele>1452.2</ele>
        <time>2022-06-08 13:22:54</time>
      </trkpt>
      <trkpt lat="42.95836" lon="-0.27413">
        <ele>1452.2</ele>
        <time>2022-06-08 13:22:55</time>
      </trkpt>
      <trkpt lat="42.95834" lon="-0.27408">
        <ele>1452.2</ele>
        <time>2022-06-08 13:22:56</time>
      </trkpt>
      <trkpt lat="42.95832" lon="-0.27403">
        <ele>1452.4</ele>
        <time>2022-06-08 13:22:57</time>
      </trkpt>
      <trkpt lat="42.95829" lon="-0.27398">
        <ele>1452.4</ele>
        <time>2022-06-08 13:22:58</time>
      </trkpt>
      <trkpt lat="42.95827" lon="-0.27392">
        <ele>1452.4</ele>
        <time>2022-06-08 13:22:59</time>
      </trkpt>
      <trkpt lat="42.95825" lon="-0.27387">
        <ele>1452.6</ele>
        <time>2022-06-08 13:23:00</time>
      </trkpt>
      <trkpt lat="42.95823" lon="-0.27382">
        <ele>1452.6</ele>
        <time>2022-06-08 13:23:01</time>
      </trkpt>
      <trkpt lat="42.95821" lon="-0.27376">
        <ele>1452.8</ele>
        <time>2022-06-08 13:23:02</time>
      </trkpt>
      <trkpt lat="42.95819" lon="-0.27371">
        <ele>1452.8</ele>
        <time>2022-06-08 13:23:03</time>
      </trkpt>
      <trkpt lat="42.95817" lon="-0.27366">
        <ele>1453</ele>
        <time>2022-06-08 13:23:04</time>
      </trkpt>
      <trkpt lat="42.95815" lon="-0.2736">
        <ele>1453</ele>
        <time>2022-06-08 13:23:05</time>
      </trkpt>
      <trkpt lat="42.95814" lon="-0.27355">
        <ele>1453.2</ele>
        <time>2022-06-08 13:23:06</time>
      </trkpt>
      <trkpt lat="42.95812" lon="-0.27349">
        <ele>1453.4</ele>
        <time>2022-06-08 13:23:07</time>
      </trkpt>
      <trkpt lat="42.95811" lon="-0.27344">
        <ele>1453.4</ele>
        <time>2022-06-08 13:23:08</time>
      </trkpt>
      <trkpt lat="42.9581" lon="-0.27339">
        <ele>1454</ele>
        <time>2022-06-08 13:23:09</time>
      </trkpt>
      <trkpt lat="42.95809" lon="-0.27333">
        <ele>1454.2</ele>
        <time>2022-06-08 13:23:10</time>
      </trkpt>
      <trkpt lat="42.95808" lon="-0.27327">
        <ele>1454.4</ele>
        <time>2022-06-08 13:23:11</time>
      </trkpt>
      <trkpt lat="42.95808" lon="-0.27321">
        <ele>1454.6</ele>
        <time>2022-06-08 13:23:12</time>
      </trkpt>
      <trkpt lat="42.95808" lon="-0.27315">
        <ele>1454.6</ele>
        <time>2022-06-08 13:23:13</time>
      </trkpt>
      <trkpt lat="42.95807" lon="-0.27308">
        <ele>1454.8</ele>
        <time>2022-06-08 13:23:14</time>
      </trkpt>
      <trkpt lat="42.95806" lon="-0.27302">
        <ele>1454.8</ele>
        <time>2022-06-08 13:23:15</time>
      </trkpt>
      <trkpt lat="42.95806" lon="-0.27296">
        <ele>1455</ele>
        <time>2022-06-08 13:23:16</time>
      </trkpt>
      <trkpt lat="42.95806" lon="-0.2729">
        <ele>1455.2</ele>
        <time>2022-06-08 13:23:17</time>
      </trkpt>
      <trkpt lat="42.95806" lon="-0.27283">
        <ele>1455.4</ele>
        <time>2022-06-08 13:23:18</time>
      </trkpt>
      <trkpt lat="42.95807" lon="-0.27276">
        <ele>1455.6</ele>
        <time>2022-06-08 13:23:19</time>
      </trkpt>
      <trkpt lat="42.95808" lon="-0.27269">
        <ele>1455.8</ele>
        <time>2022-06-08 13:23:20</time>
      </trkpt>
      <trkpt lat="42.9581" lon="-0.27262">
        <ele>1455.8</ele>
        <time>2022-06-08 13:23:21</time>
      </trkpt>
      <trkpt lat="42.95812" lon="-0.27256">
        <ele>1455.6</ele>
        <time>2022-06-08 13:23:22</time>
      </trkpt>
      <trkpt lat="42.95813" lon="-0.27249">
        <ele>1455.6</ele>
        <time>2022-06-08 13:23:23</time>
      </trkpt>
      <trkpt lat="42.95815" lon="-0.27242">
        <ele>1455.6</ele>
        <time>2022-06-08 13:23:24</time>
      </trkpt>
      <trkpt lat="42.95817" lon="-0.27236">
        <ele>1455.6</ele>
        <time>2022-06-08 13:23:25</time>
      </trkpt>
      <trkpt lat="42.95819" lon="-0.27229">
        <ele>1455.6</ele>
        <time>2022-06-08 13:23:26</time>
      </trkpt>
      <trkpt lat="42.95821" lon="-0.27223">
        <ele>1455.6</ele>
        <time>2022-06-08 13:23:27</time>
      </trkpt>
      <trkpt lat="42.95823" lon="-0.27216">
        <ele>1455.8</ele>
        <time>2022-06-08 13:23:28</time>
      </trkpt>
      <trkpt lat="42.95825" lon="-0.2721">
        <ele>1455.8</ele>
        <time>2022-06-08 13:23:29</time>
      </trkpt>
      <trkpt lat="42.95827" lon="-0.27203">
        <ele>1455.8</ele>
        <time>2022-06-08 13:23:30</time>
      </trkpt>
      <trkpt lat="42.95829" lon="-0.27196">
        <ele>1455.8</ele>
        <time>2022-06-08 13:23:31</time>
      </trkpt>
      <trkpt lat="42.95831" lon="-0.27189">
        <ele>1455.8</ele>
        <time>2022-06-08 13:23:32</time>
      </trkpt>
      <trkpt lat="42.95833" lon="-0.27182">
        <ele>1455.8</ele>
        <time>2022-06-08 13:23:33</time>
      </trkpt>
      <trkpt lat="42.95835" lon="-0.27174">
        <ele>1455.8</ele>
        <time>2022-06-08 13:23:34</time>
      </trkpt>
      <trkpt lat="42.95835" lon="-0.27166">
        <ele>1456.2</ele>
        <time>2022-06-08 13:23:35</time>
      </trkpt>
      <trkpt lat="42.95836" lon="-0.27159">
        <ele>1456</ele>
        <time>2022-06-08 13:23:36</time>
      </trkpt>
      <trkpt lat="42.95836" lon="-0.27151">
        <ele>1456.2</ele>
        <time>2022-06-08 13:23:37</time>
      </trkpt>
      <trkpt lat="42.95835" lon="-0.27143">
        <ele>1456.2</ele>
        <time>2022-06-08 13:23:38</time>
      </trkpt>
      <trkpt lat="42.95835" lon="-0.27135">
        <ele>1456.2</ele>
        <time>2022-06-08 13:23:39</time>
      </trkpt>
      <trkpt lat="42.95834" lon="-0.27126">
        <ele>1456</ele>
        <time>2022-06-08 13:23:40</time>
      </trkpt>
      <trkpt lat="42.95833" lon="-0.27117">
        <ele>1456</ele>
        <time>2022-06-08 13:23:41</time>
      </trkpt>
      <trkpt lat="42.95832" lon="-0.27108">
        <ele>1456</ele>
        <time>2022-06-08 13:23:42</time>
      </trkpt>
      <trkpt lat="42.95831" lon="-0.27099">
        <ele>1456</ele>
        <time>2022-06-08 13:23:43</time>
      </trkpt>
      <trkpt lat="42.9583" lon="-0.2709">
        <ele>1456</ele>
        <time>2022-06-08 13:23:44</time>
      </trkpt>
      <trkpt lat="42.95829" lon="-0.2708">
        <ele>1456</ele>
        <time>2022-06-08 13:23:45</time>
      </trkpt>
      <trkpt lat="42.95829" lon="-0.2707">
        <ele>1456</ele>
        <time>2022-06-08 13:23:46</time>
      </trkpt>
      <trkpt lat="42.95831" lon="-0.2706">
        <ele>1456.2</ele>
        <time>2022-06-08 13:23:47</time>
      </trkpt>
      <trkpt lat="42.95834" lon="-0.27051">
        <ele>1456.2</ele>
        <time>2022-06-08 13:23:48</time>
      </trkpt>
      <trkpt lat="42.95838" lon="-0.27042">
        <ele>1456.2</ele>
        <time>2022-06-08 13:23:49</time>
      </trkpt>
      <trkpt lat="42.95843" lon="-0.27034">
        <ele>1456.2</ele>
        <time>2022-06-08 13:23:50</time>
      </trkpt>
      <trkpt lat="42.95848" lon="-0.27026">
        <ele>1456.2</ele>
        <time>2022-06-08 13:23:51</time>
      </trkpt>
      <trkpt lat="42.95853" lon="-0.27019">
        <ele>1456.4</ele>
        <time>2022-06-08 13:23:52</time>
      </trkpt>
      <trkpt lat="42.95857" lon="-0.27011">
        <ele>1456.4</ele>
        <time>2022-06-08 13:23:53</time>
      </trkpt>
      <trkpt lat="42.95861" lon="-0.27002">
        <ele>1456.8</ele>
        <time>2022-06-08 13:23:54</time>
      </trkpt>
      <trkpt lat="42.95864" lon="-0.26993">
        <ele>1457</ele>
        <time>2022-06-08 13:23:55</time>
      </trkpt>
      <trkpt lat="42.95868" lon="-0.26984">
        <ele>1457.4</ele>
        <time>2022-06-08 13:23:56</time>
      </trkpt>
      <trkpt lat="42.95871" lon="-0.26975">
        <ele>1457.6</ele>
        <time>2022-06-08 13:23:57</time>
      </trkpt>
      <trkpt lat="42.95873" lon="-0.26965">
        <ele>1457.8</ele>
        <time>2022-06-08 13:23:58</time>
      </trkpt>
      <trkpt lat="42.95876" lon="-0.26956">
        <ele>1458</ele>
        <time>2022-06-08 13:23:59</time>
      </trkpt>
      <trkpt lat="42.95878" lon="-0.26947">
        <ele>1458</ele>
        <time>2022-06-08 13:24:00</time>
      </trkpt>
      <trkpt lat="42.95881" lon="-0.26938">
        <ele>1458.4</ele>
        <time>2022-06-08 13:24:01</time>
      </trkpt>
      <trkpt lat="42.95885" lon="-0.2693">
        <ele>1458.6</ele>
        <time>2022-06-08 13:24:02</time>
      </trkpt>
      <trkpt lat="42.95889" lon="-0.26923">
        <ele>1458.8</ele>
        <time>2022-06-08 13:24:03</time>
      </trkpt>
      <trkpt lat="42.95894" lon="-0.26917">
        <ele>1459</ele>
        <time>2022-06-08 13:24:04</time>
      </trkpt>
      <trkpt lat="42.95899" lon="-0.26911">
        <ele>1459.2</ele>
        <time>2022-06-08 13:24:05</time>
      </trkpt>
      <trkpt lat="42.95904" lon="-0.26904">
        <ele>1459.4</ele>
        <time>2022-06-08 13:24:06</time>
      </trkpt>
      <trkpt lat="42.9591" lon="-0.26896">
        <ele>1459.6</ele>
        <time>2022-06-08 13:24:07</time>
      </trkpt>
      <trkpt lat="42.95915" lon="-0.26888">
        <ele>1459.6</ele>
        <time>2022-06-08 13:24:08</time>
      </trkpt>
      <trkpt lat="42.9592" lon="-0.26881">
        <ele>1459.6</ele>
        <time>2022-06-08 13:24:09</time>
      </trkpt>
      <trkpt lat="42.95923" lon="-0.26875">
        <ele>1459.8</ele>
        <time>2022-06-08 13:24:10</time>
      </trkpt>
      <trkpt lat="42.95927" lon="-0.26866">
        <ele>1459.8</ele>
        <time>2022-06-08 13:24:11</time>
      </trkpt>
      <trkpt lat="42.95929" lon="-0.26861">
        <ele>1460</ele>
        <time>2022-06-08 13:24:12</time>
      </trkpt>
      <trkpt lat="42.95932" lon="-0.26853">
        <ele>1460</ele>
        <time>2022-06-08 13:24:13</time>
      </trkpt>
      <trkpt lat="42.95935" lon="-0.26846">
        <ele>1460</ele>
        <time>2022-06-08 13:24:14</time>
      </trkpt>
      <trkpt lat="42.95937" lon="-0.26839">
        <ele>1460</ele>
        <time>2022-06-08 13:24:15</time>
      </trkpt>
      <trkpt lat="42.95938" lon="-0.26831">
        <ele>1460.2</ele>
        <time>2022-06-08 13:24:16</time>
      </trkpt>
      <trkpt lat="42.9594" lon="-0.26823">
        <ele>1460.2</ele>
        <time>2022-06-08 13:24:17</time>
      </trkpt>
      <trkpt lat="42.9594" lon="-0.26815">
        <ele>1460.4</ele>
        <time>2022-06-08 13:24:18</time>
      </trkpt>
      <trkpt lat="42.95941" lon="-0.26807">
        <ele>1460.6</ele>
        <time>2022-06-08 13:24:19</time>
      </trkpt>
      <trkpt lat="42.95942" lon="-0.26799">
        <ele>1460.8</ele>
        <time>2022-06-08 13:24:20</time>
      </trkpt>
      <trkpt lat="42.95942" lon="-0.26791">
        <ele>1460.8</ele>
        <time>2022-06-08 13:24:21</time>
      </trkpt>
      <trkpt lat="42.95943" lon="-0.26783">
        <ele>1461</ele>
        <time>2022-06-08 13:24:22</time>
      </trkpt>
      <trkpt lat="42.95943" lon="-0.26775">
        <ele>1461</ele>
        <time>2022-06-08 13:24:23</time>
      </trkpt>
      <trkpt lat="42.95944" lon="-0.26767">
        <ele>1461.2</ele>
        <time>2022-06-08 13:24:24</time>
      </trkpt>
      <trkpt lat="42.95946" lon="-0.26759">
        <ele>1461.4</ele>
        <time>2022-06-08 13:24:25</time>
      </trkpt>
      <trkpt lat="42.95947" lon="-0.26751">
        <ele>1461.4</ele>
        <time>2022-06-08 13:24:26</time>
      </trkpt>
      <trkpt lat="42.95949" lon="-0.26743">
        <ele>1461.4</ele>
        <time>2022-06-08 13:24:27</time>
      </trkpt>
      <trkpt lat="42.95951" lon="-0.26734">
        <ele>1461.6</ele>
        <time>2022-06-08 13:24:28</time>
      </trkpt>
      <trkpt lat="42.95952" lon="-0.26726">
        <ele>1461.6</ele>
        <time>2022-06-08 13:24:29</time>
      </trkpt>
      <trkpt lat="42.95954" lon="-0.26717">
        <ele>1461.8</ele>
        <time>2022-06-08 13:24:30</time>
      </trkpt>
      <trkpt lat="42.95955" lon="-0.26709">
        <ele>1461.8</ele>
        <time>2022-06-08 13:24:31</time>
      </trkpt>
      <trkpt lat="42.95957" lon="-0.26702">
        <ele>1461.8</ele>
        <time>2022-06-08 13:24:32</time>
      </trkpt>
      <trkpt lat="42.95959" lon="-0.26692">
        <ele>1462</ele>
        <time>2022-06-08 13:24:33</time>
      </trkpt>
      <trkpt lat="42.95961" lon="-0.26684">
        <ele>1462.2</ele>
        <time>2022-06-08 13:24:34</time>
      </trkpt>
      <trkpt lat="42.95962" lon="-0.26675">
        <ele>1462.4</ele>
        <time>2022-06-08 13:24:35</time>
      </trkpt>
      <trkpt lat="42.95964" lon="-0.26667">
        <ele>1462.4</ele>
        <time>2022-06-08 13:24:36</time>
      </trkpt>
      <trkpt lat="42.95966" lon="-0.26658">
        <ele>1462.6</ele>
        <time>2022-06-08 13:24:37</time>
      </trkpt>
      <trkpt lat="42.95967" lon="-0.2665">
        <ele>1462.8</ele>
        <time>2022-06-08 13:24:38</time>
      </trkpt>
      <trkpt lat="42.95969" lon="-0.26642">
        <ele>1462.8</ele>
        <time>2022-06-08 13:24:39</time>
      </trkpt>
      <trkpt lat="42.9597" lon="-0.26635">
        <ele>1463</ele>
        <time>2022-06-08 13:24:40</time>
      </trkpt>
      <trkpt lat="42.95971" lon="-0.26627">
        <ele>1463.4</ele>
        <time>2022-06-08 13:24:41</time>
      </trkpt>
      <trkpt lat="42.95973" lon="-0.26619">
        <ele>1463.8</ele>
        <time>2022-06-08 13:24:42</time>
      </trkpt>
      <trkpt lat="42.95974" lon="-0.26612">
        <ele>1463.8</ele>
        <time>2022-06-08 13:24:43</time>
      </trkpt>
      <trkpt lat="42.95976" lon="-0.26604">
        <ele>1464</ele>
        <time>2022-06-08 13:24:44</time>
      </trkpt>
      <trkpt lat="42.95977" lon="-0.26597">
        <ele>1464</ele>
        <time>2022-06-08 13:24:45</time>
      </trkpt>
      <trkpt lat="42.95979" lon="-0.26589">
        <ele>1464.2</ele>
        <time>2022-06-08 13:24:46</time>
      </trkpt>
      <trkpt lat="42.9598" lon="-0.26582">
        <ele>1464.2</ele>
        <time>2022-06-08 13:24:47</time>
      </trkpt>
      <trkpt lat="42.95981" lon="-0.26575">
        <ele>1464.6</ele>
        <time>2022-06-08 13:24:48</time>
      </trkpt>
      <trkpt lat="42.95983" lon="-0.2657">
        <ele>1464.8</ele>
        <time>2022-06-08 13:24:49</time>
      </trkpt>
      <trkpt lat="42.95984" lon="-0.26564">
        <ele>1464.8</ele>
        <time>2022-06-08 13:24:50</time>
      </trkpt>
      <trkpt lat="42.95986" lon="-0.26558">
        <ele>1465.4</ele>
        <time>2022-06-08 13:24:51</time>
      </trkpt>
      <trkpt lat="42.95987" lon="-0.26553">
        <ele>1465.6</ele>
        <time>2022-06-08 13:24:52</time>
      </trkpt>
      <trkpt lat="42.95988" lon="-0.26548">
        <ele>1466.2</ele>
        <time>2022-06-08 13:24:53</time>
      </trkpt>
      <trkpt lat="42.95989" lon="-0.26543">
        <ele>1466.4</ele>
        <time>2022-06-08 13:24:54</time>
      </trkpt>
      <trkpt lat="42.95989" lon="-0.26538">
        <ele>1466.8</ele>
        <time>2022-06-08 13:24:55</time>
      </trkpt>
      <trkpt lat="42.95991" lon="-0.26532">
        <ele>1467</ele>
        <time>2022-06-08 13:24:56</time>
      </trkpt>
      <trkpt lat="42.95991" lon="-0.26526">
        <ele>1467.4</ele>
        <time>2022-06-08 13:24:57</time>
      </trkpt>
      <trkpt lat="42.95992" lon="-0.26521">
        <ele>1467.6</ele>
        <time>2022-06-08 13:24:58</time>
      </trkpt>
      <trkpt lat="42.95992" lon="-0.26516">
        <ele>1468</ele>
        <time>2022-06-08 13:24:59</time>
      </trkpt>
      <trkpt lat="42.95993" lon="-0.26511">
        <ele>1468.2</ele>
        <time>2022-06-08 13:25:00</time>
      </trkpt>
      <trkpt lat="42.95993" lon="-0.26506">
        <ele>1468.6</ele>
        <time>2022-06-08 13:25:01</time>
      </trkpt>
      <trkpt lat="42.95993" lon="-0.26501">
        <ele>1468.8</ele>
        <time>2022-06-08 13:25:02</time>
      </trkpt>
      <trkpt lat="42.95994" lon="-0.26496">
        <ele>1468.8</ele>
        <time>2022-06-08 13:25:03</time>
      </trkpt>
      <trkpt lat="42.95995" lon="-0.26491">
        <ele>1469.4</ele>
        <time>2022-06-08 13:25:04</time>
      </trkpt>
      <trkpt lat="42.95997" lon="-0.26487">
        <ele>1469.8</ele>
        <time>2022-06-08 13:25:05</time>
      </trkpt>
      <trkpt lat="42.95998" lon="-0.26482">
        <ele>1470.2</ele>
        <time>2022-06-08 13:25:06</time>
      </trkpt>
      <trkpt lat="42.96001" lon="-0.26477">
        <ele>1470.4</ele>
        <time>2022-06-08 13:25:07</time>
      </trkpt>
      <trkpt lat="42.96004" lon="-0.26471">
        <ele>1470.6</ele>
        <time>2022-06-08 13:25:08</time>
      </trkpt>
      <trkpt lat="42.96006" lon="-0.26467">
        <ele>1470.8</ele>
        <time>2022-06-08 13:25:09</time>
      </trkpt>
      <trkpt lat="42.96008" lon="-0.26463">
        <ele>1471.2</ele>
        <time>2022-06-08 13:25:10</time>
      </trkpt>
      <trkpt lat="42.96011" lon="-0.26457">
        <ele>1471.6</ele>
        <time>2022-06-08 13:25:11</time>
      </trkpt>
      <trkpt lat="42.96014" lon="-0.26452">
        <ele>1472</ele>
        <time>2022-06-08 13:25:12</time>
      </trkpt>
      <trkpt lat="42.96017" lon="-0.26448">
        <ele>1472</ele>
        <time>2022-06-08 13:25:13</time>
      </trkpt>
      <trkpt lat="42.9602" lon="-0.26443">
        <ele>1472.4</ele>
        <time>2022-06-08 13:25:14</time>
      </trkpt>
      <trkpt lat="42.96022" lon="-0.26438">
        <ele>1472.8</ele>
        <time>2022-06-08 13:25:15</time>
      </trkpt>
      <trkpt lat="42.96025" lon="-0.26433">
        <ele>1472.8</ele>
        <time>2022-06-08 13:25:16</time>
      </trkpt>
      <trkpt lat="42.96027" lon="-0.26428">
        <ele>1473</ele>
        <time>2022-06-08 13:25:17</time>
      </trkpt>
      <trkpt lat="42.96029" lon="-0.26422">
        <ele>1473.2</ele>
        <time>2022-06-08 13:25:18</time>
      </trkpt>
      <trkpt lat="42.96031" lon="-0.26416">
        <ele>1473.4</ele>
        <time>2022-06-08 13:25:19</time>
      </trkpt>
      <trkpt lat="42.96032" lon="-0.2641">
        <ele>1473.6</ele>
        <time>2022-06-08 13:25:20</time>
      </trkpt>
      <trkpt lat="42.96034" lon="-0.26404">
        <ele>1473.8</ele>
        <time>2022-06-08 13:25:21</time>
      </trkpt>
      <trkpt lat="42.96037" lon="-0.26397">
        <ele>1474.2</ele>
        <time>2022-06-08 13:25:22</time>
      </trkpt>
      <trkpt lat="42.96039" lon="-0.2639">
        <ele>1474.6</ele>
        <time>2022-06-08 13:25:23</time>
      </trkpt>
      <trkpt lat="42.96041" lon="-0.26383">
        <ele>1474.8</ele>
        <time>2022-06-08 13:25:24</time>
      </trkpt>
      <trkpt lat="42.96042" lon="-0.26377">
        <ele>1475.6</ele>
        <time>2022-06-08 13:25:25</time>
      </trkpt>
      <trkpt lat="42.96044" lon="-0.26371">
        <ele>1475.8</ele>
        <time>2022-06-08 13:25:26</time>
      </trkpt>
      <trkpt lat="42.96045" lon="-0.26365">
        <ele>1476.2</ele>
        <time>2022-06-08 13:25:27</time>
      </trkpt>
      <trkpt lat="42.96046" lon="-0.2636">
        <ele>1476.8</ele>
        <time>2022-06-08 13:25:28</time>
      </trkpt>
      <trkpt lat="42.96047" lon="-0.26355">
        <ele>1477.2</ele>
        <time>2022-06-08 13:25:29</time>
      </trkpt>
      <trkpt lat="42.96048" lon="-0.26349">
        <ele>1477.6</ele>
        <time>2022-06-08 13:25:30</time>
      </trkpt>
      <trkpt lat="42.96049" lon="-0.26344">
        <ele>1477.8</ele>
        <time>2022-06-08 13:25:31</time>
      </trkpt>
      <trkpt lat="42.96049" lon="-0.2634">
        <ele>1478.2</ele>
        <time>2022-06-08 13:25:32</time>
      </trkpt>
      <trkpt lat="42.9605" lon="-0.26334">
        <ele>1478.2</ele>
        <time>2022-06-08 13:25:33</time>
      </trkpt>
      <trkpt lat="42.96051" lon="-0.26329">
        <ele>1478.8</ele>
        <time>2022-06-08 13:25:34</time>
      </trkpt>
      <trkpt lat="42.96051" lon="-0.26324">
        <ele>1479</ele>
        <time>2022-06-08 13:25:35</time>
      </trkpt>
      <trkpt lat="42.96052" lon="-0.26319">
        <ele>1479.4</ele>
        <time>2022-06-08 13:25:36</time>
      </trkpt>
      <trkpt lat="42.96052" lon="-0.26314">
        <ele>1479.4</ele>
        <time>2022-06-08 13:25:37</time>
      </trkpt>
      <trkpt lat="42.96053" lon="-0.2631">
        <ele>1479.8</ele>
        <time>2022-06-08 13:25:38</time>
      </trkpt>
      <trkpt lat="42.96053" lon="-0.26305">
        <ele>1480.2</ele>
        <time>2022-06-08 13:25:39</time>
      </trkpt>
      <trkpt lat="42.96053" lon="-0.263">
        <ele>1480.6</ele>
        <time>2022-06-08 13:25:40</time>
      </trkpt>
      <trkpt lat="42.96054" lon="-0.26296">
        <ele>1481</ele>
        <time>2022-06-08 13:25:41</time>
      </trkpt>
      <trkpt lat="42.96054" lon="-0.26291">
        <ele>1481.2</ele>
        <time>2022-06-08 13:25:42</time>
      </trkpt>
      <trkpt lat="42.96055" lon="-0.26287">
        <ele>1481.4</ele>
        <time>2022-06-08 13:25:43</time>
      </trkpt>
      <trkpt lat="42.96056" lon="-0.26282">
        <ele>1481.8</ele>
        <time>2022-06-08 13:25:44</time>
      </trkpt>
      <trkpt lat="42.96056" lon="-0.26278">
        <ele>1482.2</ele>
        <time>2022-06-08 13:25:45</time>
      </trkpt>
      <trkpt lat="42.96056" lon="-0.26274">
        <ele>1482.4</ele>
        <time>2022-06-08 13:25:46</time>
      </trkpt>
      <trkpt lat="42.96057" lon="-0.2627">
        <ele>1482.8</ele>
        <time>2022-06-08 13:25:47</time>
      </trkpt>
      <trkpt lat="42.96058" lon="-0.26266">
        <ele>1482.8</ele>
        <time>2022-06-08 13:25:48</time>
      </trkpt>
      <trkpt lat="42.96059" lon="-0.26261">
        <ele>1483</ele>
        <time>2022-06-08 13:25:49</time>
      </trkpt>
      <trkpt lat="42.96059" lon="-0.26256">
        <ele>1483.2</ele>
        <time>2022-06-08 13:25:50</time>
      </trkpt>
      <trkpt lat="42.96059" lon="-0.26252">
        <ele>1483.4</ele>
        <time>2022-06-08 13:25:51</time>
      </trkpt>
      <trkpt lat="42.96059" lon="-0.26247">
        <ele>1483.6</ele>
        <time>2022-06-08 13:25:52</time>
      </trkpt>
      <trkpt lat="42.9606" lon="-0.26243">
        <ele>1483.8</ele>
        <time>2022-06-08 13:25:53</time>
      </trkpt>
      <trkpt lat="42.9606" lon="-0.26239">
        <ele>1484.2</ele>
        <time>2022-06-08 13:25:54</time>
      </trkpt>
      <trkpt lat="42.9606" lon="-0.26235">
        <ele>1484.4</ele>
        <time>2022-06-08 13:25:55</time>
      </trkpt>
      <trkpt lat="42.96061" lon="-0.26232">
        <ele>1484.6</ele>
        <time>2022-06-08 13:25:56</time>
      </trkpt>
      <trkpt lat="42.96061" lon="-0.26228">
        <ele>1484.8</ele>
        <time>2022-06-08 13:25:57</time>
      </trkpt>
      <trkpt lat="42.96062" lon="-0.26225">
        <ele>1485</ele>
        <time>2022-06-08 13:25:58</time>
      </trkpt>
      <trkpt lat="42.96063" lon="-0.26223">
        <ele>1485</ele>
        <time>2022-06-08 13:25:59</time>
      </trkpt>
      <trkpt lat="42.96063" lon="-0.26221">
        <ele>1485.6</ele>
        <time>2022-06-08 13:26:00</time>
      </trkpt>
      <trkpt lat="42.96064" lon="-0.26219">
        <ele>1485.8</ele>
        <time>2022-06-08 13:26:01</time>
      </trkpt>
      <trkpt lat="42.96065" lon="-0.26217">
        <ele>1486</ele>
        <time>2022-06-08 13:26:02</time>
      </trkpt>
      <trkpt lat="42.96066" lon="-0.26216">
        <ele>1486.2</ele>
        <time>2022-06-08 13:26:03</time>
      </trkpt>
      <trkpt lat="42.96067" lon="-0.26213">
        <ele>1486.4</ele>
        <time>2022-06-08 13:26:04</time>
      </trkpt>
      <trkpt lat="42.96069" lon="-0.26211">
        <ele>1486.4</ele>
        <time>2022-06-08 13:26:05</time>
      </trkpt>
      <trkpt lat="42.96069" lon="-0.26208">
        <ele>1486.6</ele>
        <time>2022-06-08 13:26:06</time>
      </trkpt>
      <trkpt lat="42.96069" lon="-0.26206">
        <ele>1486.6</ele>
        <time>2022-06-08 13:26:07</time>
      </trkpt>
      <trkpt lat="42.96069" lon="-0.26203">
        <ele>1486.8</ele>
        <time>2022-06-08 13:26:08</time>
      </trkpt>
      <trkpt lat="42.96068" lon="-0.26201">
        <ele>1487</ele>
        <time>2022-06-08 13:26:09</time>
      </trkpt>
      <trkpt lat="42.96068" lon="-0.26198">
        <ele>1487.2</ele>
        <time>2022-06-08 13:26:10</time>
      </trkpt>
      <trkpt lat="42.96068" lon="-0.26196">
        <ele>1487.4</ele>
        <time>2022-06-08 13:26:11</time>
      </trkpt>
      <trkpt lat="42.96069" lon="-0.26194">
        <ele>1487.6</ele>
        <time>2022-06-08 13:26:12</time>
      </trkpt>
      <trkpt lat="42.9607" lon="-0.26193">
        <ele>1487.8</ele>
        <time>2022-06-08 13:26:13</time>
      </trkpt>
      <trkpt lat="42.96071" lon="-0.26192">
        <ele>1487.8</ele>
        <time>2022-06-08 13:26:14</time>
      </trkpt>
      <trkpt lat="42.96072" lon="-0.26192">
        <ele>1488</ele>
        <time>2022-06-08 13:26:15</time>
      </trkpt>
      <trkpt lat="42.96073" lon="-0.26191">
        <ele>1488.2</ele>
        <time>2022-06-08 13:26:16</time>
      </trkpt>
      <trkpt lat="42.96074" lon="-0.2619">
        <ele>1488.4</ele>
        <time>2022-06-08 13:26:17</time>
      </trkpt>
      <trkpt lat="42.96075" lon="-0.2619">
        <ele>1488.6</ele>
        <time>2022-06-08 13:26:18</time>
      </trkpt>
      <trkpt lat="42.96076" lon="-0.26189">
        <ele>1488.6</ele>
        <time>2022-06-08 13:26:19</time>
      </trkpt>
      <trkpt lat="42.96076" lon="-0.26187">
        <ele>1488.8</ele>
        <time>2022-06-08 13:26:20</time>
      </trkpt>
      <trkpt lat="42.96076" lon="-0.26185">
        <ele>1488.8</ele>
        <time>2022-06-08 13:26:21</time>
      </trkpt>
      <trkpt lat="42.96074" lon="-0.26183">
        <ele>1488.8</ele>
        <time>2022-06-08 13:26:22</time>
      </trkpt>
      <trkpt lat="42.96073" lon="-0.26181">
        <ele>1489</ele>
        <time>2022-06-08 13:26:23</time>
      </trkpt>
      <trkpt lat="42.96073" lon="-0.26178">
        <ele>1489.2</ele>
        <time>2022-06-08 13:26:24</time>
      </trkpt>
      <trkpt lat="42.96072" lon="-0.26175">
        <ele>1489</ele>
        <time>2022-06-08 13:26:25</time>
      </trkpt>
      <trkpt lat="42.96071" lon="-0.26171">
        <ele>1489</ele>
        <time>2022-06-08 13:26:26</time>
      </trkpt>
      <trkpt lat="42.96071" lon="-0.26167">
        <ele>1489.2</ele>
        <time>2022-06-08 13:26:27</time>
      </trkpt>
      <trkpt lat="42.9607" lon="-0.26163">
        <ele>1489.4</ele>
        <time>2022-06-08 13:26:28</time>
      </trkpt>
      <trkpt lat="42.9607" lon="-0.26159">
        <ele>1489.4</ele>
        <time>2022-06-08 13:26:29</time>
      </trkpt>
      <trkpt lat="42.9607" lon="-0.26156">
        <ele>1489.6</ele>
        <time>2022-06-08 13:26:30</time>
      </trkpt>
      <trkpt lat="42.9607" lon="-0.26152">
        <ele>1489.8</ele>
        <time>2022-06-08 13:26:31</time>
      </trkpt>
      <trkpt lat="42.9607" lon="-0.26149">
        <ele>1490</ele>
        <time>2022-06-08 13:26:32</time>
      </trkpt>
      <trkpt lat="42.9607" lon="-0.26146">
        <ele>1490.4</ele>
        <time>2022-06-08 13:26:33</time>
      </trkpt>
      <trkpt lat="42.9607" lon="-0.26143">
        <ele>1490.6</ele>
        <time>2022-06-08 13:26:34</time>
      </trkpt>
      <trkpt lat="42.9607" lon="-0.26139">
        <ele>1490.8</ele>
        <time>2022-06-08 13:26:35</time>
      </trkpt>
      <trkpt lat="42.96071" lon="-0.26137">
        <ele>1490.8</ele>
        <time>2022-06-08 13:26:36</time>
      </trkpt>
      <trkpt lat="42.96071" lon="-0.26134">
        <ele>1491</ele>
        <time>2022-06-08 13:26:37</time>
      </trkpt>
      <trkpt lat="42.96071" lon="-0.26131">
        <ele>1491</ele>
        <time>2022-06-08 13:26:38</time>
      </trkpt>
      <trkpt lat="42.96071" lon="-0.26129">
        <ele>1491</ele>
        <time>2022-06-08 13:26:39</time>
      </trkpt>
      <trkpt lat="42.9607" lon="-0.26127">
        <ele>1491</ele>
        <time>2022-06-08 13:26:40</time>
      </trkpt>
      <trkpt lat="42.9607" lon="-0.26125">
        <ele>1491.2</ele>
        <time>2022-06-08 13:26:41</time>
      </trkpt>
      <trkpt lat="42.96069" lon="-0.26123">
        <ele>1491.2</ele>
        <time>2022-06-08 13:26:42</time>
      </trkpt>
      <trkpt lat="42.96069" lon="-0.26122">
        <ele>1491.4</ele>
        <time>2022-06-08 13:26:43</time>
      </trkpt>
      <trkpt lat="42.96069" lon="-0.26122">
        <ele>1491.6</ele>
        <time>2022-06-08 13:26:44</time>
      </trkpt>
      <trkpt lat="42.96069" lon="-0.26122">
        <ele>1491.8</ele>
        <time>2022-06-08 13:26:45</time>
      </trkpt>
      <trkpt lat="42.96064" lon="-0.26111">
        <ele>1493</ele>
        <time>2022-06-08 13:26:46</time>
      </trkpt>
      <trkpt lat="42.96063" lon="-0.26109">
        <ele>1493</ele>
        <time>2022-06-08 13:26:47</time>
      </trkpt>
      <trkpt lat="42.96063" lon="-0.26106">
        <ele>1493</ele>
        <time>2022-06-08 13:26:48</time>
      </trkpt>
      <trkpt lat="42.96062" lon="-0.26103">
        <ele>1492.8</ele>
        <time>2022-06-08 13:26:49</time>
      </trkpt>
      <trkpt lat="42.96061" lon="-0.26099">
        <ele>1492.8</ele>
        <time>2022-06-08 13:26:50</time>
      </trkpt>
      <trkpt lat="42.96061" lon="-0.26094">
        <ele>1492.8</ele>
        <time>2022-06-08 13:26:51</time>
      </trkpt>
      <trkpt lat="42.9606" lon="-0.26088">
        <ele>1492.6</ele>
        <time>2022-06-08 13:26:52</time>
      </trkpt>
      <trkpt lat="42.9606" lon="-0.26082">
        <ele>1492.6</ele>
        <time>2022-06-08 13:26:53</time>
      </trkpt>
      <trkpt lat="42.96061" lon="-0.26075">
        <ele>1492.4</ele>
        <time>2022-06-08 13:26:54</time>
      </trkpt>
      <trkpt lat="42.96061" lon="-0.26067">
        <ele>1492.4</ele>
        <time>2022-06-08 13:26:55</time>
      </trkpt>
      <trkpt lat="42.96061" lon="-0.26058">
        <ele>1492.2</ele>
        <time>2022-06-08 13:26:56</time>
      </trkpt>
      <trkpt lat="42.96061" lon="-0.26049">
        <ele>1492</ele>
        <time>2022-06-08 13:26:57</time>
      </trkpt>
      <trkpt lat="42.9606" lon="-0.2604">
        <ele>1491.4</ele>
        <time>2022-06-08 13:26:58</time>
      </trkpt>
      <trkpt lat="42.96058" lon="-0.2603">
        <ele>1490.8</ele>
        <time>2022-06-08 13:26:59</time>
      </trkpt>
      <trkpt lat="42.96055" lon="-0.26021">
        <ele>1490</ele>
        <time>2022-06-08 13:27:00</time>
      </trkpt>
      <trkpt lat="42.9605" lon="-0.26013">
        <ele>1489.8</ele>
        <time>2022-06-08 13:27:01</time>
      </trkpt>
      <trkpt lat="42.96045" lon="-0.26004">
        <ele>1489.2</ele>
        <time>2022-06-08 13:27:02</time>
      </trkpt>
      <trkpt lat="42.96041" lon="-0.25994">
        <ele>1488</ele>
        <time>2022-06-08 13:27:03</time>
      </trkpt>
      <trkpt lat="42.96038" lon="-0.25983">
        <ele>1487.6</ele>
        <time>2022-06-08 13:27:04</time>
      </trkpt>
      <trkpt lat="42.96036" lon="-0.25971">
        <ele>1486.6</ele>
        <time>2022-06-08 13:27:05</time>
      </trkpt>
      <trkpt lat="42.96035" lon="-0.2596">
        <ele>1486.2</ele>
        <time>2022-06-08 13:27:06</time>
      </trkpt>
      <trkpt lat="42.96034" lon="-0.25947">
        <ele>1485.2</ele>
        <time>2022-06-08 13:27:07</time>
      </trkpt>
      <trkpt lat="42.96035" lon="-0.25934">
        <ele>1484.6</ele>
        <time>2022-06-08 13:27:08</time>
      </trkpt>
      <trkpt lat="42.96037" lon="-0.25921">
        <ele>1483.4</ele>
        <time>2022-06-08 13:27:09</time>
      </trkpt>
      <trkpt lat="42.96041" lon="-0.25908">
        <ele>1482.6</ele>
        <time>2022-06-08 13:27:10</time>
      </trkpt>
      <trkpt lat="42.96046" lon="-0.25895">
        <ele>1481.6</ele>
        <time>2022-06-08 13:27:11</time>
      </trkpt>
      <trkpt lat="42.96051" lon="-0.25881">
        <ele>1481</ele>
        <time>2022-06-08 13:27:12</time>
      </trkpt>
      <trkpt lat="42.96055" lon="-0.25866">
        <ele>1480.6</ele>
        <time>2022-06-08 13:27:13</time>
      </trkpt>
      <trkpt lat="42.9606" lon="-0.2585">
        <ele>1480.4</ele>
        <time>2022-06-08 13:27:14</time>
      </trkpt>
      <trkpt lat="42.96064" lon="-0.25834">
        <ele>1478.6</ele>
        <time>2022-06-08 13:27:15</time>
      </trkpt>
      <trkpt lat="42.96067" lon="-0.25818">
        <ele>1477</ele>
        <time>2022-06-08 13:27:16</time>
      </trkpt>
      <trkpt lat="42.9607" lon="-0.25803">
        <ele>1476.4</ele>
        <time>2022-06-08 13:27:17</time>
      </trkpt>
      <trkpt lat="42.96074" lon="-0.25787">
        <ele>1474.4</ele>
        <time>2022-06-08 13:29:09</time>
      </trkpt>
      <trkpt lat="42.96076" lon="-0.25775">
        <ele>1473.6</ele>
        <time>2022-06-08 13:29:10</time>
      </trkpt>
      <trkpt lat="42.96079" lon="-0.2576">
        <ele>1472.2</ele>
        <time>2022-06-08 13:29:11</time>
      </trkpt>
      <trkpt lat="42.96081" lon="-0.25743">
        <ele>1471.6</ele>
        <time>2022-06-08 13:29:12</time>
      </trkpt>
      <trkpt lat="42.96082" lon="-0.25723">
        <ele>1470.2</ele>
        <time>2022-06-08 13:29:13</time>
      </trkpt>
      <trkpt lat="42.96083" lon="-0.25709">
        <ele>1469.6</ele>
        <time>2022-06-08 13:29:14</time>
      </trkpt>
      <trkpt lat="42.96083" lon="-0.25693">
        <ele>1468.4</ele>
        <time>2022-06-08 13:29:15</time>
      </trkpt>
      <trkpt lat="42.96084" lon="-0.25677">
        <ele>1467.8</ele>
        <time>2022-06-08 13:29:16</time>
      </trkpt>
      <trkpt lat="42.96083" lon="-0.25661">
        <ele>1466.2</ele>
        <time>2022-06-08 13:29:17</time>
      </trkpt>
      <trkpt lat="42.9608" lon="-0.25642">
        <ele>1465.4</ele>
        <time>2022-06-08 13:29:18</time>
      </trkpt>
      <trkpt lat="42.96074" lon="-0.25628">
        <ele>1464</ele>
        <time>2022-06-08 13:29:19</time>
      </trkpt>
      <trkpt lat="42.96065" lon="-0.25615">
        <ele>1462.8</ele>
        <time>2022-06-08 13:29:20</time>
      </trkpt>
      <trkpt lat="42.96056" lon="-0.25606">
        <ele>1462.4</ele>
        <time>2022-06-08 13:29:21</time>
      </trkpt>
      <trkpt lat="42.96047" lon="-0.25597">
        <ele>1461</ele>
        <time>2022-06-08 13:29:22</time>
      </trkpt>
      <trkpt lat="42.9604" lon="-0.25588">
        <ele>1460.4</ele>
        <time>2022-06-08 13:29:23</time>
      </trkpt>
      <trkpt lat="42.96033" lon="-0.25575">
        <ele>1458.4</ele>
        <time>2022-06-08 13:29:24</time>
      </trkpt>
      <trkpt lat="42.96029" lon="-0.25562">
        <ele>1457.6</ele>
        <time>2022-06-08 13:29:25</time>
      </trkpt>
      <trkpt lat="42.96026" lon="-0.25548">
        <ele>1456.4</ele>
        <time>2022-06-08 13:29:26</time>
      </trkpt>
      <trkpt lat="42.96025" lon="-0.25533">
        <ele>1455.8</ele>
        <time>2022-06-08 13:29:27</time>
      </trkpt>
      <trkpt lat="42.96026" lon="-0.25517">
        <ele>1454.6</ele>
        <time>2022-06-08 13:29:28</time>
      </trkpt>
      <trkpt lat="42.96028" lon="-0.25502">
        <ele>1453.8</ele>
        <time>2022-06-08 13:29:29</time>
      </trkpt>
      <trkpt lat="42.96031" lon="-0.25486">
        <ele>1452</ele>
        <time>2022-06-08 13:29:30</time>
      </trkpt>
      <trkpt lat="42.96036" lon="-0.25471">
        <ele>1451.6</ele>
        <time>2022-06-08 13:29:31</time>
      </trkpt>
      <trkpt lat="42.96043" lon="-0.25458">
        <ele>1450</ele>
        <time>2022-06-08 13:29:32</time>
      </trkpt>
      <trkpt lat="42.96051" lon="-0.25445">
        <ele>1448.6</ele>
        <time>2022-06-08 13:29:33</time>
      </trkpt>
      <trkpt lat="42.9606" lon="-0.25434">
        <ele>1447.8</ele>
        <time>2022-06-08 13:29:34</time>
      </trkpt>
      <trkpt lat="42.96071" lon="-0.25424">
        <ele>1446.6</ele>
        <time>2022-06-08 13:29:35</time>
      </trkpt>
      <trkpt lat="42.96082" lon="-0.25414">
        <ele>1446</ele>
        <time>2022-06-08 13:29:36</time>
      </trkpt>
      <trkpt lat="42.96092" lon="-0.25403">
        <ele>1444.4</ele>
        <time>2022-06-08 13:29:37</time>
      </trkpt>
      <trkpt lat="42.96102" lon="-0.25391">
        <ele>1443.6</ele>
        <time>2022-06-08 13:29:38</time>
      </trkpt>
      <trkpt lat="42.9611" lon="-0.25377">
        <ele>1441.2</ele>
        <time>2022-06-08 13:29:39</time>
      </trkpt>
      <trkpt lat="42.96116" lon="-0.2536">
        <ele>1440.6</ele>
        <time>2022-06-08 13:29:40</time>
      </trkpt>
      <trkpt lat="42.96118" lon="-0.25342">
        <ele>1438.8</ele>
        <time>2022-06-08 13:29:41</time>
      </trkpt>
      <trkpt lat="42.96119" lon="-0.25324">
        <ele>1438</ele>
        <time>2022-06-08 13:29:42</time>
      </trkpt>
      <trkpt lat="42.96119" lon="-0.25305">
        <ele>1435.2</ele>
        <time>2022-06-08 13:29:43</time>
      </trkpt>
      <trkpt lat="42.96121" lon="-0.25287">
        <ele>1433.8</ele>
        <time>2022-06-08 13:29:44</time>
      </trkpt>
      <trkpt lat="42.96124" lon="-0.2527">
        <ele>1431.4</ele>
        <time>2022-06-08 13:29:45</time>
      </trkpt>
      <trkpt lat="42.96126" lon="-0.25252">
        <ele>1430.2</ele>
        <time>2022-06-08 13:29:46</time>
      </trkpt>
      <trkpt lat="42.96124" lon="-0.25236">
        <ele>1429.4</ele>
        <time>2022-06-08 13:29:47</time>
      </trkpt>
      <trkpt lat="42.96119" lon="-0.25223">
        <ele>1427.2</ele>
        <time>2022-06-08 13:29:48</time>
      </trkpt>
      <trkpt lat="42.96112" lon="-0.25212">
        <ele>1426.6</ele>
        <time>2022-06-08 13:29:49</time>
      </trkpt>
      <trkpt lat="42.96105" lon="-0.25201">
        <ele>1424.6</ele>
        <time>2022-06-08 13:29:50</time>
      </trkpt>
      <trkpt lat="42.961" lon="-0.25189">
        <ele>1424</ele>
        <time>2022-06-08 13:29:51</time>
      </trkpt>
      <trkpt lat="42.96096" lon="-0.25174">
        <ele>1422.6</ele>
        <time>2022-06-08 13:29:52</time>
      </trkpt>
      <trkpt lat="42.96096" lon="-0.25158">
        <ele>1422.2</ele>
        <time>2022-06-08 13:29:53</time>
      </trkpt>
      <trkpt lat="42.961" lon="-0.25143">
        <ele>1420.8</ele>
        <time>2022-06-08 13:29:54</time>
      </trkpt>
      <trkpt lat="42.96105" lon="-0.25128">
        <ele>1420</ele>
        <time>2022-06-08 13:29:55</time>
      </trkpt>
      <trkpt lat="42.96111" lon="-0.25112">
        <ele>1418.4</ele>
        <time>2022-06-08 13:29:56</time>
      </trkpt>
      <trkpt lat="42.96114" lon="-0.25096">
        <ele>1417.6</ele>
        <time>2022-06-08 13:29:57</time>
      </trkpt>
      <trkpt lat="42.96115" lon="-0.2508">
        <ele>1416.4</ele>
        <time>2022-06-08 13:29:58</time>
      </trkpt>
      <trkpt lat="42.96112" lon="-0.25064">
        <ele>1414</ele>
        <time>2022-06-08 13:29:59</time>
      </trkpt>
      <trkpt lat="42.96107" lon="-0.2505">
        <ele>1413</ele>
        <time>2022-06-08 13:30:00</time>
      </trkpt>
      <trkpt lat="42.96097" lon="-0.2504">
        <ele>1411</ele>
        <time>2022-06-08 13:30:01</time>
      </trkpt>
      <trkpt lat="42.96086" lon="-0.25035">
        <ele>1409.6</ele>
        <time>2022-06-08 13:30:02</time>
      </trkpt>
      <trkpt lat="42.96074" lon="-0.25033">
        <ele>1407.8</ele>
        <time>2022-06-08 13:30:03</time>
      </trkpt>
      <trkpt lat="42.96062" lon="-0.25032">
        <ele>1407.2</ele>
        <time>2022-06-08 13:30:04</time>
      </trkpt>
      <trkpt lat="42.96051" lon="-0.25032">
        <ele>1406</ele>
        <time>2022-06-08 13:30:05</time>
      </trkpt>
      <trkpt lat="42.96041" lon="-0.25031">
        <ele>1405.6</ele>
        <time>2022-06-08 13:30:06</time>
      </trkpt>
      <trkpt lat="42.96032" lon="-0.25028">
        <ele>1404.6</ele>
        <time>2022-06-08 13:30:07</time>
      </trkpt>
      <trkpt lat="42.96023" lon="-0.25021">
        <ele>1403.8</ele>
        <time>2022-06-08 13:30:08</time>
      </trkpt>
      <trkpt lat="42.96015" lon="-0.25011">
        <ele>1402.6</ele>
        <time>2022-06-08 13:30:09</time>
      </trkpt>
      <trkpt lat="42.9601" lon="-0.24998">
        <ele>1402</ele>
        <time>2022-06-08 13:30:10</time>
      </trkpt>
      <trkpt lat="42.96006" lon="-0.24984">
        <ele>1401.4</ele>
        <time>2022-06-08 13:30:11</time>
      </trkpt>
      <trkpt lat="42.96004" lon="-0.24968">
        <ele>1400.6</ele>
        <time>2022-06-08 13:30:12</time>
      </trkpt>
      <trkpt lat="42.96005" lon="-0.24952">
        <ele>1399.8</ele>
        <time>2022-06-08 13:30:13</time>
      </trkpt>
      <trkpt lat="42.96006" lon="-0.24936">
        <ele>1397.4</ele>
        <time>2022-06-08 13:30:14</time>
      </trkpt>
      <trkpt lat="42.9601" lon="-0.2492">
        <ele>1396.8</ele>
        <time>2022-06-08 13:30:15</time>
      </trkpt>
      <trkpt lat="42.96014" lon="-0.24904">
        <ele>1394.6</ele>
        <time>2022-06-08 13:30:16</time>
      </trkpt>
      <trkpt lat="42.96019" lon="-0.24888">
        <ele>1393.8</ele>
        <time>2022-06-08 13:30:17</time>
      </trkpt>
      <trkpt lat="42.96025" lon="-0.24873">
        <ele>1392.6</ele>
        <time>2022-06-08 13:30:18</time>
      </trkpt>
      <trkpt lat="42.96032" lon="-0.24858">
        <ele>1391.8</ele>
        <time>2022-06-08 13:30:19</time>
      </trkpt>
      <trkpt lat="42.96041" lon="-0.24845">
        <ele>1390.2</ele>
        <time>2022-06-08 13:30:20</time>
      </trkpt>
      <trkpt lat="42.9605" lon="-0.24833">
        <ele>1389.6</ele>
        <time>2022-06-08 13:30:21</time>
      </trkpt>
      <trkpt lat="42.96059" lon="-0.24819">
        <ele>1388.2</ele>
        <time>2022-06-08 13:30:22</time>
      </trkpt>
      <trkpt lat="42.96067" lon="-0.24804">
        <ele>1387.2</ele>
        <time>2022-06-08 13:30:23</time>
      </trkpt>
      <trkpt lat="42.96075" lon="-0.24787">
        <ele>1385.8</ele>
        <time>2022-06-08 13:30:24</time>
      </trkpt>
      <trkpt lat="42.96081" lon="-0.2477">
        <ele>1384.2</ele>
        <time>2022-06-08 13:30:25</time>
      </trkpt>
      <trkpt lat="42.96085" lon="-0.24752">
        <ele>1383.4</ele>
        <time>2022-06-08 13:30:26</time>
      </trkpt>
      <trkpt lat="42.96089" lon="-0.24733">
        <ele>1381.8</ele>
        <time>2022-06-08 13:30:27</time>
      </trkpt>
      <trkpt lat="42.96093" lon="-0.24714">
        <ele>1381</ele>
        <time>2022-06-08 13:30:28</time>
      </trkpt>
      <trkpt lat="42.96098" lon="-0.24695">
        <ele>1379.4</ele>
        <time>2022-06-08 13:30:29</time>
      </trkpt>
      <trkpt lat="42.96103" lon="-0.24676">
        <ele>1379</ele>
        <time>2022-06-08 13:30:30</time>
      </trkpt>
      <trkpt lat="42.96109" lon="-0.24658">
        <ele>1376.8</ele>
        <time>2022-06-08 13:30:31</time>
      </trkpt>
      <trkpt lat="42.96114" lon="-0.24641">
        <ele>1376</ele>
        <time>2022-06-08 13:30:32</time>
      </trkpt>
      <trkpt lat="42.96119" lon="-0.24625">
        <ele>1374.8</ele>
        <time>2022-06-08 13:30:33</time>
      </trkpt>
      <trkpt lat="42.96124" lon="-0.2461">
        <ele>1373.6</ele>
        <time>2022-06-08 13:30:34</time>
      </trkpt>
      <trkpt lat="42.9613" lon="-0.24596">
        <ele>1372</ele>
        <time>2022-06-08 13:30:35</time>
      </trkpt>
      <trkpt lat="42.96137" lon="-0.24584">
        <ele>1371.4</ele>
        <time>2022-06-08 13:30:36</time>
      </trkpt>
      <trkpt lat="42.96145" lon="-0.24574">
        <ele>1369.2</ele>
        <time>2022-06-08 13:30:37</time>
      </trkpt>
      <trkpt lat="42.96154" lon="-0.24564">
        <ele>1367.8</ele>
        <time>2022-06-08 13:30:38</time>
      </trkpt>
      <trkpt lat="42.96164" lon="-0.24554">
        <ele>1367</ele>
        <time>2022-06-08 13:30:39</time>
      </trkpt>
      <trkpt lat="42.96175" lon="-0.24543">
        <ele>1366.2</ele>
        <time>2022-06-08 13:30:40</time>
      </trkpt>
      <trkpt lat="42.96186" lon="-0.24533">
        <ele>1365.8</ele>
        <time>2022-06-08 13:30:41</time>
      </trkpt>
      <trkpt lat="42.96197" lon="-0.24522">
        <ele>1365.6</ele>
        <time>2022-06-08 13:30:42</time>
      </trkpt>
      <trkpt lat="42.96209" lon="-0.24511">
        <ele>1365.2</ele>
        <time>2022-06-08 13:30:43</time>
      </trkpt>
      <trkpt lat="42.96221" lon="-0.24501">
        <ele>1364</ele>
        <time>2022-06-08 13:30:44</time>
      </trkpt>
      <trkpt lat="42.9623" lon="-0.24492">
        <ele>1363.6</ele>
        <time>2022-06-08 13:30:45</time>
      </trkpt>
      <trkpt lat="42.96241" lon="-0.24481">
        <ele>1362.4</ele>
        <time>2022-06-08 13:30:46</time>
      </trkpt>
      <trkpt lat="42.96253" lon="-0.24464">
        <ele>1361.2</ele>
        <time>2022-06-08 13:30:47</time>
      </trkpt>
      <trkpt lat="42.96261" lon="-0.24448">
        <ele>1359.6</ele>
        <time>2022-06-08 13:30:48</time>
      </trkpt>
      <trkpt lat="42.96269" lon="-0.24431">
        <ele>1358.8</ele>
        <time>2022-06-08 13:30:49</time>
      </trkpt>
      <trkpt lat="42.96275" lon="-0.24418">
        <ele>1357</ele>
        <time>2022-06-08 13:30:50</time>
      </trkpt>
      <trkpt lat="42.96282" lon="-0.24401">
        <ele>1354.8</ele>
        <time>2022-06-08 13:30:51</time>
      </trkpt>
      <trkpt lat="42.9629" lon="-0.24381">
        <ele>1353.2</ele>
        <time>2022-06-08 13:30:52</time>
      </trkpt>
      <trkpt lat="42.96296" lon="-0.24365">
        <ele>1351.6</ele>
        <time>2022-06-08 13:30:53</time>
      </trkpt>
      <trkpt lat="42.96304" lon="-0.24349">
        <ele>1350.4</ele>
        <time>2022-06-08 13:30:54</time>
      </trkpt>
      <trkpt lat="42.96313" lon="-0.24334">
        <ele>1348</ele>
        <time>2022-06-08 13:30:55</time>
      </trkpt>
      <trkpt lat="42.96321" lon="-0.24321">
        <ele>1347.4</ele>
        <time>2022-06-08 13:30:56</time>
      </trkpt>
      <trkpt lat="42.9633" lon="-0.24309">
        <ele>1344.8</ele>
        <time>2022-06-08 13:30:57</time>
      </trkpt>
      <trkpt lat="42.96338" lon="-0.24297">
        <ele>1343.6</ele>
        <time>2022-06-08 13:30:58</time>
      </trkpt>
      <trkpt lat="42.96345" lon="-0.24285">
        <ele>1342.2</ele>
        <time>2022-06-08 13:30:59</time>
      </trkpt>
      <trkpt lat="42.96349" lon="-0.24272">
        <ele>1341.8</ele>
        <time>2022-06-08 13:31:00</time>
      </trkpt>
      <trkpt lat="42.9635" lon="-0.24259">
        <ele>1340.2</ele>
        <time>2022-06-08 13:31:01</time>
      </trkpt>
      <trkpt lat="42.96346" lon="-0.24246">
        <ele>1339.6</ele>
        <time>2022-06-08 13:31:02</time>
      </trkpt>
      <trkpt lat="42.96339" lon="-0.24237">
        <ele>1338.8</ele>
        <time>2022-06-08 13:31:03</time>
      </trkpt>
      <trkpt lat="42.9633" lon="-0.24231">
        <ele>1337.6</ele>
        <time>2022-06-08 13:31:04</time>
      </trkpt>
      <trkpt lat="42.96319" lon="-0.24229">
        <ele>1337</ele>
        <time>2022-06-08 13:31:05</time>
      </trkpt>
      <trkpt lat="42.96309" lon="-0.24226">
        <ele>1335.2</ele>
        <time>2022-06-08 13:31:06</time>
      </trkpt>
      <trkpt lat="42.96299" lon="-0.24221">
        <ele>1334.4</ele>
        <time>2022-06-08 13:31:07</time>
      </trkpt>
      <trkpt lat="42.96289" lon="-0.24213">
        <ele>1333</ele>
        <time>2022-06-08 13:31:08</time>
      </trkpt>
      <trkpt lat="42.96282" lon="-0.24202">
        <ele>1332.2</ele>
        <time>2022-06-08 13:31:09</time>
      </trkpt>
      <trkpt lat="42.96277" lon="-0.24188">
        <ele>1331</ele>
        <time>2022-06-08 13:31:10</time>
      </trkpt>
      <trkpt lat="42.96275" lon="-0.24173">
        <ele>1330.6</ele>
        <time>2022-06-08 13:31:11</time>
      </trkpt>
      <trkpt lat="42.96276" lon="-0.24159">
        <ele>1329.2</ele>
        <time>2022-06-08 13:31:12</time>
      </trkpt>
      <trkpt lat="42.96279" lon="-0.24146">
        <ele>1328.4</ele>
        <time>2022-06-08 13:31:13</time>
      </trkpt>
      <trkpt lat="42.96283" lon="-0.24133">
        <ele>1326.6</ele>
        <time>2022-06-08 13:31:14</time>
      </trkpt>
      <trkpt lat="42.9629" lon="-0.24122">
        <ele>1325.8</ele>
        <time>2022-06-08 13:31:15</time>
      </trkpt>
      <trkpt lat="42.96299" lon="-0.24112">
        <ele>1324.8</ele>
        <time>2022-06-08 13:31:16</time>
      </trkpt>
      <trkpt lat="42.9631" lon="-0.24105">
        <ele>1324.4</ele>
        <time>2022-06-08 13:31:17</time>
      </trkpt>
      <trkpt lat="42.96322" lon="-0.241">
        <ele>1322.6</ele>
        <time>2022-06-08 13:31:18</time>
      </trkpt>
      <trkpt lat="42.96334" lon="-0.24099">
        <ele>1321.4</ele>
        <time>2022-06-08 13:31:19</time>
      </trkpt>
      <trkpt lat="42.96347" lon="-0.24097">
        <ele>1321</ele>
        <time>2022-06-08 13:31:20</time>
      </trkpt>
      <trkpt lat="42.9636" lon="-0.24093">
        <ele>1318.8</ele>
        <time>2022-06-08 13:31:21</time>
      </trkpt>
      <trkpt lat="42.96369" lon="-0.24087">
        <ele>1317.8</ele>
        <time>2022-06-08 13:31:22</time>
      </trkpt>
      <trkpt lat="42.96381" lon="-0.24074">
        <ele>1316.2</ele>
        <time>2022-06-08 13:31:23</time>
      </trkpt>
      <trkpt lat="42.9639" lon="-0.24061">
        <ele>1315.4</ele>
        <time>2022-06-08 13:31:24</time>
      </trkpt>
      <trkpt lat="42.96398" lon="-0.24048">
        <ele>1313.4</ele>
        <time>2022-06-08 13:31:25</time>
      </trkpt>
      <trkpt lat="42.96404" lon="-0.24038">
        <ele>1312.6</ele>
        <time>2022-06-08 13:31:26</time>
      </trkpt>
      <trkpt lat="42.96411" lon="-0.24024">
        <ele>1311.4</ele>
        <time>2022-06-08 13:31:27</time>
      </trkpt>
      <trkpt lat="42.96415" lon="-0.24006">
        <ele>1310.2</ele>
        <time>2022-06-08 13:31:28</time>
      </trkpt>
      <trkpt lat="42.96417" lon="-0.23994">
        <ele>1308.8</ele>
        <time>2022-06-08 13:31:29</time>
      </trkpt>
      <trkpt lat="42.96414" lon="-0.23977">
        <ele>1308.4</ele>
        <time>2022-06-08 13:31:30</time>
      </trkpt>
      <trkpt lat="42.96408" lon="-0.23963">
        <ele>1307.2</ele>
        <time>2022-06-08 13:31:31</time>
      </trkpt>
      <trkpt lat="42.96402" lon="-0.23949">
        <ele>1305.4</ele>
        <time>2022-06-08 13:31:32</time>
      </trkpt>
      <trkpt lat="42.96397" lon="-0.23935">
        <ele>1304.8</ele>
        <time>2022-06-08 13:31:33</time>
      </trkpt>
      <trkpt lat="42.96393" lon="-0.2392">
        <ele>1303</ele>
        <time>2022-06-08 13:31:34</time>
      </trkpt>
      <trkpt lat="42.96391" lon="-0.23905">
        <ele>1302.2</ele>
        <time>2022-06-08 13:31:35</time>
      </trkpt>
      <trkpt lat="42.9639" lon="-0.2389">
        <ele>1300.2</ele>
        <time>2022-06-08 13:31:36</time>
      </trkpt>
      <trkpt lat="42.96392" lon="-0.23878">
        <ele>1299.2</ele>
        <time>2022-06-08 13:31:37</time>
      </trkpt>
      <trkpt lat="42.96396" lon="-0.23862">
        <ele>1296.8</ele>
        <time>2022-06-08 13:31:38</time>
      </trkpt>
      <trkpt lat="42.964" lon="-0.23842">
        <ele>1296.2</ele>
        <time>2022-06-08 13:31:39</time>
      </trkpt>
      <trkpt lat="42.96399" lon="-0.23824">
        <ele>1295</ele>
        <time>2022-06-08 13:31:40</time>
      </trkpt>
      <trkpt lat="42.96397" lon="-0.23807">
        <ele>1294.4</ele>
        <time>2022-06-08 13:31:41</time>
      </trkpt>
      <trkpt lat="42.96393" lon="-0.23793">
        <ele>1292.4</ele>
        <time>2022-06-08 13:31:42</time>
      </trkpt>
      <trkpt lat="42.96388" lon="-0.23776">
        <ele>1291.4</ele>
        <time>2022-06-08 13:31:43</time>
      </trkpt>
      <trkpt lat="42.96382" lon="-0.23755">
        <ele>1289.8</ele>
        <time>2022-06-08 13:31:44</time>
      </trkpt>
      <trkpt lat="42.96376" lon="-0.23738">
        <ele>1288.4</ele>
        <time>2022-06-08 13:31:45</time>
      </trkpt>
      <trkpt lat="42.9637" lon="-0.23721">
        <ele>1288</ele>
        <time>2022-06-08 13:31:46</time>
      </trkpt>
      <trkpt lat="42.96363" lon="-0.23703">
        <ele>1287.2</ele>
        <time>2022-06-08 13:31:47</time>
      </trkpt>
      <trkpt lat="42.96356" lon="-0.23686">
        <ele>1285.6</ele>
        <time>2022-06-08 13:31:48</time>
      </trkpt>
      <trkpt lat="42.96348" lon="-0.23671">
        <ele>1283.6</ele>
        <time>2022-06-08 13:31:49</time>
      </trkpt>
      <trkpt lat="42.96341" lon="-0.23656">
        <ele>1283.2</ele>
        <time>2022-06-08 13:31:50</time>
      </trkpt>
      <trkpt lat="42.96333" lon="-0.23642">
        <ele>1282.2</ele>
        <time>2022-06-08 13:31:51</time>
      </trkpt>
      <trkpt lat="42.96326" lon="-0.23628">
        <ele>1281.6</ele>
        <time>2022-06-08 13:31:52</time>
      </trkpt>
      <trkpt lat="42.9632" lon="-0.23616">
        <ele>1279.6</ele>
        <time>2022-06-08 13:31:53</time>
      </trkpt>
      <trkpt lat="42.96314" lon="-0.23598">
        <ele>1278.8</ele>
        <time>2022-06-08 13:31:54</time>
      </trkpt>
      <trkpt lat="42.96308" lon="-0.23582">
        <ele>1276.8</ele>
        <time>2022-06-08 13:31:55</time>
      </trkpt>
      <trkpt lat="42.96303" lon="-0.23565">
        <ele>1276</ele>
        <time>2022-06-08 13:31:56</time>
      </trkpt>
      <trkpt lat="42.96298" lon="-0.23549">
        <ele>1274.4</ele>
        <time>2022-06-08 13:31:57</time>
      </trkpt>
      <trkpt lat="42.96293" lon="-0.23532">
        <ele>1273.6</ele>
        <time>2022-06-08 13:31:58</time>
      </trkpt>
      <trkpt lat="42.96289" lon="-0.23515">
        <ele>1271.2</ele>
        <time>2022-06-08 13:31:59</time>
      </trkpt>
      <trkpt lat="42.96284" lon="-0.23498">
        <ele>1270</ele>
        <time>2022-06-08 13:32:00</time>
      </trkpt>
      <trkpt lat="42.96279" lon="-0.2348">
        <ele>1269.6</ele>
        <time>2022-06-08 13:32:01</time>
      </trkpt>
      <trkpt lat="42.96273" lon="-0.23462">
        <ele>1269</ele>
        <time>2022-06-08 13:32:02</time>
      </trkpt>
      <trkpt lat="42.96267" lon="-0.23445">
        <ele>1268.4</ele>
        <time>2022-06-08 13:32:03</time>
      </trkpt>
      <trkpt lat="42.96262" lon="-0.23427">
        <ele>1267</ele>
        <time>2022-06-08 13:32:04</time>
      </trkpt>
      <trkpt lat="42.96256" lon="-0.2341">
        <ele>1266.4</ele>
        <time>2022-06-08 13:32:05</time>
      </trkpt>
      <trkpt lat="42.96251" lon="-0.23394">
        <ele>1264.6</ele>
        <time>2022-06-08 13:32:06</time>
      </trkpt>
      <trkpt lat="42.96246" lon="-0.2338">
        <ele>1263.8</ele>
        <time>2022-06-08 13:32:07</time>
      </trkpt>
      <trkpt lat="42.96242" lon="-0.23368">
        <ele>1261.6</ele>
        <time>2022-06-08 13:32:08</time>
      </trkpt>
      <trkpt lat="42.96237" lon="-0.23351">
        <ele>1260.6</ele>
        <time>2022-06-08 13:32:09</time>
      </trkpt>
      <trkpt lat="42.96235" lon="-0.23335">
        <ele>1259.4</ele>
        <time>2022-06-08 13:32:10</time>
      </trkpt>
      <trkpt lat="42.96235" lon="-0.23321">
        <ele>1258.6</ele>
        <time>2022-06-08 13:32:11</time>
      </trkpt>
      <trkpt lat="42.96236" lon="-0.23304">
        <ele>1257.8</ele>
        <time>2022-06-08 13:32:12</time>
      </trkpt>
      <trkpt lat="42.96238" lon="-0.23287">
        <ele>1256.8</ele>
        <time>2022-06-08 13:32:13</time>
      </trkpt>
      <trkpt lat="42.96242" lon="-0.23267">
        <ele>1256.4</ele>
        <time>2022-06-08 13:32:14</time>
      </trkpt>
      <trkpt lat="42.96247" lon="-0.2325">
        <ele>1254.8</ele>
        <time>2022-06-08 13:32:15</time>
      </trkpt>
      <trkpt lat="42.96251" lon="-0.23234">
        <ele>1254.2</ele>
        <time>2022-06-08 13:32:16</time>
      </trkpt>
      <trkpt lat="42.96255" lon="-0.2322">
        <ele>1252.4</ele>
        <time>2022-06-08 13:32:17</time>
      </trkpt>
      <trkpt lat="42.9626" lon="-0.23204">
        <ele>1251.8</ele>
        <time>2022-06-08 13:32:18</time>
      </trkpt>
      <trkpt lat="42.96265" lon="-0.23185">
        <ele>1250.6</ele>
        <time>2022-06-08 13:32:19</time>
      </trkpt>
      <trkpt lat="42.96271" lon="-0.2317">
        <ele>1250.2</ele>
        <time>2022-06-08 13:32:20</time>
      </trkpt>
      <trkpt lat="42.96278" lon="-0.23156">
        <ele>1248.4</ele>
        <time>2022-06-08 13:32:21</time>
      </trkpt>
      <trkpt lat="42.96288" lon="-0.23143">
        <ele>1247.4</ele>
        <time>2022-06-08 13:32:22</time>
      </trkpt>
      <trkpt lat="42.96297" lon="-0.23132">
        <ele>1246</ele>
        <time>2022-06-08 13:32:23</time>
      </trkpt>
      <trkpt lat="42.96308" lon="-0.23121">
        <ele>1245</ele>
        <time>2022-06-08 13:32:24</time>
      </trkpt>
      <trkpt lat="42.96318" lon="-0.2311">
        <ele>1243.8</ele>
        <time>2022-06-08 13:32:25</time>
      </trkpt>
      <trkpt lat="42.96329" lon="-0.231">
        <ele>1243.2</ele>
        <time>2022-06-08 13:32:26</time>
      </trkpt>
      <trkpt lat="42.96338" lon="-0.23091">
        <ele>1241.4</ele>
        <time>2022-06-08 13:32:27</time>
      </trkpt>
      <trkpt lat="42.96348" lon="-0.23084">
        <ele>1240</ele>
        <time>2022-06-08 13:32:28</time>
      </trkpt>
      <trkpt lat="42.96358" lon="-0.2308">
        <ele>1239</ele>
        <time>2022-06-08 13:32:29</time>
      </trkpt>
      <trkpt lat="42.96369" lon="-0.23079">
        <ele>1238</ele>
        <time>2022-06-08 13:32:30</time>
      </trkpt>
      <trkpt lat="42.96381" lon="-0.23079">
        <ele>1237.4</ele>
        <time>2022-06-08 13:32:31</time>
      </trkpt>
      <trkpt lat="42.96393" lon="-0.23079">
        <ele>1236.6</ele>
        <time>2022-06-08 13:32:32</time>
      </trkpt>
      <trkpt lat="42.96405" lon="-0.23078">
        <ele>1236.2</ele>
        <time>2022-06-08 13:32:33</time>
      </trkpt>
      <trkpt lat="42.96416" lon="-0.23071">
        <ele>1234.8</ele>
        <time>2022-06-08 13:32:34</time>
      </trkpt>
      <trkpt lat="42.96424" lon="-0.2306">
        <ele>1234.2</ele>
        <time>2022-06-08 13:32:35</time>
      </trkpt>
      <trkpt lat="42.96428" lon="-0.23046">
        <ele>1232.6</ele>
        <time>2022-06-08 13:32:36</time>
      </trkpt>
      <trkpt lat="42.9643" lon="-0.2303">
        <ele>1231.8</ele>
        <time>2022-06-08 13:32:37</time>
      </trkpt>
      <trkpt lat="42.96433" lon="-0.23014">
        <ele>1230.4</ele>
        <time>2022-06-08 13:32:38</time>
      </trkpt>
      <trkpt lat="42.96439" lon="-0.22998">
        <ele>1229.6</ele>
        <time>2022-06-08 13:32:39</time>
      </trkpt>
      <trkpt lat="42.96446" lon="-0.22985">
        <ele>1228.2</ele>
        <time>2022-06-08 13:32:40</time>
      </trkpt>
      <trkpt lat="42.96456" lon="-0.22973">
        <ele>1226.6</ele>
        <time>2022-06-08 13:32:41</time>
      </trkpt>
      <trkpt lat="42.96467" lon="-0.22963">
        <ele>1226</ele>
        <time>2022-06-08 13:32:42</time>
      </trkpt>
      <trkpt lat="42.96478" lon="-0.22953">
        <ele>1224</ele>
        <time>2022-06-08 13:32:43</time>
      </trkpt>
      <trkpt lat="42.96489" lon="-0.22941">
        <ele>1223</ele>
        <time>2022-06-08 13:32:44</time>
      </trkpt>
      <trkpt lat="42.96498" lon="-0.22927">
        <ele>1221.2</ele>
        <time>2022-06-08 13:32:45</time>
      </trkpt>
      <trkpt lat="42.96507" lon="-0.2291">
        <ele>1220.6</ele>
        <time>2022-06-08 13:32:46</time>
      </trkpt>
      <trkpt lat="42.96513" lon="-0.22893">
        <ele>1219.4</ele>
        <time>2022-06-08 13:32:47</time>
      </trkpt>
      <trkpt lat="42.96519" lon="-0.22875">
        <ele>1218.2</ele>
        <time>2022-06-08 13:32:48</time>
      </trkpt>
      <trkpt lat="42.96524" lon="-0.22857">
        <ele>1215.6</ele>
        <time>2022-06-08 13:32:49</time>
      </trkpt>
      <trkpt lat="42.96529" lon="-0.22838">
        <ele>1215</ele>
        <time>2022-06-08 13:32:50</time>
      </trkpt>
      <trkpt lat="42.96534" lon="-0.2282">
        <ele>1213.2</ele>
        <time>2022-06-08 13:32:51</time>
      </trkpt>
      <trkpt lat="42.96539" lon="-0.22802">
        <ele>1212.6</ele>
        <time>2022-06-08 13:32:52</time>
      </trkpt>
      <trkpt lat="42.96544" lon="-0.22785">
        <ele>1211.4</ele>
        <time>2022-06-08 13:32:53</time>
      </trkpt>
      <trkpt lat="42.9655" lon="-0.2277">
        <ele>1210.6</ele>
        <time>2022-06-08 13:32:54</time>
      </trkpt>
      <trkpt lat="42.96558" lon="-0.22757">
        <ele>1209</ele>
        <time>2022-06-08 13:32:55</time>
      </trkpt>
      <trkpt lat="42.96568" lon="-0.22748">
        <ele>1207.4</ele>
        <time>2022-06-08 13:32:56</time>
      </trkpt>
      <trkpt lat="42.9658" lon="-0.22742">
        <ele>1206.2</ele>
        <time>2022-06-08 13:32:57</time>
      </trkpt>
      <trkpt lat="42.96592" lon="-0.22743">
        <ele>1204.8</ele>
        <time>2022-06-08 13:32:58</time>
      </trkpt>
      <trkpt lat="42.96606" lon="-0.22747">
        <ele>1204.2</ele>
        <time>2022-06-08 13:32:59</time>
      </trkpt>
      <trkpt lat="42.96617" lon="-0.22755">
        <ele>1202.8</ele>
        <time>2022-06-08 13:33:00</time>
      </trkpt>
      <trkpt lat="42.96628" lon="-0.22765">
        <ele>1202.2</ele>
        <time>2022-06-08 13:33:01</time>
      </trkpt>
      <trkpt lat="42.96638" lon="-0.22774">
        <ele>1200.8</ele>
        <time>2022-06-08 13:33:02</time>
      </trkpt>
      <trkpt lat="42.9665" lon="-0.2278">
        <ele>1200</ele>
        <time>2022-06-08 13:33:03</time>
      </trkpt>
      <trkpt lat="42.96663" lon="-0.22781">
        <ele>1198.8</ele>
        <time>2022-06-08 13:33:04</time>
      </trkpt>
      <trkpt lat="42.96676" lon="-0.22778">
        <ele>1198.2</ele>
        <time>2022-06-08 13:33:05</time>
      </trkpt>
      <trkpt lat="42.96688" lon="-0.22769">
        <ele>1195.2</ele>
        <time>2022-06-08 13:33:06</time>
      </trkpt>
      <trkpt lat="42.967" lon="-0.22758">
        <ele>1194.4</ele>
        <time>2022-06-08 13:33:07</time>
      </trkpt>
      <trkpt lat="42.96711" lon="-0.22745">
        <ele>1193.2</ele>
        <time>2022-06-08 13:33:08</time>
      </trkpt>
      <trkpt lat="42.96718" lon="-0.22734">
        <ele>1191.6</ele>
        <time>2022-06-08 13:33:09</time>
      </trkpt>
      <trkpt lat="42.96724" lon="-0.22716">
        <ele>1191.2</ele>
        <time>2022-06-08 13:33:10</time>
      </trkpt>
      <trkpt lat="42.96725" lon="-0.227">
        <ele>1189.6</ele>
        <time>2022-06-08 13:33:11</time>
      </trkpt>
      <trkpt lat="42.96723" lon="-0.22684">
        <ele>1188.8</ele>
        <time>2022-06-08 13:33:12</time>
      </trkpt>
      <trkpt lat="42.96719" lon="-0.2267">
        <ele>1187.4</ele>
        <time>2022-06-08 13:33:13</time>
      </trkpt>
      <trkpt lat="42.96715" lon="-0.22652">
        <ele>1186.4</ele>
        <time>2022-06-08 13:33:14</time>
      </trkpt>
      <trkpt lat="42.96714" lon="-0.22631">
        <ele>1185.4</ele>
        <time>2022-06-08 13:33:15</time>
      </trkpt>
      <trkpt lat="42.96715" lon="-0.22612">
        <ele>1184.6</ele>
        <time>2022-06-08 13:33:16</time>
      </trkpt>
      <trkpt lat="42.96717" lon="-0.22593">
        <ele>1183.2</ele>
        <time>2022-06-08 13:33:17</time>
      </trkpt>
      <trkpt lat="42.9672" lon="-0.22574">
        <ele>1182.8</ele>
        <time>2022-06-08 13:33:18</time>
      </trkpt>
      <trkpt lat="42.96724" lon="-0.22554">
        <ele>1181.2</ele>
        <time>2022-06-08 13:33:19</time>
      </trkpt>
      <trkpt lat="42.96727" lon="-0.22535">
        <ele>1180.2</ele>
        <time>2022-06-08 13:33:20</time>
      </trkpt>
      <trkpt lat="42.9673" lon="-0.22518">
        <ele>1178.2</ele>
        <time>2022-06-08 13:33:21</time>
      </trkpt>
      <trkpt lat="42.96729" lon="-0.22499">
        <ele>1177.4</ele>
        <time>2022-06-08 13:33:22</time>
      </trkpt>
      <trkpt lat="42.96725" lon="-0.2248">
        <ele>1175.4</ele>
        <time>2022-06-08 13:33:23</time>
      </trkpt>
      <trkpt lat="42.96719" lon="-0.22462">
        <ele>1174.2</ele>
        <time>2022-06-08 13:33:24</time>
      </trkpt>
      <trkpt lat="42.96709" lon="-0.22446">
        <ele>1172.6</ele>
        <time>2022-06-08 13:33:25</time>
      </trkpt>
      <trkpt lat="42.96699" lon="-0.22432">
        <ele>1170.6</ele>
        <time>2022-06-08 13:33:26</time>
      </trkpt>
      <trkpt lat="42.96689" lon="-0.22418">
        <ele>1169.6</ele>
        <time>2022-06-08 13:33:27</time>
      </trkpt>
      <trkpt lat="42.96678" lon="-0.22407">
        <ele>1168</ele>
        <time>2022-06-08 13:33:28</time>
      </trkpt>
      <trkpt lat="42.96669" lon="-0.22399">
        <ele>1167.2</ele>
        <time>2022-06-08 13:33:29</time>
      </trkpt>
      <trkpt lat="42.96657" lon="-0.22391">
        <ele>1166.2</ele>
        <time>2022-06-08 13:33:30</time>
      </trkpt>
      <trkpt lat="42.96642" lon="-0.22385">
        <ele>1165.8</ele>
        <time>2022-06-08 13:33:31</time>
      </trkpt>
      <trkpt lat="42.96628" lon="-0.22383">
        <ele>1165.4</ele>
        <time>2022-06-08 13:33:32</time>
      </trkpt>
      <trkpt lat="42.96617" lon="-0.22383">
        <ele>1165</ele>
        <time>2022-06-08 13:33:33</time>
      </trkpt>
      <trkpt lat="42.96602" lon="-0.22386">
        <ele>1164.6</ele>
        <time>2022-06-08 13:33:34</time>
      </trkpt>
      <trkpt lat="42.96589" lon="-0.22391">
        <ele>1164.4</ele>
        <time>2022-06-08 13:33:35</time>
      </trkpt>
      <trkpt lat="42.96576" lon="-0.22396">
        <ele>1164</ele>
        <time>2022-06-08 13:33:36</time>
      </trkpt>
      <trkpt lat="42.96564" lon="-0.22399">
        <ele>1163.6</ele>
        <time>2022-06-08 13:33:37</time>
      </trkpt>
      <trkpt lat="42.96552" lon="-0.22399">
        <ele>1162.6</ele>
        <time>2022-06-08 13:33:38</time>
      </trkpt>
      <trkpt lat="42.96541" lon="-0.22398">
        <ele>1161.4</ele>
        <time>2022-06-08 13:33:39</time>
      </trkpt>
      <trkpt lat="42.96532" lon="-0.22395">
        <ele>1161</ele>
        <time>2022-06-08 13:33:40</time>
      </trkpt>
      <trkpt lat="42.9652" lon="-0.22389">
        <ele>1159.6</ele>
        <time>2022-06-08 13:33:41</time>
      </trkpt>
      <trkpt lat="42.96513" lon="-0.2238">
        <ele>1159.2</ele>
        <time>2022-06-08 13:33:42</time>
      </trkpt>
      <trkpt lat="42.96507" lon="-0.2237">
        <ele>1158.6</ele>
        <time>2022-06-08 13:33:43</time>
      </trkpt>
      <trkpt lat="42.96505" lon="-0.22357">
        <ele>1158.4</ele>
        <time>2022-06-08 13:33:44</time>
      </trkpt>
      <trkpt lat="42.96507" lon="-0.22343">
        <ele>1158</ele>
        <time>2022-06-08 13:33:45</time>
      </trkpt>
      <trkpt lat="42.96511" lon="-0.22328">
        <ele>1157.8</ele>
        <time>2022-06-08 13:33:46</time>
      </trkpt>
      <trkpt lat="42.96517" lon="-0.22313">
        <ele>1156.8</ele>
        <time>2022-06-08 13:33:47</time>
      </trkpt>
      <trkpt lat="42.96523" lon="-0.22296">
        <ele>1156.4</ele>
        <time>2022-06-08 13:33:48</time>
      </trkpt>
      <trkpt lat="42.9653" lon="-0.22279">
        <ele>1155.4</ele>
        <time>2022-06-08 13:33:49</time>
      </trkpt>
      <trkpt lat="42.96537" lon="-0.22262">
        <ele>1154.6</ele>
        <time>2022-06-08 13:33:50</time>
      </trkpt>
      <trkpt lat="42.96544" lon="-0.22244">
        <ele>1152.4</ele>
        <time>2022-06-08 13:33:51</time>
      </trkpt>
      <trkpt lat="42.96551" lon="-0.22226">
        <ele>1150.8</ele>
        <time>2022-06-08 13:33:52</time>
      </trkpt>
      <trkpt lat="42.96557" lon="-0.22209">
        <ele>1147.4</ele>
        <time>2022-06-08 13:33:53</time>
      </trkpt>
      <trkpt lat="42.9656" lon="-0.22192">
        <ele>1145</ele>
        <time>2022-06-08 13:33:54</time>
      </trkpt>
      <trkpt lat="42.96561" lon="-0.22176">
        <ele>1143.6</ele>
        <time>2022-06-08 13:33:55</time>
      </trkpt>
      <trkpt lat="42.9656" lon="-0.22159">
        <ele>1141.6</ele>
        <time>2022-06-08 13:33:56</time>
      </trkpt>
      <trkpt lat="42.96557" lon="-0.22144">
        <ele>1140.8</ele>
        <time>2022-06-08 13:33:57</time>
      </trkpt>
      <trkpt lat="42.96553" lon="-0.22127">
        <ele>1140</ele>
        <time>2022-06-08 13:33:58</time>
      </trkpt>
      <trkpt lat="42.9655" lon="-0.2211">
        <ele>1139.8</ele>
        <time>2022-06-08 13:33:59</time>
      </trkpt>
      <trkpt lat="42.9655" lon="-0.22092">
        <ele>1139.4</ele>
        <time>2022-06-08 13:34:00</time>
      </trkpt>
      <trkpt lat="42.96551" lon="-0.22074">
        <ele>1139.2</ele>
        <time>2022-06-08 13:34:01</time>
      </trkpt>
      <trkpt lat="42.96554" lon="-0.22056">
        <ele>1138.6</ele>
        <time>2022-06-08 13:34:02</time>
      </trkpt>
      <trkpt lat="42.96557" lon="-0.22039">
        <ele>1138.2</ele>
        <time>2022-06-08 13:34:03</time>
      </trkpt>
      <trkpt lat="42.96562" lon="-0.22023">
        <ele>1137.6</ele>
        <time>2022-06-08 13:34:04</time>
      </trkpt>
      <trkpt lat="42.96567" lon="-0.22008">
        <ele>1137</ele>
        <time>2022-06-08 13:34:05</time>
      </trkpt>
      <trkpt lat="42.96574" lon="-0.21994">
        <ele>1135.2</ele>
        <time>2022-06-08 13:34:06</time>
      </trkpt>
      <trkpt lat="42.96581" lon="-0.2198">
        <ele>1134</ele>
        <time>2022-06-08 13:34:07</time>
      </trkpt>
      <trkpt lat="42.96587" lon="-0.21964">
        <ele>1133.4</ele>
        <time>2022-06-08 13:34:08</time>
      </trkpt>
      <trkpt lat="42.96591" lon="-0.21946">
        <ele>1132</ele>
        <time>2022-06-08 13:34:09</time>
      </trkpt>
      <trkpt lat="42.96592" lon="-0.21928">
        <ele>1131.4</ele>
        <time>2022-06-08 13:34:10</time>
      </trkpt>
      <trkpt lat="42.96593" lon="-0.21909">
        <ele>1129.8</ele>
        <time>2022-06-08 13:34:11</time>
      </trkpt>
      <trkpt lat="42.96595" lon="-0.2189">
        <ele>1129.2</ele>
        <time>2022-06-08 13:34:12</time>
      </trkpt>
      <trkpt lat="42.96598" lon="-0.21872">
        <ele>1127.4</ele>
        <time>2022-06-08 13:34:13</time>
      </trkpt>
      <trkpt lat="42.96602" lon="-0.21854">
        <ele>1126.6</ele>
        <time>2022-06-08 13:34:14</time>
      </trkpt>
      <trkpt lat="42.96605" lon="-0.21837">
        <ele>1124.8</ele>
        <time>2022-06-08 13:34:15</time>
      </trkpt>
      <trkpt lat="42.96608" lon="-0.21819">
        <ele>1124</ele>
        <time>2022-06-08 13:34:16</time>
      </trkpt>
      <trkpt lat="42.9661" lon="-0.21801">
        <ele>1122.6</ele>
        <time>2022-06-08 13:34:17</time>
      </trkpt>
      <trkpt lat="42.96612" lon="-0.21784">
        <ele>1121.8</ele>
        <time>2022-06-08 13:34:18</time>
      </trkpt>
      <trkpt lat="42.96614" lon="-0.2177">
        <ele>1120.2</ele>
        <time>2022-06-08 13:34:19</time>
      </trkpt>
      <trkpt lat="42.96617" lon="-0.21753">
        <ele>1119.4</ele>
        <time>2022-06-08 13:34:20</time>
      </trkpt>
      <trkpt lat="42.96622" lon="-0.21734">
        <ele>1118</ele>
        <time>2022-06-08 13:34:21</time>
      </trkpt>
      <trkpt lat="42.96628" lon="-0.21717">
        <ele>1115.8</ele>
        <time>2022-06-08 13:34:22</time>
      </trkpt>
      <trkpt lat="42.96632" lon="-0.217">
        <ele>1115</ele>
        <time>2022-06-08 13:34:23</time>
      </trkpt>
      <trkpt lat="42.96636" lon="-0.21681">
        <ele>1113.6</ele>
        <time>2022-06-08 13:34:24</time>
      </trkpt>
      <trkpt lat="42.96638" lon="-0.21663">
        <ele>1112.8</ele>
        <time>2022-06-08 13:34:25</time>
      </trkpt>
      <trkpt lat="42.9664" lon="-0.21644">
        <ele>1111.8</ele>
        <time>2022-06-08 13:34:26</time>
      </trkpt>
      <trkpt lat="42.96641" lon="-0.21626">
        <ele>1111.2</ele>
        <time>2022-06-08 13:34:27</time>
      </trkpt>
      <trkpt lat="42.96641" lon="-0.21609">
        <ele>1109.2</ele>
        <time>2022-06-08 13:34:28</time>
      </trkpt>
      <trkpt lat="42.96641" lon="-0.21592">
        <ele>1108.2</ele>
        <time>2022-06-08 13:34:29</time>
      </trkpt>
      <trkpt lat="42.96643" lon="-0.21577">
        <ele>1107</ele>
        <time>2022-06-08 13:34:30</time>
      </trkpt>
      <trkpt lat="42.96646" lon="-0.21564">
        <ele>1106.4</ele>
        <time>2022-06-08 13:34:31</time>
      </trkpt>
      <trkpt lat="42.96649" lon="-0.21552">
        <ele>1104.6</ele>
        <time>2022-06-08 13:34:32</time>
      </trkpt>
      <trkpt lat="42.96651" lon="-0.2154">
        <ele>1104</ele>
        <time>2022-06-08 13:34:33</time>
      </trkpt>
      <trkpt lat="42.96649" lon="-0.21529">
        <ele>1102.8</ele>
        <time>2022-06-08 13:34:34</time>
      </trkpt>
      <trkpt lat="42.96644" lon="-0.2152">
        <ele>1101.6</ele>
        <time>2022-06-08 13:34:35</time>
      </trkpt>
      <trkpt lat="42.96637" lon="-0.21513">
        <ele>1101.2</ele>
        <time>2022-06-08 13:34:36</time>
      </trkpt>
      <trkpt lat="42.96629" lon="-0.2151">
        <ele>1100.4</ele>
        <time>2022-06-08 13:34:37</time>
      </trkpt>
      <trkpt lat="42.96621" lon="-0.21516">
        <ele>1100</ele>
        <time>2022-06-08 13:34:38</time>
      </trkpt>
      <trkpt lat="42.96615" lon="-0.21527">
        <ele>1098.6</ele>
        <time>2022-06-08 13:34:39</time>
      </trkpt>
      <trkpt lat="42.9661" lon="-0.2154">
        <ele>1097.6</ele>
        <time>2022-06-08 13:34:40</time>
      </trkpt>
      <trkpt lat="42.96606" lon="-0.21554">
        <ele>1096.2</ele>
        <time>2022-06-08 13:34:41</time>
      </trkpt>
      <trkpt lat="42.96601" lon="-0.21569">
        <ele>1095.8</ele>
        <time>2022-06-08 13:34:42</time>
      </trkpt>
      <trkpt lat="42.96595" lon="-0.21583">
        <ele>1094.8</ele>
        <time>2022-06-08 13:34:43</time>
      </trkpt>
      <trkpt lat="42.96587" lon="-0.21595">
        <ele>1094.6</ele>
        <time>2022-06-08 13:34:44</time>
      </trkpt>
      <trkpt lat="42.96579" lon="-0.21603">
        <ele>1093.6</ele>
        <time>2022-06-08 13:34:45</time>
      </trkpt>
      <trkpt lat="42.96567" lon="-0.21612">
        <ele>1092.8</ele>
        <time>2022-06-08 13:34:46</time>
      </trkpt>
      <trkpt lat="42.96555" lon="-0.2162">
        <ele>1091.6</ele>
        <time>2022-06-08 13:34:47</time>
      </trkpt>
      <trkpt lat="42.96543" lon="-0.21631">
        <ele>1091</ele>
        <time>2022-06-08 13:34:48</time>
      </trkpt>
      <trkpt lat="42.96532" lon="-0.21643">
        <ele>1089.6</ele>
        <time>2022-06-08 13:34:49</time>
      </trkpt>
      <trkpt lat="42.96522" lon="-0.21657">
        <ele>1087.6</ele>
        <time>2022-06-08 13:34:50</time>
      </trkpt>
      <trkpt lat="42.96511" lon="-0.21671">
        <ele>1086.8</ele>
        <time>2022-06-08 13:34:51</time>
      </trkpt>
      <trkpt lat="42.96501" lon="-0.21686">
        <ele>1085</ele>
        <time>2022-06-08 13:34:52</time>
      </trkpt>
      <trkpt lat="42.9649" lon="-0.217">
        <ele>1083.8</ele>
        <time>2022-06-08 13:34:53</time>
      </trkpt>
      <trkpt lat="42.96478" lon="-0.21714">
        <ele>1081.8</ele>
        <time>2022-06-08 13:34:54</time>
      </trkpt>
      <trkpt lat="42.96466" lon="-0.21727">
        <ele>1081</ele>
        <time>2022-06-08 13:34:55</time>
      </trkpt>
      <trkpt lat="42.96453" lon="-0.2174">
        <ele>1079.2</ele>
        <time>2022-06-08 13:34:56</time>
      </trkpt>
      <trkpt lat="42.9644" lon="-0.21753">
        <ele>1078.6</ele>
        <time>2022-06-08 13:34:57</time>
      </trkpt>
      <trkpt lat="42.96428" lon="-0.21766">
        <ele>1077.2</ele>
        <time>2022-06-08 13:34:58</time>
      </trkpt>
      <trkpt lat="42.96416" lon="-0.21779">
        <ele>1076.6</ele>
        <time>2022-06-08 13:34:59</time>
      </trkpt>
      <trkpt lat="42.96407" lon="-0.21789">
        <ele>1074</ele>
        <time>2022-06-08 13:35:00</time>
      </trkpt>
      <trkpt lat="42.96394" lon="-0.21805">
        <ele>1073.2</ele>
        <time>2022-06-08 13:35:01</time>
      </trkpt>
      <trkpt lat="42.96383" lon="-0.21818">
        <ele>1071.6</ele>
        <time>2022-06-08 13:35:02</time>
      </trkpt>
      <trkpt lat="42.96372" lon="-0.2183">
        <ele>1070.8</ele>
        <time>2022-06-08 13:35:03</time>
      </trkpt>
      <trkpt lat="42.96362" lon="-0.21842">
        <ele>1069</ele>
        <time>2022-06-08 13:35:04</time>
      </trkpt>
      <trkpt lat="42.96353" lon="-0.21851">
        <ele>1067.4</ele>
        <time>2022-06-08 13:35:05</time>
      </trkpt>
      <trkpt lat="42.96343" lon="-0.21862">
        <ele>1066.6</ele>
        <time>2022-06-08 13:35:06</time>
      </trkpt>
      <trkpt lat="42.96333" lon="-0.21874">
        <ele>1064.8</ele>
        <time>2022-06-08 13:35:07</time>
      </trkpt>
      <trkpt lat="42.96324" lon="-0.21881">
        <ele>1063.8</ele>
        <time>2022-06-08 13:35:08</time>
      </trkpt>
      <trkpt lat="42.96313" lon="-0.21885">
        <ele>1062.4</ele>
        <time>2022-06-08 13:35:09</time>
      </trkpt>
      <trkpt lat="42.96303" lon="-0.21883">
        <ele>1062</ele>
        <time>2022-06-08 13:35:10</time>
      </trkpt>
      <trkpt lat="42.96294" lon="-0.21876">
        <ele>1061.4</ele>
        <time>2022-06-08 13:35:11</time>
      </trkpt>
      <trkpt lat="42.96288" lon="-0.21862">
        <ele>1060.6</ele>
        <time>2022-06-08 13:35:12</time>
      </trkpt>
      <trkpt lat="42.96288" lon="-0.21844">
        <ele>1059.4</ele>
        <time>2022-06-08 13:35:13</time>
      </trkpt>
      <trkpt lat="42.96289" lon="-0.21826">
        <ele>1058.8</ele>
        <time>2022-06-08 13:35:14</time>
      </trkpt>
      <trkpt lat="42.96289" lon="-0.21812">
        <ele>1057.6</ele>
        <time>2022-06-08 13:35:15</time>
      </trkpt>
      <trkpt lat="42.96284" lon="-0.21799">
        <ele>1056.2</ele>
        <time>2022-06-08 13:35:16</time>
      </trkpt>
      <trkpt lat="42.96273" lon="-0.21792">
        <ele>1054.4</ele>
        <time>2022-06-08 13:35:17</time>
      </trkpt>
      <trkpt lat="42.96262" lon="-0.2179">
        <ele>1053.8</ele>
        <time>2022-06-08 13:35:18</time>
      </trkpt>
      <trkpt lat="42.96251" lon="-0.21794">
        <ele>1052.4</ele>
        <time>2022-06-08 13:35:19</time>
      </trkpt>
      <trkpt lat="42.9624" lon="-0.21805">
        <ele>1051.8</ele>
        <time>2022-06-08 13:35:20</time>
      </trkpt>
      <trkpt lat="42.96232" lon="-0.21819">
        <ele>1051</ele>
        <time>2022-06-08 13:35:21</time>
      </trkpt>
      <trkpt lat="42.96226" lon="-0.21832">
        <ele>1049.8</ele>
        <time>2022-06-08 13:35:22</time>
      </trkpt>
      <trkpt lat="42.96221" lon="-0.21854">
        <ele>1048.4</ele>
        <time>2022-06-08 13:35:23</time>
      </trkpt>
      <trkpt lat="42.96221" lon="-0.21871">
        <ele>1047</ele>
        <time>2022-06-08 13:35:24</time>
      </trkpt>
      <trkpt lat="42.96224" lon="-0.21885">
        <ele>1046.2</ele>
        <time>2022-06-08 13:35:25</time>
      </trkpt>
      <trkpt lat="42.96228" lon="-0.21896">
        <ele>1045</ele>
        <time>2022-06-08 13:35:26</time>
      </trkpt>
      <trkpt lat="42.96231" lon="-0.21909">
        <ele>1044.4</ele>
        <time>2022-06-08 13:35:27</time>
      </trkpt>
      <trkpt lat="42.96231" lon="-0.21925">
        <ele>1043</ele>
        <time>2022-06-08 13:35:28</time>
      </trkpt>
      <trkpt lat="42.96226" lon="-0.21937">
        <ele>1042.4</ele>
        <time>2022-06-08 13:35:29</time>
      </trkpt>
      <trkpt lat="42.96218" lon="-0.21945">
        <ele>1041.6</ele>
        <time>2022-06-08 13:35:30</time>
      </trkpt>
      <trkpt lat="42.96207" lon="-0.21946">
        <ele>1041</ele>
        <time>2022-06-08 13:35:31</time>
      </trkpt>
      <trkpt lat="42.96199" lon="-0.21944">
        <ele>1039.6</ele>
        <time>2022-06-08 13:35:32</time>
      </trkpt>
      <trkpt lat="42.96192" lon="-0.21941">
        <ele>1037.6</ele>
        <time>2022-06-08 13:35:33</time>
      </trkpt>
      <trkpt lat="42.96177" lon="-0.21936">
        <ele>1036.6</ele>
        <time>2022-06-08 13:35:34</time>
      </trkpt>
      <trkpt lat="42.96165" lon="-0.21934">
        <ele>1035.2</ele>
        <time>2022-06-08 13:35:35</time>
      </trkpt>
      <trkpt lat="42.96153" lon="-0.21933">
        <ele>1034.8</ele>
        <time>2022-06-08 13:35:36</time>
      </trkpt>
      <trkpt lat="42.96145" lon="-0.21935">
        <ele>1033.8</ele>
        <time>2022-06-08 13:35:37</time>
      </trkpt>
      <trkpt lat="42.96136" lon="-0.21943">
        <ele>1033.4</ele>
        <time>2022-06-08 13:35:38</time>
      </trkpt>
      <trkpt lat="42.9613" lon="-0.21953">
        <ele>1031.8</ele>
        <time>2022-06-08 13:35:39</time>
      </trkpt>
      <trkpt lat="42.96124" lon="-0.21963">
        <ele>1031.2</ele>
        <time>2022-06-08 13:35:40</time>
      </trkpt>
      <trkpt lat="42.96121" lon="-0.21976">
        <ele>1029</ele>
        <time>2022-06-08 13:35:41</time>
      </trkpt>
      <trkpt lat="42.96121" lon="-0.21989">
        <ele>1028.2</ele>
        <time>2022-06-08 13:35:42</time>
      </trkpt>
      <trkpt lat="42.96123" lon="-0.22001">
        <ele>1027.4</ele>
        <time>2022-06-08 13:35:43</time>
      </trkpt>
      <trkpt lat="42.96126" lon="-0.22017">
        <ele>1026.8</ele>
        <time>2022-06-08 13:35:44</time>
      </trkpt>
      <trkpt lat="42.96127" lon="-0.22032">
        <ele>1026</ele>
        <time>2022-06-08 13:35:45</time>
      </trkpt>
      <trkpt lat="42.96125" lon="-0.22045">
        <ele>1025.4</ele>
        <time>2022-06-08 13:35:46</time>
      </trkpt>
      <trkpt lat="42.96121" lon="-0.22053">
        <ele>1023.6</ele>
        <time>2022-06-08 13:35:47</time>
      </trkpt>
      <trkpt lat="42.96115" lon="-0.2206">
        <ele>1022.2</ele>
        <time>2022-06-08 13:35:48</time>
      </trkpt>
      <trkpt lat="42.96106" lon="-0.22064">
        <ele>1021.2</ele>
        <time>2022-06-08 13:35:49</time>
      </trkpt>
      <trkpt lat="42.96097" lon="-0.22061">
        <ele>1019.8</ele>
        <time>2022-06-08 13:35:50</time>
      </trkpt>
      <trkpt lat="42.96091" lon="-0.22052">
        <ele>1019.2</ele>
        <time>2022-06-08 13:35:51</time>
      </trkpt>
      <trkpt lat="42.96086" lon="-0.22039">
        <ele>1018</ele>
        <time>2022-06-08 13:35:52</time>
      </trkpt>
      <trkpt lat="42.96084" lon="-0.22024">
        <ele>1017.2</ele>
        <time>2022-06-08 13:35:53</time>
      </trkpt>
      <trkpt lat="42.96082" lon="-0.22008">
        <ele>1016</ele>
        <time>2022-06-08 13:35:54</time>
      </trkpt>
      <trkpt lat="42.96079" lon="-0.21993">
        <ele>1015.6</ele>
        <time>2022-06-08 13:35:55</time>
      </trkpt>
      <trkpt lat="42.96074" lon="-0.21975">
        <ele>1014.2</ele>
        <time>2022-06-08 13:35:56</time>
      </trkpt>
      <trkpt lat="42.96071" lon="-0.21961">
        <ele>1013.6</ele>
        <time>2022-06-08 13:35:57</time>
      </trkpt>
      <trkpt lat="42.96068" lon="-0.21948">
        <ele>1012.8</ele>
        <time>2022-06-08 13:35:58</time>
      </trkpt>
      <trkpt lat="42.96067" lon="-0.21936">
        <ele>1012.4</ele>
        <time>2022-06-08 13:35:59</time>
      </trkpt>
      <trkpt lat="42.96066" lon="-0.2192">
        <ele>1011.8</ele>
        <time>2022-06-08 13:36:00</time>
      </trkpt>
      <trkpt lat="42.96069" lon="-0.21905">
        <ele>1011.6</ele>
        <time>2022-06-08 13:36:01</time>
      </trkpt>
      <trkpt lat="42.96073" lon="-0.2189">
        <ele>1011.2</ele>
        <time>2022-06-08 13:36:02</time>
      </trkpt>
      <trkpt lat="42.96077" lon="-0.21878">
        <ele>1011</ele>
        <time>2022-06-08 13:36:03</time>
      </trkpt>
      <trkpt lat="42.96082" lon="-0.2186">
        <ele>1010.6</ele>
        <time>2022-06-08 13:36:04</time>
      </trkpt>
      <trkpt lat="42.96083" lon="-0.21843">
        <ele>1010</ele>
        <time>2022-06-08 13:36:05</time>
      </trkpt>
      <trkpt lat="42.96083" lon="-0.21826">
        <ele>1009.6</ele>
        <time>2022-06-08 13:36:06</time>
      </trkpt>
      <trkpt lat="42.96081" lon="-0.21808">
        <ele>1008.6</ele>
        <time>2022-06-08 13:36:07</time>
      </trkpt>
      <trkpt lat="42.9608" lon="-0.21794">
        <ele>1007.8</ele>
        <time>2022-06-08 13:36:08</time>
      </trkpt>
      <trkpt lat="42.96081" lon="-0.21776">
        <ele>1006.8</ele>
        <time>2022-06-08 13:36:09</time>
      </trkpt>
      <trkpt lat="42.96084" lon="-0.21758">
        <ele>1006.4</ele>
        <time>2022-06-08 13:36:10</time>
      </trkpt>
      <trkpt lat="42.96089" lon="-0.21737">
        <ele>1005.2</ele>
        <time>2022-06-08 13:36:11</time>
      </trkpt>
      <trkpt lat="42.96091" lon="-0.21719">
        <ele>1004.8</ele>
        <time>2022-06-08 13:36:12</time>
      </trkpt>
      <trkpt lat="42.96091" lon="-0.21705">
        <ele>1003</ele>
        <time>2022-06-08 13:36:13</time>
      </trkpt>
      <trkpt lat="42.96091" lon="-0.21686">
        <ele>1002.4</ele>
        <time>2022-06-08 13:36:14</time>
      </trkpt>
      <trkpt lat="42.96091" lon="-0.21666">
        <ele>1000.8</ele>
        <time>2022-06-08 13:36:15</time>
      </trkpt>
      <trkpt lat="42.96092" lon="-0.21643">
        <ele>1000.4</ele>
        <time>2022-06-08 13:36:16</time>
      </trkpt>
      <trkpt lat="42.96092" lon="-0.21624">
        <ele>999.4</ele>
        <time>2022-06-08 13:36:17</time>
      </trkpt>
      <trkpt lat="42.96093" lon="-0.21609">
        <ele>998.8</ele>
        <time>2022-06-08 13:36:18</time>
      </trkpt>
      <trkpt lat="42.96095" lon="-0.2159">
        <ele>997.8</ele>
        <time>2022-06-08 13:36:19</time>
      </trkpt>
      <trkpt lat="42.96096" lon="-0.21572">
        <ele>996.2</ele>
        <time>2022-06-08 13:36:20</time>
      </trkpt>
      <trkpt lat="42.96098" lon="-0.21552">
        <ele>994.8</ele>
        <time>2022-06-08 13:36:21</time>
      </trkpt>
      <trkpt lat="42.96099" lon="-0.21535">
        <ele>993</ele>
        <time>2022-06-08 13:36:22</time>
      </trkpt>
      <trkpt lat="42.961" lon="-0.21518">
        <ele>992</ele>
        <time>2022-06-08 13:36:23</time>
      </trkpt>
      <trkpt lat="42.961" lon="-0.21505">
        <ele>990</ele>
        <time>2022-06-08 13:36:24</time>
      </trkpt>
      <trkpt lat="42.961" lon="-0.21487">
        <ele>989.2</ele>
        <time>2022-06-08 13:36:25</time>
      </trkpt>
      <trkpt lat="42.96099" lon="-0.21474">
        <ele>987.2</ele>
        <time>2022-06-08 13:36:26</time>
      </trkpt>
      <trkpt lat="42.96095" lon="-0.21456">
        <ele>986.6</ele>
        <time>2022-06-08 13:36:27</time>
      </trkpt>
      <trkpt lat="42.96089" lon="-0.21443">
        <ele>986</ele>
        <time>2022-06-08 13:36:28</time>
      </trkpt>
      <trkpt lat="42.96083" lon="-0.21434">
        <ele>985.8</ele>
        <time>2022-06-08 13:36:29</time>
      </trkpt>
      <trkpt lat="42.96075" lon="-0.21422">
        <ele>984.4</ele>
        <time>2022-06-08 13:36:30</time>
      </trkpt>
      <trkpt lat="42.96065" lon="-0.21409">
        <ele>983.2</ele>
        <time>2022-06-08 13:36:31</time>
      </trkpt>
      <trkpt lat="42.96058" lon="-0.21396">
        <ele>982.2</ele>
        <time>2022-06-08 13:36:32</time>
      </trkpt>
      <trkpt lat="42.96054" lon="-0.21381">
        <ele>981</ele>
        <time>2022-06-08 13:36:33</time>
      </trkpt>
      <trkpt lat="42.96053" lon="-0.21364">
        <ele>980.6</ele>
        <time>2022-06-08 13:36:34</time>
      </trkpt>
      <trkpt lat="42.96055" lon="-0.21351">
        <ele>979.4</ele>
        <time>2022-06-08 13:36:35</time>
      </trkpt>
      <trkpt lat="42.96058" lon="-0.21333">
        <ele>979</ele>
        <time>2022-06-08 13:36:36</time>
      </trkpt>
      <trkpt lat="42.96062" lon="-0.21312">
        <ele>978</ele>
        <time>2022-06-08 13:36:37</time>
      </trkpt>
      <trkpt lat="42.96064" lon="-0.21294">
        <ele>977.2</ele>
        <time>2022-06-08 13:36:38</time>
      </trkpt>
      <trkpt lat="42.96064" lon="-0.21275">
        <ele>975.6</ele>
        <time>2022-06-08 13:36:39</time>
      </trkpt>
      <trkpt lat="42.96064" lon="-0.2126">
        <ele>974.8</ele>
        <time>2022-06-08 13:36:40</time>
      </trkpt>
      <trkpt lat="42.96064" lon="-0.21237">
        <ele>973.2</ele>
        <time>2022-06-08 13:36:41</time>
      </trkpt>
      <trkpt lat="42.96064" lon="-0.21218">
        <ele>972.6</ele>
        <time>2022-06-08 13:36:42</time>
      </trkpt>
      <trkpt lat="42.96064" lon="-0.21199">
        <ele>970.8</ele>
        <time>2022-06-08 13:36:43</time>
      </trkpt>
      <trkpt lat="42.96065" lon="-0.21181">
        <ele>970</ele>
        <time>2022-06-08 13:36:44</time>
      </trkpt>
      <trkpt lat="42.96066" lon="-0.21165">
        <ele>968.6</ele>
        <time>2022-06-08 13:36:45</time>
      </trkpt>
      <trkpt lat="42.96066" lon="-0.21151">
        <ele>966.8</ele>
        <time>2022-06-08 13:36:46</time>
      </trkpt>
      <trkpt lat="42.96063" lon="-0.21138">
        <ele>965.8</ele>
        <time>2022-06-08 13:36:47</time>
      </trkpt>
      <trkpt lat="42.96059" lon="-0.21128">
        <ele>964.6</ele>
        <time>2022-06-08 13:36:48</time>
      </trkpt>
      <trkpt lat="42.96052" lon="-0.21122">
        <ele>964.2</ele>
        <time>2022-06-08 13:36:49</time>
      </trkpt>
      <trkpt lat="42.96044" lon="-0.21118">
        <ele>962.2</ele>
        <time>2022-06-08 13:36:50</time>
      </trkpt>
      <trkpt lat="42.96035" lon="-0.2112">
        <ele>961.8</ele>
        <time>2022-06-08 13:36:51</time>
      </trkpt>
      <trkpt lat="42.96028" lon="-0.21127">
        <ele>961</ele>
        <time>2022-06-08 13:36:52</time>
      </trkpt>
      <trkpt lat="42.96022" lon="-0.21138">
        <ele>960.6</ele>
        <time>2022-06-08 13:36:53</time>
      </trkpt>
      <trkpt lat="42.96017" lon="-0.21151">
        <ele>960.2</ele>
        <time>2022-06-08 13:36:54</time>
      </trkpt>
      <trkpt lat="42.9601" lon="-0.21165">
        <ele>960</ele>
        <time>2022-06-08 13:36:55</time>
      </trkpt>
      <trkpt lat="42.96003" lon="-0.21177">
        <ele>958.8</ele>
        <time>2022-06-08 13:36:56</time>
      </trkpt>
      <trkpt lat="42.95996" lon="-0.21186">
        <ele>958.2</ele>
        <time>2022-06-08 13:36:57</time>
      </trkpt>
      <trkpt lat="42.95985" lon="-0.212">
        <ele>957.2</ele>
        <time>2022-06-08 13:36:58</time>
      </trkpt>
      <trkpt lat="42.95975" lon="-0.21211">
        <ele>956.4</ele>
        <time>2022-06-08 13:36:59</time>
      </trkpt>
      <trkpt lat="42.95965" lon="-0.21222">
        <ele>955.6</ele>
        <time>2022-06-08 13:37:00</time>
      </trkpt>
      <trkpt lat="42.95955" lon="-0.21234">
        <ele>954.6</ele>
        <time>2022-06-08 13:37:01</time>
      </trkpt>
      <trkpt lat="42.95945" lon="-0.21246">
        <ele>953.8</ele>
        <time>2022-06-08 13:37:02</time>
      </trkpt>
      <trkpt lat="42.95935" lon="-0.21259">
        <ele>952.2</ele>
        <time>2022-06-08 13:37:03</time>
      </trkpt>
      <trkpt lat="42.95926" lon="-0.21273">
        <ele>951.4</ele>
        <time>2022-06-08 13:37:04</time>
      </trkpt>
      <trkpt lat="42.95917" lon="-0.21288">
        <ele>949.8</ele>
        <time>2022-06-08 13:37:05</time>
      </trkpt>
      <trkpt lat="42.95909" lon="-0.21303">
        <ele>949.4</ele>
        <time>2022-06-08 13:37:06</time>
      </trkpt>
      <trkpt lat="42.95899" lon="-0.21317">
        <ele>946.8</ele>
        <time>2022-06-08 13:37:07</time>
      </trkpt>
      <trkpt lat="42.95889" lon="-0.2133">
        <ele>946</ele>
        <time>2022-06-08 13:37:08</time>
      </trkpt>
      <trkpt lat="42.95877" lon="-0.21341">
        <ele>944.4</ele>
        <time>2022-06-08 13:37:09</time>
      </trkpt>
      <trkpt lat="42.95867" lon="-0.21354">
        <ele>943.6</ele>
        <time>2022-06-08 13:37:10</time>
      </trkpt>
      <trkpt lat="42.95859" lon="-0.21368">
        <ele>942.6</ele>
        <time>2022-06-08 13:37:11</time>
      </trkpt>
      <trkpt lat="42.95855" lon="-0.21384">
        <ele>942</ele>
        <time>2022-06-08 13:37:12</time>
      </trkpt>
      <trkpt lat="42.95852" lon="-0.21402">
        <ele>940.2</ele>
        <time>2022-06-08 13:37:13</time>
      </trkpt>
      <trkpt lat="42.95849" lon="-0.21421">
        <ele>938.4</ele>
        <time>2022-06-08 13:37:14</time>
      </trkpt>
      <trkpt lat="42.95846" lon="-0.2144">
        <ele>937.4</ele>
        <time>2022-06-08 13:37:15</time>
      </trkpt>
      <trkpt lat="42.9584" lon="-0.21457">
        <ele>936.4</ele>
        <time>2022-06-08 13:37:16</time>
      </trkpt>
      <trkpt lat="42.95833" lon="-0.21473">
        <ele>936.2</ele>
        <time>2022-06-08 13:37:17</time>
      </trkpt>
      <trkpt lat="42.95825" lon="-0.21488">
        <ele>934.6</ele>
        <time>2022-06-08 13:37:18</time>
      </trkpt>
      <trkpt lat="42.95816" lon="-0.21502">
        <ele>933.6</ele>
        <time>2022-06-08 13:37:19</time>
      </trkpt>
      <trkpt lat="42.95808" lon="-0.21514">
        <ele>931.8</ele>
        <time>2022-06-08 13:37:20</time>
      </trkpt>
      <trkpt lat="42.95798" lon="-0.21524">
        <ele>931.2</ele>
        <time>2022-06-08 13:37:21</time>
      </trkpt>
      <trkpt lat="42.95787" lon="-0.21531">
        <ele>930</ele>
        <time>2022-06-08 13:37:22</time>
      </trkpt>
      <trkpt lat="42.95777" lon="-0.21537">
        <ele>928.8</ele>
        <time>2022-06-08 13:37:23</time>
      </trkpt>
      <trkpt lat="42.95767" lon="-0.21544">
        <ele>927.2</ele>
        <time>2022-06-08 13:37:24</time>
      </trkpt>
      <trkpt lat="42.95758" lon="-0.21552">
        <ele>926.8</ele>
        <time>2022-06-08 13:37:25</time>
      </trkpt>
      <trkpt lat="42.9575" lon="-0.2156">
        <ele>925.4</ele>
        <time>2022-06-08 13:37:26</time>
      </trkpt>
      <trkpt lat="42.95741" lon="-0.21566">
        <ele>924.8</ele>
        <time>2022-06-08 13:37:27</time>
      </trkpt>
      <trkpt lat="42.95733" lon="-0.21571">
        <ele>923.6</ele>
        <time>2022-06-08 13:37:28</time>
      </trkpt>
      <trkpt lat="42.95723" lon="-0.21574">
        <ele>922.6</ele>
        <time>2022-06-08 13:37:29</time>
      </trkpt>
      <trkpt lat="42.95714" lon="-0.21573">
        <ele>921.8</ele>
        <time>2022-06-08 13:37:30</time>
      </trkpt>
      <trkpt lat="42.95705" lon="-0.2157">
        <ele>920.4</ele>
        <time>2022-06-08 13:37:31</time>
      </trkpt>
      <trkpt lat="42.95696" lon="-0.21566">
        <ele>919.8</ele>
        <time>2022-06-08 13:37:32</time>
      </trkpt>
      <trkpt lat="42.95687" lon="-0.21562">
        <ele>919</ele>
        <time>2022-06-08 13:37:33</time>
      </trkpt>
      <trkpt lat="42.95679" lon="-0.21557">
        <ele>918.4</ele>
        <time>2022-06-08 13:37:34</time>
      </trkpt>
      <trkpt lat="42.95671" lon="-0.21551">
        <ele>917.6</ele>
        <time>2022-06-08 13:37:35</time>
      </trkpt>
      <trkpt lat="42.95663" lon="-0.21543">
        <ele>917.2</ele>
        <time>2022-06-08 13:37:36</time>
      </trkpt>
      <trkpt lat="42.95656" lon="-0.21536">
        <ele>916.6</ele>
        <time>2022-06-08 13:37:37</time>
      </trkpt>
      <trkpt lat="42.95649" lon="-0.21528">
        <ele>916.6</ele>
        <time>2022-06-08 13:37:38</time>
      </trkpt>
      <trkpt lat="42.95644" lon="-0.21519">
        <ele>915.8</ele>
        <time>2022-06-08 13:37:39</time>
      </trkpt>
      <trkpt lat="42.9564" lon="-0.2151">
        <ele>915.2</ele>
        <time>2022-06-08 13:37:40</time>
      </trkpt>
      <trkpt lat="42.95636" lon="-0.21499">
        <ele>914.6</ele>
        <time>2022-06-08 13:37:41</time>
      </trkpt>
      <trkpt lat="42.95633" lon="-0.21491">
        <ele>914.2</ele>
        <time>2022-06-08 13:37:42</time>
      </trkpt>
      <trkpt lat="42.95629" lon="-0.21477">
        <ele>914.2</ele>
        <time>2022-06-08 13:37:43</time>
      </trkpt>
      <trkpt lat="42.95625" lon="-0.21465">
        <ele>913.8</ele>
        <time>2022-06-08 13:37:44</time>
      </trkpt>
      <trkpt lat="42.95622" lon="-0.21453">
        <ele>913.8</ele>
        <time>2022-06-08 13:37:45</time>
      </trkpt>
      <trkpt lat="42.95619" lon="-0.21441">
        <ele>913.6</ele>
        <time>2022-06-08 13:37:46</time>
      </trkpt>
      <trkpt lat="42.95618" lon="-0.2143">
        <ele>913.4</ele>
        <time>2022-06-08 13:37:47</time>
      </trkpt>
      <trkpt lat="42.95617" lon="-0.21418">
        <ele>912.8</ele>
        <time>2022-06-08 13:37:48</time>
      </trkpt>
      <trkpt lat="42.95618" lon="-0.21406">
        <ele>912.4</ele>
        <time>2022-06-08 13:37:49</time>
      </trkpt>
      <trkpt lat="42.95618" lon="-0.21394">
        <ele>911.8</ele>
        <time>2022-06-08 13:37:50</time>
      </trkpt>
      <trkpt lat="42.95617" lon="-0.21384">
        <ele>911.8</ele>
        <time>2022-06-08 13:37:51</time>
      </trkpt>
      <trkpt lat="42.95618" lon="-0.21375">
        <ele>911.6</ele>
        <time>2022-06-08 13:37:52</time>
      </trkpt>
      <trkpt lat="42.95619" lon="-0.21366">
        <ele>911.4</ele>
        <time>2022-06-08 13:37:53</time>
      </trkpt>
      <trkpt lat="42.95622" lon="-0.21357">
        <ele>911.2</ele>
        <time>2022-06-08 13:37:54</time>
      </trkpt>
      <trkpt lat="42.95626" lon="-0.2135">
        <ele>911.2</ele>
        <time>2022-06-08 13:37:55</time>
      </trkpt>
      <trkpt lat="42.95629" lon="-0.21346">
        <ele>911</ele>
        <time>2022-06-08 13:37:56</time>
      </trkpt>
      <trkpt lat="42.95634" lon="-0.21342">
        <ele>910.8</ele>
        <time>2022-06-08 13:37:57</time>
      </trkpt>
      <trkpt lat="42.95639" lon="-0.21336">
        <ele>910.8</ele>
        <time>2022-06-08 13:37:58</time>
      </trkpt>
      <trkpt lat="42.95643" lon="-0.2133">
        <ele>910.6</ele>
        <time>2022-06-08 13:37:59</time>
      </trkpt>
      <trkpt lat="42.95646" lon="-0.21323">
        <ele>910.6</ele>
        <time>2022-06-08 13:38:00</time>
      </trkpt>
      <trkpt lat="42.95649" lon="-0.21315">
        <ele>910.4</ele>
        <time>2022-06-08 13:38:01</time>
      </trkpt>
      <trkpt lat="42.95652" lon="-0.21307">
        <ele>910.4</ele>
        <time>2022-06-08 13:38:02</time>
      </trkpt>
      <trkpt lat="42.95655" lon="-0.21299">
        <ele>910</ele>
        <time>2022-06-08 13:38:03</time>
      </trkpt>
      <trkpt lat="42.95657" lon="-0.21291">
        <ele>909.8</ele>
        <time>2022-06-08 13:38:04</time>
      </trkpt>
      <trkpt lat="42.95659" lon="-0.21283">
        <ele>909.8</ele>
        <time>2022-06-08 13:38:05</time>
      </trkpt>
      <trkpt lat="42.95661" lon="-0.21275">
        <ele>909.6</ele>
        <time>2022-06-08 13:38:06</time>
      </trkpt>
      <trkpt lat="42.95663" lon="-0.21265">
        <ele>909.6</ele>
        <time>2022-06-08 13:38:07</time>
      </trkpt>
      <trkpt lat="42.95663" lon="-0.21256">
        <ele>909.6</ele>
        <time>2022-06-08 13:38:08</time>
      </trkpt>
      <trkpt lat="42.95664" lon="-0.21247">
        <ele>909.2</ele>
        <time>2022-06-08 13:38:09</time>
      </trkpt>
      <trkpt lat="42.95665" lon="-0.21238">
        <ele>909.2</ele>
        <time>2022-06-08 13:38:10</time>
      </trkpt>
      <trkpt lat="42.95667" lon="-0.21229">
        <ele>909</ele>
        <time>2022-06-08 13:38:11</time>
      </trkpt>
      <trkpt lat="42.95668" lon="-0.21221">
        <ele>909</ele>
        <time>2022-06-08 13:38:12</time>
      </trkpt>
      <trkpt lat="42.9567" lon="-0.21213">
        <ele>908.8</ele>
        <time>2022-06-08 13:38:13</time>
      </trkpt>
      <trkpt lat="42.95672" lon="-0.21205">
        <ele>908.8</ele>
        <time>2022-06-08 13:38:14</time>
      </trkpt>
      <trkpt lat="42.95675" lon="-0.21197">
        <ele>908.8</ele>
        <time>2022-06-08 13:38:15</time>
      </trkpt>
      <trkpt lat="42.95678" lon="-0.2119">
        <ele>908.6</ele>
        <time>2022-06-08 13:38:16</time>
      </trkpt>
      <trkpt lat="42.95681" lon="-0.21182">
        <ele>908.6</ele>
        <time>2022-06-08 13:38:17</time>
      </trkpt>
      <trkpt lat="42.95684" lon="-0.21175">
        <ele>908.6</ele>
        <time>2022-06-08 13:38:18</time>
      </trkpt>
      <trkpt lat="42.95686" lon="-0.21167">
        <ele>908.4</ele>
        <time>2022-06-08 13:38:19</time>
      </trkpt>
      <trkpt lat="42.95689" lon="-0.2116">
        <ele>908.4</ele>
        <time>2022-06-08 13:38:20</time>
      </trkpt>
      <trkpt lat="42.95692" lon="-0.21152">
        <ele>908.2</ele>
        <time>2022-06-08 13:38:21</time>
      </trkpt>
      <trkpt lat="42.95695" lon="-0.21144">
        <ele>908.4</ele>
        <time>2022-06-08 13:38:22</time>
      </trkpt>
      <trkpt lat="42.95697" lon="-0.21136">
        <ele>908.4</ele>
        <time>2022-06-08 13:38:23</time>
      </trkpt>
      <trkpt lat="42.957" lon="-0.21129">
        <ele>908.2</ele>
        <time>2022-06-08 13:38:24</time>
      </trkpt>
      <trkpt lat="42.95702" lon="-0.21121">
        <ele>907.8</ele>
        <time>2022-06-08 13:38:25</time>
      </trkpt>
      <trkpt lat="42.95705" lon="-0.21112">
        <ele>907.8</ele>
        <time>2022-06-08 13:38:26</time>
      </trkpt>
      <trkpt lat="42.95708" lon="-0.21104">
        <ele>907.6</ele>
        <time>2022-06-08 13:38:27</time>
      </trkpt>
      <trkpt lat="42.95712" lon="-0.21095">
        <ele>907.4</ele>
        <time>2022-06-08 13:38:28</time>
      </trkpt>
      <trkpt lat="42.95716" lon="-0.21087">
        <ele>907.2</ele>
        <time>2022-06-08 13:38:29</time>
      </trkpt>
      <trkpt lat="42.95719" lon="-0.21081">
        <ele>907</ele>
        <time>2022-06-08 13:38:30</time>
      </trkpt>
      <trkpt lat="42.95725" lon="-0.21072">
        <ele>907</ele>
        <time>2022-06-08 13:38:31</time>
      </trkpt>
      <trkpt lat="42.95729" lon="-0.21064">
        <ele>907</ele>
        <time>2022-06-08 13:38:32</time>
      </trkpt>
      <trkpt lat="42.95734" lon="-0.21056">
        <ele>907</ele>
        <time>2022-06-08 13:38:33</time>
      </trkpt>
      <trkpt lat="42.95738" lon="-0.21048">
        <ele>907</ele>
        <time>2022-06-08 13:38:34</time>
      </trkpt>
      <trkpt lat="42.95743" lon="-0.2104">
        <ele>907</ele>
        <time>2022-06-08 13:38:35</time>
      </trkpt>
      <trkpt lat="42.95748" lon="-0.21033">
        <ele>906.8</ele>
        <time>2022-06-08 13:38:36</time>
      </trkpt>
      <trkpt lat="42.95753" lon="-0.21025">
        <ele>907</ele>
        <time>2022-06-08 13:38:37</time>
      </trkpt>
      <trkpt lat="42.95758" lon="-0.21018">
        <ele>906.8</ele>
        <time>2022-06-08 13:38:38</time>
      </trkpt>
      <trkpt lat="42.95762" lon="-0.2101">
        <ele>906.8</ele>
        <time>2022-06-08 13:38:39</time>
      </trkpt>
      <trkpt lat="42.95767" lon="-0.21002">
        <ele>906.4</ele>
        <time>2022-06-08 13:38:40</time>
      </trkpt>
      <trkpt lat="42.95772" lon="-0.20995">
        <ele>906.2</ele>
        <time>2022-06-08 13:38:41</time>
      </trkpt>
      <trkpt lat="42.95777" lon="-0.20987">
        <ele>905.8</ele>
        <time>2022-06-08 13:38:42</time>
      </trkpt>
      <trkpt lat="42.95781" lon="-0.2098">
        <ele>905.6</ele>
        <time>2022-06-08 13:38:43</time>
      </trkpt>
      <trkpt lat="42.95786" lon="-0.20972">
        <ele>905.6</ele>
        <time>2022-06-08 13:38:44</time>
      </trkpt>
      <trkpt lat="42.9579" lon="-0.20964">
        <ele>905.6</ele>
        <time>2022-06-08 13:38:45</time>
      </trkpt>
      <trkpt lat="42.95795" lon="-0.20957">
        <ele>905.6</ele>
        <time>2022-06-08 13:38:46</time>
      </trkpt>
      <trkpt lat="42.958" lon="-0.20949">
        <ele>905.6</ele>
        <time>2022-06-08 13:38:47</time>
      </trkpt>
      <trkpt lat="42.95805" lon="-0.20941">
        <ele>905.4</ele>
        <time>2022-06-08 13:38:48</time>
      </trkpt>
      <trkpt lat="42.9581" lon="-0.20934">
        <ele>905.2</ele>
        <time>2022-06-08 13:38:49</time>
      </trkpt>
      <trkpt lat="42.95815" lon="-0.20926">
        <ele>904.8</ele>
        <time>2022-06-08 13:38:50</time>
      </trkpt>
      <trkpt lat="42.9582" lon="-0.20918">
        <ele>904.8</ele>
        <time>2022-06-08 13:38:51</time>
      </trkpt>
      <trkpt lat="42.95824" lon="-0.2091">
        <ele>904.4</ele>
        <time>2022-06-08 13:38:52</time>
      </trkpt>
      <trkpt lat="42.95829" lon="-0.20903">
        <ele>904.2</ele>
        <time>2022-06-08 13:38:53</time>
      </trkpt>
      <trkpt lat="42.95833" lon="-0.20895">
        <ele>904</ele>
        <time>2022-06-08 13:38:54</time>
      </trkpt>
      <trkpt lat="42.95838" lon="-0.20888">
        <ele>903.8</ele>
        <time>2022-06-08 13:38:55</time>
      </trkpt>
      <trkpt lat="42.95842" lon="-0.2088">
        <ele>903.8</ele>
        <time>2022-06-08 13:38:56</time>
      </trkpt>
      <trkpt lat="42.95846" lon="-0.20873">
        <ele>903.6</ele>
        <time>2022-06-08 13:38:57</time>
      </trkpt>
      <trkpt lat="42.9585" lon="-0.20865">
        <ele>903.8</ele>
        <time>2022-06-08 13:38:58</time>
      </trkpt>
      <trkpt lat="42.95854" lon="-0.20858">
        <ele>903.8</ele>
        <time>2022-06-08 13:38:59</time>
      </trkpt>
      <trkpt lat="42.95858" lon="-0.2085">
        <ele>903.8</ele>
        <time>2022-06-08 13:39:00</time>
      </trkpt>
      <trkpt lat="42.95862" lon="-0.20843">
        <ele>903.8</ele>
        <time>2022-06-08 13:39:01</time>
      </trkpt>
      <trkpt lat="42.95866" lon="-0.20835">
        <ele>903.6</ele>
        <time>2022-06-08 13:39:02</time>
      </trkpt>
      <trkpt lat="42.9587" lon="-0.20827">
        <ele>903.6</ele>
        <time>2022-06-08 13:39:03</time>
      </trkpt>
      <trkpt lat="42.95874" lon="-0.20819">
        <ele>903.6</ele>
        <time>2022-06-08 13:39:04</time>
      </trkpt>
      <trkpt lat="42.95877" lon="-0.20813">
        <ele>903.6</ele>
        <time>2022-06-08 13:39:05</time>
      </trkpt>
      <trkpt lat="42.95881" lon="-0.20806">
        <ele>903.6</ele>
        <time>2022-06-08 13:39:06</time>
      </trkpt>
      <trkpt lat="42.95886" lon="-0.20797">
        <ele>903.8</ele>
        <time>2022-06-08 13:39:07</time>
      </trkpt>
      <trkpt lat="42.9589" lon="-0.20789">
        <ele>903.8</ele>
        <time>2022-06-08 13:39:08</time>
      </trkpt>
      <trkpt lat="42.95894" lon="-0.20782">
        <ele>903.8</ele>
        <time>2022-06-08 13:39:09</time>
      </trkpt>
      <trkpt lat="42.95897" lon="-0.20774">
        <ele>903.6</ele>
        <time>2022-06-08 13:39:10</time>
      </trkpt>
      <trkpt lat="42.95901" lon="-0.20767">
        <ele>903.6</ele>
        <time>2022-06-08 13:39:11</time>
      </trkpt>
      <trkpt lat="42.95905" lon="-0.2076">
        <ele>903.4</ele>
        <time>2022-06-08 13:39:12</time>
      </trkpt>
      <trkpt lat="42.9591" lon="-0.20752">
        <ele>903.4</ele>
        <time>2022-06-08 13:39:13</time>
      </trkpt>
      <trkpt lat="42.95914" lon="-0.20745">
        <ele>903.2</ele>
        <time>2022-06-08 13:39:14</time>
      </trkpt>
      <trkpt lat="42.95918" lon="-0.20737">
        <ele>903.4</ele>
        <time>2022-06-08 13:39:15</time>
      </trkpt>
      <trkpt lat="42.95922" lon="-0.20731">
        <ele>903.4</ele>
        <time>2022-06-08 13:39:16</time>
      </trkpt>
      <trkpt lat="42.95928" lon="-0.20722">
        <ele>903.2</ele>
        <time>2022-06-08 13:39:17</time>
      </trkpt>
      <trkpt lat="42.95933" lon="-0.20714">
        <ele>903.2</ele>
        <time>2022-06-08 13:39:18</time>
      </trkpt>
      <trkpt lat="42.95938" lon="-0.20707">
        <ele>903.2</ele>
        <time>2022-06-08 13:39:19</time>
      </trkpt>
      <trkpt lat="42.95942" lon="-0.20699">
        <ele>902.6</ele>
        <time>2022-06-08 13:39:20</time>
      </trkpt>
      <trkpt lat="42.95948" lon="-0.20692">
        <ele>902</ele>
        <time>2022-06-08 13:39:21</time>
      </trkpt>
      <trkpt lat="42.95953" lon="-0.20684">
        <ele>901.8</ele>
        <time>2022-06-08 13:39:22</time>
      </trkpt>
      <trkpt lat="42.95959" lon="-0.20676">
        <ele>901.4</ele>
        <time>2022-06-08 13:39:23</time>
      </trkpt>
      <trkpt lat="42.95964" lon="-0.20669">
        <ele>901.2</ele>
        <time>2022-06-08 13:39:24</time>
      </trkpt>
      <trkpt lat="42.9597" lon="-0.20661">
        <ele>900.6</ele>
        <time>2022-06-08 13:39:25</time>
      </trkpt>
      <trkpt lat="42.95976" lon="-0.20653">
        <ele>900.6</ele>
        <time>2022-06-08 13:39:26</time>
      </trkpt>
      <trkpt lat="42.95981" lon="-0.20644">
        <ele>900.2</ele>
        <time>2022-06-08 13:39:27</time>
      </trkpt>
      <trkpt lat="42.95986" lon="-0.20636">
        <ele>900.2</ele>
        <time>2022-06-08 13:39:28</time>
      </trkpt>
      <trkpt lat="42.95991" lon="-0.20627">
        <ele>900</ele>
        <time>2022-06-08 13:39:29</time>
      </trkpt>
      <trkpt lat="42.95997" lon="-0.20618">
        <ele>900</ele>
        <time>2022-06-08 13:39:30</time>
      </trkpt>
      <trkpt lat="42.96001" lon="-0.20609">
        <ele>900</ele>
        <time>2022-06-08 13:39:31</time>
      </trkpt>
      <trkpt lat="42.96006" lon="-0.20599">
        <ele>899.8</ele>
        <time>2022-06-08 13:39:32</time>
      </trkpt>
      <trkpt lat="42.9601" lon="-0.20588">
        <ele>899.6</ele>
        <time>2022-06-08 13:39:33</time>
      </trkpt>
      <trkpt lat="42.96014" lon="-0.20578">
        <ele>899.4</ele>
        <time>2022-06-08 13:39:34</time>
      </trkpt>
      <trkpt lat="42.96018" lon="-0.20567">
        <ele>899.4</ele>
        <time>2022-06-08 13:39:35</time>
      </trkpt>
      <trkpt lat="42.96022" lon="-0.20556">
        <ele>899.2</ele>
        <time>2022-06-08 13:39:36</time>
      </trkpt>
      <trkpt lat="42.96026" lon="-0.20545">
        <ele>899.2</ele>
        <time>2022-06-08 13:39:37</time>
      </trkpt>
      <trkpt lat="42.9603" lon="-0.20534">
        <ele>899</ele>
        <time>2022-06-08 13:39:38</time>
      </trkpt>
      <trkpt lat="42.96034" lon="-0.20523">
        <ele>899</ele>
        <time>2022-06-08 13:39:39</time>
      </trkpt>
      <trkpt lat="42.96037" lon="-0.20512">
        <ele>899</ele>
        <time>2022-06-08 13:39:40</time>
      </trkpt>
      <trkpt lat="42.96041" lon="-0.20501">
        <ele>899</ele>
        <time>2022-06-08 13:39:41</time>
      </trkpt>
      <trkpt lat="42.96045" lon="-0.20493">
        <ele>899</ele>
        <time>2022-06-08 13:39:42</time>
      </trkpt>
      <trkpt lat="42.9605" lon="-0.2048">
        <ele>899</ele>
        <time>2022-06-08 13:39:43</time>
      </trkpt>
      <trkpt lat="42.96053" lon="-0.20469">
        <ele>899</ele>
        <time>2022-06-08 13:39:44</time>
      </trkpt>
      <trkpt lat="42.96057" lon="-0.20458">
        <ele>898.8</ele>
        <time>2022-06-08 13:39:45</time>
      </trkpt>
      <trkpt lat="42.96061" lon="-0.20447">
        <ele>898.8</ele>
        <time>2022-06-08 13:39:46</time>
      </trkpt>
      <trkpt lat="42.96065" lon="-0.20435">
        <ele>898.8</ele>
        <time>2022-06-08 13:39:47</time>
      </trkpt>
      <trkpt lat="42.96069" lon="-0.20424">
        <ele>898.8</ele>
        <time>2022-06-08 13:39:48</time>
      </trkpt>
      <trkpt lat="42.96072" lon="-0.20413">
        <ele>898.8</ele>
        <time>2022-06-08 13:39:49</time>
      </trkpt>
      <trkpt lat="42.96076" lon="-0.20402">
        <ele>898.8</ele>
        <time>2022-06-08 13:39:50</time>
      </trkpt>
      <trkpt lat="42.9608" lon="-0.20391">
        <ele>899</ele>
        <time>2022-06-08 13:39:51</time>
      </trkpt>
      <trkpt lat="42.96084" lon="-0.20381">
        <ele>899</ele>
        <time>2022-06-08 13:39:52</time>
      </trkpt>
      <trkpt lat="42.96087" lon="-0.20371">
        <ele>899.4</ele>
        <time>2022-06-08 13:39:53</time>
      </trkpt>
      <trkpt lat="42.96091" lon="-0.20361">
        <ele>899.2</ele>
        <time>2022-06-08 13:39:54</time>
      </trkpt>
      <trkpt lat="42.96095" lon="-0.20352">
        <ele>899.6</ele>
        <time>2022-06-08 13:39:55</time>
      </trkpt>
      <trkpt lat="42.96099" lon="-0.20343">
        <ele>899.6</ele>
        <time>2022-06-08 13:39:56</time>
      </trkpt>
      <trkpt lat="42.96104" lon="-0.20334">
        <ele>899.8</ele>
        <time>2022-06-08 13:39:57</time>
      </trkpt>
      <trkpt lat="42.96109" lon="-0.20325">
        <ele>899.8</ele>
        <time>2022-06-08 13:39:58</time>
      </trkpt>
      <trkpt lat="42.96114" lon="-0.20316">
        <ele>899.6</ele>
        <time>2022-06-08 13:39:59</time>
      </trkpt>
      <trkpt lat="42.96119" lon="-0.20307">
        <ele>899.6</ele>
        <time>2022-06-08 13:40:00</time>
      </trkpt>
      <trkpt lat="42.96125" lon="-0.203">
        <ele>899.6</ele>
        <time>2022-06-08 13:40:01</time>
      </trkpt>
      <trkpt lat="42.96131" lon="-0.20292">
        <ele>899.8</ele>
        <time>2022-06-08 13:40:02</time>
      </trkpt>
      <trkpt lat="42.96137" lon="-0.20285">
        <ele>899.8</ele>
        <time>2022-06-08 13:40:03</time>
      </trkpt>
      <trkpt lat="42.96143" lon="-0.20279">
        <ele>900</ele>
        <time>2022-06-08 13:40:04</time>
      </trkpt>
      <trkpt lat="42.96149" lon="-0.20273">
        <ele>900</ele>
        <time>2022-06-08 13:40:05</time>
      </trkpt>
      <trkpt lat="42.96156" lon="-0.20267">
        <ele>900</ele>
        <time>2022-06-08 13:40:06</time>
      </trkpt>
      <trkpt lat="42.96163" lon="-0.20262">
        <ele>900</ele>
        <time>2022-06-08 13:40:07</time>
      </trkpt>
      <trkpt lat="42.96171" lon="-0.20257">
        <ele>900</ele>
        <time>2022-06-08 13:40:08</time>
      </trkpt>
      <trkpt lat="42.96178" lon="-0.20253">
        <ele>900</ele>
        <time>2022-06-08 13:40:09</time>
      </trkpt>
      <trkpt lat="42.96185" lon="-0.20249">
        <ele>900</ele>
        <time>2022-06-08 13:40:10</time>
      </trkpt>
      <trkpt lat="42.96192" lon="-0.20245">
        <ele>900</ele>
        <time>2022-06-08 13:40:11</time>
      </trkpt>
      <trkpt lat="42.962" lon="-0.20241">
        <ele>900</ele>
        <time>2022-06-08 13:40:12</time>
      </trkpt>
      <trkpt lat="42.96207" lon="-0.20237">
        <ele>900</ele>
        <time>2022-06-08 13:40:13</time>
      </trkpt>
      <trkpt lat="42.96213" lon="-0.20234">
        <ele>899.8</ele>
        <time>2022-06-08 13:40:14</time>
      </trkpt>
      <trkpt lat="42.9622" lon="-0.2023">
        <ele>899.8</ele>
        <time>2022-06-08 13:40:15</time>
      </trkpt>
      <trkpt lat="42.96227" lon="-0.20226">
        <ele>899.8</ele>
        <time>2022-06-08 13:40:16</time>
      </trkpt>
      <trkpt lat="42.96235" lon="-0.20223">
        <ele>899.8</ele>
        <time>2022-06-08 13:40:17</time>
      </trkpt>
      <trkpt lat="42.96242" lon="-0.20218">
        <ele>899.8</ele>
        <time>2022-06-08 13:40:18</time>
      </trkpt>
      <trkpt lat="42.96249" lon="-0.20214">
        <ele>899.6</ele>
        <time>2022-06-08 13:40:19</time>
      </trkpt>
      <trkpt lat="42.96257" lon="-0.2021">
        <ele>899.4</ele>
        <time>2022-06-08 13:40:20</time>
      </trkpt>
      <trkpt lat="42.96265" lon="-0.20206">
        <ele>899.4</ele>
        <time>2022-06-08 13:40:21</time>
      </trkpt>
      <trkpt lat="42.96272" lon="-0.20202">
        <ele>899.2</ele>
        <time>2022-06-08 13:40:22</time>
      </trkpt>
      <trkpt lat="42.9628" lon="-0.20197">
        <ele>899</ele>
        <time>2022-06-08 13:40:23</time>
      </trkpt>
      <trkpt lat="42.96288" lon="-0.20193">
        <ele>898.8</ele>
        <time>2022-06-08 13:40:24</time>
      </trkpt>
      <trkpt lat="42.96296" lon="-0.20188">
        <ele>898.4</ele>
        <time>2022-06-08 13:40:25</time>
      </trkpt>
      <trkpt lat="42.96304" lon="-0.20184">
        <ele>898.2</ele>
        <time>2022-06-08 13:40:26</time>
      </trkpt>
      <trkpt lat="42.96312" lon="-0.2018">
        <ele>897.6</ele>
        <time>2022-06-08 13:40:27</time>
      </trkpt>
      <trkpt lat="42.9632" lon="-0.20176">
        <ele>897.4</ele>
        <time>2022-06-08 13:40:28</time>
      </trkpt>
      <trkpt lat="42.96328" lon="-0.20172">
        <ele>897.2</ele>
        <time>2022-06-08 13:40:29</time>
      </trkpt>
      <trkpt lat="42.96335" lon="-0.20169">
        <ele>896.8</ele>
        <time>2022-06-08 13:40:30</time>
      </trkpt>
      <trkpt lat="42.96343" lon="-0.20166">
        <ele>896.6</ele>
        <time>2022-06-08 13:40:31</time>
      </trkpt>
      <trkpt lat="42.96351" lon="-0.20163">
        <ele>896.4</ele>
        <time>2022-06-08 13:40:32</time>
      </trkpt>
      <trkpt lat="42.96359" lon="-0.20161">
        <ele>896.2</ele>
        <time>2022-06-08 13:40:33</time>
      </trkpt>
      <trkpt lat="42.96367" lon="-0.20159">
        <ele>895.8</ele>
        <time>2022-06-08 13:40:34</time>
      </trkpt>
      <trkpt lat="42.96375" lon="-0.20158">
        <ele>895.6</ele>
        <time>2022-06-08 13:40:35</time>
      </trkpt>
      <trkpt lat="42.96383" lon="-0.20157">
        <ele>895.6</ele>
        <time>2022-06-08 13:40:36</time>
      </trkpt>
      <trkpt lat="42.96391" lon="-0.20156">
        <ele>895.4</ele>
        <time>2022-06-08 13:40:37</time>
      </trkpt>
      <trkpt lat="42.96399" lon="-0.20157">
        <ele>895</ele>
        <time>2022-06-08 13:40:38</time>
      </trkpt>
      <trkpt lat="42.96407" lon="-0.20159">
        <ele>895</ele>
        <time>2022-06-08 13:40:39</time>
      </trkpt>
      <trkpt lat="42.96414" lon="-0.20161">
        <ele>894.8</ele>
        <time>2022-06-08 13:40:40</time>
      </trkpt>
      <trkpt lat="42.96421" lon="-0.20164">
        <ele>894.8</ele>
        <time>2022-06-08 13:40:41</time>
      </trkpt>
      <trkpt lat="42.96428" lon="-0.20167">
        <ele>894.8</ele>
        <time>2022-06-08 13:40:42</time>
      </trkpt>
      <trkpt lat="42.96435" lon="-0.20171">
        <ele>894.8</ele>
        <time>2022-06-08 13:40:43</time>
      </trkpt>
      <trkpt lat="42.96441" lon="-0.20177">
        <ele>894.8</ele>
        <time>2022-06-08 13:40:44</time>
      </trkpt>
      <trkpt lat="42.96448" lon="-0.20181">
        <ele>895</ele>
        <time>2022-06-08 13:40:45</time>
      </trkpt>
      <trkpt lat="42.96455" lon="-0.20184">
        <ele>895</ele>
        <time>2022-06-08 13:40:46</time>
      </trkpt>
      <trkpt lat="42.96463" lon="-0.20185">
        <ele>895</ele>
        <time>2022-06-08 13:40:47</time>
      </trkpt>
      <trkpt lat="42.9647" lon="-0.20184">
        <ele>895</ele>
        <time>2022-06-08 13:40:48</time>
      </trkpt>
      <trkpt lat="42.96475" lon="-0.20182">
        <ele>895.2</ele>
        <time>2022-06-08 13:40:49</time>
      </trkpt>
      <trkpt lat="42.96483" lon="-0.20178">
        <ele>895.2</ele>
        <time>2022-06-08 13:40:50</time>
      </trkpt>
      <trkpt lat="42.96489" lon="-0.20175">
        <ele>895.6</ele>
        <time>2022-06-08 13:40:51</time>
      </trkpt>
      <trkpt lat="42.96494" lon="-0.20172">
        <ele>895.6</ele>
        <time>2022-06-08 13:40:52</time>
      </trkpt>
      <trkpt lat="42.965" lon="-0.20169">
        <ele>896</ele>
        <time>2022-06-08 13:40:53</time>
      </trkpt>
      <trkpt lat="42.96506" lon="-0.20168">
        <ele>896</ele>
        <time>2022-06-08 13:40:54</time>
      </trkpt>
      <trkpt lat="42.96513" lon="-0.20167">
        <ele>896</ele>
        <time>2022-06-08 13:40:55</time>
      </trkpt>
      <trkpt lat="42.96522" lon="-0.20169">
        <ele>896</ele>
        <time>2022-06-08 13:40:56</time>
      </trkpt>
      <trkpt lat="42.96528" lon="-0.20172">
        <ele>896</ele>
        <time>2022-06-08 13:40:57</time>
      </trkpt>
      <trkpt lat="42.96533" lon="-0.20175">
        <ele>896</ele>
        <time>2022-06-08 13:40:58</time>
      </trkpt>
      <trkpt lat="42.9654" lon="-0.20178">
        <ele>895.8</ele>
        <time>2022-06-08 13:40:59</time>
      </trkpt>
      <trkpt lat="42.96547" lon="-0.20183">
        <ele>895.8</ele>
        <time>2022-06-08 13:41:00</time>
      </trkpt>
      <trkpt lat="42.96554" lon="-0.20188">
        <ele>895.8</ele>
        <time>2022-06-08 13:41:01</time>
      </trkpt>
      <trkpt lat="42.9656" lon="-0.20192">
        <ele>896</ele>
        <time>2022-06-08 13:41:02</time>
      </trkpt>
      <trkpt lat="42.96565" lon="-0.20197">
        <ele>895.8</ele>
        <time>2022-06-08 13:41:03</time>
      </trkpt>
      <trkpt lat="42.96569" lon="-0.20202">
        <ele>895.8</ele>
        <time>2022-06-08 13:41:04</time>
      </trkpt>
      <trkpt lat="42.96574" lon="-0.20207">
        <ele>895.8</ele>
        <time>2022-06-08 13:41:05</time>
      </trkpt>
      <trkpt lat="42.96581" lon="-0.20213">
        <ele>895.8</ele>
        <time>2022-06-08 13:41:06</time>
      </trkpt>
      <trkpt lat="42.96587" lon="-0.20216">
        <ele>895.8</ele>
        <time>2022-06-08 13:41:07</time>
      </trkpt>
      <trkpt lat="42.96592" lon="-0.20219">
        <ele>895.8</ele>
        <time>2022-06-08 13:41:08</time>
      </trkpt>
      <trkpt lat="42.96599" lon="-0.20222">
        <ele>895.8</ele>
        <time>2022-06-08 13:41:09</time>
      </trkpt>
      <trkpt lat="42.96606" lon="-0.20225">
        <ele>895.8</ele>
        <time>2022-06-08 13:41:10</time>
      </trkpt>
      <trkpt lat="42.96613" lon="-0.20229">
        <ele>895.8</ele>
        <time>2022-06-08 13:41:11</time>
      </trkpt>
      <trkpt lat="42.9662" lon="-0.20234">
        <ele>895.8</ele>
        <time>2022-06-08 13:41:12</time>
      </trkpt>
      <trkpt lat="42.96626" lon="-0.20239">
        <ele>895.8</ele>
        <time>2022-06-08 13:41:13</time>
      </trkpt>
      <trkpt lat="42.96631" lon="-0.20242">
        <ele>895.6</ele>
        <time>2022-06-08 13:41:14</time>
      </trkpt>
      <trkpt lat="42.96639" lon="-0.20246">
        <ele>895.6</ele>
        <time>2022-06-08 13:41:15</time>
      </trkpt>
      <trkpt lat="42.96645" lon="-0.20249">
        <ele>895.6</ele>
        <time>2022-06-08 13:41:16</time>
      </trkpt>
      <trkpt lat="42.96653" lon="-0.2025">
        <ele>895.4</ele>
        <time>2022-06-08 13:41:17</time>
      </trkpt>
      <trkpt lat="42.96659" lon="-0.20251">
        <ele>895.4</ele>
        <time>2022-06-08 13:41:18</time>
      </trkpt>
      <trkpt lat="42.96666" lon="-0.20251">
        <ele>895.2</ele>
        <time>2022-06-08 13:41:19</time>
      </trkpt>
      <trkpt lat="42.96674" lon="-0.2025">
        <ele>895.2</ele>
        <time>2022-06-08 13:41:20</time>
      </trkpt>
      <trkpt lat="42.96684" lon="-0.20248">
        <ele>895.2</ele>
        <time>2022-06-08 13:41:21</time>
      </trkpt>
      <trkpt lat="42.96691" lon="-0.20247">
        <ele>895.4</ele>
        <time>2022-06-08 13:41:22</time>
      </trkpt>
      <trkpt lat="42.96699" lon="-0.20247">
        <ele>895.2</ele>
        <time>2022-06-08 13:41:23</time>
      </trkpt>
      <trkpt lat="42.96705" lon="-0.20245">
        <ele>895.2</ele>
        <time>2022-06-08 13:41:24</time>
      </trkpt>
      <trkpt lat="42.96714" lon="-0.20243">
        <ele>895.2</ele>
        <time>2022-06-08 13:41:25</time>
      </trkpt>
      <trkpt lat="42.96721" lon="-0.2024">
        <ele>895.2</ele>
        <time>2022-06-08 13:41:26</time>
      </trkpt>
      <trkpt lat="42.96728" lon="-0.20238">
        <ele>895.2</ele>
        <time>2022-06-08 13:41:27</time>
      </trkpt>
      <trkpt lat="42.96736" lon="-0.20235">
        <ele>895.2</ele>
        <time>2022-06-08 13:41:28</time>
      </trkpt>
      <trkpt lat="42.96741" lon="-0.20233">
        <ele>895.2</ele>
        <time>2022-06-08 13:41:29</time>
      </trkpt>
      <trkpt lat="42.96748" lon="-0.2023">
        <ele>895.2</ele>
        <time>2022-06-08 13:41:30</time>
      </trkpt>
      <trkpt lat="42.96757" lon="-0.20226">
        <ele>895.2</ele>
        <time>2022-06-08 13:41:31</time>
      </trkpt>
      <trkpt lat="42.96764" lon="-0.20222">
        <ele>895.2</ele>
        <time>2022-06-08 13:41:32</time>
      </trkpt>
      <trkpt lat="42.9677" lon="-0.20219">
        <ele>895.2</ele>
        <time>2022-06-08 13:41:33</time>
      </trkpt>
      <trkpt lat="42.96778" lon="-0.20215">
        <ele>895.2</ele>
        <time>2022-06-08 13:41:34</time>
      </trkpt>
      <trkpt lat="42.96787" lon="-0.20211">
        <ele>895.2</ele>
        <time>2022-06-08 13:41:35</time>
      </trkpt>
      <trkpt lat="42.96794" lon="-0.20207">
        <ele>895.2</ele>
        <time>2022-06-08 13:41:36</time>
      </trkpt>
      <trkpt lat="42.96801" lon="-0.20202">
        <ele>895.2</ele>
        <time>2022-06-08 13:41:37</time>
      </trkpt>
      <trkpt lat="42.96808" lon="-0.20198">
        <ele>895.2</ele>
        <time>2022-06-08 13:41:38</time>
      </trkpt>
      <trkpt lat="42.96814" lon="-0.20192">
        <ele>895.2</ele>
        <time>2022-06-08 13:41:39</time>
      </trkpt>
      <trkpt lat="42.9682" lon="-0.20187">
        <ele>895.2</ele>
        <time>2022-06-08 13:41:40</time>
      </trkpt>
      <trkpt lat="42.96826" lon="-0.20181">
        <ele>895.4</ele>
        <time>2022-06-08 13:41:41</time>
      </trkpt>
      <trkpt lat="42.96832" lon="-0.20175">
        <ele>895.4</ele>
        <time>2022-06-08 13:41:42</time>
      </trkpt>
      <trkpt lat="42.96838" lon="-0.20169">
        <ele>895.4</ele>
        <time>2022-06-08 13:41:43</time>
      </trkpt>
      <trkpt lat="42.96843" lon="-0.20163">
        <ele>895.4</ele>
        <time>2022-06-08 13:41:44</time>
      </trkpt>
      <trkpt lat="42.96849" lon="-0.20156">
        <ele>895.4</ele>
        <time>2022-06-08 13:41:45</time>
      </trkpt>
      <trkpt lat="42.96854" lon="-0.20148">
        <ele>895.4</ele>
        <time>2022-06-08 13:41:46</time>
      </trkpt>
      <trkpt lat="42.9686" lon="-0.20141">
        <ele>895.4</ele>
        <time>2022-06-08 13:41:47</time>
      </trkpt>
      <trkpt lat="42.96866" lon="-0.20134">
        <ele>895.4</ele>
        <time>2022-06-08 13:41:48</time>
      </trkpt>
      <trkpt lat="42.96872" lon="-0.20126">
        <ele>895.4</ele>
        <time>2022-06-08 13:41:49</time>
      </trkpt>
      <trkpt lat="42.96878" lon="-0.20118">
        <ele>895.2</ele>
        <time>2022-06-08 13:41:50</time>
      </trkpt>
      <trkpt lat="42.96884" lon="-0.20109">
        <ele>895.2</ele>
        <time>2022-06-08 13:41:51</time>
      </trkpt>
      <trkpt lat="42.9689" lon="-0.20101">
        <ele>895</ele>
        <time>2022-06-08 13:41:52</time>
      </trkpt>
      <trkpt lat="42.96897" lon="-0.20092">
        <ele>894.8</ele>
        <time>2022-06-08 13:41:53</time>
      </trkpt>
      <trkpt lat="42.96903" lon="-0.20084">
        <ele>894.4</ele>
        <time>2022-06-08 13:41:54</time>
      </trkpt>
      <trkpt lat="42.96909" lon="-0.20075">
        <ele>894</ele>
        <time>2022-06-08 13:41:55</time>
      </trkpt>
      <trkpt lat="42.96916" lon="-0.20067">
        <ele>893.6</ele>
        <time>2022-06-08 13:41:56</time>
      </trkpt>
      <trkpt lat="42.96922" lon="-0.20058">
        <ele>893.2</ele>
        <time>2022-06-08 13:41:57</time>
      </trkpt>
      <trkpt lat="42.96929" lon="-0.20049">
        <ele>892.6</ele>
        <time>2022-06-08 13:41:58</time>
      </trkpt>
      <trkpt lat="42.96935" lon="-0.20039">
        <ele>892.4</ele>
        <time>2022-06-08 13:41:59</time>
      </trkpt>
      <trkpt lat="42.9694" lon="-0.20031">
        <ele>892.2</ele>
        <time>2022-06-08 13:42:00</time>
      </trkpt>
      <trkpt lat="42.96947" lon="-0.20019">
        <ele>892</ele>
        <time>2022-06-08 13:42:01</time>
      </trkpt>
      <trkpt lat="42.96952" lon="-0.20009">
        <ele>891.6</ele>
        <time>2022-06-08 13:42:02</time>
      </trkpt>
      <trkpt lat="42.96958" lon="-0.19995">
        <ele>891.4</ele>
        <time>2022-06-08 13:42:03</time>
      </trkpt>
      <trkpt lat="42.96962" lon="-0.19985">
        <ele>891.4</ele>
        <time>2022-06-08 13:42:04</time>
      </trkpt>
      <trkpt lat="42.96967" lon="-0.19971">
        <ele>890.8</ele>
        <time>2022-06-08 13:42:05</time>
      </trkpt>
      <trkpt lat="42.96971" lon="-0.19959">
        <ele>890.8</ele>
        <time>2022-06-08 13:42:06</time>
      </trkpt>
      <trkpt lat="42.96977" lon="-0.19944">
        <ele>890.2</ele>
        <time>2022-06-08 13:42:07</time>
      </trkpt>
      <trkpt lat="42.9698" lon="-0.19933">
        <ele>889.8</ele>
        <time>2022-06-08 13:42:08</time>
      </trkpt>
      <trkpt lat="42.96985" lon="-0.19921">
        <ele>889.2</ele>
        <time>2022-06-08 13:42:09</time>
      </trkpt>
      <trkpt lat="42.96989" lon="-0.19908">
        <ele>889</ele>
        <time>2022-06-08 13:42:10</time>
      </trkpt>
      <trkpt lat="42.96994" lon="-0.19896">
        <ele>888.6</ele>
        <time>2022-06-08 13:42:11</time>
      </trkpt>
      <trkpt lat="42.96999" lon="-0.19881">
        <ele>888.6</ele>
        <time>2022-06-08 13:42:12</time>
      </trkpt>
      <trkpt lat="42.97004" lon="-0.1987">
        <ele>888.2</ele>
        <time>2022-06-08 13:42:13</time>
      </trkpt>
      <trkpt lat="42.97008" lon="-0.19858">
        <ele>888.2</ele>
        <time>2022-06-08 13:42:14</time>
      </trkpt>
      <trkpt lat="42.97012" lon="-0.1985">
        <ele>888</ele>
        <time>2022-06-08 13:42:15</time>
      </trkpt>
      <trkpt lat="42.97016" lon="-0.19839">
        <ele>888</ele>
        <time>2022-06-08 13:42:16</time>
      </trkpt>
      <trkpt lat="42.97023" lon="-0.19827">
        <ele>888</ele>
        <time>2022-06-08 13:42:17</time>
      </trkpt>
      <trkpt lat="42.97028" lon="-0.19819">
        <ele>888</ele>
        <time>2022-06-08 13:42:18</time>
      </trkpt>
      <trkpt lat="42.97034" lon="-0.1981">
        <ele>888</ele>
        <time>2022-06-08 13:42:19</time>
      </trkpt>
      <trkpt lat="42.97039" lon="-0.19804">
        <ele>888</ele>
        <time>2022-06-08 13:42:20</time>
      </trkpt>
      <trkpt lat="42.97044" lon="-0.19796">
        <ele>888</ele>
        <time>2022-06-08 13:42:21</time>
      </trkpt>
      <trkpt lat="42.97052" lon="-0.19787">
        <ele>888</ele>
        <time>2022-06-08 13:42:22</time>
      </trkpt>
      <trkpt lat="42.97058" lon="-0.19779">
        <ele>888</ele>
        <time>2022-06-08 13:42:23</time>
      </trkpt>
      <trkpt lat="42.97063" lon="-0.19771">
        <ele>888.2</ele>
        <time>2022-06-08 13:42:24</time>
      </trkpt>
      <trkpt lat="42.97068" lon="-0.19765">
        <ele>888.2</ele>
        <time>2022-06-08 13:42:25</time>
      </trkpt>
      <trkpt lat="42.97074" lon="-0.19758">
        <ele>888.2</ele>
        <time>2022-06-08 13:42:26</time>
      </trkpt>
      <trkpt lat="42.97079" lon="-0.19751">
        <ele>888.2</ele>
        <time>2022-06-08 13:42:27</time>
      </trkpt>
      <trkpt lat="42.97085" lon="-0.19742">
        <ele>888.4</ele>
        <time>2022-06-08 13:42:28</time>
      </trkpt>
      <trkpt lat="42.97091" lon="-0.19735">
        <ele>888.6</ele>
        <time>2022-06-08 13:42:29</time>
      </trkpt>
      <trkpt lat="42.97095" lon="-0.1973">
        <ele>888.6</ele>
        <time>2022-06-08 13:42:30</time>
      </trkpt>
      <trkpt lat="42.971" lon="-0.19723">
        <ele>888.6</ele>
        <time>2022-06-08 13:42:31</time>
      </trkpt>
      <trkpt lat="42.97106" lon="-0.19715">
        <ele>888.8</ele>
        <time>2022-06-08 13:42:32</time>
      </trkpt>
      <trkpt lat="42.9711" lon="-0.19709">
        <ele>889</ele>
        <time>2022-06-08 13:42:33</time>
      </trkpt>
      <trkpt lat="42.97116" lon="-0.19701">
        <ele>889</ele>
        <time>2022-06-08 13:42:34</time>
      </trkpt>
      <trkpt lat="42.97121" lon="-0.19694">
        <ele>889.4</ele>
        <time>2022-06-08 13:42:35</time>
      </trkpt>
      <trkpt lat="42.97126" lon="-0.19686">
        <ele>889.6</ele>
        <time>2022-06-08 13:42:36</time>
      </trkpt>
      <trkpt lat="42.9713" lon="-0.1968">
        <ele>889.8</ele>
        <time>2022-06-08 13:42:37</time>
      </trkpt>
      <trkpt lat="42.97135" lon="-0.19673">
        <ele>890</ele>
        <time>2022-06-08 13:42:38</time>
      </trkpt>
      <trkpt lat="42.97141" lon="-0.19664">
        <ele>890.2</ele>
        <time>2022-06-08 13:42:39</time>
      </trkpt>
      <trkpt lat="42.97144" lon="-0.19658">
        <ele>890.4</ele>
        <time>2022-06-08 13:42:40</time>
      </trkpt>
      <trkpt lat="42.97149" lon="-0.19652">
        <ele>890.6</ele>
        <time>2022-06-08 13:42:41</time>
      </trkpt>
      <trkpt lat="42.97155" lon="-0.19644">
        <ele>890.8</ele>
        <time>2022-06-08 13:42:42</time>
      </trkpt>
      <trkpt lat="42.97159" lon="-0.19638">
        <ele>890.8</ele>
        <time>2022-06-08 13:42:43</time>
      </trkpt>
      <trkpt lat="42.97165" lon="-0.1963">
        <ele>891</ele>
        <time>2022-06-08 13:42:44</time>
      </trkpt>
      <trkpt lat="42.9717" lon="-0.19623">
        <ele>891.2</ele>
        <time>2022-06-08 13:42:45</time>
      </trkpt>
      <trkpt lat="42.97173" lon="-0.19618">
        <ele>891.4</ele>
        <time>2022-06-08 13:42:46</time>
      </trkpt>
      <trkpt lat="42.97178" lon="-0.19611">
        <ele>891.6</ele>
        <time>2022-06-08 13:42:47</time>
      </trkpt>
      <trkpt lat="42.97183" lon="-0.19603">
        <ele>892</ele>
        <time>2022-06-08 13:42:48</time>
      </trkpt>
      <trkpt lat="42.97187" lon="-0.19597">
        <ele>892</ele>
        <time>2022-06-08 13:42:49</time>
      </trkpt>
      <trkpt lat="42.97191" lon="-0.19591">
        <ele>892.4</ele>
        <time>2022-06-08 13:42:50</time>
      </trkpt>
      <trkpt lat="42.97195" lon="-0.19586">
        <ele>892.6</ele>
        <time>2022-06-08 13:42:51</time>
      </trkpt>
      <trkpt lat="42.97199" lon="-0.1958">
        <ele>892.8</ele>
        <time>2022-06-08 13:42:52</time>
      </trkpt>
      <trkpt lat="42.97203" lon="-0.19574">
        <ele>892.8</ele>
        <time>2022-06-08 13:42:53</time>
      </trkpt>
      <trkpt lat="42.97208" lon="-0.19567">
        <ele>893.2</ele>
        <time>2022-06-08 13:42:54</time>
      </trkpt>
      <trkpt lat="42.97211" lon="-0.19561">
        <ele>893.4</ele>
        <time>2022-06-08 13:42:55</time>
      </trkpt>
      <trkpt lat="42.97215" lon="-0.19557">
        <ele>893.8</ele>
        <time>2022-06-08 13:42:56</time>
      </trkpt>
      <trkpt lat="42.97218" lon="-0.19551">
        <ele>894.2</ele>
        <time>2022-06-08 13:42:57</time>
      </trkpt>
      <trkpt lat="42.97222" lon="-0.19545">
        <ele>894.2</ele>
        <time>2022-06-08 13:42:58</time>
      </trkpt>
      <trkpt lat="42.97226" lon="-0.1954">
        <ele>894.4</ele>
        <time>2022-06-08 13:42:59</time>
      </trkpt>
      <trkpt lat="42.97231" lon="-0.19533">
        <ele>894.6</ele>
        <time>2022-06-08 13:43:00</time>
      </trkpt>
      <trkpt lat="42.97233" lon="-0.19529">
        <ele>895.2</ele>
        <time>2022-06-08 13:43:01</time>
      </trkpt>
      <trkpt lat="42.97237" lon="-0.19523">
        <ele>895.2</ele>
        <time>2022-06-08 13:43:02</time>
      </trkpt>
      <trkpt lat="42.97241" lon="-0.19518">
        <ele>895.4</ele>
        <time>2022-06-08 13:43:03</time>
      </trkpt>
      <trkpt lat="42.97245" lon="-0.19512">
        <ele>895.6</ele>
        <time>2022-06-08 13:43:04</time>
      </trkpt>
      <trkpt lat="42.97249" lon="-0.19506">
        <ele>895.8</ele>
        <time>2022-06-08 13:43:05</time>
      </trkpt>
      <trkpt lat="42.97252" lon="-0.19501">
        <ele>895.8</ele>
        <time>2022-06-08 13:43:06</time>
      </trkpt>
      <trkpt lat="42.97255" lon="-0.19496">
        <ele>896.2</ele>
        <time>2022-06-08 13:43:07</time>
      </trkpt>
      <trkpt lat="42.97258" lon="-0.1949">
        <ele>896.4</ele>
        <time>2022-06-08 13:43:08</time>
      </trkpt>
      <trkpt lat="42.97262" lon="-0.19484">
        <ele>896.6</ele>
        <time>2022-06-08 13:43:09</time>
      </trkpt>
      <trkpt lat="42.97266" lon="-0.19478">
        <ele>896.8</ele>
        <time>2022-06-08 13:43:10</time>
      </trkpt>
      <trkpt lat="42.97269" lon="-0.19473">
        <ele>897</ele>
        <time>2022-06-08 13:43:11</time>
      </trkpt>
      <trkpt lat="42.97272" lon="-0.19467">
        <ele>897.2</ele>
        <time>2022-06-08 13:43:12</time>
      </trkpt>
      <trkpt lat="42.97275" lon="-0.19462">
        <ele>897.4</ele>
        <time>2022-06-08 13:43:13</time>
      </trkpt>
      <trkpt lat="42.97278" lon="-0.19454">
        <ele>897.6</ele>
        <time>2022-06-08 13:43:14</time>
      </trkpt>
      <trkpt lat="42.9728" lon="-0.19448">
        <ele>897.8</ele>
        <time>2022-06-08 13:43:15</time>
      </trkpt>
      <trkpt lat="42.97282" lon="-0.19443">
        <ele>898</ele>
        <time>2022-06-08 13:43:16</time>
      </trkpt>
      <trkpt lat="42.97285" lon="-0.19437">
        <ele>898.2</ele>
        <time>2022-06-08 13:43:17</time>
      </trkpt>
      <trkpt lat="42.97288" lon="-0.1943">
        <ele>898.4</ele>
        <time>2022-06-08 13:43:18</time>
      </trkpt>
      <trkpt lat="42.97289" lon="-0.19423">
        <ele>898.4</ele>
        <time>2022-06-08 13:43:19</time>
      </trkpt>
      <trkpt lat="42.97291" lon="-0.19417">
        <ele>899</ele>
        <time>2022-06-08 13:43:20</time>
      </trkpt>
      <trkpt lat="42.97293" lon="-0.19411">
        <ele>899</ele>
        <time>2022-06-08 13:43:21</time>
      </trkpt>
      <trkpt lat="42.97293" lon="-0.19406">
        <ele>899.4</ele>
        <time>2022-06-08 13:43:22</time>
      </trkpt>
      <trkpt lat="42.97295" lon="-0.19399">
        <ele>899.8</ele>
        <time>2022-06-08 13:43:23</time>
      </trkpt>
      <trkpt lat="42.97296" lon="-0.19391">
        <ele>900</ele>
        <time>2022-06-08 13:43:24</time>
      </trkpt>
      <trkpt lat="42.97298" lon="-0.19383">
        <ele>900.2</ele>
        <time>2022-06-08 13:43:25</time>
      </trkpt>
      <trkpt lat="42.97299" lon="-0.19376">
        <ele>900.2</ele>
        <time>2022-06-08 13:43:26</time>
      </trkpt>
      <trkpt lat="42.97301" lon="-0.1937">
        <ele>900.4</ele>
        <time>2022-06-08 13:43:27</time>
      </trkpt>
      <trkpt lat="42.97304" lon="-0.19363">
        <ele>900.2</ele>
        <time>2022-06-08 13:43:28</time>
      </trkpt>
      <trkpt lat="42.97307" lon="-0.19355">
        <ele>900.6</ele>
        <time>2022-06-08 13:43:29</time>
      </trkpt>
      <trkpt lat="42.9731" lon="-0.19349">
        <ele>900.6</ele>
        <time>2022-06-08 13:43:30</time>
      </trkpt>
      <trkpt lat="42.97314" lon="-0.19344">
        <ele>900.8</ele>
        <time>2022-06-08 13:43:31</time>
      </trkpt>
      <trkpt lat="42.97317" lon="-0.19339">
        <ele>900.8</ele>
        <time>2022-06-08 13:43:32</time>
      </trkpt>
      <trkpt lat="42.9732" lon="-0.19334">
        <ele>901</ele>
        <time>2022-06-08 13:43:33</time>
      </trkpt>
      <trkpt lat="42.97323" lon="-0.19329">
        <ele>901.2</ele>
        <time>2022-06-08 13:43:34</time>
      </trkpt>
      <trkpt lat="42.97326" lon="-0.19323">
        <ele>901.4</ele>
        <time>2022-06-08 13:43:35</time>
      </trkpt>
      <trkpt lat="42.9733" lon="-0.19315">
        <ele>901.4</ele>
        <time>2022-06-08 13:43:36</time>
      </trkpt>
      <trkpt lat="42.97332" lon="-0.19309">
        <ele>901.4</ele>
        <time>2022-06-08 13:43:37</time>
      </trkpt>
      <trkpt lat="42.97334" lon="-0.19301">
        <ele>901.4</ele>
        <time>2022-06-08 13:43:38</time>
      </trkpt>
      <trkpt lat="42.97337" lon="-0.19292">
        <ele>901.6</ele>
        <time>2022-06-08 13:43:39</time>
      </trkpt>
      <trkpt lat="42.9734" lon="-0.19285">
        <ele>901.6</ele>
        <time>2022-06-08 13:43:40</time>
      </trkpt>
      <trkpt lat="42.97344" lon="-0.19277">
        <ele>901.6</ele>
        <time>2022-06-08 13:43:41</time>
      </trkpt>
      <trkpt lat="42.97348" lon="-0.19272">
        <ele>901.8</ele>
        <time>2022-06-08 13:43:42</time>
      </trkpt>
      <trkpt lat="42.97353" lon="-0.19267">
        <ele>901.8</ele>
        <time>2022-06-08 13:43:43</time>
      </trkpt>
      <trkpt lat="42.97357" lon="-0.19261">
        <ele>901.8</ele>
        <time>2022-06-08 13:43:44</time>
      </trkpt>
      <trkpt lat="42.97364" lon="-0.19256">
        <ele>901.8</ele>
        <time>2022-06-08 13:43:45</time>
      </trkpt>
      <trkpt lat="42.97369" lon="-0.19251">
        <ele>901.8</ele>
        <time>2022-06-08 13:43:46</time>
      </trkpt>
      <trkpt lat="42.97374" lon="-0.19246">
        <ele>901.8</ele>
        <time>2022-06-08 13:43:47</time>
      </trkpt>
      <trkpt lat="42.97379" lon="-0.1924">
        <ele>901.8</ele>
        <time>2022-06-08 13:43:48</time>
      </trkpt>
      <trkpt lat="42.97384" lon="-0.19234">
        <ele>901.8</ele>
        <time>2022-06-08 13:43:49</time>
      </trkpt>
      <trkpt lat="42.97389" lon="-0.19227">
        <ele>901.8</ele>
        <time>2022-06-08 13:43:50</time>
      </trkpt>
      <trkpt lat="42.97394" lon="-0.19217">
        <ele>901.8</ele>
        <time>2022-06-08 13:43:51</time>
      </trkpt>
      <trkpt lat="42.97399" lon="-0.19208">
        <ele>901.8</ele>
        <time>2022-06-08 13:43:52</time>
      </trkpt>
      <trkpt lat="42.97403" lon="-0.192">
        <ele>901.8</ele>
        <time>2022-06-08 13:43:53</time>
      </trkpt>
      <trkpt lat="42.97408" lon="-0.1919">
        <ele>901.6</ele>
        <time>2022-06-08 13:43:54</time>
      </trkpt>
      <trkpt lat="42.97413" lon="-0.1918">
        <ele>901.4</ele>
        <time>2022-06-08 13:43:55</time>
      </trkpt>
      <trkpt lat="42.97418" lon="-0.19167">
        <ele>901.4</ele>
        <time>2022-06-08 13:43:56</time>
      </trkpt>
      <trkpt lat="42.97423" lon="-0.19156">
        <ele>901.2</ele>
        <time>2022-06-08 13:43:57</time>
      </trkpt>
      <trkpt lat="42.97426" lon="-0.19148">
        <ele>901</ele>
        <time>2022-06-08 13:43:58</time>
      </trkpt>
      <trkpt lat="42.97431" lon="-0.19137">
        <ele>900.4</ele>
        <time>2022-06-08 13:43:59</time>
      </trkpt>
      <trkpt lat="42.97436" lon="-0.19127">
        <ele>900</ele>
        <time>2022-06-08 13:44:00</time>
      </trkpt>
      <trkpt lat="42.97442" lon="-0.19114">
        <ele>899.4</ele>
        <time>2022-06-08 13:44:01</time>
      </trkpt>
      <trkpt lat="42.97446" lon="-0.19103">
        <ele>898.8</ele>
        <time>2022-06-08 13:44:02</time>
      </trkpt>
      <trkpt lat="42.97449" lon="-0.19093">
        <ele>898.6</ele>
        <time>2022-06-08 13:44:03</time>
      </trkpt>
      <trkpt lat="42.97452" lon="-0.19081">
        <ele>898</ele>
        <time>2022-06-08 13:44:04</time>
      </trkpt>
      <trkpt lat="42.97455" lon="-0.19068">
        <ele>897.8</ele>
        <time>2022-06-08 13:44:05</time>
      </trkpt>
      <trkpt lat="42.97458" lon="-0.19052">
        <ele>897.2</ele>
        <time>2022-06-08 13:44:06</time>
      </trkpt>
      <trkpt lat="42.9746" lon="-0.1904">
        <ele>897</ele>
        <time>2022-06-08 13:44:07</time>
      </trkpt>
      <trkpt lat="42.97463" lon="-0.19026">
        <ele>896.6</ele>
        <time>2022-06-08 13:44:08</time>
      </trkpt>
      <trkpt lat="42.97466" lon="-0.19009">
        <ele>895.8</ele>
        <time>2022-06-08 13:44:09</time>
      </trkpt>
      <trkpt lat="42.97468" lon="-0.18998">
        <ele>894.8</ele>
        <time>2022-06-08 13:44:10</time>
      </trkpt>
      <trkpt lat="42.97472" lon="-0.18981">
        <ele>894.4</ele>
        <time>2022-06-08 13:44:11</time>
      </trkpt>
      <trkpt lat="42.97476" lon="-0.18967">
        <ele>893.8</ele>
        <time>2022-06-08 13:44:12</time>
      </trkpt>
      <trkpt lat="42.97478" lon="-0.18955">
        <ele>893.2</ele>
        <time>2022-06-08 13:44:13</time>
      </trkpt>
      <trkpt lat="42.9748" lon="-0.1894">
        <ele>892.2</ele>
        <time>2022-06-08 13:44:14</time>
      </trkpt>
      <trkpt lat="42.97481" lon="-0.18924">
        <ele>891.2</ele>
        <time>2022-06-08 13:44:15</time>
      </trkpt>
      <trkpt lat="42.9748" lon="-0.18908">
        <ele>890.8</ele>
        <time>2022-06-08 13:44:16</time>
      </trkpt>
      <trkpt lat="42.97477" lon="-0.18889">
        <ele>889.6</ele>
        <time>2022-06-08 13:44:17</time>
      </trkpt>
      <trkpt lat="42.97474" lon="-0.18876">
        <ele>889.4</ele>
        <time>2022-06-08 13:44:18</time>
      </trkpt>
      <trkpt lat="42.97471" lon="-0.1886">
        <ele>888.4</ele>
        <time>2022-06-08 13:44:19</time>
      </trkpt>
      <trkpt lat="42.97466" lon="-0.18846">
        <ele>888.2</ele>
        <time>2022-06-08 13:44:20</time>
      </trkpt>
      <trkpt lat="42.97462" lon="-0.1883">
        <ele>887</ele>
        <time>2022-06-08 13:44:21</time>
      </trkpt>
      <trkpt lat="42.97458" lon="-0.18818">
        <ele>886.8</ele>
        <time>2022-06-08 13:44:22</time>
      </trkpt>
      <trkpt lat="42.97454" lon="-0.18807">
        <ele>886.2</ele>
        <time>2022-06-08 13:44:23</time>
      </trkpt>
      <trkpt lat="42.9745" lon="-0.18799">
        <ele>885.6</ele>
        <time>2022-06-08 13:44:24</time>
      </trkpt>
      <trkpt lat="42.97442" lon="-0.1879">
        <ele>884.8</ele>
        <time>2022-06-08 13:44:25</time>
      </trkpt>
      <trkpt lat="42.97435" lon="-0.18784">
        <ele>884.6</ele>
        <time>2022-06-08 13:44:26</time>
      </trkpt>
      <trkpt lat="42.97428" lon="-0.18779">
        <ele>884.4</ele>
        <time>2022-06-08 13:44:27</time>
      </trkpt>
      <trkpt lat="42.9742" lon="-0.18774">
        <ele>884.2</ele>
        <time>2022-06-08 13:44:28</time>
      </trkpt>
      <trkpt lat="42.97415" lon="-0.18769">
        <ele>884</ele>
        <time>2022-06-08 13:44:29</time>
      </trkpt>
      <trkpt lat="42.97408" lon="-0.18763">
        <ele>883.8</ele>
        <time>2022-06-08 13:44:30</time>
      </trkpt>
      <trkpt lat="42.974" lon="-0.18755">
        <ele>883.8</ele>
        <time>2022-06-08 13:44:31</time>
      </trkpt>
      <trkpt lat="42.97393" lon="-0.18747">
        <ele>883.4</ele>
        <time>2022-06-08 13:44:32</time>
      </trkpt>
      <trkpt lat="42.97385" lon="-0.18738">
        <ele>883.4</ele>
        <time>2022-06-08 13:44:33</time>
      </trkpt>
      <trkpt lat="42.9738" lon="-0.18732">
        <ele>883.4</ele>
        <time>2022-06-08 13:44:34</time>
      </trkpt>
      <trkpt lat="42.97373" lon="-0.18724">
        <ele>883.4</ele>
        <time>2022-06-08 13:44:35</time>
      </trkpt>
      <trkpt lat="42.97367" lon="-0.18716">
        <ele>883.2</ele>
        <time>2022-06-08 13:44:36</time>
      </trkpt>
      <trkpt lat="42.97362" lon="-0.18708">
        <ele>883.2</ele>
        <time>2022-06-08 13:44:37</time>
      </trkpt>
      <trkpt lat="42.97359" lon="-0.18698">
        <ele>883</ele>
        <time>2022-06-08 13:44:38</time>
      </trkpt>
      <trkpt lat="42.97358" lon="-0.18687">
        <ele>882.8</ele>
        <time>2022-06-08 13:44:39</time>
      </trkpt>
      <trkpt lat="42.97358" lon="-0.18676">
        <ele>882.6</ele>
        <time>2022-06-08 13:44:40</time>
      </trkpt>
      <trkpt lat="42.97358" lon="-0.18664">
        <ele>882.6</ele>
        <time>2022-06-08 13:44:41</time>
      </trkpt>
      <trkpt lat="42.97359" lon="-0.18652">
        <ele>882.4</ele>
        <time>2022-06-08 13:44:42</time>
      </trkpt>
      <trkpt lat="42.97359" lon="-0.1864">
        <ele>882.4</ele>
        <time>2022-06-08 13:44:43</time>
      </trkpt>
      <trkpt lat="42.97359" lon="-0.18628">
        <ele>882.4</ele>
        <time>2022-06-08 13:44:44</time>
      </trkpt>
      <trkpt lat="42.97359" lon="-0.18617">
        <ele>882.2</ele>
        <time>2022-06-08 13:44:45</time>
      </trkpt>
      <trkpt lat="42.97359" lon="-0.18605">
        <ele>882</ele>
        <time>2022-06-08 13:44:46</time>
      </trkpt>
      <trkpt lat="42.97359" lon="-0.18594">
        <ele>882</ele>
        <time>2022-06-08 13:44:47</time>
      </trkpt>
      <trkpt lat="42.9736" lon="-0.18582">
        <ele>882</ele>
        <time>2022-06-08 13:44:48</time>
      </trkpt>
      <trkpt lat="42.9736" lon="-0.18571">
        <ele>881.8</ele>
        <time>2022-06-08 13:44:49</time>
      </trkpt>
      <trkpt lat="42.9736" lon="-0.1856">
        <ele>881.6</ele>
        <time>2022-06-08 13:44:50</time>
      </trkpt>
      <trkpt lat="42.9736" lon="-0.1855">
        <ele>881.6</ele>
        <time>2022-06-08 13:44:51</time>
      </trkpt>
      <trkpt lat="42.97361" lon="-0.1854">
        <ele>881.6</ele>
        <time>2022-06-08 13:44:52</time>
      </trkpt>
      <trkpt lat="42.9736" lon="-0.18531">
        <ele>881.6</ele>
        <time>2022-06-08 13:44:53</time>
      </trkpt>
      <trkpt lat="42.9736" lon="-0.18522">
        <ele>881.6</ele>
        <time>2022-06-08 13:44:54</time>
      </trkpt>
      <trkpt lat="42.97358" lon="-0.18513">
        <ele>881.8</ele>
        <time>2022-06-08 13:44:55</time>
      </trkpt>
      <trkpt lat="42.97357" lon="-0.18505">
        <ele>881.8</ele>
        <time>2022-06-08 13:44:56</time>
      </trkpt>
      <trkpt lat="42.97356" lon="-0.18497">
        <ele>881.8</ele>
        <time>2022-06-08 13:44:57</time>
      </trkpt>
      <trkpt lat="42.97355" lon="-0.18488">
        <ele>881.8</ele>
        <time>2022-06-08 13:44:58</time>
      </trkpt>
      <trkpt lat="42.97354" lon="-0.1848">
        <ele>881.8</ele>
        <time>2022-06-08 13:44:59</time>
      </trkpt>
      <trkpt lat="42.97353" lon="-0.18471">
        <ele>881.8</ele>
        <time>2022-06-08 13:45:00</time>
      </trkpt>
      <trkpt lat="42.97351" lon="-0.18462">
        <ele>881.8</ele>
        <time>2022-06-08 13:45:01</time>
      </trkpt>
      <trkpt lat="42.97349" lon="-0.18454">
        <ele>881.8</ele>
        <time>2022-06-08 13:45:02</time>
      </trkpt>
      <trkpt lat="42.97347" lon="-0.18445">
        <ele>881.8</ele>
        <time>2022-06-08 13:45:03</time>
      </trkpt>
      <trkpt lat="42.97344" lon="-0.18437">
        <ele>881.8</ele>
        <time>2022-06-08 13:45:04</time>
      </trkpt>
      <trkpt lat="42.97341" lon="-0.18428">
        <ele>881.6</ele>
        <time>2022-06-08 13:45:05</time>
      </trkpt>
      <trkpt lat="42.97337" lon="-0.18417">
        <ele>881.6</ele>
        <time>2022-06-08 13:45:06</time>
      </trkpt>
      <trkpt lat="42.97334" lon="-0.18408">
        <ele>881.4</ele>
        <time>2022-06-08 13:45:07</time>
      </trkpt>
      <trkpt lat="42.9733" lon="-0.18402">
        <ele>881</ele>
        <time>2022-06-08 13:45:08</time>
      </trkpt>
      <trkpt lat="42.97325" lon="-0.18394">
        <ele>880.6</ele>
        <time>2022-06-08 13:45:09</time>
      </trkpt>
      <trkpt lat="42.97319" lon="-0.18387">
        <ele>880.4</ele>
        <time>2022-06-08 13:45:10</time>
      </trkpt>
      <trkpt lat="42.97313" lon="-0.18381">
        <ele>879.8</ele>
        <time>2022-06-08 13:45:11</time>
      </trkpt>
      <trkpt lat="42.97306" lon="-0.18373">
        <ele>879.4</ele>
        <time>2022-06-08 13:45:12</time>
      </trkpt>
      <trkpt lat="42.97301" lon="-0.18367">
        <ele>879</ele>
        <time>2022-06-08 13:45:13</time>
      </trkpt>
      <trkpt lat="42.97296" lon="-0.18358">
        <ele>878.6</ele>
        <time>2022-06-08 13:45:14</time>
      </trkpt>
      <trkpt lat="42.97291" lon="-0.18349">
        <ele>878.4</ele>
        <time>2022-06-08 13:45:15</time>
      </trkpt>
      <trkpt lat="42.97287" lon="-0.18339">
        <ele>878.2</ele>
        <time>2022-06-08 13:45:16</time>
      </trkpt>
      <trkpt lat="42.97284" lon="-0.18329">
        <ele>878</ele>
        <time>2022-06-08 13:45:17</time>
      </trkpt>
      <trkpt lat="42.97281" lon="-0.18319">
        <ele>878</ele>
        <time>2022-06-08 13:45:18</time>
      </trkpt>
      <trkpt lat="42.97278" lon="-0.18308">
        <ele>877.6</ele>
        <time>2022-06-08 13:45:19</time>
      </trkpt>
      <trkpt lat="42.97275" lon="-0.18298">
        <ele>877.6</ele>
        <time>2022-06-08 13:45:20</time>
      </trkpt>
      <trkpt lat="42.97272" lon="-0.18288">
        <ele>877.4</ele>
        <time>2022-06-08 13:45:21</time>
      </trkpt>
      <trkpt lat="42.97268" lon="-0.18278">
        <ele>877.4</ele>
        <time>2022-06-08 13:45:22</time>
      </trkpt>
      <trkpt lat="42.97264" lon="-0.18269">
        <ele>877.4</ele>
        <time>2022-06-08 13:45:23</time>
      </trkpt>
      <trkpt lat="42.9726" lon="-0.18261">
        <ele>877.6</ele>
        <time>2022-06-08 13:45:24</time>
      </trkpt>
      <trkpt lat="42.97256" lon="-0.18254">
        <ele>877.8</ele>
        <time>2022-06-08 13:45:25</time>
      </trkpt>
      <trkpt lat="42.97253" lon="-0.18247">
        <ele>878</ele>
        <time>2022-06-08 13:45:26</time>
      </trkpt>
      <trkpt lat="42.9725" lon="-0.1824">
        <ele>878</ele>
        <time>2022-06-08 13:45:27</time>
      </trkpt>
      <trkpt lat="42.97248" lon="-0.18233">
        <ele>878</ele>
        <time>2022-06-08 13:45:28</time>
      </trkpt>
      <trkpt lat="42.97245" lon="-0.18225">
        <ele>878</ele>
        <time>2022-06-08 13:45:29</time>
      </trkpt>
      <trkpt lat="42.97242" lon="-0.18217">
        <ele>877.8</ele>
        <time>2022-06-08 13:45:30</time>
      </trkpt>
      <trkpt lat="42.97238" lon="-0.18207">
        <ele>877.8</ele>
        <time>2022-06-08 13:45:31</time>
      </trkpt>
      <trkpt lat="42.97234" lon="-0.18197">
        <ele>877.6</ele>
        <time>2022-06-08 13:45:32</time>
      </trkpt>
      <trkpt lat="42.97229" lon="-0.18187">
        <ele>877.6</ele>
        <time>2022-06-08 13:45:33</time>
      </trkpt>
      <trkpt lat="42.97224" lon="-0.18176">
        <ele>877.2</ele>
        <time>2022-06-08 13:45:34</time>
      </trkpt>
      <trkpt lat="42.97219" lon="-0.18165">
        <ele>877</ele>
        <time>2022-06-08 13:45:35</time>
      </trkpt>
      <trkpt lat="42.97213" lon="-0.18154">
        <ele>876.8</ele>
        <time>2022-06-08 13:45:36</time>
      </trkpt>
      <trkpt lat="42.97208" lon="-0.18145">
        <ele>875.8</ele>
        <time>2022-06-08 13:45:37</time>
      </trkpt>
      <trkpt lat="42.97203" lon="-0.18136">
        <ele>875.2</ele>
        <time>2022-06-08 13:45:38</time>
      </trkpt>
      <trkpt lat="42.97198" lon="-0.18128">
        <ele>874.6</ele>
        <time>2022-06-08 13:45:39</time>
      </trkpt>
      <trkpt lat="42.97192" lon="-0.18118">
        <ele>874.6</ele>
        <time>2022-06-08 13:45:40</time>
      </trkpt>
      <trkpt lat="42.9719" lon="-0.18112">
        <ele>874.4</ele>
        <time>2022-06-08 13:45:41</time>
      </trkpt>
      <trkpt lat="42.97187" lon="-0.18103">
        <ele>874.4</ele>
        <time>2022-06-08 13:45:42</time>
      </trkpt>
      <trkpt lat="42.97188" lon="-0.18097">
        <ele>874.4</ele>
        <time>2022-06-08 13:45:43</time>
      </trkpt>
      <trkpt lat="42.9719" lon="-0.18091">
        <ele>874.4</ele>
        <time>2022-06-08 13:45:44</time>
      </trkpt>
      <trkpt lat="42.97193" lon="-0.18086">
        <ele>874.6</ele>
        <time>2022-06-08 13:45:45</time>
      </trkpt>
      <trkpt lat="42.97195" lon="-0.18082">
        <ele>874.8</ele>
        <time>2022-06-08 13:45:46</time>
      </trkpt>
      <trkpt lat="42.97198" lon="-0.18077">
        <ele>875</ele>
        <time>2022-06-08 13:45:47</time>
      </trkpt>
      <trkpt lat="42.972" lon="-0.18073">
        <ele>875.4</ele>
        <time>2022-06-08 13:45:48</time>
      </trkpt>
      <trkpt lat="42.97203" lon="-0.18069">
        <ele>875.8</ele>
        <time>2022-06-08 13:45:49</time>
      </trkpt>
      <trkpt lat="42.97206" lon="-0.18063">
        <ele>876.4</ele>
        <time>2022-06-08 13:45:50</time>
      </trkpt>
      <trkpt lat="42.97209" lon="-0.18058">
        <ele>876.6</ele>
        <time>2022-06-08 13:45:51</time>
      </trkpt>
      <trkpt lat="42.97212" lon="-0.18053">
        <ele>877.2</ele>
        <time>2022-06-08 13:45:52</time>
      </trkpt>
      <trkpt lat="42.97214" lon="-0.18047">
        <ele>877.4</ele>
        <time>2022-06-08 13:45:53</time>
      </trkpt>
      <trkpt lat="42.97218" lon="-0.18041">
        <ele>877.6</ele>
        <time>2022-06-08 13:45:54</time>
      </trkpt>
      <trkpt lat="42.97221" lon="-0.18035">
        <ele>877.6</ele>
        <time>2022-06-08 13:45:55</time>
      </trkpt>
      <trkpt lat="42.97224" lon="-0.18029">
        <ele>877.6</ele>
        <time>2022-06-08 13:45:56</time>
      </trkpt>
      <trkpt lat="42.97227" lon="-0.18023">
        <ele>877.6</ele>
        <time>2022-06-08 13:45:57</time>
      </trkpt>
      <trkpt lat="42.97229" lon="-0.18018">
        <ele>877.6</ele>
        <time>2022-06-08 13:45:58</time>
      </trkpt>
      <trkpt lat="42.97232" lon="-0.18012">
        <ele>877.6</ele>
        <time>2022-06-08 13:45:59</time>
      </trkpt>
      <trkpt lat="42.97235" lon="-0.18007">
        <ele>877.6</ele>
        <time>2022-06-08 13:46:00</time>
      </trkpt>
      <trkpt lat="42.97239" lon="-0.18002">
        <ele>877.4</ele>
        <time>2022-06-08 13:46:01</time>
      </trkpt>
      <trkpt lat="42.97242" lon="-0.17997">
        <ele>877.2</ele>
        <time>2022-06-08 13:46:02</time>
      </trkpt>
      <trkpt lat="42.97246" lon="-0.17992">
        <ele>877.2</ele>
        <time>2022-06-08 13:46:03</time>
      </trkpt>
      <trkpt lat="42.97249" lon="-0.17987">
        <ele>877.2</ele>
        <time>2022-06-08 13:46:04</time>
      </trkpt>
      <trkpt lat="42.97253" lon="-0.17981">
        <ele>877</ele>
        <time>2022-06-08 13:46:05</time>
      </trkpt>
      <trkpt lat="42.97257" lon="-0.17974">
        <ele>877</ele>
        <time>2022-06-08 13:46:06</time>
      </trkpt>
      <trkpt lat="42.97261" lon="-0.17967">
        <ele>876.8</ele>
        <time>2022-06-08 13:46:07</time>
      </trkpt>
      <trkpt lat="42.97265" lon="-0.17959">
        <ele>876.8</ele>
        <time>2022-06-08 13:46:08</time>
      </trkpt>
      <trkpt lat="42.97268" lon="-0.1795">
        <ele>876.6</ele>
        <time>2022-06-08 13:46:09</time>
      </trkpt>
      <trkpt lat="42.97272" lon="-0.17938">
        <ele>876.6</ele>
        <time>2022-06-08 13:46:10</time>
      </trkpt>
      <trkpt lat="42.97274" lon="-0.17928">
        <ele>875.6</ele>
        <time>2022-06-08 13:46:11</time>
      </trkpt>
      <trkpt lat="42.97277" lon="-0.17917">
        <ele>875.2</ele>
        <time>2022-06-08 13:46:12</time>
      </trkpt>
      <trkpt lat="42.9728" lon="-0.17909">
        <ele>874.6</ele>
        <time>2022-06-08 13:46:13</time>
      </trkpt>
      <trkpt lat="42.97282" lon="-0.17899">
        <ele>874.2</ele>
        <time>2022-06-08 13:46:14</time>
      </trkpt>
      <trkpt lat="42.97285" lon="-0.17887">
        <ele>873.6</ele>
        <time>2022-06-08 13:46:15</time>
      </trkpt>
      <trkpt lat="42.97286" lon="-0.17878">
        <ele>873.2</ele>
        <time>2022-06-08 13:46:16</time>
      </trkpt>
      <trkpt lat="42.97288" lon="-0.17868">
        <ele>873.2</ele>
        <time>2022-06-08 13:46:17</time>
      </trkpt>
      <trkpt lat="42.9729" lon="-0.17857">
        <ele>873</ele>
        <time>2022-06-08 13:46:18</time>
      </trkpt>
      <trkpt lat="42.97293" lon="-0.17847">
        <ele>873</ele>
        <time>2022-06-08 13:46:19</time>
      </trkpt>
      <trkpt lat="42.97295" lon="-0.17836">
        <ele>873</ele>
        <time>2022-06-08 13:46:20</time>
      </trkpt>
      <trkpt lat="42.97299" lon="-0.17824">
        <ele>873</ele>
        <time>2022-06-08 13:46:21</time>
      </trkpt>
      <trkpt lat="42.97301" lon="-0.17816">
        <ele>872.8</ele>
        <time>2022-06-08 13:46:22</time>
      </trkpt>
      <trkpt lat="42.97305" lon="-0.17807">
        <ele>872.8</ele>
        <time>2022-06-08 13:46:23</time>
      </trkpt>
      <trkpt lat="42.97309" lon="-0.17797">
        <ele>873</ele>
        <time>2022-06-08 13:46:24</time>
      </trkpt>
      <trkpt lat="42.97313" lon="-0.17788">
        <ele>873</ele>
        <time>2022-06-08 13:46:25</time>
      </trkpt>
      <trkpt lat="42.97317" lon="-0.1778">
        <ele>873.4</ele>
        <time>2022-06-08 13:46:26</time>
      </trkpt>
      <trkpt lat="42.97321" lon="-0.17771">
        <ele>873.4</ele>
        <time>2022-06-08 13:46:27</time>
      </trkpt>
      <trkpt lat="42.97325" lon="-0.17763">
        <ele>873.6</ele>
        <time>2022-06-08 13:46:28</time>
      </trkpt>
      <trkpt lat="42.97329" lon="-0.17756">
        <ele>873.8</ele>
        <time>2022-06-08 13:46:29</time>
      </trkpt>
      <trkpt lat="42.97333" lon="-0.1775">
        <ele>874</ele>
        <time>2022-06-08 13:46:30</time>
      </trkpt>
      <trkpt lat="42.97337" lon="-0.17745">
        <ele>874.2</ele>
        <time>2022-06-08 13:46:31</time>
      </trkpt>
      <trkpt lat="42.9734" lon="-0.17739">
        <ele>874.4</ele>
        <time>2022-06-08 13:46:32</time>
      </trkpt>
      <trkpt lat="42.97343" lon="-0.17734">
        <ele>875</ele>
        <time>2022-06-08 13:46:33</time>
      </trkpt>
      <trkpt lat="42.97347" lon="-0.17728">
        <ele>875.2</ele>
        <time>2022-06-08 13:46:34</time>
      </trkpt>
      <trkpt lat="42.9735" lon="-0.17722">
        <ele>875.4</ele>
        <time>2022-06-08 13:46:35</time>
      </trkpt>
      <trkpt lat="42.97353" lon="-0.17716">
        <ele>875.4</ele>
        <time>2022-06-08 13:46:36</time>
      </trkpt>
      <trkpt lat="42.97355" lon="-0.1771">
        <ele>876</ele>
        <time>2022-06-08 13:46:37</time>
      </trkpt>
      <trkpt lat="42.97357" lon="-0.17703">
        <ele>876.4</ele>
        <time>2022-06-08 13:46:38</time>
      </trkpt>
      <trkpt lat="42.9736" lon="-0.17697">
        <ele>876.8</ele>
        <time>2022-06-08 13:46:39</time>
      </trkpt>
      <trkpt lat="42.97363" lon="-0.17689">
        <ele>876.8</ele>
        <time>2022-06-08 13:46:40</time>
      </trkpt>
      <trkpt lat="42.97366" lon="-0.17681">
        <ele>877</ele>
        <time>2022-06-08 13:46:41</time>
      </trkpt>
      <trkpt lat="42.97369" lon="-0.17674">
        <ele>877</ele>
        <time>2022-06-08 13:46:42</time>
      </trkpt>
      <trkpt lat="42.97372" lon="-0.17666">
        <ele>877</ele>
        <time>2022-06-08 13:46:43</time>
      </trkpt>
      <trkpt lat="42.97375" lon="-0.17658">
        <ele>877.2</ele>
        <time>2022-06-08 13:46:44</time>
      </trkpt>
      <trkpt lat="42.97378" lon="-0.1765">
        <ele>877.2</ele>
        <time>2022-06-08 13:46:45</time>
      </trkpt>
      <trkpt lat="42.9738" lon="-0.17643">
        <ele>877.2</ele>
        <time>2022-06-08 13:46:46</time>
      </trkpt>
      <trkpt lat="42.97383" lon="-0.17636">
        <ele>877.2</ele>
        <time>2022-06-08 13:46:47</time>
      </trkpt>
      <trkpt lat="42.97385" lon="-0.17629">
        <ele>877.2</ele>
        <time>2022-06-08 13:46:48</time>
      </trkpt>
      <trkpt lat="42.97387" lon="-0.17621">
        <ele>877.2</ele>
        <time>2022-06-08 13:46:49</time>
      </trkpt>
      <trkpt lat="42.97389" lon="-0.17613">
        <ele>877.2</ele>
        <time>2022-06-08 13:46:50</time>
      </trkpt>
      <trkpt lat="42.97391" lon="-0.17603">
        <ele>877.2</ele>
        <time>2022-06-08 13:46:51</time>
      </trkpt>
      <trkpt lat="42.97393" lon="-0.17593">
        <ele>877.2</ele>
        <time>2022-06-08 13:46:52</time>
      </trkpt>
      <trkpt lat="42.97395" lon="-0.17582">
        <ele>877.2</ele>
        <time>2022-06-08 13:46:53</time>
      </trkpt>
      <trkpt lat="42.97397" lon="-0.17572">
        <ele>877.2</ele>
        <time>2022-06-08 13:46:54</time>
      </trkpt>
      <trkpt lat="42.97399" lon="-0.17561">
        <ele>877.2</ele>
        <time>2022-06-08 13:46:55</time>
      </trkpt>
      <trkpt lat="42.97401" lon="-0.17552">
        <ele>877</ele>
        <time>2022-06-08 13:46:56</time>
      </trkpt>
      <trkpt lat="42.97403" lon="-0.17542">
        <ele>876.8</ele>
        <time>2022-06-08 13:46:57</time>
      </trkpt>
      <trkpt lat="42.97405" lon="-0.17533">
        <ele>876.6</ele>
        <time>2022-06-08 13:46:58</time>
      </trkpt>
      <trkpt lat="42.97408" lon="-0.17523">
        <ele>876.6</ele>
        <time>2022-06-08 13:46:59</time>
      </trkpt>
      <trkpt lat="42.9741" lon="-0.17514">
        <ele>876.6</ele>
        <time>2022-06-08 13:47:00</time>
      </trkpt>
      <trkpt lat="42.97412" lon="-0.17506">
        <ele>876.6</ele>
        <time>2022-06-08 13:47:01</time>
      </trkpt>
      <trkpt lat="42.97414" lon="-0.17497">
        <ele>876.6</ele>
        <time>2022-06-08 13:47:02</time>
      </trkpt>
      <trkpt lat="42.97415" lon="-0.17489">
        <ele>876.8</ele>
        <time>2022-06-08 13:47:03</time>
      </trkpt>
      <trkpt lat="42.97418" lon="-0.17482">
        <ele>876.8</ele>
        <time>2022-06-08 13:47:04</time>
      </trkpt>
      <trkpt lat="42.9742" lon="-0.17474">
        <ele>877</ele>
        <time>2022-06-08 13:47:05</time>
      </trkpt>
      <trkpt lat="42.97421" lon="-0.17466">
        <ele>877</ele>
        <time>2022-06-08 13:47:06</time>
      </trkpt>
      <trkpt lat="42.97423" lon="-0.17458">
        <ele>877</ele>
        <time>2022-06-08 13:47:07</time>
      </trkpt>
      <trkpt lat="42.97426" lon="-0.17449">
        <ele>877</ele>
        <time>2022-06-08 13:47:08</time>
      </trkpt>
      <trkpt lat="42.97427" lon="-0.17439">
        <ele>877</ele>
        <time>2022-06-08 13:47:09</time>
      </trkpt>
      <trkpt lat="42.97427" lon="-0.17428">
        <ele>877</ele>
        <time>2022-06-08 13:47:10</time>
      </trkpt>
      <trkpt lat="42.97425" lon="-0.17417">
        <ele>877</ele>
        <time>2022-06-08 13:47:11</time>
      </trkpt>
      <trkpt lat="42.97421" lon="-0.17409">
        <ele>876.8</ele>
        <time>2022-06-08 13:47:12</time>
      </trkpt>
      <trkpt lat="42.97416" lon="-0.17402">
        <ele>876.8</ele>
        <time>2022-06-08 13:47:13</time>
      </trkpt>
      <trkpt lat="42.9741" lon="-0.17398">
        <ele>875.8</ele>
        <time>2022-06-08 13:47:14</time>
      </trkpt>
      <trkpt lat="42.97403" lon="-0.17395">
        <ele>875.4</ele>
        <time>2022-06-08 13:47:15</time>
      </trkpt>
      <trkpt lat="42.97396" lon="-0.17395">
        <ele>874.8</ele>
        <time>2022-06-08 13:47:16</time>
      </trkpt>
      <trkpt lat="42.97388" lon="-0.17396">
        <ele>874.4</ele>
        <time>2022-06-08 13:47:17</time>
      </trkpt>
      <trkpt lat="42.9738" lon="-0.17398">
        <ele>873.8</ele>
        <time>2022-06-08 13:47:18</time>
      </trkpt>
      <trkpt lat="42.97372" lon="-0.174">
        <ele>873</ele>
        <time>2022-06-08 13:47:19</time>
      </trkpt>
      <trkpt lat="42.97365" lon="-0.17402">
        <ele>872.4</ele>
        <time>2022-06-08 13:47:20</time>
      </trkpt>
      <trkpt lat="42.97358" lon="-0.17402">
        <ele>872</ele>
        <time>2022-06-08 13:47:21</time>
      </trkpt>
      <trkpt lat="42.97351" lon="-0.17399">
        <ele>871.8</ele>
        <time>2022-06-08 13:47:22</time>
      </trkpt>
      <trkpt lat="42.97345" lon="-0.17393">
        <ele>871</ele>
        <time>2022-06-08 13:47:23</time>
      </trkpt>
      <trkpt lat="42.97339" lon="-0.17384">
        <ele>871</ele>
        <time>2022-06-08 13:47:24</time>
      </trkpt>
      <trkpt lat="42.97334" lon="-0.17373">
        <ele>870.2</ele>
        <time>2022-06-08 13:47:25</time>
      </trkpt>
      <trkpt lat="42.97331" lon="-0.17361">
        <ele>869.8</ele>
        <time>2022-06-08 13:47:26</time>
      </trkpt>
      <trkpt lat="42.97329" lon="-0.17348">
        <ele>869.2</ele>
        <time>2022-06-08 13:47:27</time>
      </trkpt>
      <trkpt lat="42.97326" lon="-0.17335">
        <ele>868.2</ele>
        <time>2022-06-08 13:47:28</time>
      </trkpt>
      <trkpt lat="42.97324" lon="-0.17322">
        <ele>867.2</ele>
        <time>2022-06-08 13:47:29</time>
      </trkpt>
      <trkpt lat="42.97321" lon="-0.17309">
        <ele>866.8</ele>
        <time>2022-06-08 13:47:30</time>
      </trkpt>
      <trkpt lat="42.97319" lon="-0.17295">
        <ele>866.2</ele>
        <time>2022-06-08 13:47:31</time>
      </trkpt>
      <trkpt lat="42.97317" lon="-0.17281">
        <ele>866</ele>
        <time>2022-06-08 13:47:32</time>
      </trkpt>
      <trkpt lat="42.97315" lon="-0.17267">
        <ele>865.4</ele>
        <time>2022-06-08 13:47:33</time>
      </trkpt>
      <trkpt lat="42.97314" lon="-0.17252">
        <ele>865.2</ele>
        <time>2022-06-08 13:47:34</time>
      </trkpt>
      <trkpt lat="42.97312" lon="-0.17239">
        <ele>864.4</ele>
        <time>2022-06-08 13:47:35</time>
      </trkpt>
      <trkpt lat="42.97312" lon="-0.17225">
        <ele>863.8</ele>
        <time>2022-06-08 13:47:36</time>
      </trkpt>
      <trkpt lat="42.97312" lon="-0.1721">
        <ele>863.6</ele>
        <time>2022-06-08 13:47:37</time>
      </trkpt>
      <trkpt lat="42.97313" lon="-0.17196">
        <ele>863.2</ele>
        <time>2022-06-08 13:47:38</time>
      </trkpt>
      <trkpt lat="42.97314" lon="-0.17182">
        <ele>862.8</ele>
        <time>2022-06-08 13:47:39</time>
      </trkpt>
      <trkpt lat="42.97316" lon="-0.17167">
        <ele>862.4</ele>
        <time>2022-06-08 13:47:40</time>
      </trkpt>
      <trkpt lat="42.97319" lon="-0.17153">
        <ele>862.2</ele>
        <time>2022-06-08 13:47:41</time>
      </trkpt>
      <trkpt lat="42.97322" lon="-0.17139">
        <ele>861.8</ele>
        <time>2022-06-08 13:47:42</time>
      </trkpt>
      <trkpt lat="42.97326" lon="-0.17126">
        <ele>861.6</ele>
        <time>2022-06-08 13:47:43</time>
      </trkpt>
      <trkpt lat="42.9733" lon="-0.17112">
        <ele>860.8</ele>
        <time>2022-06-08 13:47:44</time>
      </trkpt>
      <trkpt lat="42.97334" lon="-0.171">
        <ele>860.6</ele>
        <time>2022-06-08 13:47:45</time>
      </trkpt>
      <trkpt lat="42.97338" lon="-0.17087">
        <ele>859.8</ele>
        <time>2022-06-08 13:47:46</time>
      </trkpt>
      <trkpt lat="42.97341" lon="-0.17074">
        <ele>859.4</ele>
        <time>2022-06-08 13:47:47</time>
      </trkpt>
      <trkpt lat="42.97345" lon="-0.17062">
        <ele>858.8</ele>
        <time>2022-06-08 13:47:48</time>
      </trkpt>
      <trkpt lat="42.97348" lon="-0.1705">
        <ele>858.6</ele>
        <time>2022-06-08 13:47:49</time>
      </trkpt>
      <trkpt lat="42.97351" lon="-0.17038">
        <ele>858.2</ele>
        <time>2022-06-08 13:47:50</time>
      </trkpt>
      <trkpt lat="42.97353" lon="-0.17027">
        <ele>857.6</ele>
        <time>2022-06-08 13:47:51</time>
      </trkpt>
      <trkpt lat="42.97353" lon="-0.17015">
        <ele>857.2</ele>
        <time>2022-06-08 13:47:52</time>
      </trkpt>
      <trkpt lat="42.97353" lon="-0.17003">
        <ele>856.8</ele>
        <time>2022-06-08 13:47:53</time>
      </trkpt>
      <trkpt lat="42.97352" lon="-0.16991">
        <ele>856.6</ele>
        <time>2022-06-08 13:47:54</time>
      </trkpt>
      <trkpt lat="42.97351" lon="-0.16979">
        <ele>855.8</ele>
        <time>2022-06-08 13:47:55</time>
      </trkpt>
      <trkpt lat="42.97351" lon="-0.16967">
        <ele>855.4</ele>
        <time>2022-06-08 13:47:56</time>
      </trkpt>
      <trkpt lat="42.9735" lon="-0.16956">
        <ele>854.6</ele>
        <time>2022-06-08 13:47:57</time>
      </trkpt>
      <trkpt lat="42.9735" lon="-0.16945">
        <ele>854.4</ele>
        <time>2022-06-08 13:47:58</time>
      </trkpt>
      <trkpt lat="42.97351" lon="-0.16936">
        <ele>854</ele>
        <time>2022-06-08 13:47:59</time>
      </trkpt>
      <trkpt lat="42.97351" lon="-0.16928">
        <ele>853.8</ele>
        <time>2022-06-08 13:48:00</time>
      </trkpt>
      <trkpt lat="42.97352" lon="-0.1692">
        <ele>853.6</ele>
        <time>2022-06-08 13:48:01</time>
      </trkpt>
      <trkpt lat="42.97352" lon="-0.16913">
        <ele>853.4</ele>
        <time>2022-06-08 13:48:02</time>
      </trkpt>
      <trkpt lat="42.97352" lon="-0.16906">
        <ele>853.2</ele>
        <time>2022-06-08 13:48:03</time>
      </trkpt>
      <trkpt lat="42.97352" lon="-0.16899">
        <ele>853</ele>
        <time>2022-06-08 13:48:04</time>
      </trkpt>
      <trkpt lat="42.97351" lon="-0.1689">
        <ele>853.2</ele>
        <time>2022-06-08 13:48:05</time>
      </trkpt>
      <trkpt lat="42.97349" lon="-0.16882">
        <ele>853</ele>
        <time>2022-06-08 13:48:06</time>
      </trkpt>
      <trkpt lat="42.97347" lon="-0.16873">
        <ele>852.8</ele>
        <time>2022-06-08 13:48:07</time>
      </trkpt>
      <trkpt lat="42.97344" lon="-0.16865">
        <ele>851.8</ele>
        <time>2022-06-08 13:48:08</time>
      </trkpt>
      <trkpt lat="42.97343" lon="-0.16857">
        <ele>851.4</ele>
        <time>2022-06-08 13:48:09</time>
      </trkpt>
      <trkpt lat="42.97342" lon="-0.16848">
        <ele>850.8</ele>
        <time>2022-06-08 13:48:10</time>
      </trkpt>
      <trkpt lat="42.97343" lon="-0.1684">
        <ele>850.6</ele>
        <time>2022-06-08 13:48:11</time>
      </trkpt>
      <trkpt lat="42.97345" lon="-0.16832">
        <ele>850.2</ele>
        <time>2022-06-08 13:48:12</time>
      </trkpt>
      <trkpt lat="42.97347" lon="-0.16823">
        <ele>850.2</ele>
        <time>2022-06-08 13:48:13</time>
      </trkpt>
      <trkpt lat="42.9735" lon="-0.16815">
        <ele>849.8</ele>
        <time>2022-06-08 13:48:14</time>
      </trkpt>
      <trkpt lat="42.97353" lon="-0.16806">
        <ele>849.8</ele>
        <time>2022-06-08 13:48:15</time>
      </trkpt>
      <trkpt lat="42.97357" lon="-0.16797">
        <ele>849.8</ele>
        <time>2022-06-08 13:48:16</time>
      </trkpt>
      <trkpt lat="42.97361" lon="-0.16788">
        <ele>849.6</ele>
        <time>2022-06-08 13:48:17</time>
      </trkpt>
      <trkpt lat="42.97365" lon="-0.16779">
        <ele>849.6</ele>
        <time>2022-06-08 13:48:18</time>
      </trkpt>
      <trkpt lat="42.97369" lon="-0.1677">
        <ele>849.4</ele>
        <time>2022-06-08 13:48:19</time>
      </trkpt>
      <trkpt lat="42.97373" lon="-0.1676">
        <ele>849.2</ele>
        <time>2022-06-08 13:48:20</time>
      </trkpt>
      <trkpt lat="42.97377" lon="-0.16751">
        <ele>849</ele>
        <time>2022-06-08 13:48:21</time>
      </trkpt>
      <trkpt lat="42.9738" lon="-0.16741">
        <ele>849</ele>
        <time>2022-06-08 13:48:22</time>
      </trkpt>
      <trkpt lat="42.97382" lon="-0.1673">
        <ele>849</ele>
        <time>2022-06-08 13:48:23</time>
      </trkpt>
      <trkpt lat="42.97385" lon="-0.1672">
        <ele>849</ele>
        <time>2022-06-08 13:48:24</time>
      </trkpt>
      <trkpt lat="42.97386" lon="-0.16709">
        <ele>849</ele>
        <time>2022-06-08 13:48:25</time>
      </trkpt>
      <trkpt lat="42.97388" lon="-0.16699">
        <ele>849</ele>
        <time>2022-06-08 13:48:26</time>
      </trkpt>
      <trkpt lat="42.97389" lon="-0.16689">
        <ele>849</ele>
        <time>2022-06-08 13:48:27</time>
      </trkpt>
      <trkpt lat="42.97391" lon="-0.16679">
        <ele>849</ele>
        <time>2022-06-08 13:48:28</time>
      </trkpt>
      <trkpt lat="42.97393" lon="-0.16668">
        <ele>848.8</ele>
        <time>2022-06-08 13:48:29</time>
      </trkpt>
      <trkpt lat="42.97396" lon="-0.16658">
        <ele>849</ele>
        <time>2022-06-08 13:48:30</time>
      </trkpt>
      <trkpt lat="42.97399" lon="-0.16648">
        <ele>849</ele>
        <time>2022-06-08 13:48:31</time>
      </trkpt>
      <trkpt lat="42.97403" lon="-0.16638">
        <ele>849</ele>
        <time>2022-06-08 13:48:32</time>
      </trkpt>
      <trkpt lat="42.97406" lon="-0.16629">
        <ele>849</ele>
        <time>2022-06-08 13:48:33</time>
      </trkpt>
      <trkpt lat="42.9741" lon="-0.16621">
        <ele>849.4</ele>
        <time>2022-06-08 13:48:34</time>
      </trkpt>
      <trkpt lat="42.97414" lon="-0.16614">
        <ele>849.4</ele>
        <time>2022-06-08 13:48:35</time>
      </trkpt>
      <trkpt lat="42.97418" lon="-0.16607">
        <ele>849.4</ele>
        <time>2022-06-08 13:48:36</time>
      </trkpt>
      <trkpt lat="42.97421" lon="-0.16599">
        <ele>849.2</ele>
        <time>2022-06-08 13:48:37</time>
      </trkpt>
      <trkpt lat="42.97424" lon="-0.16592">
        <ele>849.6</ele>
        <time>2022-06-08 13:48:38</time>
      </trkpt>
      <trkpt lat="42.97428" lon="-0.16585">
        <ele>849.6</ele>
        <time>2022-06-08 13:48:39</time>
      </trkpt>
      <trkpt lat="42.97432" lon="-0.16577">
        <ele>849.8</ele>
        <time>2022-06-08 13:48:40</time>
      </trkpt>
      <trkpt lat="42.97437" lon="-0.1657">
        <ele>849.8</ele>
        <time>2022-06-08 13:48:41</time>
      </trkpt>
      <trkpt lat="42.97442" lon="-0.16563">
        <ele>849.8</ele>
        <time>2022-06-08 13:48:42</time>
      </trkpt>
      <trkpt lat="42.97447" lon="-0.16556">
        <ele>849.8</ele>
        <time>2022-06-08 13:48:43</time>
      </trkpt>
      <trkpt lat="42.97453" lon="-0.1655">
        <ele>849.6</ele>
        <time>2022-06-08 13:48:44</time>
      </trkpt>
      <trkpt lat="42.97459" lon="-0.16544">
        <ele>849.6</ele>
        <time>2022-06-08 13:48:45</time>
      </trkpt>
      <trkpt lat="42.97464" lon="-0.16537">
        <ele>849.6</ele>
        <time>2022-06-08 13:48:46</time>
      </trkpt>
      <trkpt lat="42.97469" lon="-0.16529">
        <ele>849.4</ele>
        <time>2022-06-08 13:48:47</time>
      </trkpt>
      <trkpt lat="42.97473" lon="-0.16519">
        <ele>849.4</ele>
        <time>2022-06-08 13:48:48</time>
      </trkpt>
      <trkpt lat="42.97475" lon="-0.16509">
        <ele>849</ele>
        <time>2022-06-08 13:48:49</time>
      </trkpt>
      <trkpt lat="42.97476" lon="-0.165">
        <ele>848.8</ele>
        <time>2022-06-08 13:48:50</time>
      </trkpt>
      <trkpt lat="42.97476" lon="-0.1649">
        <ele>848.4</ele>
        <time>2022-06-08 13:48:51</time>
      </trkpt>
      <trkpt lat="42.97476" lon="-0.16481">
        <ele>848.2</ele>
        <time>2022-06-08 13:48:52</time>
      </trkpt>
      <trkpt lat="42.97476" lon="-0.16473">
        <ele>847.8</ele>
        <time>2022-06-08 13:48:53</time>
      </trkpt>
      <trkpt lat="42.97476" lon="-0.16463">
        <ele>847.8</ele>
        <time>2022-06-08 13:48:54</time>
      </trkpt>
      <trkpt lat="42.97476" lon="-0.16454">
        <ele>847.6</ele>
        <time>2022-06-08 13:48:55</time>
      </trkpt>
      <trkpt lat="42.97476" lon="-0.16445">
        <ele>847.4</ele>
        <time>2022-06-08 13:48:56</time>
      </trkpt>
      <trkpt lat="42.97476" lon="-0.16435">
        <ele>847.2</ele>
        <time>2022-06-08 13:48:57</time>
      </trkpt>
      <trkpt lat="42.97476" lon="-0.16425">
        <ele>846.8</ele>
        <time>2022-06-08 13:48:58</time>
      </trkpt>
      <trkpt lat="42.97476" lon="-0.16414">
        <ele>846.2</ele>
        <time>2022-06-08 13:48:59</time>
      </trkpt>
      <trkpt lat="42.97474" lon="-0.16403">
        <ele>845.8</ele>
        <time>2022-06-08 13:49:00</time>
      </trkpt>
      <trkpt lat="42.97473" lon="-0.16392">
        <ele>845.6</ele>
        <time>2022-06-08 13:49:01</time>
      </trkpt>
      <trkpt lat="42.97471" lon="-0.16381">
        <ele>845.2</ele>
        <time>2022-06-08 13:49:02</time>
      </trkpt>
      <trkpt lat="42.97468" lon="-0.1637">
        <ele>845</ele>
        <time>2022-06-08 13:49:03</time>
      </trkpt>
      <trkpt lat="42.97465" lon="-0.1636">
        <ele>844.4</ele>
        <time>2022-06-08 13:49:04</time>
      </trkpt>
      <trkpt lat="42.97462" lon="-0.16351">
        <ele>844.2</ele>
        <time>2022-06-08 13:49:05</time>
      </trkpt>
      <trkpt lat="42.97458" lon="-0.16342">
        <ele>844</ele>
        <time>2022-06-08 13:49:06</time>
      </trkpt>
      <trkpt lat="42.97455" lon="-0.16334">
        <ele>844</ele>
        <time>2022-06-08 13:49:07</time>
      </trkpt>
      <trkpt lat="42.97451" lon="-0.16327">
        <ele>843.4</ele>
        <time>2022-06-08 13:49:08</time>
      </trkpt>
      <trkpt lat="42.97447" lon="-0.16319">
        <ele>843.2</ele>
        <time>2022-06-08 13:49:09</time>
      </trkpt>
      <trkpt lat="42.97444" lon="-0.16311">
        <ele>843.2</ele>
        <time>2022-06-08 13:49:10</time>
      </trkpt>
      <trkpt lat="42.97442" lon="-0.16302">
        <ele>843.2</ele>
        <time>2022-06-08 13:49:11</time>
      </trkpt>
      <trkpt lat="42.9744" lon="-0.16292">
        <ele>843.2</ele>
        <time>2022-06-08 13:49:12</time>
      </trkpt>
      <trkpt lat="42.9744" lon="-0.16283">
        <ele>843</ele>
        <time>2022-06-08 13:49:13</time>
      </trkpt>
      <trkpt lat="42.9744" lon="-0.16274">
        <ele>843</ele>
        <time>2022-06-08 13:49:14</time>
      </trkpt>
      <trkpt lat="42.97442" lon="-0.16265">
        <ele>843</ele>
        <time>2022-06-08 13:49:15</time>
      </trkpt>
      <trkpt lat="42.97443" lon="-0.16256">
        <ele>843</ele>
        <time>2022-06-08 13:49:16</time>
      </trkpt>
      <trkpt lat="42.97444" lon="-0.16247">
        <ele>843</ele>
        <time>2022-06-08 13:49:17</time>
      </trkpt>
      <trkpt lat="42.97445" lon="-0.16238">
        <ele>842.8</ele>
        <time>2022-06-08 13:49:18</time>
      </trkpt>
      <trkpt lat="42.97446" lon="-0.16229">
        <ele>842.8</ele>
        <time>2022-06-08 13:49:19</time>
      </trkpt>
      <trkpt lat="42.97448" lon="-0.1622">
        <ele>842.8</ele>
        <time>2022-06-08 13:49:20</time>
      </trkpt>
      <trkpt lat="42.97449" lon="-0.1621">
        <ele>842.8</ele>
        <time>2022-06-08 13:49:21</time>
      </trkpt>
      <trkpt lat="42.9745" lon="-0.16201">
        <ele>842.8</ele>
        <time>2022-06-08 13:49:22</time>
      </trkpt>
      <trkpt lat="42.97451" lon="-0.16192">
        <ele>842.8</ele>
        <time>2022-06-08 13:49:23</time>
      </trkpt>
      <trkpt lat="42.97453" lon="-0.16182">
        <ele>842.8</ele>
        <time>2022-06-08 13:49:24</time>
      </trkpt>
      <trkpt lat="42.97454" lon="-0.16173">
        <ele>842.8</ele>
        <time>2022-06-08 13:49:25</time>
      </trkpt>
      <trkpt lat="42.97456" lon="-0.16165">
        <ele>842.8</ele>
        <time>2022-06-08 13:49:26</time>
      </trkpt>
      <trkpt lat="42.97457" lon="-0.16156">
        <ele>842.8</ele>
        <time>2022-06-08 13:49:27</time>
      </trkpt>
      <trkpt lat="42.97459" lon="-0.16147">
        <ele>842.6</ele>
        <time>2022-06-08 13:49:28</time>
      </trkpt>
      <trkpt lat="42.97461" lon="-0.16139">
        <ele>842.4</ele>
        <time>2022-06-08 13:49:29</time>
      </trkpt>
      <trkpt lat="42.97462" lon="-0.1613">
        <ele>842.4</ele>
        <time>2022-06-08 13:49:30</time>
      </trkpt>
      <trkpt lat="42.97464" lon="-0.16122">
        <ele>842.2</ele>
        <time>2022-06-08 13:49:31</time>
      </trkpt>
      <trkpt lat="42.97466" lon="-0.16114">
        <ele>842</ele>
        <time>2022-06-08 13:49:32</time>
      </trkpt>
      <trkpt lat="42.97467" lon="-0.16106">
        <ele>842</ele>
        <time>2022-06-08 13:49:33</time>
      </trkpt>
      <trkpt lat="42.97468" lon="-0.16098">
        <ele>842</ele>
        <time>2022-06-08 13:49:34</time>
      </trkpt>
      <trkpt lat="42.9747" lon="-0.16089">
        <ele>841.8</ele>
        <time>2022-06-08 13:49:35</time>
      </trkpt>
      <trkpt lat="42.97471" lon="-0.16081">
        <ele>841.8</ele>
        <time>2022-06-08 13:49:36</time>
      </trkpt>
      <trkpt lat="42.97473" lon="-0.16072">
        <ele>841.8</ele>
        <time>2022-06-08 13:49:37</time>
      </trkpt>
      <trkpt lat="42.97475" lon="-0.16063">
        <ele>841.8</ele>
        <time>2022-06-08 13:49:38</time>
      </trkpt>
      <trkpt lat="42.97477" lon="-0.16054">
        <ele>841.4</ele>
        <time>2022-06-08 13:49:39</time>
      </trkpt>
      <trkpt lat="42.9748" lon="-0.16045">
        <ele>841.4</ele>
        <time>2022-06-08 13:49:40</time>
      </trkpt>
      <trkpt lat="42.97482" lon="-0.16036">
        <ele>841.2</ele>
        <time>2022-06-08 13:49:41</time>
      </trkpt>
      <trkpt lat="42.97484" lon="-0.16027">
        <ele>841.2</ele>
        <time>2022-06-08 13:49:42</time>
      </trkpt>
      <trkpt lat="42.97487" lon="-0.16019">
        <ele>840.8</ele>
        <time>2022-06-08 13:49:43</time>
      </trkpt>
      <trkpt lat="42.97489" lon="-0.1601">
        <ele>840.8</ele>
        <time>2022-06-08 13:49:44</time>
      </trkpt>
      <trkpt lat="42.97491" lon="-0.16001">
        <ele>840.6</ele>
        <time>2022-06-08 13:49:45</time>
      </trkpt>
      <trkpt lat="42.97493" lon="-0.15993">
        <ele>840.6</ele>
        <time>2022-06-08 13:49:46</time>
      </trkpt>
      <trkpt lat="42.97496" lon="-0.15984">
        <ele>840.4</ele>
        <time>2022-06-08 13:49:47</time>
      </trkpt>
      <trkpt lat="42.97498" lon="-0.15976">
        <ele>840</ele>
        <time>2022-06-08 13:49:48</time>
      </trkpt>
      <trkpt lat="42.975" lon="-0.15967">
        <ele>840</ele>
        <time>2022-06-08 13:49:49</time>
      </trkpt>
      <trkpt lat="42.97502" lon="-0.15959">
        <ele>839.8</ele>
        <time>2022-06-08 13:49:50</time>
      </trkpt>
      <trkpt lat="42.97504" lon="-0.1595">
        <ele>839.8</ele>
        <time>2022-06-08 13:49:51</time>
      </trkpt>
      <trkpt lat="42.97507" lon="-0.15942">
        <ele>839.8</ele>
        <time>2022-06-08 13:49:52</time>
      </trkpt>
      <trkpt lat="42.97509" lon="-0.15935">
        <ele>839.8</ele>
        <time>2022-06-08 13:49:53</time>
      </trkpt>
      <trkpt lat="42.97511" lon="-0.15927">
        <ele>839.6</ele>
        <time>2022-06-08 13:49:54</time>
      </trkpt>
      <trkpt lat="42.97513" lon="-0.15919">
        <ele>839.6</ele>
        <time>2022-06-08 13:49:55</time>
      </trkpt>
      <trkpt lat="42.97514" lon="-0.15911">
        <ele>839.6</ele>
        <time>2022-06-08 13:49:56</time>
      </trkpt>
      <trkpt lat="42.97516" lon="-0.15903">
        <ele>839.6</ele>
        <time>2022-06-08 13:49:57</time>
      </trkpt>
      <trkpt lat="42.97517" lon="-0.15895">
        <ele>839.4</ele>
        <time>2022-06-08 13:49:58</time>
      </trkpt>
      <trkpt lat="42.97519" lon="-0.15887">
        <ele>839.4</ele>
        <time>2022-06-08 13:49:59</time>
      </trkpt>
      <trkpt lat="42.97521" lon="-0.15878">
        <ele>839.2</ele>
        <time>2022-06-08 13:50:00</time>
      </trkpt>
      <trkpt lat="42.97523" lon="-0.15869">
        <ele>839.2</ele>
        <time>2022-06-08 13:50:01</time>
      </trkpt>
      <trkpt lat="42.97524" lon="-0.1586">
        <ele>839</ele>
        <time>2022-06-08 13:50:02</time>
      </trkpt>
      <trkpt lat="42.97526" lon="-0.15851">
        <ele>838.6</ele>
        <time>2022-06-08 13:50:03</time>
      </trkpt>
      <trkpt lat="42.97529" lon="-0.15842">
        <ele>838.4</ele>
        <time>2022-06-08 13:50:04</time>
      </trkpt>
      <trkpt lat="42.97531" lon="-0.15834">
        <ele>838</ele>
        <time>2022-06-08 13:50:05</time>
      </trkpt>
      <trkpt lat="42.97533" lon="-0.15826">
        <ele>837.8</ele>
        <time>2022-06-08 13:50:06</time>
      </trkpt>
      <trkpt lat="42.97536" lon="-0.15819">
        <ele>837.4</ele>
        <time>2022-06-08 13:50:07</time>
      </trkpt>
      <trkpt lat="42.97538" lon="-0.15812">
        <ele>837.4</ele>
        <time>2022-06-08 13:50:08</time>
      </trkpt>
      <trkpt lat="42.9754" lon="-0.15804">
        <ele>837.2</ele>
        <time>2022-06-08 13:50:09</time>
      </trkpt>
      <trkpt lat="42.97541" lon="-0.15797">
        <ele>837.2</ele>
        <time>2022-06-08 13:50:10</time>
      </trkpt>
      <trkpt lat="42.97542" lon="-0.15789">
        <ele>836.8</ele>
        <time>2022-06-08 13:50:11</time>
      </trkpt>
      <trkpt lat="42.97543" lon="-0.15781">
        <ele>836.8</ele>
        <time>2022-06-08 13:50:12</time>
      </trkpt>
      <trkpt lat="42.97545" lon="-0.15774">
        <ele>836.8</ele>
        <time>2022-06-08 13:50:13</time>
      </trkpt>
      <trkpt lat="42.97545" lon="-0.15766">
        <ele>836.8</ele>
        <time>2022-06-08 13:50:14</time>
      </trkpt>
      <trkpt lat="42.97546" lon="-0.15758">
        <ele>837</ele>
        <time>2022-06-08 13:50:15</time>
      </trkpt>
      <trkpt lat="42.97546" lon="-0.1575">
        <ele>837.2</ele>
        <time>2022-06-08 13:50:16</time>
      </trkpt>
      <trkpt lat="42.97547" lon="-0.15742">
        <ele>837.2</ele>
        <time>2022-06-08 13:50:17</time>
      </trkpt>
      <trkpt lat="42.97547" lon="-0.15734">
        <ele>837.4</ele>
        <time>2022-06-08 13:50:18</time>
      </trkpt>
      <trkpt lat="42.97548" lon="-0.15727">
        <ele>837.4</ele>
        <time>2022-06-08 13:50:19</time>
      </trkpt>
      <trkpt lat="42.97548" lon="-0.15719">
        <ele>837.4</ele>
        <time>2022-06-08 13:50:20</time>
      </trkpt>
      <trkpt lat="42.97549" lon="-0.15711">
        <ele>837.4</ele>
        <time>2022-06-08 13:50:21</time>
      </trkpt>
      <trkpt lat="42.9755" lon="-0.15703">
        <ele>837.4</ele>
        <time>2022-06-08 13:50:22</time>
      </trkpt>
      <trkpt lat="42.97551" lon="-0.15695">
        <ele>837.6</ele>
        <time>2022-06-08 13:50:23</time>
      </trkpt>
      <trkpt lat="42.97552" lon="-0.15687">
        <ele>837.6</ele>
        <time>2022-06-08 13:50:24</time>
      </trkpt>
      <trkpt lat="42.97555" lon="-0.15679">
        <ele>837.6</ele>
        <time>2022-06-08 13:50:25</time>
      </trkpt>
      <trkpt lat="42.97557" lon="-0.15671">
        <ele>837.6</ele>
        <time>2022-06-08 13:50:26</time>
      </trkpt>
      <trkpt lat="42.9756" lon="-0.15662">
        <ele>837.4</ele>
        <time>2022-06-08 13:50:27</time>
      </trkpt>
      <trkpt lat="42.97564" lon="-0.15652">
        <ele>837.2</ele>
        <time>2022-06-08 13:50:28</time>
      </trkpt>
      <trkpt lat="42.97566" lon="-0.15645">
        <ele>837</ele>
        <time>2022-06-08 13:50:29</time>
      </trkpt>
      <trkpt lat="42.97569" lon="-0.15637">
        <ele>837</ele>
        <time>2022-06-08 13:50:30</time>
      </trkpt>
      <trkpt lat="42.97573" lon="-0.15628">
        <ele>837</ele>
        <time>2022-06-08 13:50:31</time>
      </trkpt>
      <trkpt lat="42.97575" lon="-0.15619">
        <ele>836.8</ele>
        <time>2022-06-08 13:50:32</time>
      </trkpt>
      <trkpt lat="42.97578" lon="-0.1561">
        <ele>836.4</ele>
        <time>2022-06-08 13:50:33</time>
      </trkpt>
      <trkpt lat="42.97579" lon="-0.15599">
        <ele>836</ele>
        <time>2022-06-08 13:50:34</time>
      </trkpt>
      <trkpt lat="42.97581" lon="-0.15589">
        <ele>835.4</ele>
        <time>2022-06-08 13:50:35</time>
      </trkpt>
      <trkpt lat="42.97582" lon="-0.15578">
        <ele>835.2</ele>
        <time>2022-06-08 13:50:36</time>
      </trkpt>
      <trkpt lat="42.97583" lon="-0.15569">
        <ele>834.4</ele>
        <time>2022-06-08 13:50:37</time>
      </trkpt>
      <trkpt lat="42.97582" lon="-0.15561">
        <ele>834</ele>
        <time>2022-06-08 13:50:38</time>
      </trkpt>
      <trkpt lat="42.9758" lon="-0.15554">
        <ele>832.8</ele>
        <time>2022-06-08 13:50:39</time>
      </trkpt>
      <trkpt lat="42.97577" lon="-0.1555">
        <ele>832.4</ele>
        <time>2022-06-08 13:50:40</time>
      </trkpt>
      <trkpt lat="42.97572" lon="-0.1555">
        <ele>831.8</ele>
        <time>2022-06-08 13:50:41</time>
      </trkpt>
      <trkpt lat="42.97566" lon="-0.15553">
        <ele>831.4</ele>
        <time>2022-06-08 13:50:42</time>
      </trkpt>
      <trkpt lat="42.97559" lon="-0.15557">
        <ele>831.2</ele>
        <time>2022-06-08 13:50:43</time>
      </trkpt>
      <trkpt lat="42.97552" lon="-0.15561">
        <ele>830.8</ele>
        <time>2022-06-08 13:50:44</time>
      </trkpt>
      <trkpt lat="42.97544" lon="-0.15564">
        <ele>830.4</ele>
        <time>2022-06-08 13:50:45</time>
      </trkpt>
      <trkpt lat="42.97537" lon="-0.15566">
        <ele>829.6</ele>
        <time>2022-06-08 13:50:46</time>
      </trkpt>
      <trkpt lat="42.9753" lon="-0.15568">
        <ele>829.2</ele>
        <time>2022-06-08 13:50:47</time>
      </trkpt>
      <trkpt lat="42.97523" lon="-0.15569">
        <ele>828.8</ele>
        <time>2022-06-08 13:50:48</time>
      </trkpt>
      <trkpt lat="42.97515" lon="-0.15568">
        <ele>828.6</ele>
        <time>2022-06-08 13:50:49</time>
      </trkpt>
      <trkpt lat="42.97508" lon="-0.15566">
        <ele>828</ele>
        <time>2022-06-08 13:50:50</time>
      </trkpt>
      <trkpt lat="42.97502" lon="-0.15561">
        <ele>827.8</ele>
        <time>2022-06-08 13:50:51</time>
      </trkpt>
      <trkpt lat="42.97496" lon="-0.15555">
        <ele>827.4</ele>
        <time>2022-06-08 13:50:52</time>
      </trkpt>
      <trkpt lat="42.9749" lon="-0.15549">
        <ele>827</ele>
        <time>2022-06-08 13:50:53</time>
      </trkpt>
      <trkpt lat="42.97486" lon="-0.15543">
        <ele>826</ele>
        <time>2022-06-08 13:50:54</time>
      </trkpt>
      <trkpt lat="42.97481" lon="-0.15536">
        <ele>825.2</ele>
        <time>2022-06-08 13:50:55</time>
      </trkpt>
      <trkpt lat="42.97475" lon="-0.1553">
        <ele>824.6</ele>
        <time>2022-06-08 13:50:56</time>
      </trkpt>
      <trkpt lat="42.97468" lon="-0.15525">
        <ele>824</ele>
        <time>2022-06-08 13:50:57</time>
      </trkpt>
      <trkpt lat="42.9746" lon="-0.15521">
        <ele>823.6</ele>
        <time>2022-06-08 13:50:58</time>
      </trkpt>
      <trkpt lat="42.97452" lon="-0.15518">
        <ele>823.2</ele>
        <time>2022-06-08 13:50:59</time>
      </trkpt>
      <trkpt lat="42.97444" lon="-0.15517">
        <ele>823</ele>
        <time>2022-06-08 13:51:00</time>
      </trkpt>
      <trkpt lat="42.97436" lon="-0.15516">
        <ele>822.2</ele>
        <time>2022-06-08 13:51:01</time>
      </trkpt>
      <trkpt lat="42.97426" lon="-0.15514">
        <ele>821.8</ele>
        <time>2022-06-08 13:51:02</time>
      </trkpt>
      <trkpt lat="42.97417" lon="-0.15514">
        <ele>820.8</ele>
        <time>2022-06-08 13:51:03</time>
      </trkpt>
      <trkpt lat="42.97407" lon="-0.15513">
        <ele>820.4</ele>
        <time>2022-06-08 13:51:04</time>
      </trkpt>
      <trkpt lat="42.97397" lon="-0.15513">
        <ele>819.6</ele>
        <time>2022-06-08 13:51:05</time>
      </trkpt>
      <trkpt lat="42.97387" lon="-0.15513">
        <ele>819.4</ele>
        <time>2022-06-08 13:51:06</time>
      </trkpt>
      <trkpt lat="42.97377" lon="-0.15515">
        <ele>818.8</ele>
        <time>2022-06-08 13:51:07</time>
      </trkpt>
      <trkpt lat="42.97368" lon="-0.15519">
        <ele>818.4</ele>
        <time>2022-06-08 13:51:08</time>
      </trkpt>
      <trkpt lat="42.97358" lon="-0.15523">
        <ele>818.2</ele>
        <time>2022-06-08 13:51:09</time>
      </trkpt>
      <trkpt lat="42.97349" lon="-0.15526">
        <ele>817.8</ele>
        <time>2022-06-08 13:51:10</time>
      </trkpt>
      <trkpt lat="42.9734" lon="-0.15527">
        <ele>817.8</ele>
        <time>2022-06-08 13:51:11</time>
      </trkpt>
      <trkpt lat="42.97332" lon="-0.15528">
        <ele>816.6</ele>
        <time>2022-06-08 13:51:12</time>
      </trkpt>
      <trkpt lat="42.97324" lon="-0.1553">
        <ele>816.2</ele>
        <time>2022-06-08 13:51:13</time>
      </trkpt>
      <trkpt lat="42.97316" lon="-0.15534">
        <ele>815.2</ele>
        <time>2022-06-08 13:51:14</time>
      </trkpt>
      <trkpt lat="42.97307" lon="-0.15541">
        <ele>815</ele>
        <time>2022-06-08 13:51:15</time>
      </trkpt>
      <trkpt lat="42.973" lon="-0.15546">
        <ele>814.6</ele>
        <time>2022-06-08 13:51:16</time>
      </trkpt>
      <trkpt lat="42.9729" lon="-0.15552">
        <ele>814.2</ele>
        <time>2022-06-08 13:51:17</time>
      </trkpt>
      <trkpt lat="42.97282" lon="-0.15556">
        <ele>813.6</ele>
        <time>2022-06-08 13:51:18</time>
      </trkpt>
      <trkpt lat="42.97273" lon="-0.15559">
        <ele>813</ele>
        <time>2022-06-08 13:51:19</time>
      </trkpt>
      <trkpt lat="42.97263" lon="-0.15561">
        <ele>812.2</ele>
        <time>2022-06-08 13:51:20</time>
      </trkpt>
      <trkpt lat="42.97251" lon="-0.15563">
        <ele>811.4</ele>
        <time>2022-06-08 13:51:21</time>
      </trkpt>
      <trkpt lat="42.97242" lon="-0.15563">
        <ele>810.8</ele>
        <time>2022-06-08 13:51:22</time>
      </trkpt>
      <trkpt lat="42.97232" lon="-0.15562">
        <ele>810</ele>
        <time>2022-06-08 13:51:23</time>
      </trkpt>
      <trkpt lat="42.97224" lon="-0.1556">
        <ele>809.4</ele>
        <time>2022-06-08 13:51:24</time>
      </trkpt>
      <trkpt lat="42.97215" lon="-0.15557">
        <ele>808.6</ele>
        <time>2022-06-08 13:51:25</time>
      </trkpt>
      <trkpt lat="42.97206" lon="-0.15556">
        <ele>808.2</ele>
        <time>2022-06-08 13:51:26</time>
      </trkpt>
      <trkpt lat="42.97197" lon="-0.15554">
        <ele>807.4</ele>
        <time>2022-06-08 13:51:27</time>
      </trkpt>
      <trkpt lat="42.97187" lon="-0.15551">
        <ele>807</ele>
        <time>2022-06-08 13:51:28</time>
      </trkpt>
      <trkpt lat="42.97177" lon="-0.15548">
        <ele>806.8</ele>
        <time>2022-06-08 13:51:29</time>
      </trkpt>
      <trkpt lat="42.97168" lon="-0.15543">
        <ele>806.6</ele>
        <time>2022-06-08 13:51:30</time>
      </trkpt>
      <trkpt lat="42.97158" lon="-0.15537">
        <ele>805.6</ele>
        <time>2022-06-08 13:51:31</time>
      </trkpt>
      <trkpt lat="42.9715" lon="-0.15533">
        <ele>805.2</ele>
        <time>2022-06-08 13:51:32</time>
      </trkpt>
      <trkpt lat="42.97141" lon="-0.15528">
        <ele>804.6</ele>
        <time>2022-06-08 13:51:33</time>
      </trkpt>
      <trkpt lat="42.97134" lon="-0.15524">
        <ele>804.4</ele>
        <time>2022-06-08 13:51:34</time>
      </trkpt>
      <trkpt lat="42.97127" lon="-0.1552">
        <ele>804</ele>
        <time>2022-06-08 13:51:35</time>
      </trkpt>
      <trkpt lat="42.97122" lon="-0.15516">
        <ele>802.4</ele>
        <time>2022-06-08 13:51:36</time>
      </trkpt>
      <trkpt lat="42.97116" lon="-0.15512">
        <ele>802</ele>
        <time>2022-06-08 13:51:37</time>
      </trkpt>
      <trkpt lat="42.97113" lon="-0.15509">
        <ele>801.2</ele>
        <time>2022-06-08 13:51:38</time>
      </trkpt>
      <trkpt lat="42.97109" lon="-0.15505">
        <ele>801</ele>
        <time>2022-06-08 13:51:39</time>
      </trkpt>
      <trkpt lat="42.97104" lon="-0.15503">
        <ele>800.4</ele>
        <time>2022-06-08 13:51:40</time>
      </trkpt>
      <trkpt lat="42.97097" lon="-0.15501">
        <ele>800.2</ele>
        <time>2022-06-08 13:51:41</time>
      </trkpt>
      <trkpt lat="42.97091" lon="-0.15501">
        <ele>799.2</ele>
        <time>2022-06-08 13:51:42</time>
      </trkpt>
      <trkpt lat="42.97085" lon="-0.15501">
        <ele>799</ele>
        <time>2022-06-08 13:51:43</time>
      </trkpt>
      <trkpt lat="42.97081" lon="-0.15498">
        <ele>798.6</ele>
        <time>2022-06-08 13:51:44</time>
      </trkpt>
      <trkpt lat="42.97076" lon="-0.15493">
        <ele>798.6</ele>
        <time>2022-06-08 13:51:45</time>
      </trkpt>
      <trkpt lat="42.97072" lon="-0.15486">
        <ele>798.2</ele>
        <time>2022-06-08 13:51:46</time>
      </trkpt>
      <trkpt lat="42.97069" lon="-0.1548">
        <ele>798</ele>
        <time>2022-06-08 13:51:47</time>
      </trkpt>
      <trkpt lat="42.97067" lon="-0.15474">
        <ele>797.8</ele>
        <time>2022-06-08 13:51:48</time>
      </trkpt>
      <trkpt lat="42.97066" lon="-0.15467">
        <ele>797.6</ele>
        <time>2022-06-08 13:51:49</time>
      </trkpt>
      <trkpt lat="42.97066" lon="-0.15459">
        <ele>797.4</ele>
        <time>2022-06-08 13:51:50</time>
      </trkpt>
      <trkpt lat="42.97068" lon="-0.15453">
        <ele>797.4</ele>
        <time>2022-06-08 13:51:51</time>
      </trkpt>
      <trkpt lat="42.97071" lon="-0.15449">
        <ele>797.4</ele>
        <time>2022-06-08 13:51:52</time>
      </trkpt>
      <trkpt lat="42.97076" lon="-0.15445">
        <ele>797.2</ele>
        <time>2022-06-08 13:51:53</time>
      </trkpt>
      <trkpt lat="42.97081" lon="-0.15441">
        <ele>797</ele>
        <time>2022-06-08 13:51:54</time>
      </trkpt>
      <trkpt lat="42.97086" lon="-0.15439">
        <ele>796.8</ele>
        <time>2022-06-08 13:51:55</time>
      </trkpt>
      <trkpt lat="42.97094" lon="-0.15438">
        <ele>796.8</ele>
        <time>2022-06-08 13:51:56</time>
      </trkpt>
      <trkpt lat="42.97102" lon="-0.15438">
        <ele>796.2</ele>
        <time>2022-06-08 13:51:57</time>
      </trkpt>
      <trkpt lat="42.9711" lon="-0.15439">
        <ele>796.2</ele>
        <time>2022-06-08 13:51:58</time>
      </trkpt>
      <trkpt lat="42.97117" lon="-0.15435">
        <ele>795.6</ele>
        <time>2022-06-08 13:51:59</time>
      </trkpt>
      <trkpt lat="42.97125" lon="-0.15429">
        <ele>795</ele>
        <time>2022-06-08 13:52:00</time>
      </trkpt>
      <trkpt lat="42.9713" lon="-0.15422">
        <ele>794</ele>
        <time>2022-06-08 13:52:01</time>
      </trkpt>
      <trkpt lat="42.97136" lon="-0.15414">
        <ele>792.8</ele>
        <time>2022-06-08 13:52:02</time>
      </trkpt>
      <trkpt lat="42.97142" lon="-0.15406">
        <ele>792.2</ele>
        <time>2022-06-08 13:52:03</time>
      </trkpt>
      <trkpt lat="42.97148" lon="-0.15396">
        <ele>791.2</ele>
        <time>2022-06-08 13:52:04</time>
      </trkpt>
      <trkpt lat="42.97155" lon="-0.15384">
        <ele>790.6</ele>
        <time>2022-06-08 13:52:05</time>
      </trkpt>
      <trkpt lat="42.97162" lon="-0.15372">
        <ele>789.8</ele>
        <time>2022-06-08 13:52:06</time>
      </trkpt>
      <trkpt lat="42.97169" lon="-0.15358">
        <ele>789.6</ele>
        <time>2022-06-08 13:52:07</time>
      </trkpt>
      <trkpt lat="42.97177" lon="-0.15348">
        <ele>789</ele>
        <time>2022-06-08 13:52:08</time>
      </trkpt>
      <trkpt lat="42.97186" lon="-0.15336">
        <ele>788.4</ele>
        <time>2022-06-08 13:52:09</time>
      </trkpt>
      <trkpt lat="42.97197" lon="-0.15328">
        <ele>786.6</ele>
        <time>2022-06-08 13:52:10</time>
      </trkpt>
      <trkpt lat="42.97209" lon="-0.15324">
        <ele>785.8</ele>
        <time>2022-06-08 13:52:11</time>
      </trkpt>
      <trkpt lat="42.97221" lon="-0.1532">
        <ele>784.6</ele>
        <time>2022-06-08 13:52:12</time>
      </trkpt>
      <trkpt lat="42.97235" lon="-0.15317">
        <ele>783.6</ele>
        <time>2022-06-08 13:52:13</time>
      </trkpt>
      <trkpt lat="42.97248" lon="-0.15314">
        <ele>782</ele>
        <time>2022-06-08 13:52:14</time>
      </trkpt>
      <trkpt lat="42.97261" lon="-0.1531">
        <ele>780.4</ele>
        <time>2022-06-08 13:52:15</time>
      </trkpt>
      <trkpt lat="42.97276" lon="-0.15304">
        <ele>779.4</ele>
        <time>2022-06-08 13:52:16</time>
      </trkpt>
      <trkpt lat="42.97285" lon="-0.15299">
        <ele>778.4</ele>
        <time>2022-06-08 13:52:17</time>
      </trkpt>
      <trkpt lat="42.97298" lon="-0.15292">
        <ele>778</ele>
        <time>2022-06-08 13:52:18</time>
      </trkpt>
      <trkpt lat="42.97309" lon="-0.15285">
        <ele>777.4</ele>
        <time>2022-06-08 13:52:19</time>
      </trkpt>
      <trkpt lat="42.97321" lon="-0.15277">
        <ele>777</ele>
        <time>2022-06-08 13:52:20</time>
      </trkpt>
      <trkpt lat="42.97333" lon="-0.15268">
        <ele>776.2</ele>
        <time>2022-06-08 13:52:21</time>
      </trkpt>
      <trkpt lat="42.97345" lon="-0.1526">
        <ele>775.6</ele>
        <time>2022-06-08 13:52:22</time>
      </trkpt>
      <trkpt lat="42.97358" lon="-0.15254">
        <ele>773.4</ele>
        <time>2022-06-08 13:52:23</time>
      </trkpt>
      <trkpt lat="42.97371" lon="-0.15249">
        <ele>773</ele>
        <time>2022-06-08 13:52:24</time>
      </trkpt>
      <trkpt lat="42.97383" lon="-0.15244">
        <ele>771.6</ele>
        <time>2022-06-08 13:52:25</time>
      </trkpt>
      <trkpt lat="42.97396" lon="-0.1524">
        <ele>770.6</ele>
        <time>2022-06-08 13:52:26</time>
      </trkpt>
      <trkpt lat="42.97408" lon="-0.15235">
        <ele>769.4</ele>
        <time>2022-06-08 13:52:27</time>
      </trkpt>
      <trkpt lat="42.97421" lon="-0.1523">
        <ele>768.4</ele>
        <time>2022-06-08 13:52:28</time>
      </trkpt>
      <trkpt lat="42.97433" lon="-0.15226">
        <ele>768</ele>
        <time>2022-06-08 13:52:29</time>
      </trkpt>
      <trkpt lat="42.97444" lon="-0.15222">
        <ele>767.2</ele>
        <time>2022-06-08 13:52:30</time>
      </trkpt>
      <trkpt lat="42.97456" lon="-0.15219">
        <ele>766</ele>
        <time>2022-06-08 13:52:31</time>
      </trkpt>
      <trkpt lat="42.97468" lon="-0.15216">
        <ele>764.4</ele>
        <time>2022-06-08 13:52:32</time>
      </trkpt>
      <trkpt lat="42.9748" lon="-0.15214">
        <ele>764</ele>
        <time>2022-06-08 13:52:33</time>
      </trkpt>
      <trkpt lat="42.97492" lon="-0.15212">
        <ele>763</ele>
        <time>2022-06-08 13:52:34</time>
      </trkpt>
      <trkpt lat="42.97504" lon="-0.15207">
        <ele>762.6</ele>
        <time>2022-06-08 13:52:35</time>
      </trkpt>
      <trkpt lat="42.97515" lon="-0.15202">
        <ele>760.6</ele>
        <time>2022-06-08 13:52:36</time>
      </trkpt>
      <trkpt lat="42.97527" lon="-0.15196">
        <ele>759.4</ele>
        <time>2022-06-08 13:52:37</time>
      </trkpt>
      <trkpt lat="42.97539" lon="-0.15192">
        <ele>758</ele>
        <time>2022-06-08 13:52:38</time>
      </trkpt>
      <trkpt lat="42.97552" lon="-0.15189">
        <ele>757.2</ele>
        <time>2022-06-08 13:52:39</time>
      </trkpt>
      <trkpt lat="42.97565" lon="-0.15186">
        <ele>756</ele>
        <time>2022-06-08 13:52:40</time>
      </trkpt>
      <trkpt lat="42.97577" lon="-0.15181">
        <ele>754.6</ele>
        <time>2022-06-08 13:52:41</time>
      </trkpt>
      <trkpt lat="42.97589" lon="-0.15176">
        <ele>753.8</ele>
        <time>2022-06-08 13:52:42</time>
      </trkpt>
      <trkpt lat="42.97601" lon="-0.15169">
        <ele>751.8</ele>
        <time>2022-06-08 13:52:43</time>
      </trkpt>
      <trkpt lat="42.97612" lon="-0.15162">
        <ele>750.4</ele>
        <time>2022-06-08 13:52:44</time>
      </trkpt>
      <trkpt lat="42.97622" lon="-0.15155">
        <ele>749.2</ele>
        <time>2022-06-08 13:52:45</time>
      </trkpt>
      <trkpt lat="42.97633" lon="-0.15148">
        <ele>748.6</ele>
        <time>2022-06-08 13:52:46</time>
      </trkpt>
      <trkpt lat="42.97643" lon="-0.15141">
        <ele>747.6</ele>
        <time>2022-06-08 13:52:47</time>
      </trkpt>
      <trkpt lat="42.97653" lon="-0.15135">
        <ele>747</ele>
        <time>2022-06-08 13:52:48</time>
      </trkpt>
      <trkpt lat="42.97663" lon="-0.1513">
        <ele>745.8</ele>
        <time>2022-06-08 13:52:49</time>
      </trkpt>
      <trkpt lat="42.97672" lon="-0.15123">
        <ele>745.2</ele>
        <time>2022-06-08 13:52:50</time>
      </trkpt>
      <trkpt lat="42.9768" lon="-0.15114">
        <ele>744.4</ele>
        <time>2022-06-08 13:52:51</time>
      </trkpt>
      <trkpt lat="42.97688" lon="-0.15103">
        <ele>743.4</ele>
        <time>2022-06-08 13:52:52</time>
      </trkpt>
      <trkpt lat="42.97694" lon="-0.15091">
        <ele>741.6</ele>
        <time>2022-06-08 13:52:53</time>
      </trkpt>
      <trkpt lat="42.97701" lon="-0.15079">
        <ele>741.2</ele>
        <time>2022-06-08 13:52:54</time>
      </trkpt>
      <trkpt lat="42.97709" lon="-0.15068">
        <ele>740</ele>
        <time>2022-06-08 13:52:55</time>
      </trkpt>
      <trkpt lat="42.97716" lon="-0.15058">
        <ele>738.6</ele>
        <time>2022-06-08 13:52:56</time>
      </trkpt>
      <trkpt lat="42.97725" lon="-0.15049">
        <ele>738.2</ele>
        <time>2022-06-08 13:52:57</time>
      </trkpt>
      <trkpt lat="42.97736" lon="-0.15042">
        <ele>736.6</ele>
        <time>2022-06-08 13:52:58</time>
      </trkpt>
      <trkpt lat="42.97748" lon="-0.15037">
        <ele>736</ele>
        <time>2022-06-08 13:52:59</time>
      </trkpt>
      <trkpt lat="42.97759" lon="-0.15032">
        <ele>735.4</ele>
        <time>2022-06-08 13:53:00</time>
      </trkpt>
      <trkpt lat="42.97771" lon="-0.15026">
        <ele>734.8</ele>
        <time>2022-06-08 13:53:01</time>
      </trkpt>
      <trkpt lat="42.97782" lon="-0.15018">
        <ele>733.4</ele>
        <time>2022-06-08 13:53:02</time>
      </trkpt>
      <trkpt lat="42.97792" lon="-0.15008">
        <ele>733</ele>
        <time>2022-06-08 13:53:03</time>
      </trkpt>
      <trkpt lat="42.97801" lon="-0.14997">
        <ele>731.4</ele>
        <time>2022-06-08 13:53:04</time>
      </trkpt>
      <trkpt lat="42.97808" lon="-0.14984">
        <ele>730.2</ele>
        <time>2022-06-08 13:53:05</time>
      </trkpt>
      <trkpt lat="42.97815" lon="-0.1497">
        <ele>728.6</ele>
        <time>2022-06-08 13:53:06</time>
      </trkpt>
      <trkpt lat="42.97822" lon="-0.14955">
        <ele>728.2</ele>
        <time>2022-06-08 13:53:07</time>
      </trkpt>
      <trkpt lat="42.97829" lon="-0.14941">
        <ele>727</ele>
        <time>2022-06-08 13:53:08</time>
      </trkpt>
      <trkpt lat="42.97836" lon="-0.14928">
        <ele>726.4</ele>
        <time>2022-06-08 13:53:09</time>
      </trkpt>
      <trkpt lat="42.97843" lon="-0.14916">
        <ele>726</ele>
        <time>2022-06-08 13:53:10</time>
      </trkpt>
      <trkpt lat="42.9785" lon="-0.14903">
        <ele>725.6</ele>
        <time>2022-06-08 13:53:11</time>
      </trkpt>
      <trkpt lat="42.97857" lon="-0.14892">
        <ele>725</ele>
        <time>2022-06-08 13:53:12</time>
      </trkpt>
      <trkpt lat="42.97864" lon="-0.14881">
        <ele>724.2</ele>
        <time>2022-06-08 13:53:13</time>
      </trkpt>
      <trkpt lat="42.9787" lon="-0.14872">
        <ele>723.8</ele>
        <time>2022-06-08 13:53:14</time>
      </trkpt>
      <trkpt lat="42.97877" lon="-0.14863">
        <ele>722.6</ele>
        <time>2022-06-08 13:53:15</time>
      </trkpt>
      <trkpt lat="42.97884" lon="-0.14854">
        <ele>722</ele>
        <time>2022-06-08 13:53:16</time>
      </trkpt>
      <trkpt lat="42.97892" lon="-0.14846">
        <ele>721</ele>
        <time>2022-06-08 13:53:17</time>
      </trkpt>
      <trkpt lat="42.979" lon="-0.14838">
        <ele>720.4</ele>
        <time>2022-06-08 13:53:18</time>
      </trkpt>
      <trkpt lat="42.9791" lon="-0.14829">
        <ele>719.8</ele>
        <time>2022-06-08 13:53:19</time>
      </trkpt>
      <trkpt lat="42.9792" lon="-0.1482">
        <ele>719.4</ele>
        <time>2022-06-08 13:53:20</time>
      </trkpt>
      <trkpt lat="42.9793" lon="-0.14809">
        <ele>718.8</ele>
        <time>2022-06-08 13:53:21</time>
      </trkpt>
      <trkpt lat="42.97939" lon="-0.14797">
        <ele>717.2</ele>
        <time>2022-06-08 13:53:22</time>
      </trkpt>
      <trkpt lat="42.97946" lon="-0.14786">
        <ele>716.6</ele>
        <time>2022-06-08 13:53:23</time>
      </trkpt>
      <trkpt lat="42.9795" lon="-0.14773">
        <ele>715.6</ele>
        <time>2022-06-08 13:53:24</time>
      </trkpt>
      <trkpt lat="42.97953" lon="-0.1476">
        <ele>715</ele>
        <time>2022-06-08 13:53:25</time>
      </trkpt>
      <trkpt lat="42.97956" lon="-0.14745">
        <ele>713.6</ele>
        <time>2022-06-08 13:53:26</time>
      </trkpt>
      <trkpt lat="42.97961" lon="-0.1473">
        <ele>713</ele>
        <time>2022-06-08 13:53:27</time>
      </trkpt>
      <trkpt lat="42.97966" lon="-0.14716">
        <ele>711.4</ele>
        <time>2022-06-08 13:53:28</time>
      </trkpt>
      <trkpt lat="42.97972" lon="-0.14702">
        <ele>710.6</ele>
        <time>2022-06-08 13:53:29</time>
      </trkpt>
      <trkpt lat="42.97978" lon="-0.1469">
        <ele>709.4</ele>
        <time>2022-06-08 13:53:30</time>
      </trkpt>
      <trkpt lat="42.97984" lon="-0.14677">
        <ele>709</ele>
        <time>2022-06-08 13:53:31</time>
      </trkpt>
      <trkpt lat="42.97989" lon="-0.14663">
        <ele>708.2</ele>
        <time>2022-06-08 13:53:32</time>
      </trkpt>
      <trkpt lat="42.97993" lon="-0.1465">
        <ele>708</ele>
        <time>2022-06-08 13:53:33</time>
      </trkpt>
      <trkpt lat="42.97997" lon="-0.14635">
        <ele>707.2</ele>
        <time>2022-06-08 13:53:34</time>
      </trkpt>
      <trkpt lat="42.98" lon="-0.1462">
        <ele>705.8</ele>
        <time>2022-06-08 13:53:35</time>
      </trkpt>
      <trkpt lat="42.98005" lon="-0.14604">
        <ele>705.2</ele>
        <time>2022-06-08 13:53:36</time>
      </trkpt>
      <trkpt lat="42.98013" lon="-0.14589">
        <ele>704.2</ele>
        <time>2022-06-08 13:53:37</time>
      </trkpt>
      <trkpt lat="42.98019" lon="-0.14574">
        <ele>703.4</ele>
        <time>2022-06-08 13:53:38</time>
      </trkpt>
      <trkpt lat="42.98025" lon="-0.14559">
        <ele>702.2</ele>
        <time>2022-06-08 13:53:39</time>
      </trkpt>
      <trkpt lat="42.9803" lon="-0.14545">
        <ele>701.8</ele>
        <time>2022-06-08 13:53:40</time>
      </trkpt>
      <trkpt lat="42.98035" lon="-0.1453">
        <ele>701.2</ele>
        <time>2022-06-08 13:53:41</time>
      </trkpt>
      <trkpt lat="42.98039" lon="-0.14514">
        <ele>701</ele>
        <time>2022-06-08 13:53:42</time>
      </trkpt>
      <trkpt lat="42.9804" lon="-0.14504">
        <ele>700.8</ele>
        <time>2022-06-08 13:53:43</time>
      </trkpt>
      <trkpt lat="42.98038" lon="-0.14492">
        <ele>700.6</ele>
        <time>2022-06-08 13:53:44</time>
      </trkpt>
      <trkpt lat="42.9804" lon="-0.14478">
        <ele>700.6</ele>
        <time>2022-06-08 13:53:45</time>
      </trkpt>
      <trkpt lat="42.98041" lon="-0.14465">
        <ele>700.6</ele>
        <time>2022-06-08 13:53:46</time>
      </trkpt>
      <trkpt lat="42.98044" lon="-0.14452">
        <ele>700.4</ele>
        <time>2022-06-08 13:53:47</time>
      </trkpt>
      <trkpt lat="42.98046" lon="-0.1444">
        <ele>700.4</ele>
        <time>2022-06-08 13:53:48</time>
      </trkpt>
      <trkpt lat="42.98049" lon="-0.14426">
        <ele>700.4</ele>
        <time>2022-06-08 13:53:49</time>
      </trkpt>
      <trkpt lat="42.98052" lon="-0.14418">
        <ele>700.6</ele>
        <time>2022-06-08 13:53:50</time>
      </trkpt>
      <trkpt lat="42.98056" lon="-0.14408">
        <ele>700.4</ele>
        <time>2022-06-08 13:53:51</time>
      </trkpt>
      <trkpt lat="42.98061" lon="-0.14398">
        <ele>700.2</ele>
        <time>2022-06-08 13:53:52</time>
      </trkpt>
      <trkpt lat="42.98067" lon="-0.14388">
        <ele>700.2</ele>
        <time>2022-06-08 13:53:53</time>
      </trkpt>
      <trkpt lat="42.98073" lon="-0.14379">
        <ele>700</ele>
        <time>2022-06-08 13:53:54</time>
      </trkpt>
      <trkpt lat="42.98078" lon="-0.14371">
        <ele>700</ele>
        <time>2022-06-08 13:53:55</time>
      </trkpt>
      <trkpt lat="42.98084" lon="-0.14365">
        <ele>699.8</ele>
        <time>2022-06-08 13:53:56</time>
      </trkpt>
      <trkpt lat="42.98091" lon="-0.14361">
        <ele>699.8</ele>
        <time>2022-06-08 13:53:57</time>
      </trkpt>
      <trkpt lat="42.98098" lon="-0.1436">
        <ele>699.6</ele>
        <time>2022-06-08 13:53:58</time>
      </trkpt>
      <trkpt lat="42.98106" lon="-0.14362">
        <ele>699.6</ele>
        <time>2022-06-08 13:53:59</time>
      </trkpt>
      <trkpt lat="42.98114" lon="-0.14361">
        <ele>699.4</ele>
        <time>2022-06-08 13:54:00</time>
      </trkpt>
      <trkpt lat="42.9812" lon="-0.14358">
        <ele>699.2</ele>
        <time>2022-06-08 13:54:01</time>
      </trkpt>
      <trkpt lat="42.98125" lon="-0.14351">
        <ele>699</ele>
        <time>2022-06-08 13:54:02</time>
      </trkpt>
      <trkpt lat="42.98129" lon="-0.14343">
        <ele>698.8</ele>
        <time>2022-06-08 13:54:03</time>
      </trkpt>
      <trkpt lat="42.98134" lon="-0.14333">
        <ele>698.8</ele>
        <time>2022-06-08 13:54:04</time>
      </trkpt>
      <trkpt lat="42.98137" lon="-0.14323">
        <ele>698.8</ele>
        <time>2022-06-08 13:54:05</time>
      </trkpt>
      <trkpt lat="42.98141" lon="-0.14312">
        <ele>698.6</ele>
        <time>2022-06-08 13:54:06</time>
      </trkpt>
      <trkpt lat="42.98143" lon="-0.14301">
        <ele>698.4</ele>
        <time>2022-06-08 13:54:07</time>
      </trkpt>
      <trkpt lat="42.98144" lon="-0.14289">
        <ele>698.4</ele>
        <time>2022-06-08 13:54:08</time>
      </trkpt>
      <trkpt lat="42.98144" lon="-0.14278">
        <ele>698.4</ele>
        <time>2022-06-08 13:54:09</time>
      </trkpt>
      <trkpt lat="42.98142" lon="-0.14267">
        <ele>698.2</ele>
        <time>2022-06-08 13:54:10</time>
      </trkpt>
      <trkpt lat="42.98141" lon="-0.14256">
        <ele>698.2</ele>
        <time>2022-06-08 13:54:11</time>
      </trkpt>
      <trkpt lat="42.9814" lon="-0.14244">
        <ele>698.2</ele>
        <time>2022-06-08 13:54:12</time>
      </trkpt>
      <trkpt lat="42.9814" lon="-0.14233">
        <ele>697.8</ele>
        <time>2022-06-08 13:54:13</time>
      </trkpt>
      <trkpt lat="42.9814" lon="-0.14222">
        <ele>697.6</ele>
        <time>2022-06-08 13:54:14</time>
      </trkpt>
      <trkpt lat="42.98139" lon="-0.14211">
        <ele>697</ele>
        <time>2022-06-08 13:54:15</time>
      </trkpt>
      <trkpt lat="42.98138" lon="-0.14199">
        <ele>697</ele>
        <time>2022-06-08 13:54:16</time>
      </trkpt>
      <trkpt lat="42.98137" lon="-0.14187">
        <ele>697</ele>
        <time>2022-06-08 13:54:17</time>
      </trkpt>
      <trkpt lat="42.98137" lon="-0.14176">
        <ele>696.8</ele>
        <time>2022-06-08 13:54:18</time>
      </trkpt>
      <trkpt lat="42.98138" lon="-0.14165">
        <ele>696.8</ele>
        <time>2022-06-08 13:54:19</time>
      </trkpt>
      <trkpt lat="42.9814" lon="-0.14154">
        <ele>697</ele>
        <time>2022-06-08 13:54:20</time>
      </trkpt>
      <trkpt lat="42.98141" lon="-0.14143">
        <ele>697.2</ele>
        <time>2022-06-08 13:54:21</time>
      </trkpt>
      <trkpt lat="42.98141" lon="-0.14132">
        <ele>697.2</ele>
        <time>2022-06-08 13:54:22</time>
      </trkpt>
      <trkpt lat="42.98141" lon="-0.14121">
        <ele>697.2</ele>
        <time>2022-06-08 13:54:23</time>
      </trkpt>
      <trkpt lat="42.98141" lon="-0.1411">
        <ele>697.2</ele>
        <time>2022-06-08 13:54:24</time>
      </trkpt>
      <trkpt lat="42.9814" lon="-0.141">
        <ele>697.2</ele>
        <time>2022-06-08 13:54:25</time>
      </trkpt>
      <trkpt lat="42.9814" lon="-0.14089">
        <ele>697.2</ele>
        <time>2022-06-08 13:54:26</time>
      </trkpt>
      <trkpt lat="42.9814" lon="-0.14078">
        <ele>697.2</ele>
        <time>2022-06-08 13:54:27</time>
      </trkpt>
      <trkpt lat="42.9814" lon="-0.14067">
        <ele>697.2</ele>
        <time>2022-06-08 13:54:28</time>
      </trkpt>
      <trkpt lat="42.9814" lon="-0.14056">
        <ele>697</ele>
        <time>2022-06-08 13:54:29</time>
      </trkpt>
      <trkpt lat="42.9814" lon="-0.14044">
        <ele>696.8</ele>
        <time>2022-06-08 13:54:30</time>
      </trkpt>
      <trkpt lat="42.98145" lon="-0.14033">
        <ele>697</ele>
        <time>2022-06-08 13:54:31</time>
      </trkpt>
      <trkpt lat="42.98146" lon="-0.14022">
        <ele>697</ele>
        <time>2022-06-08 13:54:32</time>
      </trkpt>
      <trkpt lat="42.98147" lon="-0.14011">
        <ele>697</ele>
        <time>2022-06-08 13:54:33</time>
      </trkpt>
      <trkpt lat="42.98146" lon="-0.14002">
        <ele>697</ele>
        <time>2022-06-08 13:54:34</time>
      </trkpt>
      <trkpt lat="42.98144" lon="-0.13992">
        <ele>697</ele>
        <time>2022-06-08 13:54:35</time>
      </trkpt>
      <trkpt lat="42.98141" lon="-0.13983">
        <ele>697.2</ele>
        <time>2022-06-08 13:54:36</time>
      </trkpt>
      <trkpt lat="42.98138" lon="-0.13975">
        <ele>697.2</ele>
        <time>2022-06-08 13:54:37</time>
      </trkpt>
      <trkpt lat="42.98137" lon="-0.13967">
        <ele>697.4</ele>
        <time>2022-06-08 13:54:38</time>
      </trkpt>
      <trkpt lat="42.98136" lon="-0.1396">
        <ele>698.2</ele>
        <time>2022-06-08 13:54:39</time>
      </trkpt>
      <trkpt lat="42.98136" lon="-0.13953">
        <ele>698.4</ele>
        <time>2022-06-08 13:54:40</time>
      </trkpt>
      <trkpt lat="42.98136" lon="-0.13946">
        <ele>698.6</ele>
        <time>2022-06-08 13:54:41</time>
      </trkpt>
      <trkpt lat="42.98135" lon="-0.1394">
        <ele>699.2</ele>
        <time>2022-06-08 13:54:42</time>
      </trkpt>
      <trkpt lat="42.98136" lon="-0.13933">
        <ele>699.4</ele>
        <time>2022-06-08 13:54:43</time>
      </trkpt>
      <trkpt lat="42.98136" lon="-0.13927">
        <ele>699.8</ele>
        <time>2022-06-08 13:54:44</time>
      </trkpt>
      <trkpt lat="42.98137" lon="-0.13921">
        <ele>700.4</ele>
        <time>2022-06-08 13:54:45</time>
      </trkpt>
      <trkpt lat="42.98138" lon="-0.13916">
        <ele>701</ele>
        <time>2022-06-08 13:54:46</time>
      </trkpt>
      <trkpt lat="42.98138" lon="-0.13911">
        <ele>701.2</ele>
        <time>2022-06-08 13:54:47</time>
      </trkpt>
      <trkpt lat="42.98139" lon="-0.13905">
        <ele>701.6</ele>
        <time>2022-06-08 13:54:48</time>
      </trkpt>
      <trkpt lat="42.98139" lon="-0.139">
        <ele>701.8</ele>
        <time>2022-06-08 13:54:49</time>
      </trkpt>
      <trkpt lat="42.98139" lon="-0.13893">
        <ele>702.2</ele>
        <time>2022-06-08 13:54:50</time>
      </trkpt>
      <trkpt lat="42.9814" lon="-0.13888">
        <ele>702.4</ele>
        <time>2022-06-08 13:54:51</time>
      </trkpt>
      <trkpt lat="42.9814" lon="-0.13882">
        <ele>702.6</ele>
        <time>2022-06-08 13:54:52</time>
      </trkpt>
      <trkpt lat="42.98141" lon="-0.13875">
        <ele>702.6</ele>
        <time>2022-06-08 13:54:53</time>
      </trkpt>
      <trkpt lat="42.9814" lon="-0.13868">
        <ele>702.8</ele>
        <time>2022-06-08 13:54:54</time>
      </trkpt>
      <trkpt lat="42.9814" lon="-0.13862">
        <ele>702.8</ele>
        <time>2022-06-08 13:54:55</time>
      </trkpt>
      <trkpt lat="42.98139" lon="-0.13857">
        <ele>703.2</ele>
        <time>2022-06-08 13:54:56</time>
      </trkpt>
      <trkpt lat="42.98139" lon="-0.13851">
        <ele>703.2</ele>
        <time>2022-06-08 13:54:57</time>
      </trkpt>
      <trkpt lat="42.98138" lon="-0.13846">
        <ele>703.4</ele>
        <time>2022-06-08 13:54:58</time>
      </trkpt>
      <trkpt lat="42.98137" lon="-0.1384">
        <ele>703.4</ele>
        <time>2022-06-08 13:54:59</time>
      </trkpt>
      <trkpt lat="42.98137" lon="-0.13834">
        <ele>703.6</ele>
        <time>2022-06-08 13:55:00</time>
      </trkpt>
      <trkpt lat="42.98136" lon="-0.13829">
        <ele>704</ele>
        <time>2022-06-08 13:55:01</time>
      </trkpt>
      <trkpt lat="42.98134" lon="-0.13823">
        <ele>704.2</ele>
        <time>2022-06-08 13:55:02</time>
      </trkpt>
      <trkpt lat="42.98133" lon="-0.13818">
        <ele>704.8</ele>
        <time>2022-06-08 13:55:03</time>
      </trkpt>
      <trkpt lat="42.98131" lon="-0.1381">
        <ele>705</ele>
        <time>2022-06-08 13:55:04</time>
      </trkpt>
      <trkpt lat="42.9813" lon="-0.13804">
        <ele>705.2</ele>
        <time>2022-06-08 13:55:05</time>
      </trkpt>
      <trkpt lat="42.9813" lon="-0.138">
        <ele>705.4</ele>
        <time>2022-06-08 13:55:06</time>
      </trkpt>
      <trkpt lat="42.98129" lon="-0.13794">
        <ele>705.8</ele>
        <time>2022-06-08 13:55:07</time>
      </trkpt>
      <trkpt lat="42.98129" lon="-0.13787">
        <ele>705.8</ele>
        <time>2022-06-08 13:55:08</time>
      </trkpt>
      <trkpt lat="42.98129" lon="-0.13782">
        <ele>706</ele>
        <time>2022-06-08 13:55:09</time>
      </trkpt>
      <trkpt lat="42.98128" lon="-0.13777">
        <ele>706.2</ele>
        <time>2022-06-08 13:55:10</time>
      </trkpt>
      <trkpt lat="42.98129" lon="-0.13771">
        <ele>706.2</ele>
        <time>2022-06-08 13:55:11</time>
      </trkpt>
      <trkpt lat="42.9813" lon="-0.13765">
        <ele>706.2</ele>
        <time>2022-06-08 13:55:12</time>
      </trkpt>
      <trkpt lat="42.98132" lon="-0.13758">
        <ele>706.4</ele>
        <time>2022-06-08 13:55:13</time>
      </trkpt>
      <trkpt lat="42.98135" lon="-0.13752">
        <ele>706.6</ele>
        <time>2022-06-08 13:55:14</time>
      </trkpt>
      <trkpt lat="42.98136" lon="-0.13747">
        <ele>706.6</ele>
        <time>2022-06-08 13:55:15</time>
      </trkpt>
      <trkpt lat="42.98138" lon="-0.13742">
        <ele>706.8</ele>
        <time>2022-06-08 13:55:16</time>
      </trkpt>
      <trkpt lat="42.98139" lon="-0.13736">
        <ele>707.2</ele>
        <time>2022-06-08 13:55:17</time>
      </trkpt>
      <trkpt lat="42.98141" lon="-0.1373">
        <ele>707.6</ele>
        <time>2022-06-08 13:55:18</time>
      </trkpt>
      <trkpt lat="42.98143" lon="-0.13723">
        <ele>707.8</ele>
        <time>2022-06-08 13:55:19</time>
      </trkpt>
      <trkpt lat="42.98144" lon="-0.13717">
        <ele>708</ele>
        <time>2022-06-08 13:55:20</time>
      </trkpt>
      <trkpt lat="42.98145" lon="-0.13712">
        <ele>708</ele>
        <time>2022-06-08 13:55:21</time>
      </trkpt>
      <trkpt lat="42.98146" lon="-0.13707">
        <ele>708.4</ele>
        <time>2022-06-08 13:55:22</time>
      </trkpt>
      <trkpt lat="42.98148" lon="-0.13701">
        <ele>708.4</ele>
        <time>2022-06-08 13:55:23</time>
      </trkpt>
      <trkpt lat="42.98149" lon="-0.13695">
        <ele>708.6</ele>
        <time>2022-06-08 13:55:24</time>
      </trkpt>
      <trkpt lat="42.9815" lon="-0.13689">
        <ele>708.8</ele>
        <time>2022-06-08 13:55:25</time>
      </trkpt>
      <trkpt lat="42.98151" lon="-0.13684">
        <ele>709</ele>
        <time>2022-06-08 13:55:26</time>
      </trkpt>
      <trkpt lat="42.98151" lon="-0.13678">
        <ele>709.4</ele>
        <time>2022-06-08 13:55:27</time>
      </trkpt>
      <trkpt lat="42.98152" lon="-0.13672">
        <ele>709.6</ele>
        <time>2022-06-08 13:55:28</time>
      </trkpt>
      <trkpt lat="42.98151" lon="-0.13667">
        <ele>710</ele>
        <time>2022-06-08 13:55:29</time>
      </trkpt>
      <trkpt lat="42.9815" lon="-0.13661">
        <ele>710.2</ele>
        <time>2022-06-08 13:55:30</time>
      </trkpt>
      <trkpt lat="42.98151" lon="-0.13655">
        <ele>710.6</ele>
        <time>2022-06-08 13:55:31</time>
      </trkpt>
      <trkpt lat="42.98151" lon="-0.13649">
        <ele>710.6</ele>
        <time>2022-06-08 13:55:32</time>
      </trkpt>
      <trkpt lat="42.98152" lon="-0.13644">
        <ele>710.8</ele>
        <time>2022-06-08 13:55:33</time>
      </trkpt>
      <trkpt lat="42.98152" lon="-0.1364">
        <ele>710.8</ele>
        <time>2022-06-08 13:55:34</time>
      </trkpt>
      <trkpt lat="42.98154" lon="-0.13635">
        <ele>711.2</ele>
        <time>2022-06-08 13:55:35</time>
      </trkpt>
      <trkpt lat="42.98156" lon="-0.13632">
        <ele>711.4</ele>
        <time>2022-06-08 13:55:36</time>
      </trkpt>
      <trkpt lat="42.98158" lon="-0.13628">
        <ele>711.6</ele>
        <time>2022-06-08 13:55:37</time>
      </trkpt>
      <trkpt lat="42.9816" lon="-0.13625">
        <ele>711.8</ele>
        <time>2022-06-08 13:55:38</time>
      </trkpt>
      <trkpt lat="42.98165" lon="-0.1362">
        <ele>712</ele>
        <time>2022-06-08 13:55:39</time>
      </trkpt>
      <trkpt lat="42.98168" lon="-0.13616">
        <ele>712.2</ele>
        <time>2022-06-08 13:55:40</time>
      </trkpt>
      <trkpt lat="42.98171" lon="-0.13612">
        <ele>712.2</ele>
        <time>2022-06-08 13:55:41</time>
      </trkpt>
      <trkpt lat="42.98174" lon="-0.13607">
        <ele>712.4</ele>
        <time>2022-06-08 13:55:42</time>
      </trkpt>
      <trkpt lat="42.98178" lon="-0.13602">
        <ele>712.6</ele>
        <time>2022-06-08 13:55:43</time>
      </trkpt>
      <trkpt lat="42.98182" lon="-0.13598">
        <ele>712.8</ele>
        <time>2022-06-08 13:55:44</time>
      </trkpt>
      <trkpt lat="42.98186" lon="-0.13593">
        <ele>713</ele>
        <time>2022-06-08 13:55:45</time>
      </trkpt>
      <trkpt lat="42.9819" lon="-0.13587">
        <ele>713.2</ele>
        <time>2022-06-08 13:55:46</time>
      </trkpt>
      <trkpt lat="42.98193" lon="-0.13582">
        <ele>713.2</ele>
        <time>2022-06-08 13:55:47</time>
      </trkpt>
      <trkpt lat="42.98196" lon="-0.13576">
        <ele>713.4</ele>
        <time>2022-06-08 13:55:48</time>
      </trkpt>
      <trkpt lat="42.982" lon="-0.13571">
        <ele>713.6</ele>
        <time>2022-06-08 13:55:49</time>
      </trkpt>
      <trkpt lat="42.98203" lon="-0.13566">
        <ele>714.2</ele>
        <time>2022-06-08 13:55:50</time>
      </trkpt>
      <trkpt lat="42.98206" lon="-0.1356">
        <ele>714.8</ele>
        <time>2022-06-08 13:55:51</time>
      </trkpt>
      <trkpt lat="42.98209" lon="-0.13553">
        <ele>715</ele>
        <time>2022-06-08 13:55:52</time>
      </trkpt>
      <trkpt lat="42.98213" lon="-0.13547">
        <ele>715.2</ele>
        <time>2022-06-08 13:55:53</time>
      </trkpt>
      <trkpt lat="42.98214" lon="-0.13541">
        <ele>715.4</ele>
        <time>2022-06-08 13:55:54</time>
      </trkpt>
      <trkpt lat="42.98216" lon="-0.13535">
        <ele>715.6</ele>
        <time>2022-06-08 13:55:55</time>
      </trkpt>
      <trkpt lat="42.98217" lon="-0.13529">
        <ele>715.6</ele>
        <time>2022-06-08 13:55:56</time>
      </trkpt>
      <trkpt lat="42.98218" lon="-0.13523">
        <ele>715.8</ele>
        <time>2022-06-08 13:55:57</time>
      </trkpt>
      <trkpt lat="42.98218" lon="-0.13516">
        <ele>716</ele>
        <time>2022-06-08 13:55:58</time>
      </trkpt>
      <trkpt lat="42.98217" lon="-0.1351">
        <ele>716</ele>
        <time>2022-06-08 13:55:59</time>
      </trkpt>
      <trkpt lat="42.98214" lon="-0.13505">
        <ele>716.2</ele>
        <time>2022-06-08 13:56:00</time>
      </trkpt>
      <trkpt lat="42.9821" lon="-0.13502">
        <ele>716.2</ele>
        <time>2022-06-08 13:56:01</time>
      </trkpt>
      <trkpt lat="42.98206" lon="-0.135">
        <ele>716.4</ele>
        <time>2022-06-08 13:56:02</time>
      </trkpt>
      <trkpt lat="42.98202" lon="-0.13498">
        <ele>716.6</ele>
        <time>2022-06-08 13:56:03</time>
      </trkpt>
      <trkpt lat="42.98198" lon="-0.13495">
        <ele>716.8</ele>
        <time>2022-06-08 13:56:04</time>
      </trkpt>
      <trkpt lat="42.98195" lon="-0.13493">
        <ele>716.8</ele>
        <time>2022-06-08 13:56:05</time>
      </trkpt>
      <trkpt lat="42.98191" lon="-0.13491">
        <ele>716.8</ele>
        <time>2022-06-08 13:56:06</time>
      </trkpt>
      <trkpt lat="42.98187" lon="-0.13488">
        <ele>717</ele>
        <time>2022-06-08 13:56:07</time>
      </trkpt>
      <trkpt lat="42.98183" lon="-0.13485">
        <ele>717.4</ele>
        <time>2022-06-08 13:56:08</time>
      </trkpt>
      <trkpt lat="42.98179" lon="-0.13481">
        <ele>717.6</ele>
        <time>2022-06-08 13:56:09</time>
      </trkpt>
      <trkpt lat="42.98175" lon="-0.13477">
        <ele>717.8</ele>
        <time>2022-06-08 13:56:10</time>
      </trkpt>
      <trkpt lat="42.98171" lon="-0.13472">
        <ele>718</ele>
        <time>2022-06-08 13:56:11</time>
      </trkpt>
      <trkpt lat="42.98167" lon="-0.13467">
        <ele>718.2</ele>
        <time>2022-06-08 13:56:12</time>
      </trkpt>
      <trkpt lat="42.98164" lon="-0.13461">
        <ele>718.2</ele>
        <time>2022-06-08 13:56:13</time>
      </trkpt>
      <trkpt lat="42.9816" lon="-0.13456">
        <ele>718.2</ele>
        <time>2022-06-08 13:56:14</time>
      </trkpt>
      <trkpt lat="42.98158" lon="-0.13449">
        <ele>718.4</ele>
        <time>2022-06-08 13:56:15</time>
      </trkpt>
      <trkpt lat="42.98154" lon="-0.13443">
        <ele>718.4</ele>
        <time>2022-06-08 13:56:16</time>
      </trkpt>
      <trkpt lat="42.98151" lon="-0.13437">
        <ele>718.6</ele>
        <time>2022-06-08 13:56:17</time>
      </trkpt>
      <trkpt lat="42.98146" lon="-0.13431">
        <ele>718.6</ele>
        <time>2022-06-08 13:56:18</time>
      </trkpt>
      <trkpt lat="42.98142" lon="-0.13426">
        <ele>719.2</ele>
        <time>2022-06-08 13:56:19</time>
      </trkpt>
      <trkpt lat="42.98139" lon="-0.1342">
        <ele>719.6</ele>
        <time>2022-06-08 13:56:20</time>
      </trkpt>
      <trkpt lat="42.98135" lon="-0.13415">
        <ele>720</ele>
        <time>2022-06-08 13:56:21</time>
      </trkpt>
      <trkpt lat="42.98131" lon="-0.13409">
        <ele>720</ele>
        <time>2022-06-08 13:56:22</time>
      </trkpt>
      <trkpt lat="42.98126" lon="-0.13404">
        <ele>720.2</ele>
        <time>2022-06-08 13:56:23</time>
      </trkpt>
      <trkpt lat="42.98123" lon="-0.13398">
        <ele>720.2</ele>
        <time>2022-06-08 13:56:24</time>
      </trkpt>
      <trkpt lat="42.98119" lon="-0.13394">
        <ele>720.6</ele>
        <time>2022-06-08 13:56:25</time>
      </trkpt>
      <trkpt lat="42.98115" lon="-0.13389">
        <ele>720.6</ele>
        <time>2022-06-08 13:56:26</time>
      </trkpt>
      <trkpt lat="42.9811" lon="-0.13384">
        <ele>721.2</ele>
        <time>2022-06-08 13:56:27</time>
      </trkpt>
      <trkpt lat="42.98106" lon="-0.13379">
        <ele>721.2</ele>
        <time>2022-06-08 13:56:28</time>
      </trkpt>
      <trkpt lat="42.98102" lon="-0.13376">
        <ele>721.4</ele>
        <time>2022-06-08 13:56:29</time>
      </trkpt>
      <trkpt lat="42.98098" lon="-0.13371">
        <ele>721.6</ele>
        <time>2022-06-08 13:56:30</time>
      </trkpt>
      <trkpt lat="42.98094" lon="-0.13367">
        <ele>721.6</ele>
        <time>2022-06-08 13:56:31</time>
      </trkpt>
      <trkpt lat="42.9809" lon="-0.13364">
        <ele>722</ele>
        <time>2022-06-08 13:56:32</time>
      </trkpt>
      <trkpt lat="42.98087" lon="-0.1336">
        <ele>722.4</ele>
        <time>2022-06-08 13:56:33</time>
      </trkpt>
      <trkpt lat="42.98083" lon="-0.13357">
        <ele>722.8</ele>
        <time>2022-06-08 13:56:34</time>
      </trkpt>
      <trkpt lat="42.9808" lon="-0.13352">
        <ele>723</ele>
        <time>2022-06-08 13:56:35</time>
      </trkpt>
      <trkpt lat="42.98077" lon="-0.13347">
        <ele>723.2</ele>
        <time>2022-06-08 13:56:36</time>
      </trkpt>
      <trkpt lat="42.98076" lon="-0.13341">
        <ele>723.4</ele>
        <time>2022-06-08 13:56:37</time>
      </trkpt>
      <trkpt lat="42.98075" lon="-0.13335">
        <ele>723.8</ele>
        <time>2022-06-08 13:56:38</time>
      </trkpt>
      <trkpt lat="42.98076" lon="-0.13329">
        <ele>724</ele>
        <time>2022-06-08 13:56:39</time>
      </trkpt>
      <trkpt lat="42.98078" lon="-0.13323">
        <ele>724.4</ele>
        <time>2022-06-08 13:56:40</time>
      </trkpt>
      <trkpt lat="42.9808" lon="-0.13318">
        <ele>724.6</ele>
        <time>2022-06-08 13:56:41</time>
      </trkpt>
      <trkpt lat="42.98082" lon="-0.13313">
        <ele>724.8</ele>
        <time>2022-06-08 13:56:42</time>
      </trkpt>
      <trkpt lat="42.98084" lon="-0.13308">
        <ele>724.8</ele>
        <time>2022-06-08 13:56:43</time>
      </trkpt>
      <trkpt lat="42.98087" lon="-0.13302">
        <ele>724.8</ele>
        <time>2022-06-08 13:56:44</time>
      </trkpt>
      <trkpt lat="42.98091" lon="-0.13296">
        <ele>724.8</ele>
        <time>2022-06-08 13:56:45</time>
      </trkpt>
      <trkpt lat="42.98095" lon="-0.1329">
        <ele>724.8</ele>
        <time>2022-06-08 13:56:46</time>
      </trkpt>
      <trkpt lat="42.98099" lon="-0.13283">
        <ele>724.4</ele>
        <time>2022-06-08 13:56:47</time>
      </trkpt>
      <trkpt lat="42.98104" lon="-0.13276">
        <ele>724.2</ele>
        <time>2022-06-08 13:56:48</time>
      </trkpt>
      <trkpt lat="42.98109" lon="-0.13268">
        <ele>724</ele>
        <time>2022-06-08 13:56:49</time>
      </trkpt>
      <trkpt lat="42.98114" lon="-0.13261">
        <ele>724</ele>
        <time>2022-06-08 13:56:50</time>
      </trkpt>
      <trkpt lat="42.98118" lon="-0.13253">
        <ele>723.6</ele>
        <time>2022-06-08 13:56:51</time>
      </trkpt>
      <trkpt lat="42.98122" lon="-0.13244">
        <ele>723.4</ele>
        <time>2022-06-08 13:56:52</time>
      </trkpt>
      <trkpt lat="42.98126" lon="-0.13234">
        <ele>723.2</ele>
        <time>2022-06-08 13:56:53</time>
      </trkpt>
      <trkpt lat="42.98129" lon="-0.13224">
        <ele>723</ele>
        <time>2022-06-08 13:56:54</time>
      </trkpt>
      <trkpt lat="42.98132" lon="-0.13213">
        <ele>722.8</ele>
        <time>2022-06-08 13:56:55</time>
      </trkpt>
      <trkpt lat="42.98136" lon="-0.13203">
        <ele>722.6</ele>
        <time>2022-06-08 13:56:56</time>
      </trkpt>
      <trkpt lat="42.9814" lon="-0.13193">
        <ele>722.2</ele>
        <time>2022-06-08 13:56:57</time>
      </trkpt>
      <trkpt lat="42.98145" lon="-0.13183">
        <ele>721.6</ele>
        <time>2022-06-08 13:56:58</time>
      </trkpt>
      <trkpt lat="42.98149" lon="-0.13175">
        <ele>721.6</ele>
        <time>2022-06-08 13:56:59</time>
      </trkpt>
      <trkpt lat="42.98154" lon="-0.13168">
        <ele>721.2</ele>
        <time>2022-06-08 13:57:00</time>
      </trkpt>
      <trkpt lat="42.9816" lon="-0.13161">
        <ele>721</ele>
        <time>2022-06-08 13:57:01</time>
      </trkpt>
      <trkpt lat="42.98167" lon="-0.13156">
        <ele>720.8</ele>
        <time>2022-06-08 13:57:02</time>
      </trkpt>
      <trkpt lat="42.98175" lon="-0.13153">
        <ele>720.6</ele>
        <time>2022-06-08 13:57:03</time>
      </trkpt>
      <trkpt lat="42.98183" lon="-0.13151">
        <ele>720.4</ele>
        <time>2022-06-08 13:57:04</time>
      </trkpt>
      <trkpt lat="42.9819" lon="-0.13149">
        <ele>720.2</ele>
        <time>2022-06-08 13:57:05</time>
      </trkpt>
      <trkpt lat="42.98197" lon="-0.13143">
        <ele>720.2</ele>
        <time>2022-06-08 13:57:06</time>
      </trkpt>
      <trkpt lat="42.98203" lon="-0.13135">
        <ele>720</ele>
        <time>2022-06-08 13:57:07</time>
      </trkpt>
      <trkpt lat="42.98209" lon="-0.13125">
        <ele>719.8</ele>
        <time>2022-06-08 13:57:08</time>
      </trkpt>
      <trkpt lat="42.98213" lon="-0.13113">
        <ele>719.6</ele>
        <time>2022-06-08 13:57:09</time>
      </trkpt>
      <trkpt lat="42.98216" lon="-0.131">
        <ele>719.6</ele>
        <time>2022-06-08 13:57:10</time>
      </trkpt>
      <trkpt lat="42.98218" lon="-0.13087">
        <ele>719.4</ele>
        <time>2022-06-08 13:57:11</time>
      </trkpt>
      <trkpt lat="42.9822" lon="-0.13074">
        <ele>718.6</ele>
        <time>2022-06-08 13:57:12</time>
      </trkpt>
      <trkpt lat="42.9822" lon="-0.13061">
        <ele>716.4</ele>
        <time>2022-06-08 13:57:13</time>
      </trkpt>
      <trkpt lat="42.9822" lon="-0.13049">
        <ele>715.6</ele>
        <time>2022-06-08 13:57:14</time>
      </trkpt>
      <trkpt lat="42.98221" lon="-0.13035">
        <ele>714.6</ele>
        <time>2022-06-08 13:57:15</time>
      </trkpt>
      <trkpt lat="42.98222" lon="-0.13021">
        <ele>714.2</ele>
        <time>2022-06-08 13:57:16</time>
      </trkpt>
      <trkpt lat="42.98225" lon="-0.13007">
        <ele>713.8</ele>
        <time>2022-06-08 13:57:17</time>
      </trkpt>
      <trkpt lat="42.98229" lon="-0.12994">
        <ele>713.6</ele>
        <time>2022-06-08 13:57:18</time>
      </trkpt>
      <trkpt lat="42.98234" lon="-0.12982">
        <ele>713.2</ele>
        <time>2022-06-08 13:57:19</time>
      </trkpt>
      <trkpt lat="42.9824" lon="-0.12969">
        <ele>713</ele>
        <time>2022-06-08 13:57:20</time>
      </trkpt>
      <trkpt lat="42.98244" lon="-0.12957">
        <ele>712.4</ele>
        <time>2022-06-08 13:57:21</time>
      </trkpt>
      <trkpt lat="42.98248" lon="-0.12946">
        <ele>712</ele>
        <time>2022-06-08 13:57:22</time>
      </trkpt>
      <trkpt lat="42.9825" lon="-0.12933">
        <ele>711.4</ele>
        <time>2022-06-08 13:57:23</time>
      </trkpt>
      <trkpt lat="42.98253" lon="-0.1292">
        <ele>711</ele>
        <time>2022-06-08 13:57:24</time>
      </trkpt>
      <trkpt lat="42.98255" lon="-0.12905">
        <ele>711</ele>
        <time>2022-06-08 13:57:25</time>
      </trkpt>
      <trkpt lat="42.98257" lon="-0.1289">
        <ele>710.4</ele>
        <time>2022-06-08 13:57:26</time>
      </trkpt>
      <trkpt lat="42.98259" lon="-0.12875">
        <ele>709.8</ele>
        <time>2022-06-08 13:57:27</time>
      </trkpt>
      <trkpt lat="42.98261" lon="-0.1286">
        <ele>709</ele>
        <time>2022-06-08 13:57:28</time>
      </trkpt>
      <trkpt lat="42.98263" lon="-0.12846">
        <ele>708.8</ele>
        <time>2022-06-08 13:57:29</time>
      </trkpt>
      <trkpt lat="42.98265" lon="-0.12831">
        <ele>708.6</ele>
        <time>2022-06-08 13:57:30</time>
      </trkpt>
      <trkpt lat="42.98266" lon="-0.12817">
        <ele>708.4</ele>
        <time>2022-06-08 13:57:31</time>
      </trkpt>
      <trkpt lat="42.98268" lon="-0.12803">
        <ele>708.2</ele>
        <time>2022-06-08 13:57:32</time>
      </trkpt>
      <trkpt lat="42.98271" lon="-0.12791">
        <ele>708.2</ele>
        <time>2022-06-08 13:57:33</time>
      </trkpt>
      <trkpt lat="42.98273" lon="-0.12778">
        <ele>708.4</ele>
        <time>2022-06-08 13:57:34</time>
      </trkpt>
      <trkpt lat="42.98274" lon="-0.12766">
        <ele>708.6</ele>
        <time>2022-06-08 13:57:35</time>
      </trkpt>
      <trkpt lat="42.98276" lon="-0.12756">
        <ele>708.8</ele>
        <time>2022-06-08 13:57:36</time>
      </trkpt>
      <trkpt lat="42.98278" lon="-0.12746">
        <ele>709</ele>
        <time>2022-06-08 13:57:37</time>
      </trkpt>
      <trkpt lat="42.98281" lon="-0.12738">
        <ele>709.2</ele>
        <time>2022-06-08 13:57:38</time>
      </trkpt>
      <trkpt lat="42.98284" lon="-0.12727">
        <ele>709.8</ele>
        <time>2022-06-08 13:57:39</time>
      </trkpt>
      <trkpt lat="42.98286" lon="-0.12719">
        <ele>710</ele>
        <time>2022-06-08 13:57:40</time>
      </trkpt>
      <trkpt lat="42.98289" lon="-0.12711">
        <ele>710.6</ele>
        <time>2022-06-08 13:57:41</time>
      </trkpt>
      <trkpt lat="42.98291" lon="-0.12704">
        <ele>710.8</ele>
        <time>2022-06-08 13:57:42</time>
      </trkpt>
      <trkpt lat="42.98294" lon="-0.12697">
        <ele>711.2</ele>
        <time>2022-06-08 13:57:43</time>
      </trkpt>
      <trkpt lat="42.98297" lon="-0.12691">
        <ele>711.4</ele>
        <time>2022-06-08 13:57:44</time>
      </trkpt>
      <trkpt lat="42.98299" lon="-0.12685">
        <ele>712</ele>
        <time>2022-06-08 13:57:45</time>
      </trkpt>
      <trkpt lat="42.98302" lon="-0.12679">
        <ele>712.2</ele>
        <time>2022-06-08 13:57:46</time>
      </trkpt>
      <trkpt lat="42.98305" lon="-0.12673">
        <ele>712.4</ele>
        <time>2022-06-08 13:57:47</time>
      </trkpt>
      <trkpt lat="42.98308" lon="-0.12668">
        <ele>712.6</ele>
        <time>2022-06-08 13:57:48</time>
      </trkpt>
      <trkpt lat="42.98311" lon="-0.12662">
        <ele>713.2</ele>
        <time>2022-06-08 13:57:49</time>
      </trkpt>
      <trkpt lat="42.98313" lon="-0.12655">
        <ele>713.6</ele>
        <time>2022-06-08 13:57:50</time>
      </trkpt>
      <trkpt lat="42.98316" lon="-0.12649">
        <ele>714.4</ele>
        <time>2022-06-08 13:57:51</time>
      </trkpt>
      <trkpt lat="42.98319" lon="-0.12643">
        <ele>714.8</ele>
        <time>2022-06-08 13:57:52</time>
      </trkpt>
      <trkpt lat="42.98322" lon="-0.12637">
        <ele>714.8</ele>
        <time>2022-06-08 13:57:53</time>
      </trkpt>
      <trkpt lat="42.98325" lon="-0.12631">
        <ele>715.2</ele>
        <time>2022-06-08 13:57:54</time>
      </trkpt>
      <trkpt lat="42.98327" lon="-0.12624">
        <ele>715.4</ele>
        <time>2022-06-08 13:57:55</time>
      </trkpt>
      <trkpt lat="42.98328" lon="-0.12617">
        <ele>715.6</ele>
        <time>2022-06-08 13:57:56</time>
      </trkpt>
      <trkpt lat="42.98328" lon="-0.1261">
        <ele>715.6</ele>
        <time>2022-06-08 13:57:57</time>
      </trkpt>
      <trkpt lat="42.98328" lon="-0.12602">
        <ele>716</ele>
        <time>2022-06-08 13:57:58</time>
      </trkpt>
      <trkpt lat="42.98329" lon="-0.12594">
        <ele>716</ele>
        <time>2022-06-08 13:57:59</time>
      </trkpt>
      <trkpt lat="42.98329" lon="-0.12588">
        <ele>716.2</ele>
        <time>2022-06-08 13:58:00</time>
      </trkpt>
      <trkpt lat="42.98329" lon="-0.12581">
        <ele>716.4</ele>
        <time>2022-06-08 13:58:01</time>
      </trkpt>
      <trkpt lat="42.98329" lon="-0.12574">
        <ele>716.6</ele>
        <time>2022-06-08 13:58:02</time>
      </trkpt>
      <trkpt lat="42.98329" lon="-0.12567">
        <ele>716.8</ele>
        <time>2022-06-08 13:58:03</time>
      </trkpt>
      <trkpt lat="42.98329" lon="-0.1256">
        <ele>717</ele>
        <time>2022-06-08 13:58:04</time>
      </trkpt>
      <trkpt lat="42.98329" lon="-0.12553">
        <ele>717.2</ele>
        <time>2022-06-08 13:58:05</time>
      </trkpt>
      <trkpt lat="42.98329" lon="-0.12546">
        <ele>717.4</ele>
        <time>2022-06-08 13:58:06</time>
      </trkpt>
      <trkpt lat="42.98329" lon="-0.1254">
        <ele>717.8</ele>
        <time>2022-06-08 13:58:07</time>
      </trkpt>
      <trkpt lat="42.98328" lon="-0.12534">
        <ele>718</ele>
        <time>2022-06-08 13:58:08</time>
      </trkpt>
      <trkpt lat="42.98327" lon="-0.12528">
        <ele>718.8</ele>
        <time>2022-06-08 13:58:09</time>
      </trkpt>
      <trkpt lat="42.98327" lon="-0.12524">
        <ele>719.2</ele>
        <time>2022-06-08 13:58:10</time>
      </trkpt>
      <trkpt lat="42.98326" lon="-0.1252">
        <ele>720</ele>
        <time>2022-06-08 13:58:11</time>
      </trkpt>
      <trkpt lat="42.98325" lon="-0.12515">
        <ele>720.4</ele>
        <time>2022-06-08 13:58:12</time>
      </trkpt>
      <trkpt lat="42.98325" lon="-0.12511">
        <ele>721.4</ele>
        <time>2022-06-08 13:58:13</time>
      </trkpt>
      <trkpt lat="42.98324" lon="-0.12506">
        <ele>721.6</ele>
        <time>2022-06-08 13:58:14</time>
      </trkpt>
      <trkpt lat="42.98323" lon="-0.12502">
        <ele>722.2</ele>
        <time>2022-06-08 13:58:15</time>
      </trkpt>
      <trkpt lat="42.98322" lon="-0.12497">
        <ele>722.6</ele>
        <time>2022-06-08 13:58:16</time>
      </trkpt>
      <trkpt lat="42.98321" lon="-0.12492">
        <ele>723</ele>
        <time>2022-06-08 13:58:17</time>
      </trkpt>
      <trkpt lat="42.9832" lon="-0.12487">
        <ele>723.6</ele>
        <time>2022-06-08 13:58:18</time>
      </trkpt>
      <trkpt lat="42.98319" lon="-0.12482">
        <ele>723.8</ele>
        <time>2022-06-08 13:58:19</time>
      </trkpt>
      <trkpt lat="42.98318" lon="-0.12476">
        <ele>724</ele>
        <time>2022-06-08 13:58:20</time>
      </trkpt>
      <trkpt lat="42.98317" lon="-0.12471">
        <ele>724.2</ele>
        <time>2022-06-08 13:58:21</time>
      </trkpt>
      <trkpt lat="42.98315" lon="-0.12465">
        <ele>724.4</ele>
        <time>2022-06-08 13:58:22</time>
      </trkpt>
      <trkpt lat="42.98314" lon="-0.12459">
        <ele>724.6</ele>
        <time>2022-06-08 13:58:23</time>
      </trkpt>
      <trkpt lat="42.98312" lon="-0.12453">
        <ele>724.6</ele>
        <time>2022-06-08 13:58:24</time>
      </trkpt>
      <trkpt lat="42.98311" lon="-0.12447">
        <ele>724.8</ele>
        <time>2022-06-08 13:58:25</time>
      </trkpt>
      <trkpt lat="42.9831" lon="-0.1244">
        <ele>724.8</ele>
        <time>2022-06-08 13:58:26</time>
      </trkpt>
      <trkpt lat="42.98308" lon="-0.12433">
        <ele>724.8</ele>
        <time>2022-06-08 13:58:27</time>
      </trkpt>
      <trkpt lat="42.98307" lon="-0.12426">
        <ele>724.8</ele>
        <time>2022-06-08 13:58:28</time>
      </trkpt>
      <trkpt lat="42.98306" lon="-0.12418">
        <ele>724.8</ele>
        <time>2022-06-08 13:58:29</time>
      </trkpt>
      <trkpt lat="42.98306" lon="-0.1241">
        <ele>724.8</ele>
        <time>2022-06-08 13:58:30</time>
      </trkpt>
      <trkpt lat="42.98306" lon="-0.12403">
        <ele>725</ele>
        <time>2022-06-08 13:58:31</time>
      </trkpt>
      <trkpt lat="42.98306" lon="-0.12395">
        <ele>725</ele>
        <time>2022-06-08 13:58:32</time>
      </trkpt>
      <trkpt lat="42.98307" lon="-0.12387">
        <ele>725</ele>
        <time>2022-06-08 13:58:33</time>
      </trkpt>
      <trkpt lat="42.98308" lon="-0.1238">
        <ele>725.2</ele>
        <time>2022-06-08 13:58:34</time>
      </trkpt>
      <trkpt lat="42.98309" lon="-0.12372">
        <ele>725.2</ele>
        <time>2022-06-08 13:58:35</time>
      </trkpt>
      <trkpt lat="42.9831" lon="-0.12365">
        <ele>725.2</ele>
        <time>2022-06-08 13:58:36</time>
      </trkpt>
      <trkpt lat="42.98311" lon="-0.12358">
        <ele>725.2</ele>
        <time>2022-06-08 13:58:37</time>
      </trkpt>
      <trkpt lat="42.98312" lon="-0.12352">
        <ele>725.2</ele>
        <time>2022-06-08 13:58:38</time>
      </trkpt>
      <trkpt lat="42.98312" lon="-0.12345">
        <ele>725.4</ele>
        <time>2022-06-08 13:58:39</time>
      </trkpt>
      <trkpt lat="42.98313" lon="-0.12338">
        <ele>725.4</ele>
        <time>2022-06-08 13:58:40</time>
      </trkpt>
      <trkpt lat="42.98314" lon="-0.12331">
        <ele>725.6</ele>
        <time>2022-06-08 13:58:41</time>
      </trkpt>
      <trkpt lat="42.98314" lon="-0.12325">
        <ele>725.8</ele>
        <time>2022-06-08 13:58:42</time>
      </trkpt>
      <trkpt lat="42.98314" lon="-0.12317">
        <ele>726</ele>
        <time>2022-06-08 13:58:43</time>
      </trkpt>
      <trkpt lat="42.98315" lon="-0.12309">
        <ele>726</ele>
        <time>2022-06-08 13:58:44</time>
      </trkpt>
      <trkpt lat="42.98315" lon="-0.12301">
        <ele>726</ele>
        <time>2022-06-08 13:58:45</time>
      </trkpt>
      <trkpt lat="42.98314" lon="-0.12293">
        <ele>726</ele>
        <time>2022-06-08 13:58:46</time>
      </trkpt>
      <trkpt lat="42.98313" lon="-0.12283">
        <ele>726</ele>
        <time>2022-06-08 13:58:47</time>
      </trkpt>
      <trkpt lat="42.98312" lon="-0.12272">
        <ele>726</ele>
        <time>2022-06-08 13:58:48</time>
      </trkpt>
      <trkpt lat="42.98311" lon="-0.12261">
        <ele>725.8</ele>
        <time>2022-06-08 13:58:49</time>
      </trkpt>
      <trkpt lat="42.9831" lon="-0.12249">
        <ele>725.6</ele>
        <time>2022-06-08 13:58:50</time>
      </trkpt>
      <trkpt lat="42.98309" lon="-0.12238">
        <ele>725.4</ele>
        <time>2022-06-08 13:58:51</time>
      </trkpt>
      <trkpt lat="42.98308" lon="-0.12226">
        <ele>725.2</ele>
        <time>2022-06-08 13:58:52</time>
      </trkpt>
      <trkpt lat="42.98307" lon="-0.12213">
        <ele>724.4</ele>
        <time>2022-06-08 13:58:53</time>
      </trkpt>
      <trkpt lat="42.98305" lon="-0.12201">
        <ele>723</ele>
        <time>2022-06-08 13:58:54</time>
      </trkpt>
      <trkpt lat="42.98304" lon="-0.12188">
        <ele>722.4</ele>
        <time>2022-06-08 13:58:55</time>
      </trkpt>
      <trkpt lat="42.98302" lon="-0.12175">
        <ele>721.2</ele>
        <time>2022-06-08 13:58:56</time>
      </trkpt>
      <trkpt lat="42.983" lon="-0.12162">
        <ele>720.8</ele>
        <time>2022-06-08 13:58:57</time>
      </trkpt>
      <trkpt lat="42.98298" lon="-0.12149">
        <ele>720</ele>
        <time>2022-06-08 13:58:58</time>
      </trkpt>
      <trkpt lat="42.98297" lon="-0.12135">
        <ele>719.6</ele>
        <time>2022-06-08 13:58:59</time>
      </trkpt>
      <trkpt lat="42.98297" lon="-0.12121">
        <ele>719</ele>
        <time>2022-06-08 13:59:00</time>
      </trkpt>
      <trkpt lat="42.98298" lon="-0.12108">
        <ele>718.2</ele>
        <time>2022-06-08 13:59:01</time>
      </trkpt>
      <trkpt lat="42.983" lon="-0.12094">
        <ele>717.8</ele>
        <time>2022-06-08 13:59:02</time>
      </trkpt>
      <trkpt lat="42.98303" lon="-0.12081">
        <ele>717.4</ele>
        <time>2022-06-08 13:59:03</time>
      </trkpt>
      <trkpt lat="42.98306" lon="-0.12069">
        <ele>717.2</ele>
        <time>2022-06-08 13:59:04</time>
      </trkpt>
      <trkpt lat="42.98311" lon="-0.12059">
        <ele>717</ele>
        <time>2022-06-08 13:59:05</time>
      </trkpt>
      <trkpt lat="42.98316" lon="-0.12048">
        <ele>717</ele>
        <time>2022-06-08 13:59:06</time>
      </trkpt>
      <trkpt lat="42.98321" lon="-0.12038">
        <ele>717</ele>
        <time>2022-06-08 13:59:07</time>
      </trkpt>
      <trkpt lat="42.98325" lon="-0.12028">
        <ele>716.8</ele>
        <time>2022-06-08 13:59:08</time>
      </trkpt>
      <trkpt lat="42.9833" lon="-0.12019">
        <ele>716.8</ele>
        <time>2022-06-08 13:59:09</time>
      </trkpt>
      <trkpt lat="42.98335" lon="-0.1201">
        <ele>716.8</ele>
        <time>2022-06-08 13:59:10</time>
      </trkpt>
      <trkpt lat="42.98339" lon="-0.12003">
        <ele>716.6</ele>
        <time>2022-06-08 13:59:11</time>
      </trkpt>
      <trkpt lat="42.98345" lon="-0.11992">
        <ele>716.6</ele>
        <time>2022-06-08 13:59:12</time>
      </trkpt>
      <trkpt lat="42.9835" lon="-0.11982">
        <ele>716.6</ele>
        <time>2022-06-08 13:59:13</time>
      </trkpt>
      <trkpt lat="42.98355" lon="-0.11973">
        <ele>716.4</ele>
        <time>2022-06-08 13:59:14</time>
      </trkpt>
      <trkpt lat="42.9836" lon="-0.11963">
        <ele>716.4</ele>
        <time>2022-06-08 13:59:15</time>
      </trkpt>
      <trkpt lat="42.98365" lon="-0.11952">
        <ele>716.2</ele>
        <time>2022-06-08 13:59:16</time>
      </trkpt>
      <trkpt lat="42.9837" lon="-0.11941">
        <ele>716</ele>
        <time>2022-06-08 13:59:17</time>
      </trkpt>
      <trkpt lat="42.98375" lon="-0.1193">
        <ele>715.8</ele>
        <time>2022-06-08 13:59:18</time>
      </trkpt>
      <trkpt lat="42.9838" lon="-0.11919">
        <ele>715.4</ele>
        <time>2022-06-08 13:59:19</time>
      </trkpt>
      <trkpt lat="42.98385" lon="-0.11908">
        <ele>714.8</ele>
        <time>2022-06-08 13:59:20</time>
      </trkpt>
      <trkpt lat="42.98389" lon="-0.11897">
        <ele>714</ele>
        <time>2022-06-08 13:59:21</time>
      </trkpt>
      <trkpt lat="42.98395" lon="-0.11886">
        <ele>713.2</ele>
        <time>2022-06-08 13:59:22</time>
      </trkpt>
      <trkpt lat="42.98401" lon="-0.11875">
        <ele>712.8</ele>
        <time>2022-06-08 13:59:23</time>
      </trkpt>
      <trkpt lat="42.98408" lon="-0.11863">
        <ele>712.2</ele>
        <time>2022-06-08 13:59:24</time>
      </trkpt>
      <trkpt lat="42.98414" lon="-0.1185">
        <ele>711.8</ele>
        <time>2022-06-08 13:59:25</time>
      </trkpt>
      <trkpt lat="42.98421" lon="-0.11837">
        <ele>711.6</ele>
        <time>2022-06-08 13:59:26</time>
      </trkpt>
      <trkpt lat="42.98428" lon="-0.11823">
        <ele>710.6</ele>
        <time>2022-06-08 13:59:27</time>
      </trkpt>
      <trkpt lat="42.98435" lon="-0.11809">
        <ele>709.6</ele>
        <time>2022-06-08 13:59:28</time>
      </trkpt>
      <trkpt lat="42.98442" lon="-0.11795">
        <ele>708</ele>
        <time>2022-06-08 13:59:29</time>
      </trkpt>
      <trkpt lat="42.98449" lon="-0.11781">
        <ele>707.2</ele>
        <time>2022-06-08 13:59:30</time>
      </trkpt>
      <trkpt lat="42.98456" lon="-0.11767">
        <ele>704.4</ele>
        <time>2022-06-08 13:59:31</time>
      </trkpt>
      <trkpt lat="42.98463" lon="-0.11753">
        <ele>702.6</ele>
        <time>2022-06-08 13:59:32</time>
      </trkpt>
      <trkpt lat="42.98469" lon="-0.11739">
        <ele>700.4</ele>
        <time>2022-06-08 13:59:33</time>
      </trkpt>
      <trkpt lat="42.98474" lon="-0.11723">
        <ele>699.4</ele>
        <time>2022-06-08 13:59:34</time>
      </trkpt>
      <trkpt lat="42.98478" lon="-0.11707">
        <ele>697.6</ele>
        <time>2022-06-08 13:59:35</time>
      </trkpt>
      <trkpt lat="42.98482" lon="-0.1169">
        <ele>696.6</ele>
        <time>2022-06-08 13:59:36</time>
      </trkpt>
      <trkpt lat="42.98485" lon="-0.11672">
        <ele>694.8</ele>
        <time>2022-06-08 13:59:37</time>
      </trkpt>
      <trkpt lat="42.98489" lon="-0.11656">
        <ele>693.8</ele>
        <time>2022-06-08 13:59:38</time>
      </trkpt>
      <trkpt lat="42.98495" lon="-0.1164">
        <ele>693.4</ele>
        <time>2022-06-08 13:59:39</time>
      </trkpt>
      <trkpt lat="42.98501" lon="-0.11627">
        <ele>692.4</ele>
        <time>2022-06-08 13:59:40</time>
      </trkpt>
      <trkpt lat="42.9851" lon="-0.11615">
        <ele>691.8</ele>
        <time>2022-06-08 13:59:41</time>
      </trkpt>
      <trkpt lat="42.98519" lon="-0.11606">
        <ele>690.2</ele>
        <time>2022-06-08 13:59:42</time>
      </trkpt>
      <trkpt lat="42.98528" lon="-0.11598">
        <ele>689.8</ele>
        <time>2022-06-08 13:59:43</time>
      </trkpt>
      <trkpt lat="42.98537" lon="-0.1159">
        <ele>689.2</ele>
        <time>2022-06-08 13:59:44</time>
      </trkpt>
      <trkpt lat="42.98546" lon="-0.11584">
        <ele>689</ele>
        <time>2022-06-08 13:59:45</time>
      </trkpt>
      <trkpt lat="42.98555" lon="-0.11579">
        <ele>688.6</ele>
        <time>2022-06-08 13:59:46</time>
      </trkpt>
      <trkpt lat="42.98565" lon="-0.11574">
        <ele>688.4</ele>
        <time>2022-06-08 13:59:47</time>
      </trkpt>
      <trkpt lat="42.98575" lon="-0.11569">
        <ele>688</ele>
        <time>2022-06-08 13:59:48</time>
      </trkpt>
      <trkpt lat="42.98584" lon="-0.11563">
        <ele>687.8</ele>
        <time>2022-06-08 13:59:49</time>
      </trkpt>
      <trkpt lat="42.98592" lon="-0.11555">
        <ele>687.2</ele>
        <time>2022-06-08 13:59:50</time>
      </trkpt>
      <trkpt lat="42.98598" lon="-0.11545">
        <ele>686.6</ele>
        <time>2022-06-08 13:59:51</time>
      </trkpt>
      <trkpt lat="42.98604" lon="-0.11534">
        <ele>685.8</ele>
        <time>2022-06-08 13:59:52</time>
      </trkpt>
      <trkpt lat="42.98608" lon="-0.11523">
        <ele>685.2</ele>
        <time>2022-06-08 13:59:53</time>
      </trkpt>
      <trkpt lat="42.98612" lon="-0.11511">
        <ele>685</ele>
        <time>2022-06-08 13:59:54</time>
      </trkpt>
      <trkpt lat="42.98615" lon="-0.11499">
        <ele>684.8</ele>
        <time>2022-06-08 13:59:55</time>
      </trkpt>
      <trkpt lat="42.98617" lon="-0.11487">
        <ele>684.8</ele>
        <time>2022-06-08 13:59:56</time>
      </trkpt>
      <trkpt lat="42.9862" lon="-0.11475">
        <ele>684.6</ele>
        <time>2022-06-08 13:59:57</time>
      </trkpt>
      <trkpt lat="42.98622" lon="-0.11464">
        <ele>684</ele>
        <time>2022-06-08 13:59:58</time>
      </trkpt>
      <trkpt lat="42.98625" lon="-0.11452">
        <ele>683.6</ele>
        <time>2022-06-08 13:59:59</time>
      </trkpt>
      <trkpt lat="42.98629" lon="-0.1144">
        <ele>683.4</ele>
        <time>2022-06-08 14:00:00</time>
      </trkpt>
      <trkpt lat="42.98632" lon="-0.11429">
        <ele>683.2</ele>
        <time>2022-06-08 14:00:01</time>
      </trkpt>
      <trkpt lat="42.98636" lon="-0.11418">
        <ele>683.2</ele>
        <time>2022-06-08 14:00:02</time>
      </trkpt>
      <trkpt lat="42.9864" lon="-0.11408">
        <ele>683.2</ele>
        <time>2022-06-08 14:00:03</time>
      </trkpt>
      <trkpt lat="42.98643" lon="-0.11397">
        <ele>683</ele>
        <time>2022-06-08 14:00:04</time>
      </trkpt>
      <trkpt lat="42.98646" lon="-0.11386">
        <ele>683</ele>
        <time>2022-06-08 14:00:05</time>
      </trkpt>
      <trkpt lat="42.98649" lon="-0.11375">
        <ele>683</ele>
        <time>2022-06-08 14:00:06</time>
      </trkpt>
      <trkpt lat="42.9865" lon="-0.11364">
        <ele>683</ele>
        <time>2022-06-08 14:00:07</time>
      </trkpt>
      <trkpt lat="42.98652" lon="-0.11352">
        <ele>683</ele>
        <time>2022-06-08 14:00:08</time>
      </trkpt>
      <trkpt lat="42.98652" lon="-0.11341">
        <ele>683</ele>
        <time>2022-06-08 14:00:09</time>
      </trkpt>
      <trkpt lat="42.98653" lon="-0.1133">
        <ele>683</ele>
        <time>2022-06-08 14:00:10</time>
      </trkpt>
      <trkpt lat="42.98653" lon="-0.11319">
        <ele>683</ele>
        <time>2022-06-08 14:00:11</time>
      </trkpt>
      <trkpt lat="42.98654" lon="-0.11308">
        <ele>683.2</ele>
        <time>2022-06-08 14:00:12</time>
      </trkpt>
      <trkpt lat="42.98654" lon="-0.11298">
        <ele>683.2</ele>
        <time>2022-06-08 14:00:13</time>
      </trkpt>
      <trkpt lat="42.98654" lon="-0.11288">
        <ele>683.2</ele>
        <time>2022-06-08 14:00:14</time>
      </trkpt>
      <trkpt lat="42.98655" lon="-0.11278">
        <ele>683.2</ele>
        <time>2022-06-08 14:00:15</time>
      </trkpt>
      <trkpt lat="42.98656" lon="-0.11268">
        <ele>683.2</ele>
        <time>2022-06-08 14:00:16</time>
      </trkpt>
      <trkpt lat="42.98657" lon="-0.11258">
        <ele>683.2</ele>
        <time>2022-06-08 14:00:17</time>
      </trkpt>
      <trkpt lat="42.98657" lon="-0.11248">
        <ele>683.2</ele>
        <time>2022-06-08 14:00:18</time>
      </trkpt>
      <trkpt lat="42.98657" lon="-0.11237">
        <ele>683.2</ele>
        <time>2022-06-08 14:00:19</time>
      </trkpt>
      <trkpt lat="42.98657" lon="-0.11227">
        <ele>683.2</ele>
        <time>2022-06-08 14:00:20</time>
      </trkpt>
      <trkpt lat="42.98657" lon="-0.11216">
        <ele>683</ele>
        <time>2022-06-08 14:00:21</time>
      </trkpt>
      <trkpt lat="42.98657" lon="-0.11205">
        <ele>683</ele>
        <time>2022-06-08 14:00:22</time>
      </trkpt>
      <trkpt lat="42.98656" lon="-0.11194">
        <ele>682.6</ele>
        <time>2022-06-08 14:00:23</time>
      </trkpt>
      <trkpt lat="42.98655" lon="-0.11183">
        <ele>682.6</ele>
        <time>2022-06-08 14:00:24</time>
      </trkpt>
      <trkpt lat="42.98654" lon="-0.11172">
        <ele>682.4</ele>
        <time>2022-06-08 14:00:25</time>
      </trkpt>
      <trkpt lat="42.98653" lon="-0.11162">
        <ele>682.4</ele>
        <time>2022-06-08 14:00:26</time>
      </trkpt>
      <trkpt lat="42.98652" lon="-0.11151">
        <ele>682.4</ele>
        <time>2022-06-08 14:00:27</time>
      </trkpt>
      <trkpt lat="42.98651" lon="-0.1114">
        <ele>682.2</ele>
        <time>2022-06-08 14:00:28</time>
      </trkpt>
      <trkpt lat="42.9865" lon="-0.11129">
        <ele>682.2</ele>
        <time>2022-06-08 14:00:29</time>
      </trkpt>
      <trkpt lat="42.98649" lon="-0.11118">
        <ele>681.8</ele>
        <time>2022-06-08 14:00:30</time>
      </trkpt>
      <trkpt lat="42.98648" lon="-0.11107">
        <ele>681.6</ele>
        <time>2022-06-08 14:00:31</time>
      </trkpt>
      <trkpt lat="42.98646" lon="-0.11096">
        <ele>681</ele>
        <time>2022-06-08 14:00:32</time>
      </trkpt>
      <trkpt lat="42.98645" lon="-0.11084">
        <ele>680.8</ele>
        <time>2022-06-08 14:00:33</time>
      </trkpt>
      <trkpt lat="42.98643" lon="-0.11072">
        <ele>680.6</ele>
        <time>2022-06-08 14:00:34</time>
      </trkpt>
      <trkpt lat="42.98641" lon="-0.1106">
        <ele>680.4</ele>
        <time>2022-06-08 14:00:35</time>
      </trkpt>
      <trkpt lat="42.98639" lon="-0.11048">
        <ele>680</ele>
        <time>2022-06-08 14:00:36</time>
      </trkpt>
      <trkpt lat="42.98638" lon="-0.11036">
        <ele>679.8</ele>
        <time>2022-06-08 14:00:37</time>
      </trkpt>
      <trkpt lat="42.98636" lon="-0.11024">
        <ele>679.4</ele>
        <time>2022-06-08 14:00:38</time>
      </trkpt>
      <trkpt lat="42.98634" lon="-0.11012">
        <ele>679.2</ele>
        <time>2022-06-08 14:00:39</time>
      </trkpt>
      <trkpt lat="42.98632" lon="-0.11">
        <ele>678.4</ele>
        <time>2022-06-08 14:00:40</time>
      </trkpt>
      <trkpt lat="42.98631" lon="-0.10988">
        <ele>678</ele>
        <time>2022-06-08 14:00:41</time>
      </trkpt>
      <trkpt lat="42.9863" lon="-0.10975">
        <ele>677</ele>
        <time>2022-06-08 14:00:42</time>
      </trkpt>
      <trkpt lat="42.98629" lon="-0.10963">
        <ele>676.6</ele>
        <time>2022-06-08 14:00:43</time>
      </trkpt>
      <trkpt lat="42.98628" lon="-0.10951">
        <ele>676.6</ele>
        <time>2022-06-08 14:00:44</time>
      </trkpt>
      <trkpt lat="42.98628" lon="-0.10939">
        <ele>676.4</ele>
        <time>2022-06-08 14:00:45</time>
      </trkpt>
      <trkpt lat="42.98628" lon="-0.10927">
        <ele>676.4</ele>
        <time>2022-06-08 14:00:46</time>
      </trkpt>
      <trkpt lat="42.9863" lon="-0.10915">
        <ele>676.4</ele>
        <time>2022-06-08 14:00:47</time>
      </trkpt>
      <trkpt lat="42.98633" lon="-0.10903">
        <ele>676.2</ele>
        <time>2022-06-08 14:00:48</time>
      </trkpt>
      <trkpt lat="42.98636" lon="-0.10893">
        <ele>676.2</ele>
        <time>2022-06-08 14:00:49</time>
      </trkpt>
      <trkpt lat="42.98639" lon="-0.10882">
        <ele>676.2</ele>
        <time>2022-06-08 14:00:50</time>
      </trkpt>
      <trkpt lat="42.98642" lon="-0.10872">
        <ele>676.2</ele>
        <time>2022-06-08 14:00:51</time>
      </trkpt>
      <trkpt lat="42.98646" lon="-0.10862">
        <ele>676.2</ele>
        <time>2022-06-08 14:00:52</time>
      </trkpt>
      <trkpt lat="42.9865" lon="-0.10852">
        <ele>676.2</ele>
        <time>2022-06-08 14:00:53</time>
      </trkpt>
      <trkpt lat="42.98656" lon="-0.10844">
        <ele>676.2</ele>
        <time>2022-06-08 14:00:54</time>
      </trkpt>
      <trkpt lat="42.98662" lon="-0.10836">
        <ele>676.2</ele>
        <time>2022-06-08 14:00:55</time>
      </trkpt>
      <trkpt lat="42.98669" lon="-0.10829">
        <ele>676</ele>
        <time>2022-06-08 14:00:56</time>
      </trkpt>
      <trkpt lat="42.98675" lon="-0.10821">
        <ele>676</ele>
        <time>2022-06-08 14:00:57</time>
      </trkpt>
      <trkpt lat="42.98682" lon="-0.10814">
        <ele>675.8</ele>
        <time>2022-06-08 14:00:58</time>
      </trkpt>
      <trkpt lat="42.98689" lon="-0.10807">
        <ele>675.8</ele>
        <time>2022-06-08 14:00:59</time>
      </trkpt>
      <trkpt lat="42.98696" lon="-0.108">
        <ele>675.4</ele>
        <time>2022-06-08 14:01:00</time>
      </trkpt>
      <trkpt lat="42.98704" lon="-0.10794">
        <ele>675.2</ele>
        <time>2022-06-08 14:01:01</time>
      </trkpt>
      <trkpt lat="42.98711" lon="-0.10786">
        <ele>675.2</ele>
        <time>2022-06-08 14:01:02</time>
      </trkpt>
      <trkpt lat="42.98717" lon="-0.10777">
        <ele>675</ele>
        <time>2022-06-08 14:01:03</time>
      </trkpt>
      <trkpt lat="42.98723" lon="-0.10767">
        <ele>674.6</ele>
        <time>2022-06-08 14:01:04</time>
      </trkpt>
      <trkpt lat="42.98727" lon="-0.10758">
        <ele>674.6</ele>
        <time>2022-06-08 14:01:05</time>
      </trkpt>
      <trkpt lat="42.98732" lon="-0.10748">
        <ele>674.4</ele>
        <time>2022-06-08 14:01:06</time>
      </trkpt>
      <trkpt lat="42.98736" lon="-0.10738">
        <ele>674.2</ele>
        <time>2022-06-08 14:01:07</time>
      </trkpt>
      <trkpt lat="42.9874" lon="-0.10728">
        <ele>673.8</ele>
        <time>2022-06-08 14:01:08</time>
      </trkpt>
      <trkpt lat="42.98743" lon="-0.10718">
        <ele>673.6</ele>
        <time>2022-06-08 14:01:09</time>
      </trkpt>
      <trkpt lat="42.98746" lon="-0.10708">
        <ele>673.4</ele>
        <time>2022-06-08 14:01:10</time>
      </trkpt>
      <trkpt lat="42.98748" lon="-0.10697">
        <ele>673.4</ele>
        <time>2022-06-08 14:01:11</time>
      </trkpt>
      <trkpt lat="42.98749" lon="-0.10686">
        <ele>673.4</ele>
        <time>2022-06-08 14:01:12</time>
      </trkpt>
      <trkpt lat="42.98749" lon="-0.10675">
        <ele>673.4</ele>
        <time>2022-06-08 14:01:13</time>
      </trkpt>
      <trkpt lat="42.98749" lon="-0.10666">
        <ele>673.6</ele>
        <time>2022-06-08 14:01:14</time>
      </trkpt>
      <trkpt lat="42.98748" lon="-0.10657">
        <ele>673.6</ele>
        <time>2022-06-08 14:01:15</time>
      </trkpt>
      <trkpt lat="42.98746" lon="-0.1065">
        <ele>673.8</ele>
        <time>2022-06-08 14:01:16</time>
      </trkpt>
      <trkpt lat="42.98744" lon="-0.10644">
        <ele>674</ele>
        <time>2022-06-08 14:01:17</time>
      </trkpt>
      <trkpt lat="42.98742" lon="-0.10638">
        <ele>674</ele>
        <time>2022-06-08 14:01:18</time>
      </trkpt>
      <trkpt lat="42.98739" lon="-0.10632">
        <ele>674.2</ele>
        <time>2022-06-08 14:01:19</time>
      </trkpt>
      <trkpt lat="42.98735" lon="-0.10627">
        <ele>674.2</ele>
        <time>2022-06-08 14:01:20</time>
      </trkpt>
      <trkpt lat="42.98731" lon="-0.1062">
        <ele>674.6</ele>
        <time>2022-06-08 14:01:21</time>
      </trkpt>
      <trkpt lat="42.98727" lon="-0.10613">
        <ele>674.8</ele>
        <time>2022-06-08 14:01:22</time>
      </trkpt>
      <trkpt lat="42.98723" lon="-0.10605">
        <ele>674.8</ele>
        <time>2022-06-08 14:01:23</time>
      </trkpt>
      <trkpt lat="42.98719" lon="-0.10597">
        <ele>674.8</ele>
        <time>2022-06-08 14:01:24</time>
      </trkpt>
      <trkpt lat="42.98714" lon="-0.10589">
        <ele>674.8</ele>
        <time>2022-06-08 14:01:25</time>
      </trkpt>
      <trkpt lat="42.9871" lon="-0.10581">
        <ele>674.6</ele>
        <time>2022-06-08 14:01:26</time>
      </trkpt>
      <trkpt lat="42.98705" lon="-0.10573">
        <ele>674.6</ele>
        <time>2022-06-08 14:01:27</time>
      </trkpt>
      <trkpt lat="42.98701" lon="-0.10564">
        <ele>674.4</ele>
        <time>2022-06-08 14:01:28</time>
      </trkpt>
      <trkpt lat="42.98695" lon="-0.10555">
        <ele>674.2</ele>
        <time>2022-06-08 14:01:29</time>
      </trkpt>
      <trkpt lat="42.98689" lon="-0.10546">
        <ele>674</ele>
        <time>2022-06-08 14:01:30</time>
      </trkpt>
      <trkpt lat="42.98682" lon="-0.10538">
        <ele>673.6</ele>
        <time>2022-06-08 14:01:31</time>
      </trkpt>
      <trkpt lat="42.98674" lon="-0.1053">
        <ele>673.2</ele>
        <time>2022-06-08 14:01:32</time>
      </trkpt>
      <trkpt lat="42.98667" lon="-0.10522">
        <ele>672.6</ele>
        <time>2022-06-08 14:01:33</time>
      </trkpt>
      <trkpt lat="42.9866" lon="-0.10513">
        <ele>672.2</ele>
        <time>2022-06-08 14:01:34</time>
      </trkpt>
      <trkpt lat="42.98653" lon="-0.10505">
        <ele>671.4</ele>
        <time>2022-06-08 14:01:35</time>
      </trkpt>
      <trkpt lat="42.98647" lon="-0.10496">
        <ele>670.6</ele>
        <time>2022-06-08 14:01:36</time>
      </trkpt>
      <trkpt lat="42.98641" lon="-0.10487">
        <ele>669.2</ele>
        <time>2022-06-08 14:01:37</time>
      </trkpt>
      <trkpt lat="42.98635" lon="-0.10478">
        <ele>668.8</ele>
        <time>2022-06-08 14:01:38</time>
      </trkpt>
      <trkpt lat="42.9863" lon="-0.10468">
        <ele>668</ele>
        <time>2022-06-08 14:01:39</time>
      </trkpt>
      <trkpt lat="42.98625" lon="-0.10457">
        <ele>667.8</ele>
        <time>2022-06-08 14:01:40</time>
      </trkpt>
      <trkpt lat="42.98621" lon="-0.10447">
        <ele>667.2</ele>
        <time>2022-06-08 14:01:41</time>
      </trkpt>
      <trkpt lat="42.98616" lon="-0.10435">
        <ele>666.8</ele>
        <time>2022-06-08 14:01:42</time>
      </trkpt>
      <trkpt lat="42.98612" lon="-0.10423">
        <ele>665</ele>
        <time>2022-06-08 14:01:43</time>
      </trkpt>
      <trkpt lat="42.98609" lon="-0.10408">
        <ele>664</ele>
        <time>2022-06-08 14:01:44</time>
      </trkpt>
      <trkpt lat="42.98607" lon="-0.10397">
        <ele>663</ele>
        <time>2022-06-08 14:01:45</time>
      </trkpt>
      <trkpt lat="42.98606" lon="-0.10383">
        <ele>662.6</ele>
        <time>2022-06-08 14:01:46</time>
      </trkpt>
      <trkpt lat="42.98606" lon="-0.10369">
        <ele>662.2</ele>
        <time>2022-06-08 14:01:47</time>
      </trkpt>
      <trkpt lat="42.98606" lon="-0.10354">
        <ele>660.4</ele>
        <time>2022-06-08 14:01:48</time>
      </trkpt>
      <trkpt lat="42.98606" lon="-0.10341">
        <ele>660</ele>
        <time>2022-06-08 14:01:49</time>
      </trkpt>
      <trkpt lat="42.98606" lon="-0.10327">
        <ele>659</ele>
        <time>2022-06-08 14:01:50</time>
      </trkpt>
      <trkpt lat="42.98606" lon="-0.10314">
        <ele>658.4</ele>
        <time>2022-06-08 14:01:51</time>
      </trkpt>
      <trkpt lat="42.98606" lon="-0.10301">
        <ele>656.4</ele>
        <time>2022-06-08 14:01:52</time>
      </trkpt>
      <trkpt lat="42.98606" lon="-0.10288">
        <ele>655.6</ele>
        <time>2022-06-08 14:01:53</time>
      </trkpt>
      <trkpt lat="42.98606" lon="-0.10274">
        <ele>654.8</ele>
        <time>2022-06-08 14:01:54</time>
      </trkpt>
      <trkpt lat="42.98605" lon="-0.10261">
        <ele>654.2</ele>
        <time>2022-06-08 14:01:55</time>
      </trkpt>
      <trkpt lat="42.98603" lon="-0.10247">
        <ele>653.6</ele>
        <time>2022-06-08 14:01:56</time>
      </trkpt>
      <trkpt lat="42.98601" lon="-0.10232">
        <ele>653</ele>
        <time>2022-06-08 14:01:57</time>
      </trkpt>
      <trkpt lat="42.98599" lon="-0.10218">
        <ele>652.2</ele>
        <time>2022-06-08 14:01:58</time>
      </trkpt>
      <trkpt lat="42.98597" lon="-0.10203">
        <ele>651.2</ele>
        <time>2022-06-08 14:01:59</time>
      </trkpt>
      <trkpt lat="42.98597" lon="-0.10187">
        <ele>650.2</ele>
        <time>2022-06-08 14:02:00</time>
      </trkpt>
      <trkpt lat="42.98595" lon="-0.10171">
        <ele>649.2</ele>
        <time>2022-06-08 14:02:01</time>
      </trkpt>
      <trkpt lat="42.98591" lon="-0.10155">
        <ele>648.4</ele>
        <time>2022-06-08 14:02:02</time>
      </trkpt>
      <trkpt lat="42.98586" lon="-0.1014">
        <ele>647.2</ele>
        <time>2022-06-08 14:02:03</time>
      </trkpt>
      <trkpt lat="42.9858" lon="-0.10125">
        <ele>646.6</ele>
        <time>2022-06-08 14:02:04</time>
      </trkpt>
      <trkpt lat="42.98574" lon="-0.10108">
        <ele>644.6</ele>
        <time>2022-06-08 14:02:05</time>
      </trkpt>
      <trkpt lat="42.98569" lon="-0.10092">
        <ele>643.6</ele>
        <time>2022-06-08 14:02:06</time>
      </trkpt>
      <trkpt lat="42.98564" lon="-0.10077">
        <ele>642.4</ele>
        <time>2022-06-08 14:02:07</time>
      </trkpt>
      <trkpt lat="42.98558" lon="-0.10062">
        <ele>642</ele>
        <time>2022-06-08 14:02:08</time>
      </trkpt>
      <trkpt lat="42.98553" lon="-0.10048">
        <ele>641.2</ele>
        <time>2022-06-08 14:02:09</time>
      </trkpt>
      <trkpt lat="42.98548" lon="-0.10034">
        <ele>640.8</ele>
        <time>2022-06-08 14:02:10</time>
      </trkpt>
      <trkpt lat="42.98543" lon="-0.10021">
        <ele>640.2</ele>
        <time>2022-06-08 14:02:11</time>
      </trkpt>
      <trkpt lat="42.98537" lon="-0.10009">
        <ele>639.6</ele>
        <time>2022-06-08 14:02:12</time>
      </trkpt>
      <trkpt lat="42.98532" lon="-0.09997">
        <ele>638.8</ele>
        <time>2022-06-08 14:02:13</time>
      </trkpt>
      <trkpt lat="42.98525" lon="-0.09986">
        <ele>638</ele>
        <time>2022-06-08 14:02:14</time>
      </trkpt>
      <trkpt lat="42.98519" lon="-0.09975">
        <ele>637.8</ele>
        <time>2022-06-08 14:02:15</time>
      </trkpt>
      <trkpt lat="42.98513" lon="-0.09964">
        <ele>637.4</ele>
        <time>2022-06-08 14:02:16</time>
      </trkpt>
      <trkpt lat="42.98507" lon="-0.09953">
        <ele>637.2</ele>
        <time>2022-06-08 14:02:17</time>
      </trkpt>
      <trkpt lat="42.98501" lon="-0.09942">
        <ele>637</ele>
        <time>2022-06-08 14:02:18</time>
      </trkpt>
      <trkpt lat="42.98496" lon="-0.09932">
        <ele>636.8</ele>
        <time>2022-06-08 14:02:19</time>
      </trkpt>
      <trkpt lat="42.9849" lon="-0.09921">
        <ele>636.4</ele>
        <time>2022-06-08 14:02:20</time>
      </trkpt>
      <trkpt lat="42.98484" lon="-0.0991">
        <ele>636.4</ele>
        <time>2022-06-08 14:02:21</time>
      </trkpt>
      <trkpt lat="42.98478" lon="-0.09899">
        <ele>636.2</ele>
        <time>2022-06-08 14:02:22</time>
      </trkpt>
      <trkpt lat="42.98472" lon="-0.09888">
        <ele>636.2</ele>
        <time>2022-06-08 14:02:23</time>
      </trkpt>
      <trkpt lat="42.98467" lon="-0.09877">
        <ele>636</ele>
        <time>2022-06-08 14:02:24</time>
      </trkpt>
      <trkpt lat="42.98462" lon="-0.09865">
        <ele>636</ele>
        <time>2022-06-08 14:02:25</time>
      </trkpt>
      <trkpt lat="42.98457" lon="-0.09853">
        <ele>635.8</ele>
        <time>2022-06-08 14:02:26</time>
      </trkpt>
      <trkpt lat="42.98451" lon="-0.09843">
        <ele>635.8</ele>
        <time>2022-06-08 14:02:27</time>
      </trkpt>
      <trkpt lat="42.98444" lon="-0.09833">
        <ele>635.6</ele>
        <time>2022-06-08 14:02:28</time>
      </trkpt>
      <trkpt lat="42.98438" lon="-0.09823">
        <ele>635.2</ele>
        <time>2022-06-08 14:02:29</time>
      </trkpt>
      <trkpt lat="42.98431" lon="-0.09814">
        <ele>635.2</ele>
        <time>2022-06-08 14:02:30</time>
      </trkpt>
      <trkpt lat="42.98424" lon="-0.09804">
        <ele>634.8</ele>
        <time>2022-06-08 14:02:31</time>
      </trkpt>
      <trkpt lat="42.98418" lon="-0.09793">
        <ele>634.6</ele>
        <time>2022-06-08 14:02:32</time>
      </trkpt>
      <trkpt lat="42.98412" lon="-0.09782">
        <ele>634.4</ele>
        <time>2022-06-08 14:02:33</time>
      </trkpt>
      <trkpt lat="42.98406" lon="-0.0977">
        <ele>634.6</ele>
        <time>2022-06-08 14:02:34</time>
      </trkpt>
      <trkpt lat="42.98401" lon="-0.09758">
        <ele>634.4</ele>
        <time>2022-06-08 14:02:35</time>
      </trkpt>
      <trkpt lat="42.98396" lon="-0.09745">
        <ele>633.8</ele>
        <time>2022-06-08 14:02:36</time>
      </trkpt>
      <trkpt lat="42.98392" lon="-0.09731">
        <ele>633.2</ele>
        <time>2022-06-08 14:02:37</time>
      </trkpt>
      <trkpt lat="42.98387" lon="-0.09717">
        <ele>633</ele>
        <time>2022-06-08 14:02:38</time>
      </trkpt>
      <trkpt lat="42.98382" lon="-0.09702">
        <ele>632</ele>
        <time>2022-06-08 14:02:39</time>
      </trkpt>
      <trkpt lat="42.98376" lon="-0.09688">
        <ele>631.2</ele>
        <time>2022-06-08 14:02:40</time>
      </trkpt>
      <trkpt lat="42.9837" lon="-0.09673">
        <ele>630.8</ele>
        <time>2022-06-08 14:02:41</time>
      </trkpt>
      <trkpt lat="42.98364" lon="-0.09658">
        <ele>629.8</ele>
        <time>2022-06-08 14:02:42</time>
      </trkpt>
      <trkpt lat="42.98357" lon="-0.09643">
        <ele>629.4</ele>
        <time>2022-06-08 14:02:43</time>
      </trkpt>
      <trkpt lat="42.98351" lon="-0.09628">
        <ele>628.8</ele>
        <time>2022-06-08 14:02:44</time>
      </trkpt>
      <trkpt lat="42.98346" lon="-0.09614">
        <ele>628</ele>
        <time>2022-06-08 14:02:45</time>
      </trkpt>
      <trkpt lat="42.98341" lon="-0.096">
        <ele>627</ele>
        <time>2022-06-08 14:02:46</time>
      </trkpt>
      <trkpt lat="42.98336" lon="-0.09588">
        <ele>625.8</ele>
        <time>2022-06-08 14:02:47</time>
      </trkpt>
      <trkpt lat="42.9833" lon="-0.09576">
        <ele>624.2</ele>
        <time>2022-06-08 14:02:48</time>
      </trkpt>
      <trkpt lat="42.98322" lon="-0.09565">
        <ele>623.6</ele>
        <time>2022-06-08 14:02:49</time>
      </trkpt>
      <trkpt lat="42.98312" lon="-0.09556">
        <ele>622.4</ele>
        <time>2022-06-08 14:02:50</time>
      </trkpt>
      <trkpt lat="42.98302" lon="-0.09547">
        <ele>622</ele>
        <time>2022-06-08 14:02:51</time>
      </trkpt>
      <trkpt lat="42.98292" lon="-0.09538">
        <ele>621</ele>
        <time>2022-06-08 14:02:52</time>
      </trkpt>
      <trkpt lat="42.98282" lon="-0.09529">
        <ele>620.2</ele>
        <time>2022-06-08 14:02:53</time>
      </trkpt>
      <trkpt lat="42.98271" lon="-0.0952">
        <ele>619.6</ele>
        <time>2022-06-08 14:02:54</time>
      </trkpt>
      <trkpt lat="42.9826" lon="-0.09512">
        <ele>619</ele>
        <time>2022-06-08 14:02:55</time>
      </trkpt>
      <trkpt lat="42.9825" lon="-0.09503">
        <ele>618.4</ele>
        <time>2022-06-08 14:02:56</time>
      </trkpt>
      <trkpt lat="42.98239" lon="-0.09495">
        <ele>616.8</ele>
        <time>2022-06-08 14:02:57</time>
      </trkpt>
      <trkpt lat="42.98229" lon="-0.09488">
        <ele>616.2</ele>
        <time>2022-06-08 14:02:58</time>
      </trkpt>
      <trkpt lat="42.98218" lon="-0.09482">
        <ele>615.4</ele>
        <time>2022-06-08 14:02:59</time>
      </trkpt>
      <trkpt lat="42.98207" lon="-0.09478">
        <ele>614.8</ele>
        <time>2022-06-08 14:03:00</time>
      </trkpt>
      <trkpt lat="42.98197" lon="-0.09475">
        <ele>613.8</ele>
        <time>2022-06-08 14:03:01</time>
      </trkpt>
      <trkpt lat="42.98187" lon="-0.09473">
        <ele>613.4</ele>
        <time>2022-06-08 14:03:02</time>
      </trkpt>
      <trkpt lat="42.98178" lon="-0.09471">
        <ele>612.6</ele>
        <time>2022-06-08 14:03:03</time>
      </trkpt>
      <trkpt lat="42.98168" lon="-0.09468">
        <ele>612.2</ele>
        <time>2022-06-08 14:03:04</time>
      </trkpt>
      <trkpt lat="42.98159" lon="-0.09462">
        <ele>611.2</ele>
        <time>2022-06-08 14:03:05</time>
      </trkpt>
      <trkpt lat="42.98151" lon="-0.09456">
        <ele>610.4</ele>
        <time>2022-06-08 14:03:06</time>
      </trkpt>
      <trkpt lat="42.98144" lon="-0.09448">
        <ele>610.2</ele>
        <time>2022-06-08 14:03:07</time>
      </trkpt>
      <trkpt lat="42.98136" lon="-0.09439">
        <ele>609.6</ele>
        <time>2022-06-08 14:03:08</time>
      </trkpt>
      <trkpt lat="42.98129" lon="-0.0943">
        <ele>609.2</ele>
        <time>2022-06-08 14:03:09</time>
      </trkpt>
      <trkpt lat="42.98121" lon="-0.09419">
        <ele>608.4</ele>
        <time>2022-06-08 14:03:10</time>
      </trkpt>
      <trkpt lat="42.98114" lon="-0.09409">
        <ele>607.8</ele>
        <time>2022-06-08 14:03:11</time>
      </trkpt>
      <trkpt lat="42.98106" lon="-0.09397">
        <ele>606.6</ele>
        <time>2022-06-08 14:03:12</time>
      </trkpt>
      <trkpt lat="42.98099" lon="-0.09386">
        <ele>606.2</ele>
        <time>2022-06-08 14:03:13</time>
      </trkpt>
      <trkpt lat="42.98092" lon="-0.09375">
        <ele>605.2</ele>
        <time>2022-06-08 14:03:14</time>
      </trkpt>
      <trkpt lat="42.98084" lon="-0.09364">
        <ele>604.4</ele>
        <time>2022-06-08 14:03:15</time>
      </trkpt>
      <trkpt lat="42.98077" lon="-0.09354">
        <ele>602</ele>
        <time>2022-06-08 14:03:16</time>
      </trkpt>
      <trkpt lat="42.98068" lon="-0.09341">
        <ele>601</ele>
        <time>2022-06-08 14:03:17</time>
      </trkpt>
      <trkpt lat="42.98063" lon="-0.09334">
        <ele>600.6</ele>
        <time>2022-06-08 14:03:18</time>
      </trkpt>
      <trkpt lat="42.98057" lon="-0.09326">
        <ele>599.6</ele>
        <time>2022-06-08 14:03:19</time>
      </trkpt>
      <trkpt lat="42.98052" lon="-0.09318">
        <ele>599.4</ele>
        <time>2022-06-08 14:03:20</time>
      </trkpt>
      <trkpt lat="42.98047" lon="-0.09311">
        <ele>599</ele>
        <time>2022-06-08 14:03:21</time>
      </trkpt>
      <trkpt lat="42.98043" lon="-0.09305">
        <ele>598.8</ele>
        <time>2022-06-08 14:03:22</time>
      </trkpt>
      <trkpt lat="42.9804" lon="-0.09298">
        <ele>598.6</ele>
        <time>2022-06-08 14:03:23</time>
      </trkpt>
      <trkpt lat="42.98037" lon="-0.09289">
        <ele>598.6</ele>
        <time>2022-06-08 14:03:24</time>
      </trkpt>
      <trkpt lat="42.98035" lon="-0.09281">
        <ele>598.2</ele>
        <time>2022-06-08 14:03:25</time>
      </trkpt>
      <trkpt lat="42.98033" lon="-0.09271">
        <ele>598</ele>
        <time>2022-06-08 14:03:26</time>
      </trkpt>
      <trkpt lat="42.98032" lon="-0.09262">
        <ele>597.8</ele>
        <time>2022-06-08 14:03:27</time>
      </trkpt>
      <trkpt lat="42.98031" lon="-0.09252">
        <ele>597.6</ele>
        <time>2022-06-08 14:03:28</time>
      </trkpt>
      <trkpt lat="42.9803" lon="-0.09243">
        <ele>597.2</ele>
        <time>2022-06-08 14:03:29</time>
      </trkpt>
      <trkpt lat="42.98029" lon="-0.09234">
        <ele>596.2</ele>
        <time>2022-06-08 14:03:30</time>
      </trkpt>
      <trkpt lat="42.98028" lon="-0.09225">
        <ele>595.6</ele>
        <time>2022-06-08 14:03:31</time>
      </trkpt>
      <trkpt lat="42.98027" lon="-0.09216">
        <ele>594.8</ele>
        <time>2022-06-08 14:03:32</time>
      </trkpt>
      <trkpt lat="42.98027" lon="-0.09207">
        <ele>594.4</ele>
        <time>2022-06-08 14:03:33</time>
      </trkpt>
      <trkpt lat="42.98027" lon="-0.09198">
        <ele>593.8</ele>
        <time>2022-06-08 14:03:34</time>
      </trkpt>
      <trkpt lat="42.98027" lon="-0.09189">
        <ele>593.8</ele>
        <time>2022-06-08 14:03:35</time>
      </trkpt>
      <trkpt lat="42.98028" lon="-0.09181">
        <ele>593.4</ele>
        <time>2022-06-08 14:03:36</time>
      </trkpt>
      <trkpt lat="42.98028" lon="-0.09173">
        <ele>593.2</ele>
        <time>2022-06-08 14:03:37</time>
      </trkpt>
      <trkpt lat="42.98027" lon="-0.09166">
        <ele>592</ele>
        <time>2022-06-08 14:03:38</time>
      </trkpt>
      <trkpt lat="42.98028" lon="-0.09159">
        <ele>591.8</ele>
        <time>2022-06-08 14:03:39</time>
      </trkpt>
      <trkpt lat="42.98028" lon="-0.09152">
        <ele>590.8</ele>
        <time>2022-06-08 14:03:40</time>
      </trkpt>
      <trkpt lat="42.98029" lon="-0.09143">
        <ele>590.4</ele>
        <time>2022-06-08 14:03:41</time>
      </trkpt>
      <trkpt lat="42.9803" lon="-0.09135">
        <ele>589.6</ele>
        <time>2022-06-08 14:03:42</time>
      </trkpt>
      <trkpt lat="42.98031" lon="-0.09128">
        <ele>589</ele>
        <time>2022-06-08 14:03:43</time>
      </trkpt>
      <trkpt lat="42.98031" lon="-0.09119">
        <ele>588.8</ele>
        <time>2022-06-08 14:03:44</time>
      </trkpt>
      <trkpt lat="42.98032" lon="-0.09113">
        <ele>588.6</ele>
        <time>2022-06-08 14:03:45</time>
      </trkpt>
      <trkpt lat="42.98032" lon="-0.09107">
        <ele>588.6</ele>
        <time>2022-06-08 14:03:46</time>
      </trkpt>
      <trkpt lat="42.98032" lon="-0.09102">
        <ele>588.2</ele>
        <time>2022-06-08 14:03:47</time>
      </trkpt>
      <trkpt lat="42.98033" lon="-0.09096">
        <ele>588</ele>
        <time>2022-06-08 14:03:48</time>
      </trkpt>
      <trkpt lat="42.98033" lon="-0.09091">
        <ele>587</ele>
        <time>2022-06-08 14:03:49</time>
      </trkpt>
      <trkpt lat="42.98033" lon="-0.09085">
        <ele>586.8</ele>
        <time>2022-06-08 14:03:50</time>
      </trkpt>
      <trkpt lat="42.98033" lon="-0.0908">
        <ele>586.4</ele>
        <time>2022-06-08 14:03:51</time>
      </trkpt>
      <trkpt lat="42.98033" lon="-0.09074">
        <ele>586.2</ele>
        <time>2022-06-08 14:03:52</time>
      </trkpt>
      <trkpt lat="42.98034" lon="-0.09069">
        <ele>586.2</ele>
        <time>2022-06-08 14:03:53</time>
      </trkpt>
      <trkpt lat="42.98034" lon="-0.09064">
        <ele>586</ele>
        <time>2022-06-08 14:03:54</time>
      </trkpt>
      <trkpt lat="42.98035" lon="-0.09059">
        <ele>585.8</ele>
        <time>2022-06-08 14:03:55</time>
      </trkpt>
      <trkpt lat="42.98035" lon="-0.09056">
        <ele>585.6</ele>
        <time>2022-06-08 14:03:56</time>
      </trkpt>
      <trkpt lat="42.98035" lon="-0.09053">
        <ele>585.4</ele>
        <time>2022-06-08 14:03:57</time>
      </trkpt>
      <trkpt lat="42.98036" lon="-0.0905">
        <ele>585.4</ele>
        <time>2022-06-08 14:03:58</time>
      </trkpt>
      <trkpt lat="42.98036" lon="-0.09047">
        <ele>585.4</ele>
        <time>2022-06-08 14:03:59</time>
      </trkpt>
      <trkpt lat="42.98036" lon="-0.09045">
        <ele>585.4</ele>
        <time>2022-06-08 14:04:00</time>
      </trkpt>
      <trkpt lat="42.98036" lon="-0.09043">
        <ele>585.4</ele>
        <time>2022-06-08 14:04:01</time>
      </trkpt>
      <trkpt lat="42.98036" lon="-0.09042">
        <ele>585.4</ele>
        <time>2022-06-08 14:04:02</time>
      </trkpt>
      <trkpt lat="42.98037" lon="-0.09041">
        <ele>585.4</ele>
        <time>2022-06-08 14:04:03</time>
      </trkpt>
      <trkpt lat="42.98037" lon="-0.0904">
        <ele>585.6</ele>
        <time>2022-06-08 14:04:04</time>
      </trkpt>
      <trkpt lat="42.98037" lon="-0.0904">
        <ele>585.6</ele>
        <time>2022-06-08 14:04:05</time>
      </trkpt>
      <trkpt lat="42.98037" lon="-0.0904">
        <ele>585.6</ele>
        <time>2022-06-08 14:04:06</time>
      </trkpt>
      <trkpt lat="42.98036" lon="-0.09046">
        <ele>585.4</ele>
        <time>2022-06-08 14:04:07</time>
      </trkpt>
      <trkpt lat="42.98031" lon="-0.09051">
        <ele>585.2</ele>
        <time>2022-06-08 14:04:08</time>
      </trkpt>
      <trkpt lat="42.98029" lon="-0.09052">
        <ele>585.2</ele>
        <time>2022-06-08 14:04:09</time>
      </trkpt>
      <trkpt lat="42.98026" lon="-0.09052">
        <ele>585.2</ele>
        <time>2022-06-08 14:04:10</time>
      </trkpt>
      <trkpt lat="42.98022" lon="-0.0905">
        <ele>585</ele>
        <time>2022-06-08 14:04:11</time>
      </trkpt>
      <trkpt lat="42.98018" lon="-0.09049">
        <ele>585</ele>
        <time>2022-06-08 14:04:12</time>
      </trkpt>
      <trkpt lat="42.98013" lon="-0.09047">
        <ele>584.8</ele>
        <time>2022-06-08 14:04:13</time>
      </trkpt>
      <trkpt lat="42.98008" lon="-0.09046">
        <ele>584.6</ele>
        <time>2022-06-08 14:04:14</time>
      </trkpt>
      <trkpt lat="42.98003" lon="-0.09044">
        <ele>584.6</ele>
        <time>2022-06-08 14:04:15</time>
      </trkpt>
      <trkpt lat="42.97997" lon="-0.09042">
        <ele>584.2</ele>
        <time>2022-06-08 14:04:16</time>
      </trkpt>
      <trkpt lat="42.97992" lon="-0.0904">
        <ele>583.8</ele>
        <time>2022-06-08 14:04:17</time>
      </trkpt>
      <trkpt lat="42.97987" lon="-0.09039">
        <ele>583.4</ele>
        <time>2022-06-08 14:04:18</time>
      </trkpt>
      <trkpt lat="42.97982" lon="-0.09038">
        <ele>583</ele>
        <time>2022-06-08 14:04:19</time>
      </trkpt>
      <trkpt lat="42.97978" lon="-0.09038">
        <ele>583</ele>
        <time>2022-06-08 14:04:20</time>
      </trkpt>
      <trkpt lat="42.97973" lon="-0.09038">
        <ele>582.2</ele>
        <time>2022-06-08 14:04:21</time>
      </trkpt>
      <trkpt lat="42.97968" lon="-0.09037">
        <ele>581.8</ele>
        <time>2022-06-08 14:04:22</time>
      </trkpt>
      <trkpt lat="42.97963" lon="-0.09036">
        <ele>581.2</ele>
        <time>2022-06-08 14:04:23</time>
      </trkpt>
      <trkpt lat="42.97957" lon="-0.09033">
        <ele>581.2</ele>
        <time>2022-06-08 14:04:24</time>
      </trkpt>
      <trkpt lat="42.97951" lon="-0.09029">
        <ele>581</ele>
        <time>2022-06-08 14:04:25</time>
      </trkpt>
      <trkpt lat="42.97945" lon="-0.09024">
        <ele>580.6</ele>
        <time>2022-06-08 14:04:26</time>
      </trkpt>
      <trkpt lat="42.97938" lon="-0.09019">
        <ele>579.8</ele>
        <time>2022-06-08 14:04:27</time>
      </trkpt>
      <trkpt lat="42.97931" lon="-0.09013">
        <ele>579.4</ele>
        <time>2022-06-08 14:04:28</time>
      </trkpt>
      <trkpt lat="42.97924" lon="-0.09007">
        <ele>578.4</ele>
        <time>2022-06-08 14:04:29</time>
      </trkpt>
      <trkpt lat="42.97917" lon="-0.09002">
        <ele>577.8</ele>
        <time>2022-06-08 14:04:30</time>
      </trkpt>
      <trkpt lat="42.9791" lon="-0.08996">
        <ele>577.4</ele>
        <time>2022-06-08 14:04:31</time>
      </trkpt>
      <trkpt lat="42.97903" lon="-0.0899">
        <ele>577</ele>
        <time>2022-06-08 14:04:32</time>
      </trkpt>
      <trkpt lat="42.97897" lon="-0.08985">
        <ele>576.8</ele>
        <time>2022-06-08 14:04:33</time>
      </trkpt>
      <trkpt lat="42.97891" lon="-0.08979">
        <ele>576.6</ele>
        <time>2022-06-08 14:04:34</time>
      </trkpt>
      <trkpt lat="42.97884" lon="-0.08973">
        <ele>576.4</ele>
        <time>2022-06-08 14:04:35</time>
      </trkpt>
      <trkpt lat="42.97878" lon="-0.08968">
        <ele>576.4</ele>
        <time>2022-06-08 14:04:36</time>
      </trkpt>
      <trkpt lat="42.97871" lon="-0.08965">
        <ele>576.4</ele>
        <time>2022-06-08 14:04:37</time>
      </trkpt>
      <trkpt lat="42.97866" lon="-0.08962">
        <ele>576.4</ele>
        <time>2022-06-08 14:04:38</time>
      </trkpt>
      <trkpt lat="42.9786" lon="-0.0896">
        <ele>576.4</ele>
        <time>2022-06-08 14:06:46</time>
      </trkpt>
      <trkpt lat="42.97854" lon="-0.08958">
        <ele>576.4</ele>
        <time>2022-06-08 14:06:49</time>
      </trkpt>
      <trkpt lat="42.97849" lon="-0.08956">
        <ele>576.4</ele>
        <time>2022-06-08 14:06:50</time>
      </trkpt>
      <trkpt lat="42.97843" lon="-0.08954">
        <ele>576.4</ele>
        <time>2022-06-08 14:06:51</time>
      </trkpt>
      <trkpt lat="42.97838" lon="-0.0895">
        <ele>576.4</ele>
        <time>2022-06-08 14:06:52</time>
      </trkpt>
      <trkpt lat="42.97833" lon="-0.08946">
        <ele>576.6</ele>
        <time>2022-06-08 14:06:53</time>
      </trkpt>
      <trkpt lat="42.97828" lon="-0.08942">
        <ele>576.6</ele>
        <time>2022-06-08 14:06:54</time>
      </trkpt>
      <trkpt lat="42.97824" lon="-0.08937">
        <ele>576.8</ele>
        <time>2022-06-08 14:06:55</time>
      </trkpt>
      <trkpt lat="42.9782" lon="-0.08931">
        <ele>577.2</ele>
        <time>2022-06-08 14:06:56</time>
      </trkpt>
      <trkpt lat="42.97816" lon="-0.08925">
        <ele>577</ele>
        <time>2022-06-08 14:06:57</time>
      </trkpt>
      <trkpt lat="42.97812" lon="-0.0892">
        <ele>577.4</ele>
        <time>2022-06-08 14:06:58</time>
      </trkpt>
      <trkpt lat="42.97807" lon="-0.08915">
        <ele>577.4</ele>
        <time>2022-06-08 14:06:59</time>
      </trkpt>
      <trkpt lat="42.97803" lon="-0.08911">
        <ele>577.8</ele>
        <time>2022-06-08 14:07:00</time>
      </trkpt>
      <trkpt lat="42.97799" lon="-0.08906">
        <ele>577.8</ele>
        <time>2022-06-08 14:07:01</time>
      </trkpt>
      <trkpt lat="42.97796" lon="-0.08903">
        <ele>578</ele>
        <time>2022-06-08 14:07:02</time>
      </trkpt>
      <trkpt lat="42.97792" lon="-0.089">
        <ele>578.4</ele>
        <time>2022-06-08 14:07:03</time>
      </trkpt>
      <trkpt lat="42.97787" lon="-0.08898">
        <ele>578.8</ele>
        <time>2022-06-08 14:07:04</time>
      </trkpt>
      <trkpt lat="42.97783" lon="-0.08895">
        <ele>579.2</ele>
        <time>2022-06-08 14:07:05</time>
      </trkpt>
      <trkpt lat="42.97778" lon="-0.08893">
        <ele>579.4</ele>
        <time>2022-06-08 14:07:06</time>
      </trkpt>
      <trkpt lat="42.97774" lon="-0.08891">
        <ele>579.6</ele>
        <time>2022-06-08 14:07:07</time>
      </trkpt>
      <trkpt lat="42.97769" lon="-0.08893">
        <ele>579.8</ele>
        <time>2022-06-08 14:07:08</time>
      </trkpt>
      <trkpt lat="42.97765" lon="-0.08895">
        <ele>580</ele>
        <time>2022-06-08 14:07:09</time>
      </trkpt>
      <trkpt lat="42.97761" lon="-0.08896">
        <ele>580</ele>
        <time>2022-06-08 14:07:10</time>
      </trkpt>
      <trkpt lat="42.97757" lon="-0.08896">
        <ele>580.2</ele>
        <time>2022-06-08 14:07:11</time>
      </trkpt>
      <trkpt lat="42.97753" lon="-0.08897">
        <ele>580.4</ele>
        <time>2022-06-08 14:07:12</time>
      </trkpt>
      <trkpt lat="42.97749" lon="-0.08896">
        <ele>580.6</ele>
        <time>2022-06-08 14:07:13</time>
      </trkpt>
      <trkpt lat="42.97746" lon="-0.08896">
        <ele>580.8</ele>
        <time>2022-06-08 14:07:14</time>
      </trkpt>
      <trkpt lat="42.97742" lon="-0.08895">
        <ele>581.2</ele>
        <time>2022-06-08 14:07:15</time>
      </trkpt>
      <trkpt lat="42.97739" lon="-0.08894">
        <ele>581.4</ele>
        <time>2022-06-08 14:07:16</time>
      </trkpt>
      <trkpt lat="42.97735" lon="-0.08893">
        <ele>581.8</ele>
        <time>2022-06-08 14:07:17</time>
      </trkpt>
      <trkpt lat="42.97732" lon="-0.08891">
        <ele>582.2</ele>
        <time>2022-06-08 14:07:18</time>
      </trkpt>
      <trkpt lat="42.97729" lon="-0.08889">
        <ele>582.2</ele>
        <time>2022-06-08 14:07:19</time>
      </trkpt>
      <trkpt lat="42.97726" lon="-0.08887">
        <ele>582.6</ele>
        <time>2022-06-08 14:07:20</time>
      </trkpt>
      <trkpt lat="42.97724" lon="-0.08884">
        <ele>582.6</ele>
        <time>2022-06-08 14:07:21</time>
      </trkpt>
      <trkpt lat="42.97721" lon="-0.08881">
        <ele>583</ele>
        <time>2022-06-08 14:07:22</time>
      </trkpt>
      <trkpt lat="42.97718" lon="-0.08878">
        <ele>583.2</ele>
        <time>2022-06-08 14:07:23</time>
      </trkpt>
      <trkpt lat="42.97716" lon="-0.08876">
        <ele>583.6</ele>
        <time>2022-06-08 14:07:24</time>
      </trkpt>
      <trkpt lat="42.97714" lon="-0.08873">
        <ele>583.8</ele>
        <time>2022-06-08 14:07:25</time>
      </trkpt>
      <trkpt lat="42.97712" lon="-0.08871">
        <ele>584</ele>
        <time>2022-06-08 14:07:26</time>
      </trkpt>
      <trkpt lat="42.9771" lon="-0.08868">
        <ele>584.4</ele>
        <time>2022-06-08 14:07:27</time>
      </trkpt>
      <trkpt lat="42.97708" lon="-0.08866">
        <ele>584.6</ele>
        <time>2022-06-08 14:07:28</time>
      </trkpt>
      <trkpt lat="42.97706" lon="-0.08864">
        <ele>584.8</ele>
        <time>2022-06-08 14:07:29</time>
      </trkpt>
      <trkpt lat="42.97705" lon="-0.08862">
        <ele>585.2</ele>
        <time>2022-06-08 14:07:30</time>
      </trkpt>
      <trkpt lat="42.97703" lon="-0.08859">
        <ele>585.6</ele>
        <time>2022-06-08 14:07:31</time>
      </trkpt>
      <trkpt lat="42.97701" lon="-0.08857">
        <ele>585.8</ele>
        <time>2022-06-08 14:07:32</time>
      </trkpt>
      <trkpt lat="42.97698" lon="-0.08855">
        <ele>586.2</ele>
        <time>2022-06-08 14:07:33</time>
      </trkpt>
      <trkpt lat="42.97696" lon="-0.08853">
        <ele>586.2</ele>
        <time>2022-06-08 14:07:34</time>
      </trkpt>
      <trkpt lat="42.97694" lon="-0.08851">
        <ele>586.4</ele>
        <time>2022-06-08 14:07:35</time>
      </trkpt>
      <trkpt lat="42.97691" lon="-0.08849">
        <ele>586.6</ele>
        <time>2022-06-08 14:07:36</time>
      </trkpt>
      <trkpt lat="42.97689" lon="-0.08847">
        <ele>587</ele>
        <time>2022-06-08 14:07:37</time>
      </trkpt>
      <trkpt lat="42.97687" lon="-0.08844">
        <ele>587.2</ele>
        <time>2022-06-08 14:07:38</time>
      </trkpt>
      <trkpt lat="42.97685" lon="-0.08841">
        <ele>587.4</ele>
        <time>2022-06-08 14:07:39</time>
      </trkpt>
      <trkpt lat="42.97683" lon="-0.08839">
        <ele>587.8</ele>
        <time>2022-06-08 14:07:40</time>
      </trkpt>
      <trkpt lat="42.97682" lon="-0.08836">
        <ele>588</ele>
        <time>2022-06-08 14:07:41</time>
      </trkpt>
      <trkpt lat="42.9768" lon="-0.08833">
        <ele>588.2</ele>
        <time>2022-06-08 14:07:42</time>
      </trkpt>
      <trkpt lat="42.97678" lon="-0.0883">
        <ele>588.4</ele>
        <time>2022-06-08 14:07:43</time>
      </trkpt>
      <trkpt lat="42.97676" lon="-0.08827">
        <ele>588.6</ele>
        <time>2022-06-08 14:07:44</time>
      </trkpt>
      <trkpt lat="42.97674" lon="-0.08824">
        <ele>588.8</ele>
        <time>2022-06-08 14:07:45</time>
      </trkpt>
      <trkpt lat="42.97672" lon="-0.08821">
        <ele>589.4</ele>
        <time>2022-06-08 14:07:46</time>
      </trkpt>
      <trkpt lat="42.9767" lon="-0.08818">
        <ele>589.6</ele>
        <time>2022-06-08 14:07:47</time>
      </trkpt>
      <trkpt lat="42.97668" lon="-0.08815">
        <ele>590</ele>
        <time>2022-06-08 14:07:48</time>
      </trkpt>
      <trkpt lat="42.97666" lon="-0.08812">
        <ele>590</ele>
        <time>2022-06-08 14:07:49</time>
      </trkpt>
      <trkpt lat="42.97664" lon="-0.08808">
        <ele>590.2</ele>
        <time>2022-06-08 14:07:50</time>
      </trkpt>
      <trkpt lat="42.97663" lon="-0.08806">
        <ele>590.6</ele>
        <time>2022-06-08 14:07:51</time>
      </trkpt>
      <trkpt lat="42.97661" lon="-0.08802">
        <ele>590.8</ele>
        <time>2022-06-08 14:07:52</time>
      </trkpt>
      <trkpt lat="42.9766" lon="-0.08799">
        <ele>591</ele>
        <time>2022-06-08 14:07:53</time>
      </trkpt>
      <trkpt lat="42.97658" lon="-0.08795">
        <ele>591.4</ele>
        <time>2022-06-08 14:07:54</time>
      </trkpt>
      <trkpt lat="42.97656" lon="-0.08792">
        <ele>591.6</ele>
        <time>2022-06-08 14:07:55</time>
      </trkpt>
      <trkpt lat="42.97654" lon="-0.0879">
        <ele>591.8</ele>
        <time>2022-06-08 14:07:56</time>
      </trkpt>
      <trkpt lat="42.97653" lon="-0.08786">
        <ele>592</ele>
        <time>2022-06-08 14:07:57</time>
      </trkpt>
      <trkpt lat="42.97651" lon="-0.08783">
        <ele>592.2</ele>
        <time>2022-06-08 14:07:58</time>
      </trkpt>
      <trkpt lat="42.97648" lon="-0.08778">
        <ele>592.6</ele>
        <time>2022-06-08 14:07:59</time>
      </trkpt>
      <trkpt lat="42.97646" lon="-0.08773">
        <ele>592.8</ele>
        <time>2022-06-08 14:08:00</time>
      </trkpt>
      <trkpt lat="42.97644" lon="-0.0877">
        <ele>593.2</ele>
        <time>2022-06-08 14:08:01</time>
      </trkpt>
      <trkpt lat="42.97642" lon="-0.08768">
        <ele>593.4</ele>
        <time>2022-06-08 14:08:02</time>
      </trkpt>
      <trkpt lat="42.97641" lon="-0.08764">
        <ele>593.6</ele>
        <time>2022-06-08 14:08:03</time>
      </trkpt>
      <trkpt lat="42.9764" lon="-0.0876">
        <ele>594</ele>
        <time>2022-06-08 14:08:04</time>
      </trkpt>
      <trkpt lat="42.97639" lon="-0.08756">
        <ele>594</ele>
        <time>2022-06-08 14:08:05</time>
      </trkpt>
      <trkpt lat="42.97637" lon="-0.08752">
        <ele>594.4</ele>
        <time>2022-06-08 14:08:06</time>
      </trkpt>
      <trkpt lat="42.97636" lon="-0.08749">
        <ele>594.6</ele>
        <time>2022-06-08 14:08:07</time>
      </trkpt>
      <trkpt lat="42.97635" lon="-0.08745">
        <ele>594.8</ele>
        <time>2022-06-08 14:08:08</time>
      </trkpt>
      <trkpt lat="42.97634" lon="-0.08742">
        <ele>595</ele>
        <time>2022-06-08 14:08:09</time>
      </trkpt>
      <trkpt lat="42.97633" lon="-0.08739">
        <ele>595.2</ele>
        <time>2022-06-08 14:08:10</time>
      </trkpt>
      <trkpt lat="42.97632" lon="-0.08736">
        <ele>595.4</ele>
        <time>2022-06-08 14:08:11</time>
      </trkpt>
      <trkpt lat="42.97631" lon="-0.08733">
        <ele>595.8</ele>
        <time>2022-06-08 14:08:12</time>
      </trkpt>
      <trkpt lat="42.9763" lon="-0.0873">
        <ele>595.8</ele>
        <time>2022-06-08 14:08:13</time>
      </trkpt>
      <trkpt lat="42.97629" lon="-0.08726">
        <ele>596</ele>
        <time>2022-06-08 14:08:14</time>
      </trkpt>
      <trkpt lat="42.97629" lon="-0.08723">
        <ele>596.4</ele>
        <time>2022-06-08 14:08:15</time>
      </trkpt>
      <trkpt lat="42.97628" lon="-0.08719">
        <ele>596.6</ele>
        <time>2022-06-08 14:08:16</time>
      </trkpt>
      <trkpt lat="42.97628" lon="-0.08715">
        <ele>597</ele>
        <time>2022-06-08 14:08:17</time>
      </trkpt>
      <trkpt lat="42.97627" lon="-0.08712">
        <ele>597.2</ele>
        <time>2022-06-08 14:08:18</time>
      </trkpt>
      <trkpt lat="42.97627" lon="-0.08708">
        <ele>597.4</ele>
        <time>2022-06-08 14:08:19</time>
      </trkpt>
      <trkpt lat="42.97626" lon="-0.08704">
        <ele>597.6</ele>
        <time>2022-06-08 14:08:20</time>
      </trkpt>
      <trkpt lat="42.97625" lon="-0.087">
        <ele>597.8</ele>
        <time>2022-06-08 14:08:21</time>
      </trkpt>
      <trkpt lat="42.97625" lon="-0.08695">
        <ele>598</ele>
        <time>2022-06-08 14:08:22</time>
      </trkpt>
      <trkpt lat="42.97624" lon="-0.08691">
        <ele>598.2</ele>
        <time>2022-06-08 14:08:23</time>
      </trkpt>
      <trkpt lat="42.97624" lon="-0.08687">
        <ele>598.4</ele>
        <time>2022-06-08 14:08:24</time>
      </trkpt>
      <trkpt lat="42.97623" lon="-0.08683">
        <ele>598.8</ele>
        <time>2022-06-08 14:08:25</time>
      </trkpt>
      <trkpt lat="42.97622" lon="-0.08679">
        <ele>599</ele>
        <time>2022-06-08 14:08:26</time>
      </trkpt>
      <trkpt lat="42.97622" lon="-0.08675">
        <ele>599.2</ele>
        <time>2022-06-08 14:08:27</time>
      </trkpt>
      <trkpt lat="42.97622" lon="-0.08671">
        <ele>599.4</ele>
        <time>2022-06-08 14:08:28</time>
      </trkpt>
      <trkpt lat="42.97622" lon="-0.08666">
        <ele>599.6</ele>
        <time>2022-06-08 14:08:29</time>
      </trkpt>
      <trkpt lat="42.97622" lon="-0.08661">
        <ele>599.8</ele>
        <time>2022-06-08 14:08:30</time>
      </trkpt>
      <trkpt lat="42.97622" lon="-0.08657">
        <ele>599.8</ele>
        <time>2022-06-08 14:08:31</time>
      </trkpt>
      <trkpt lat="42.97622" lon="-0.08653">
        <ele>599.8</ele>
        <time>2022-06-08 14:08:32</time>
      </trkpt>
      <trkpt lat="42.97623" lon="-0.08649">
        <ele>600</ele>
        <time>2022-06-08 14:08:33</time>
      </trkpt>
      <trkpt lat="42.97623" lon="-0.08644">
        <ele>600</ele>
        <time>2022-06-08 14:08:34</time>
      </trkpt>
      <trkpt lat="42.97623" lon="-0.0864">
        <ele>600.2</ele>
        <time>2022-06-08 14:08:35</time>
      </trkpt>
      <trkpt lat="42.97624" lon="-0.08636">
        <ele>600.4</ele>
        <time>2022-06-08 14:08:36</time>
      </trkpt>
      <trkpt lat="42.97625" lon="-0.08631">
        <ele>600.4</ele>
        <time>2022-06-08 14:08:37</time>
      </trkpt>
      <trkpt lat="42.97625" lon="-0.08626">
        <ele>601</ele>
        <time>2022-06-08 14:08:38</time>
      </trkpt>
      <trkpt lat="42.97625" lon="-0.08622">
        <ele>601</ele>
        <time>2022-06-08 14:08:39</time>
      </trkpt>
      <trkpt lat="42.97625" lon="-0.08617">
        <ele>601.2</ele>
        <time>2022-06-08 14:08:40</time>
      </trkpt>
      <trkpt lat="42.97625" lon="-0.08612">
        <ele>601.4</ele>
        <time>2022-06-08 14:08:41</time>
      </trkpt>
      <trkpt lat="42.97624" lon="-0.08607">
        <ele>601.4</ele>
        <time>2022-06-08 14:08:42</time>
      </trkpt>
      <trkpt lat="42.97623" lon="-0.08603">
        <ele>601.6</ele>
        <time>2022-06-08 14:08:43</time>
      </trkpt>
      <trkpt lat="42.97623" lon="-0.08598">
        <ele>601.8</ele>
        <time>2022-06-08 14:08:44</time>
      </trkpt>
      <trkpt lat="42.97622" lon="-0.08593">
        <ele>602</ele>
        <time>2022-06-08 14:08:45</time>
      </trkpt>
      <trkpt lat="42.97622" lon="-0.08589">
        <ele>602</ele>
        <time>2022-06-08 14:08:46</time>
      </trkpt>
      <trkpt lat="42.97621" lon="-0.08584">
        <ele>602</ele>
        <time>2022-06-08 14:08:47</time>
      </trkpt>
      <trkpt lat="42.9762" lon="-0.08579">
        <ele>602</ele>
        <time>2022-06-08 14:08:48</time>
      </trkpt>
      <trkpt lat="42.97618" lon="-0.08572">
        <ele>602</ele>
        <time>2022-06-08 14:08:49</time>
      </trkpt>
      <trkpt lat="42.97616" lon="-0.08566">
        <ele>602</ele>
        <time>2022-06-08 14:08:50</time>
      </trkpt>
      <trkpt lat="42.97613" lon="-0.08559">
        <ele>601.8</ele>
        <time>2022-06-08 14:08:51</time>
      </trkpt>
      <trkpt lat="42.97609" lon="-0.08552">
        <ele>601.8</ele>
        <time>2022-06-08 14:08:52</time>
      </trkpt>
      <trkpt lat="42.97604" lon="-0.08546">
        <ele>602</ele>
        <time>2022-06-08 14:08:53</time>
      </trkpt>
      <trkpt lat="42.97599" lon="-0.08539">
        <ele>601.6</ele>
        <time>2022-06-08 14:08:54</time>
      </trkpt>
      <trkpt lat="42.97593" lon="-0.08533">
        <ele>601.2</ele>
        <time>2022-06-08 14:08:55</time>
      </trkpt>
      <trkpt lat="42.97588" lon="-0.08528">
        <ele>600</ele>
        <time>2022-06-08 14:08:56</time>
      </trkpt>
      <trkpt lat="42.97582" lon="-0.08523">
        <ele>599.6</ele>
        <time>2022-06-08 14:08:57</time>
      </trkpt>
      <trkpt lat="42.97577" lon="-0.08519">
        <ele>598.6</ele>
        <time>2022-06-08 14:08:58</time>
      </trkpt>
      <trkpt lat="42.97571" lon="-0.08514">
        <ele>598</ele>
        <time>2022-06-08 14:08:59</time>
      </trkpt>
      <trkpt lat="42.97566" lon="-0.08508">
        <ele>597.2</ele>
        <time>2022-06-08 14:09:00</time>
      </trkpt>
      <trkpt lat="42.97562" lon="-0.08501">
        <ele>597</ele>
        <time>2022-06-08 14:09:01</time>
      </trkpt>
      <trkpt lat="42.97558" lon="-0.08493">
        <ele>596.6</ele>
        <time>2022-06-08 14:09:02</time>
      </trkpt>
      <trkpt lat="42.97553" lon="-0.08485">
        <ele>596.4</ele>
        <time>2022-06-08 14:09:03</time>
      </trkpt>
      <trkpt lat="42.97549" lon="-0.08477">
        <ele>596</ele>
        <time>2022-06-08 14:09:04</time>
      </trkpt>
      <trkpt lat="42.97544" lon="-0.0847">
        <ele>595.4</ele>
        <time>2022-06-08 14:09:05</time>
      </trkpt>
      <trkpt lat="42.97538" lon="-0.08462">
        <ele>595.2</ele>
        <time>2022-06-08 14:09:06</time>
      </trkpt>
      <trkpt lat="42.97533" lon="-0.08454">
        <ele>594.6</ele>
        <time>2022-06-08 14:09:07</time>
      </trkpt>
      <trkpt lat="42.97526" lon="-0.08446">
        <ele>594.4</ele>
        <time>2022-06-08 14:09:08</time>
      </trkpt>
      <trkpt lat="42.97518" lon="-0.0844">
        <ele>593.4</ele>
        <time>2022-06-08 14:09:09</time>
      </trkpt>
      <trkpt lat="42.97511" lon="-0.08433">
        <ele>592.6</ele>
        <time>2022-06-08 14:09:10</time>
      </trkpt>
      <trkpt lat="42.97504" lon="-0.08426">
        <ele>591.6</ele>
        <time>2022-06-08 14:09:11</time>
      </trkpt>
      <trkpt lat="42.97496" lon="-0.0842">
        <ele>591.4</ele>
        <time>2022-06-08 14:09:12</time>
      </trkpt>
      <trkpt lat="42.97489" lon="-0.08413">
        <ele>591.2</ele>
        <time>2022-06-08 14:09:13</time>
      </trkpt>
      <trkpt lat="42.97482" lon="-0.08407">
        <ele>591</ele>
        <time>2022-06-08 14:09:14</time>
      </trkpt>
      <trkpt lat="42.97474" lon="-0.08402">
        <ele>590.4</ele>
        <time>2022-06-08 14:09:15</time>
      </trkpt>
      <trkpt lat="42.97467" lon="-0.08396">
        <ele>590.2</ele>
        <time>2022-06-08 14:09:16</time>
      </trkpt>
      <trkpt lat="42.9746" lon="-0.0839">
        <ele>590</ele>
        <time>2022-06-08 14:09:17</time>
      </trkpt>
      <trkpt lat="42.97452" lon="-0.08385">
        <ele>589.6</ele>
        <time>2022-06-08 14:09:18</time>
      </trkpt>
      <trkpt lat="42.97444" lon="-0.0838">
        <ele>589.4</ele>
        <time>2022-06-08 14:09:19</time>
      </trkpt>
      <trkpt lat="42.97436" lon="-0.08376">
        <ele>589</ele>
        <time>2022-06-08 14:09:20</time>
      </trkpt>
      <trkpt lat="42.97427" lon="-0.08371">
        <ele>588.8</ele>
        <time>2022-06-08 14:09:21</time>
      </trkpt>
      <trkpt lat="42.97419" lon="-0.08367">
        <ele>588.4</ele>
        <time>2022-06-08 14:09:22</time>
      </trkpt>
      <trkpt lat="42.97411" lon="-0.08362">
        <ele>588</ele>
        <time>2022-06-08 14:09:23</time>
      </trkpt>
      <trkpt lat="42.97403" lon="-0.08357">
        <ele>587.4</ele>
        <time>2022-06-08 14:09:24</time>
      </trkpt>
      <trkpt lat="42.97394" lon="-0.08353">
        <ele>587.2</ele>
        <time>2022-06-08 14:09:25</time>
      </trkpt>
      <trkpt lat="42.97384" lon="-0.0835">
        <ele>586.8</ele>
        <time>2022-06-08 14:09:26</time>
      </trkpt>
      <trkpt lat="42.97375" lon="-0.08346">
        <ele>586.8</ele>
        <time>2022-06-08 14:09:27</time>
      </trkpt>
      <trkpt lat="42.97367" lon="-0.08341">
        <ele>586.6</ele>
        <time>2022-06-08 14:09:28</time>
      </trkpt>
      <trkpt lat="42.97359" lon="-0.08336">
        <ele>585.8</ele>
        <time>2022-06-08 14:09:29</time>
      </trkpt>
      <trkpt lat="42.97351" lon="-0.08329">
        <ele>585.4</ele>
        <time>2022-06-08 14:09:30</time>
      </trkpt>
      <trkpt lat="42.97342" lon="-0.08323">
        <ele>585</ele>
        <time>2022-06-08 14:09:31</time>
      </trkpt>
      <trkpt lat="42.97332" lon="-0.08317">
        <ele>585</ele>
        <time>2022-06-08 14:09:32</time>
      </trkpt>
      <trkpt lat="42.97322" lon="-0.08313">
        <ele>584.2</ele>
        <time>2022-06-08 14:09:33</time>
      </trkpt>
      <trkpt lat="42.97314" lon="-0.0831">
        <ele>584</ele>
        <time>2022-06-08 14:09:34</time>
      </trkpt>
      <trkpt lat="42.97304" lon="-0.08307">
        <ele>583.4</ele>
        <time>2022-06-08 14:09:35</time>
      </trkpt>
      <trkpt lat="42.97294" lon="-0.08303">
        <ele>583</ele>
        <time>2022-06-08 14:09:36</time>
      </trkpt>
      <trkpt lat="42.97284" lon="-0.08301">
        <ele>582.6</ele>
        <time>2022-06-08 14:09:37</time>
      </trkpt>
      <trkpt lat="42.97274" lon="-0.08298">
        <ele>582.2</ele>
        <time>2022-06-08 14:09:38</time>
      </trkpt>
      <trkpt lat="42.97264" lon="-0.08295">
        <ele>581.4</ele>
        <time>2022-06-08 14:09:39</time>
      </trkpt>
      <trkpt lat="42.97255" lon="-0.08291">
        <ele>581</ele>
        <time>2022-06-08 14:09:40</time>
      </trkpt>
      <trkpt lat="42.97245" lon="-0.08288">
        <ele>580.4</ele>
        <time>2022-06-08 14:09:41</time>
      </trkpt>
      <trkpt lat="42.97235" lon="-0.08284">
        <ele>580</ele>
        <time>2022-06-08 14:09:42</time>
      </trkpt>
      <trkpt lat="42.97225" lon="-0.08279">
        <ele>579.8</ele>
        <time>2022-06-08 14:09:43</time>
      </trkpt>
      <trkpt lat="42.97216" lon="-0.08274">
        <ele>579.6</ele>
        <time>2022-06-08 14:09:44</time>
      </trkpt>
      <trkpt lat="42.97207" lon="-0.08268">
        <ele>579.4</ele>
        <time>2022-06-08 14:09:45</time>
      </trkpt>
      <trkpt lat="42.97198" lon="-0.08259">
        <ele>578.6</ele>
        <time>2022-06-08 14:09:46</time>
      </trkpt>
      <trkpt lat="42.97191" lon="-0.08253">
        <ele>578.4</ele>
        <time>2022-06-08 14:09:47</time>
      </trkpt>
      <trkpt lat="42.97183" lon="-0.08245">
        <ele>578</ele>
        <time>2022-06-08 14:09:48</time>
      </trkpt>
      <trkpt lat="42.97174" lon="-0.08237">
        <ele>577.8</ele>
        <time>2022-06-08 14:09:49</time>
      </trkpt>
      <trkpt lat="42.97166" lon="-0.08229">
        <ele>577</ele>
        <time>2022-06-08 14:09:50</time>
      </trkpt>
      <trkpt lat="42.97158" lon="-0.08221">
        <ele>576.6</ele>
        <time>2022-06-08 14:09:51</time>
      </trkpt>
      <trkpt lat="42.97151" lon="-0.08212">
        <ele>575.8</ele>
        <time>2022-06-08 14:09:52</time>
      </trkpt>
      <trkpt lat="42.97144" lon="-0.08203">
        <ele>575.4</ele>
        <time>2022-06-08 14:09:53</time>
      </trkpt>
      <trkpt lat="42.97138" lon="-0.08193">
        <ele>574.8</ele>
        <time>2022-06-08 14:09:54</time>
      </trkpt>
      <trkpt lat="42.97132" lon="-0.08182">
        <ele>574.4</ele>
        <time>2022-06-08 14:09:55</time>
      </trkpt>
      <trkpt lat="42.97127" lon="-0.0817">
        <ele>574.2</ele>
        <time>2022-06-08 14:09:56</time>
      </trkpt>
      <trkpt lat="42.97122" lon="-0.08158">
        <ele>573.8</ele>
        <time>2022-06-08 14:09:57</time>
      </trkpt>
      <trkpt lat="42.97118" lon="-0.08145">
        <ele>573.6</ele>
        <time>2022-06-08 14:09:58</time>
      </trkpt>
      <trkpt lat="42.97113" lon="-0.08132">
        <ele>573.4</ele>
        <time>2022-06-08 14:09:59</time>
      </trkpt>
      <trkpt lat="42.9711" lon="-0.08119">
        <ele>572.8</ele>
        <time>2022-06-08 14:10:00</time>
      </trkpt>
      <trkpt lat="42.97106" lon="-0.08104">
        <ele>571.4</ele>
        <time>2022-06-08 14:10:01</time>
      </trkpt>
      <trkpt lat="42.97103" lon="-0.0809">
        <ele>571</ele>
        <time>2022-06-08 14:10:02</time>
      </trkpt>
      <trkpt lat="42.97099" lon="-0.08076">
        <ele>569.8</ele>
        <time>2022-06-08 14:10:03</time>
      </trkpt>
      <trkpt lat="42.97097" lon="-0.08061">
        <ele>569.4</ele>
        <time>2022-06-08 14:10:04</time>
      </trkpt>
      <trkpt lat="42.97092" lon="-0.08048">
        <ele>568.4</ele>
        <time>2022-06-08 14:10:05</time>
      </trkpt>
      <trkpt lat="42.97085" lon="-0.08036">
        <ele>567.4</ele>
        <time>2022-06-08 14:10:06</time>
      </trkpt>
      <trkpt lat="42.97078" lon="-0.08023">
        <ele>567</ele>
        <time>2022-06-08 14:10:07</time>
      </trkpt>
      <trkpt lat="42.97071" lon="-0.08012">
        <ele>566.4</ele>
        <time>2022-06-08 14:10:08</time>
      </trkpt>
      <trkpt lat="42.97063" lon="-0.08">
        <ele>566</ele>
        <time>2022-06-08 14:10:09</time>
      </trkpt>
      <trkpt lat="42.97056" lon="-0.07989">
        <ele>565</ele>
        <time>2022-06-08 14:10:10</time>
      </trkpt>
      <trkpt lat="42.97048" lon="-0.07976">
        <ele>564.6</ele>
        <time>2022-06-08 14:10:11</time>
      </trkpt>
      <trkpt lat="42.97041" lon="-0.07961">
        <ele>563.4</ele>
        <time>2022-06-08 14:10:12</time>
      </trkpt>
      <trkpt lat="42.97032" lon="-0.07944">
        <ele>563.2</ele>
        <time>2022-06-08 14:10:13</time>
      </trkpt>
      <trkpt lat="42.97026" lon="-0.07931">
        <ele>562.6</ele>
        <time>2022-06-08 14:10:14</time>
      </trkpt>
      <trkpt lat="42.97018" lon="-0.07915">
        <ele>562.2</ele>
        <time>2022-06-08 14:10:15</time>
      </trkpt>
      <trkpt lat="42.97009" lon="-0.07899">
        <ele>560.8</ele>
        <time>2022-06-08 14:10:16</time>
      </trkpt>
      <trkpt lat="42.96999" lon="-0.07885">
        <ele>559.8</ele>
        <time>2022-06-08 14:10:17</time>
      </trkpt>
      <trkpt lat="42.96989" lon="-0.07872">
        <ele>557.2</ele>
        <time>2022-06-08 14:10:18</time>
      </trkpt>
      <trkpt lat="42.96978" lon="-0.07861">
        <ele>555.2</ele>
        <time>2022-06-08 14:10:19</time>
      </trkpt>
      <trkpt lat="42.96967" lon="-0.07851">
        <ele>554.8</ele>
        <time>2022-06-08 14:10:20</time>
      </trkpt>
      <trkpt lat="42.96956" lon="-0.0784">
        <ele>553.4</ele>
        <time>2022-06-08 14:10:21</time>
      </trkpt>
      <trkpt lat="42.96944" lon="-0.07831">
        <ele>552.2</ele>
        <time>2022-06-08 14:10:22</time>
      </trkpt>
      <trkpt lat="42.96932" lon="-0.07822">
        <ele>551</ele>
        <time>2022-06-08 14:10:23</time>
      </trkpt>
      <trkpt lat="42.96922" lon="-0.07813">
        <ele>550.6</ele>
        <time>2022-06-08 14:10:24</time>
      </trkpt>
      <trkpt lat="42.96911" lon="-0.07803">
        <ele>550.2</ele>
        <time>2022-06-08 14:10:25</time>
      </trkpt>
      <trkpt lat="42.96903" lon="-0.07794">
        <ele>549.8</ele>
        <time>2022-06-08 14:10:26</time>
      </trkpt>
      <trkpt lat="42.96893" lon="-0.07784">
        <ele>549</ele>
        <time>2022-06-08 14:10:27</time>
      </trkpt>
      <trkpt lat="42.96885" lon="-0.07774">
        <ele>548.4</ele>
        <time>2022-06-08 14:10:28</time>
      </trkpt>
      <trkpt lat="42.96877" lon="-0.07763">
        <ele>548</ele>
        <time>2022-06-08 14:10:29</time>
      </trkpt>
      <trkpt lat="42.96868" lon="-0.07751">
        <ele>547.6</ele>
        <time>2022-06-08 14:10:30</time>
      </trkpt>
      <trkpt lat="42.9686" lon="-0.07741">
        <ele>547.2</ele>
        <time>2022-06-08 14:10:31</time>
      </trkpt>
      <trkpt lat="42.96851" lon="-0.07729">
        <ele>546.6</ele>
        <time>2022-06-08 14:10:32</time>
      </trkpt>
      <trkpt lat="42.96841" lon="-0.07718">
        <ele>546</ele>
        <time>2022-06-08 14:10:33</time>
      </trkpt>
      <trkpt lat="42.9683" lon="-0.07706">
        <ele>545.2</ele>
        <time>2022-06-08 14:10:34</time>
      </trkpt>
      <trkpt lat="42.9682" lon="-0.07695">
        <ele>544.8</ele>
        <time>2022-06-08 14:10:35</time>
      </trkpt>
      <trkpt lat="42.96809" lon="-0.07684">
        <ele>543.6</ele>
        <time>2022-06-08 14:10:36</time>
      </trkpt>
      <trkpt lat="42.96799" lon="-0.07673">
        <ele>543.2</ele>
        <time>2022-06-08 14:10:37</time>
      </trkpt>
      <trkpt lat="42.96788" lon="-0.07662">
        <ele>542</ele>
        <time>2022-06-08 14:10:38</time>
      </trkpt>
      <trkpt lat="42.96777" lon="-0.07653">
        <ele>541.4</ele>
        <time>2022-06-08 14:10:39</time>
      </trkpt>
      <trkpt lat="42.96765" lon="-0.07644">
        <ele>539.8</ele>
        <time>2022-06-08 14:10:40</time>
      </trkpt>
      <trkpt lat="42.96752" lon="-0.07635">
        <ele>538.4</ele>
        <time>2022-06-08 14:10:41</time>
      </trkpt>
      <trkpt lat="42.9674" lon="-0.07628">
        <ele>536.8</ele>
        <time>2022-06-08 14:10:42</time>
      </trkpt>
      <trkpt lat="42.96727" lon="-0.07621">
        <ele>535.2</ele>
        <time>2022-06-08 14:10:43</time>
      </trkpt>
      <trkpt lat="42.96715" lon="-0.07614">
        <ele>534.4</ele>
        <time>2022-06-08 14:10:44</time>
      </trkpt>
      <trkpt lat="42.96703" lon="-0.07608">
        <ele>533.6</ele>
        <time>2022-06-08 14:10:45</time>
      </trkpt>
      <trkpt lat="42.96692" lon="-0.07603">
        <ele>532.2</ele>
        <time>2022-06-08 14:10:46</time>
      </trkpt>
      <trkpt lat="42.96681" lon="-0.07597">
        <ele>530.6</ele>
        <time>2022-06-08 14:10:47</time>
      </trkpt>
      <trkpt lat="42.96671" lon="-0.07593">
        <ele>530</ele>
        <time>2022-06-08 14:10:48</time>
      </trkpt>
      <trkpt lat="42.96661" lon="-0.0759">
        <ele>528.4</ele>
        <time>2022-06-08 14:10:49</time>
      </trkpt>
      <trkpt lat="42.96651" lon="-0.07588">
        <ele>528</ele>
        <time>2022-06-08 14:10:50</time>
      </trkpt>
      <trkpt lat="42.9664" lon="-0.07588">
        <ele>527.6</ele>
        <time>2022-06-08 14:10:51</time>
      </trkpt>
      <trkpt lat="42.9663" lon="-0.0759">
        <ele>527.2</ele>
        <time>2022-06-08 14:10:52</time>
      </trkpt>
      <trkpt lat="42.9662" lon="-0.07593">
        <ele>526.6</ele>
        <time>2022-06-08 14:10:53</time>
      </trkpt>
      <trkpt lat="42.96609" lon="-0.07597">
        <ele>526.2</ele>
        <time>2022-06-08 14:10:54</time>
      </trkpt>
      <trkpt lat="42.96599" lon="-0.07602">
        <ele>525</ele>
        <time>2022-06-08 14:10:55</time>
      </trkpt>
      <trkpt lat="42.96589" lon="-0.07606">
        <ele>523.4</ele>
        <time>2022-06-08 14:10:56</time>
      </trkpt>
      <trkpt lat="42.96578" lon="-0.07609">
        <ele>522.4</ele>
        <time>2022-06-08 14:10:57</time>
      </trkpt>
      <trkpt lat="42.96568" lon="-0.07612">
        <ele>521</ele>
        <time>2022-06-08 14:10:58</time>
      </trkpt>
      <trkpt lat="42.96558" lon="-0.07613">
        <ele>520.2</ele>
        <time>2022-06-08 14:10:59</time>
      </trkpt>
      <trkpt lat="42.96549" lon="-0.07613">
        <ele>519.4</ele>
        <time>2022-06-08 14:11:00</time>
      </trkpt>
      <trkpt lat="42.96541" lon="-0.07613">
        <ele>518.8</ele>
        <time>2022-06-08 14:11:01</time>
      </trkpt>
      <trkpt lat="42.96532" lon="-0.07611">
        <ele>517.8</ele>
        <time>2022-06-08 14:11:02</time>
      </trkpt>
      <trkpt lat="42.96524" lon="-0.07606">
        <ele>517.2</ele>
        <time>2022-06-08 14:11:03</time>
      </trkpt>
      <trkpt lat="42.96516" lon="-0.076">
        <ele>516.6</ele>
        <time>2022-06-08 14:11:04</time>
      </trkpt>
      <trkpt lat="42.96508" lon="-0.07596">
        <ele>516.2</ele>
        <time>2022-06-08 14:11:05</time>
      </trkpt>
      <trkpt lat="42.96499" lon="-0.07593">
        <ele>515.4</ele>
        <time>2022-06-08 14:11:06</time>
      </trkpt>
      <trkpt lat="42.9649" lon="-0.07591">
        <ele>515</ele>
        <time>2022-06-08 14:11:07</time>
      </trkpt>
      <trkpt lat="42.9648" lon="-0.07589">
        <ele>514.8</ele>
        <time>2022-06-08 14:11:08</time>
      </trkpt>
      <trkpt lat="42.96471" lon="-0.07587">
        <ele>514.6</ele>
        <time>2022-06-08 14:11:09</time>
      </trkpt>
      <trkpt lat="42.96462" lon="-0.07584">
        <ele>514.4</ele>
        <time>2022-06-08 14:11:10</time>
      </trkpt>
      <trkpt lat="42.96453" lon="-0.07582">
        <ele>513.8</ele>
        <time>2022-06-08 14:11:11</time>
      </trkpt>
      <trkpt lat="42.96445" lon="-0.07578">
        <ele>513.6</ele>
        <time>2022-06-08 14:11:12</time>
      </trkpt>
      <trkpt lat="42.96438" lon="-0.07575">
        <ele>513.2</ele>
        <time>2022-06-08 14:11:13</time>
      </trkpt>
      <trkpt lat="42.9643" lon="-0.0757">
        <ele>513</ele>
        <time>2022-06-08 14:11:14</time>
      </trkpt>
      <trkpt lat="42.96424" lon="-0.07565">
        <ele>512.8</ele>
        <time>2022-06-08 14:11:15</time>
      </trkpt>
      <trkpt lat="42.96417" lon="-0.07559">
        <ele>513</ele>
        <time>2022-06-08 14:11:16</time>
      </trkpt>
      <trkpt lat="42.96412" lon="-0.07554">
        <ele>513</ele>
        <time>2022-06-08 14:11:17</time>
      </trkpt>
      <trkpt lat="42.96406" lon="-0.07548">
        <ele>513.2</ele>
        <time>2022-06-08 14:11:18</time>
      </trkpt>
      <trkpt lat="42.96401" lon="-0.07542">
        <ele>513.2</ele>
        <time>2022-06-08 14:11:19</time>
      </trkpt>
      <trkpt lat="42.96397" lon="-0.07535">
        <ele>513.2</ele>
        <time>2022-06-08 14:11:20</time>
      </trkpt>
      <trkpt lat="42.96392" lon="-0.07529">
        <ele>513.2</ele>
        <time>2022-06-08 14:11:21</time>
      </trkpt>
      <trkpt lat="42.96387" lon="-0.07523">
        <ele>513</ele>
        <time>2022-06-08 14:11:22</time>
      </trkpt>
      <trkpt lat="42.96383" lon="-0.07517">
        <ele>512.8</ele>
        <time>2022-06-08 14:11:23</time>
      </trkpt>
      <trkpt lat="42.96378" lon="-0.07511">
        <ele>512.8</ele>
        <time>2022-06-08 14:11:24</time>
      </trkpt>
      <trkpt lat="42.96374" lon="-0.07505">
        <ele>512.8</ele>
        <time>2022-06-08 14:11:25</time>
      </trkpt>
      <trkpt lat="42.96369" lon="-0.07499">
        <ele>512.8</ele>
        <time>2022-06-08 14:11:26</time>
      </trkpt>
      <trkpt lat="42.96365" lon="-0.07494">
        <ele>512.8</ele>
        <time>2022-06-08 14:11:27</time>
      </trkpt>
      <trkpt lat="42.96361" lon="-0.07488">
        <ele>512.8</ele>
        <time>2022-06-08 14:11:28</time>
      </trkpt>
      <trkpt lat="42.96357" lon="-0.07482">
        <ele>512.8</ele>
        <time>2022-06-08 14:11:29</time>
      </trkpt>
      <trkpt lat="42.96352" lon="-0.07478">
        <ele>513</ele>
        <time>2022-06-08 14:11:30</time>
      </trkpt>
      <trkpt lat="42.96348" lon="-0.07473">
        <ele>513</ele>
        <time>2022-06-08 14:11:31</time>
      </trkpt>
      <trkpt lat="42.96344" lon="-0.07469">
        <ele>513.2</ele>
        <time>2022-06-08 14:11:32</time>
      </trkpt>
      <trkpt lat="42.9634" lon="-0.07465">
        <ele>513.4</ele>
        <time>2022-06-08 14:11:33</time>
      </trkpt>
      <trkpt lat="42.96336" lon="-0.07461">
        <ele>513.4</ele>
        <time>2022-06-08 14:11:34</time>
      </trkpt>
      <trkpt lat="42.96332" lon="-0.07459">
        <ele>513.6</ele>
        <time>2022-06-08 14:11:35</time>
      </trkpt>
      <trkpt lat="42.96329" lon="-0.07458">
        <ele>513.6</ele>
        <time>2022-06-08 14:11:36</time>
      </trkpt>
      <trkpt lat="42.96325" lon="-0.07457">
        <ele>513.6</ele>
        <time>2022-06-08 14:11:37</time>
      </trkpt>
      <trkpt lat="42.9632" lon="-0.07456">
        <ele>513.8</ele>
        <time>2022-06-08 14:11:38</time>
      </trkpt>
      <trkpt lat="42.96316" lon="-0.07456">
        <ele>514</ele>
        <time>2022-06-08 14:11:39</time>
      </trkpt>
      <trkpt lat="42.96311" lon="-0.07456">
        <ele>514</ele>
        <time>2022-06-08 14:11:40</time>
      </trkpt>
      <trkpt lat="42.96306" lon="-0.07456">
        <ele>514.2</ele>
        <time>2022-06-08 14:11:41</time>
      </trkpt>
      <trkpt lat="42.96301" lon="-0.07456">
        <ele>514.2</ele>
        <time>2022-06-08 14:11:42</time>
      </trkpt>
      <trkpt lat="42.96296" lon="-0.07456">
        <ele>514.4</ele>
        <time>2022-06-08 14:11:43</time>
      </trkpt>
      <trkpt lat="42.96292" lon="-0.07456">
        <ele>514.4</ele>
        <time>2022-06-08 14:11:44</time>
      </trkpt>
      <trkpt lat="42.96287" lon="-0.07456">
        <ele>514.6</ele>
        <time>2022-06-08 14:11:45</time>
      </trkpt>
      <trkpt lat="42.96282" lon="-0.07456">
        <ele>514.8</ele>
        <time>2022-06-08 14:11:46</time>
      </trkpt>
      <trkpt lat="42.96277" lon="-0.07456">
        <ele>515</ele>
        <time>2022-06-08 14:11:47</time>
      </trkpt>
      <trkpt lat="42.96272" lon="-0.07456">
        <ele>515</ele>
        <time>2022-06-08 14:11:48</time>
      </trkpt>
      <trkpt lat="42.96267" lon="-0.07456">
        <ele>515.2</ele>
        <time>2022-06-08 14:11:49</time>
      </trkpt>
      <trkpt lat="42.96263" lon="-0.07456">
        <ele>515.4</ele>
        <time>2022-06-08 14:11:50</time>
      </trkpt>
      <trkpt lat="42.96258" lon="-0.07456">
        <ele>515.4</ele>
        <time>2022-06-08 14:11:51</time>
      </trkpt>
      <trkpt lat="42.96254" lon="-0.07456">
        <ele>515.4</ele>
        <time>2022-06-08 14:11:52</time>
      </trkpt>
      <trkpt lat="42.96249" lon="-0.07456">
        <ele>515.4</ele>
        <time>2022-06-08 14:11:53</time>
      </trkpt>
      <trkpt lat="42.96244" lon="-0.07456">
        <ele>515.6</ele>
        <time>2022-06-08 14:11:54</time>
      </trkpt>
      <trkpt lat="42.9624" lon="-0.07456">
        <ele>515.6</ele>
        <time>2022-06-08 14:11:55</time>
      </trkpt>
      <trkpt lat="42.96235" lon="-0.07456">
        <ele>515.8</ele>
        <time>2022-06-08 14:11:56</time>
      </trkpt>
      <trkpt lat="42.96231" lon="-0.07456">
        <ele>516.2</ele>
        <time>2022-06-08 14:11:57</time>
      </trkpt>
      <trkpt lat="42.96226" lon="-0.07456">
        <ele>516.2</ele>
        <time>2022-06-08 14:11:58</time>
      </trkpt>
      <trkpt lat="42.96221" lon="-0.07456">
        <ele>516.6</ele>
        <time>2022-06-08 14:11:59</time>
      </trkpt>
      <trkpt lat="42.96217" lon="-0.07455">
        <ele>516.8</ele>
        <time>2022-06-08 14:12:00</time>
      </trkpt>
      <trkpt lat="42.96212" lon="-0.07455">
        <ele>517</ele>
        <time>2022-06-08 14:12:01</time>
      </trkpt>
      <trkpt lat="42.96207" lon="-0.07455">
        <ele>517.2</ele>
        <time>2022-06-08 14:12:02</time>
      </trkpt>
      <trkpt lat="42.96203" lon="-0.07456">
        <ele>517.2</ele>
        <time>2022-06-08 14:12:03</time>
      </trkpt>
      <trkpt lat="42.96199" lon="-0.07456">
        <ele>517.2</ele>
        <time>2022-06-08 14:12:04</time>
      </trkpt>
      <trkpt lat="42.96194" lon="-0.07455">
        <ele>517.4</ele>
        <time>2022-06-08 14:12:05</time>
      </trkpt>
      <trkpt lat="42.96189" lon="-0.07455">
        <ele>517.4</ele>
        <time>2022-06-08 14:12:06</time>
      </trkpt>
      <trkpt lat="42.96184" lon="-0.07454">
        <ele>517.4</ele>
        <time>2022-06-08 14:12:07</time>
      </trkpt>
      <trkpt lat="42.96179" lon="-0.07453">
        <ele>517.6</ele>
        <time>2022-06-08 14:12:08</time>
      </trkpt>
      <trkpt lat="42.96174" lon="-0.07453">
        <ele>517.6</ele>
        <time>2022-06-08 14:12:09</time>
      </trkpt>
      <trkpt lat="42.96169" lon="-0.07453">
        <ele>518</ele>
        <time>2022-06-08 14:12:10</time>
      </trkpt>
      <trkpt lat="42.96164" lon="-0.07453">
        <ele>518</ele>
        <time>2022-06-08 14:12:11</time>
      </trkpt>
      <trkpt lat="42.96159" lon="-0.07453">
        <ele>518.4</ele>
        <time>2022-06-08 14:12:12</time>
      </trkpt>
      <trkpt lat="42.96153" lon="-0.07453">
        <ele>518.6</ele>
        <time>2022-06-08 14:12:13</time>
      </trkpt>
      <trkpt lat="42.96148" lon="-0.07453">
        <ele>518.6</ele>
        <time>2022-06-08 14:12:14</time>
      </trkpt>
      <trkpt lat="42.96142" lon="-0.07454">
        <ele>518.4</ele>
        <time>2022-06-08 14:12:15</time>
      </trkpt>
      <trkpt lat="42.96137" lon="-0.07454">
        <ele>518.6</ele>
        <time>2022-06-08 14:12:16</time>
      </trkpt>
      <trkpt lat="42.96131" lon="-0.07454">
        <ele>518.6</ele>
        <time>2022-06-08 14:12:17</time>
      </trkpt>
      <trkpt lat="42.96126" lon="-0.07453">
        <ele>519</ele>
        <time>2022-06-08 14:12:18</time>
      </trkpt>
      <trkpt lat="42.9612" lon="-0.07453">
        <ele>519.2</ele>
        <time>2022-06-08 14:12:19</time>
      </trkpt>
      <trkpt lat="42.96115" lon="-0.07453">
        <ele>519.2</ele>
        <time>2022-06-08 14:12:20</time>
      </trkpt>
      <trkpt lat="42.96109" lon="-0.07454">
        <ele>519.4</ele>
        <time>2022-06-08 14:12:21</time>
      </trkpt>
      <trkpt lat="42.96104" lon="-0.07454">
        <ele>519.4</ele>
        <time>2022-06-08 14:12:22</time>
      </trkpt>
      <trkpt lat="42.96099" lon="-0.07454">
        <ele>519.4</ele>
        <time>2022-06-08 14:12:23</time>
      </trkpt>
      <trkpt lat="42.96094" lon="-0.07454">
        <ele>519.6</ele>
        <time>2022-06-08 14:12:24</time>
      </trkpt>
      <trkpt lat="42.96089" lon="-0.07454">
        <ele>519.8</ele>
        <time>2022-06-08 14:12:25</time>
      </trkpt>
      <trkpt lat="42.96084" lon="-0.07454">
        <ele>519.8</ele>
        <time>2022-06-08 14:12:26</time>
      </trkpt>
      <trkpt lat="42.96079" lon="-0.07453">
        <ele>519.8</ele>
        <time>2022-06-08 14:12:27</time>
      </trkpt>
      <trkpt lat="42.96074" lon="-0.07453">
        <ele>520</ele>
        <time>2022-06-08 14:12:28</time>
      </trkpt>
      <trkpt lat="42.96069" lon="-0.07454">
        <ele>520.2</ele>
        <time>2022-06-08 14:12:29</time>
      </trkpt>
      <trkpt lat="42.96064" lon="-0.07454">
        <ele>520.2</ele>
        <time>2022-06-08 14:12:30</time>
      </trkpt>
      <trkpt lat="42.9606" lon="-0.07453">
        <ele>520.6</ele>
        <time>2022-06-08 14:12:31</time>
      </trkpt>
      <trkpt lat="42.96055" lon="-0.07453">
        <ele>520.6</ele>
        <time>2022-06-08 14:12:32</time>
      </trkpt>
      <trkpt lat="42.9605" lon="-0.07453">
        <ele>521.4</ele>
        <time>2022-06-08 14:12:33</time>
      </trkpt>
      <trkpt lat="42.96045" lon="-0.07453">
        <ele>521.6</ele>
        <time>2022-06-08 14:12:34</time>
      </trkpt>
      <trkpt lat="42.96041" lon="-0.07452">
        <ele>521.8</ele>
        <time>2022-06-08 14:12:35</time>
      </trkpt>
      <trkpt lat="42.96037" lon="-0.07452">
        <ele>521.8</ele>
        <time>2022-06-08 14:12:36</time>
      </trkpt>
      <trkpt lat="42.96032" lon="-0.07453">
        <ele>522</ele>
        <time>2022-06-08 14:12:37</time>
      </trkpt>
      <trkpt lat="42.96028" lon="-0.07453">
        <ele>522</ele>
        <time>2022-06-08 14:12:38</time>
      </trkpt>
      <trkpt lat="42.96024" lon="-0.07453">
        <ele>522</ele>
        <time>2022-06-08 14:12:39</time>
      </trkpt>
      <trkpt lat="42.9602" lon="-0.07453">
        <ele>522.2</ele>
        <time>2022-06-08 14:12:40</time>
      </trkpt>
      <trkpt lat="42.96015" lon="-0.07453">
        <ele>522.2</ele>
        <time>2022-06-08 14:12:41</time>
      </trkpt>
      <trkpt lat="42.96011" lon="-0.07453">
        <ele>522.8</ele>
        <time>2022-06-08 14:12:42</time>
      </trkpt>
      <trkpt lat="42.96007" lon="-0.07453">
        <ele>523</ele>
        <time>2022-06-08 14:12:43</time>
      </trkpt>
      <trkpt lat="42.96003" lon="-0.07453">
        <ele>523.6</ele>
        <time>2022-06-08 14:12:44</time>
      </trkpt>
      <trkpt lat="42.95999" lon="-0.07453">
        <ele>524</ele>
        <time>2022-06-08 14:12:45</time>
      </trkpt>
      <trkpt lat="42.95995" lon="-0.07453">
        <ele>524</ele>
        <time>2022-06-08 14:12:46</time>
      </trkpt>
      <trkpt lat="42.9599" lon="-0.07453">
        <ele>524.2</ele>
        <time>2022-06-08 14:12:47</time>
      </trkpt>
      <trkpt lat="42.95986" lon="-0.07452">
        <ele>524.2</ele>
        <time>2022-06-08 14:12:48</time>
      </trkpt>
      <trkpt lat="42.95982" lon="-0.07452">
        <ele>524.6</ele>
        <time>2022-06-08 14:12:49</time>
      </trkpt>
      <trkpt lat="42.95978" lon="-0.07451">
        <ele>524.8</ele>
        <time>2022-06-08 14:12:50</time>
      </trkpt>
      <trkpt lat="42.95974" lon="-0.07451">
        <ele>525.2</ele>
        <time>2022-06-08 14:12:51</time>
      </trkpt>
      <trkpt lat="42.9597" lon="-0.07451">
        <ele>525.2</ele>
        <time>2022-06-08 14:12:52</time>
      </trkpt>
      <trkpt lat="42.95965" lon="-0.07451">
        <ele>525.4</ele>
        <time>2022-06-08 14:12:53</time>
      </trkpt>
      <trkpt lat="42.95961" lon="-0.07451">
        <ele>525.4</ele>
        <time>2022-06-08 14:12:54</time>
      </trkpt>
      <trkpt lat="42.95956" lon="-0.07452">
        <ele>525.6</ele>
        <time>2022-06-08 14:12:55</time>
      </trkpt>
      <trkpt lat="42.95952" lon="-0.07452">
        <ele>525.6</ele>
        <time>2022-06-08 14:12:56</time>
      </trkpt>
      <trkpt lat="42.95947" lon="-0.07452">
        <ele>525.8</ele>
        <time>2022-06-08 14:12:57</time>
      </trkpt>
      <trkpt lat="42.95943" lon="-0.07452">
        <ele>526</ele>
        <time>2022-06-08 14:12:58</time>
      </trkpt>
      <trkpt lat="42.95938" lon="-0.07452">
        <ele>526</ele>
        <time>2022-06-08 14:12:59</time>
      </trkpt>
      <trkpt lat="42.95934" lon="-0.07452">
        <ele>526.2</ele>
        <time>2022-06-08 14:13:00</time>
      </trkpt>
      <trkpt lat="42.9593" lon="-0.07451">
        <ele>526.2</ele>
        <time>2022-06-08 14:13:01</time>
      </trkpt>
      <trkpt lat="42.95926" lon="-0.07451">
        <ele>526.6</ele>
        <time>2022-06-08 14:13:02</time>
      </trkpt>
      <trkpt lat="42.95922" lon="-0.07452">
        <ele>526.8</ele>
        <time>2022-06-08 14:13:03</time>
      </trkpt>
      <trkpt lat="42.95919" lon="-0.07453">
        <ele>527.2</ele>
        <time>2022-06-08 14:13:04</time>
      </trkpt>
      <trkpt lat="42.95915" lon="-0.07454">
        <ele>527.4</ele>
        <time>2022-06-08 14:13:05</time>
      </trkpt>
      <trkpt lat="42.95911" lon="-0.07454">
        <ele>527.8</ele>
        <time>2022-06-08 14:13:06</time>
      </trkpt>
      <trkpt lat="42.95907" lon="-0.07455">
        <ele>528</ele>
        <time>2022-06-08 14:13:07</time>
      </trkpt>
      <trkpt lat="42.95903" lon="-0.07455">
        <ele>528.2</ele>
        <time>2022-06-08 14:13:08</time>
      </trkpt>
      <trkpt lat="42.95899" lon="-0.07455">
        <ele>528.4</ele>
        <time>2022-06-08 14:13:09</time>
      </trkpt>
      <trkpt lat="42.95895" lon="-0.07456">
        <ele>528.6</ele>
        <time>2022-06-08 14:13:10</time>
      </trkpt>
      <trkpt lat="42.9589" lon="-0.07456">
        <ele>528.8</ele>
        <time>2022-06-08 14:13:11</time>
      </trkpt>
      <trkpt lat="42.95886" lon="-0.07456">
        <ele>528.8</ele>
        <time>2022-06-08 14:13:12</time>
      </trkpt>
      <trkpt lat="42.95881" lon="-0.07457">
        <ele>529.2</ele>
        <time>2022-06-08 14:13:13</time>
      </trkpt>
      <trkpt lat="42.95876" lon="-0.07458">
        <ele>529.4</ele>
        <time>2022-06-08 14:13:14</time>
      </trkpt>
      <trkpt lat="42.95871" lon="-0.07459">
        <ele>529.6</ele>
        <time>2022-06-08 14:13:15</time>
      </trkpt>
      <trkpt lat="42.95867" lon="-0.07461">
        <ele>529.6</ele>
        <time>2022-06-08 14:13:16</time>
      </trkpt>
      <trkpt lat="42.95863" lon="-0.07463">
        <ele>529.6</ele>
        <time>2022-06-08 14:13:17</time>
      </trkpt>
      <trkpt lat="42.95859" lon="-0.07465">
        <ele>529.6</ele>
        <time>2022-06-08 14:13:18</time>
      </trkpt>
      <trkpt lat="42.95855" lon="-0.07467">
        <ele>529.8</ele>
        <time>2022-06-08 14:13:19</time>
      </trkpt>
      <trkpt lat="42.9585" lon="-0.0747">
        <ele>529.8</ele>
        <time>2022-06-08 14:13:20</time>
      </trkpt>
      <trkpt lat="42.95846" lon="-0.07473">
        <ele>530</ele>
        <time>2022-06-08 14:13:21</time>
      </trkpt>
      <trkpt lat="42.95842" lon="-0.07475">
        <ele>530.4</ele>
        <time>2022-06-08 14:13:22</time>
      </trkpt>
      <trkpt lat="42.95838" lon="-0.07478">
        <ele>530.4</ele>
        <time>2022-06-08 14:13:23</time>
      </trkpt>
      <trkpt lat="42.95834" lon="-0.07481">
        <ele>530.8</ele>
        <time>2022-06-08 14:13:24</time>
      </trkpt>
      <trkpt lat="42.9583" lon="-0.07483">
        <ele>530.8</ele>
        <time>2022-06-08 14:13:25</time>
      </trkpt>
      <trkpt lat="42.95826" lon="-0.07486">
        <ele>531</ele>
        <time>2022-06-08 14:13:26</time>
      </trkpt>
      <trkpt lat="42.95823" lon="-0.07488">
        <ele>531.2</ele>
        <time>2022-06-08 14:13:27</time>
      </trkpt>
      <trkpt lat="42.95818" lon="-0.0749">
        <ele>531.6</ele>
        <time>2022-06-08 14:13:28</time>
      </trkpt>
      <trkpt lat="42.95814" lon="-0.07492">
        <ele>531.8</ele>
        <time>2022-06-08 14:13:29</time>
      </trkpt>
      <trkpt lat="42.9581" lon="-0.07494">
        <ele>532</ele>
        <time>2022-06-08 14:13:30</time>
      </trkpt>
      <trkpt lat="42.95806" lon="-0.07496">
        <ele>532</ele>
        <time>2022-06-08 14:13:31</time>
      </trkpt>
      <trkpt lat="42.95803" lon="-0.07499">
        <ele>532.4</ele>
        <time>2022-06-08 14:13:32</time>
      </trkpt>
      <trkpt lat="42.95799" lon="-0.07501">
        <ele>532.6</ele>
        <time>2022-06-08 14:13:33</time>
      </trkpt>
      <trkpt lat="42.95795" lon="-0.07504">
        <ele>532.8</ele>
        <time>2022-06-08 14:13:34</time>
      </trkpt>
      <trkpt lat="42.95791" lon="-0.07505">
        <ele>533</ele>
        <time>2022-06-08 14:13:35</time>
      </trkpt>
      <trkpt lat="42.95787" lon="-0.07505">
        <ele>533</ele>
        <time>2022-06-08 14:13:36</time>
      </trkpt>
      <trkpt lat="42.95783" lon="-0.07505">
        <ele>533.2</ele>
        <time>2022-06-08 14:13:37</time>
      </trkpt>
      <trkpt lat="42.95778" lon="-0.07504">
        <ele>533.2</ele>
        <time>2022-06-08 14:13:38</time>
      </trkpt>
      <trkpt lat="42.95774" lon="-0.07504">
        <ele>533.2</ele>
        <time>2022-06-08 14:13:39</time>
      </trkpt>
      <trkpt lat="42.95769" lon="-0.07505">
        <ele>533.2</ele>
        <time>2022-06-08 14:13:40</time>
      </trkpt>
      <trkpt lat="42.95765" lon="-0.07506">
        <ele>533.2</ele>
        <time>2022-06-08 14:13:41</time>
      </trkpt>
      <trkpt lat="42.9576" lon="-0.07508">
        <ele>533.4</ele>
        <time>2022-06-08 14:13:42</time>
      </trkpt>
      <trkpt lat="42.95756" lon="-0.0751">
        <ele>533.8</ele>
        <time>2022-06-08 14:13:43</time>
      </trkpt>
      <trkpt lat="42.95751" lon="-0.07511">
        <ele>534</ele>
        <time>2022-06-08 14:13:44</time>
      </trkpt>
      <trkpt lat="42.95747" lon="-0.07512">
        <ele>534.2</ele>
        <time>2022-06-08 14:13:45</time>
      </trkpt>
      <trkpt lat="42.95743" lon="-0.07513">
        <ele>534.4</ele>
        <time>2022-06-08 14:13:46</time>
      </trkpt>
      <trkpt lat="42.95739" lon="-0.07514">
        <ele>534.6</ele>
        <time>2022-06-08 14:13:47</time>
      </trkpt>
      <trkpt lat="42.95735" lon="-0.07515">
        <ele>534.8</ele>
        <time>2022-06-08 14:13:48</time>
      </trkpt>
      <trkpt lat="42.95731" lon="-0.07515">
        <ele>535.2</ele>
        <time>2022-06-08 14:13:49</time>
      </trkpt>
      <trkpt lat="42.95728" lon="-0.07515">
        <ele>535.6</ele>
        <time>2022-06-08 14:13:50</time>
      </trkpt>
      <trkpt lat="42.95724" lon="-0.07515">
        <ele>535.8</ele>
        <time>2022-06-08 14:13:51</time>
      </trkpt>
      <trkpt lat="42.9572" lon="-0.07515">
        <ele>536.4</ele>
        <time>2022-06-08 14:13:52</time>
      </trkpt>
      <trkpt lat="42.95716" lon="-0.07515">
        <ele>536.4</ele>
        <time>2022-06-08 14:13:53</time>
      </trkpt>
      <trkpt lat="42.95713" lon="-0.07514">
        <ele>536.8</ele>
        <time>2022-06-08 14:13:54</time>
      </trkpt>
      <trkpt lat="42.95709" lon="-0.07513">
        <ele>536.8</ele>
        <time>2022-06-08 14:13:55</time>
      </trkpt>
      <trkpt lat="42.95705" lon="-0.07511">
        <ele>536.8</ele>
        <time>2022-06-08 14:13:56</time>
      </trkpt>
      <trkpt lat="42.95701" lon="-0.07508">
        <ele>536.8</ele>
        <time>2022-06-08 14:13:57</time>
      </trkpt>
      <trkpt lat="42.95697" lon="-0.07506">
        <ele>537</ele>
        <time>2022-06-08 14:13:58</time>
      </trkpt>
      <trkpt lat="42.95692" lon="-0.07502">
        <ele>537</ele>
        <time>2022-06-08 14:13:59</time>
      </trkpt>
      <trkpt lat="42.95688" lon="-0.07499">
        <ele>536.8</ele>
        <time>2022-06-08 14:14:00</time>
      </trkpt>
      <trkpt lat="42.95683" lon="-0.07495">
        <ele>536.8</ele>
        <time>2022-06-08 14:14:01</time>
      </trkpt>
      <trkpt lat="42.9568" lon="-0.07489">
        <ele>536.8</ele>
        <time>2022-06-08 14:14:02</time>
      </trkpt>
      <trkpt lat="42.95678" lon="-0.07483">
        <ele>536.8</ele>
        <time>2022-06-08 14:14:03</time>
      </trkpt>
      <trkpt lat="42.95676" lon="-0.07476">
        <ele>536.6</ele>
        <time>2022-06-08 14:14:04</time>
      </trkpt>
      <trkpt lat="42.95674" lon="-0.07468">
        <ele>536.6</ele>
        <time>2022-06-08 14:14:05</time>
      </trkpt>
      <trkpt lat="42.95672" lon="-0.0746">
        <ele>536.4</ele>
        <time>2022-06-08 14:14:06</time>
      </trkpt>
      <trkpt lat="42.9567" lon="-0.07451">
        <ele>536.4</ele>
        <time>2022-06-08 14:14:07</time>
      </trkpt>
      <trkpt lat="42.95668" lon="-0.07442">
        <ele>536.2</ele>
        <time>2022-06-08 14:14:08</time>
      </trkpt>
      <trkpt lat="42.95666" lon="-0.07432">
        <ele>536</ele>
        <time>2022-06-08 14:14:09</time>
      </trkpt>
      <trkpt lat="42.95663" lon="-0.07422">
        <ele>535.6</ele>
        <time>2022-06-08 14:14:10</time>
      </trkpt>
      <trkpt lat="42.95659" lon="-0.07412">
        <ele>535.4</ele>
        <time>2022-06-08 14:14:11</time>
      </trkpt>
      <trkpt lat="42.95654" lon="-0.07403">
        <ele>534.8</ele>
        <time>2022-06-08 14:14:12</time>
      </trkpt>
      <trkpt lat="42.95649" lon="-0.07393">
        <ele>534.6</ele>
        <time>2022-06-08 14:14:13</time>
      </trkpt>
      <trkpt lat="42.95644" lon="-0.07383">
        <ele>534</ele>
        <time>2022-06-08 14:14:14</time>
      </trkpt>
      <trkpt lat="42.95639" lon="-0.07374">
        <ele>533.8</ele>
        <time>2022-06-08 14:14:15</time>
      </trkpt>
      <trkpt lat="42.95633" lon="-0.07364">
        <ele>533.2</ele>
        <time>2022-06-08 14:14:16</time>
      </trkpt>
      <trkpt lat="42.95627" lon="-0.07354">
        <ele>532.6</ele>
        <time>2022-06-08 14:14:17</time>
      </trkpt>
      <trkpt lat="42.95621" lon="-0.07344">
        <ele>531.6</ele>
        <time>2022-06-08 14:14:18</time>
      </trkpt>
      <trkpt lat="42.95615" lon="-0.07334">
        <ele>531</ele>
        <time>2022-06-08 14:14:19</time>
      </trkpt>
      <trkpt lat="42.95608" lon="-0.07325">
        <ele>530.4</ele>
        <time>2022-06-08 14:14:20</time>
      </trkpt>
      <trkpt lat="42.95602" lon="-0.07315">
        <ele>530</ele>
        <time>2022-06-08 14:14:21</time>
      </trkpt>
      <trkpt lat="42.95595" lon="-0.07305">
        <ele>529.8</ele>
        <time>2022-06-08 14:14:22</time>
      </trkpt>
      <trkpt lat="42.95589" lon="-0.07295">
        <ele>529.6</ele>
        <time>2022-06-08 14:14:23</time>
      </trkpt>
      <trkpt lat="42.95582" lon="-0.07285">
        <ele>529.2</ele>
        <time>2022-06-08 14:14:24</time>
      </trkpt>
      <trkpt lat="42.95575" lon="-0.07276">
        <ele>528.8</ele>
        <time>2022-06-08 14:14:25</time>
      </trkpt>
      <trkpt lat="42.95568" lon="-0.07266">
        <ele>528.6</ele>
        <time>2022-06-08 14:14:26</time>
      </trkpt>
      <trkpt lat="42.95562" lon="-0.07257">
        <ele>528</ele>
        <time>2022-06-08 14:14:27</time>
      </trkpt>
      <trkpt lat="42.95556" lon="-0.07248">
        <ele>527.6</ele>
        <time>2022-06-08 14:14:28</time>
      </trkpt>
      <trkpt lat="42.95549" lon="-0.07238">
        <ele>527</ele>
        <time>2022-06-08 14:14:29</time>
      </trkpt>
      <trkpt lat="42.95543" lon="-0.07229">
        <ele>526.8</ele>
        <time>2022-06-08 14:14:30</time>
      </trkpt>
      <trkpt lat="42.95537" lon="-0.0722">
        <ele>526.6</ele>
        <time>2022-06-08 14:14:31</time>
      </trkpt>
      <trkpt lat="42.9553" lon="-0.07211">
        <ele>526.4</ele>
        <time>2022-06-08 14:14:32</time>
      </trkpt>
      <trkpt lat="42.95524" lon="-0.07202">
        <ele>526</ele>
        <time>2022-06-08 14:14:33</time>
      </trkpt>
      <trkpt lat="42.95518" lon="-0.07193">
        <ele>525.8</ele>
        <time>2022-06-08 14:14:34</time>
      </trkpt>
      <trkpt lat="42.95511" lon="-0.07184">
        <ele>525.8</ele>
        <time>2022-06-08 14:14:35</time>
      </trkpt>
      <trkpt lat="42.95503" lon="-0.07173">
        <ele>525.4</ele>
        <time>2022-06-08 14:14:36</time>
      </trkpt>
      <trkpt lat="42.95497" lon="-0.07166">
        <ele>525.4</ele>
        <time>2022-06-08 14:14:37</time>
      </trkpt>
      <trkpt lat="42.9549" lon="-0.07158">
        <ele>525.2</ele>
        <time>2022-06-08 14:14:38</time>
      </trkpt>
      <trkpt lat="42.95482" lon="-0.0715">
        <ele>525</ele>
        <time>2022-06-08 14:14:39</time>
      </trkpt>
      <trkpt lat="42.95474" lon="-0.07142">
        <ele>524.8</ele>
        <time>2022-06-08 14:14:40</time>
      </trkpt>
      <trkpt lat="42.95467" lon="-0.07134">
        <ele>524.8</ele>
        <time>2022-06-08 14:14:41</time>
      </trkpt>
      <trkpt lat="42.95457" lon="-0.07124">
        <ele>524.6</ele>
        <time>2022-06-08 14:14:42</time>
      </trkpt>
      <trkpt lat="42.95451" lon="-0.07118">
        <ele>524.4</ele>
        <time>2022-06-08 14:14:43</time>
      </trkpt>
      <trkpt lat="42.95443" lon="-0.0711">
        <ele>524</ele>
        <time>2022-06-08 14:14:44</time>
      </trkpt>
      <trkpt lat="42.95435" lon="-0.07103">
        <ele>523.8</ele>
        <time>2022-06-08 14:14:45</time>
      </trkpt>
      <trkpt lat="42.95426" lon="-0.07096">
        <ele>523.6</ele>
        <time>2022-06-08 14:14:46</time>
      </trkpt>
      <trkpt lat="42.95418" lon="-0.07089">
        <ele>523.6</ele>
        <time>2022-06-08 14:14:47</time>
      </trkpt>
      <trkpt lat="42.95409" lon="-0.07082">
        <ele>523.4</ele>
        <time>2022-06-08 14:14:48</time>
      </trkpt>
      <trkpt lat="42.954" lon="-0.07076">
        <ele>523.4</ele>
        <time>2022-06-08 14:14:49</time>
      </trkpt>
      <trkpt lat="42.95391" lon="-0.07071">
        <ele>523.4</ele>
        <time>2022-06-08 14:14:50</time>
      </trkpt>
      <trkpt lat="42.95382" lon="-0.07065">
        <ele>523.2</ele>
        <time>2022-06-08 14:14:51</time>
      </trkpt>
      <trkpt lat="42.95374" lon="-0.07059">
        <ele>523.2</ele>
        <time>2022-06-08 14:14:52</time>
      </trkpt>
      <trkpt lat="42.95364" lon="-0.07054">
        <ele>522.4</ele>
        <time>2022-06-08 14:14:53</time>
      </trkpt>
      <trkpt lat="42.95355" lon="-0.07048">
        <ele>522</ele>
        <time>2022-06-08 14:14:54</time>
      </trkpt>
      <trkpt lat="42.95346" lon="-0.07042">
        <ele>521.4</ele>
        <time>2022-06-08 14:14:55</time>
      </trkpt>
      <trkpt lat="42.95336" lon="-0.07036">
        <ele>521.2</ele>
        <time>2022-06-08 14:14:56</time>
      </trkpt>
      <trkpt lat="42.95327" lon="-0.07031">
        <ele>520.8</ele>
        <time>2022-06-08 14:14:57</time>
      </trkpt>
      <trkpt lat="42.95317" lon="-0.07025">
        <ele>520.6</ele>
        <time>2022-06-08 14:14:58</time>
      </trkpt>
      <trkpt lat="42.95307" lon="-0.0702">
        <ele>520.6</ele>
        <time>2022-06-08 14:14:59</time>
      </trkpt>
      <trkpt lat="42.95298" lon="-0.07015">
        <ele>520.4</ele>
        <time>2022-06-08 14:15:00</time>
      </trkpt>
      <trkpt lat="42.95289" lon="-0.0701">
        <ele>520.4</ele>
        <time>2022-06-08 14:15:01</time>
      </trkpt>
      <trkpt lat="42.95279" lon="-0.07007">
        <ele>520.4</ele>
        <time>2022-06-08 14:15:02</time>
      </trkpt>
      <trkpt lat="42.9527" lon="-0.07003">
        <ele>520.2</ele>
        <time>2022-06-08 14:15:03</time>
      </trkpt>
      <trkpt lat="42.95261" lon="-0.06999">
        <ele>520.2</ele>
        <time>2022-06-08 14:15:04</time>
      </trkpt>
      <trkpt lat="42.95251" lon="-0.06996">
        <ele>520.2</ele>
        <time>2022-06-08 14:15:05</time>
      </trkpt>
      <trkpt lat="42.95243" lon="-0.06993">
        <ele>520.6</ele>
        <time>2022-06-08 14:15:06</time>
      </trkpt>
      <trkpt lat="42.95235" lon="-0.06991">
        <ele>520.8</ele>
        <time>2022-06-08 14:15:07</time>
      </trkpt>
      <trkpt lat="42.95228" lon="-0.0699">
        <ele>521.2</ele>
        <time>2022-06-08 14:15:08</time>
      </trkpt>
      <trkpt lat="42.95221" lon="-0.0699">
        <ele>521.4</ele>
        <time>2022-06-08 14:15:09</time>
      </trkpt>
      <trkpt lat="42.95213" lon="-0.06989">
        <ele>521.4</ele>
        <time>2022-06-08 14:15:10</time>
      </trkpt>
      <trkpt lat="42.95205" lon="-0.06987">
        <ele>521.6</ele>
        <time>2022-06-08 14:15:11</time>
      </trkpt>
      <trkpt lat="42.95198" lon="-0.06985">
        <ele>521.8</ele>
        <time>2022-06-08 14:15:12</time>
      </trkpt>
      <trkpt lat="42.95191" lon="-0.06982">
        <ele>522.6</ele>
        <time>2022-06-08 14:15:13</time>
      </trkpt>
      <trkpt lat="42.95185" lon="-0.0698">
        <ele>522.8</ele>
        <time>2022-06-08 14:15:14</time>
      </trkpt>
      <trkpt lat="42.95177" lon="-0.06977">
        <ele>523</ele>
        <time>2022-06-08 14:15:15</time>
      </trkpt>
      <trkpt lat="42.95171" lon="-0.06972">
        <ele>523.2</ele>
        <time>2022-06-08 14:15:16</time>
      </trkpt>
      <trkpt lat="42.95164" lon="-0.06965">
        <ele>523.4</ele>
        <time>2022-06-08 14:15:17</time>
      </trkpt>
      <trkpt lat="42.9516" lon="-0.06959">
        <ele>523.6</ele>
        <time>2022-06-08 14:15:18</time>
      </trkpt>
      <trkpt lat="42.95155" lon="-0.06951">
        <ele>523.8</ele>
        <time>2022-06-08 14:15:19</time>
      </trkpt>
      <trkpt lat="42.95151" lon="-0.0694">
        <ele>523.8</ele>
        <time>2022-06-08 14:15:20</time>
      </trkpt>
      <trkpt lat="42.95147" lon="-0.0693">
        <ele>524</ele>
        <time>2022-06-08 14:15:21</time>
      </trkpt>
      <trkpt lat="42.95145" lon="-0.06923">
        <ele>524.2</ele>
        <time>2022-06-08 14:15:22</time>
      </trkpt>
      <trkpt lat="42.95141" lon="-0.06913">
        <ele>524.2</ele>
        <time>2022-06-08 14:15:23</time>
      </trkpt>
      <trkpt lat="42.95138" lon="-0.06904">
        <ele>524.2</ele>
        <time>2022-06-08 14:15:24</time>
      </trkpt>
      <trkpt lat="42.95135" lon="-0.06892">
        <ele>524.4</ele>
        <time>2022-06-08 14:15:25</time>
      </trkpt>
      <trkpt lat="42.95131" lon="-0.06883">
        <ele>524.4</ele>
        <time>2022-06-08 14:15:26</time>
      </trkpt>
      <trkpt lat="42.95128" lon="-0.06875">
        <ele>524.4</ele>
        <time>2022-06-08 14:15:27</time>
      </trkpt>
      <trkpt lat="42.95124" lon="-0.06862">
        <ele>524.2</ele>
        <time>2022-06-08 14:15:28</time>
      </trkpt>
      <trkpt lat="42.9512" lon="-0.06852">
        <ele>524.2</ele>
        <time>2022-06-08 14:15:29</time>
      </trkpt>
      <trkpt lat="42.95116" lon="-0.06842">
        <ele>524.2</ele>
        <time>2022-06-08 14:15:30</time>
      </trkpt>
      <trkpt lat="42.95111" lon="-0.06833">
        <ele>524.2</ele>
        <time>2022-06-08 14:15:31</time>
      </trkpt>
      <trkpt lat="42.95107" lon="-0.06826">
        <ele>524</ele>
        <time>2022-06-08 14:15:32</time>
      </trkpt>
      <trkpt lat="42.95103" lon="-0.06817">
        <ele>523.8</ele>
        <time>2022-06-08 14:15:33</time>
      </trkpt>
      <trkpt lat="42.95098" lon="-0.06806">
        <ele>523.8</ele>
        <time>2022-06-08 14:15:34</time>
      </trkpt>
      <trkpt lat="42.95095" lon="-0.06796">
        <ele>523.6</ele>
        <time>2022-06-08 14:15:35</time>
      </trkpt>
      <trkpt lat="42.9509" lon="-0.06787">
        <ele>523.4</ele>
        <time>2022-06-08 14:15:36</time>
      </trkpt>
      <trkpt lat="42.95085" lon="-0.06778">
        <ele>523.2</ele>
        <time>2022-06-08 14:15:37</time>
      </trkpt>
      <trkpt lat="42.9508" lon="-0.0677">
        <ele>523.2</ele>
        <time>2022-06-08 14:15:38</time>
      </trkpt>
      <trkpt lat="42.95075" lon="-0.06762">
        <ele>523</ele>
        <time>2022-06-08 14:15:39</time>
      </trkpt>
      <trkpt lat="42.9507" lon="-0.06753">
        <ele>523</ele>
        <time>2022-06-08 14:15:40</time>
      </trkpt>
      <trkpt lat="42.95065" lon="-0.06745">
        <ele>523</ele>
        <time>2022-06-08 14:15:41</time>
      </trkpt>
      <trkpt lat="42.9506" lon="-0.06737">
        <ele>523</ele>
        <time>2022-06-08 14:15:42</time>
      </trkpt>
      <trkpt lat="42.95056" lon="-0.06728">
        <ele>523.2</ele>
        <time>2022-06-08 14:15:43</time>
      </trkpt>
      <trkpt lat="42.95052" lon="-0.06719">
        <ele>523.2</ele>
        <time>2022-06-08 14:15:44</time>
      </trkpt>
      <trkpt lat="42.95049" lon="-0.06709">
        <ele>523.2</ele>
        <time>2022-06-08 14:15:45</time>
      </trkpt>
      <trkpt lat="42.95046" lon="-0.06699">
        <ele>523.2</ele>
        <time>2022-06-08 14:15:46</time>
      </trkpt>
      <trkpt lat="42.95042" lon="-0.0669">
        <ele>523.2</ele>
        <time>2022-06-08 14:15:47</time>
      </trkpt>
      <trkpt lat="42.9504" lon="-0.06679">
        <ele>523.2</ele>
        <time>2022-06-08 14:15:48</time>
      </trkpt>
      <trkpt lat="42.95037" lon="-0.06669">
        <ele>523.4</ele>
        <time>2022-06-08 14:15:49</time>
      </trkpt>
      <trkpt lat="42.95035" lon="-0.0666">
        <ele>523.4</ele>
        <time>2022-06-08 14:15:50</time>
      </trkpt>
      <trkpt lat="42.95033" lon="-0.0665">
        <ele>523.4</ele>
        <time>2022-06-08 14:15:51</time>
      </trkpt>
      <trkpt lat="42.95031" lon="-0.0664">
        <ele>523.8</ele>
        <time>2022-06-08 14:15:52</time>
      </trkpt>
      <trkpt lat="42.95029" lon="-0.06629">
        <ele>523.6</ele>
        <time>2022-06-08 14:15:53</time>
      </trkpt>
      <trkpt lat="42.95026" lon="-0.06617">
        <ele>523.8</ele>
        <time>2022-06-08 14:15:54</time>
      </trkpt>
      <trkpt lat="42.95024" lon="-0.06607">
        <ele>524</ele>
        <time>2022-06-08 14:15:55</time>
      </trkpt>
      <trkpt lat="42.95022" lon="-0.06599">
        <ele>524.6</ele>
        <time>2022-06-08 14:15:56</time>
      </trkpt>
      <trkpt lat="42.9502" lon="-0.06588">
        <ele>524.8</ele>
        <time>2022-06-08 14:15:57</time>
      </trkpt>
      <trkpt lat="42.95018" lon="-0.06577">
        <ele>525.2</ele>
        <time>2022-06-08 14:15:58</time>
      </trkpt>
      <trkpt lat="42.95016" lon="-0.06565">
        <ele>525.4</ele>
        <time>2022-06-08 14:15:59</time>
      </trkpt>
      <trkpt lat="42.95014" lon="-0.06554">
        <ele>525.4</ele>
        <time>2022-06-08 14:16:00</time>
      </trkpt>
      <trkpt lat="42.95013" lon="-0.06543">
        <ele>525.4</ele>
        <time>2022-06-08 14:16:01</time>
      </trkpt>
      <trkpt lat="42.95011" lon="-0.06533">
        <ele>525.4</ele>
        <time>2022-06-08 14:16:02</time>
      </trkpt>
      <trkpt lat="42.95009" lon="-0.06523">
        <ele>525</ele>
        <time>2022-06-08 14:16:03</time>
      </trkpt>
      <trkpt lat="42.95007" lon="-0.06513">
        <ele>524.6</ele>
        <time>2022-06-08 14:16:04</time>
      </trkpt>
      <trkpt lat="42.95005" lon="-0.06504">
        <ele>524.6</ele>
        <time>2022-06-08 14:16:05</time>
      </trkpt>
      <trkpt lat="42.95003" lon="-0.06494">
        <ele>524.6</ele>
        <time>2022-06-08 14:16:06</time>
      </trkpt>
      <trkpt lat="42.95001" lon="-0.06485">
        <ele>524.6</ele>
        <time>2022-06-08 14:16:07</time>
      </trkpt>
      <trkpt lat="42.94999" lon="-0.06476">
        <ele>524.6</ele>
        <time>2022-06-08 14:16:08</time>
      </trkpt>
      <trkpt lat="42.94997" lon="-0.06468">
        <ele>524.8</ele>
        <time>2022-06-08 14:16:09</time>
      </trkpt>
      <trkpt lat="42.94994" lon="-0.0646">
        <ele>524.8</ele>
        <time>2022-06-08 14:16:10</time>
      </trkpt>
      <trkpt lat="42.94993" lon="-0.06453">
        <ele>524.8</ele>
        <time>2022-06-08 14:16:11</time>
      </trkpt>
      <trkpt lat="42.9499" lon="-0.06444">
        <ele>524.8</ele>
        <time>2022-06-08 14:16:12</time>
      </trkpt>
      <trkpt lat="42.94987" lon="-0.06436">
        <ele>524.8</ele>
        <time>2022-06-08 14:16:13</time>
      </trkpt>
      <trkpt lat="42.94984" lon="-0.06428">
        <ele>524.6</ele>
        <time>2022-06-08 14:16:14</time>
      </trkpt>
      <trkpt lat="42.94981" lon="-0.0642">
        <ele>524.8</ele>
        <time>2022-06-08 14:16:15</time>
      </trkpt>
      <trkpt lat="42.94978" lon="-0.06412">
        <ele>524.8</ele>
        <time>2022-06-08 14:16:16</time>
      </trkpt>
      <trkpt lat="42.94975" lon="-0.06404">
        <ele>524.8</ele>
        <time>2022-06-08 14:16:17</time>
      </trkpt>
      <trkpt lat="42.94972" lon="-0.06395">
        <ele>524.8</ele>
        <time>2022-06-08 14:16:18</time>
      </trkpt>
      <trkpt lat="42.94969" lon="-0.06387">
        <ele>524.8</ele>
        <time>2022-06-08 14:16:19</time>
      </trkpt>
      <trkpt lat="42.94965" lon="-0.06379">
        <ele>525</ele>
        <time>2022-06-08 14:16:20</time>
      </trkpt>
      <trkpt lat="42.94962" lon="-0.06371">
        <ele>525</ele>
        <time>2022-06-08 14:16:21</time>
      </trkpt>
      <trkpt lat="42.94959" lon="-0.06362">
        <ele>525</ele>
        <time>2022-06-08 14:16:22</time>
      </trkpt>
      <trkpt lat="42.94956" lon="-0.06354">
        <ele>525.2</ele>
        <time>2022-06-08 14:16:23</time>
      </trkpt>
      <trkpt lat="42.94954" lon="-0.06348">
        <ele>525.4</ele>
        <time>2022-06-08 14:16:24</time>
      </trkpt>
      <trkpt lat="42.9495" lon="-0.0634">
        <ele>525.6</ele>
        <time>2022-06-08 14:16:25</time>
      </trkpt>
      <trkpt lat="42.94946" lon="-0.06331">
        <ele>525.6</ele>
        <time>2022-06-08 14:16:26</time>
      </trkpt>
      <trkpt lat="42.94943" lon="-0.06324">
        <ele>526</ele>
        <time>2022-06-08 14:16:27</time>
      </trkpt>
      <trkpt lat="42.9494" lon="-0.06316">
        <ele>526.2</ele>
        <time>2022-06-08 14:16:28</time>
      </trkpt>
      <trkpt lat="42.94936" lon="-0.06309">
        <ele>526.4</ele>
        <time>2022-06-08 14:16:29</time>
      </trkpt>
      <trkpt lat="42.94932" lon="-0.06302">
        <ele>526.6</ele>
        <time>2022-06-08 14:16:30</time>
      </trkpt>
      <trkpt lat="42.94928" lon="-0.06295">
        <ele>527</ele>
        <time>2022-06-08 14:16:31</time>
      </trkpt>
      <trkpt lat="42.94923" lon="-0.06288">
        <ele>527.2</ele>
        <time>2022-06-08 14:16:32</time>
      </trkpt>
      <trkpt lat="42.94919" lon="-0.06281">
        <ele>527.2</ele>
        <time>2022-06-08 14:16:33</time>
      </trkpt>
      <trkpt lat="42.94915" lon="-0.06274">
        <ele>527.4</ele>
        <time>2022-06-08 14:16:34</time>
      </trkpt>
      <trkpt lat="42.94911" lon="-0.06266">
        <ele>527.4</ele>
        <time>2022-06-08 14:16:35</time>
      </trkpt>
      <trkpt lat="42.94907" lon="-0.06259">
        <ele>527.6</ele>
        <time>2022-06-08 14:16:36</time>
      </trkpt>
      <trkpt lat="42.94903" lon="-0.06252">
        <ele>527.6</ele>
        <time>2022-06-08 14:16:37</time>
      </trkpt>
      <trkpt lat="42.94899" lon="-0.06245">
        <ele>527.6</ele>
        <time>2022-06-08 14:16:38</time>
      </trkpt>
      <trkpt lat="42.94896" lon="-0.06238">
        <ele>527.6</ele>
        <time>2022-06-08 14:16:39</time>
      </trkpt>
      <trkpt lat="42.94893" lon="-0.06231">
        <ele>527.6</ele>
        <time>2022-06-08 14:16:40</time>
      </trkpt>
      <trkpt lat="42.9489" lon="-0.06225">
        <ele>527.6</ele>
        <time>2022-06-08 14:16:41</time>
      </trkpt>
      <trkpt lat="42.94887" lon="-0.06218">
        <ele>527.8</ele>
        <time>2022-06-08 14:16:42</time>
      </trkpt>
      <trkpt lat="42.94884" lon="-0.06211">
        <ele>527.8</ele>
        <time>2022-06-08 14:16:43</time>
      </trkpt>
      <trkpt lat="42.94881" lon="-0.06204">
        <ele>527.8</ele>
        <time>2022-06-08 14:16:44</time>
      </trkpt>
      <trkpt lat="42.94878" lon="-0.06197">
        <ele>528</ele>
        <time>2022-06-08 14:16:45</time>
      </trkpt>
      <trkpt lat="42.94874" lon="-0.06189">
        <ele>528</ele>
        <time>2022-06-08 14:16:46</time>
      </trkpt>
      <trkpt lat="42.9487" lon="-0.06182">
        <ele>528.2</ele>
        <time>2022-06-08 14:16:47</time>
      </trkpt>
      <trkpt lat="42.94866" lon="-0.06174">
        <ele>528.2</ele>
        <time>2022-06-08 14:16:48</time>
      </trkpt>
      <trkpt lat="42.94862" lon="-0.06166">
        <ele>528.2</ele>
        <time>2022-06-08 14:16:49</time>
      </trkpt>
      <trkpt lat="42.94858" lon="-0.06157">
        <ele>528.2</ele>
        <time>2022-06-08 14:16:50</time>
      </trkpt>
      <trkpt lat="42.94854" lon="-0.06149">
        <ele>528.2</ele>
        <time>2022-06-08 14:16:51</time>
      </trkpt>
      <trkpt lat="42.9485" lon="-0.06141">
        <ele>528.4</ele>
        <time>2022-06-08 14:16:52</time>
      </trkpt>
      <trkpt lat="42.94846" lon="-0.06133">
        <ele>528.4</ele>
        <time>2022-06-08 14:16:53</time>
      </trkpt>
      <trkpt lat="42.94841" lon="-0.06126">
        <ele>528.4</ele>
        <time>2022-06-08 14:16:54</time>
      </trkpt>
      <trkpt lat="42.94838" lon="-0.06119">
        <ele>528.6</ele>
        <time>2022-06-08 14:16:55</time>
      </trkpt>
      <trkpt lat="42.94834" lon="-0.06111">
        <ele>528.6</ele>
        <time>2022-06-08 14:16:56</time>
      </trkpt>
      <trkpt lat="42.9483" lon="-0.06104">
        <ele>528.8</ele>
        <time>2022-06-08 14:16:57</time>
      </trkpt>
      <trkpt lat="42.94826" lon="-0.06097">
        <ele>528.8</ele>
        <time>2022-06-08 14:16:58</time>
      </trkpt>
      <trkpt lat="42.94823" lon="-0.06089">
        <ele>528.8</ele>
        <time>2022-06-08 14:16:59</time>
      </trkpt>
      <trkpt lat="42.94819" lon="-0.06082">
        <ele>529</ele>
        <time>2022-06-08 14:17:00</time>
      </trkpt>
      <trkpt lat="42.94815" lon="-0.06074">
        <ele>529</ele>
        <time>2022-06-08 14:17:01</time>
      </trkpt>
      <trkpt lat="42.94811" lon="-0.06067">
        <ele>529.2</ele>
        <time>2022-06-08 14:17:02</time>
      </trkpt>
      <trkpt lat="42.94807" lon="-0.0606">
        <ele>529.2</ele>
        <time>2022-06-08 14:17:03</time>
      </trkpt>
      <trkpt lat="42.94803" lon="-0.06053">
        <ele>529.4</ele>
        <time>2022-06-08 14:17:04</time>
      </trkpt>
      <trkpt lat="42.94798" lon="-0.06046">
        <ele>529.6</ele>
        <time>2022-06-08 14:17:05</time>
      </trkpt>
      <trkpt lat="42.94794" lon="-0.06039">
        <ele>529.6</ele>
        <time>2022-06-08 14:17:06</time>
      </trkpt>
      <trkpt lat="42.9479" lon="-0.06033">
        <ele>529.6</ele>
        <time>2022-06-08 14:17:07</time>
      </trkpt>
      <trkpt lat="42.94785" lon="-0.06026">
        <ele>529.8</ele>
        <time>2022-06-08 14:17:08</time>
      </trkpt>
      <trkpt lat="42.94779" lon="-0.06019">
        <ele>529.8</ele>
        <time>2022-06-08 14:17:09</time>
      </trkpt>
      <trkpt lat="42.94774" lon="-0.06013">
        <ele>529.8</ele>
        <time>2022-06-08 14:17:10</time>
      </trkpt>
      <trkpt lat="42.9477" lon="-0.06006">
        <ele>530</ele>
        <time>2022-06-08 14:17:11</time>
      </trkpt>
      <trkpt lat="42.94766" lon="-0.05999">
        <ele>530</ele>
        <time>2022-06-08 14:17:12</time>
      </trkpt>
      <trkpt lat="42.94761" lon="-0.05991">
        <ele>530.2</ele>
        <time>2022-06-08 14:17:13</time>
      </trkpt>
      <trkpt lat="42.94758" lon="-0.05986">
        <ele>530.4</ele>
        <time>2022-06-08 14:17:14</time>
      </trkpt>
      <trkpt lat="42.94755" lon="-0.05978">
        <ele>530.6</ele>
        <time>2022-06-08 14:17:15</time>
      </trkpt>
      <trkpt lat="42.94752" lon="-0.05971">
        <ele>530.6</ele>
        <time>2022-06-08 14:17:16</time>
      </trkpt>
      <trkpt lat="42.94748" lon="-0.05964">
        <ele>530.8</ele>
        <time>2022-06-08 14:17:17</time>
      </trkpt>
      <trkpt lat="42.94745" lon="-0.05956">
        <ele>531</ele>
        <time>2022-06-08 14:17:18</time>
      </trkpt>
      <trkpt lat="42.94742" lon="-0.05948">
        <ele>531.2</ele>
        <time>2022-06-08 14:17:19</time>
      </trkpt>
      <trkpt lat="42.94738" lon="-0.05939">
        <ele>531.2</ele>
        <time>2022-06-08 14:17:20</time>
      </trkpt>
      <trkpt lat="42.94736" lon="-0.05932">
        <ele>531.4</ele>
        <time>2022-06-08 14:17:21</time>
      </trkpt>
      <trkpt lat="42.94732" lon="-0.05923">
        <ele>531.4</ele>
        <time>2022-06-08 14:17:22</time>
      </trkpt>
      <trkpt lat="42.9473" lon="-0.05917">
        <ele>531.8</ele>
        <time>2022-06-08 14:17:23</time>
      </trkpt>
      <trkpt lat="42.94728" lon="-0.05909">
        <ele>531.8</ele>
        <time>2022-06-08 14:17:24</time>
      </trkpt>
      <trkpt lat="42.94725" lon="-0.05901">
        <ele>532</ele>
        <time>2022-06-08 14:17:25</time>
      </trkpt>
      <trkpt lat="42.94722" lon="-0.05892">
        <ele>532.2</ele>
        <time>2022-06-08 14:17:26</time>
      </trkpt>
      <trkpt lat="42.9472" lon="-0.05886">
        <ele>532.4</ele>
        <time>2022-06-08 14:17:27</time>
      </trkpt>
      <trkpt lat="42.94718" lon="-0.05878">
        <ele>532.4</ele>
        <time>2022-06-08 14:17:28</time>
      </trkpt>
      <trkpt lat="42.94715" lon="-0.0587">
        <ele>532.6</ele>
        <time>2022-06-08 14:17:29</time>
      </trkpt>
      <trkpt lat="42.94713" lon="-0.05863">
        <ele>532.8</ele>
        <time>2022-06-08 14:17:30</time>
      </trkpt>
      <trkpt lat="42.94711" lon="-0.05855">
        <ele>533</ele>
        <time>2022-06-08 14:17:31</time>
      </trkpt>
      <trkpt lat="42.9471" lon="-0.05848">
        <ele>533</ele>
        <time>2022-06-08 14:17:32</time>
      </trkpt>
      <trkpt lat="42.94708" lon="-0.0584">
        <ele>533.2</ele>
        <time>2022-06-08 14:17:33</time>
      </trkpt>
      <trkpt lat="42.94706" lon="-0.05832">
        <ele>533.4</ele>
        <time>2022-06-08 14:17:34</time>
      </trkpt>
      <trkpt lat="42.94705" lon="-0.05824">
        <ele>533.4</ele>
        <time>2022-06-08 14:17:35</time>
      </trkpt>
      <trkpt lat="42.94704" lon="-0.05815">
        <ele>533.6</ele>
        <time>2022-06-08 14:17:36</time>
      </trkpt>
      <trkpt lat="42.94702" lon="-0.05807">
        <ele>533.6</ele>
        <time>2022-06-08 14:17:37</time>
      </trkpt>
      <trkpt lat="42.94701" lon="-0.05798">
        <ele>533.8</ele>
        <time>2022-06-08 14:17:38</time>
      </trkpt>
      <trkpt lat="42.94699" lon="-0.0579">
        <ele>533.8</ele>
        <time>2022-06-08 14:17:39</time>
      </trkpt>
      <trkpt lat="42.94698" lon="-0.05782">
        <ele>533.8</ele>
        <time>2022-06-08 14:17:40</time>
      </trkpt>
      <trkpt lat="42.94696" lon="-0.05774">
        <ele>534</ele>
        <time>2022-06-08 14:17:41</time>
      </trkpt>
      <trkpt lat="42.94695" lon="-0.05766">
        <ele>534</ele>
        <time>2022-06-08 14:17:42</time>
      </trkpt>
      <trkpt lat="42.94693" lon="-0.05758">
        <ele>534</ele>
        <time>2022-06-08 14:17:43</time>
      </trkpt>
      <trkpt lat="42.94691" lon="-0.05751">
        <ele>534</ele>
        <time>2022-06-08 14:17:44</time>
      </trkpt>
      <trkpt lat="42.94689" lon="-0.05743">
        <ele>534.4</ele>
        <time>2022-06-08 14:17:45</time>
      </trkpt>
      <trkpt lat="42.94686" lon="-0.05736">
        <ele>534.4</ele>
        <time>2022-06-08 14:17:46</time>
      </trkpt>
      <trkpt lat="42.94683" lon="-0.05728">
        <ele>534.6</ele>
        <time>2022-06-08 14:17:47</time>
      </trkpt>
      <trkpt lat="42.94681" lon="-0.05721">
        <ele>534.8</ele>
        <time>2022-06-08 14:17:48</time>
      </trkpt>
      <trkpt lat="42.94678" lon="-0.05714">
        <ele>534.8</ele>
        <time>2022-06-08 14:17:49</time>
      </trkpt>
      <trkpt lat="42.94674" lon="-0.05708">
        <ele>535</ele>
        <time>2022-06-08 14:17:50</time>
      </trkpt>
      <trkpt lat="42.94671" lon="-0.05701">
        <ele>534.8</ele>
        <time>2022-06-08 14:17:51</time>
      </trkpt>
      <trkpt lat="42.94667" lon="-0.05694">
        <ele>535.2</ele>
        <time>2022-06-08 14:17:52</time>
      </trkpt>
      <trkpt lat="42.94663" lon="-0.05688">
        <ele>535</ele>
        <time>2022-06-08 14:17:53</time>
      </trkpt>
      <trkpt lat="42.94658" lon="-0.05682">
        <ele>535.4</ele>
        <time>2022-06-08 14:17:54</time>
      </trkpt>
      <trkpt lat="42.94654" lon="-0.05677">
        <ele>535.4</ele>
        <time>2022-06-08 14:17:55</time>
      </trkpt>
      <trkpt lat="42.9465" lon="-0.05671">
        <ele>535.6</ele>
        <time>2022-06-08 14:17:56</time>
      </trkpt>
      <trkpt lat="42.94645" lon="-0.05665">
        <ele>535.8</ele>
        <time>2022-06-08 14:17:57</time>
      </trkpt>
      <trkpt lat="42.9464" lon="-0.0566">
        <ele>536</ele>
        <time>2022-06-08 14:17:58</time>
      </trkpt>
      <trkpt lat="42.94635" lon="-0.05654">
        <ele>536.2</ele>
        <time>2022-06-08 14:17:59</time>
      </trkpt>
      <trkpt lat="42.9463" lon="-0.05649">
        <ele>536.2</ele>
        <time>2022-06-08 14:18:00</time>
      </trkpt>
      <trkpt lat="42.94625" lon="-0.05644">
        <ele>536.4</ele>
        <time>2022-06-08 14:18:01</time>
      </trkpt>
      <trkpt lat="42.9462" lon="-0.05638">
        <ele>536.4</ele>
        <time>2022-06-08 14:18:02</time>
      </trkpt>
      <trkpt lat="42.94615" lon="-0.05633">
        <ele>536.6</ele>
        <time>2022-06-08 14:18:03</time>
      </trkpt>
      <trkpt lat="42.9461" lon="-0.05627">
        <ele>536.6</ele>
        <time>2022-06-08 14:18:04</time>
      </trkpt>
      <trkpt lat="42.94605" lon="-0.05622">
        <ele>536.8</ele>
        <time>2022-06-08 14:18:05</time>
      </trkpt>
      <trkpt lat="42.946" lon="-0.05616">
        <ele>536.8</ele>
        <time>2022-06-08 14:18:06</time>
      </trkpt>
      <trkpt lat="42.94596" lon="-0.05611">
        <ele>537</ele>
        <time>2022-06-08 14:18:07</time>
      </trkpt>
      <trkpt lat="42.94591" lon="-0.05606">
        <ele>537</ele>
        <time>2022-06-08 14:18:08</time>
      </trkpt>
      <trkpt lat="42.94586" lon="-0.056">
        <ele>537.2</ele>
        <time>2022-06-08 14:18:09</time>
      </trkpt>
      <trkpt lat="42.94581" lon="-0.05594">
        <ele>537.2</ele>
        <time>2022-06-08 14:18:10</time>
      </trkpt>
      <trkpt lat="42.94575" lon="-0.05589">
        <ele>537.4</ele>
        <time>2022-06-08 14:18:11</time>
      </trkpt>
      <trkpt lat="42.94572" lon="-0.05585">
        <ele>537.6</ele>
        <time>2022-06-08 14:18:12</time>
      </trkpt>
      <trkpt lat="42.94567" lon="-0.0558">
        <ele>537.6</ele>
        <time>2022-06-08 14:18:13</time>
      </trkpt>
      <trkpt lat="42.94562" lon="-0.05574">
        <ele>538</ele>
        <time>2022-06-08 14:18:14</time>
      </trkpt>
      <trkpt lat="42.94556" lon="-0.05568">
        <ele>538</ele>
        <time>2022-06-08 14:18:15</time>
      </trkpt>
      <trkpt lat="42.94552" lon="-0.05562">
        <ele>538</ele>
        <time>2022-06-08 14:18:16</time>
      </trkpt>
      <trkpt lat="42.94548" lon="-0.05557">
        <ele>538.2</ele>
        <time>2022-06-08 14:18:17</time>
      </trkpt>
      <trkpt lat="42.94543" lon="-0.05552">
        <ele>538.4</ele>
        <time>2022-06-08 14:18:18</time>
      </trkpt>
      <trkpt lat="42.94537" lon="-0.05545">
        <ele>538.4</ele>
        <time>2022-06-08 14:18:19</time>
      </trkpt>
      <trkpt lat="42.94533" lon="-0.0554">
        <ele>538.6</ele>
        <time>2022-06-08 14:18:20</time>
      </trkpt>
      <trkpt lat="42.94528" lon="-0.05534">
        <ele>538.8</ele>
        <time>2022-06-08 14:18:21</time>
      </trkpt>
      <trkpt lat="42.94524" lon="-0.05529">
        <ele>539</ele>
        <time>2022-06-08 14:18:22</time>
      </trkpt>
      <trkpt lat="42.94519" lon="-0.05523">
        <ele>538.8</ele>
        <time>2022-06-08 14:18:23</time>
      </trkpt>
      <trkpt lat="42.94513" lon="-0.05515">
        <ele>538.8</ele>
        <time>2022-06-08 14:18:24</time>
      </trkpt>
      <trkpt lat="42.9451" lon="-0.05511">
        <ele>539</ele>
        <time>2022-06-08 14:18:25</time>
      </trkpt>
      <trkpt lat="42.94505" lon="-0.05505">
        <ele>539</ele>
        <time>2022-06-08 14:18:26</time>
      </trkpt>
      <trkpt lat="42.945" lon="-0.05498">
        <ele>539.2</ele>
        <time>2022-06-08 14:18:27</time>
      </trkpt>
      <trkpt lat="42.94496" lon="-0.05492">
        <ele>539.2</ele>
        <time>2022-06-08 14:18:28</time>
      </trkpt>
      <trkpt lat="42.9449" lon="-0.05484">
        <ele>539.2</ele>
        <time>2022-06-08 14:18:29</time>
      </trkpt>
      <trkpt lat="42.94485" lon="-0.05478">
        <ele>539.2</ele>
        <time>2022-06-08 14:18:30</time>
      </trkpt>
      <trkpt lat="42.9448" lon="-0.05472">
        <ele>539.4</ele>
        <time>2022-06-08 14:18:31</time>
      </trkpt>
      <trkpt lat="42.94476" lon="-0.05467">
        <ele>539.4</ele>
        <time>2022-06-08 14:18:32</time>
      </trkpt>
      <trkpt lat="42.94472" lon="-0.05461">
        <ele>539.6</ele>
        <time>2022-06-08 14:18:33</time>
      </trkpt>
      <trkpt lat="42.94466" lon="-0.05454">
        <ele>539.6</ele>
        <time>2022-06-08 14:18:34</time>
      </trkpt>
      <trkpt lat="42.94461" lon="-0.05448">
        <ele>539.6</ele>
        <time>2022-06-08 14:18:35</time>
      </trkpt>
      <trkpt lat="42.94456" lon="-0.05442">
        <ele>539.6</ele>
        <time>2022-06-08 14:18:36</time>
      </trkpt>
      <trkpt lat="42.94452" lon="-0.05438">
        <ele>539.8</ele>
        <time>2022-06-08 14:18:37</time>
      </trkpt>
      <trkpt lat="42.94446" lon="-0.05431">
        <ele>539.8</ele>
        <time>2022-06-08 14:18:38</time>
      </trkpt>
      <trkpt lat="42.94441" lon="-0.05426">
        <ele>539.8</ele>
        <time>2022-06-08 14:18:39</time>
      </trkpt>
      <trkpt lat="42.94436" lon="-0.05421">
        <ele>539.8</ele>
        <time>2022-06-08 14:18:40</time>
      </trkpt>
      <trkpt lat="42.94432" lon="-0.05416">
        <ele>540</ele>
        <time>2022-06-08 14:18:41</time>
      </trkpt>
      <trkpt lat="42.94427" lon="-0.05411">
        <ele>540</ele>
        <time>2022-06-08 14:18:42</time>
      </trkpt>
      <trkpt lat="42.94421" lon="-0.05405">
        <ele>540.2</ele>
        <time>2022-06-08 14:18:43</time>
      </trkpt>
      <trkpt lat="42.94416" lon="-0.05399">
        <ele>540.6</ele>
        <time>2022-06-08 14:18:44</time>
      </trkpt>
      <trkpt lat="42.94411" lon="-0.05394">
        <ele>540.6</ele>
        <time>2022-06-08 14:18:45</time>
      </trkpt>
      <trkpt lat="42.94407" lon="-0.05389">
        <ele>540.8</ele>
        <time>2022-06-08 14:18:46</time>
      </trkpt>
      <trkpt lat="42.94402" lon="-0.05384">
        <ele>541</ele>
        <time>2022-06-08 14:18:47</time>
      </trkpt>
      <trkpt lat="42.94397" lon="-0.05379">
        <ele>541</ele>
        <time>2022-06-08 14:18:48</time>
      </trkpt>
      <trkpt lat="42.9439" lon="-0.05373">
        <ele>541</ele>
        <time>2022-06-08 14:18:49</time>
      </trkpt>
      <trkpt lat="42.94384" lon="-0.05368">
        <ele>541</ele>
        <time>2022-06-08 14:18:50</time>
      </trkpt>
      <trkpt lat="42.94379" lon="-0.05365">
        <ele>541</ele>
        <time>2022-06-08 14:18:51</time>
      </trkpt>
      <trkpt lat="42.94373" lon="-0.0536">
        <ele>541</ele>
        <time>2022-06-08 14:18:52</time>
      </trkpt>
      <trkpt lat="42.94366" lon="-0.05356">
        <ele>541.2</ele>
        <time>2022-06-08 14:18:53</time>
      </trkpt>
      <trkpt lat="42.9436" lon="-0.05352">
        <ele>541.4</ele>
        <time>2022-06-08 14:18:54</time>
      </trkpt>
      <trkpt lat="42.94354" lon="-0.05347">
        <ele>541.4</ele>
        <time>2022-06-08 14:18:55</time>
      </trkpt>
      <trkpt lat="42.94349" lon="-0.05344">
        <ele>541.4</ele>
        <time>2022-06-08 14:18:56</time>
      </trkpt>
      <trkpt lat="42.94342" lon="-0.0534">
        <ele>541.6</ele>
        <time>2022-06-08 14:18:57</time>
      </trkpt>
      <trkpt lat="42.94335" lon="-0.05335">
        <ele>541.6</ele>
        <time>2022-06-08 14:18:58</time>
      </trkpt>
      <trkpt lat="42.94329" lon="-0.05331">
        <ele>541.6</ele>
        <time>2022-06-08 14:18:59</time>
      </trkpt>
      <trkpt lat="42.94322" lon="-0.05327">
        <ele>541.6</ele>
        <time>2022-06-08 14:19:00</time>
      </trkpt>
      <trkpt lat="42.94317" lon="-0.05324">
        <ele>541.8</ele>
        <time>2022-06-08 14:19:01</time>
      </trkpt>
      <trkpt lat="42.94311" lon="-0.0532">
        <ele>541.8</ele>
        <time>2022-06-08 14:19:02</time>
      </trkpt>
      <trkpt lat="42.94303" lon="-0.05315">
        <ele>541.8</ele>
        <time>2022-06-08 14:19:03</time>
      </trkpt>
      <trkpt lat="42.94297" lon="-0.05312">
        <ele>542</ele>
        <time>2022-06-08 14:19:04</time>
      </trkpt>
      <trkpt lat="42.94292" lon="-0.05309">
        <ele>542</ele>
        <time>2022-06-08 14:19:05</time>
      </trkpt>
      <trkpt lat="42.94286" lon="-0.05305">
        <ele>542</ele>
        <time>2022-06-08 14:19:06</time>
      </trkpt>
      <trkpt lat="42.9428" lon="-0.05301">
        <ele>542</ele>
        <time>2022-06-08 14:19:07</time>
      </trkpt>
      <trkpt lat="42.94274" lon="-0.05296">
        <ele>542.2</ele>
        <time>2022-06-08 14:19:08</time>
      </trkpt>
      <trkpt lat="42.94267" lon="-0.05291">
        <ele>542.2</ele>
        <time>2022-06-08 14:19:09</time>
      </trkpt>
      <trkpt lat="42.94262" lon="-0.05285">
        <ele>542.4</ele>
        <time>2022-06-08 14:19:10</time>
      </trkpt>
      <trkpt lat="42.94257" lon="-0.05281">
        <ele>542.6</ele>
        <time>2022-06-08 14:19:11</time>
      </trkpt>
      <trkpt lat="42.94252" lon="-0.05275">
        <ele>542.6</ele>
        <time>2022-06-08 14:19:12</time>
      </trkpt>
      <trkpt lat="42.94246" lon="-0.05268">
        <ele>542.6</ele>
        <time>2022-06-08 14:19:13</time>
      </trkpt>
      <trkpt lat="42.94241" lon="-0.05262">
        <ele>542.6</ele>
        <time>2022-06-08 14:19:14</time>
      </trkpt>
      <trkpt lat="42.94238" lon="-0.05258">
        <ele>542.8</ele>
        <time>2022-06-08 14:19:15</time>
      </trkpt>
      <trkpt lat="42.94233" lon="-0.05253">
        <ele>542.8</ele>
        <time>2022-06-08 14:19:16</time>
      </trkpt>
      <trkpt lat="42.94228" lon="-0.05248">
        <ele>542.8</ele>
        <time>2022-06-08 14:19:17</time>
      </trkpt>
      <trkpt lat="42.94223" lon="-0.05243">
        <ele>543</ele>
        <time>2022-06-08 14:19:18</time>
      </trkpt>
      <trkpt lat="42.94219" lon="-0.05238">
        <ele>543</ele>
        <time>2022-06-08 14:19:19</time>
      </trkpt>
      <trkpt lat="42.94214" lon="-0.05233">
        <ele>543</ele>
        <time>2022-06-08 14:19:20</time>
      </trkpt>
      <trkpt lat="42.94208" lon="-0.0523">
        <ele>543</ele>
        <time>2022-06-08 14:19:21</time>
      </trkpt>
      <trkpt lat="42.94201" lon="-0.05227">
        <ele>543</ele>
        <time>2022-06-08 14:19:22</time>
      </trkpt>
      <trkpt lat="42.94192" lon="-0.05226">
        <ele>543.2</ele>
        <time>2022-06-08 14:19:23</time>
      </trkpt>
      <trkpt lat="42.94186" lon="-0.05226">
        <ele>543.2</ele>
        <time>2022-06-08 14:19:24</time>
      </trkpt>
      <trkpt lat="42.94178" lon="-0.05226">
        <ele>543.2</ele>
        <time>2022-06-08 14:19:25</time>
      </trkpt>
      <trkpt lat="42.9417" lon="-0.05226">
        <ele>543.2</ele>
        <time>2022-06-08 14:19:26</time>
      </trkpt>
      <trkpt lat="42.94163" lon="-0.05228">
        <ele>543.2</ele>
        <time>2022-06-08 14:19:27</time>
      </trkpt>
      <trkpt lat="42.94155" lon="-0.05231">
        <ele>543</ele>
        <time>2022-06-08 14:19:28</time>
      </trkpt>
      <trkpt lat="42.94146" lon="-0.05237">
        <ele>543</ele>
        <time>2022-06-08 14:19:29</time>
      </trkpt>
      <trkpt lat="42.9414" lon="-0.05241">
        <ele>542.8</ele>
        <time>2022-06-08 14:19:30</time>
      </trkpt>
      <trkpt lat="42.94134" lon="-0.05246">
        <ele>542.8</ele>
        <time>2022-06-08 14:19:31</time>
      </trkpt>
      <trkpt lat="42.94127" lon="-0.05252">
        <ele>542.6</ele>
        <time>2022-06-08 14:19:32</time>
      </trkpt>
      <trkpt lat="42.9412" lon="-0.05258">
        <ele>542.6</ele>
        <time>2022-06-08 14:19:33</time>
      </trkpt>
      <trkpt lat="42.94113" lon="-0.05264">
        <ele>542.6</ele>
        <time>2022-06-08 14:19:34</time>
      </trkpt>
      <trkpt lat="42.94108" lon="-0.05269">
        <ele>542.6</ele>
        <time>2022-06-08 14:19:35</time>
      </trkpt>
      <trkpt lat="42.94103" lon="-0.05274">
        <ele>542.6</ele>
        <time>2022-06-08 14:19:36</time>
      </trkpt>
      <trkpt lat="42.94096" lon="-0.05281">
        <ele>542.8</ele>
        <time>2022-06-08 14:19:37</time>
      </trkpt>
      <trkpt lat="42.94092" lon="-0.05286">
        <ele>543</ele>
        <time>2022-06-08 14:19:38</time>
      </trkpt>
      <trkpt lat="42.94086" lon="-0.05292">
        <ele>543</ele>
        <time>2022-06-08 14:19:39</time>
      </trkpt>
      <trkpt lat="42.94081" lon="-0.05299">
        <ele>543.2</ele>
        <time>2022-06-08 14:19:40</time>
      </trkpt>
      <trkpt lat="42.94076" lon="-0.05305">
        <ele>543.2</ele>
        <time>2022-06-08 14:19:41</time>
      </trkpt>
      <trkpt lat="42.9407" lon="-0.05311">
        <ele>543.2</ele>
        <time>2022-06-08 14:19:42</time>
      </trkpt>
      <trkpt lat="42.94064" lon="-0.05318">
        <ele>543.2</ele>
        <time>2022-06-08 14:19:43</time>
      </trkpt>
      <trkpt lat="42.94055" lon="-0.05327">
        <ele>543.4</ele>
        <time>2022-06-08 14:19:44</time>
      </trkpt>
      <trkpt lat="42.94055" lon="-0.05327">
        <ele>543.8</ele>
        <time>2022-06-08 14:19:45</time>
      </trkpt>
      <trkpt lat="42.94049" lon="-0.05331">
        <ele>544</ele>
        <time>2022-06-08 14:19:46</time>
      </trkpt>
      <trkpt lat="42.94043" lon="-0.05334">
        <ele>544.2</ele>
        <time>2022-06-08 14:19:47</time>
      </trkpt>
      <trkpt lat="42.94037" lon="-0.05336">
        <ele>544.6</ele>
        <time>2022-06-08 14:19:48</time>
      </trkpt>
      <trkpt lat="42.94031" lon="-0.05336">
        <ele>544.8</ele>
        <time>2022-06-08 14:19:49</time>
      </trkpt>
      <trkpt lat="42.94024" lon="-0.05336">
        <ele>545.2</ele>
        <time>2022-06-08 14:19:50</time>
      </trkpt>
      <trkpt lat="42.94018" lon="-0.05335">
        <ele>545.4</ele>
        <time>2022-06-08 14:19:51</time>
      </trkpt>
      <trkpt lat="42.94005" lon="-0.0533">
        <ele>545.8</ele>
        <time>2022-06-08 14:19:52</time>
      </trkpt>
      <trkpt lat="42.94005" lon="-0.0533">
        <ele>545.8</ele>
        <time>2022-06-08 14:19:53</time>
      </trkpt>
      <trkpt lat="42.94" lon="-0.05326">
        <ele>546</ele>
        <time>2022-06-08 14:19:54</time>
      </trkpt>
      <trkpt lat="42.93994" lon="-0.05321">
        <ele>546.2</ele>
        <time>2022-06-08 14:19:55</time>
      </trkpt>
      <trkpt lat="42.93989" lon="-0.05315">
        <ele>546.4</ele>
        <time>2022-06-08 14:19:56</time>
      </trkpt>
      <trkpt lat="42.93981" lon="-0.05301">
        <ele>546.8</ele>
        <time>2022-06-08 14:19:57</time>
      </trkpt>
      <trkpt lat="42.93981" lon="-0.05301">
        <ele>547.2</ele>
        <time>2022-06-08 14:19:58</time>
      </trkpt>
      <trkpt lat="42.93978" lon="-0.05294">
        <ele>547.6</ele>
        <time>2022-06-08 14:19:59</time>
      </trkpt>
      <trkpt lat="42.93975" lon="-0.05286">
        <ele>547.8</ele>
        <time>2022-06-08 14:20:00</time>
      </trkpt>
      <trkpt lat="42.93972" lon="-0.05278">
        <ele>548</ele>
        <time>2022-06-08 14:20:01</time>
      </trkpt>
      <trkpt lat="42.93969" lon="-0.0527">
        <ele>548</ele>
        <time>2022-06-08 14:20:02</time>
      </trkpt>
      <trkpt lat="42.93966" lon="-0.05262">
        <ele>548.2</ele>
        <time>2022-06-08 14:20:03</time>
      </trkpt>
      <trkpt lat="42.93964" lon="-0.05255">
        <ele>548.2</ele>
        <time>2022-06-08 14:20:04</time>
      </trkpt>
      <trkpt lat="42.93958" lon="-0.05239">
        <ele>548.2</ele>
        <time>2022-06-08 14:20:05</time>
      </trkpt>
      <trkpt lat="42.93958" lon="-0.05239">
        <ele>548.2</ele>
        <time>2022-06-08 14:20:06</time>
      </trkpt>
      <trkpt lat="42.93956" lon="-0.05231">
        <ele>548.4</ele>
        <time>2022-06-08 14:20:07</time>
      </trkpt>
      <trkpt lat="42.93953" lon="-0.05223">
        <ele>548.4</ele>
        <time>2022-06-08 14:20:08</time>
      </trkpt>
      <trkpt lat="42.93952" lon="-0.05216">
        <ele>548.6</ele>
        <time>2022-06-08 14:20:09</time>
      </trkpt>
      <trkpt lat="42.9395" lon="-0.05209">
        <ele>548.8</ele>
        <time>2022-06-08 14:20:10</time>
      </trkpt>
      <trkpt lat="42.93949" lon="-0.05201">
        <ele>549</ele>
        <time>2022-06-08 14:20:11</time>
      </trkpt>
      <trkpt lat="42.93947" lon="-0.05193">
        <ele>549.2</ele>
        <time>2022-06-08 14:20:12</time>
      </trkpt>
      <trkpt lat="42.93945" lon="-0.05179">
        <ele>549.2</ele>
        <time>2022-06-08 14:20:13</time>
      </trkpt>
      <trkpt lat="42.93945" lon="-0.05179">
        <ele>549.8</ele>
        <time>2022-06-08 14:20:14</time>
      </trkpt>
      <trkpt lat="42.93943" lon="-0.05164">
        <ele>550</ele>
        <time>2022-06-08 14:20:15</time>
      </trkpt>
      <trkpt lat="42.93941" lon="-0.05156">
        <ele>550.4</ele>
        <time>2022-06-08 14:20:16</time>
      </trkpt>
      <trkpt lat="42.9394" lon="-0.05148">
        <ele>550.6</ele>
        <time>2022-06-08 14:20:17</time>
      </trkpt>
      <trkpt lat="42.9394" lon="-0.05148">
        <ele>551</ele>
        <time>2022-06-08 14:20:18</time>
      </trkpt>
      <trkpt lat="42.93938" lon="-0.05141">
        <ele>551.2</ele>
        <time>2022-06-08 14:20:19</time>
      </trkpt>
      <trkpt lat="42.93935" lon="-0.05127">
        <ele>551.6</ele>
        <time>2022-06-08 14:20:20</time>
      </trkpt>
      <trkpt lat="42.93933" lon="-0.0512">
        <ele>551.8</ele>
        <time>2022-06-08 14:20:21</time>
      </trkpt>
      <trkpt lat="42.93933" lon="-0.0512">
        <ele>552</ele>
        <time>2022-06-08 14:20:22</time>
      </trkpt>
      <trkpt lat="42.93931" lon="-0.05114">
        <ele>552.4</ele>
        <time>2022-06-08 14:20:23</time>
      </trkpt>
      <trkpt lat="42.93928" lon="-0.05107">
        <ele>552.4</ele>
        <time>2022-06-08 14:20:24</time>
      </trkpt>
      <trkpt lat="42.93925" lon="-0.05101">
        <ele>553</ele>
        <time>2022-06-08 14:20:25</time>
      </trkpt>
      <trkpt lat="42.93919" lon="-0.0509">
        <ele>553</ele>
        <time>2022-06-08 14:20:26</time>
      </trkpt>
      <trkpt lat="42.93919" lon="-0.0509">
        <ele>553.4</ele>
        <time>2022-06-08 14:20:27</time>
      </trkpt>
      <trkpt lat="42.93911" lon="-0.05077">
        <ele>553.4</ele>
        <time>2022-06-08 14:20:28</time>
      </trkpt>
      <trkpt lat="42.93907" lon="-0.05071">
        <ele>553.6</ele>
        <time>2022-06-08 14:20:29</time>
      </trkpt>
      <trkpt lat="42.93907" lon="-0.05071">
        <ele>553.6</ele>
        <time>2022-06-08 14:20:30</time>
      </trkpt>
      <trkpt lat="42.93899" lon="-0.05061">
        <ele>554</ele>
        <time>2022-06-08 14:20:31</time>
      </trkpt>
      <trkpt lat="42.93895" lon="-0.05056">
        <ele>554</ele>
        <time>2022-06-08 14:20:32</time>
      </trkpt>
      <trkpt lat="42.93895" lon="-0.05056">
        <ele>554.2</ele>
        <time>2022-06-08 14:20:33</time>
      </trkpt>
      <trkpt lat="42.93886" lon="-0.05045">
        <ele>554.4</ele>
        <time>2022-06-08 14:20:34</time>
      </trkpt>
      <trkpt lat="42.9388" lon="-0.05041">
        <ele>554.4</ele>
        <time>2022-06-08 14:20:35</time>
      </trkpt>
      <trkpt lat="42.93875" lon="-0.05037">
        <ele>554.6</ele>
        <time>2022-06-08 14:20:36</time>
      </trkpt>
      <trkpt lat="42.93875" lon="-0.05037">
        <ele>554.6</ele>
        <time>2022-06-08 14:20:37</time>
      </trkpt>
      <trkpt lat="42.93864" lon="-0.05029">
        <ele>554.8</ele>
        <time>2022-06-08 14:20:38</time>
      </trkpt>
      <trkpt lat="42.93859" lon="-0.05026">
        <ele>554.8</ele>
        <time>2022-06-08 14:20:39</time>
      </trkpt>
      <trkpt lat="42.93859" lon="-0.05026">
        <ele>554.8</ele>
        <time>2022-06-08 14:20:40</time>
      </trkpt>
      <trkpt lat="42.93853" lon="-0.05023">
        <ele>554.8</ele>
        <time>2022-06-08 14:20:41</time>
      </trkpt>
      <trkpt lat="42.93842" lon="-0.05018">
        <ele>555</ele>
        <time>2022-06-08 14:20:42</time>
      </trkpt>
      <trkpt lat="42.93842" lon="-0.05018">
        <ele>555.2</ele>
        <time>2022-06-08 14:20:43</time>
      </trkpt>
      <trkpt lat="42.93831" lon="-0.05014">
        <ele>555.4</ele>
        <time>2022-06-08 14:20:44</time>
      </trkpt>
      <trkpt lat="42.93826" lon="-0.05012">
        <ele>555.4</ele>
        <time>2022-06-08 14:20:45</time>
      </trkpt>
      <trkpt lat="42.93826" lon="-0.05012">
        <ele>555.6</ele>
        <time>2022-06-08 14:20:46</time>
      </trkpt>
      <trkpt lat="42.93821" lon="-0.0501">
        <ele>555.6</ele>
        <time>2022-06-08 14:20:47</time>
      </trkpt>
      <trkpt lat="42.9381" lon="-0.05003">
        <ele>555.8</ele>
        <time>2022-06-08 14:20:48</time>
      </trkpt>
      <trkpt lat="42.93805" lon="-0.04999">
        <ele>556.2</ele>
        <time>2022-06-08 14:20:49</time>
      </trkpt>
      <trkpt lat="42.938" lon="-0.04995">
        <ele>556.2</ele>
        <time>2022-06-08 14:20:50</time>
      </trkpt>
      <trkpt lat="42.93794" lon="-0.04992">
        <ele>556.4</ele>
        <time>2022-06-08 14:20:51</time>
      </trkpt>
      <trkpt lat="42.93788" lon="-0.04988">
        <ele>556.4</ele>
        <time>2022-06-08 14:20:52</time>
      </trkpt>
      <trkpt lat="42.93783" lon="-0.04985">
        <ele>556.8</ele>
        <time>2022-06-08 14:20:53</time>
      </trkpt>
      <trkpt lat="42.93777" lon="-0.04983">
        <ele>557</ele>
        <time>2022-06-08 14:20:54</time>
      </trkpt>
      <trkpt lat="42.93772" lon="-0.04981">
        <ele>557.2</ele>
        <time>2022-06-08 14:20:55</time>
      </trkpt>
      <trkpt lat="42.93766" lon="-0.04978">
        <ele>557.4</ele>
        <time>2022-06-08 14:20:56</time>
      </trkpt>
      <trkpt lat="42.93761" lon="-0.04976">
        <ele>557.6</ele>
        <time>2022-06-08 14:20:57</time>
      </trkpt>
      <trkpt lat="42.93756" lon="-0.04973">
        <ele>557.6</ele>
        <time>2022-06-08 14:20:58</time>
      </trkpt>
      <trkpt lat="42.93751" lon="-0.0497">
        <ele>558</ele>
        <time>2022-06-08 14:20:59</time>
      </trkpt>
      <trkpt lat="42.93746" lon="-0.04969">
        <ele>558.2</ele>
        <time>2022-06-08 14:21:00</time>
      </trkpt>
      <trkpt lat="42.9374" lon="-0.04966">
        <ele>558.2</ele>
        <time>2022-06-08 14:21:01</time>
      </trkpt>
      <trkpt lat="42.93735" lon="-0.04963">
        <ele>558.4</ele>
        <time>2022-06-08 14:21:02</time>
      </trkpt>
      <trkpt lat="42.9373" lon="-0.04959">
        <ele>558.6</ele>
        <time>2022-06-08 14:21:03</time>
      </trkpt>
      <trkpt lat="42.9373" lon="-0.04959">
        <ele>558.8</ele>
        <time>2022-06-08 14:21:04</time>
      </trkpt>
      <trkpt lat="42.9372" lon="-0.04951">
        <ele>558.8</ele>
        <time>2022-06-08 14:21:05</time>
      </trkpt>
      <trkpt lat="42.9372" lon="-0.04951">
        <ele>559</ele>
        <time>2022-06-08 14:21:06</time>
      </trkpt>
      <trkpt lat="42.93711" lon="-0.04943">
        <ele>559.2</ele>
        <time>2022-06-08 14:21:07</time>
      </trkpt>
      <trkpt lat="42.93707" lon="-0.04938">
        <ele>559.2</ele>
        <time>2022-06-08 14:21:08</time>
      </trkpt>
      <trkpt lat="42.93703" lon="-0.04933">
        <ele>559.2</ele>
        <time>2022-06-08 14:21:09</time>
      </trkpt>
      <trkpt lat="42.93699" lon="-0.04927">
        <ele>559.4</ele>
        <time>2022-06-08 14:21:10</time>
      </trkpt>
      <trkpt lat="42.93699" lon="-0.04927">
        <ele>559.4</ele>
        <time>2022-06-08 14:21:11</time>
      </trkpt>
      <trkpt lat="42.93693" lon="-0.04915">
        <ele>559.6</ele>
        <time>2022-06-08 14:21:12</time>
      </trkpt>
      <trkpt lat="42.9369" lon="-0.04909">
        <ele>560.2</ele>
        <time>2022-06-08 14:21:13</time>
      </trkpt>
      <trkpt lat="42.93687" lon="-0.04903">
        <ele>560.4</ele>
        <time>2022-06-08 14:21:14</time>
      </trkpt>
      <trkpt lat="42.93685" lon="-0.04897">
        <ele>560.8</ele>
        <time>2022-06-08 14:21:15</time>
      </trkpt>
      <trkpt lat="42.93682" lon="-0.0489">
        <ele>560.8</ele>
        <time>2022-06-08 14:21:16</time>
      </trkpt>
      <trkpt lat="42.93679" lon="-0.04884">
        <ele>561</ele>
        <time>2022-06-08 14:21:17</time>
      </trkpt>
      <trkpt lat="42.93679" lon="-0.04884">
        <ele>561.2</ele>
        <time>2022-06-08 14:21:18</time>
      </trkpt>
      <trkpt lat="42.93672" lon="-0.04873">
        <ele>561.4</ele>
        <time>2022-06-08 14:21:19</time>
      </trkpt>
      <trkpt lat="42.93672" lon="-0.04873">
        <ele>561.4</ele>
        <time>2022-06-08 14:21:20</time>
      </trkpt>
      <trkpt lat="42.93664" lon="-0.04865">
        <ele>561.8</ele>
        <time>2022-06-08 14:21:21</time>
      </trkpt>
      <trkpt lat="42.9366" lon="-0.04862">
        <ele>561.8</ele>
        <time>2022-06-08 14:21:22</time>
      </trkpt>
      <trkpt lat="42.93655" lon="-0.04859">
        <ele>562</ele>
        <time>2022-06-08 14:21:23</time>
      </trkpt>
      <trkpt lat="42.9365" lon="-0.04857">
        <ele>562</ele>
        <time>2022-06-08 14:21:24</time>
      </trkpt>
      <trkpt lat="42.93646" lon="-0.04856">
        <ele>562.2</ele>
        <time>2022-06-08 14:21:25</time>
      </trkpt>
      <trkpt lat="42.93641" lon="-0.04855">
        <ele>562.4</ele>
        <time>2022-06-08 14:21:26</time>
      </trkpt>
      <trkpt lat="42.93636" lon="-0.04854">
        <ele>562.4</ele>
        <time>2022-06-08 14:21:27</time>
      </trkpt>
      <trkpt lat="42.93632" lon="-0.04853">
        <ele>562.6</ele>
        <time>2022-06-08 14:21:28</time>
      </trkpt>
      <trkpt lat="42.93627" lon="-0.04853">
        <ele>562.8</ele>
        <time>2022-06-08 14:21:29</time>
      </trkpt>
      <trkpt lat="42.93623" lon="-0.04852">
        <ele>563.2</ele>
        <time>2022-06-08 14:21:30</time>
      </trkpt>
      <trkpt lat="42.93618" lon="-0.04852">
        <ele>563.4</ele>
        <time>2022-06-08 14:21:31</time>
      </trkpt>
      <trkpt lat="42.93613" lon="-0.04851">
        <ele>563.8</ele>
        <time>2022-06-08 14:21:32</time>
      </trkpt>
      <trkpt lat="42.93608" lon="-0.04851">
        <ele>564</ele>
        <time>2022-06-08 14:21:33</time>
      </trkpt>
      <trkpt lat="42.93603" lon="-0.04851">
        <ele>564.4</ele>
        <time>2022-06-08 14:21:34</time>
      </trkpt>
      <trkpt lat="42.93598" lon="-0.04851">
        <ele>564.6</ele>
        <time>2022-06-08 14:21:35</time>
      </trkpt>
      <trkpt lat="42.93598" lon="-0.04851">
        <ele>565</ele>
        <time>2022-06-08 14:21:36</time>
      </trkpt>
      <trkpt lat="42.93589" lon="-0.04852">
        <ele>565.2</ele>
        <time>2022-06-08 14:21:37</time>
      </trkpt>
      <trkpt lat="42.93584" lon="-0.04853">
        <ele>565.4</ele>
        <time>2022-06-08 14:21:38</time>
      </trkpt>
      <trkpt lat="42.93579" lon="-0.04853">
        <ele>565.8</ele>
        <time>2022-06-08 14:21:39</time>
      </trkpt>
      <trkpt lat="42.93575" lon="-0.04854">
        <ele>565.8</ele>
        <time>2022-06-08 14:21:40</time>
      </trkpt>
      <trkpt lat="42.93569" lon="-0.04855">
        <ele>565.8</ele>
        <time>2022-06-08 14:21:41</time>
      </trkpt>
      <trkpt lat="42.93564" lon="-0.04855">
        <ele>566.2</ele>
        <time>2022-06-08 14:21:42</time>
      </trkpt>
      <trkpt lat="42.9356" lon="-0.04856">
        <ele>566.4</ele>
        <time>2022-06-08 14:21:43</time>
      </trkpt>
      <trkpt lat="42.9356" lon="-0.04856">
        <ele>566.8</ele>
        <time>2022-06-08 14:21:44</time>
      </trkpt>
      <trkpt lat="42.93555" lon="-0.04857">
        <ele>567</ele>
        <time>2022-06-08 14:21:45</time>
      </trkpt>
      <trkpt lat="42.93545" lon="-0.04858">
        <ele>567.2</ele>
        <time>2022-06-08 14:21:46</time>
      </trkpt>
      <trkpt lat="42.93541" lon="-0.04859">
        <ele>567.4</ele>
        <time>2022-06-08 14:21:47</time>
      </trkpt>
      <trkpt lat="42.93537" lon="-0.0486">
        <ele>567.6</ele>
        <time>2022-06-08 14:21:48</time>
      </trkpt>
      <trkpt lat="42.93537" lon="-0.0486">
        <ele>567.8</ele>
        <time>2022-06-08 14:21:49</time>
      </trkpt>
      <trkpt lat="42.93528" lon="-0.04862">
        <ele>568.2</ele>
        <time>2022-06-08 14:21:50</time>
      </trkpt>
      <trkpt lat="42.93524" lon="-0.04862">
        <ele>568.2</ele>
        <time>2022-06-08 14:21:51</time>
      </trkpt>
      <trkpt lat="42.93518" lon="-0.04865">
        <ele>568.6</ele>
        <time>2022-06-08 14:21:52</time>
      </trkpt>
      <trkpt lat="42.93514" lon="-0.04866">
        <ele>568.8</ele>
        <time>2022-06-08 14:21:53</time>
      </trkpt>
      <trkpt lat="42.93514" lon="-0.04866">
        <ele>569</ele>
        <time>2022-06-08 14:21:54</time>
      </trkpt>
      <trkpt lat="42.93505" lon="-0.04868">
        <ele>569</ele>
        <time>2022-06-08 14:21:55</time>
      </trkpt>
      <trkpt lat="42.935" lon="-0.04869">
        <ele>569.6</ele>
        <time>2022-06-08 14:21:56</time>
      </trkpt>
      <trkpt lat="42.93495" lon="-0.04869">
        <ele>569.8</ele>
        <time>2022-06-08 14:21:57</time>
      </trkpt>
      <trkpt lat="42.9349" lon="-0.04868">
        <ele>570.4</ele>
        <time>2022-06-08 14:21:58</time>
      </trkpt>
      <trkpt lat="42.9349" lon="-0.04868">
        <ele>570.6</ele>
        <time>2022-06-08 14:21:59</time>
      </trkpt>
      <trkpt lat="42.9348" lon="-0.04867">
        <ele>571</ele>
        <time>2022-06-08 14:22:00</time>
      </trkpt>
      <trkpt lat="42.93476" lon="-0.04865">
        <ele>571.4</ele>
        <time>2022-06-08 14:22:01</time>
      </trkpt>
      <trkpt lat="42.93476" lon="-0.04865">
        <ele>571.6</ele>
        <time>2022-06-08 14:22:02</time>
      </trkpt>
      <trkpt lat="42.93469" lon="-0.04858">
        <ele>572</ele>
        <time>2022-06-08 14:22:03</time>
      </trkpt>
      <trkpt lat="42.93466" lon="-0.04852">
        <ele>572</ele>
        <time>2022-06-08 14:22:04</time>
      </trkpt>
      <trkpt lat="42.93463" lon="-0.04846">
        <ele>572.6</ele>
        <time>2022-06-08 14:22:05</time>
      </trkpt>
      <trkpt lat="42.93463" lon="-0.04846">
        <ele>572.8</ele>
        <time>2022-06-08 14:22:06</time>
      </trkpt>
      <trkpt lat="42.93458" lon="-0.04835">
        <ele>573.2</ele>
        <time>2022-06-08 14:22:07</time>
      </trkpt>
      <trkpt lat="42.93456" lon="-0.04831">
        <ele>573.4</ele>
        <time>2022-06-08 14:22:08</time>
      </trkpt>
      <trkpt lat="42.93454" lon="-0.04827">
        <ele>573.6</ele>
        <time>2022-06-08 14:22:09</time>
      </trkpt>
      <trkpt lat="42.93451" lon="-0.04824">
        <ele>573.8</ele>
        <time>2022-06-08 14:22:10</time>
      </trkpt>
      <trkpt lat="42.93449" lon="-0.04821">
        <ele>573.8</ele>
        <time>2022-06-08 14:22:11</time>
      </trkpt>
      <trkpt lat="42.93447" lon="-0.04818">
        <ele>573.8</ele>
        <time>2022-06-08 14:22:12</time>
      </trkpt>
      <trkpt lat="42.93444" lon="-0.04816">
        <ele>574.2</ele>
        <time>2022-06-08 14:22:13</time>
      </trkpt>
      <trkpt lat="42.93441" lon="-0.04811">
        <ele>574.6</ele>
        <time>2022-06-08 14:22:14</time>
      </trkpt>
      <trkpt lat="42.93441" lon="-0.04811">
        <ele>574.6</ele>
        <time>2022-06-08 14:22:15</time>
      </trkpt>
      <trkpt lat="42.93435" lon="-0.048">
        <ele>575</ele>
        <time>2022-06-08 14:22:16</time>
      </trkpt>
      <trkpt lat="42.93431" lon="-0.04795">
        <ele>575.2</ele>
        <time>2022-06-08 14:22:17</time>
      </trkpt>
      <trkpt lat="42.93431" lon="-0.04795">
        <ele>575.4</ele>
        <time>2022-06-08 14:22:18</time>
      </trkpt>
      <trkpt lat="42.93425" lon="-0.04782">
        <ele>575.4</ele>
        <time>2022-06-08 14:22:19</time>
      </trkpt>
      <trkpt lat="42.93422" lon="-0.04777">
        <ele>575.4</ele>
        <time>2022-06-08 14:22:20</time>
      </trkpt>
      <trkpt lat="42.93422" lon="-0.04777">
        <ele>575.6</ele>
        <time>2022-06-08 14:22:21</time>
      </trkpt>
      <trkpt lat="42.93415" lon="-0.04768">
        <ele>575.8</ele>
        <time>2022-06-08 14:22:22</time>
      </trkpt>
      <trkpt lat="42.93415" lon="-0.04768">
        <ele>576</ele>
        <time>2022-06-08 14:22:23</time>
      </trkpt>
      <trkpt lat="42.93409" lon="-0.0476">
        <ele>576.2</ele>
        <time>2022-06-08 14:22:24</time>
      </trkpt>
      <trkpt lat="42.93405" lon="-0.04757">
        <ele>576.6</ele>
        <time>2022-06-08 14:22:25</time>
      </trkpt>
      <trkpt lat="42.93402" lon="-0.04753">
        <ele>576.6</ele>
        <time>2022-06-08 14:22:26</time>
      </trkpt>
      <trkpt lat="42.93402" lon="-0.04753">
        <ele>576.8</ele>
        <time>2022-06-08 14:22:27</time>
      </trkpt>
      <trkpt lat="42.93395" lon="-0.04745">
        <ele>577</ele>
        <time>2022-06-08 14:22:28</time>
      </trkpt>
      <trkpt lat="42.93392" lon="-0.04741">
        <ele>577.4</ele>
        <time>2022-06-08 14:22:29</time>
      </trkpt>
      <trkpt lat="42.93388" lon="-0.04738">
        <ele>577.6</ele>
        <time>2022-06-08 14:22:30</time>
      </trkpt>
      <trkpt lat="42.93385" lon="-0.04736">
        <ele>577.8</ele>
        <time>2022-06-08 14:22:31</time>
      </trkpt>
      <trkpt lat="42.93382" lon="-0.04734">
        <ele>578</ele>
        <time>2022-06-08 14:22:32</time>
      </trkpt>
      <trkpt lat="42.93377" lon="-0.04729">
        <ele>578.2</ele>
        <time>2022-06-08 14:22:33</time>
      </trkpt>
      <trkpt lat="42.93372" lon="-0.04725">
        <ele>578.4</ele>
        <time>2022-06-08 14:22:34</time>
      </trkpt>
      <trkpt lat="42.93368" lon="-0.04722">
        <ele>578.6</ele>
        <time>2022-06-08 14:22:35</time>
      </trkpt>
      <trkpt lat="42.93365" lon="-0.04719">
        <ele>578.8</ele>
        <time>2022-06-08 14:22:36</time>
      </trkpt>
      <trkpt lat="42.93361" lon="-0.04716">
        <ele>579</ele>
        <time>2022-06-08 14:22:37</time>
      </trkpt>
      <trkpt lat="42.93356" lon="-0.04713">
        <ele>579.4</ele>
        <time>2022-06-08 14:22:38</time>
      </trkpt>
      <trkpt lat="42.93352" lon="-0.0471">
        <ele>579.6</ele>
        <time>2022-06-08 14:22:39</time>
      </trkpt>
      <trkpt lat="42.93348" lon="-0.04706">
        <ele>580</ele>
        <time>2022-06-08 14:22:40</time>
      </trkpt>
      <trkpt lat="42.93345" lon="-0.04703">
        <ele>579.8</ele>
        <time>2022-06-08 14:22:41</time>
      </trkpt>
      <trkpt lat="42.93342" lon="-0.04701">
        <ele>580.2</ele>
        <time>2022-06-08 14:22:42</time>
      </trkpt>
      <trkpt lat="42.93337" lon="-0.04696">
        <ele>580.2</ele>
        <time>2022-06-08 14:22:43</time>
      </trkpt>
      <trkpt lat="42.93333" lon="-0.04691">
        <ele>580.6</ele>
        <time>2022-06-08 14:22:44</time>
      </trkpt>
      <trkpt lat="42.93328" lon="-0.04688">
        <ele>580.6</ele>
        <time>2022-06-08 14:22:45</time>
      </trkpt>
      <trkpt lat="42.93325" lon="-0.04685">
        <ele>580.8</ele>
        <time>2022-06-08 14:22:46</time>
      </trkpt>
      <trkpt lat="42.93325" lon="-0.04685">
        <ele>581</ele>
        <time>2022-06-08 14:22:47</time>
      </trkpt>
      <trkpt lat="42.93313" lon="-0.0468">
        <ele>581.4</ele>
        <time>2022-06-08 14:22:48</time>
      </trkpt>
      <trkpt lat="42.93313" lon="-0.0468">
        <ele>581.6</ele>
        <time>2022-06-08 14:22:49</time>
      </trkpt>
      <trkpt lat="42.93302" lon="-0.04675">
        <ele>581.8</ele>
        <time>2022-06-08 14:22:50</time>
      </trkpt>
      <trkpt lat="42.93297" lon="-0.04673">
        <ele>582</ele>
        <time>2022-06-08 14:22:51</time>
      </trkpt>
      <trkpt lat="42.93297" lon="-0.04673">
        <ele>582.2</ele>
        <time>2022-06-08 14:22:52</time>
      </trkpt>
      <trkpt lat="42.93285" lon="-0.04668">
        <ele>582.2</ele>
        <time>2022-06-08 14:22:53</time>
      </trkpt>
      <trkpt lat="42.9328" lon="-0.04665">
        <ele>582.4</ele>
        <time>2022-06-08 14:22:54</time>
      </trkpt>
      <trkpt lat="42.93275" lon="-0.04662">
        <ele>582.4</ele>
        <time>2022-06-08 14:22:55</time>
      </trkpt>
      <trkpt lat="42.93271" lon="-0.0466">
        <ele>582.6</ele>
        <time>2022-06-08 14:22:56</time>
      </trkpt>
      <trkpt lat="42.93264" lon="-0.04657">
        <ele>582.6</ele>
        <time>2022-06-08 14:22:57</time>
      </trkpt>
      <trkpt lat="42.93259" lon="-0.04654">
        <ele>582.8</ele>
        <time>2022-06-08 14:22:58</time>
      </trkpt>
      <trkpt lat="42.93259" lon="-0.04654">
        <ele>582.8</ele>
        <time>2022-06-08 14:22:59</time>
      </trkpt>
      <trkpt lat="42.93253" lon="-0.04651">
        <ele>583</ele>
        <time>2022-06-08 14:23:00</time>
      </trkpt>
      <trkpt lat="42.93244" lon="-0.04645">
        <ele>583.2</ele>
        <time>2022-06-08 14:23:01</time>
      </trkpt>
      <trkpt lat="42.93237" lon="-0.04641">
        <ele>583.4</ele>
        <time>2022-06-08 14:23:02</time>
      </trkpt>
      <trkpt lat="42.93232" lon="-0.04638">
        <ele>583.8</ele>
        <time>2022-06-08 14:23:03</time>
      </trkpt>
      <trkpt lat="42.93226" lon="-0.04635">
        <ele>584</ele>
        <time>2022-06-08 14:23:04</time>
      </trkpt>
      <trkpt lat="42.93221" lon="-0.04633">
        <ele>584.2</ele>
        <time>2022-06-08 14:23:05</time>
      </trkpt>
      <trkpt lat="42.93216" lon="-0.0463">
        <ele>584.2</ele>
        <time>2022-06-08 14:23:06</time>
      </trkpt>
      <trkpt lat="42.9321" lon="-0.04627">
        <ele>584.4</ele>
        <time>2022-06-08 14:23:07</time>
      </trkpt>
      <trkpt lat="42.93204" lon="-0.04624">
        <ele>584.4</ele>
        <time>2022-06-08 14:23:08</time>
      </trkpt>
      <trkpt lat="42.93197" lon="-0.04622">
        <ele>584.6</ele>
        <time>2022-06-08 14:23:09</time>
      </trkpt>
      <trkpt lat="42.93193" lon="-0.04621">
        <ele>584.8</ele>
        <time>2022-06-08 14:23:10</time>
      </trkpt>
      <trkpt lat="42.93187" lon="-0.0462">
        <ele>584.8</ele>
        <time>2022-06-08 14:23:11</time>
      </trkpt>
      <trkpt lat="42.93181" lon="-0.04619">
        <ele>585</ele>
        <time>2022-06-08 14:23:12</time>
      </trkpt>
      <trkpt lat="42.93175" lon="-0.04618">
        <ele>585.2</ele>
        <time>2022-06-08 14:23:13</time>
      </trkpt>
      <trkpt lat="42.9317" lon="-0.04618">
        <ele>585.2</ele>
        <time>2022-06-08 14:23:14</time>
      </trkpt>
      <trkpt lat="42.93164" lon="-0.04618">
        <ele>585.4</ele>
        <time>2022-06-08 14:23:15</time>
      </trkpt>
      <trkpt lat="42.93158" lon="-0.04619">
        <ele>585.4</ele>
        <time>2022-06-08 14:23:16</time>
      </trkpt>
      <trkpt lat="42.93152" lon="-0.04619">
        <ele>585.6</ele>
        <time>2022-06-08 14:23:17</time>
      </trkpt>
      <trkpt lat="42.93146" lon="-0.04621">
        <ele>585.6</ele>
        <time>2022-06-08 14:23:18</time>
      </trkpt>
      <trkpt lat="42.93141" lon="-0.04622">
        <ele>585.8</ele>
        <time>2022-06-08 14:23:19</time>
      </trkpt>
      <trkpt lat="42.93136" lon="-0.04622">
        <ele>586</ele>
        <time>2022-06-08 14:23:20</time>
      </trkpt>
      <trkpt lat="42.93136" lon="-0.04622">
        <ele>586.2</ele>
        <time>2022-06-08 14:23:21</time>
      </trkpt>
      <trkpt lat="42.93124" lon="-0.04622">
        <ele>586.4</ele>
        <time>2022-06-08 14:23:22</time>
      </trkpt>
      <trkpt lat="42.93118" lon="-0.04622">
        <ele>587</ele>
        <time>2022-06-08 14:23:23</time>
      </trkpt>
      <trkpt lat="42.93113" lon="-0.0462">
        <ele>587.4</ele>
        <time>2022-06-08 14:23:24</time>
      </trkpt>
      <trkpt lat="42.93107" lon="-0.04618">
        <ele>588</ele>
        <time>2022-06-08 14:23:25</time>
      </trkpt>
      <trkpt lat="42.93102" lon="-0.04615">
        <ele>588.2</ele>
        <time>2022-06-08 14:23:26</time>
      </trkpt>
      <trkpt lat="42.93096" lon="-0.04612">
        <ele>588.4</ele>
        <time>2022-06-08 14:23:27</time>
      </trkpt>
      <trkpt lat="42.9309" lon="-0.04609">
        <ele>588.6</ele>
        <time>2022-06-08 14:23:28</time>
      </trkpt>
      <trkpt lat="42.93085" lon="-0.04605">
        <ele>588.6</ele>
        <time>2022-06-08 14:23:29</time>
      </trkpt>
      <trkpt lat="42.93079" lon="-0.04601">
        <ele>588.8</ele>
        <time>2022-06-08 14:23:30</time>
      </trkpt>
      <trkpt lat="42.93075" lon="-0.04597">
        <ele>588.8</ele>
        <time>2022-06-08 14:23:31</time>
      </trkpt>
      <trkpt lat="42.9307" lon="-0.04591">
        <ele>589.2</ele>
        <time>2022-06-08 14:23:32</time>
      </trkpt>
      <trkpt lat="42.93066" lon="-0.04586">
        <ele>589.4</ele>
        <time>2022-06-08 14:23:33</time>
      </trkpt>
      <trkpt lat="42.93063" lon="-0.04581">
        <ele>589.6</ele>
        <time>2022-06-08 14:23:34</time>
      </trkpt>
      <trkpt lat="42.93059" lon="-0.04575">
        <ele>589.8</ele>
        <time>2022-06-08 14:23:35</time>
      </trkpt>
      <trkpt lat="42.93055" lon="-0.0457">
        <ele>590</ele>
        <time>2022-06-08 14:23:36</time>
      </trkpt>
      <trkpt lat="42.9305" lon="-0.04563">
        <ele>590</ele>
        <time>2022-06-08 14:23:37</time>
      </trkpt>
      <trkpt lat="42.93047" lon="-0.04559">
        <ele>590.2</ele>
        <time>2022-06-08 14:23:38</time>
      </trkpt>
      <trkpt lat="42.93043" lon="-0.04554">
        <ele>590.6</ele>
        <time>2022-06-08 14:23:39</time>
      </trkpt>
      <trkpt lat="42.93041" lon="-0.0455">
        <ele>590.6</ele>
        <time>2022-06-08 14:23:40</time>
      </trkpt>
      <trkpt lat="42.93036" lon="-0.04544">
        <ele>591</ele>
        <time>2022-06-08 14:23:41</time>
      </trkpt>
      <trkpt lat="42.93033" lon="-0.0454">
        <ele>591.2</ele>
        <time>2022-06-08 14:23:42</time>
      </trkpt>
      <trkpt lat="42.9303" lon="-0.04535">
        <ele>591.8</ele>
        <time>2022-06-08 14:23:43</time>
      </trkpt>
      <trkpt lat="42.93027" lon="-0.0453">
        <ele>592</ele>
        <time>2022-06-08 14:23:44</time>
      </trkpt>
      <trkpt lat="42.93025" lon="-0.04527">
        <ele>592.2</ele>
        <time>2022-06-08 14:23:45</time>
      </trkpt>
      <trkpt lat="42.93023" lon="-0.0452">
        <ele>592.4</ele>
        <time>2022-06-08 14:23:46</time>
      </trkpt>
      <trkpt lat="42.93021" lon="-0.04515">
        <ele>592.6</ele>
        <time>2022-06-08 14:23:47</time>
      </trkpt>
      <trkpt lat="42.93018" lon="-0.0451">
        <ele>593</ele>
        <time>2022-06-08 14:23:48</time>
      </trkpt>
      <trkpt lat="42.93016" lon="-0.04505">
        <ele>593.4</ele>
        <time>2022-06-08 14:23:49</time>
      </trkpt>
      <trkpt lat="42.93014" lon="-0.04501">
        <ele>593.6</ele>
        <time>2022-06-08 14:23:50</time>
      </trkpt>
      <trkpt lat="42.93011" lon="-0.04495">
        <ele>594</ele>
        <time>2022-06-08 14:23:51</time>
      </trkpt>
      <trkpt lat="42.93008" lon="-0.04489">
        <ele>594.4</ele>
        <time>2022-06-08 14:23:52</time>
      </trkpt>
      <trkpt lat="42.93006" lon="-0.04484">
        <ele>594.8</ele>
        <time>2022-06-08 14:23:53</time>
      </trkpt>
      <trkpt lat="42.93004" lon="-0.04478">
        <ele>595</ele>
        <time>2022-06-08 14:23:54</time>
      </trkpt>
      <trkpt lat="42.93001" lon="-0.04475">
        <ele>595.2</ele>
        <time>2022-06-08 14:23:55</time>
      </trkpt>
      <trkpt lat="42.92999" lon="-0.04469">
        <ele>595.6</ele>
        <time>2022-06-08 14:23:56</time>
      </trkpt>
      <trkpt lat="42.92997" lon="-0.04464">
        <ele>595.6</ele>
        <time>2022-06-08 14:23:57</time>
      </trkpt>
      <trkpt lat="42.92994" lon="-0.0446">
        <ele>596</ele>
        <time>2022-06-08 14:23:58</time>
      </trkpt>
      <trkpt lat="42.92993" lon="-0.04455">
        <ele>596.4</ele>
        <time>2022-06-08 14:23:59</time>
      </trkpt>
      <trkpt lat="42.92991" lon="-0.04451">
        <ele>596.6</ele>
        <time>2022-06-08 14:24:00</time>
      </trkpt>
      <trkpt lat="42.92989" lon="-0.04446">
        <ele>596.8</ele>
        <time>2022-06-08 14:24:01</time>
      </trkpt>
      <trkpt lat="42.92988" lon="-0.04442">
        <ele>597.2</ele>
        <time>2022-06-08 14:24:02</time>
      </trkpt>
      <trkpt lat="42.92987" lon="-0.04437">
        <ele>597.2</ele>
        <time>2022-06-08 14:24:03</time>
      </trkpt>
      <trkpt lat="42.92986" lon="-0.04433">
        <ele>597.6</ele>
        <time>2022-06-08 14:24:04</time>
      </trkpt>
      <trkpt lat="42.92985" lon="-0.04428">
        <ele>597.8</ele>
        <time>2022-06-08 14:24:05</time>
      </trkpt>
      <trkpt lat="42.92983" lon="-0.04424">
        <ele>598</ele>
        <time>2022-06-08 14:24:06</time>
      </trkpt>
      <trkpt lat="42.92982" lon="-0.04418">
        <ele>598.2</ele>
        <time>2022-06-08 14:24:07</time>
      </trkpt>
      <trkpt lat="42.92981" lon="-0.04413">
        <ele>598.4</ele>
        <time>2022-06-08 14:24:08</time>
      </trkpt>
      <trkpt lat="42.9298" lon="-0.04409">
        <ele>598.6</ele>
        <time>2022-06-08 14:24:09</time>
      </trkpt>
      <trkpt lat="42.92978" lon="-0.04404">
        <ele>598.6</ele>
        <time>2022-06-08 14:24:10</time>
      </trkpt>
      <trkpt lat="42.92977" lon="-0.04398">
        <ele>599</ele>
        <time>2022-06-08 14:24:11</time>
      </trkpt>
      <trkpt lat="42.92976" lon="-0.04394">
        <ele>599.2</ele>
        <time>2022-06-08 14:24:12</time>
      </trkpt>
      <trkpt lat="42.92974" lon="-0.04389">
        <ele>599.4</ele>
        <time>2022-06-08 14:24:13</time>
      </trkpt>
      <trkpt lat="42.92973" lon="-0.04385">
        <ele>599.6</ele>
        <time>2022-06-08 14:24:14</time>
      </trkpt>
      <trkpt lat="42.92971" lon="-0.04381">
        <ele>599.8</ele>
        <time>2022-06-08 14:24:15</time>
      </trkpt>
      <trkpt lat="42.92969" lon="-0.04378">
        <ele>600</ele>
        <time>2022-06-08 14:24:16</time>
      </trkpt>
      <trkpt lat="42.92965" lon="-0.04374">
        <ele>600.2</ele>
        <time>2022-06-08 14:24:17</time>
      </trkpt>
      <trkpt lat="42.92963" lon="-0.04372">
        <ele>600.2</ele>
        <time>2022-06-08 14:24:18</time>
      </trkpt>
      <trkpt lat="42.92961" lon="-0.0437">
        <ele>600.4</ele>
        <time>2022-06-08 14:24:19</time>
      </trkpt>
      <trkpt lat="42.92959" lon="-0.04366">
        <ele>601</ele>
        <time>2022-06-08 14:24:20</time>
      </trkpt>
      <trkpt lat="42.92956" lon="-0.04363">
        <ele>601.2</ele>
        <time>2022-06-08 14:24:21</time>
      </trkpt>
      <trkpt lat="42.92954" lon="-0.04361">
        <ele>601.4</ele>
        <time>2022-06-08 14:24:22</time>
      </trkpt>
      <trkpt lat="42.92951" lon="-0.04357">
        <ele>601.6</ele>
        <time>2022-06-08 14:24:23</time>
      </trkpt>
      <trkpt lat="42.92948" lon="-0.04354">
        <ele>601.8</ele>
        <time>2022-06-08 14:24:24</time>
      </trkpt>
      <trkpt lat="42.92945" lon="-0.04351">
        <ele>601.8</ele>
        <time>2022-06-08 14:24:25</time>
      </trkpt>
      <trkpt lat="42.92943" lon="-0.04348">
        <ele>602.4</ele>
        <time>2022-06-08 14:24:26</time>
      </trkpt>
      <trkpt lat="42.9294" lon="-0.04344">
        <ele>602.6</ele>
        <time>2022-06-08 14:24:27</time>
      </trkpt>
      <trkpt lat="42.92938" lon="-0.04342">
        <ele>603</ele>
        <time>2022-06-08 14:24:28</time>
      </trkpt>
      <trkpt lat="42.92936" lon="-0.04338">
        <ele>603.4</ele>
        <time>2022-06-08 14:24:29</time>
      </trkpt>
      <trkpt lat="42.92933" lon="-0.04335">
        <ele>603.6</ele>
        <time>2022-06-08 14:24:30</time>
      </trkpt>
      <trkpt lat="42.92931" lon="-0.04332">
        <ele>604</ele>
        <time>2022-06-08 14:24:31</time>
      </trkpt>
      <trkpt lat="42.92929" lon="-0.04329">
        <ele>604</ele>
        <time>2022-06-08 14:24:32</time>
      </trkpt>
      <trkpt lat="42.92927" lon="-0.04326">
        <ele>604.4</ele>
        <time>2022-06-08 14:24:33</time>
      </trkpt>
      <trkpt lat="42.92926" lon="-0.04322">
        <ele>604.4</ele>
        <time>2022-06-08 14:24:34</time>
      </trkpt>
      <trkpt lat="42.92924" lon="-0.04319">
        <ele>604.8</ele>
        <time>2022-06-08 14:24:35</time>
      </trkpt>
      <trkpt lat="42.92922" lon="-0.04315">
        <ele>604.8</ele>
        <time>2022-06-08 14:24:36</time>
      </trkpt>
      <trkpt lat="42.9292" lon="-0.04312">
        <ele>604.8</ele>
        <time>2022-06-08 14:24:37</time>
      </trkpt>
      <trkpt lat="42.92918" lon="-0.04308">
        <ele>604.8</ele>
        <time>2022-06-08 14:24:38</time>
      </trkpt>
      <trkpt lat="42.92916" lon="-0.04306">
        <ele>605.2</ele>
        <time>2022-06-08 14:24:39</time>
      </trkpt>
      <trkpt lat="42.92913" lon="-0.04302">
        <ele>605.4</ele>
        <time>2022-06-08 14:24:40</time>
      </trkpt>
      <trkpt lat="42.9291" lon="-0.04299">
        <ele>605.8</ele>
        <time>2022-06-08 14:24:41</time>
      </trkpt>
      <trkpt lat="42.92907" lon="-0.04296">
        <ele>605.8</ele>
        <time>2022-06-08 14:24:42</time>
      </trkpt>
      <trkpt lat="42.92903" lon="-0.04294">
        <ele>606</ele>
        <time>2022-06-08 14:24:43</time>
      </trkpt>
      <trkpt lat="42.929" lon="-0.04291">
        <ele>606.4</ele>
        <time>2022-06-08 14:24:44</time>
      </trkpt>
      <trkpt lat="42.92898" lon="-0.0429">
        <ele>606.6</ele>
        <time>2022-06-08 14:24:45</time>
      </trkpt>
      <trkpt lat="42.92895" lon="-0.04287">
        <ele>607</ele>
        <time>2022-06-08 14:24:46</time>
      </trkpt>
      <trkpt lat="42.92892" lon="-0.04285">
        <ele>607.2</ele>
        <time>2022-06-08 14:24:47</time>
      </trkpt>
      <trkpt lat="42.92889" lon="-0.04284">
        <ele>607.6</ele>
        <time>2022-06-08 14:24:48</time>
      </trkpt>
      <trkpt lat="42.92886" lon="-0.04281">
        <ele>607.6</ele>
        <time>2022-06-08 14:24:49</time>
      </trkpt>
      <trkpt lat="42.92882" lon="-0.0428">
        <ele>607.8</ele>
        <time>2022-06-08 14:24:50</time>
      </trkpt>
      <trkpt lat="42.92879" lon="-0.04278">
        <ele>608</ele>
        <time>2022-06-08 14:24:51</time>
      </trkpt>
      <trkpt lat="42.92876" lon="-0.04276">
        <ele>608.2</ele>
        <time>2022-06-08 14:24:52</time>
      </trkpt>
      <trkpt lat="42.92874" lon="-0.04274">
        <ele>608.4</ele>
        <time>2022-06-08 14:24:53</time>
      </trkpt>
      <trkpt lat="42.92871" lon="-0.04273">
        <ele>608.6</ele>
        <time>2022-06-08 14:24:54</time>
      </trkpt>
      <trkpt lat="42.92868" lon="-0.04272">
        <ele>608.8</ele>
        <time>2022-06-08 14:24:55</time>
      </trkpt>
      <trkpt lat="42.92866" lon="-0.04268">
        <ele>609</ele>
        <time>2022-06-08 14:24:56</time>
      </trkpt>
      <trkpt lat="42.92864" lon="-0.04269">
        <ele>609.2</ele>
        <time>2022-06-08 14:24:57</time>
      </trkpt>
      <trkpt lat="42.92861" lon="-0.04271">
        <ele>609.4</ele>
        <time>2022-06-08 14:24:58</time>
      </trkpt>
      <trkpt lat="42.92858" lon="-0.04272">
        <ele>609.4</ele>
        <time>2022-06-08 14:24:59</time>
      </trkpt>
      <trkpt lat="42.92854" lon="-0.0427">
        <ele>609.6</ele>
        <time>2022-06-08 14:25:00</time>
      </trkpt>
      <trkpt lat="42.9285" lon="-0.04269">
        <ele>610</ele>
        <time>2022-06-08 14:25:01</time>
      </trkpt>
      <trkpt lat="42.92847" lon="-0.04269">
        <ele>610.2</ele>
        <time>2022-06-08 14:25:02</time>
      </trkpt>
      <trkpt lat="42.92845" lon="-0.04269">
        <ele>610.4</ele>
        <time>2022-06-08 14:25:03</time>
      </trkpt>
      <trkpt lat="42.92845" lon="-0.04263">
        <ele>610.6</ele>
        <time>2022-06-08 14:25:04</time>
      </trkpt>
      <trkpt lat="42.92844" lon="-0.04258">
        <ele>610.8</ele>
        <time>2022-06-08 14:25:05</time>
      </trkpt>
      <trkpt lat="42.92841" lon="-0.04256">
        <ele>611</ele>
        <time>2022-06-08 14:25:06</time>
      </trkpt>
      <trkpt lat="42.92838" lon="-0.04255">
        <ele>611</ele>
        <time>2022-06-08 14:25:07</time>
      </trkpt>
      <trkpt lat="42.92835" lon="-0.04254">
        <ele>611.2</ele>
        <time>2022-06-08 14:25:08</time>
      </trkpt>
      <trkpt lat="42.92832" lon="-0.04254">
        <ele>611.4</ele>
        <time>2022-06-08 14:25:09</time>
      </trkpt>
      <trkpt lat="42.92828" lon="-0.04254">
        <ele>611.8</ele>
        <time>2022-06-08 14:25:10</time>
      </trkpt>
      <trkpt lat="42.92824" lon="-0.04253">
        <ele>612</ele>
        <time>2022-06-08 14:25:11</time>
      </trkpt>
      <trkpt lat="42.9282" lon="-0.0425">
        <ele>612.4</ele>
        <time>2022-06-08 14:25:12</time>
      </trkpt>
      <trkpt lat="42.92817" lon="-0.04249">
        <ele>612.6</ele>
        <time>2022-06-08 14:25:13</time>
      </trkpt>
      <trkpt lat="42.92814" lon="-0.04247">
        <ele>612.8</ele>
        <time>2022-06-08 14:25:14</time>
      </trkpt>
      <trkpt lat="42.9281" lon="-0.04242">
        <ele>613</ele>
        <time>2022-06-08 14:25:15</time>
      </trkpt>
      <trkpt lat="42.92808" lon="-0.04239">
        <ele>613.2</ele>
        <time>2022-06-08 14:25:16</time>
      </trkpt>
      <trkpt lat="42.92805" lon="-0.04238">
        <ele>613.4</ele>
        <time>2022-06-08 14:25:17</time>
      </trkpt>
      <trkpt lat="42.92802" lon="-0.04235">
        <ele>613.6</ele>
        <time>2022-06-08 14:25:18</time>
      </trkpt>
      <trkpt lat="42.92799" lon="-0.04229">
        <ele>613.8</ele>
        <time>2022-06-08 14:25:19</time>
      </trkpt>
      <trkpt lat="42.92796" lon="-0.04224">
        <ele>613.8</ele>
        <time>2022-06-08 14:25:20</time>
      </trkpt>
      <trkpt lat="42.92793" lon="-0.0422">
        <ele>614</ele>
        <time>2022-06-08 14:25:21</time>
      </trkpt>
      <trkpt lat="42.92791" lon="-0.04217">
        <ele>614.2</ele>
        <time>2022-06-08 14:25:22</time>
      </trkpt>
      <trkpt lat="42.92788" lon="-0.04213">
        <ele>614.4</ele>
        <time>2022-06-08 14:25:23</time>
      </trkpt>
      <trkpt lat="42.92783" lon="-0.0421">
        <ele>614.4</ele>
        <time>2022-06-08 14:25:24</time>
      </trkpt>
      <trkpt lat="42.92779" lon="-0.04208">
        <ele>614.6</ele>
        <time>2022-06-08 14:25:25</time>
      </trkpt>
      <trkpt lat="42.92775" lon="-0.04206">
        <ele>614.6</ele>
        <time>2022-06-08 14:25:26</time>
      </trkpt>
      <trkpt lat="42.92772" lon="-0.04205">
        <ele>615</ele>
        <time>2022-06-08 14:25:27</time>
      </trkpt>
      <trkpt lat="42.92769" lon="-0.04203">
        <ele>615.2</ele>
        <time>2022-06-08 14:25:28</time>
      </trkpt>
      <trkpt lat="42.92764" lon="-0.04202">
        <ele>615.4</ele>
        <time>2022-06-08 14:25:29</time>
      </trkpt>
      <trkpt lat="42.92761" lon="-0.04201">
        <ele>615.6</ele>
        <time>2022-06-08 14:25:30</time>
      </trkpt>
      <trkpt lat="42.92757" lon="-0.04199">
        <ele>616</ele>
        <time>2022-06-08 14:25:31</time>
      </trkpt>
      <trkpt lat="42.92754" lon="-0.04198">
        <ele>616.2</ele>
        <time>2022-06-08 14:25:32</time>
      </trkpt>
      <trkpt lat="42.9275" lon="-0.04196">
        <ele>616.4</ele>
        <time>2022-06-08 14:25:33</time>
      </trkpt>
      <trkpt lat="42.92746" lon="-0.04195">
        <ele>616.6</ele>
        <time>2022-06-08 14:25:34</time>
      </trkpt>
      <trkpt lat="42.92742" lon="-0.04194">
        <ele>616.6</ele>
        <time>2022-06-08 14:25:35</time>
      </trkpt>
      <trkpt lat="42.92738" lon="-0.04193">
        <ele>617</ele>
        <time>2022-06-08 14:25:36</time>
      </trkpt>
      <trkpt lat="42.92735" lon="-0.04192">
        <ele>617.2</ele>
        <time>2022-06-08 14:25:37</time>
      </trkpt>
      <trkpt lat="42.92732" lon="-0.04191">
        <ele>617.4</ele>
        <time>2022-06-08 14:25:38</time>
      </trkpt>
      <trkpt lat="42.92728" lon="-0.0419">
        <ele>617.6</ele>
        <time>2022-06-08 14:25:39</time>
      </trkpt>
      <trkpt lat="42.92725" lon="-0.0419">
        <ele>617.8</ele>
        <time>2022-06-08 14:25:40</time>
      </trkpt>
      <trkpt lat="42.92722" lon="-0.04189">
        <ele>618</ele>
        <time>2022-06-08 14:25:41</time>
      </trkpt>
      <trkpt lat="42.92718" lon="-0.04187">
        <ele>618.4</ele>
        <time>2022-06-08 14:25:42</time>
      </trkpt>
      <trkpt lat="42.92715" lon="-0.04185">
        <ele>618.6</ele>
        <time>2022-06-08 14:25:43</time>
      </trkpt>
      <trkpt lat="42.92711" lon="-0.04183">
        <ele>618.8</ele>
        <time>2022-06-08 14:25:44</time>
      </trkpt>
      <trkpt lat="42.92708" lon="-0.04182">
        <ele>619</ele>
        <time>2022-06-08 14:25:45</time>
      </trkpt>
      <trkpt lat="42.92704" lon="-0.0418">
        <ele>619.2</ele>
        <time>2022-06-08 14:25:46</time>
      </trkpt>
      <trkpt lat="42.92701" lon="-0.04179">
        <ele>619.4</ele>
        <time>2022-06-08 14:25:47</time>
      </trkpt>
      <trkpt lat="42.92697" lon="-0.04178">
        <ele>619.6</ele>
        <time>2022-06-08 14:25:48</time>
      </trkpt>
      <trkpt lat="42.92693" lon="-0.04177">
        <ele>619.8</ele>
        <time>2022-06-08 14:25:49</time>
      </trkpt>
      <trkpt lat="42.92689" lon="-0.04177">
        <ele>620</ele>
        <time>2022-06-08 14:25:50</time>
      </trkpt>
      <trkpt lat="42.92685" lon="-0.04176">
        <ele>620.2</ele>
        <time>2022-06-08 14:25:51</time>
      </trkpt>
      <trkpt lat="42.92682" lon="-0.04176">
        <ele>620.4</ele>
        <time>2022-06-08 14:25:52</time>
      </trkpt>
      <trkpt lat="42.92678" lon="-0.04176">
        <ele>620.6</ele>
        <time>2022-06-08 14:25:53</time>
      </trkpt>
      <trkpt lat="42.92674" lon="-0.04176">
        <ele>620.8</ele>
        <time>2022-06-08 14:25:54</time>
      </trkpt>
      <trkpt lat="42.92671" lon="-0.04175">
        <ele>621.2</ele>
        <time>2022-06-08 14:25:55</time>
      </trkpt>
      <trkpt lat="42.92667" lon="-0.04175">
        <ele>621.4</ele>
        <time>2022-06-08 14:25:56</time>
      </trkpt>
      <trkpt lat="42.92664" lon="-0.04174">
        <ele>621.6</ele>
        <time>2022-06-08 14:25:57</time>
      </trkpt>
      <trkpt lat="42.9266" lon="-0.04174">
        <ele>622</ele>
        <time>2022-06-08 14:25:58</time>
      </trkpt>
      <trkpt lat="42.92656" lon="-0.04173">
        <ele>622.2</ele>
        <time>2022-06-08 14:25:59</time>
      </trkpt>
      <trkpt lat="42.92653" lon="-0.04172">
        <ele>622.4</ele>
        <time>2022-06-08 14:26:00</time>
      </trkpt>
      <trkpt lat="42.92649" lon="-0.04172">
        <ele>622.6</ele>
        <time>2022-06-08 14:26:01</time>
      </trkpt>
      <trkpt lat="42.92645" lon="-0.04172">
        <ele>623</ele>
        <time>2022-06-08 14:26:02</time>
      </trkpt>
      <trkpt lat="42.92641" lon="-0.04172">
        <ele>623</ele>
        <time>2022-06-08 14:26:03</time>
      </trkpt>
      <trkpt lat="42.92637" lon="-0.04171">
        <ele>623.2</ele>
        <time>2022-06-08 14:26:04</time>
      </trkpt>
      <trkpt lat="42.92633" lon="-0.0417">
        <ele>623.4</ele>
        <time>2022-06-08 14:26:05</time>
      </trkpt>
      <trkpt lat="42.9263" lon="-0.04169">
        <ele>623.6</ele>
        <time>2022-06-08 14:26:06</time>
      </trkpt>
      <trkpt lat="42.92626" lon="-0.0417">
        <ele>623.8</ele>
        <time>2022-06-08 14:26:07</time>
      </trkpt>
      <trkpt lat="42.92623" lon="-0.04171">
        <ele>624</ele>
        <time>2022-06-08 14:26:08</time>
      </trkpt>
      <trkpt lat="42.92619" lon="-0.04172">
        <ele>624.2</ele>
        <time>2022-06-08 14:26:09</time>
      </trkpt>
      <trkpt lat="42.92616" lon="-0.04173">
        <ele>624.4</ele>
        <time>2022-06-08 14:26:10</time>
      </trkpt>
      <trkpt lat="42.92613" lon="-0.04174">
        <ele>624.6</ele>
        <time>2022-06-08 14:26:11</time>
      </trkpt>
      <trkpt lat="42.9261" lon="-0.04176">
        <ele>624.8</ele>
        <time>2022-06-08 14:26:12</time>
      </trkpt>
      <trkpt lat="42.92608" lon="-0.04178">
        <ele>625</ele>
        <time>2022-06-08 14:26:13</time>
      </trkpt>
      <trkpt lat="42.92605" lon="-0.04182">
        <ele>625.2</ele>
        <time>2022-06-08 14:26:14</time>
      </trkpt>
      <trkpt lat="42.92602" lon="-0.04185">
        <ele>625.6</ele>
        <time>2022-06-08 14:26:15</time>
      </trkpt>
      <trkpt lat="42.926" lon="-0.04188">
        <ele>625.8</ele>
        <time>2022-06-08 14:26:16</time>
      </trkpt>
      <trkpt lat="42.92599" lon="-0.0419">
        <ele>626.2</ele>
        <time>2022-06-08 14:26:17</time>
      </trkpt>
      <trkpt lat="42.92596" lon="-0.04194">
        <ele>626.4</ele>
        <time>2022-06-08 14:26:18</time>
      </trkpt>
      <trkpt lat="42.92594" lon="-0.04197">
        <ele>626.8</ele>
        <time>2022-06-08 14:26:19</time>
      </trkpt>
      <trkpt lat="42.92592" lon="-0.042">
        <ele>627</ele>
        <time>2022-06-08 14:26:20</time>
      </trkpt>
      <trkpt lat="42.9259" lon="-0.04203">
        <ele>627.2</ele>
        <time>2022-06-08 14:26:21</time>
      </trkpt>
      <trkpt lat="42.92587" lon="-0.04206">
        <ele>627.6</ele>
        <time>2022-06-08 14:26:22</time>
      </trkpt>
      <trkpt lat="42.92584" lon="-0.04209">
        <ele>627.8</ele>
        <time>2022-06-08 14:26:23</time>
      </trkpt>
      <trkpt lat="42.92583" lon="-0.04211">
        <ele>628</ele>
        <time>2022-06-08 14:26:24</time>
      </trkpt>
      <trkpt lat="42.92579" lon="-0.04215">
        <ele>628.4</ele>
        <time>2022-06-08 14:26:25</time>
      </trkpt>
      <trkpt lat="42.92577" lon="-0.04216">
        <ele>628.8</ele>
        <time>2022-06-08 14:26:26</time>
      </trkpt>
      <trkpt lat="42.92573" lon="-0.04218">
        <ele>629</ele>
        <time>2022-06-08 14:26:27</time>
      </trkpt>
      <trkpt lat="42.9257" lon="-0.0422">
        <ele>629.6</ele>
        <time>2022-06-08 14:26:28</time>
      </trkpt>
      <trkpt lat="42.92567" lon="-0.0422">
        <ele>629.8</ele>
        <time>2022-06-08 14:26:29</time>
      </trkpt>
      <trkpt lat="42.92563" lon="-0.04221">
        <ele>630.2</ele>
        <time>2022-06-08 14:26:30</time>
      </trkpt>
      <trkpt lat="42.9256" lon="-0.04221">
        <ele>630.2</ele>
        <time>2022-06-08 14:26:31</time>
      </trkpt>
      <trkpt lat="42.92556" lon="-0.04221">
        <ele>630.6</ele>
        <time>2022-06-08 14:26:32</time>
      </trkpt>
      <trkpt lat="42.92551" lon="-0.0422">
        <ele>631</ele>
        <time>2022-06-08 14:26:33</time>
      </trkpt>
      <trkpt lat="42.92548" lon="-0.0422">
        <ele>631.2</ele>
        <time>2022-06-08 14:26:34</time>
      </trkpt>
      <trkpt lat="42.92544" lon="-0.04219">
        <ele>631.6</ele>
        <time>2022-06-08 14:26:35</time>
      </trkpt>
      <trkpt lat="42.92541" lon="-0.04217">
        <ele>631.8</ele>
        <time>2022-06-08 14:26:36</time>
      </trkpt>
      <trkpt lat="42.92538" lon="-0.04215">
        <ele>632</ele>
        <time>2022-06-08 14:26:37</time>
      </trkpt>
      <trkpt lat="42.92535" lon="-0.04212">
        <ele>632.2</ele>
        <time>2022-06-08 14:26:38</time>
      </trkpt>
      <trkpt lat="42.92535" lon="-0.04212">
        <ele>632.6</ele>
        <time>2022-06-08 14:26:39</time>
      </trkpt>
      <trkpt lat="42.92528" lon="-0.04207">
        <ele>632.8</ele>
        <time>2022-06-08 14:26:40</time>
      </trkpt>
      <trkpt lat="42.92525" lon="-0.04205">
        <ele>633.4</ele>
        <time>2022-06-08 14:26:41</time>
      </trkpt>
      <trkpt lat="42.92521" lon="-0.04202">
        <ele>633.4</ele>
        <time>2022-06-08 14:26:42</time>
      </trkpt>
      <trkpt lat="42.92518" lon="-0.042">
        <ele>634</ele>
        <time>2022-06-08 14:26:43</time>
      </trkpt>
      <trkpt lat="42.92514" lon="-0.04197">
        <ele>634.2</ele>
        <time>2022-06-08 14:26:44</time>
      </trkpt>
      <trkpt lat="42.9251" lon="-0.04194">
        <ele>634.6</ele>
        <time>2022-06-08 14:26:45</time>
      </trkpt>
      <trkpt lat="42.92507" lon="-0.04192">
        <ele>634.8</ele>
        <time>2022-06-08 14:26:46</time>
      </trkpt>
      <trkpt lat="42.92503" lon="-0.04189">
        <ele>635</ele>
        <time>2022-06-08 14:26:47</time>
      </trkpt>
      <trkpt lat="42.92499" lon="-0.04186">
        <ele>635.2</ele>
        <time>2022-06-08 14:26:48</time>
      </trkpt>
      <trkpt lat="42.92495" lon="-0.04183">
        <ele>635.2</ele>
        <time>2022-06-08 14:26:49</time>
      </trkpt>
      <trkpt lat="42.92492" lon="-0.0418">
        <ele>635.4</ele>
        <time>2022-06-08 14:26:50</time>
      </trkpt>
      <trkpt lat="42.92488" lon="-0.04177">
        <ele>635.6</ele>
        <time>2022-06-08 14:26:51</time>
      </trkpt>
      <trkpt lat="42.92484" lon="-0.04174">
        <ele>635.8</ele>
        <time>2022-06-08 14:26:52</time>
      </trkpt>
      <trkpt lat="42.9248" lon="-0.04171">
        <ele>636</ele>
        <time>2022-06-08 14:26:53</time>
      </trkpt>
      <trkpt lat="42.92476" lon="-0.04167">
        <ele>636</ele>
        <time>2022-06-08 14:26:54</time>
      </trkpt>
      <trkpt lat="42.92473" lon="-0.04164">
        <ele>636.2</ele>
        <time>2022-06-08 14:26:55</time>
      </trkpt>
      <trkpt lat="42.92469" lon="-0.04161">
        <ele>636.4</ele>
        <time>2022-06-08 14:26:56</time>
      </trkpt>
      <trkpt lat="42.92466" lon="-0.04158">
        <ele>636.6</ele>
        <time>2022-06-08 14:26:57</time>
      </trkpt>
      <trkpt lat="42.92461" lon="-0.04155">
        <ele>636.6</ele>
        <time>2022-06-08 14:26:58</time>
      </trkpt>
      <trkpt lat="42.92458" lon="-0.04152">
        <ele>636.8</ele>
        <time>2022-06-08 14:26:59</time>
      </trkpt>
      <trkpt lat="42.92454" lon="-0.04149">
        <ele>636.8</ele>
        <time>2022-06-08 14:27:00</time>
      </trkpt>
      <trkpt lat="42.92451" lon="-0.04146">
        <ele>637</ele>
        <time>2022-06-08 14:27:01</time>
      </trkpt>
      <trkpt lat="42.92448" lon="-0.04143">
        <ele>637</ele>
        <time>2022-06-08 14:27:02</time>
      </trkpt>
      <trkpt lat="42.92444" lon="-0.0414">
        <ele>637</ele>
        <time>2022-06-08 14:27:03</time>
      </trkpt>
      <trkpt lat="42.92441" lon="-0.04137">
        <ele>637</ele>
        <time>2022-06-08 14:27:04</time>
      </trkpt>
      <trkpt lat="42.92437" lon="-0.04133">
        <ele>637</ele>
        <time>2022-06-08 14:27:05</time>
      </trkpt>
      <trkpt lat="42.92434" lon="-0.04129">
        <ele>637</ele>
        <time>2022-06-08 14:27:06</time>
      </trkpt>
      <trkpt lat="42.92431" lon="-0.04125">
        <ele>637.2</ele>
        <time>2022-06-08 14:27:07</time>
      </trkpt>
      <trkpt lat="42.92428" lon="-0.04121">
        <ele>637.2</ele>
        <time>2022-06-08 14:27:08</time>
      </trkpt>
      <trkpt lat="42.92425" lon="-0.04117">
        <ele>637.6</ele>
        <time>2022-06-08 14:27:09</time>
      </trkpt>
      <trkpt lat="42.92422" lon="-0.04113">
        <ele>638.2</ele>
        <time>2022-06-08 14:27:10</time>
      </trkpt>
      <trkpt lat="42.92419" lon="-0.04109">
        <ele>638.2</ele>
        <time>2022-06-08 14:27:11</time>
      </trkpt>
      <trkpt lat="42.92417" lon="-0.04105">
        <ele>638.4</ele>
        <time>2022-06-08 14:27:12</time>
      </trkpt>
      <trkpt lat="42.92413" lon="-0.041">
        <ele>638.4</ele>
        <time>2022-06-08 14:27:13</time>
      </trkpt>
      <trkpt lat="42.9241" lon="-0.04097">
        <ele>638.6</ele>
        <time>2022-06-08 14:27:14</time>
      </trkpt>
      <trkpt lat="42.92407" lon="-0.04094">
        <ele>638.6</ele>
        <time>2022-06-08 14:27:15</time>
      </trkpt>
      <trkpt lat="42.92407" lon="-0.04094">
        <ele>638.6</ele>
        <time>2022-06-08 14:27:16</time>
      </trkpt>
      <trkpt lat="42.924" lon="-0.0409">
        <ele>638.8</ele>
        <time>2022-06-08 14:27:17</time>
      </trkpt>
      <trkpt lat="42.92395" lon="-0.04088">
        <ele>639</ele>
        <time>2022-06-08 14:27:18</time>
      </trkpt>
      <trkpt lat="42.92391" lon="-0.04087">
        <ele>639.2</ele>
        <time>2022-06-08 14:27:19</time>
      </trkpt>
      <trkpt lat="42.92388" lon="-0.04087">
        <ele>639.2</ele>
        <time>2022-06-08 14:27:20</time>
      </trkpt>
      <trkpt lat="42.92384" lon="-0.04088">
        <ele>639</ele>
        <time>2022-06-08 14:27:21</time>
      </trkpt>
      <trkpt lat="42.92384" lon="-0.04088">
        <ele>639</ele>
        <time>2022-06-08 14:27:22</time>
      </trkpt>
      <trkpt lat="42.92376" lon="-0.0409">
        <ele>639.2</ele>
        <time>2022-06-08 14:27:23</time>
      </trkpt>
      <trkpt lat="42.92372" lon="-0.04091">
        <ele>639.4</ele>
        <time>2022-06-08 14:27:24</time>
      </trkpt>
      <trkpt lat="42.92369" lon="-0.04093">
        <ele>639.6</ele>
        <time>2022-06-08 14:27:25</time>
      </trkpt>
      <trkpt lat="42.92365" lon="-0.04094">
        <ele>639.8</ele>
        <time>2022-06-08 14:27:26</time>
      </trkpt>
      <trkpt lat="42.92362" lon="-0.04095">
        <ele>640.4</ele>
        <time>2022-06-08 14:27:27</time>
      </trkpt>
      <trkpt lat="42.92357" lon="-0.04095">
        <ele>640.6</ele>
        <time>2022-06-08 14:27:28</time>
      </trkpt>
      <trkpt lat="42.92353" lon="-0.04095">
        <ele>641</ele>
        <time>2022-06-08 14:27:29</time>
      </trkpt>
      <trkpt lat="42.9235" lon="-0.04094">
        <ele>641</ele>
        <time>2022-06-08 14:27:30</time>
      </trkpt>
      <trkpt lat="42.92347" lon="-0.04093">
        <ele>641.2</ele>
        <time>2022-06-08 14:27:31</time>
      </trkpt>
      <trkpt lat="42.92343" lon="-0.04092">
        <ele>641.6</ele>
        <time>2022-06-08 14:27:32</time>
      </trkpt>
      <trkpt lat="42.92339" lon="-0.04091">
        <ele>642</ele>
        <time>2022-06-08 14:27:33</time>
      </trkpt>
      <trkpt lat="42.92334" lon="-0.04089">
        <ele>642.4</ele>
        <time>2022-06-08 14:27:34</time>
      </trkpt>
      <trkpt lat="42.9233" lon="-0.04088">
        <ele>642.6</ele>
        <time>2022-06-08 14:27:35</time>
      </trkpt>
      <trkpt lat="42.92327" lon="-0.04087">
        <ele>642.6</ele>
        <time>2022-06-08 14:27:36</time>
      </trkpt>
      <trkpt lat="42.92323" lon="-0.04085">
        <ele>642.8</ele>
        <time>2022-06-08 14:27:37</time>
      </trkpt>
      <trkpt lat="42.92319" lon="-0.04084">
        <ele>643.2</ele>
        <time>2022-06-08 14:27:38</time>
      </trkpt>
      <trkpt lat="42.92315" lon="-0.04082">
        <ele>643.2</ele>
        <time>2022-06-08 14:27:39</time>
      </trkpt>
      <trkpt lat="42.9231" lon="-0.04081">
        <ele>643.4</ele>
        <time>2022-06-08 14:27:40</time>
      </trkpt>
      <trkpt lat="42.92306" lon="-0.0408">
        <ele>643.4</ele>
        <time>2022-06-08 14:27:41</time>
      </trkpt>
      <trkpt lat="42.92302" lon="-0.04078">
        <ele>643.6</ele>
        <time>2022-06-08 14:27:42</time>
      </trkpt>
      <trkpt lat="42.92297" lon="-0.04076">
        <ele>643.8</ele>
        <time>2022-06-08 14:27:43</time>
      </trkpt>
      <trkpt lat="42.92293" lon="-0.04075">
        <ele>644</ele>
        <time>2022-06-08 14:27:44</time>
      </trkpt>
      <trkpt lat="42.92289" lon="-0.04075">
        <ele>644</ele>
        <time>2022-06-08 14:27:45</time>
      </trkpt>
      <trkpt lat="42.92285" lon="-0.04075">
        <ele>644.2</ele>
        <time>2022-06-08 14:27:46</time>
      </trkpt>
      <trkpt lat="42.9228" lon="-0.04076">
        <ele>644.2</ele>
        <time>2022-06-08 14:27:47</time>
      </trkpt>
      <trkpt lat="42.92276" lon="-0.04078">
        <ele>644.2</ele>
        <time>2022-06-08 14:27:48</time>
      </trkpt>
      <trkpt lat="42.92271" lon="-0.0408">
        <ele>644.6</ele>
        <time>2022-06-08 14:27:49</time>
      </trkpt>
      <trkpt lat="42.92268" lon="-0.04081">
        <ele>644.8</ele>
        <time>2022-06-08 14:27:50</time>
      </trkpt>
      <trkpt lat="42.92264" lon="-0.04082">
        <ele>645</ele>
        <time>2022-06-08 14:27:51</time>
      </trkpt>
      <trkpt lat="42.92259" lon="-0.04083">
        <ele>645.2</ele>
        <time>2022-06-08 14:27:52</time>
      </trkpt>
      <trkpt lat="42.92255" lon="-0.04083">
        <ele>645.8</ele>
        <time>2022-06-08 14:27:53</time>
      </trkpt>
      <trkpt lat="42.92251" lon="-0.04083">
        <ele>646.2</ele>
        <time>2022-06-08 14:27:54</time>
      </trkpt>
      <trkpt lat="42.92246" lon="-0.04083">
        <ele>646.6</ele>
        <time>2022-06-08 14:27:55</time>
      </trkpt>
      <trkpt lat="42.92242" lon="-0.04083">
        <ele>646.8</ele>
        <time>2022-06-08 14:27:56</time>
      </trkpt>
      <trkpt lat="42.92238" lon="-0.04084">
        <ele>647</ele>
        <time>2022-06-08 14:27:57</time>
      </trkpt>
      <trkpt lat="42.92234" lon="-0.04084">
        <ele>647.2</ele>
        <time>2022-06-08 14:27:58</time>
      </trkpt>
      <trkpt lat="42.92229" lon="-0.04084">
        <ele>647.4</ele>
        <time>2022-06-08 14:27:59</time>
      </trkpt>
      <trkpt lat="42.92224" lon="-0.04084">
        <ele>647.4</ele>
        <time>2022-06-08 14:28:00</time>
      </trkpt>
      <trkpt lat="42.9222" lon="-0.04085">
        <ele>647.4</ele>
        <time>2022-06-08 14:28:01</time>
      </trkpt>
      <trkpt lat="42.92215" lon="-0.04085">
        <ele>647.6</ele>
        <time>2022-06-08 14:28:02</time>
      </trkpt>
      <trkpt lat="42.9221" lon="-0.04086">
        <ele>647.6</ele>
        <time>2022-06-08 14:28:03</time>
      </trkpt>
      <trkpt lat="42.92205" lon="-0.04087">
        <ele>648</ele>
        <time>2022-06-08 14:28:04</time>
      </trkpt>
      <trkpt lat="42.92201" lon="-0.04089">
        <ele>648.2</ele>
        <time>2022-06-08 14:28:05</time>
      </trkpt>
      <trkpt lat="42.92197" lon="-0.04091">
        <ele>648.6</ele>
        <time>2022-06-08 14:28:06</time>
      </trkpt>
      <trkpt lat="42.92192" lon="-0.04093">
        <ele>648.8</ele>
        <time>2022-06-08 14:28:07</time>
      </trkpt>
      <trkpt lat="42.92188" lon="-0.04095">
        <ele>648.8</ele>
        <time>2022-06-08 14:28:08</time>
      </trkpt>
      <trkpt lat="42.92183" lon="-0.04097">
        <ele>649</ele>
        <time>2022-06-08 14:28:09</time>
      </trkpt>
      <trkpt lat="42.92179" lon="-0.04098">
        <ele>649.2</ele>
        <time>2022-06-08 14:28:10</time>
      </trkpt>
      <trkpt lat="42.92175" lon="-0.041">
        <ele>649.4</ele>
        <time>2022-06-08 14:28:11</time>
      </trkpt>
      <trkpt lat="42.92171" lon="-0.04101">
        <ele>649.6</ele>
        <time>2022-06-08 14:28:12</time>
      </trkpt>
      <trkpt lat="42.92167" lon="-0.04102">
        <ele>649.8</ele>
        <time>2022-06-08 14:28:13</time>
      </trkpt>
      <trkpt lat="42.92163" lon="-0.04104">
        <ele>649.8</ele>
        <time>2022-06-08 14:28:14</time>
      </trkpt>
      <trkpt lat="42.92159" lon="-0.04105">
        <ele>650.2</ele>
        <time>2022-06-08 14:28:15</time>
      </trkpt>
      <trkpt lat="42.92154" lon="-0.04105">
        <ele>650.2</ele>
        <time>2022-06-08 14:28:16</time>
      </trkpt>
      <trkpt lat="42.9215" lon="-0.04105">
        <ele>650.8</ele>
        <time>2022-06-08 14:28:17</time>
      </trkpt>
      <trkpt lat="42.92145" lon="-0.04105">
        <ele>651</ele>
        <time>2022-06-08 14:28:18</time>
      </trkpt>
      <trkpt lat="42.9214" lon="-0.04104">
        <ele>652</ele>
        <time>2022-06-08 14:28:19</time>
      </trkpt>
      <trkpt lat="42.92136" lon="-0.04103">
        <ele>652.2</ele>
        <time>2022-06-08 14:28:20</time>
      </trkpt>
      <trkpt lat="42.92132" lon="-0.04102">
        <ele>652.6</ele>
        <time>2022-06-08 14:28:21</time>
      </trkpt>
      <trkpt lat="42.92127" lon="-0.04101">
        <ele>652.8</ele>
        <time>2022-06-08 14:28:22</time>
      </trkpt>
      <trkpt lat="42.92121" lon="-0.041">
        <ele>653</ele>
        <time>2022-06-08 14:28:23</time>
      </trkpt>
      <trkpt lat="42.92115" lon="-0.04099">
        <ele>653.2</ele>
        <time>2022-06-08 14:28:24</time>
      </trkpt>
      <trkpt lat="42.92111" lon="-0.04098">
        <ele>653.2</ele>
        <time>2022-06-08 14:28:25</time>
      </trkpt>
      <trkpt lat="42.92106" lon="-0.04098">
        <ele>653.2</ele>
        <time>2022-06-08 14:28:26</time>
      </trkpt>
      <trkpt lat="42.92099" lon="-0.04097">
        <ele>653.2</ele>
        <time>2022-06-08 14:28:27</time>
      </trkpt>
      <trkpt lat="42.92095" lon="-0.04096">
        <ele>653.2</ele>
        <time>2022-06-08 14:28:28</time>
      </trkpt>
      <trkpt lat="42.92088" lon="-0.04094">
        <ele>653.2</ele>
        <time>2022-06-08 14:28:29</time>
      </trkpt>
      <trkpt lat="42.92083" lon="-0.04092">
        <ele>653</ele>
        <time>2022-06-08 14:28:30</time>
      </trkpt>
      <trkpt lat="42.92077" lon="-0.0409">
        <ele>653</ele>
        <time>2022-06-08 14:28:31</time>
      </trkpt>
      <trkpt lat="42.92072" lon="-0.04087">
        <ele>652.8</ele>
        <time>2022-06-08 14:28:32</time>
      </trkpt>
      <trkpt lat="42.92065" lon="-0.04082">
        <ele>653</ele>
        <time>2022-06-08 14:28:33</time>
      </trkpt>
      <trkpt lat="42.9206" lon="-0.04077">
        <ele>652.6</ele>
        <time>2022-06-08 14:28:34</time>
      </trkpt>
      <trkpt lat="42.92055" lon="-0.04073">
        <ele>652.8</ele>
        <time>2022-06-08 14:28:35</time>
      </trkpt>
      <trkpt lat="42.9205" lon="-0.04069">
        <ele>652.8</ele>
        <time>2022-06-08 14:28:36</time>
      </trkpt>
      <trkpt lat="42.92044" lon="-0.04062">
        <ele>652.6</ele>
        <time>2022-06-08 14:28:37</time>
      </trkpt>
      <trkpt lat="42.92038" lon="-0.04056">
        <ele>652.6</ele>
        <time>2022-06-08 14:28:38</time>
      </trkpt>
      <trkpt lat="42.92032" lon="-0.04051">
        <ele>652.4</ele>
        <time>2022-06-08 14:28:39</time>
      </trkpt>
      <trkpt lat="42.92026" lon="-0.04044">
        <ele>652.4</ele>
        <time>2022-06-08 14:28:40</time>
      </trkpt>
      <trkpt lat="42.92019" lon="-0.04038">
        <ele>652</ele>
        <time>2022-06-08 14:28:41</time>
      </trkpt>
      <trkpt lat="42.92015" lon="-0.04033">
        <ele>651.8</ele>
        <time>2022-06-08 14:28:42</time>
      </trkpt>
      <trkpt lat="42.92007" lon="-0.04028">
        <ele>651.4</ele>
        <time>2022-06-08 14:28:43</time>
      </trkpt>
      <trkpt lat="42.91999" lon="-0.04027">
        <ele>651.2</ele>
        <time>2022-06-08 14:28:44</time>
      </trkpt>
      <trkpt lat="42.91992" lon="-0.04027">
        <ele>650.8</ele>
        <time>2022-06-08 14:28:45</time>
      </trkpt>
      <trkpt lat="42.91984" lon="-0.04027">
        <ele>650.6</ele>
        <time>2022-06-08 14:28:46</time>
      </trkpt>
      <trkpt lat="42.91977" lon="-0.04028">
        <ele>650.2</ele>
        <time>2022-06-08 14:28:47</time>
      </trkpt>
      <trkpt lat="42.9197" lon="-0.04028">
        <ele>650</ele>
        <time>2022-06-08 14:28:48</time>
      </trkpt>
      <trkpt lat="42.91963" lon="-0.04027">
        <ele>649.8</ele>
        <time>2022-06-08 14:28:49</time>
      </trkpt>
      <trkpt lat="42.91956" lon="-0.04025">
        <ele>649.6</ele>
        <time>2022-06-08 14:28:50</time>
      </trkpt>
      <trkpt lat="42.91949" lon="-0.04023">
        <ele>649.6</ele>
        <time>2022-06-08 14:28:51</time>
      </trkpt>
      <trkpt lat="42.91942" lon="-0.04021">
        <ele>649.4</ele>
        <time>2022-06-08 14:28:52</time>
      </trkpt>
      <trkpt lat="42.91936" lon="-0.0402">
        <ele>649.4</ele>
        <time>2022-06-08 14:28:53</time>
      </trkpt>
      <trkpt lat="42.91929" lon="-0.04019">
        <ele>649.4</ele>
        <time>2022-06-08 14:28:54</time>
      </trkpt>
      <trkpt lat="42.91925" lon="-0.04019">
        <ele>649.4</ele>
        <time>2022-06-08 14:28:55</time>
      </trkpt>
      <trkpt lat="42.9192" lon="-0.0402">
        <ele>649.4</ele>
        <time>2022-06-08 14:28:56</time>
      </trkpt>
      <trkpt lat="42.91914" lon="-0.04023">
        <ele>649.4</ele>
        <time>2022-06-08 14:28:57</time>
      </trkpt>
      <trkpt lat="42.91909" lon="-0.04027">
        <ele>649.4</ele>
        <time>2022-06-08 14:28:58</time>
      </trkpt>
      <trkpt lat="42.91904" lon="-0.04029">
        <ele>649.6</ele>
        <time>2022-06-08 14:28:59</time>
      </trkpt>
      <trkpt lat="42.91899" lon="-0.04032">
        <ele>649.6</ele>
        <time>2022-06-08 14:29:00</time>
      </trkpt>
      <trkpt lat="42.91893" lon="-0.04035">
        <ele>649.8</ele>
        <time>2022-06-08 14:29:01</time>
      </trkpt>
      <trkpt lat="42.91888" lon="-0.04038">
        <ele>650</ele>
        <time>2022-06-08 14:29:02</time>
      </trkpt>
      <trkpt lat="42.91881" lon="-0.04041">
        <ele>650.2</ele>
        <time>2022-06-08 14:29:03</time>
      </trkpt>
      <trkpt lat="42.91877" lon="-0.04041">
        <ele>650.4</ele>
        <time>2022-06-08 14:29:04</time>
      </trkpt>
      <trkpt lat="42.91872" lon="-0.04043">
        <ele>650.6</ele>
        <time>2022-06-08 14:29:05</time>
      </trkpt>
      <trkpt lat="42.91866" lon="-0.04043">
        <ele>650.8</ele>
        <time>2022-06-08 14:29:06</time>
      </trkpt>
      <trkpt lat="42.91861" lon="-0.04042">
        <ele>650.8</ele>
        <time>2022-06-08 14:29:07</time>
      </trkpt>
      <trkpt lat="42.91856" lon="-0.0404">
        <ele>651</ele>
        <time>2022-06-08 14:29:08</time>
      </trkpt>
      <trkpt lat="42.91852" lon="-0.04037">
        <ele>651.2</ele>
        <time>2022-06-08 14:29:09</time>
      </trkpt>
      <trkpt lat="42.91847" lon="-0.04033">
        <ele>651.2</ele>
        <time>2022-06-08 14:29:10</time>
      </trkpt>
      <trkpt lat="42.91842" lon="-0.04027">
        <ele>651.6</ele>
        <time>2022-06-08 14:29:11</time>
      </trkpt>
      <trkpt lat="42.91838" lon="-0.04022">
        <ele>651.8</ele>
        <time>2022-06-08 14:29:12</time>
      </trkpt>
      <trkpt lat="42.91834" lon="-0.04017">
        <ele>652</ele>
        <time>2022-06-08 14:29:13</time>
      </trkpt>
      <trkpt lat="42.91831" lon="-0.04013">
        <ele>652.2</ele>
        <time>2022-06-08 14:29:14</time>
      </trkpt>
      <trkpt lat="42.91827" lon="-0.04008">
        <ele>652.6</ele>
        <time>2022-06-08 14:29:15</time>
      </trkpt>
      <trkpt lat="42.91823" lon="-0.04004">
        <ele>652.8</ele>
        <time>2022-06-08 14:29:16</time>
      </trkpt>
      <trkpt lat="42.91817" lon="-0.03999">
        <ele>652.8</ele>
        <time>2022-06-08 14:29:17</time>
      </trkpt>
      <trkpt lat="42.91813" lon="-0.03997">
        <ele>653</ele>
        <time>2022-06-08 14:29:18</time>
      </trkpt>
      <trkpt lat="42.91808" lon="-0.03995">
        <ele>653</ele>
        <time>2022-06-08 14:29:19</time>
      </trkpt>
      <trkpt lat="42.91802" lon="-0.03994">
        <ele>653.2</ele>
        <time>2022-06-08 14:29:20</time>
      </trkpt>
      <trkpt lat="42.91796" lon="-0.03993">
        <ele>653.2</ele>
        <time>2022-06-08 14:29:21</time>
      </trkpt>
      <trkpt lat="42.91789" lon="-0.03993">
        <ele>653.4</ele>
        <time>2022-06-08 14:29:22</time>
      </trkpt>
      <trkpt lat="42.91783" lon="-0.03993">
        <ele>653.4</ele>
        <time>2022-06-08 14:29:23</time>
      </trkpt>
      <trkpt lat="42.91779" lon="-0.03993">
        <ele>653.6</ele>
        <time>2022-06-08 14:29:24</time>
      </trkpt>
      <trkpt lat="42.91774" lon="-0.03993">
        <ele>654</ele>
        <time>2022-06-08 14:29:25</time>
      </trkpt>
      <trkpt lat="42.91769" lon="-0.03993">
        <ele>654</ele>
        <time>2022-06-08 14:29:26</time>
      </trkpt>
      <trkpt lat="42.91763" lon="-0.03992">
        <ele>654.4</ele>
        <time>2022-06-08 14:29:27</time>
      </trkpt>
      <trkpt lat="42.91758" lon="-0.03991">
        <ele>654.4</ele>
        <time>2022-06-08 14:29:28</time>
      </trkpt>
      <trkpt lat="42.91754" lon="-0.0399">
        <ele>654.6</ele>
        <time>2022-06-08 14:29:29</time>
      </trkpt>
      <trkpt lat="42.91749" lon="-0.03987">
        <ele>654.8</ele>
        <time>2022-06-08 14:29:30</time>
      </trkpt>
      <trkpt lat="42.91745" lon="-0.03984">
        <ele>654.8</ele>
        <time>2022-06-08 14:29:31</time>
      </trkpt>
      <trkpt lat="42.9174" lon="-0.03979">
        <ele>655</ele>
        <time>2022-06-08 14:29:32</time>
      </trkpt>
      <trkpt lat="42.91737" lon="-0.03975">
        <ele>655.6</ele>
        <time>2022-06-08 14:29:33</time>
      </trkpt>
      <trkpt lat="42.91734" lon="-0.03969">
        <ele>655.8</ele>
        <time>2022-06-08 14:29:34</time>
      </trkpt>
      <trkpt lat="42.9173" lon="-0.03963">
        <ele>656.4</ele>
        <time>2022-06-08 14:29:35</time>
      </trkpt>
      <trkpt lat="42.91727" lon="-0.03957">
        <ele>656.6</ele>
        <time>2022-06-08 14:29:36</time>
      </trkpt>
      <trkpt lat="42.91723" lon="-0.03951">
        <ele>656.6</ele>
        <time>2022-06-08 14:29:37</time>
      </trkpt>
      <trkpt lat="42.9172" lon="-0.03945">
        <ele>657</ele>
        <time>2022-06-08 14:29:38</time>
      </trkpt>
      <trkpt lat="42.91716" lon="-0.03939">
        <ele>657</ele>
        <time>2022-06-08 14:29:39</time>
      </trkpt>
      <trkpt lat="42.91712" lon="-0.03933">
        <ele>657.2</ele>
        <time>2022-06-08 14:29:40</time>
      </trkpt>
      <trkpt lat="42.91708" lon="-0.03926">
        <ele>657.2</ele>
        <time>2022-06-08 14:29:41</time>
      </trkpt>
      <trkpt lat="42.91704" lon="-0.03918">
        <ele>657.4</ele>
        <time>2022-06-08 14:29:42</time>
      </trkpt>
      <trkpt lat="42.91699" lon="-0.03912">
        <ele>657.4</ele>
        <time>2022-06-08 14:29:43</time>
      </trkpt>
      <trkpt lat="42.91696" lon="-0.03906">
        <ele>657.4</ele>
        <time>2022-06-08 14:29:44</time>
      </trkpt>
      <trkpt lat="42.91692" lon="-0.03899">
        <ele>657.4</ele>
        <time>2022-06-08 14:29:45</time>
      </trkpt>
      <trkpt lat="42.91687" lon="-0.03892">
        <ele>657.2</ele>
        <time>2022-06-08 14:29:46</time>
      </trkpt>
      <trkpt lat="42.91682" lon="-0.03885">
        <ele>657.2</ele>
        <time>2022-06-08 14:29:47</time>
      </trkpt>
      <trkpt lat="42.91677" lon="-0.03878">
        <ele>657.2</ele>
        <time>2022-06-08 14:29:48</time>
      </trkpt>
      <trkpt lat="42.91677" lon="-0.03868">
        <ele>657.2</ele>
        <time>2022-06-08 14:29:49</time>
      </trkpt>
      <trkpt lat="42.91673" lon="-0.0386">
        <ele>657</ele>
        <time>2022-06-08 14:29:50</time>
      </trkpt>
      <trkpt lat="42.91668" lon="-0.03852">
        <ele>656.8</ele>
        <time>2022-06-08 14:29:51</time>
      </trkpt>
      <trkpt lat="42.91663" lon="-0.03844">
        <ele>656.8</ele>
        <time>2022-06-08 14:29:52</time>
      </trkpt>
      <trkpt lat="42.91658" lon="-0.03836">
        <ele>656.8</ele>
        <time>2022-06-08 14:29:53</time>
      </trkpt>
      <trkpt lat="42.91652" lon="-0.03829">
        <ele>656.6</ele>
        <time>2022-06-08 14:29:54</time>
      </trkpt>
      <trkpt lat="42.91646" lon="-0.03823">
        <ele>656.4</ele>
        <time>2022-06-08 14:29:55</time>
      </trkpt>
      <trkpt lat="42.9164" lon="-0.03817">
        <ele>656.4</ele>
        <time>2022-06-08 14:29:56</time>
      </trkpt>
      <trkpt lat="42.91633" lon="-0.03812">
        <ele>656.2</ele>
        <time>2022-06-08 14:29:57</time>
      </trkpt>
      <trkpt lat="42.91624" lon="-0.03807">
        <ele>656.2</ele>
        <time>2022-06-08 14:29:58</time>
      </trkpt>
      <trkpt lat="42.91617" lon="-0.03804">
        <ele>656</ele>
        <time>2022-06-08 14:29:59</time>
      </trkpt>
      <trkpt lat="42.91609" lon="-0.038">
        <ele>656</ele>
        <time>2022-06-08 14:30:00</time>
      </trkpt>
      <trkpt lat="42.91601" lon="-0.03796">
        <ele>656</ele>
        <time>2022-06-08 14:30:01</time>
      </trkpt>
      <trkpt lat="42.91593" lon="-0.03792">
        <ele>655.8</ele>
        <time>2022-06-08 14:30:02</time>
      </trkpt>
      <trkpt lat="42.91587" lon="-0.03789">
        <ele>655.6</ele>
        <time>2022-06-08 14:30:03</time>
      </trkpt>
      <trkpt lat="42.91578" lon="-0.03785">
        <ele>655.4</ele>
        <time>2022-06-08 14:30:04</time>
      </trkpt>
      <trkpt lat="42.9157" lon="-0.03781">
        <ele>655.2</ele>
        <time>2022-06-08 14:30:05</time>
      </trkpt>
      <trkpt lat="42.91561" lon="-0.03777">
        <ele>655</ele>
        <time>2022-06-08 14:30:06</time>
      </trkpt>
      <trkpt lat="42.91556" lon="-0.03769">
        <ele>654.8</ele>
        <time>2022-06-08 14:30:07</time>
      </trkpt>
      <trkpt lat="42.91547" lon="-0.03763">
        <ele>654.6</ele>
        <time>2022-06-08 14:30:08</time>
      </trkpt>
      <trkpt lat="42.91541" lon="-0.03759">
        <ele>654.4</ele>
        <time>2022-06-08 14:30:09</time>
      </trkpt>
      <trkpt lat="42.91531" lon="-0.03754">
        <ele>653.8</ele>
        <time>2022-06-08 14:30:10</time>
      </trkpt>
      <trkpt lat="42.91522" lon="-0.03749">
        <ele>653.8</ele>
        <time>2022-06-08 14:30:11</time>
      </trkpt>
      <trkpt lat="42.91513" lon="-0.03745">
        <ele>653.2</ele>
        <time>2022-06-08 14:30:12</time>
      </trkpt>
      <trkpt lat="42.91504" lon="-0.0374">
        <ele>652.8</ele>
        <time>2022-06-08 14:30:13</time>
      </trkpt>
      <trkpt lat="42.91495" lon="-0.03736">
        <ele>652.6</ele>
        <time>2022-06-08 14:30:14</time>
      </trkpt>
      <trkpt lat="42.91486" lon="-0.03731">
        <ele>652.4</ele>
        <time>2022-06-08 14:30:15</time>
      </trkpt>
      <trkpt lat="42.91478" lon="-0.03726">
        <ele>652.4</ele>
        <time>2022-06-08 14:30:16</time>
      </trkpt>
      <trkpt lat="42.91469" lon="-0.03721">
        <ele>652</ele>
        <time>2022-06-08 14:30:17</time>
      </trkpt>
      <trkpt lat="42.91461" lon="-0.03717">
        <ele>651.8</ele>
        <time>2022-06-08 14:30:18</time>
      </trkpt>
      <trkpt lat="42.91452" lon="-0.03712">
        <ele>651.6</ele>
        <time>2022-06-08 14:30:19</time>
      </trkpt>
      <trkpt lat="42.91443" lon="-0.03708">
        <ele>651.6</ele>
        <time>2022-06-08 14:30:20</time>
      </trkpt>
      <trkpt lat="42.91435" lon="-0.03704">
        <ele>651.2</ele>
        <time>2022-06-08 14:30:21</time>
      </trkpt>
      <trkpt lat="42.91427" lon="-0.037">
        <ele>651.2</ele>
        <time>2022-06-08 14:30:22</time>
      </trkpt>
      <trkpt lat="42.91419" lon="-0.03696">
        <ele>651</ele>
        <time>2022-06-08 14:30:23</time>
      </trkpt>
      <trkpt lat="42.9141" lon="-0.03693">
        <ele>651</ele>
        <time>2022-06-08 14:30:24</time>
      </trkpt>
      <trkpt lat="42.91402" lon="-0.03691">
        <ele>651</ele>
        <time>2022-06-08 14:30:25</time>
      </trkpt>
      <trkpt lat="42.91394" lon="-0.0369">
        <ele>650.8</ele>
        <time>2022-06-08 14:30:26</time>
      </trkpt>
      <trkpt lat="42.91385" lon="-0.03691">
        <ele>650.8</ele>
        <time>2022-06-08 14:30:27</time>
      </trkpt>
      <trkpt lat="42.91377" lon="-0.03693">
        <ele>650.8</ele>
        <time>2022-06-08 14:30:28</time>
      </trkpt>
      <trkpt lat="42.91369" lon="-0.03697">
        <ele>650.8</ele>
        <time>2022-06-08 14:30:29</time>
      </trkpt>
      <trkpt lat="42.91361" lon="-0.03702">
        <ele>650.8</ele>
        <time>2022-06-08 14:30:30</time>
      </trkpt>
      <trkpt lat="42.91354" lon="-0.03706">
        <ele>650.8</ele>
        <time>2022-06-08 14:30:31</time>
      </trkpt>
      <trkpt lat="42.91348" lon="-0.03708">
        <ele>651</ele>
        <time>2022-06-08 14:30:32</time>
      </trkpt>
      <trkpt lat="42.91339" lon="-0.03711">
        <ele>651</ele>
        <time>2022-06-08 14:30:33</time>
      </trkpt>
      <trkpt lat="42.91332" lon="-0.03713">
        <ele>651</ele>
        <time>2022-06-08 14:30:34</time>
      </trkpt>
      <trkpt lat="42.91325" lon="-0.03713">
        <ele>651.2</ele>
        <time>2022-06-08 14:30:35</time>
      </trkpt>
      <trkpt lat="42.91318" lon="-0.03713">
        <ele>651.6</ele>
        <time>2022-06-08 14:30:36</time>
      </trkpt>
      <trkpt lat="42.91312" lon="-0.03713">
        <ele>652</ele>
        <time>2022-06-08 14:30:37</time>
      </trkpt>
      <trkpt lat="42.91306" lon="-0.03713">
        <ele>652.2</ele>
        <time>2022-06-08 14:30:38</time>
      </trkpt>
      <trkpt lat="42.913" lon="-0.03713">
        <ele>652.8</ele>
        <time>2022-06-08 14:30:39</time>
      </trkpt>
      <trkpt lat="42.91295" lon="-0.03715">
        <ele>653</ele>
        <time>2022-06-08 14:30:40</time>
      </trkpt>
      <trkpt lat="42.91289" lon="-0.03718">
        <ele>653.6</ele>
        <time>2022-06-08 14:30:41</time>
      </trkpt>
      <trkpt lat="42.91284" lon="-0.03721">
        <ele>654</ele>
        <time>2022-06-08 14:30:42</time>
      </trkpt>
      <trkpt lat="42.91279" lon="-0.03725">
        <ele>654.4</ele>
        <time>2022-06-08 14:30:43</time>
      </trkpt>
      <trkpt lat="42.91274" lon="-0.03727">
        <ele>654.6</ele>
        <time>2022-06-08 14:30:44</time>
      </trkpt>
      <trkpt lat="42.91269" lon="-0.0373">
        <ele>655.2</ele>
        <time>2022-06-08 14:30:45</time>
      </trkpt>
      <trkpt lat="42.91263" lon="-0.03732">
        <ele>655.4</ele>
        <time>2022-06-08 14:30:46</time>
      </trkpt>
      <trkpt lat="42.91259" lon="-0.03733">
        <ele>655.4</ele>
        <time>2022-06-08 14:30:47</time>
      </trkpt>
      <trkpt lat="42.91253" lon="-0.03735">
        <ele>655.6</ele>
        <time>2022-06-08 14:30:48</time>
      </trkpt>
      <trkpt lat="42.91249" lon="-0.03735">
        <ele>656</ele>
        <time>2022-06-08 14:30:49</time>
      </trkpt>
      <trkpt lat="42.91243" lon="-0.03736">
        <ele>656.6</ele>
        <time>2022-06-08 14:30:50</time>
      </trkpt>
      <trkpt lat="42.91238" lon="-0.03735">
        <ele>657</ele>
        <time>2022-06-08 14:30:51</time>
      </trkpt>
      <trkpt lat="42.91234" lon="-0.03735">
        <ele>657.8</ele>
        <time>2022-06-08 14:30:52</time>
      </trkpt>
      <trkpt lat="42.91229" lon="-0.03734">
        <ele>658</ele>
        <time>2022-06-08 14:30:53</time>
      </trkpt>
      <trkpt lat="42.91224" lon="-0.03733">
        <ele>658.6</ele>
        <time>2022-06-08 14:30:54</time>
      </trkpt>
      <trkpt lat="42.91219" lon="-0.03731">
        <ele>658.8</ele>
        <time>2022-06-08 14:30:55</time>
      </trkpt>
      <trkpt lat="42.91214" lon="-0.03729">
        <ele>659.4</ele>
        <time>2022-06-08 14:30:56</time>
      </trkpt>
      <trkpt lat="42.91209" lon="-0.03728">
        <ele>659.4</ele>
        <time>2022-06-08 14:30:57</time>
      </trkpt>
      <trkpt lat="42.91204" lon="-0.03726">
        <ele>659.8</ele>
        <time>2022-06-08 14:30:58</time>
      </trkpt>
      <trkpt lat="42.91199" lon="-0.03724">
        <ele>659.8</ele>
        <time>2022-06-08 14:30:59</time>
      </trkpt>
      <trkpt lat="42.91193" lon="-0.03722">
        <ele>660.2</ele>
        <time>2022-06-08 14:31:00</time>
      </trkpt>
      <trkpt lat="42.91189" lon="-0.0372">
        <ele>660.4</ele>
        <time>2022-06-08 14:31:01</time>
      </trkpt>
      <trkpt lat="42.91183" lon="-0.03718">
        <ele>660.8</ele>
        <time>2022-06-08 14:31:02</time>
      </trkpt>
      <trkpt lat="42.91178" lon="-0.03717">
        <ele>661</ele>
        <time>2022-06-08 14:31:03</time>
      </trkpt>
      <trkpt lat="42.91171" lon="-0.03715">
        <ele>661</ele>
        <time>2022-06-08 14:31:04</time>
      </trkpt>
      <trkpt lat="42.91167" lon="-0.03714">
        <ele>661.2</ele>
        <time>2022-06-08 14:31:05</time>
      </trkpt>
      <trkpt lat="42.91162" lon="-0.03712">
        <ele>661.4</ele>
        <time>2022-06-08 14:31:06</time>
      </trkpt>
      <trkpt lat="42.91156" lon="-0.0371">
        <ele>661.4</ele>
        <time>2022-06-08 14:31:07</time>
      </trkpt>
      <trkpt lat="42.91151" lon="-0.03708">
        <ele>661.6</ele>
        <time>2022-06-08 14:31:08</time>
      </trkpt>
      <trkpt lat="42.91146" lon="-0.03705">
        <ele>661.8</ele>
        <time>2022-06-08 14:31:09</time>
      </trkpt>
      <trkpt lat="42.91141" lon="-0.03702">
        <ele>661.8</ele>
        <time>2022-06-08 14:31:10</time>
      </trkpt>
      <trkpt lat="42.91135" lon="-0.037">
        <ele>662</ele>
        <time>2022-06-08 14:31:11</time>
      </trkpt>
      <trkpt lat="42.9113" lon="-0.03698">
        <ele>662</ele>
        <time>2022-06-08 14:31:12</time>
      </trkpt>
      <trkpt lat="42.91124" lon="-0.03695">
        <ele>662.2</ele>
        <time>2022-06-08 14:31:13</time>
      </trkpt>
      <trkpt lat="42.91119" lon="-0.03692">
        <ele>662.4</ele>
        <time>2022-06-08 14:31:14</time>
      </trkpt>
      <trkpt lat="42.91113" lon="-0.03689">
        <ele>662.4</ele>
        <time>2022-06-08 14:31:15</time>
      </trkpt>
      <trkpt lat="42.91109" lon="-0.03686">
        <ele>662.4</ele>
        <time>2022-06-08 14:31:16</time>
      </trkpt>
      <trkpt lat="42.91102" lon="-0.03683">
        <ele>662.4</ele>
        <time>2022-06-08 14:31:17</time>
      </trkpt>
      <trkpt lat="42.91095" lon="-0.03681">
        <ele>662.4</ele>
        <time>2022-06-08 14:31:18</time>
      </trkpt>
      <trkpt lat="42.91089" lon="-0.03679">
        <ele>662.6</ele>
        <time>2022-06-08 14:31:19</time>
      </trkpt>
      <trkpt lat="42.91082" lon="-0.03677">
        <ele>662.6</ele>
        <time>2022-06-08 14:31:20</time>
      </trkpt>
      <trkpt lat="42.91077" lon="-0.03676">
        <ele>662.6</ele>
        <time>2022-06-08 14:31:21</time>
      </trkpt>
      <trkpt lat="42.9107" lon="-0.03675">
        <ele>662.6</ele>
        <time>2022-06-08 14:31:22</time>
      </trkpt>
      <trkpt lat="42.91063" lon="-0.03674">
        <ele>662.6</ele>
        <time>2022-06-08 14:31:23</time>
      </trkpt>
      <trkpt lat="42.91056" lon="-0.03673">
        <ele>662.6</ele>
        <time>2022-06-08 14:31:24</time>
      </trkpt>
      <trkpt lat="42.91049" lon="-0.03673">
        <ele>662.6</ele>
        <time>2022-06-08 14:31:25</time>
      </trkpt>
      <trkpt lat="42.91044" lon="-0.03673">
        <ele>662.6</ele>
        <time>2022-06-08 14:31:26</time>
      </trkpt>
      <trkpt lat="42.91036" lon="-0.03673">
        <ele>662.8</ele>
        <time>2022-06-08 14:31:27</time>
      </trkpt>
      <trkpt lat="42.9103" lon="-0.03673">
        <ele>662.8</ele>
        <time>2022-06-08 14:31:28</time>
      </trkpt>
      <trkpt lat="42.91022" lon="-0.03672">
        <ele>662.8</ele>
        <time>2022-06-08 14:31:29</time>
      </trkpt>
      <trkpt lat="42.91017" lon="-0.03672">
        <ele>662.8</ele>
        <time>2022-06-08 14:31:30</time>
      </trkpt>
      <trkpt lat="42.9101" lon="-0.03671">
        <ele>662.8</ele>
        <time>2022-06-08 14:31:31</time>
      </trkpt>
      <trkpt lat="42.91003" lon="-0.03669">
        <ele>662.8</ele>
        <time>2022-06-08 14:31:32</time>
      </trkpt>
      <trkpt lat="42.90996" lon="-0.03669">
        <ele>662.8</ele>
        <time>2022-06-08 14:31:33</time>
      </trkpt>
      <trkpt lat="42.90988" lon="-0.03668">
        <ele>662.8</ele>
        <time>2022-06-08 14:31:34</time>
      </trkpt>
      <trkpt lat="42.90981" lon="-0.03667">
        <ele>662.8</ele>
        <time>2022-06-08 14:31:35</time>
      </trkpt>
      <trkpt lat="42.90975" lon="-0.03667">
        <ele>662.6</ele>
        <time>2022-06-08 14:31:36</time>
      </trkpt>
      <trkpt lat="42.90967" lon="-0.03667">
        <ele>662.4</ele>
        <time>2022-06-08 14:31:37</time>
      </trkpt>
      <trkpt lat="42.90959" lon="-0.03666">
        <ele>662.4</ele>
        <time>2022-06-08 14:31:38</time>
      </trkpt>
      <trkpt lat="42.90951" lon="-0.03666">
        <ele>662.2</ele>
        <time>2022-06-08 14:31:39</time>
      </trkpt>
      <trkpt lat="42.90942" lon="-0.03664">
        <ele>661.8</ele>
        <time>2022-06-08 14:31:40</time>
      </trkpt>
      <trkpt lat="42.90933" lon="-0.03662">
        <ele>661.8</ele>
        <time>2022-06-08 14:31:41</time>
      </trkpt>
      <trkpt lat="42.90925" lon="-0.03659">
        <ele>661.2</ele>
        <time>2022-06-08 14:31:42</time>
      </trkpt>
      <trkpt lat="42.90916" lon="-0.03655">
        <ele>661</ele>
        <time>2022-06-08 14:31:43</time>
      </trkpt>
      <trkpt lat="42.90905" lon="-0.0365">
        <ele>660.6</ele>
        <time>2022-06-08 14:31:44</time>
      </trkpt>
      <trkpt lat="42.90898" lon="-0.03647">
        <ele>660.4</ele>
        <time>2022-06-08 14:31:45</time>
      </trkpt>
      <trkpt lat="42.90889" lon="-0.03643">
        <ele>659.8</ele>
        <time>2022-06-08 14:31:46</time>
      </trkpt>
      <trkpt lat="42.9088" lon="-0.03638">
        <ele>659.4</ele>
        <time>2022-06-08 14:31:47</time>
      </trkpt>
      <trkpt lat="42.90871" lon="-0.03631">
        <ele>658.4</ele>
        <time>2022-06-08 14:31:48</time>
      </trkpt>
      <trkpt lat="42.90863" lon="-0.03624">
        <ele>658</ele>
        <time>2022-06-08 14:31:49</time>
      </trkpt>
      <trkpt lat="42.90855" lon="-0.03616">
        <ele>657.4</ele>
        <time>2022-06-08 14:31:50</time>
      </trkpt>
      <trkpt lat="42.90847" lon="-0.03608">
        <ele>657</ele>
        <time>2022-06-08 14:31:51</time>
      </trkpt>
      <trkpt lat="42.90837" lon="-0.03598">
        <ele>656.8</ele>
        <time>2022-06-08 14:31:52</time>
      </trkpt>
      <trkpt lat="42.90829" lon="-0.0359">
        <ele>656</ele>
        <time>2022-06-08 14:31:53</time>
      </trkpt>
      <trkpt lat="42.9082" lon="-0.03583">
        <ele>655.6</ele>
        <time>2022-06-08 14:31:54</time>
      </trkpt>
      <trkpt lat="42.90813" lon="-0.03577">
        <ele>655.2</ele>
        <time>2022-06-08 14:31:55</time>
      </trkpt>
      <trkpt lat="42.90805" lon="-0.03571">
        <ele>655</ele>
        <time>2022-06-08 14:31:56</time>
      </trkpt>
      <trkpt lat="42.90795" lon="-0.03564">
        <ele>654.6</ele>
        <time>2022-06-08 14:31:57</time>
      </trkpt>
      <trkpt lat="42.90787" lon="-0.03558">
        <ele>654.4</ele>
        <time>2022-06-08 14:31:58</time>
      </trkpt>
      <trkpt lat="42.9078" lon="-0.03553">
        <ele>654.2</ele>
        <time>2022-06-08 14:31:59</time>
      </trkpt>
      <trkpt lat="42.90772" lon="-0.03547">
        <ele>654</ele>
        <time>2022-06-08 14:32:00</time>
      </trkpt>
      <trkpt lat="42.90765" lon="-0.03541">
        <ele>653.8</ele>
        <time>2022-06-08 14:32:01</time>
      </trkpt>
      <trkpt lat="42.90756" lon="-0.03533">
        <ele>653.8</ele>
        <time>2022-06-08 14:32:02</time>
      </trkpt>
      <trkpt lat="42.9075" lon="-0.03527">
        <ele>653.6</ele>
        <time>2022-06-08 14:32:03</time>
      </trkpt>
      <trkpt lat="42.90742" lon="-0.0352">
        <ele>653.4</ele>
        <time>2022-06-08 14:32:04</time>
      </trkpt>
      <trkpt lat="42.90735" lon="-0.03514">
        <ele>653.4</ele>
        <time>2022-06-08 14:32:05</time>
      </trkpt>
      <trkpt lat="42.90727" lon="-0.03509">
        <ele>653.4</ele>
        <time>2022-06-08 14:32:06</time>
      </trkpt>
      <trkpt lat="42.90718" lon="-0.03503">
        <ele>653.2</ele>
        <time>2022-06-08 14:32:07</time>
      </trkpt>
      <trkpt lat="42.90711" lon="-0.03501">
        <ele>653.2</ele>
        <time>2022-06-08 14:32:08</time>
      </trkpt>
      <trkpt lat="42.90703" lon="-0.03497">
        <ele>653</ele>
        <time>2022-06-08 14:32:09</time>
      </trkpt>
      <trkpt lat="42.90695" lon="-0.03493">
        <ele>652.6</ele>
        <time>2022-06-08 14:32:10</time>
      </trkpt>
      <trkpt lat="42.90687" lon="-0.0349">
        <ele>652.4</ele>
        <time>2022-06-08 14:32:11</time>
      </trkpt>
      <trkpt lat="42.90679" lon="-0.03485">
        <ele>652</ele>
        <time>2022-06-08 14:32:12</time>
      </trkpt>
      <trkpt lat="42.9067" lon="-0.03479">
        <ele>651.8</ele>
        <time>2022-06-08 14:32:13</time>
      </trkpt>
      <trkpt lat="42.90662" lon="-0.03473">
        <ele>651.4</ele>
        <time>2022-06-08 14:32:14</time>
      </trkpt>
      <trkpt lat="42.90654" lon="-0.03466">
        <ele>651.2</ele>
        <time>2022-06-08 14:32:15</time>
      </trkpt>
      <trkpt lat="42.90645" lon="-0.0346">
        <ele>651</ele>
        <time>2022-06-08 14:32:16</time>
      </trkpt>
      <trkpt lat="42.90634" lon="-0.03457">
        <ele>650.6</ele>
        <time>2022-06-08 14:32:17</time>
      </trkpt>
      <trkpt lat="42.90624" lon="-0.03458">
        <ele>650.4</ele>
        <time>2022-06-08 14:32:18</time>
      </trkpt>
      <trkpt lat="42.90615" lon="-0.03462">
        <ele>649.8</ele>
        <time>2022-06-08 14:32:19</time>
      </trkpt>
      <trkpt lat="42.90607" lon="-0.03466">
        <ele>649.2</ele>
        <time>2022-06-08 14:32:20</time>
      </trkpt>
      <trkpt lat="42.906" lon="-0.03465">
        <ele>648.4</ele>
        <time>2022-06-08 14:32:21</time>
      </trkpt>
      <trkpt lat="42.90591" lon="-0.03461">
        <ele>648.2</ele>
        <time>2022-06-08 14:32:22</time>
      </trkpt>
      <trkpt lat="42.90591" lon="-0.03461">
        <ele>648</ele>
        <time>2022-06-08 14:32:23</time>
      </trkpt>
      <trkpt lat="42.90581" lon="-0.03446">
        <ele>647.8</ele>
        <time>2022-06-08 14:32:24</time>
      </trkpt>
      <trkpt lat="42.90577" lon="-0.03436">
        <ele>647.6</ele>
        <time>2022-06-08 14:32:25</time>
      </trkpt>
      <trkpt lat="42.90573" lon="-0.03426">
        <ele>647.4</ele>
        <time>2022-06-08 14:32:26</time>
      </trkpt>
      <trkpt lat="42.90569" lon="-0.03415">
        <ele>647.2</ele>
        <time>2022-06-08 14:32:27</time>
      </trkpt>
      <trkpt lat="42.90564" lon="-0.03403">
        <ele>647.2</ele>
        <time>2022-06-08 14:32:28</time>
      </trkpt>
      <trkpt lat="42.9056" lon="-0.03393">
        <ele>647.2</ele>
        <time>2022-06-08 14:32:29</time>
      </trkpt>
      <trkpt lat="42.90556" lon="-0.03386">
        <ele>647</ele>
        <time>2022-06-08 14:32:30</time>
      </trkpt>
      <trkpt lat="42.90552" lon="-0.03378">
        <ele>647.2</ele>
        <time>2022-06-08 14:32:31</time>
      </trkpt>
      <trkpt lat="42.90547" lon="-0.03368">
        <ele>647.2</ele>
        <time>2022-06-08 14:32:32</time>
      </trkpt>
      <trkpt lat="42.90543" lon="-0.03362">
        <ele>647.4</ele>
        <time>2022-06-08 14:32:33</time>
      </trkpt>
      <trkpt lat="42.90539" lon="-0.03355">
        <ele>647.8</ele>
        <time>2022-06-08 14:32:34</time>
      </trkpt>
      <trkpt lat="42.90534" lon="-0.03347">
        <ele>647.8</ele>
        <time>2022-06-08 14:32:35</time>
      </trkpt>
      <trkpt lat="42.9053" lon="-0.0334">
        <ele>648</ele>
        <time>2022-06-08 14:32:36</time>
      </trkpt>
      <trkpt lat="42.90525" lon="-0.03331">
        <ele>648.2</ele>
        <time>2022-06-08 14:32:37</time>
      </trkpt>
      <trkpt lat="42.90521" lon="-0.03325">
        <ele>648.4</ele>
        <time>2022-06-08 14:32:38</time>
      </trkpt>
      <trkpt lat="42.90517" lon="-0.03318">
        <ele>648.4</ele>
        <time>2022-06-08 14:32:39</time>
      </trkpt>
      <trkpt lat="42.90511" lon="-0.03311">
        <ele>648.8</ele>
        <time>2022-06-08 14:32:40</time>
      </trkpt>
      <trkpt lat="42.90507" lon="-0.03305">
        <ele>649</ele>
        <time>2022-06-08 14:32:41</time>
      </trkpt>
      <trkpt lat="42.90502" lon="-0.03298">
        <ele>649.4</ele>
        <time>2022-06-08 14:32:42</time>
      </trkpt>
      <trkpt lat="42.90498" lon="-0.03291">
        <ele>650</ele>
        <time>2022-06-08 14:32:43</time>
      </trkpt>
      <trkpt lat="42.90494" lon="-0.03284">
        <ele>650.4</ele>
        <time>2022-06-08 14:32:44</time>
      </trkpt>
      <trkpt lat="42.9049" lon="-0.03277">
        <ele>650.8</ele>
        <time>2022-06-08 14:32:45</time>
      </trkpt>
      <trkpt lat="42.90486" lon="-0.03271">
        <ele>650.8</ele>
        <time>2022-06-08 14:32:46</time>
      </trkpt>
      <trkpt lat="42.90481" lon="-0.03264">
        <ele>651</ele>
        <time>2022-06-08 14:32:47</time>
      </trkpt>
      <trkpt lat="42.90477" lon="-0.03258">
        <ele>651</ele>
        <time>2022-06-08 14:32:48</time>
      </trkpt>
      <trkpt lat="42.90474" lon="-0.03251">
        <ele>651.2</ele>
        <time>2022-06-08 14:32:49</time>
      </trkpt>
      <trkpt lat="42.90471" lon="-0.03244">
        <ele>651.4</ele>
        <time>2022-06-08 14:32:50</time>
      </trkpt>
      <trkpt lat="42.90468" lon="-0.03237">
        <ele>651.6</ele>
        <time>2022-06-08 14:32:51</time>
      </trkpt>
      <trkpt lat="42.90464" lon="-0.0323">
        <ele>651.6</ele>
        <time>2022-06-08 14:32:52</time>
      </trkpt>
      <trkpt lat="42.90461" lon="-0.03222">
        <ele>652</ele>
        <time>2022-06-08 14:32:53</time>
      </trkpt>
      <trkpt lat="42.90458" lon="-0.03215">
        <ele>652</ele>
        <time>2022-06-08 14:32:54</time>
      </trkpt>
      <trkpt lat="42.90455" lon="-0.03208">
        <ele>652.2</ele>
        <time>2022-06-08 14:32:55</time>
      </trkpt>
      <trkpt lat="42.90451" lon="-0.032">
        <ele>652.4</ele>
        <time>2022-06-08 14:32:56</time>
      </trkpt>
      <trkpt lat="42.90447" lon="-0.03193">
        <ele>652.6</ele>
        <time>2022-06-08 14:32:57</time>
      </trkpt>
      <trkpt lat="42.90443" lon="-0.03184">
        <ele>652.8</ele>
        <time>2022-06-08 14:32:58</time>
      </trkpt>
      <trkpt lat="42.9044" lon="-0.03178">
        <ele>652.8</ele>
        <time>2022-06-08 14:32:59</time>
      </trkpt>
      <trkpt lat="42.90436" lon="-0.0317">
        <ele>653</ele>
        <time>2022-06-08 14:33:00</time>
      </trkpt>
      <trkpt lat="42.90431" lon="-0.03163">
        <ele>653</ele>
        <time>2022-06-08 14:33:01</time>
      </trkpt>
      <trkpt lat="42.90426" lon="-0.03157">
        <ele>653</ele>
        <time>2022-06-08 14:33:02</time>
      </trkpt>
      <trkpt lat="42.90422" lon="-0.0315">
        <ele>653.2</ele>
        <time>2022-06-08 14:33:03</time>
      </trkpt>
      <trkpt lat="42.90418" lon="-0.03144">
        <ele>653.2</ele>
        <time>2022-06-08 14:33:04</time>
      </trkpt>
      <trkpt lat="42.90412" lon="-0.0314">
        <ele>653.4</ele>
        <time>2022-06-08 14:33:05</time>
      </trkpt>
      <trkpt lat="42.90405" lon="-0.03138">
        <ele>653.6</ele>
        <time>2022-06-08 14:33:06</time>
      </trkpt>
      <trkpt lat="42.90397" lon="-0.03137">
        <ele>653.8</ele>
        <time>2022-06-08 14:33:07</time>
      </trkpt>
      <trkpt lat="42.90389" lon="-0.03137">
        <ele>654</ele>
        <time>2022-06-08 14:33:08</time>
      </trkpt>
      <trkpt lat="42.90381" lon="-0.03138">
        <ele>654</ele>
        <time>2022-06-08 14:33:09</time>
      </trkpt>
      <trkpt lat="42.90374" lon="-0.0314">
        <ele>654.2</ele>
        <time>2022-06-08 14:33:10</time>
      </trkpt>
      <trkpt lat="42.90368" lon="-0.03142">
        <ele>654.4</ele>
        <time>2022-06-08 14:33:11</time>
      </trkpt>
      <trkpt lat="42.90361" lon="-0.03144">
        <ele>654.6</ele>
        <time>2022-06-08 14:33:12</time>
      </trkpt>
      <trkpt lat="42.90354" lon="-0.03148">
        <ele>654.8</ele>
        <time>2022-06-08 14:33:13</time>
      </trkpt>
      <trkpt lat="42.90347" lon="-0.0315">
        <ele>654.8</ele>
        <time>2022-06-08 14:33:14</time>
      </trkpt>
      <trkpt lat="42.90341" lon="-0.03151">
        <ele>655</ele>
        <time>2022-06-08 14:33:15</time>
      </trkpt>
      <trkpt lat="42.90335" lon="-0.03151">
        <ele>655.2</ele>
        <time>2022-06-08 14:33:16</time>
      </trkpt>
      <trkpt lat="42.90328" lon="-0.03149">
        <ele>655.4</ele>
        <time>2022-06-08 14:33:17</time>
      </trkpt>
      <trkpt lat="42.90321" lon="-0.03147">
        <ele>655.6</ele>
        <time>2022-06-08 14:33:18</time>
      </trkpt>
      <trkpt lat="42.90315" lon="-0.03145">
        <ele>655.8</ele>
        <time>2022-06-08 14:33:19</time>
      </trkpt>
      <trkpt lat="42.90308" lon="-0.03142">
        <ele>655.8</ele>
        <time>2022-06-08 14:33:20</time>
      </trkpt>
      <trkpt lat="42.90303" lon="-0.03139">
        <ele>656</ele>
        <time>2022-06-08 14:33:21</time>
      </trkpt>
      <trkpt lat="42.90295" lon="-0.03136">
        <ele>656.2</ele>
        <time>2022-06-08 14:33:22</time>
      </trkpt>
      <trkpt lat="42.90289" lon="-0.03133">
        <ele>656.2</ele>
        <time>2022-06-08 14:33:23</time>
      </trkpt>
      <trkpt lat="42.90283" lon="-0.03129">
        <ele>656.2</ele>
        <time>2022-06-08 14:33:24</time>
      </trkpt>
      <trkpt lat="42.90277" lon="-0.03126">
        <ele>656.2</ele>
        <time>2022-06-08 14:33:25</time>
      </trkpt>
      <trkpt lat="42.90272" lon="-0.03124">
        <ele>656.4</ele>
        <time>2022-06-08 14:33:26</time>
      </trkpt>
      <trkpt lat="42.90266" lon="-0.03122">
        <ele>656.4</ele>
        <time>2022-06-08 14:33:27</time>
      </trkpt>
      <trkpt lat="42.9026" lon="-0.03118">
        <ele>656.4</ele>
        <time>2022-06-08 14:33:28</time>
      </trkpt>
      <trkpt lat="42.90252" lon="-0.03113">
        <ele>656.4</ele>
        <time>2022-06-08 14:33:29</time>
      </trkpt>
      <trkpt lat="42.90247" lon="-0.03109">
        <ele>656.4</ele>
        <time>2022-06-08 14:33:30</time>
      </trkpt>
      <trkpt lat="42.9024" lon="-0.03105">
        <ele>656.6</ele>
        <time>2022-06-08 14:33:31</time>
      </trkpt>
      <trkpt lat="42.90234" lon="-0.031">
        <ele>656.6</ele>
        <time>2022-06-08 14:33:32</time>
      </trkpt>
      <trkpt lat="42.90228" lon="-0.03096">
        <ele>656.8</ele>
        <time>2022-06-08 14:33:33</time>
      </trkpt>
      <trkpt lat="42.90221" lon="-0.03091">
        <ele>656.8</ele>
        <time>2022-06-08 14:33:34</time>
      </trkpt>
      <trkpt lat="42.90215" lon="-0.03087">
        <ele>657</ele>
        <time>2022-06-08 14:33:35</time>
      </trkpt>
      <trkpt lat="42.9021" lon="-0.03082">
        <ele>657</ele>
        <time>2022-06-08 14:33:36</time>
      </trkpt>
      <trkpt lat="42.90204" lon="-0.03078">
        <ele>657</ele>
        <time>2022-06-08 14:33:37</time>
      </trkpt>
      <trkpt lat="42.90197" lon="-0.03074">
        <ele>657</ele>
        <time>2022-06-08 14:33:38</time>
      </trkpt>
      <trkpt lat="42.9019" lon="-0.03068">
        <ele>657</ele>
        <time>2022-06-08 14:33:39</time>
      </trkpt>
      <trkpt lat="42.90185" lon="-0.03065">
        <ele>657.2</ele>
        <time>2022-06-08 14:33:40</time>
      </trkpt>
      <trkpt lat="42.90178" lon="-0.0306">
        <ele>657.2</ele>
        <time>2022-06-08 14:33:41</time>
      </trkpt>
      <trkpt lat="42.90172" lon="-0.03056">
        <ele>657.2</ele>
        <time>2022-06-08 14:33:42</time>
      </trkpt>
      <trkpt lat="42.90165" lon="-0.0305">
        <ele>657.4</ele>
        <time>2022-06-08 14:33:43</time>
      </trkpt>
      <trkpt lat="42.9016" lon="-0.03047">
        <ele>657.4</ele>
        <time>2022-06-08 14:33:44</time>
      </trkpt>
      <trkpt lat="42.90154" lon="-0.03042">
        <ele>657.6</ele>
        <time>2022-06-08 14:33:45</time>
      </trkpt>
      <trkpt lat="42.90149" lon="-0.03038">
        <ele>657.6</ele>
        <time>2022-06-08 14:33:46</time>
      </trkpt>
      <trkpt lat="42.90143" lon="-0.03034">
        <ele>657.6</ele>
        <time>2022-06-08 14:33:47</time>
      </trkpt>
      <trkpt lat="42.90138" lon="-0.03029">
        <ele>657.8</ele>
        <time>2022-06-08 14:33:48</time>
      </trkpt>
      <trkpt lat="42.90132" lon="-0.03025">
        <ele>658</ele>
        <time>2022-06-08 14:33:49</time>
      </trkpt>
      <trkpt lat="42.90127" lon="-0.03022">
        <ele>658.2</ele>
        <time>2022-06-08 14:33:50</time>
      </trkpt>
      <trkpt lat="42.90122" lon="-0.03018">
        <ele>658.4</ele>
        <time>2022-06-08 14:33:51</time>
      </trkpt>
      <trkpt lat="42.90116" lon="-0.03013">
        <ele>658.6</ele>
        <time>2022-06-08 14:33:52</time>
      </trkpt>
      <trkpt lat="42.9011" lon="-0.03009">
        <ele>658.8</ele>
        <time>2022-06-08 14:33:53</time>
      </trkpt>
      <trkpt lat="42.90105" lon="-0.03005">
        <ele>659</ele>
        <time>2022-06-08 14:33:54</time>
      </trkpt>
      <trkpt lat="42.90099" lon="-0.03001">
        <ele>659.4</ele>
        <time>2022-06-08 14:33:55</time>
      </trkpt>
      <trkpt lat="42.90094" lon="-0.02997">
        <ele>659.8</ele>
        <time>2022-06-08 14:33:56</time>
      </trkpt>
      <trkpt lat="42.90089" lon="-0.02993">
        <ele>660</ele>
        <time>2022-06-08 14:33:57</time>
      </trkpt>
      <trkpt lat="42.90084" lon="-0.02989">
        <ele>660.4</ele>
        <time>2022-06-08 14:33:58</time>
      </trkpt>
      <trkpt lat="42.90079" lon="-0.02985">
        <ele>660.6</ele>
        <time>2022-06-08 14:33:59</time>
      </trkpt>
      <trkpt lat="42.90074" lon="-0.02982">
        <ele>660.6</ele>
        <time>2022-06-08 14:34:00</time>
      </trkpt>
      <trkpt lat="42.90069" lon="-0.02978">
        <ele>660.8</ele>
        <time>2022-06-08 14:34:01</time>
      </trkpt>
      <trkpt lat="42.90065" lon="-0.02974">
        <ele>660.8</ele>
        <time>2022-06-08 14:34:02</time>
      </trkpt>
      <trkpt lat="42.9006" lon="-0.02971">
        <ele>661.2</ele>
        <time>2022-06-08 14:34:03</time>
      </trkpt>
      <trkpt lat="42.90055" lon="-0.02967">
        <ele>661.4</ele>
        <time>2022-06-08 14:34:04</time>
      </trkpt>
      <trkpt lat="42.9005" lon="-0.02963">
        <ele>661.8</ele>
        <time>2022-06-08 14:34:05</time>
      </trkpt>
      <trkpt lat="42.90045" lon="-0.0296">
        <ele>662</ele>
        <time>2022-06-08 14:34:06</time>
      </trkpt>
      <trkpt lat="42.9004" lon="-0.02956">
        <ele>662.2</ele>
        <time>2022-06-08 14:34:07</time>
      </trkpt>
      <trkpt lat="42.90035" lon="-0.02952">
        <ele>662.4</ele>
        <time>2022-06-08 14:34:08</time>
      </trkpt>
      <trkpt lat="42.90029" lon="-0.02948">
        <ele>662.6</ele>
        <time>2022-06-08 14:34:09</time>
      </trkpt>
      <trkpt lat="42.90024" lon="-0.02945">
        <ele>662.8</ele>
        <time>2022-06-08 14:34:10</time>
      </trkpt>
      <trkpt lat="42.90019" lon="-0.02941">
        <ele>663</ele>
        <time>2022-06-08 14:34:11</time>
      </trkpt>
      <trkpt lat="42.90013" lon="-0.02937">
        <ele>663.2</ele>
        <time>2022-06-08 14:34:12</time>
      </trkpt>
      <trkpt lat="42.90008" lon="-0.02933">
        <ele>663.4</ele>
        <time>2022-06-08 14:34:13</time>
      </trkpt>
      <trkpt lat="42.90004" lon="-0.0293">
        <ele>663.4</ele>
        <time>2022-06-08 14:34:14</time>
      </trkpt>
      <trkpt lat="42.89999" lon="-0.02926">
        <ele>663.6</ele>
        <time>2022-06-08 14:34:15</time>
      </trkpt>
      <trkpt lat="42.89993" lon="-0.02923">
        <ele>663.8</ele>
        <time>2022-06-08 14:34:16</time>
      </trkpt>
      <trkpt lat="42.89987" lon="-0.02918">
        <ele>664</ele>
        <time>2022-06-08 14:34:17</time>
      </trkpt>
      <trkpt lat="42.89982" lon="-0.02915">
        <ele>664</ele>
        <time>2022-06-08 14:34:18</time>
      </trkpt>
      <trkpt lat="42.89977" lon="-0.02911">
        <ele>664.2</ele>
        <time>2022-06-08 14:34:19</time>
      </trkpt>
      <trkpt lat="42.89973" lon="-0.02909">
        <ele>664.6</ele>
        <time>2022-06-08 14:34:20</time>
      </trkpt>
      <trkpt lat="42.89967" lon="-0.02905">
        <ele>664.6</ele>
        <time>2022-06-08 14:34:21</time>
      </trkpt>
      <trkpt lat="42.89962" lon="-0.02902">
        <ele>664.8</ele>
        <time>2022-06-08 14:34:22</time>
      </trkpt>
      <trkpt lat="42.89956" lon="-0.02897">
        <ele>664.8</ele>
        <time>2022-06-08 14:34:23</time>
      </trkpt>
      <trkpt lat="42.8995" lon="-0.02893">
        <ele>665</ele>
        <time>2022-06-08 14:34:24</time>
      </trkpt>
      <trkpt lat="42.89946" lon="-0.0289">
        <ele>665.2</ele>
        <time>2022-06-08 14:34:25</time>
      </trkpt>
      <trkpt lat="42.89939" lon="-0.02886">
        <ele>665.4</ele>
        <time>2022-06-08 14:34:26</time>
      </trkpt>
      <trkpt lat="42.89934" lon="-0.02881">
        <ele>665.6</ele>
        <time>2022-06-08 14:34:27</time>
      </trkpt>
      <trkpt lat="42.89928" lon="-0.02875">
        <ele>665.6</ele>
        <time>2022-06-08 14:34:28</time>
      </trkpt>
      <trkpt lat="42.89923" lon="-0.02871">
        <ele>665.6</ele>
        <time>2022-06-08 14:34:29</time>
      </trkpt>
      <trkpt lat="42.89916" lon="-0.02865">
        <ele>665.8</ele>
        <time>2022-06-08 14:34:30</time>
      </trkpt>
      <trkpt lat="42.89909" lon="-0.02858">
        <ele>665.8</ele>
        <time>2022-06-08 14:34:31</time>
      </trkpt>
      <trkpt lat="42.89903" lon="-0.02854">
        <ele>665.8</ele>
        <time>2022-06-08 14:34:32</time>
      </trkpt>
      <trkpt lat="42.89896" lon="-0.02849">
        <ele>665.8</ele>
        <time>2022-06-08 14:34:33</time>
      </trkpt>
      <trkpt lat="42.89889" lon="-0.02843">
        <ele>665.8</ele>
        <time>2022-06-08 14:34:34</time>
      </trkpt>
      <trkpt lat="42.8988" lon="-0.02838">
        <ele>665.6</ele>
        <time>2022-06-08 14:34:35</time>
      </trkpt>
      <trkpt lat="42.89873" lon="-0.02834">
        <ele>665.6</ele>
        <time>2022-06-08 14:34:36</time>
      </trkpt>
      <trkpt lat="42.89865" lon="-0.0283">
        <ele>665.4</ele>
        <time>2022-06-08 14:34:37</time>
      </trkpt>
      <trkpt lat="42.89858" lon="-0.02825">
        <ele>665</ele>
        <time>2022-06-08 14:34:38</time>
      </trkpt>
      <trkpt lat="42.8985" lon="-0.02821">
        <ele>664.8</ele>
        <time>2022-06-08 14:34:39</time>
      </trkpt>
      <trkpt lat="42.89843" lon="-0.02817">
        <ele>664.8</ele>
        <time>2022-06-08 14:34:40</time>
      </trkpt>
      <trkpt lat="42.89835" lon="-0.02812">
        <ele>664.6</ele>
        <time>2022-06-08 14:34:41</time>
      </trkpt>
      <trkpt lat="42.89828" lon="-0.02808">
        <ele>664.4</ele>
        <time>2022-06-08 14:34:42</time>
      </trkpt>
      <trkpt lat="42.89821" lon="-0.02804">
        <ele>664.4</ele>
        <time>2022-06-08 14:34:43</time>
      </trkpt>
      <trkpt lat="42.89814" lon="-0.028">
        <ele>664.4</ele>
        <time>2022-06-08 14:34:44</time>
      </trkpt>
      <trkpt lat="42.89806" lon="-0.02796">
        <ele>664.4</ele>
        <time>2022-06-08 14:34:45</time>
      </trkpt>
      <trkpt lat="42.89798" lon="-0.02792">
        <ele>664</ele>
        <time>2022-06-08 14:34:46</time>
      </trkpt>
      <trkpt lat="42.89791" lon="-0.02788">
        <ele>664.2</ele>
        <time>2022-06-08 14:34:47</time>
      </trkpt>
      <trkpt lat="42.89783" lon="-0.02783">
        <ele>664.2</ele>
        <time>2022-06-08 14:34:48</time>
      </trkpt>
      <trkpt lat="42.89776" lon="-0.02779">
        <ele>664.2</ele>
        <time>2022-06-08 14:34:49</time>
      </trkpt>
      <trkpt lat="42.89769" lon="-0.02775">
        <ele>664</ele>
        <time>2022-06-08 14:34:50</time>
      </trkpt>
      <trkpt lat="42.89763" lon="-0.02771">
        <ele>664</ele>
        <time>2022-06-08 14:34:51</time>
      </trkpt>
      <trkpt lat="42.89756" lon="-0.02767">
        <ele>664</ele>
        <time>2022-06-08 14:34:52</time>
      </trkpt>
      <trkpt lat="42.8975" lon="-0.02762">
        <ele>664</ele>
        <time>2022-06-08 14:34:53</time>
      </trkpt>
      <trkpt lat="42.89745" lon="-0.02759">
        <ele>664</ele>
        <time>2022-06-08 14:34:54</time>
      </trkpt>
      <trkpt lat="42.8974" lon="-0.02756">
        <ele>664.2</ele>
        <time>2022-06-08 14:34:55</time>
      </trkpt>
      <trkpt lat="42.89734" lon="-0.02752">
        <ele>664.2</ele>
        <time>2022-06-08 14:34:56</time>
      </trkpt>
      <trkpt lat="42.89729" lon="-0.02749">
        <ele>664.4</ele>
        <time>2022-06-08 14:34:57</time>
      </trkpt>
      <trkpt lat="42.89723" lon="-0.02745">
        <ele>664.4</ele>
        <time>2022-06-08 14:34:58</time>
      </trkpt>
      <trkpt lat="42.89718" lon="-0.02742">
        <ele>664.6</ele>
        <time>2022-06-08 14:34:59</time>
      </trkpt>
      <trkpt lat="42.89712" lon="-0.02738">
        <ele>664.8</ele>
        <time>2022-06-08 14:35:00</time>
      </trkpt>
      <trkpt lat="42.89707" lon="-0.02735">
        <ele>665</ele>
        <time>2022-06-08 14:35:01</time>
      </trkpt>
      <trkpt lat="42.89701" lon="-0.02732">
        <ele>665.2</ele>
        <time>2022-06-08 14:35:02</time>
      </trkpt>
      <trkpt lat="42.89696" lon="-0.02728">
        <ele>665.2</ele>
        <time>2022-06-08 14:35:03</time>
      </trkpt>
      <trkpt lat="42.8969" lon="-0.02724">
        <ele>665.4</ele>
        <time>2022-06-08 14:35:04</time>
      </trkpt>
      <trkpt lat="42.89685" lon="-0.02721">
        <ele>665.4</ele>
        <time>2022-06-08 14:35:05</time>
      </trkpt>
      <trkpt lat="42.89679" lon="-0.02718">
        <ele>665.4</ele>
        <time>2022-06-08 14:35:06</time>
      </trkpt>
      <trkpt lat="42.89674" lon="-0.02714">
        <ele>665.6</ele>
        <time>2022-06-08 14:35:07</time>
      </trkpt>
      <trkpt lat="42.89669" lon="-0.02711">
        <ele>665.6</ele>
        <time>2022-06-08 14:35:08</time>
      </trkpt>
      <trkpt lat="42.89663" lon="-0.02707">
        <ele>665.8</ele>
        <time>2022-06-08 14:35:09</time>
      </trkpt>
      <trkpt lat="42.89658" lon="-0.02704">
        <ele>665.8</ele>
        <time>2022-06-08 14:35:10</time>
      </trkpt>
      <trkpt lat="42.89653" lon="-0.02701">
        <ele>666</ele>
        <time>2022-06-08 14:35:11</time>
      </trkpt>
      <trkpt lat="42.89648" lon="-0.02698">
        <ele>666</ele>
        <time>2022-06-08 14:35:12</time>
      </trkpt>
      <trkpt lat="42.89643" lon="-0.02695">
        <ele>666.2</ele>
        <time>2022-06-08 14:35:13</time>
      </trkpt>
      <trkpt lat="42.89638" lon="-0.02692">
        <ele>666.2</ele>
        <time>2022-06-08 14:35:14</time>
      </trkpt>
      <trkpt lat="42.89633" lon="-0.02689">
        <ele>666.4</ele>
        <time>2022-06-08 14:35:15</time>
      </trkpt>
      <trkpt lat="42.89628" lon="-0.02686">
        <ele>666.4</ele>
        <time>2022-06-08 14:35:16</time>
      </trkpt>
      <trkpt lat="42.89622" lon="-0.02683">
        <ele>666.6</ele>
        <time>2022-06-08 14:35:17</time>
      </trkpt>
      <trkpt lat="42.89617" lon="-0.02679">
        <ele>666.6</ele>
        <time>2022-06-08 14:35:18</time>
      </trkpt>
      <trkpt lat="42.89612" lon="-0.02676">
        <ele>666.8</ele>
        <time>2022-06-08 14:35:19</time>
      </trkpt>
      <trkpt lat="42.89607" lon="-0.02673">
        <ele>666.8</ele>
        <time>2022-06-08 14:35:20</time>
      </trkpt>
      <trkpt lat="42.89602" lon="-0.0267">
        <ele>667</ele>
        <time>2022-06-08 14:35:21</time>
      </trkpt>
      <trkpt lat="42.89597" lon="-0.02667">
        <ele>667</ele>
        <time>2022-06-08 14:35:22</time>
      </trkpt>
      <trkpt lat="42.89591" lon="-0.02663">
        <ele>667.2</ele>
        <time>2022-06-08 14:35:23</time>
      </trkpt>
      <trkpt lat="42.89586" lon="-0.0266">
        <ele>667.4</ele>
        <time>2022-06-08 14:35:24</time>
      </trkpt>
      <trkpt lat="42.89581" lon="-0.02656">
        <ele>667.4</ele>
        <time>2022-06-08 14:35:25</time>
      </trkpt>
      <trkpt lat="42.89575" lon="-0.02653">
        <ele>667.4</ele>
        <time>2022-06-08 14:35:26</time>
      </trkpt>
      <trkpt lat="42.89569" lon="-0.0265">
        <ele>667.6</ele>
        <time>2022-06-08 14:35:27</time>
      </trkpt>
      <trkpt lat="42.89563" lon="-0.02646">
        <ele>667.6</ele>
        <time>2022-06-08 14:35:28</time>
      </trkpt>
      <trkpt lat="42.89557" lon="-0.02642">
        <ele>667.6</ele>
        <time>2022-06-08 14:35:29</time>
      </trkpt>
      <trkpt lat="42.89551" lon="-0.02639">
        <ele>667.8</ele>
        <time>2022-06-08 14:35:30</time>
      </trkpt>
      <trkpt lat="42.89545" lon="-0.02635">
        <ele>667.8</ele>
        <time>2022-06-08 14:35:31</time>
      </trkpt>
      <trkpt lat="42.89539" lon="-0.02632">
        <ele>667.8</ele>
        <time>2022-06-08 14:35:32</time>
      </trkpt>
      <trkpt lat="42.89532" lon="-0.02627">
        <ele>667.8</ele>
        <time>2022-06-08 14:35:33</time>
      </trkpt>
      <trkpt lat="42.89527" lon="-0.02624">
        <ele>668</ele>
        <time>2022-06-08 14:35:34</time>
      </trkpt>
      <trkpt lat="42.89521" lon="-0.0262">
        <ele>668</ele>
        <time>2022-06-08 14:35:35</time>
      </trkpt>
      <trkpt lat="42.89516" lon="-0.02617">
        <ele>668.2</ele>
        <time>2022-06-08 14:35:36</time>
      </trkpt>
      <trkpt lat="42.8951" lon="-0.02613">
        <ele>668.2</ele>
        <time>2022-06-08 14:35:37</time>
      </trkpt>
      <trkpt lat="42.89504" lon="-0.02609">
        <ele>668.4</ele>
        <time>2022-06-08 14:35:38</time>
      </trkpt>
      <trkpt lat="42.89498" lon="-0.02605">
        <ele>668.6</ele>
        <time>2022-06-08 14:35:39</time>
      </trkpt>
      <trkpt lat="42.89492" lon="-0.02602">
        <ele>668.6</ele>
        <time>2022-06-08 14:35:40</time>
      </trkpt>
      <trkpt lat="42.89486" lon="-0.02598">
        <ele>668.8</ele>
        <time>2022-06-08 14:35:41</time>
      </trkpt>
      <trkpt lat="42.89481" lon="-0.02595">
        <ele>669</ele>
        <time>2022-06-08 14:35:42</time>
      </trkpt>
      <trkpt lat="42.89475" lon="-0.02591">
        <ele>669.6</ele>
        <time>2022-06-08 14:35:43</time>
      </trkpt>
      <trkpt lat="42.89469" lon="-0.02588">
        <ele>669.8</ele>
        <time>2022-06-08 14:35:44</time>
      </trkpt>
      <trkpt lat="42.89463" lon="-0.02584">
        <ele>670</ele>
        <time>2022-06-08 14:35:45</time>
      </trkpt>
      <trkpt lat="42.89457" lon="-0.02581">
        <ele>670</ele>
        <time>2022-06-08 14:35:46</time>
      </trkpt>
      <trkpt lat="42.89451" lon="-0.02577">
        <ele>670.2</ele>
        <time>2022-06-08 14:35:47</time>
      </trkpt>
      <trkpt lat="42.89445" lon="-0.02574">
        <ele>670.4</ele>
        <time>2022-06-08 14:35:48</time>
      </trkpt>
      <trkpt lat="42.89439" lon="-0.0257">
        <ele>670.2</ele>
        <time>2022-06-08 14:35:49</time>
      </trkpt>
      <trkpt lat="42.89431" lon="-0.02565">
        <ele>670.2</ele>
        <time>2022-06-08 14:35:50</time>
      </trkpt>
      <trkpt lat="42.89426" lon="-0.02562">
        <ele>670</ele>
        <time>2022-06-08 14:35:51</time>
      </trkpt>
      <trkpt lat="42.8942" lon="-0.02558">
        <ele>670.2</ele>
        <time>2022-06-08 14:35:52</time>
      </trkpt>
      <trkpt lat="42.89414" lon="-0.02554">
        <ele>670.2</ele>
        <time>2022-06-08 14:35:53</time>
      </trkpt>
      <trkpt lat="42.89408" lon="-0.0255">
        <ele>670.2</ele>
        <time>2022-06-08 14:35:54</time>
      </trkpt>
      <trkpt lat="42.89402" lon="-0.02546">
        <ele>670.2</ele>
        <time>2022-06-08 14:35:55</time>
      </trkpt>
      <trkpt lat="42.89396" lon="-0.02543">
        <ele>670.4</ele>
        <time>2022-06-08 14:35:56</time>
      </trkpt>
      <trkpt lat="42.8939" lon="-0.02539">
        <ele>670.4</ele>
        <time>2022-06-08 14:35:57</time>
      </trkpt>
      <trkpt lat="42.89384" lon="-0.02535">
        <ele>670.4</ele>
        <time>2022-06-08 14:35:58</time>
      </trkpt>
      <trkpt lat="42.89378" lon="-0.02531">
        <ele>670.6</ele>
        <time>2022-06-08 14:35:59</time>
      </trkpt>
      <trkpt lat="42.89372" lon="-0.02528">
        <ele>670.6</ele>
        <time>2022-06-08 14:36:00</time>
      </trkpt>
      <trkpt lat="42.89366" lon="-0.02524">
        <ele>670.8</ele>
        <time>2022-06-08 14:36:01</time>
      </trkpt>
      <trkpt lat="42.89361" lon="-0.02521">
        <ele>671.2</ele>
        <time>2022-06-08 14:36:02</time>
      </trkpt>
      <trkpt lat="42.89355" lon="-0.02517">
        <ele>671.2</ele>
        <time>2022-06-08 14:36:03</time>
      </trkpt>
      <trkpt lat="42.89349" lon="-0.02513">
        <ele>671.4</ele>
        <time>2022-06-08 14:36:04</time>
      </trkpt>
      <trkpt lat="42.89342" lon="-0.02509">
        <ele>671.6</ele>
        <time>2022-06-08 14:36:05</time>
      </trkpt>
      <trkpt lat="42.89337" lon="-0.02506">
        <ele>671.6</ele>
        <time>2022-06-08 14:36:06</time>
      </trkpt>
      <trkpt lat="42.89331" lon="-0.02503">
        <ele>671.8</ele>
        <time>2022-06-08 14:36:07</time>
      </trkpt>
      <trkpt lat="42.89325" lon="-0.02499">
        <ele>672</ele>
        <time>2022-06-08 14:36:08</time>
      </trkpt>
      <trkpt lat="42.8932" lon="-0.02496">
        <ele>672.2</ele>
        <time>2022-06-08 14:36:09</time>
      </trkpt>
      <trkpt lat="42.89314" lon="-0.02492">
        <ele>672.2</ele>
        <time>2022-06-08 14:36:10</time>
      </trkpt>
      <trkpt lat="42.89308" lon="-0.02489">
        <ele>672.4</ele>
        <time>2022-06-08 14:36:11</time>
      </trkpt>
      <trkpt lat="42.89302" lon="-0.02485">
        <ele>672.4</ele>
        <time>2022-06-08 14:36:12</time>
      </trkpt>
      <trkpt lat="42.89297" lon="-0.02482">
        <ele>672.6</ele>
        <time>2022-06-08 14:36:13</time>
      </trkpt>
      <trkpt lat="42.89289" lon="-0.02477">
        <ele>672.6</ele>
        <time>2022-06-08 14:36:14</time>
      </trkpt>
      <trkpt lat="42.89284" lon="-0.02474">
        <ele>672.6</ele>
        <time>2022-06-08 14:36:15</time>
      </trkpt>
      <trkpt lat="42.89279" lon="-0.02471">
        <ele>672.6</ele>
        <time>2022-06-08 14:36:16</time>
      </trkpt>
      <trkpt lat="42.89273" lon="-0.02468">
        <ele>672.8</ele>
        <time>2022-06-08 14:36:17</time>
      </trkpt>
      <trkpt lat="42.89267" lon="-0.02464">
        <ele>673.2</ele>
        <time>2022-06-08 14:36:18</time>
      </trkpt>
      <trkpt lat="42.89261" lon="-0.0246">
        <ele>673.2</ele>
        <time>2022-06-08 14:36:19</time>
      </trkpt>
      <trkpt lat="42.89256" lon="-0.02457">
        <ele>673.4</ele>
        <time>2022-06-08 14:36:20</time>
      </trkpt>
      <trkpt lat="42.8925" lon="-0.02453">
        <ele>673.4</ele>
        <time>2022-06-08 14:36:21</time>
      </trkpt>
      <trkpt lat="42.89243" lon="-0.02449">
        <ele>673.6</ele>
        <time>2022-06-08 14:36:22</time>
      </trkpt>
      <trkpt lat="42.89238" lon="-0.02446">
        <ele>673.6</ele>
        <time>2022-06-08 14:36:23</time>
      </trkpt>
      <trkpt lat="42.89231" lon="-0.02441">
        <ele>673.6</ele>
        <time>2022-06-08 14:36:24</time>
      </trkpt>
      <trkpt lat="42.89226" lon="-0.02438">
        <ele>673.8</ele>
        <time>2022-06-08 14:36:25</time>
      </trkpt>
      <trkpt lat="42.8922" lon="-0.02435">
        <ele>673.8</ele>
        <time>2022-06-08 14:36:26</time>
      </trkpt>
      <trkpt lat="42.89214" lon="-0.02431">
        <ele>673.8</ele>
        <time>2022-06-08 14:36:27</time>
      </trkpt>
      <trkpt lat="42.89208" lon="-0.02427">
        <ele>674</ele>
        <time>2022-06-08 14:36:28</time>
      </trkpt>
      <trkpt lat="42.89202" lon="-0.02423">
        <ele>674</ele>
        <time>2022-06-08 14:36:29</time>
      </trkpt>
      <trkpt lat="42.89196" lon="-0.02419">
        <ele>674.2</ele>
        <time>2022-06-08 14:36:30</time>
      </trkpt>
      <trkpt lat="42.8919" lon="-0.02416">
        <ele>674.2</ele>
        <time>2022-06-08 14:36:31</time>
      </trkpt>
      <trkpt lat="42.89184" lon="-0.02412">
        <ele>674.4</ele>
        <time>2022-06-08 14:36:32</time>
      </trkpt>
      <trkpt lat="42.89178" lon="-0.02408">
        <ele>674.4</ele>
        <time>2022-06-08 14:36:33</time>
      </trkpt>
      <trkpt lat="42.89173" lon="-0.02404">
        <ele>674.6</ele>
        <time>2022-06-08 14:36:34</time>
      </trkpt>
      <trkpt lat="42.89167" lon="-0.024">
        <ele>674.6</ele>
        <time>2022-06-08 14:36:35</time>
      </trkpt>
      <trkpt lat="42.89161" lon="-0.02397">
        <ele>674.6</ele>
        <time>2022-06-08 14:36:36</time>
      </trkpt>
      <trkpt lat="42.89155" lon="-0.02393">
        <ele>674.8</ele>
        <time>2022-06-08 14:36:37</time>
      </trkpt>
      <trkpt lat="42.89149" lon="-0.02389">
        <ele>674.8</ele>
        <time>2022-06-08 14:36:38</time>
      </trkpt>
      <trkpt lat="42.89142" lon="-0.02385">
        <ele>674.8</ele>
        <time>2022-06-08 14:36:39</time>
      </trkpt>
      <trkpt lat="42.89138" lon="-0.02382">
        <ele>675</ele>
        <time>2022-06-08 14:36:40</time>
      </trkpt>
      <trkpt lat="42.89132" lon="-0.02378">
        <ele>675</ele>
        <time>2022-06-08 14:36:41</time>
      </trkpt>
      <trkpt lat="42.89126" lon="-0.02373">
        <ele>675.2</ele>
        <time>2022-06-08 14:36:42</time>
      </trkpt>
      <trkpt lat="42.89121" lon="-0.02368">
        <ele>675.4</ele>
        <time>2022-06-08 14:36:43</time>
      </trkpt>
      <trkpt lat="42.89116" lon="-0.02363">
        <ele>675.6</ele>
        <time>2022-06-08 14:36:44</time>
      </trkpt>
      <trkpt lat="42.89111" lon="-0.02357">
        <ele>675.6</ele>
        <time>2022-06-08 14:36:45</time>
      </trkpt>
      <trkpt lat="42.89106" lon="-0.02352">
        <ele>675.6</ele>
        <time>2022-06-08 14:36:46</time>
      </trkpt>
      <trkpt lat="42.89101" lon="-0.02345">
        <ele>675.6</ele>
        <time>2022-06-08 14:36:47</time>
      </trkpt>
      <trkpt lat="42.89096" lon="-0.02339">
        <ele>675.8</ele>
        <time>2022-06-08 14:36:48</time>
      </trkpt>
      <trkpt lat="42.89092" lon="-0.02332">
        <ele>675.8</ele>
        <time>2022-06-08 14:36:49</time>
      </trkpt>
      <trkpt lat="42.89088" lon="-0.02325">
        <ele>676</ele>
        <time>2022-06-08 14:36:50</time>
      </trkpt>
      <trkpt lat="42.89084" lon="-0.02318">
        <ele>676</ele>
        <time>2022-06-08 14:36:51</time>
      </trkpt>
      <trkpt lat="42.8908" lon="-0.02311">
        <ele>676.2</ele>
        <time>2022-06-08 14:36:52</time>
      </trkpt>
      <trkpt lat="42.89076" lon="-0.02304">
        <ele>676.4</ele>
        <time>2022-06-08 14:36:53</time>
      </trkpt>
      <trkpt lat="42.89072" lon="-0.02297">
        <ele>676.4</ele>
        <time>2022-06-08 14:36:54</time>
      </trkpt>
      <trkpt lat="42.89068" lon="-0.0229">
        <ele>676.6</ele>
        <time>2022-06-08 14:36:55</time>
      </trkpt>
      <trkpt lat="42.89064" lon="-0.02282">
        <ele>676.6</ele>
        <time>2022-06-08 14:36:56</time>
      </trkpt>
      <trkpt lat="42.8906" lon="-0.02273">
        <ele>676.6</ele>
        <time>2022-06-08 14:36:57</time>
      </trkpt>
      <trkpt lat="42.89057" lon="-0.02266">
        <ele>676.8</ele>
        <time>2022-06-08 14:36:58</time>
      </trkpt>
      <trkpt lat="42.89053" lon="-0.02258">
        <ele>676.8</ele>
        <time>2022-06-08 14:36:59</time>
      </trkpt>
      <trkpt lat="42.8905" lon="-0.0225">
        <ele>677</ele>
        <time>2022-06-08 14:37:00</time>
      </trkpt>
      <trkpt lat="42.89047" lon="-0.02244">
        <ele>677</ele>
        <time>2022-06-08 14:37:01</time>
      </trkpt>
      <trkpt lat="42.89043" lon="-0.02236">
        <ele>677</ele>
        <time>2022-06-08 14:37:02</time>
      </trkpt>
      <trkpt lat="42.89039" lon="-0.02228">
        <ele>677.2</ele>
        <time>2022-06-08 14:37:03</time>
      </trkpt>
      <trkpt lat="42.89037" lon="-0.02222">
        <ele>677.2</ele>
        <time>2022-06-08 14:37:04</time>
      </trkpt>
      <trkpt lat="42.89034" lon="-0.02214">
        <ele>677.2</ele>
        <time>2022-06-08 14:37:05</time>
      </trkpt>
      <trkpt lat="42.89031" lon="-0.02207">
        <ele>677.4</ele>
        <time>2022-06-08 14:37:06</time>
      </trkpt>
      <trkpt lat="42.89027" lon="-0.02198">
        <ele>677.4</ele>
        <time>2022-06-08 14:37:07</time>
      </trkpt>
      <trkpt lat="42.89023" lon="-0.02191">
        <ele>677.6</ele>
        <time>2022-06-08 14:37:08</time>
      </trkpt>
      <trkpt lat="42.8902" lon="-0.02183">
        <ele>677.8</ele>
        <time>2022-06-08 14:37:09</time>
      </trkpt>
      <trkpt lat="42.89017" lon="-0.02175">
        <ele>678</ele>
        <time>2022-06-08 14:37:10</time>
      </trkpt>
      <trkpt lat="42.89014" lon="-0.02169">
        <ele>678</ele>
        <time>2022-06-08 14:37:11</time>
      </trkpt>
      <trkpt lat="42.8901" lon="-0.02161">
        <ele>678.2</ele>
        <time>2022-06-08 14:37:12</time>
      </trkpt>
      <trkpt lat="42.89006" lon="-0.02154">
        <ele>678.2</ele>
        <time>2022-06-08 14:37:13</time>
      </trkpt>
      <trkpt lat="42.89001" lon="-0.02146">
        <ele>678.4</ele>
        <time>2022-06-08 14:37:14</time>
      </trkpt>
      <trkpt lat="42.88996" lon="-0.02139">
        <ele>678.6</ele>
        <time>2022-06-08 14:37:15</time>
      </trkpt>
      <trkpt lat="42.88991" lon="-0.02132">
        <ele>678.8</ele>
        <time>2022-06-08 14:37:16</time>
      </trkpt>
      <trkpt lat="42.88986" lon="-0.02126">
        <ele>678.8</ele>
        <time>2022-06-08 14:37:17</time>
      </trkpt>
      <trkpt lat="42.88981" lon="-0.02119">
        <ele>678.8</ele>
        <time>2022-06-08 14:37:18</time>
      </trkpt>
      <trkpt lat="42.88976" lon="-0.02113">
        <ele>679</ele>
        <time>2022-06-08 14:37:19</time>
      </trkpt>
      <trkpt lat="42.88972" lon="-0.02107">
        <ele>679</ele>
        <time>2022-06-08 14:37:20</time>
      </trkpt>
      <trkpt lat="42.88968" lon="-0.02101">
        <ele>679.2</ele>
        <time>2022-06-08 14:37:21</time>
      </trkpt>
      <trkpt lat="42.88961" lon="-0.02094">
        <ele>679.2</ele>
        <time>2022-06-08 14:37:22</time>
      </trkpt>
      <trkpt lat="42.88956" lon="-0.02089">
        <ele>679.2</ele>
        <time>2022-06-08 14:37:23</time>
      </trkpt>
      <trkpt lat="42.8895" lon="-0.02084">
        <ele>679.2</ele>
        <time>2022-06-08 14:37:24</time>
      </trkpt>
      <trkpt lat="42.88943" lon="-0.02079">
        <ele>679.4</ele>
        <time>2022-06-08 14:37:25</time>
      </trkpt>
      <trkpt lat="42.88937" lon="-0.02073">
        <ele>679.4</ele>
        <time>2022-06-08 14:37:26</time>
      </trkpt>
      <trkpt lat="42.88931" lon="-0.02068">
        <ele>679.4</ele>
        <time>2022-06-08 14:37:27</time>
      </trkpt>
      <trkpt lat="42.88925" lon="-0.02062">
        <ele>679.4</ele>
        <time>2022-06-08 14:37:28</time>
      </trkpt>
      <trkpt lat="42.88919" lon="-0.02055">
        <ele>679.4</ele>
        <time>2022-06-08 14:37:29</time>
      </trkpt>
      <trkpt lat="42.88913" lon="-0.02049">
        <ele>679.4</ele>
        <time>2022-06-08 14:37:30</time>
      </trkpt>
      <trkpt lat="42.88909" lon="-0.02043">
        <ele>679.6</ele>
        <time>2022-06-08 14:37:31</time>
      </trkpt>
      <trkpt lat="42.88903" lon="-0.02035">
        <ele>679.6</ele>
        <time>2022-06-08 14:37:32</time>
      </trkpt>
      <trkpt lat="42.88899" lon="-0.0203">
        <ele>679.8</ele>
        <time>2022-06-08 14:37:33</time>
      </trkpt>
      <trkpt lat="42.88894" lon="-0.02021">
        <ele>679.8</ele>
        <time>2022-06-08 14:37:34</time>
      </trkpt>
      <trkpt lat="42.88889" lon="-0.02014">
        <ele>679.6</ele>
        <time>2022-06-08 14:37:35</time>
      </trkpt>
      <trkpt lat="42.88886" lon="-0.02008">
        <ele>679.8</ele>
        <time>2022-06-08 14:37:36</time>
      </trkpt>
      <trkpt lat="42.88881" lon="-0.02001">
        <ele>679.8</ele>
        <time>2022-06-08 14:37:37</time>
      </trkpt>
      <trkpt lat="42.88877" lon="-0.01994">
        <ele>680</ele>
        <time>2022-06-08 14:37:38</time>
      </trkpt>
      <trkpt lat="42.88873" lon="-0.01986">
        <ele>680</ele>
        <time>2022-06-08 14:37:39</time>
      </trkpt>
      <trkpt lat="42.8887" lon="-0.01978">
        <ele>680.2</ele>
        <time>2022-06-08 14:37:40</time>
      </trkpt>
      <trkpt lat="42.88866" lon="-0.0197">
        <ele>680.2</ele>
        <time>2022-06-08 14:37:41</time>
      </trkpt>
      <trkpt lat="42.88862" lon="-0.0196">
        <ele>680.6</ele>
        <time>2022-06-08 14:37:42</time>
      </trkpt>
      <trkpt lat="42.88859" lon="-0.01954">
        <ele>680.6</ele>
        <time>2022-06-08 14:37:43</time>
      </trkpt>
      <trkpt lat="42.88854" lon="-0.01944">
        <ele>681</ele>
        <time>2022-06-08 14:37:44</time>
      </trkpt>
      <trkpt lat="42.88851" lon="-0.01937">
        <ele>681</ele>
        <time>2022-06-08 14:37:45</time>
      </trkpt>
      <trkpt lat="42.88847" lon="-0.0193">
        <ele>681.2</ele>
        <time>2022-06-08 14:37:46</time>
      </trkpt>
      <trkpt lat="42.88842" lon="-0.01922">
        <ele>681.4</ele>
        <time>2022-06-08 14:37:47</time>
      </trkpt>
      <trkpt lat="42.88837" lon="-0.01914">
        <ele>681.4</ele>
        <time>2022-06-08 14:37:48</time>
      </trkpt>
      <trkpt lat="42.88831" lon="-0.01906">
        <ele>681.4</ele>
        <time>2022-06-08 14:37:49</time>
      </trkpt>
      <trkpt lat="42.88825" lon="-0.01899">
        <ele>681.4</ele>
        <time>2022-06-08 14:37:50</time>
      </trkpt>
      <trkpt lat="42.88819" lon="-0.01893">
        <ele>681.6</ele>
        <time>2022-06-08 14:37:51</time>
      </trkpt>
      <trkpt lat="42.88813" lon="-0.01887">
        <ele>681.6</ele>
        <time>2022-06-08 14:37:52</time>
      </trkpt>
      <trkpt lat="42.88807" lon="-0.01881">
        <ele>681.6</ele>
        <time>2022-06-08 14:37:53</time>
      </trkpt>
      <trkpt lat="42.88801" lon="-0.01876">
        <ele>681.8</ele>
        <time>2022-06-08 14:37:54</time>
      </trkpt>
      <trkpt lat="42.88794" lon="-0.01871">
        <ele>681.8</ele>
        <time>2022-06-08 14:37:55</time>
      </trkpt>
      <trkpt lat="42.88787" lon="-0.01865">
        <ele>681.8</ele>
        <time>2022-06-08 14:37:56</time>
      </trkpt>
      <trkpt lat="42.88782" lon="-0.0186">
        <ele>682</ele>
        <time>2022-06-08 14:37:57</time>
      </trkpt>
      <trkpt lat="42.88776" lon="-0.01855">
        <ele>682</ele>
        <time>2022-06-08 14:37:58</time>
      </trkpt>
      <trkpt lat="42.8877" lon="-0.0185">
        <ele>682.2</ele>
        <time>2022-06-08 14:37:59</time>
      </trkpt>
      <trkpt lat="42.88764" lon="-0.01846">
        <ele>682.4</ele>
        <time>2022-06-08 14:38:00</time>
      </trkpt>
      <trkpt lat="42.88759" lon="-0.01841">
        <ele>682.6</ele>
        <time>2022-06-08 14:38:01</time>
      </trkpt>
      <trkpt lat="42.88753" lon="-0.01836">
        <ele>683</ele>
        <time>2022-06-08 14:38:02</time>
      </trkpt>
      <trkpt lat="42.88747" lon="-0.01831">
        <ele>683</ele>
        <time>2022-06-08 14:38:03</time>
      </trkpt>
      <trkpt lat="42.88742" lon="-0.01826">
        <ele>683.2</ele>
        <time>2022-06-08 14:38:04</time>
      </trkpt>
      <trkpt lat="42.88736" lon="-0.01821">
        <ele>683.6</ele>
        <time>2022-06-08 14:38:05</time>
      </trkpt>
      <trkpt lat="42.88731" lon="-0.01817">
        <ele>683.8</ele>
        <time>2022-06-08 14:38:06</time>
      </trkpt>
      <trkpt lat="42.88725" lon="-0.01812">
        <ele>684</ele>
        <time>2022-06-08 14:38:07</time>
      </trkpt>
      <trkpt lat="42.8872" lon="-0.01807">
        <ele>684.2</ele>
        <time>2022-06-08 14:38:08</time>
      </trkpt>
      <trkpt lat="42.88714" lon="-0.01802">
        <ele>684.2</ele>
        <time>2022-06-08 14:38:09</time>
      </trkpt>
      <trkpt lat="42.88709" lon="-0.01797">
        <ele>684.2</ele>
        <time>2022-06-08 14:38:10</time>
      </trkpt>
      <trkpt lat="42.88703" lon="-0.01793">
        <ele>684.4</ele>
        <time>2022-06-08 14:38:11</time>
      </trkpt>
      <trkpt lat="42.88698" lon="-0.01788">
        <ele>684.4</ele>
        <time>2022-06-08 14:38:12</time>
      </trkpt>
      <trkpt lat="42.88692" lon="-0.01784">
        <ele>684.4</ele>
        <time>2022-06-08 14:38:13</time>
      </trkpt>
      <trkpt lat="42.88687" lon="-0.01779">
        <ele>684.4</ele>
        <time>2022-06-08 14:38:14</time>
      </trkpt>
      <trkpt lat="42.88681" lon="-0.01773">
        <ele>684.6</ele>
        <time>2022-06-08 14:38:15</time>
      </trkpt>
      <trkpt lat="42.88675" lon="-0.01768">
        <ele>684.6</ele>
        <time>2022-06-08 14:38:16</time>
      </trkpt>
      <trkpt lat="42.8867" lon="-0.01763">
        <ele>684.6</ele>
        <time>2022-06-08 14:38:17</time>
      </trkpt>
      <trkpt lat="42.88665" lon="-0.01759">
        <ele>684.6</ele>
        <time>2022-06-08 14:38:18</time>
      </trkpt>
      <trkpt lat="42.88659" lon="-0.01754">
        <ele>685</ele>
        <time>2022-06-08 14:38:19</time>
      </trkpt>
      <trkpt lat="42.88654" lon="-0.0175">
        <ele>685.4</ele>
        <time>2022-06-08 14:38:20</time>
      </trkpt>
      <trkpt lat="42.88648" lon="-0.01745">
        <ele>685.6</ele>
        <time>2022-06-08 14:38:21</time>
      </trkpt>
      <trkpt lat="42.88643" lon="-0.0174">
        <ele>686</ele>
        <time>2022-06-08 14:38:22</time>
      </trkpt>
      <trkpt lat="42.88637" lon="-0.01735">
        <ele>686.2</ele>
        <time>2022-06-08 14:38:23</time>
      </trkpt>
      <trkpt lat="42.88632" lon="-0.0173">
        <ele>686.4</ele>
        <time>2022-06-08 14:38:24</time>
      </trkpt>
      <trkpt lat="42.88627" lon="-0.01726">
        <ele>686.6</ele>
        <time>2022-06-08 14:38:25</time>
      </trkpt>
      <trkpt lat="42.88622" lon="-0.01721">
        <ele>686.6</ele>
        <time>2022-06-08 14:38:26</time>
      </trkpt>
      <trkpt lat="42.88616" lon="-0.01716">
        <ele>686.8</ele>
        <time>2022-06-08 14:38:27</time>
      </trkpt>
      <trkpt lat="42.88611" lon="-0.01712">
        <ele>687.2</ele>
        <time>2022-06-08 14:38:28</time>
      </trkpt>
      <trkpt lat="42.88606" lon="-0.01707">
        <ele>687.8</ele>
        <time>2022-06-08 14:38:29</time>
      </trkpt>
      <trkpt lat="42.88601" lon="-0.01703">
        <ele>688.6</ele>
        <time>2022-06-08 14:38:30</time>
      </trkpt>
      <trkpt lat="42.88596" lon="-0.01699">
        <ele>688.8</ele>
        <time>2022-06-08 14:38:31</time>
      </trkpt>
      <trkpt lat="42.88592" lon="-0.01694">
        <ele>689.2</ele>
        <time>2022-06-08 14:38:32</time>
      </trkpt>
      <trkpt lat="42.88587" lon="-0.0169">
        <ele>689.4</ele>
        <time>2022-06-08 14:38:33</time>
      </trkpt>
      <trkpt lat="42.88582" lon="-0.01686">
        <ele>689.8</ele>
        <time>2022-06-08 14:38:34</time>
      </trkpt>
      <trkpt lat="42.88578" lon="-0.01683">
        <ele>690</ele>
        <time>2022-06-08 14:38:35</time>
      </trkpt>
      <trkpt lat="42.88573" lon="-0.01678">
        <ele>690</ele>
        <time>2022-06-08 14:38:36</time>
      </trkpt>
      <trkpt lat="42.88568" lon="-0.01674">
        <ele>690.2</ele>
        <time>2022-06-08 14:38:37</time>
      </trkpt>
      <trkpt lat="42.88563" lon="-0.01668">
        <ele>690.4</ele>
        <time>2022-06-08 14:38:38</time>
      </trkpt>
      <trkpt lat="42.88558" lon="-0.01662">
        <ele>690.6</ele>
        <time>2022-06-08 14:38:39</time>
      </trkpt>
      <trkpt lat="42.88553" lon="-0.01656">
        <ele>690.6</ele>
        <time>2022-06-08 14:38:40</time>
      </trkpt>
      <trkpt lat="42.88549" lon="-0.01649">
        <ele>690.8</ele>
        <time>2022-06-08 14:38:41</time>
      </trkpt>
      <trkpt lat="42.88545" lon="-0.01641">
        <ele>690.8</ele>
        <time>2022-06-08 14:38:42</time>
      </trkpt>
      <trkpt lat="42.88542" lon="-0.01633">
        <ele>690.8</ele>
        <time>2022-06-08 14:38:43</time>
      </trkpt>
      <trkpt lat="42.8854" lon="-0.01624">
        <ele>690.8</ele>
        <time>2022-06-08 14:38:44</time>
      </trkpt>
      <trkpt lat="42.88538" lon="-0.01614">
        <ele>690.8</ele>
        <time>2022-06-08 14:38:45</time>
      </trkpt>
      <trkpt lat="42.88537" lon="-0.01605">
        <ele>691</ele>
        <time>2022-06-08 14:38:46</time>
      </trkpt>
      <trkpt lat="42.88536" lon="-0.01596">
        <ele>691</ele>
        <time>2022-06-08 14:38:47</time>
      </trkpt>
      <trkpt lat="42.88535" lon="-0.01587">
        <ele>691</ele>
        <time>2022-06-08 14:38:48</time>
      </trkpt>
      <trkpt lat="42.88534" lon="-0.01578">
        <ele>691</ele>
        <time>2022-06-08 14:38:49</time>
      </trkpt>
      <trkpt lat="42.88531" lon="-0.01569">
        <ele>691</ele>
        <time>2022-06-08 14:38:50</time>
      </trkpt>
      <trkpt lat="42.88527" lon="-0.01561">
        <ele>691</ele>
        <time>2022-06-08 14:38:51</time>
      </trkpt>
      <trkpt lat="42.88522" lon="-0.01553">
        <ele>690.8</ele>
        <time>2022-06-08 14:38:52</time>
      </trkpt>
      <trkpt lat="42.88516" lon="-0.01547">
        <ele>690.8</ele>
        <time>2022-06-08 14:38:53</time>
      </trkpt>
      <trkpt lat="42.88511" lon="-0.01542">
        <ele>690.8</ele>
        <time>2022-06-08 14:38:54</time>
      </trkpt>
      <trkpt lat="42.88504" lon="-0.01536">
        <ele>690.8</ele>
        <time>2022-06-08 14:38:55</time>
      </trkpt>
      <trkpt lat="42.88498" lon="-0.01532">
        <ele>690.6</ele>
        <time>2022-06-08 14:38:56</time>
      </trkpt>
      <trkpt lat="42.88491" lon="-0.01527">
        <ele>690.6</ele>
        <time>2022-06-08 14:38:57</time>
      </trkpt>
      <trkpt lat="42.88485" lon="-0.01522">
        <ele>690.4</ele>
        <time>2022-06-08 14:38:58</time>
      </trkpt>
      <trkpt lat="42.88478" lon="-0.01517">
        <ele>690.4</ele>
        <time>2022-06-08 14:38:59</time>
      </trkpt>
      <trkpt lat="42.88472" lon="-0.01512">
        <ele>690.2</ele>
        <time>2022-06-08 14:39:00</time>
      </trkpt>
      <trkpt lat="42.88466" lon="-0.01507">
        <ele>690.2</ele>
        <time>2022-06-08 14:39:01</time>
      </trkpt>
      <trkpt lat="42.88459" lon="-0.01502">
        <ele>690.2</ele>
        <time>2022-06-08 14:39:02</time>
      </trkpt>
      <trkpt lat="42.88453" lon="-0.01497">
        <ele>690</ele>
        <time>2022-06-08 14:39:03</time>
      </trkpt>
      <trkpt lat="42.88446" lon="-0.01492">
        <ele>690</ele>
        <time>2022-06-08 14:39:04</time>
      </trkpt>
      <trkpt lat="42.8844" lon="-0.01488">
        <ele>690</ele>
        <time>2022-06-08 14:39:05</time>
      </trkpt>
      <trkpt lat="42.88434" lon="-0.01483">
        <ele>690</ele>
        <time>2022-06-08 14:39:06</time>
      </trkpt>
      <trkpt lat="42.88428" lon="-0.01478">
        <ele>690.2</ele>
        <time>2022-06-08 14:39:07</time>
      </trkpt>
      <trkpt lat="42.88422" lon="-0.01474">
        <ele>690.2</ele>
        <time>2022-06-08 14:39:08</time>
      </trkpt>
      <trkpt lat="42.88416" lon="-0.01469">
        <ele>690.2</ele>
        <time>2022-06-08 14:39:09</time>
      </trkpt>
      <trkpt lat="42.8841" lon="-0.01465">
        <ele>690.4</ele>
        <time>2022-06-08 14:39:10</time>
      </trkpt>
      <trkpt lat="42.88404" lon="-0.0146">
        <ele>690.6</ele>
        <time>2022-06-08 14:39:11</time>
      </trkpt>
      <trkpt lat="42.88398" lon="-0.01455">
        <ele>690.8</ele>
        <time>2022-06-08 14:39:12</time>
      </trkpt>
      <trkpt lat="42.88392" lon="-0.01451">
        <ele>691</ele>
        <time>2022-06-08 14:39:13</time>
      </trkpt>
      <trkpt lat="42.88386" lon="-0.01447">
        <ele>691.2</ele>
        <time>2022-06-08 14:39:14</time>
      </trkpt>
      <trkpt lat="42.8838" lon="-0.01442">
        <ele>691.2</ele>
        <time>2022-06-08 14:39:15</time>
      </trkpt>
      <trkpt lat="42.88375" lon="-0.01438">
        <ele>691.4</ele>
        <time>2022-06-08 14:39:16</time>
      </trkpt>
      <trkpt lat="42.88369" lon="-0.01434">
        <ele>691.6</ele>
        <time>2022-06-08 14:39:17</time>
      </trkpt>
      <trkpt lat="42.88363" lon="-0.0143">
        <ele>691.8</ele>
        <time>2022-06-08 14:39:18</time>
      </trkpt>
      <trkpt lat="42.88358" lon="-0.01426">
        <ele>691.8</ele>
        <time>2022-06-08 14:39:19</time>
      </trkpt>
      <trkpt lat="42.88353" lon="-0.01422">
        <ele>692</ele>
        <time>2022-06-08 14:39:20</time>
      </trkpt>
      <trkpt lat="42.88349" lon="-0.01418">
        <ele>692</ele>
        <time>2022-06-08 14:39:21</time>
      </trkpt>
      <trkpt lat="42.88344" lon="-0.01414">
        <ele>692.2</ele>
        <time>2022-06-08 14:39:22</time>
      </trkpt>
      <trkpt lat="42.88339" lon="-0.0141">
        <ele>692.2</ele>
        <time>2022-06-08 14:39:23</time>
      </trkpt>
      <trkpt lat="42.88334" lon="-0.01406">
        <ele>692.8</ele>
        <time>2022-06-08 14:39:24</time>
      </trkpt>
      <trkpt lat="42.88329" lon="-0.01402">
        <ele>692.8</ele>
        <time>2022-06-08 14:39:25</time>
      </trkpt>
      <trkpt lat="42.88325" lon="-0.01398">
        <ele>693</ele>
        <time>2022-06-08 14:39:26</time>
      </trkpt>
      <trkpt lat="42.88321" lon="-0.01395">
        <ele>693.2</ele>
        <time>2022-06-08 14:39:27</time>
      </trkpt>
      <trkpt lat="42.88317" lon="-0.01391">
        <ele>693.6</ele>
        <time>2022-06-08 14:39:28</time>
      </trkpt>
      <trkpt lat="42.88312" lon="-0.01388">
        <ele>694</ele>
        <time>2022-06-08 14:39:29</time>
      </trkpt>
      <trkpt lat="42.88308" lon="-0.01384">
        <ele>694.4</ele>
        <time>2022-06-08 14:39:30</time>
      </trkpt>
      <trkpt lat="42.88303" lon="-0.0138">
        <ele>695.2</ele>
        <time>2022-06-08 14:39:31</time>
      </trkpt>
      <trkpt lat="42.88298" lon="-0.01376">
        <ele>695.4</ele>
        <time>2022-06-08 14:39:32</time>
      </trkpt>
      <trkpt lat="42.88292" lon="-0.01373">
        <ele>695.6</ele>
        <time>2022-06-08 14:39:33</time>
      </trkpt>
      <trkpt lat="42.88287" lon="-0.0137">
        <ele>695.8</ele>
        <time>2022-06-08 14:39:34</time>
      </trkpt>
      <trkpt lat="42.88283" lon="-0.01367">
        <ele>696</ele>
        <time>2022-06-08 14:39:35</time>
      </trkpt>
      <trkpt lat="42.88278" lon="-0.01363">
        <ele>696.2</ele>
        <time>2022-06-08 14:39:36</time>
      </trkpt>
      <trkpt lat="42.88274" lon="-0.01359">
        <ele>696.4</ele>
        <time>2022-06-08 14:39:37</time>
      </trkpt>
      <trkpt lat="42.88269" lon="-0.01356">
        <ele>696.6</ele>
        <time>2022-06-08 14:39:38</time>
      </trkpt>
      <trkpt lat="42.88264" lon="-0.01352">
        <ele>697</ele>
        <time>2022-06-08 14:39:39</time>
      </trkpt>
      <trkpt lat="42.88259" lon="-0.01349">
        <ele>697.2</ele>
        <time>2022-06-08 14:39:40</time>
      </trkpt>
      <trkpt lat="42.88255" lon="-0.01346">
        <ele>697.8</ele>
        <time>2022-06-08 14:39:41</time>
      </trkpt>
      <trkpt lat="42.8825" lon="-0.01342">
        <ele>698.2</ele>
        <time>2022-06-08 14:39:42</time>
      </trkpt>
      <trkpt lat="42.88245" lon="-0.01338">
        <ele>698.6</ele>
        <time>2022-06-08 14:39:43</time>
      </trkpt>
      <trkpt lat="42.8824" lon="-0.01335">
        <ele>699</ele>
        <time>2022-06-08 14:39:44</time>
      </trkpt>
      <trkpt lat="42.88235" lon="-0.01331">
        <ele>699</ele>
        <time>2022-06-08 14:39:45</time>
      </trkpt>
      <trkpt lat="42.8823" lon="-0.01327">
        <ele>699</ele>
        <time>2022-06-08 14:39:46</time>
      </trkpt>
      <trkpt lat="42.88225" lon="-0.01323">
        <ele>699.2</ele>
        <time>2022-06-08 14:39:47</time>
      </trkpt>
      <trkpt lat="42.88221" lon="-0.0132">
        <ele>699</ele>
        <time>2022-06-08 14:39:48</time>
      </trkpt>
      <trkpt lat="42.88216" lon="-0.01316">
        <ele>699.2</ele>
        <time>2022-06-08 14:39:49</time>
      </trkpt>
      <trkpt lat="42.88211" lon="-0.01313">
        <ele>699.6</ele>
        <time>2022-06-08 14:39:50</time>
      </trkpt>
      <trkpt lat="42.88206" lon="-0.01309">
        <ele>699.8</ele>
        <time>2022-06-08 14:39:51</time>
      </trkpt>
      <trkpt lat="42.88202" lon="-0.01305">
        <ele>699.8</ele>
        <time>2022-06-08 14:39:52</time>
      </trkpt>
      <trkpt lat="42.88197" lon="-0.01302">
        <ele>700</ele>
        <time>2022-06-08 14:39:53</time>
      </trkpt>
      <trkpt lat="42.88193" lon="-0.01299">
        <ele>700.2</ele>
        <time>2022-06-08 14:39:54</time>
      </trkpt>
      <trkpt lat="42.88188" lon="-0.01296">
        <ele>700.4</ele>
        <time>2022-06-08 14:39:55</time>
      </trkpt>
      <trkpt lat="42.88183" lon="-0.01292">
        <ele>700.6</ele>
        <time>2022-06-08 14:39:56</time>
      </trkpt>
      <trkpt lat="42.8818" lon="-0.01289">
        <ele>700.8</ele>
        <time>2022-06-08 14:39:57</time>
      </trkpt>
      <trkpt lat="42.88174" lon="-0.01285">
        <ele>701</ele>
        <time>2022-06-08 14:39:58</time>
      </trkpt>
      <trkpt lat="42.8817" lon="-0.01282">
        <ele>701.4</ele>
        <time>2022-06-08 14:39:59</time>
      </trkpt>
      <trkpt lat="42.88165" lon="-0.01278">
        <ele>701.6</ele>
        <time>2022-06-08 14:40:00</time>
      </trkpt>
      <trkpt lat="42.8816" lon="-0.01274">
        <ele>701.8</ele>
        <time>2022-06-08 14:40:01</time>
      </trkpt>
      <trkpt lat="42.88156" lon="-0.01271">
        <ele>701.8</ele>
        <time>2022-06-08 14:40:02</time>
      </trkpt>
      <trkpt lat="42.88152" lon="-0.01268">
        <ele>702</ele>
        <time>2022-06-08 14:40:03</time>
      </trkpt>
      <trkpt lat="42.88146" lon="-0.01264">
        <ele>702.2</ele>
        <time>2022-06-08 14:40:04</time>
      </trkpt>
      <trkpt lat="42.88141" lon="-0.01261">
        <ele>702.4</ele>
        <time>2022-06-08 14:40:05</time>
      </trkpt>
      <trkpt lat="42.88138" lon="-0.01258">
        <ele>702.4</ele>
        <time>2022-06-08 14:40:06</time>
      </trkpt>
      <trkpt lat="42.88133" lon="-0.01254">
        <ele>703.2</ele>
        <time>2022-06-08 14:40:07</time>
      </trkpt>
      <trkpt lat="42.88129" lon="-0.01251">
        <ele>703.4</ele>
        <time>2022-06-08 14:40:08</time>
      </trkpt>
      <trkpt lat="42.88124" lon="-0.01248">
        <ele>703.6</ele>
        <time>2022-06-08 14:40:09</time>
      </trkpt>
      <trkpt lat="42.8812" lon="-0.01244">
        <ele>704</ele>
        <time>2022-06-08 14:40:10</time>
      </trkpt>
      <trkpt lat="42.88115" lon="-0.0124">
        <ele>704</ele>
        <time>2022-06-08 14:40:11</time>
      </trkpt>
      <trkpt lat="42.88111" lon="-0.01238">
        <ele>704.2</ele>
        <time>2022-06-08 14:40:12</time>
      </trkpt>
      <trkpt lat="42.88106" lon="-0.01234">
        <ele>704.4</ele>
        <time>2022-06-08 14:40:13</time>
      </trkpt>
      <trkpt lat="42.88102" lon="-0.0123">
        <ele>704.6</ele>
        <time>2022-06-08 14:40:14</time>
      </trkpt>
      <trkpt lat="42.88098" lon="-0.01226">
        <ele>704.8</ele>
        <time>2022-06-08 14:40:15</time>
      </trkpt>
      <trkpt lat="42.88093" lon="-0.01223">
        <ele>705</ele>
        <time>2022-06-08 14:40:16</time>
      </trkpt>
      <trkpt lat="42.88089" lon="-0.0122">
        <ele>705.2</ele>
        <time>2022-06-08 14:40:17</time>
      </trkpt>
      <trkpt lat="42.88085" lon="-0.01216">
        <ele>705.4</ele>
        <time>2022-06-08 14:40:18</time>
      </trkpt>
      <trkpt lat="42.8808" lon="-0.01213">
        <ele>705.4</ele>
        <time>2022-06-08 14:40:19</time>
      </trkpt>
      <trkpt lat="42.88076" lon="-0.01209">
        <ele>705.8</ele>
        <time>2022-06-08 14:40:20</time>
      </trkpt>
      <trkpt lat="42.88072" lon="-0.01206">
        <ele>706</ele>
        <time>2022-06-08 14:40:21</time>
      </trkpt>
      <trkpt lat="42.88067" lon="-0.01203">
        <ele>706.2</ele>
        <time>2022-06-08 14:40:22</time>
      </trkpt>
      <trkpt lat="42.88063" lon="-0.01199">
        <ele>706.6</ele>
        <time>2022-06-08 14:40:23</time>
      </trkpt>
      <trkpt lat="42.88058" lon="-0.01196">
        <ele>706.8</ele>
        <time>2022-06-08 14:40:24</time>
      </trkpt>
      <trkpt lat="42.88054" lon="-0.01193">
        <ele>707.2</ele>
        <time>2022-06-08 14:40:25</time>
      </trkpt>
      <trkpt lat="42.8805" lon="-0.0119">
        <ele>707.4</ele>
        <time>2022-06-08 14:40:26</time>
      </trkpt>
      <trkpt lat="42.88047" lon="-0.01187">
        <ele>707.8</ele>
        <time>2022-06-08 14:40:27</time>
      </trkpt>
      <trkpt lat="42.88043" lon="-0.01184">
        <ele>707.8</ele>
        <time>2022-06-08 14:40:28</time>
      </trkpt>
      <trkpt lat="42.88039" lon="-0.01182">
        <ele>708.2</ele>
        <time>2022-06-08 14:40:29</time>
      </trkpt>
      <trkpt lat="42.88036" lon="-0.01179">
        <ele>708.2</ele>
        <time>2022-06-08 14:40:30</time>
      </trkpt>
      <trkpt lat="42.88032" lon="-0.01176">
        <ele>708.4</ele>
        <time>2022-06-08 14:40:31</time>
      </trkpt>
      <trkpt lat="42.88029" lon="-0.01173">
        <ele>708.6</ele>
        <time>2022-06-08 14:40:32</time>
      </trkpt>
      <trkpt lat="42.88026" lon="-0.0117">
        <ele>708.6</ele>
        <time>2022-06-08 14:40:33</time>
      </trkpt>
      <trkpt lat="42.88022" lon="-0.01167">
        <ele>708.8</ele>
        <time>2022-06-08 14:40:34</time>
      </trkpt>
      <trkpt lat="42.88019" lon="-0.01163">
        <ele>709</ele>
        <time>2022-06-08 14:40:35</time>
      </trkpt>
      <trkpt lat="42.88016" lon="-0.0116">
        <ele>709.4</ele>
        <time>2022-06-08 14:40:36</time>
      </trkpt>
      <trkpt lat="42.88013" lon="-0.01157">
        <ele>709.4</ele>
        <time>2022-06-08 14:40:37</time>
      </trkpt>
      <trkpt lat="42.8801" lon="-0.01153">
        <ele>710</ele>
        <time>2022-06-08 14:40:38</time>
      </trkpt>
      <trkpt lat="42.88007" lon="-0.0115">
        <ele>710.2</ele>
        <time>2022-06-08 14:40:39</time>
      </trkpt>
      <trkpt lat="42.88004" lon="-0.01146">
        <ele>710.4</ele>
        <time>2022-06-08 14:40:40</time>
      </trkpt>
      <trkpt lat="42.88001" lon="-0.01141">
        <ele>710.8</ele>
        <time>2022-06-08 14:40:41</time>
      </trkpt>
      <trkpt lat="42.87999" lon="-0.01136">
        <ele>711</ele>
        <time>2022-06-08 14:40:42</time>
      </trkpt>
      <trkpt lat="42.87996" lon="-0.01132">
        <ele>711</ele>
        <time>2022-06-08 14:40:43</time>
      </trkpt>
      <trkpt lat="42.87992" lon="-0.01128">
        <ele>711.2</ele>
        <time>2022-06-08 14:40:44</time>
      </trkpt>
      <trkpt lat="42.87989" lon="-0.01123">
        <ele>711.2</ele>
        <time>2022-06-08 14:40:45</time>
      </trkpt>
      <trkpt lat="42.87985" lon="-0.01118">
        <ele>711.4</ele>
        <time>2022-06-08 14:40:46</time>
      </trkpt>
      <trkpt lat="42.87982" lon="-0.01114">
        <ele>711.4</ele>
        <time>2022-06-08 14:40:47</time>
      </trkpt>
      <trkpt lat="42.87979" lon="-0.0111">
        <ele>711.6</ele>
        <time>2022-06-08 14:40:48</time>
      </trkpt>
      <trkpt lat="42.87976" lon="-0.01105">
        <ele>711.8</ele>
        <time>2022-06-08 14:40:49</time>
      </trkpt>
      <trkpt lat="42.87972" lon="-0.01101">
        <ele>711.8</ele>
        <time>2022-06-08 14:40:50</time>
      </trkpt>
      <trkpt lat="42.87969" lon="-0.01096">
        <ele>712</ele>
        <time>2022-06-08 14:40:51</time>
      </trkpt>
      <trkpt lat="42.87966" lon="-0.01092">
        <ele>712</ele>
        <time>2022-06-08 14:40:52</time>
      </trkpt>
      <trkpt lat="42.87963" lon="-0.01087">
        <ele>712.2</ele>
        <time>2022-06-08 14:40:53</time>
      </trkpt>
      <trkpt lat="42.8796" lon="-0.01083">
        <ele>712.2</ele>
        <time>2022-06-08 14:40:54</time>
      </trkpt>
      <trkpt lat="42.87958" lon="-0.01078">
        <ele>712.4</ele>
        <time>2022-06-08 14:40:55</time>
      </trkpt>
      <trkpt lat="42.87955" lon="-0.01074">
        <ele>712.6</ele>
        <time>2022-06-08 14:40:56</time>
      </trkpt>
      <trkpt lat="42.87952" lon="-0.0107">
        <ele>712.8</ele>
        <time>2022-06-08 14:40:57</time>
      </trkpt>
      <trkpt lat="42.8795" lon="-0.01066">
        <ele>712.8</ele>
        <time>2022-06-08 14:40:58</time>
      </trkpt>
      <trkpt lat="42.87947" lon="-0.01061">
        <ele>713</ele>
        <time>2022-06-08 14:40:59</time>
      </trkpt>
      <trkpt lat="42.87943" lon="-0.01057">
        <ele>713.2</ele>
        <time>2022-06-08 14:41:00</time>
      </trkpt>
      <trkpt lat="42.8794" lon="-0.01053">
        <ele>713.6</ele>
        <time>2022-06-08 14:41:01</time>
      </trkpt>
      <trkpt lat="42.87937" lon="-0.01048">
        <ele>713.8</ele>
        <time>2022-06-08 14:41:02</time>
      </trkpt>
      <trkpt lat="42.87934" lon="-0.01044">
        <ele>714</ele>
        <time>2022-06-08 14:41:03</time>
      </trkpt>
      <trkpt lat="42.87932" lon="-0.0104">
        <ele>714.2</ele>
        <time>2022-06-08 14:41:04</time>
      </trkpt>
      <trkpt lat="42.87929" lon="-0.01036">
        <ele>714.4</ele>
        <time>2022-06-08 14:41:05</time>
      </trkpt>
      <trkpt lat="42.87926" lon="-0.01031">
        <ele>714.8</ele>
        <time>2022-06-08 14:41:06</time>
      </trkpt>
      <trkpt lat="42.87923" lon="-0.01027">
        <ele>714.8</ele>
        <time>2022-06-08 14:41:07</time>
      </trkpt>
      <trkpt lat="42.8792" lon="-0.01023">
        <ele>715</ele>
        <time>2022-06-08 14:41:08</time>
      </trkpt>
      <trkpt lat="42.87917" lon="-0.01019">
        <ele>715</ele>
        <time>2022-06-08 14:41:09</time>
      </trkpt>
      <trkpt lat="42.87914" lon="-0.01015">
        <ele>715.2</ele>
        <time>2022-06-08 14:41:10</time>
      </trkpt>
      <trkpt lat="42.87911" lon="-0.0101">
        <ele>715.4</ele>
        <time>2022-06-08 14:41:11</time>
      </trkpt>
      <trkpt lat="42.87909" lon="-0.01006">
        <ele>715.4</ele>
        <time>2022-06-08 14:41:12</time>
      </trkpt>
      <trkpt lat="42.87906" lon="-0.01002">
        <ele>715.4</ele>
        <time>2022-06-08 14:41:13</time>
      </trkpt>
      <trkpt lat="42.87903" lon="-0.00998">
        <ele>715.4</ele>
        <time>2022-06-08 14:41:14</time>
      </trkpt>
      <trkpt lat="42.87901" lon="-0.00994">
        <ele>715.8</ele>
        <time>2022-06-08 14:41:15</time>
      </trkpt>
      <trkpt lat="42.87898" lon="-0.00989">
        <ele>716</ele>
        <time>2022-06-08 14:41:16</time>
      </trkpt>
      <trkpt lat="42.87896" lon="-0.00985">
        <ele>716.2</ele>
        <time>2022-06-08 14:41:17</time>
      </trkpt>
      <trkpt lat="42.87893" lon="-0.00981">
        <ele>716.2</ele>
        <time>2022-06-08 14:41:18</time>
      </trkpt>
      <trkpt lat="42.8789" lon="-0.00977">
        <ele>716.4</ele>
        <time>2022-06-08 14:41:19</time>
      </trkpt>
      <trkpt lat="42.87887" lon="-0.00973">
        <ele>716.6</ele>
        <time>2022-06-08 14:41:20</time>
      </trkpt>
      <trkpt lat="42.87884" lon="-0.00968">
        <ele>716.8</ele>
        <time>2022-06-08 14:41:21</time>
      </trkpt>
      <trkpt lat="42.87881" lon="-0.00964">
        <ele>717</ele>
        <time>2022-06-08 14:41:22</time>
      </trkpt>
      <trkpt lat="42.87878" lon="-0.0096">
        <ele>717</ele>
        <time>2022-06-08 14:41:23</time>
      </trkpt>
      <trkpt lat="42.87875" lon="-0.00956">
        <ele>717.2</ele>
        <time>2022-06-08 14:41:24</time>
      </trkpt>
      <trkpt lat="42.87872" lon="-0.00952">
        <ele>717.4</ele>
        <time>2022-06-08 14:41:25</time>
      </trkpt>
      <trkpt lat="42.8787" lon="-0.00948">
        <ele>717.6</ele>
        <time>2022-06-08 14:41:26</time>
      </trkpt>
      <trkpt lat="42.87866" lon="-0.00943">
        <ele>717.8</ele>
        <time>2022-06-08 14:41:27</time>
      </trkpt>
      <trkpt lat="42.87864" lon="-0.0094">
        <ele>717.8</ele>
        <time>2022-06-08 14:41:28</time>
      </trkpt>
      <trkpt lat="42.87861" lon="-0.00935">
        <ele>718</ele>
        <time>2022-06-08 14:41:29</time>
      </trkpt>
      <trkpt lat="42.87858" lon="-0.00931">
        <ele>718.2</ele>
        <time>2022-06-08 14:41:30</time>
      </trkpt>
      <trkpt lat="42.87855" lon="-0.00927">
        <ele>718.4</ele>
        <time>2022-06-08 14:41:31</time>
      </trkpt>
      <trkpt lat="42.87852" lon="-0.00923">
        <ele>718.8</ele>
        <time>2022-06-08 14:41:32</time>
      </trkpt>
      <trkpt lat="42.87849" lon="-0.00918">
        <ele>719</ele>
        <time>2022-06-08 14:41:33</time>
      </trkpt>
      <trkpt lat="42.87846" lon="-0.00914">
        <ele>719</ele>
        <time>2022-06-08 14:41:34</time>
      </trkpt>
      <trkpt lat="42.87843" lon="-0.0091">
        <ele>719.2</ele>
        <time>2022-06-08 14:41:35</time>
      </trkpt>
      <trkpt lat="42.8784" lon="-0.00906">
        <ele>719.2</ele>
        <time>2022-06-08 14:41:36</time>
      </trkpt>
      <trkpt lat="42.87837" lon="-0.00901">
        <ele>719.4</ele>
        <time>2022-06-08 14:41:37</time>
      </trkpt>
      <trkpt lat="42.87834" lon="-0.00898">
        <ele>719.4</ele>
        <time>2022-06-08 14:41:38</time>
      </trkpt>
      <trkpt lat="42.87832" lon="-0.00894">
        <ele>719.6</ele>
        <time>2022-06-08 14:41:39</time>
      </trkpt>
      <trkpt lat="42.87829" lon="-0.0089">
        <ele>719.6</ele>
        <time>2022-06-08 14:41:40</time>
      </trkpt>
      <trkpt lat="42.87826" lon="-0.00887">
        <ele>719.8</ele>
        <time>2022-06-08 14:41:41</time>
      </trkpt>
      <trkpt lat="42.87823" lon="-0.00883">
        <ele>719.8</ele>
        <time>2022-06-08 14:41:42</time>
      </trkpt>
      <trkpt lat="42.87821" lon="-0.00879">
        <ele>720.2</ele>
        <time>2022-06-08 14:41:43</time>
      </trkpt>
      <trkpt lat="42.87818" lon="-0.00875">
        <ele>720.2</ele>
        <time>2022-06-08 14:41:44</time>
      </trkpt>
      <trkpt lat="42.87815" lon="-0.00871">
        <ele>720.6</ele>
        <time>2022-06-08 14:41:45</time>
      </trkpt>
      <trkpt lat="42.87813" lon="-0.00867">
        <ele>720.8</ele>
        <time>2022-06-08 14:41:46</time>
      </trkpt>
      <trkpt lat="42.8781" lon="-0.00862">
        <ele>721</ele>
        <time>2022-06-08 14:41:47</time>
      </trkpt>
      <trkpt lat="42.87807" lon="-0.00858">
        <ele>721.2</ele>
        <time>2022-06-08 14:41:48</time>
      </trkpt>
      <trkpt lat="42.87804" lon="-0.00854">
        <ele>721.2</ele>
        <time>2022-06-08 14:41:49</time>
      </trkpt>
      <trkpt lat="42.87802" lon="-0.00849">
        <ele>721.6</ele>
        <time>2022-06-08 14:41:50</time>
      </trkpt>
      <trkpt lat="42.87799" lon="-0.00846">
        <ele>721.6</ele>
        <time>2022-06-08 14:41:51</time>
      </trkpt>
      <trkpt lat="42.87796" lon="-0.00842">
        <ele>722</ele>
        <time>2022-06-08 14:41:52</time>
      </trkpt>
      <trkpt lat="42.87792" lon="-0.00837">
        <ele>722</ele>
        <time>2022-06-08 14:41:53</time>
      </trkpt>
      <trkpt lat="42.8779" lon="-0.00834">
        <ele>722.4</ele>
        <time>2022-06-08 14:41:54</time>
      </trkpt>
      <trkpt lat="42.87787" lon="-0.0083">
        <ele>722.4</ele>
        <time>2022-06-08 14:41:55</time>
      </trkpt>
      <trkpt lat="42.87784" lon="-0.00826">
        <ele>722.8</ele>
        <time>2022-06-08 14:41:56</time>
      </trkpt>
      <trkpt lat="42.87781" lon="-0.00822">
        <ele>722.8</ele>
        <time>2022-06-08 14:41:57</time>
      </trkpt>
      <trkpt lat="42.87779" lon="-0.00818">
        <ele>723</ele>
        <time>2022-06-08 14:41:58</time>
      </trkpt>
      <trkpt lat="42.87776" lon="-0.00814">
        <ele>723.2</ele>
        <time>2022-06-08 14:41:59</time>
      </trkpt>
      <trkpt lat="42.87773" lon="-0.0081">
        <ele>723.2</ele>
        <time>2022-06-08 14:42:00</time>
      </trkpt>
      <trkpt lat="42.8777" lon="-0.00805">
        <ele>723.4</ele>
        <time>2022-06-08 14:42:01</time>
      </trkpt>
      <trkpt lat="42.87767" lon="-0.00801">
        <ele>723.4</ele>
        <time>2022-06-08 14:42:02</time>
      </trkpt>
      <trkpt lat="42.87764" lon="-0.00796">
        <ele>723.4</ele>
        <time>2022-06-08 14:42:03</time>
      </trkpt>
      <trkpt lat="42.87761" lon="-0.00792">
        <ele>723.6</ele>
        <time>2022-06-08 14:42:04</time>
      </trkpt>
      <trkpt lat="42.87758" lon="-0.00788">
        <ele>724</ele>
        <time>2022-06-08 14:42:05</time>
      </trkpt>
      <trkpt lat="42.87755" lon="-0.00784">
        <ele>724</ele>
        <time>2022-06-08 14:42:06</time>
      </trkpt>
      <trkpt lat="42.87752" lon="-0.00779">
        <ele>724.4</ele>
        <time>2022-06-08 14:42:07</time>
      </trkpt>
      <trkpt lat="42.8775" lon="-0.00775">
        <ele>724.6</ele>
        <time>2022-06-08 14:42:08</time>
      </trkpt>
      <trkpt lat="42.87746" lon="-0.00771">
        <ele>724.8</ele>
        <time>2022-06-08 14:42:09</time>
      </trkpt>
      <trkpt lat="42.87743" lon="-0.00766">
        <ele>724.8</ele>
        <time>2022-06-08 14:42:10</time>
      </trkpt>
      <trkpt lat="42.8774" lon="-0.00762">
        <ele>724.8</ele>
        <time>2022-06-08 14:42:11</time>
      </trkpt>
      <trkpt lat="42.87737" lon="-0.00758">
        <ele>724.8</ele>
        <time>2022-06-08 14:42:12</time>
      </trkpt>
      <trkpt lat="42.87734" lon="-0.00753">
        <ele>724.8</ele>
        <time>2022-06-08 14:42:13</time>
      </trkpt>
      <trkpt lat="42.87732" lon="-0.00749">
        <ele>725</ele>
        <time>2022-06-08 14:42:14</time>
      </trkpt>
      <trkpt lat="42.87729" lon="-0.00744">
        <ele>725.2</ele>
        <time>2022-06-08 14:42:15</time>
      </trkpt>
      <trkpt lat="42.87726" lon="-0.0074">
        <ele>725.4</ele>
        <time>2022-06-08 14:42:16</time>
      </trkpt>
      <trkpt lat="42.87722" lon="-0.00736">
        <ele>725.4</ele>
        <time>2022-06-08 14:42:17</time>
      </trkpt>
      <trkpt lat="42.8772" lon="-0.00732">
        <ele>725.6</ele>
        <time>2022-06-08 14:42:18</time>
      </trkpt>
      <trkpt lat="42.87717" lon="-0.00728">
        <ele>725.6</ele>
        <time>2022-06-08 14:42:19</time>
      </trkpt>
      <trkpt lat="42.87714" lon="-0.00723">
        <ele>725.8</ele>
        <time>2022-06-08 14:42:20</time>
      </trkpt>
      <trkpt lat="42.87711" lon="-0.00719">
        <ele>726</ele>
        <time>2022-06-08 14:42:21</time>
      </trkpt>
      <trkpt lat="42.87708" lon="-0.00715">
        <ele>726.4</ele>
        <time>2022-06-08 14:42:22</time>
      </trkpt>
      <trkpt lat="42.87705" lon="-0.00711">
        <ele>726.6</ele>
        <time>2022-06-08 14:42:23</time>
      </trkpt>
      <trkpt lat="42.87702" lon="-0.00707">
        <ele>726.8</ele>
        <time>2022-06-08 14:42:24</time>
      </trkpt>
      <trkpt lat="42.877" lon="-0.00703">
        <ele>726.8</ele>
        <time>2022-06-08 14:42:25</time>
      </trkpt>
      <trkpt lat="42.87698" lon="-0.00698">
        <ele>727</ele>
        <time>2022-06-08 14:42:26</time>
      </trkpt>
      <trkpt lat="42.87695" lon="-0.00694">
        <ele>727.2</ele>
        <time>2022-06-08 14:42:27</time>
      </trkpt>
      <trkpt lat="42.87693" lon="-0.0069">
        <ele>727.2</ele>
        <time>2022-06-08 14:42:28</time>
      </trkpt>
      <trkpt lat="42.8769" lon="-0.00686">
        <ele>727.4</ele>
        <time>2022-06-08 14:42:29</time>
      </trkpt>
      <trkpt lat="42.87687" lon="-0.00682">
        <ele>727.6</ele>
        <time>2022-06-08 14:42:30</time>
      </trkpt>
      <trkpt lat="42.87685" lon="-0.00678">
        <ele>727.6</ele>
        <time>2022-06-08 14:42:31</time>
      </trkpt>
      <trkpt lat="42.87682" lon="-0.00674">
        <ele>727.8</ele>
        <time>2022-06-08 14:42:32</time>
      </trkpt>
      <trkpt lat="42.8768" lon="-0.0067">
        <ele>728</ele>
        <time>2022-06-08 14:42:33</time>
      </trkpt>
      <trkpt lat="42.87677" lon="-0.00667">
        <ele>728</ele>
        <time>2022-06-08 14:42:34</time>
      </trkpt>
      <trkpt lat="42.87674" lon="-0.00663">
        <ele>728</ele>
        <time>2022-06-08 14:42:35</time>
      </trkpt>
      <trkpt lat="42.87671" lon="-0.00659">
        <ele>728</ele>
        <time>2022-06-08 14:42:36</time>
      </trkpt>
      <trkpt lat="42.87668" lon="-0.00654">
        <ele>728</ele>
        <time>2022-06-08 14:42:37</time>
      </trkpt>
      <trkpt lat="42.87665" lon="-0.0065">
        <ele>728</ele>
        <time>2022-06-08 14:42:38</time>
      </trkpt>
      <trkpt lat="42.87662" lon="-0.00647">
        <ele>728.4</ele>
        <time>2022-06-08 14:42:39</time>
      </trkpt>
      <trkpt lat="42.8766" lon="-0.00643">
        <ele>728.6</ele>
        <time>2022-06-08 14:42:40</time>
      </trkpt>
      <trkpt lat="42.87657" lon="-0.00639">
        <ele>728.8</ele>
        <time>2022-06-08 14:42:41</time>
      </trkpt>
      <trkpt lat="42.87654" lon="-0.00634">
        <ele>728.8</ele>
        <time>2022-06-08 14:42:42</time>
      </trkpt>
      <trkpt lat="42.87652" lon="-0.0063">
        <ele>729</ele>
        <time>2022-06-08 14:42:43</time>
      </trkpt>
      <trkpt lat="42.87649" lon="-0.00626">
        <ele>729.2</ele>
        <time>2022-06-08 14:42:44</time>
      </trkpt>
      <trkpt lat="42.87646" lon="-0.00622">
        <ele>729.2</ele>
        <time>2022-06-08 14:42:45</time>
      </trkpt>
      <trkpt lat="42.87643" lon="-0.00618">
        <ele>729.4</ele>
        <time>2022-06-08 14:42:46</time>
      </trkpt>
      <trkpt lat="42.8764" lon="-0.00615">
        <ele>729.6</ele>
        <time>2022-06-08 14:42:47</time>
      </trkpt>
      <trkpt lat="42.87637" lon="-0.00611">
        <ele>730</ele>
        <time>2022-06-08 14:42:48</time>
      </trkpt>
      <trkpt lat="42.87634" lon="-0.00607">
        <ele>730</ele>
        <time>2022-06-08 14:42:49</time>
      </trkpt>
      <trkpt lat="42.87631" lon="-0.00603">
        <ele>730.4</ele>
        <time>2022-06-08 14:42:50</time>
      </trkpt>
      <trkpt lat="42.87629" lon="-0.00599">
        <ele>730.6</ele>
        <time>2022-06-08 14:42:51</time>
      </trkpt>
      <trkpt lat="42.87626" lon="-0.00595">
        <ele>730.6</ele>
        <time>2022-06-08 14:42:52</time>
      </trkpt>
      <trkpt lat="42.87623" lon="-0.00591">
        <ele>731.2</ele>
        <time>2022-06-08 14:42:53</time>
      </trkpt>
      <trkpt lat="42.8762" lon="-0.00587">
        <ele>731</ele>
        <time>2022-06-08 14:42:54</time>
      </trkpt>
      <trkpt lat="42.87617" lon="-0.00584">
        <ele>731.6</ele>
        <time>2022-06-08 14:42:55</time>
      </trkpt>
      <trkpt lat="42.87615" lon="-0.0058">
        <ele>731.6</ele>
        <time>2022-06-08 14:42:56</time>
      </trkpt>
      <trkpt lat="42.87612" lon="-0.00576">
        <ele>731.6</ele>
        <time>2022-06-08 14:42:57</time>
      </trkpt>
      <trkpt lat="42.8761" lon="-0.00572">
        <ele>731.6</ele>
        <time>2022-06-08 14:42:58</time>
      </trkpt>
      <trkpt lat="42.87607" lon="-0.00568">
        <ele>731.8</ele>
        <time>2022-06-08 14:42:59</time>
      </trkpt>
      <trkpt lat="42.87604" lon="-0.00564">
        <ele>732</ele>
        <time>2022-06-08 14:43:00</time>
      </trkpt>
      <trkpt lat="42.87601" lon="-0.0056">
        <ele>732.2</ele>
        <time>2022-06-08 14:43:01</time>
      </trkpt>
      <trkpt lat="42.87598" lon="-0.00556">
        <ele>732.2</ele>
        <time>2022-06-08 14:43:02</time>
      </trkpt>
      <trkpt lat="42.87596" lon="-0.00552">
        <ele>732.2</ele>
        <time>2022-06-08 14:43:03</time>
      </trkpt>
      <trkpt lat="42.87593" lon="-0.00548">
        <ele>732.4</ele>
        <time>2022-06-08 14:43:04</time>
      </trkpt>
      <trkpt lat="42.8759" lon="-0.00543">
        <ele>732.6</ele>
        <time>2022-06-08 14:43:05</time>
      </trkpt>
      <trkpt lat="42.87588" lon="-0.00539">
        <ele>732.8</ele>
        <time>2022-06-08 14:43:06</time>
      </trkpt>
      <trkpt lat="42.87585" lon="-0.00535">
        <ele>732.8</ele>
        <time>2022-06-08 14:43:07</time>
      </trkpt>
      <trkpt lat="42.87582" lon="-0.00532">
        <ele>733</ele>
        <time>2022-06-08 14:43:08</time>
      </trkpt>
      <trkpt lat="42.87579" lon="-0.00528">
        <ele>733.2</ele>
        <time>2022-06-08 14:43:09</time>
      </trkpt>
      <trkpt lat="42.87577" lon="-0.00524">
        <ele>733.4</ele>
        <time>2022-06-08 14:43:10</time>
      </trkpt>
      <trkpt lat="42.87574" lon="-0.0052">
        <ele>733.4</ele>
        <time>2022-06-08 14:43:11</time>
      </trkpt>
      <trkpt lat="42.87571" lon="-0.00516">
        <ele>733.8</ele>
        <time>2022-06-08 14:43:12</time>
      </trkpt>
      <trkpt lat="42.87568" lon="-0.00512">
        <ele>734</ele>
        <time>2022-06-08 14:43:13</time>
      </trkpt>
      <trkpt lat="42.87566" lon="-0.00508">
        <ele>734.2</ele>
        <time>2022-06-08 14:43:14</time>
      </trkpt>
      <trkpt lat="42.87563" lon="-0.00503">
        <ele>734.4</ele>
        <time>2022-06-08 14:43:15</time>
      </trkpt>
      <trkpt lat="42.8756" lon="-0.00499">
        <ele>734.6</ele>
        <time>2022-06-08 14:43:16</time>
      </trkpt>
      <trkpt lat="42.87558" lon="-0.00495">
        <ele>734.8</ele>
        <time>2022-06-08 14:43:17</time>
      </trkpt>
      <trkpt lat="42.87555" lon="-0.00491">
        <ele>735</ele>
        <time>2022-06-08 14:43:18</time>
      </trkpt>
      <trkpt lat="42.87552" lon="-0.00488">
        <ele>735.2</ele>
        <time>2022-06-08 14:43:19</time>
      </trkpt>
      <trkpt lat="42.8755" lon="-0.00484">
        <ele>735.6</ele>
        <time>2022-06-08 14:43:20</time>
      </trkpt>
      <trkpt lat="42.87547" lon="-0.0048">
        <ele>735.8</ele>
        <time>2022-06-08 14:43:21</time>
      </trkpt>
      <trkpt lat="42.87544" lon="-0.00476">
        <ele>735.8</ele>
        <time>2022-06-08 14:43:22</time>
      </trkpt>
      <trkpt lat="42.87541" lon="-0.00472">
        <ele>736.4</ele>
        <time>2022-06-08 14:43:23</time>
      </trkpt>
      <trkpt lat="42.87538" lon="-0.00468">
        <ele>736.6</ele>
        <time>2022-06-08 14:43:24</time>
      </trkpt>
      <trkpt lat="42.87535" lon="-0.00464">
        <ele>737</ele>
        <time>2022-06-08 14:43:25</time>
      </trkpt>
      <trkpt lat="42.87532" lon="-0.0046">
        <ele>737</ele>
        <time>2022-06-08 14:43:26</time>
      </trkpt>
      <trkpt lat="42.87529" lon="-0.00455">
        <ele>737.4</ele>
        <time>2022-06-08 14:43:27</time>
      </trkpt>
      <trkpt lat="42.87527" lon="-0.00452">
        <ele>737.4</ele>
        <time>2022-06-08 14:43:28</time>
      </trkpt>
      <trkpt lat="42.87524" lon="-0.00448">
        <ele>737.8</ele>
        <time>2022-06-08 14:43:29</time>
      </trkpt>
      <trkpt lat="42.87522" lon="-0.00445">
        <ele>738</ele>
        <time>2022-06-08 14:43:30</time>
      </trkpt>
      <trkpt lat="42.87519" lon="-0.00441">
        <ele>738.2</ele>
        <time>2022-06-08 14:43:31</time>
      </trkpt>
      <trkpt lat="42.87517" lon="-0.00437">
        <ele>738.4</ele>
        <time>2022-06-08 14:43:32</time>
      </trkpt>
      <trkpt lat="42.87514" lon="-0.00433">
        <ele>738.4</ele>
        <time>2022-06-08 14:43:33</time>
      </trkpt>
      <trkpt lat="42.87512" lon="-0.00429">
        <ele>738.6</ele>
        <time>2022-06-08 14:43:34</time>
      </trkpt>
      <trkpt lat="42.87509" lon="-0.00426">
        <ele>738.8</ele>
        <time>2022-06-08 14:43:35</time>
      </trkpt>
      <trkpt lat="42.87507" lon="-0.00422">
        <ele>739.2</ele>
        <time>2022-06-08 14:43:36</time>
      </trkpt>
      <trkpt lat="42.87505" lon="-0.00418">
        <ele>739.2</ele>
        <time>2022-06-08 14:43:37</time>
      </trkpt>
      <trkpt lat="42.87503" lon="-0.00414">
        <ele>739.6</ele>
        <time>2022-06-08 14:43:38</time>
      </trkpt>
      <trkpt lat="42.87501" lon="-0.00411">
        <ele>739.6</ele>
        <time>2022-06-08 14:43:39</time>
      </trkpt>
      <trkpt lat="42.87498" lon="-0.00407">
        <ele>740</ele>
        <time>2022-06-08 14:43:40</time>
      </trkpt>
      <trkpt lat="42.87496" lon="-0.00404">
        <ele>740.2</ele>
        <time>2022-06-08 14:43:41</time>
      </trkpt>
      <trkpt lat="42.87493" lon="-0.00401">
        <ele>740.4</ele>
        <time>2022-06-08 14:43:42</time>
      </trkpt>
      <trkpt lat="42.87491" lon="-0.00397">
        <ele>740.8</ele>
        <time>2022-06-08 14:43:43</time>
      </trkpt>
      <trkpt lat="42.87489" lon="-0.00394">
        <ele>741</ele>
        <time>2022-06-08 14:43:44</time>
      </trkpt>
      <trkpt lat="42.87486" lon="-0.0039">
        <ele>741.2</ele>
        <time>2022-06-08 14:43:45</time>
      </trkpt>
      <trkpt lat="42.87483" lon="-0.00386">
        <ele>741.2</ele>
        <time>2022-06-08 14:43:46</time>
      </trkpt>
      <trkpt lat="42.87481" lon="-0.00384">
        <ele>741.6</ele>
        <time>2022-06-08 14:43:47</time>
      </trkpt>
      <trkpt lat="42.87479" lon="-0.0038">
        <ele>741.6</ele>
        <time>2022-06-08 14:43:48</time>
      </trkpt>
      <trkpt lat="42.87477" lon="-0.00377">
        <ele>741.8</ele>
        <time>2022-06-08 14:43:49</time>
      </trkpt>
      <trkpt lat="42.87475" lon="-0.00374">
        <ele>742</ele>
        <time>2022-06-08 14:43:50</time>
      </trkpt>
      <trkpt lat="42.87473" lon="-0.0037">
        <ele>742.4</ele>
        <time>2022-06-08 14:43:51</time>
      </trkpt>
      <trkpt lat="42.8747" lon="-0.00366">
        <ele>742.6</ele>
        <time>2022-06-08 14:43:52</time>
      </trkpt>
      <trkpt lat="42.87468" lon="-0.00363">
        <ele>742.8</ele>
        <time>2022-06-08 14:43:53</time>
      </trkpt>
      <trkpt lat="42.87465" lon="-0.0036">
        <ele>743</ele>
        <time>2022-06-08 14:43:54</time>
      </trkpt>
      <trkpt lat="42.87463" lon="-0.00356">
        <ele>743.2</ele>
        <time>2022-06-08 14:43:55</time>
      </trkpt>
      <trkpt lat="42.87461" lon="-0.00353">
        <ele>743.2</ele>
        <time>2022-06-08 14:43:56</time>
      </trkpt>
      <trkpt lat="42.87458" lon="-0.00349">
        <ele>743.4</ele>
        <time>2022-06-08 14:43:57</time>
      </trkpt>
      <trkpt lat="42.87456" lon="-0.00346">
        <ele>743.8</ele>
        <time>2022-06-08 14:43:58</time>
      </trkpt>
      <trkpt lat="42.87454" lon="-0.00342">
        <ele>744</ele>
        <time>2022-06-08 14:43:59</time>
      </trkpt>
      <trkpt lat="42.87452" lon="-0.00338">
        <ele>744.2</ele>
        <time>2022-06-08 14:44:00</time>
      </trkpt>
      <trkpt lat="42.87449" lon="-0.00335">
        <ele>744.2</ele>
        <time>2022-06-08 14:44:01</time>
      </trkpt>
      <trkpt lat="42.87447" lon="-0.00331">
        <ele>744.4</ele>
        <time>2022-06-08 14:44:02</time>
      </trkpt>
      <trkpt lat="42.87446" lon="-0.00327">
        <ele>744.6</ele>
        <time>2022-06-08 14:44:03</time>
      </trkpt>
      <trkpt lat="42.87446" lon="-0.00322">
        <ele>745</ele>
        <time>2022-06-08 14:44:04</time>
      </trkpt>
      <trkpt lat="42.87446" lon="-0.00318">
        <ele>745</ele>
        <time>2022-06-08 14:44:05</time>
      </trkpt>
      <trkpt lat="42.87449" lon="-0.00314">
        <ele>745.4</ele>
        <time>2022-06-08 14:44:06</time>
      </trkpt>
      <trkpt lat="42.87451" lon="-0.0031">
        <ele>745.6</ele>
        <time>2022-06-08 14:44:07</time>
      </trkpt>
      <trkpt lat="42.87454" lon="-0.00307">
        <ele>745.8</ele>
        <time>2022-06-08 14:44:08</time>
      </trkpt>
      <trkpt lat="42.87457" lon="-0.00304">
        <ele>746</ele>
        <time>2022-06-08 14:44:09</time>
      </trkpt>
      <trkpt lat="42.87461" lon="-0.00302">
        <ele>746.2</ele>
        <time>2022-06-08 14:44:10</time>
      </trkpt>
      <trkpt lat="42.87464" lon="-0.00299">
        <ele>746.2</ele>
        <time>2022-06-08 14:44:11</time>
      </trkpt>
      <trkpt lat="42.87468" lon="-0.00297">
        <ele>746.2</ele>
        <time>2022-06-08 14:44:12</time>
      </trkpt>
      <trkpt lat="42.87471" lon="-0.00294">
        <ele>746.4</ele>
        <time>2022-06-08 14:44:13</time>
      </trkpt>
      <trkpt lat="42.87474" lon="-0.00291">
        <ele>746.4</ele>
        <time>2022-06-08 14:44:14</time>
      </trkpt>
      <trkpt lat="42.87477" lon="-0.00288">
        <ele>746.6</ele>
        <time>2022-06-08 14:44:15</time>
      </trkpt>
      <trkpt lat="42.87481" lon="-0.00286">
        <ele>746.6</ele>
        <time>2022-06-08 14:44:16</time>
      </trkpt>
      <trkpt lat="42.87484" lon="-0.00282">
        <ele>746.8</ele>
        <time>2022-06-08 14:44:17</time>
      </trkpt>
      <trkpt lat="42.87486" lon="-0.00279">
        <ele>746.8</ele>
        <time>2022-06-08 14:44:18</time>
      </trkpt>
      <trkpt lat="42.87487" lon="-0.00275">
        <ele>746.8</ele>
        <time>2022-06-08 14:44:19</time>
      </trkpt>
      <trkpt lat="42.87488" lon="-0.00271">
        <ele>746.8</ele>
        <time>2022-06-08 14:44:20</time>
      </trkpt>
      <trkpt lat="42.87488" lon="-0.00268">
        <ele>746.8</ele>
        <time>2022-06-08 14:44:21</time>
      </trkpt>
      <trkpt lat="42.87487" lon="-0.00264">
        <ele>746.8</ele>
        <time>2022-06-08 14:44:22</time>
      </trkpt>
      <trkpt lat="42.87485" lon="-0.0026">
        <ele>747</ele>
        <time>2022-06-08 14:44:23</time>
      </trkpt>
      <trkpt lat="42.87484" lon="-0.00256">
        <ele>747</ele>
        <time>2022-06-08 14:44:24</time>
      </trkpt>
      <trkpt lat="42.87482" lon="-0.00252">
        <ele>747</ele>
        <time>2022-06-08 14:44:25</time>
      </trkpt>
      <trkpt lat="42.87481" lon="-0.00248">
        <ele>747.2</ele>
        <time>2022-06-08 14:44:26</time>
      </trkpt>
      <trkpt lat="42.8748" lon="-0.00244">
        <ele>747.2</ele>
        <time>2022-06-08 14:44:27</time>
      </trkpt>
      <trkpt lat="42.87478" lon="-0.0024">
        <ele>747.4</ele>
        <time>2022-06-08 14:44:28</time>
      </trkpt>
      <trkpt lat="42.87477" lon="-0.00236">
        <ele>747.4</ele>
        <time>2022-06-08 14:44:29</time>
      </trkpt>
      <trkpt lat="42.87475" lon="-0.00231">
        <ele>747.8</ele>
        <time>2022-06-08 14:44:30</time>
      </trkpt>
      <trkpt lat="42.87474" lon="-0.00227">
        <ele>747.8</ele>
        <time>2022-06-08 14:44:31</time>
      </trkpt>
      <trkpt lat="42.87472" lon="-0.00222">
        <ele>748</ele>
        <time>2022-06-08 14:44:32</time>
      </trkpt>
      <trkpt lat="42.87471" lon="-0.00219">
        <ele>748</ele>
        <time>2022-06-08 14:44:33</time>
      </trkpt>
      <trkpt lat="42.8747" lon="-0.00215">
        <ele>748.2</ele>
        <time>2022-06-08 14:44:34</time>
      </trkpt>
      <trkpt lat="42.87469" lon="-0.00211">
        <ele>748.2</ele>
        <time>2022-06-08 14:44:35</time>
      </trkpt>
      <trkpt lat="42.87467" lon="-0.00205">
        <ele>748.4</ele>
        <time>2022-06-08 14:44:36</time>
      </trkpt>
      <trkpt lat="42.87467" lon="-0.002">
        <ele>748.6</ele>
        <time>2022-06-08 14:44:37</time>
      </trkpt>
      <trkpt lat="42.87466" lon="-0.00196">
        <ele>748.8</ele>
        <time>2022-06-08 14:44:38</time>
      </trkpt>
      <trkpt lat="42.87466" lon="-0.00192">
        <ele>749</ele>
        <time>2022-06-08 14:44:39</time>
      </trkpt>
      <trkpt lat="42.87465" lon="-0.00186">
        <ele>749.2</ele>
        <time>2022-06-08 14:44:40</time>
      </trkpt>
      <trkpt lat="42.87465" lon="-0.00183">
        <ele>749.4</ele>
        <time>2022-06-08 14:44:41</time>
      </trkpt>
      <trkpt lat="42.87464" lon="-0.00177">
        <ele>749.4</ele>
        <time>2022-06-08 14:44:42</time>
      </trkpt>
      <trkpt lat="42.87464" lon="-0.00174">
        <ele>749.6</ele>
        <time>2022-06-08 14:44:43</time>
      </trkpt>
      <trkpt lat="42.87465" lon="-0.00169">
        <ele>749.6</ele>
        <time>2022-06-08 14:44:44</time>
      </trkpt>
      <trkpt lat="42.87465" lon="-0.00164">
        <ele>749.8</ele>
        <time>2022-06-08 14:44:45</time>
      </trkpt>
      <trkpt lat="42.87465" lon="-0.0016">
        <ele>749.8</ele>
        <time>2022-06-08 14:44:46</time>
      </trkpt>
      <trkpt lat="42.87466" lon="-0.00155">
        <ele>750</ele>
        <time>2022-06-08 14:44:47</time>
      </trkpt>
      <trkpt lat="42.87466" lon="-0.0015">
        <ele>750.2</ele>
        <time>2022-06-08 14:44:48</time>
      </trkpt>
      <trkpt lat="42.87467" lon="-0.00146">
        <ele>750.4</ele>
        <time>2022-06-08 14:44:49</time>
      </trkpt>
      <trkpt lat="42.87469" lon="-0.00141">
        <ele>750.6</ele>
        <time>2022-06-08 14:44:50</time>
      </trkpt>
      <trkpt lat="42.8747" lon="-0.00136">
        <ele>750.6</ele>
        <time>2022-06-08 14:44:51</time>
      </trkpt>
      <trkpt lat="42.87471" lon="-0.00132">
        <ele>750.6</ele>
        <time>2022-06-08 14:44:52</time>
      </trkpt>
      <trkpt lat="42.87472" lon="-0.00128">
        <ele>750.6</ele>
        <time>2022-06-08 14:44:53</time>
      </trkpt>
      <trkpt lat="42.87474" lon="-0.00124">
        <ele>751</ele>
        <time>2022-06-08 14:44:54</time>
      </trkpt>
      <trkpt lat="42.87476" lon="-0.0012">
        <ele>751</ele>
        <time>2022-06-08 14:44:55</time>
      </trkpt>
      <trkpt lat="42.87478" lon="-0.00116">
        <ele>751.2</ele>
        <time>2022-06-08 14:44:56</time>
      </trkpt>
      <trkpt lat="42.87479" lon="-0.00113">
        <ele>751.2</ele>
        <time>2022-06-08 14:44:57</time>
      </trkpt>
      <trkpt lat="42.87481" lon="-0.0011">
        <ele>751.4</ele>
        <time>2022-06-08 14:44:58</time>
      </trkpt>
      <trkpt lat="42.87482" lon="-0.00107">
        <ele>751.8</ele>
        <time>2022-06-08 14:44:59</time>
      </trkpt>
      <trkpt lat="42.87484" lon="-0.00105">
        <ele>751.8</ele>
        <time>2022-06-08 14:45:00</time>
      </trkpt>
      <trkpt lat="42.87485" lon="-0.00102">
        <ele>752</ele>
        <time>2022-06-08 14:45:01</time>
      </trkpt>
      <trkpt lat="42.87486" lon="-0.001">
        <ele>752.2</ele>
        <time>2022-06-08 14:45:02</time>
      </trkpt>
      <trkpt lat="42.87487" lon="-0.00099">
        <ele>752.4</ele>
        <time>2022-06-08 14:45:03</time>
      </trkpt>
      <trkpt lat="42.87489" lon="-0.00097">
        <ele>752.4</ele>
        <time>2022-06-08 14:45:04</time>
      </trkpt>
    </trkseg>
  </trk>
</gpx>
